<?xml version="1.0" encoding="UTF-8" standalone="no" ?>
<gpx xmlns="http://www.topografix.com/GPX/1/1" xmlns:xsi="http://www.w3.org/2001/XMLSchema-instance" xsi:schemaLocation="http://www.topografix.com/GPX/1/1 http://www.topografix.com/GPX/1/1/gpx.xsd" version="1.1" creator="VisuGPX - https://www.visugpx.com">
  <metadata>
    <name>A Chazay </name>
  </metadata>
  <trk>
    <name><![CDATA[VTC 23 août 2022]]></name>
    <trkseg>
      <trkpt lat="45.90736" lon="4.69555">
        <ele>256.23672</ele>
        <time>2022-08-23T12:28:03.449Z</time>
      </trkpt>
      <trkpt lat="45.90734" lon="4.69557">
        <ele>257.52039</ele>
        <time>2022-08-23T12:28:28.000Z</time>
      </trkpt>
      <trkpt lat="45.90732" lon="4.69558">
        <ele>258.14975</ele>
        <time>2022-08-23T12:28:30.000Z</time>
      </trkpt>
      <trkpt lat="45.9073" lon="4.69559">
        <ele>258.4025</ele>
        <time>2022-08-23T12:28:31.000Z</time>
      </trkpt>
      <trkpt lat="45.90728" lon="4.69559">
        <ele>258.50531</ele>
        <time>2022-08-23T12:28:32.000Z</time>
      </trkpt>
      <trkpt lat="45.90725" lon="4.69559">
        <ele>258.61887</ele>
        <time>2022-08-23T12:28:33.000Z</time>
      </trkpt>
      <trkpt lat="45.90723" lon="4.69559">
        <ele>258.75735</ele>
        <time>2022-08-23T12:28:34.000Z</time>
      </trkpt>
      <trkpt lat="45.90721" lon="4.69559">
        <ele>258.91785</ele>
        <time>2022-08-23T12:28:35.000Z</time>
      </trkpt>
      <trkpt lat="45.90719" lon="4.69559">
        <ele>259.01468</ele>
        <time>2022-08-23T12:28:36.000Z</time>
      </trkpt>
      <trkpt lat="45.90716" lon="4.69559">
        <ele>259.07867</ele>
        <time>2022-08-23T12:28:37.000Z</time>
      </trkpt>
      <trkpt lat="45.90714" lon="4.69559">
        <ele>259.15552</ele>
        <time>2022-08-23T12:28:38.000Z</time>
      </trkpt>
      <trkpt lat="45.90711" lon="4.69559">
        <ele>259.22784</ele>
        <time>2022-08-23T12:28:39.000Z</time>
      </trkpt>
      <trkpt lat="45.90709" lon="4.69559">
        <ele>259.26227</ele>
        <time>2022-08-23T12:28:40.000Z</time>
      </trkpt>
      <trkpt lat="45.90706" lon="4.69559">
        <ele>259.23611</ele>
        <time>2022-08-23T12:28:41.000Z</time>
      </trkpt>
      <trkpt lat="45.90703" lon="4.69558">
        <ele>259.25812</ele>
        <time>2022-08-23T12:28:42.000Z</time>
      </trkpt>
      <trkpt lat="45.907" lon="4.69557">
        <ele>259.20694</ele>
        <time>2022-08-23T12:28:43.000Z</time>
      </trkpt>
      <trkpt lat="45.90697" lon="4.69556">
        <ele>259.15356</ele>
        <time>2022-08-23T12:28:44.000Z</time>
      </trkpt>
      <trkpt lat="45.90695" lon="4.69556">
        <ele>259.12543</ele>
        <time>2022-08-23T12:28:45.000Z</time>
      </trkpt>
      <trkpt lat="45.90692" lon="4.69557">
        <ele>259.09222</ele>
        <time>2022-08-23T12:28:46.000Z</time>
      </trkpt>
      <trkpt lat="45.9069" lon="4.69557">
        <ele>259.07831</ele>
        <time>2022-08-23T12:28:47.000Z</time>
      </trkpt>
      <trkpt lat="45.90687" lon="4.69558">
        <ele>259.22931</ele>
        <time>2022-08-23T12:28:48.000Z</time>
      </trkpt>
      <trkpt lat="45.90685" lon="4.69558">
        <ele>259.24274</ele>
        <time>2022-08-23T12:28:49.000Z</time>
      </trkpt>
      <trkpt lat="45.90682" lon="4.69558">
        <ele>259.2149</ele>
        <time>2022-08-23T12:28:50.000Z</time>
      </trkpt>
      <trkpt lat="45.9068" lon="4.69557">
        <ele>259.17682</ele>
        <time>2022-08-23T12:28:51.000Z</time>
      </trkpt>
      <trkpt lat="45.90677" lon="4.69557">
        <ele>259.16623</ele>
        <time>2022-08-23T12:28:52.000Z</time>
      </trkpt>
      <trkpt lat="45.90675" lon="4.69557">
        <ele>259.13254</ele>
        <time>2022-08-23T12:28:53.000Z</time>
      </trkpt>
      <trkpt lat="45.90672" lon="4.69557">
        <ele>259.0705</ele>
        <time>2022-08-23T12:28:54.000Z</time>
      </trkpt>
      <trkpt lat="45.90669" lon="4.69556">
        <ele>259.04041</ele>
        <time>2022-08-23T12:28:55.000Z</time>
      </trkpt>
      <trkpt lat="45.90667" lon="4.69556">
        <ele>258.98666</ele>
        <time>2022-08-23T12:28:56.000Z</time>
      </trkpt>
      <trkpt lat="45.90664" lon="4.69555">
        <ele>258.96732</ele>
        <time>2022-08-23T12:28:57.000Z</time>
      </trkpt>
      <trkpt lat="45.90661" lon="4.69555">
        <ele>258.98785</ele>
        <time>2022-08-23T12:28:58.000Z</time>
      </trkpt>
      <trkpt lat="45.90659" lon="4.69555">
        <ele>259.01913</ele>
        <time>2022-08-23T12:28:59.000Z</time>
      </trkpt>
      <trkpt lat="45.90656" lon="4.69555">
        <ele>259.05838</ele>
        <time>2022-08-23T12:29:00.000Z</time>
      </trkpt>
      <trkpt lat="45.90654" lon="4.69555">
        <ele>259.07959</ele>
        <time>2022-08-23T12:29:01.000Z</time>
      </trkpt>
      <trkpt lat="45.90651" lon="4.69554">
        <ele>259.05621</ele>
        <time>2022-08-23T12:29:02.000Z</time>
      </trkpt>
      <trkpt lat="45.90649" lon="4.69554">
        <ele>259.0687</ele>
        <time>2022-08-23T12:29:03.000Z</time>
      </trkpt>
      <trkpt lat="45.90646" lon="4.69554">
        <ele>259.09601</ele>
        <time>2022-08-23T12:29:04.000Z</time>
      </trkpt>
      <trkpt lat="45.90644" lon="4.69554">
        <ele>259.1452</ele>
        <time>2022-08-23T12:29:06.000Z</time>
      </trkpt>
      <trkpt lat="45.90645" lon="4.69556">
        <ele>259.18707</ele>
        <time>2022-08-23T12:29:39.000Z</time>
      </trkpt>
      <trkpt lat="45.90646" lon="4.69562">
        <ele>259.29071</ele>
        <time>2022-08-23T12:29:40.000Z</time>
      </trkpt>
      <trkpt lat="45.90647" lon="4.69567">
        <ele>259.36646</ele>
        <time>2022-08-23T12:29:41.000Z</time>
      </trkpt>
      <trkpt lat="45.90649" lon="4.69572">
        <ele>259.42157</ele>
        <time>2022-08-23T12:29:42.000Z</time>
      </trkpt>
      <trkpt lat="45.9065" lon="4.69577">
        <ele>259.36453</ele>
        <time>2022-08-23T12:29:43.000Z</time>
      </trkpt>
      <trkpt lat="45.90652" lon="4.69581">
        <ele>259.27814</ele>
        <time>2022-08-23T12:29:44.000Z</time>
      </trkpt>
      <trkpt lat="45.90654" lon="4.69586">
        <ele>259.11798</ele>
        <time>2022-08-23T12:29:45.000Z</time>
      </trkpt>
      <trkpt lat="45.90655" lon="4.69591">
        <ele>259.04999</ele>
        <time>2022-08-23T12:29:46.000Z</time>
      </trkpt>
      <trkpt lat="45.90656" lon="4.69595">
        <ele>258.94989</ele>
        <time>2022-08-23T12:29:47.000Z</time>
      </trkpt>
      <trkpt lat="45.90656" lon="4.69599">
        <ele>258.83984</ele>
        <time>2022-08-23T12:29:48.000Z</time>
      </trkpt>
      <trkpt lat="45.90657" lon="4.69603">
        <ele>258.81967</ele>
        <time>2022-08-23T12:29:49.000Z</time>
      </trkpt>
      <trkpt lat="45.90658" lon="4.69608">
        <ele>258.76422</ele>
        <time>2022-08-23T12:29:50.000Z</time>
      </trkpt>
      <trkpt lat="45.9066" lon="4.69612">
        <ele>258.60602</ele>
        <time>2022-08-23T12:29:51.000Z</time>
      </trkpt>
      <trkpt lat="45.90661" lon="4.69617">
        <ele>258.4137</ele>
        <time>2022-08-23T12:29:52.000Z</time>
      </trkpt>
      <trkpt lat="45.90663" lon="4.69622">
        <ele>258.16971</ele>
        <time>2022-08-23T12:29:53.000Z</time>
      </trkpt>
      <trkpt lat="45.90665" lon="4.69627">
        <ele>258.09723</ele>
        <time>2022-08-23T12:29:54.000Z</time>
      </trkpt>
      <trkpt lat="45.90667" lon="4.69632">
        <ele>258.10709</ele>
        <time>2022-08-23T12:29:55.000Z</time>
      </trkpt>
      <trkpt lat="45.90669" lon="4.69637">
        <ele>258.13635</ele>
        <time>2022-08-23T12:29:56.000Z</time>
      </trkpt>
      <trkpt lat="45.90672" lon="4.69643">
        <ele>258.12469</ele>
        <time>2022-08-23T12:29:57.000Z</time>
      </trkpt>
      <trkpt lat="45.90674" lon="4.69648">
        <ele>258.06158</ele>
        <time>2022-08-23T12:29:58.000Z</time>
      </trkpt>
      <trkpt lat="45.90676" lon="4.69654">
        <ele>257.9668</ele>
        <time>2022-08-23T12:29:59.000Z</time>
      </trkpt>
      <trkpt lat="45.90678" lon="4.6966">
        <ele>257.79535</ele>
        <time>2022-08-23T12:30:00.000Z</time>
      </trkpt>
      <trkpt lat="45.90679" lon="4.69665">
        <ele>257.61017</ele>
        <time>2022-08-23T12:30:01.000Z</time>
      </trkpt>
      <trkpt lat="45.90681" lon="4.6967">
        <ele>257.517</ele>
        <time>2022-08-23T12:30:02.000Z</time>
      </trkpt>
      <trkpt lat="45.90683" lon="4.69674">
        <ele>257.54553</ele>
        <time>2022-08-23T12:30:03.000Z</time>
      </trkpt>
      <trkpt lat="45.90684" lon="4.69679">
        <ele>257.6127</ele>
        <time>2022-08-23T12:30:04.000Z</time>
      </trkpt>
      <trkpt lat="45.90686" lon="4.69683">
        <ele>257.63748</ele>
        <time>2022-08-23T12:30:05.000Z</time>
      </trkpt>
      <trkpt lat="45.90687" lon="4.69687">
        <ele>257.5401</ele>
        <time>2022-08-23T12:30:06.000Z</time>
      </trkpt>
      <trkpt lat="45.90688" lon="4.69691">
        <ele>257.44354</ele>
        <time>2022-08-23T12:30:07.000Z</time>
      </trkpt>
      <trkpt lat="45.90689" lon="4.69695">
        <ele>257.32623</ele>
        <time>2022-08-23T12:30:08.000Z</time>
      </trkpt>
      <trkpt lat="45.9069" lon="4.69697">
        <ele>257.13388</ele>
        <time>2022-08-23T12:30:09.000Z</time>
      </trkpt>
      <trkpt lat="45.90688" lon="4.69698">
        <ele>257.00836</ele>
        <time>2022-08-23T12:30:16.000Z</time>
      </trkpt>
      <trkpt lat="45.90688" lon="4.69701">
        <ele>256.88885</ele>
        <time>2022-08-23T12:30:27.000Z</time>
      </trkpt>
      <trkpt lat="45.90689" lon="4.69706">
        <ele>256.82205</ele>
        <time>2022-08-23T12:30:28.000Z</time>
      </trkpt>
      <trkpt lat="45.9069" lon="4.69711">
        <ele>256.79938</ele>
        <time>2022-08-23T12:30:29.000Z</time>
      </trkpt>
      <trkpt lat="45.9069" lon="4.69715">
        <ele>256.53012</ele>
        <time>2022-08-23T12:30:30.000Z</time>
      </trkpt>
      <trkpt lat="45.90691" lon="4.6972">
        <ele>256.19345</ele>
        <time>2022-08-23T12:30:31.000Z</time>
      </trkpt>
      <trkpt lat="45.90693" lon="4.69725">
        <ele>255.76599</ele>
        <time>2022-08-23T12:30:32.000Z</time>
      </trkpt>
      <trkpt lat="45.90694" lon="4.69731">
        <ele>255.2782</ele>
        <time>2022-08-23T12:30:33.000Z</time>
      </trkpt>
      <trkpt lat="45.90695" lon="4.69736">
        <ele>254.8313</ele>
        <time>2022-08-23T12:30:34.000Z</time>
      </trkpt>
      <trkpt lat="45.90695" lon="4.6974">
        <ele>254.40991</ele>
        <time>2022-08-23T12:30:35.000Z</time>
      </trkpt>
      <trkpt lat="45.90695" lon="4.69745">
        <ele>253.97571</ele>
        <time>2022-08-23T12:30:36.000Z</time>
      </trkpt>
      <trkpt lat="45.90695" lon="4.6975">
        <ele>253.50569</ele>
        <time>2022-08-23T12:30:37.000Z</time>
      </trkpt>
      <trkpt lat="45.90695" lon="4.69755">
        <ele>252.93811</ele>
        <time>2022-08-23T12:30:38.000Z</time>
      </trkpt>
      <trkpt lat="45.90695" lon="4.6976">
        <ele>252.37659</ele>
        <time>2022-08-23T12:30:39.000Z</time>
      </trkpt>
      <trkpt lat="45.90695" lon="4.69764">
        <ele>251.79102</ele>
        <time>2022-08-23T12:30:40.000Z</time>
      </trkpt>
      <trkpt lat="45.90695" lon="4.69768">
        <ele>251.28906</ele>
        <time>2022-08-23T12:30:41.000Z</time>
      </trkpt>
      <trkpt lat="45.90694" lon="4.69772">
        <ele>250.85027</ele>
        <time>2022-08-23T12:30:42.000Z</time>
      </trkpt>
      <trkpt lat="45.90694" lon="4.69775">
        <ele>250.38152</ele>
        <time>2022-08-23T12:30:43.000Z</time>
      </trkpt>
      <trkpt lat="45.90693" lon="4.69779">
        <ele>249.96924</ele>
        <time>2022-08-23T12:31:01.000Z</time>
      </trkpt>
      <trkpt lat="45.90693" lon="4.69782">
        <ele>249.53635</ele>
        <time>2022-08-23T12:31:02.000Z</time>
      </trkpt>
      <trkpt lat="45.90694" lon="4.69785">
        <ele>249.07141</ele>
        <time>2022-08-23T12:31:04.000Z</time>
      </trkpt>
      <trkpt lat="45.90693" lon="4.69783">
        <ele>248.61777</ele>
        <time>2022-08-23T12:31:12.000Z</time>
      </trkpt>
      <trkpt lat="45.90691" lon="4.69781">
        <ele>248.07634</ele>
        <time>2022-08-23T12:31:17.000Z</time>
      </trkpt>
      <trkpt lat="45.90691" lon="4.69777">
        <ele>247.53194</ele>
        <time>2022-08-23T12:31:19.000Z</time>
      </trkpt>
      <trkpt lat="45.90691" lon="4.69772">
        <ele>247.07356</ele>
        <time>2022-08-23T12:31:21.000Z</time>
      </trkpt>
      <trkpt lat="45.90692" lon="4.69769">
        <ele>246.61475</ele>
        <time>2022-08-23T12:31:22.000Z</time>
      </trkpt>
      <trkpt lat="45.90692" lon="4.69765">
        <ele>246.23755</ele>
        <time>2022-08-23T12:31:23.000Z</time>
      </trkpt>
      <trkpt lat="45.90692" lon="4.6976">
        <ele>245.95036</ele>
        <time>2022-08-23T12:31:24.000Z</time>
      </trkpt>
      <trkpt lat="45.90692" lon="4.69756">
        <ele>245.62863</ele>
        <time>2022-08-23T12:31:25.000Z</time>
      </trkpt>
      <trkpt lat="45.90692" lon="4.69751">
        <ele>245.29671</ele>
        <time>2022-08-23T12:31:26.000Z</time>
      </trkpt>
      <trkpt lat="45.90691" lon="4.69746">
        <ele>244.92046</ele>
        <time>2022-08-23T12:31:27.000Z</time>
      </trkpt>
      <trkpt lat="45.90691" lon="4.69742">
        <ele>244.62175</ele>
        <time>2022-08-23T12:31:28.000Z</time>
      </trkpt>
      <trkpt lat="45.9069" lon="4.69737">
        <ele>244.36235</ele>
        <time>2022-08-23T12:31:29.000Z</time>
      </trkpt>
      <trkpt lat="45.9069" lon="4.69732">
        <ele>244.09477</ele>
        <time>2022-08-23T12:31:30.000Z</time>
      </trkpt>
      <trkpt lat="45.9069" lon="4.69728">
        <ele>243.87956</ele>
        <time>2022-08-23T12:31:31.000Z</time>
      </trkpt>
      <trkpt lat="45.9069" lon="4.69724">
        <ele>243.69492</ele>
        <time>2022-08-23T12:31:32.000Z</time>
      </trkpt>
      <trkpt lat="45.90689" lon="4.6972">
        <ele>243.53841</ele>
        <time>2022-08-23T12:31:33.000Z</time>
      </trkpt>
      <trkpt lat="45.90689" lon="4.69716">
        <ele>243.45071</ele>
        <time>2022-08-23T12:31:34.000Z</time>
      </trkpt>
      <trkpt lat="45.90689" lon="4.69712">
        <ele>243.35568</ele>
        <time>2022-08-23T12:31:35.000Z</time>
      </trkpt>
      <trkpt lat="45.90689" lon="4.69708">
        <ele>243.33797</ele>
        <time>2022-08-23T12:31:36.000Z</time>
      </trkpt>
      <trkpt lat="45.90689" lon="4.69703">
        <ele>243.30627</ele>
        <time>2022-08-23T12:31:37.000Z</time>
      </trkpt>
      <trkpt lat="45.90688" lon="4.69699">
        <ele>243.31876</ele>
        <time>2022-08-23T12:31:38.000Z</time>
      </trkpt>
      <trkpt lat="45.90687" lon="4.69695">
        <ele>243.40747</ele>
        <time>2022-08-23T12:31:39.000Z</time>
      </trkpt>
      <trkpt lat="45.90685" lon="4.69691">
        <ele>243.5743</ele>
        <time>2022-08-23T12:31:40.000Z</time>
      </trkpt>
      <trkpt lat="45.90684" lon="4.69686">
        <ele>243.78488</ele>
        <time>2022-08-23T12:31:41.000Z</time>
      </trkpt>
      <trkpt lat="45.90683" lon="4.69682">
        <ele>244.08257</ele>
        <time>2022-08-23T12:31:42.000Z</time>
      </trkpt>
      <trkpt lat="45.90682" lon="4.69678">
        <ele>244.43025</ele>
        <time>2022-08-23T12:31:43.000Z</time>
      </trkpt>
      <trkpt lat="45.90681" lon="4.69675">
        <ele>244.80376</ele>
        <time>2022-08-23T12:31:44.000Z</time>
      </trkpt>
      <trkpt lat="45.9068" lon="4.69672">
        <ele>245.15508</ele>
        <time>2022-08-23T12:31:45.000Z</time>
      </trkpt>
      <trkpt lat="45.90679" lon="4.69668">
        <ele>245.55354</ele>
        <time>2022-08-23T12:31:46.000Z</time>
      </trkpt>
      <trkpt lat="45.90678" lon="4.69665">
        <ele>246.04785</ele>
        <time>2022-08-23T12:31:47.000Z</time>
      </trkpt>
      <trkpt lat="45.90677" lon="4.69662">
        <ele>246.53244</ele>
        <time>2022-08-23T12:31:48.000Z</time>
      </trkpt>
      <trkpt lat="45.90676" lon="4.69659">
        <ele>246.98877</ele>
        <time>2022-08-23T12:31:49.000Z</time>
      </trkpt>
      <trkpt lat="45.90674" lon="4.69657">
        <ele>247.47664</ele>
        <time>2022-08-23T12:31:50.000Z</time>
      </trkpt>
      <trkpt lat="45.90673" lon="4.69654">
        <ele>247.93681</ele>
        <time>2022-08-23T12:31:51.000Z</time>
      </trkpt>
      <trkpt lat="45.90672" lon="4.69651">
        <ele>248.35869</ele>
        <time>2022-08-23T12:31:52.000Z</time>
      </trkpt>
      <trkpt lat="45.9067" lon="4.69649">
        <ele>248.80225</ele>
        <time>2022-08-23T12:31:53.000Z</time>
      </trkpt>
      <trkpt lat="45.90669" lon="4.69646">
        <ele>249.23901</ele>
        <time>2022-08-23T12:31:54.000Z</time>
      </trkpt>
      <trkpt lat="45.90668" lon="4.69643">
        <ele>249.61209</ele>
        <time>2022-08-23T12:31:55.000Z</time>
      </trkpt>
      <trkpt lat="45.90667" lon="4.6964">
        <ele>249.9277</ele>
        <time>2022-08-23T12:31:56.000Z</time>
      </trkpt>
      <trkpt lat="45.90666" lon="4.69637">
        <ele>250.24805</ele>
        <time>2022-08-23T12:31:57.000Z</time>
      </trkpt>
      <trkpt lat="45.90665" lon="4.69634">
        <ele>250.59201</ele>
        <time>2022-08-23T12:31:58.000Z</time>
      </trkpt>
      <trkpt lat="45.90664" lon="4.6963">
        <ele>250.95016</ele>
        <time>2022-08-23T12:31:59.000Z</time>
      </trkpt>
      <trkpt lat="45.90663" lon="4.69627">
        <ele>251.24979</ele>
        <time>2022-08-23T12:32:00.000Z</time>
      </trkpt>
      <trkpt lat="45.90662" lon="4.69624">
        <ele>251.56221</ele>
        <time>2022-08-23T12:32:01.000Z</time>
      </trkpt>
      <trkpt lat="45.90661" lon="4.69621">
        <ele>251.79196</ele>
        <time>2022-08-23T12:32:02.000Z</time>
      </trkpt>
      <trkpt lat="45.9066" lon="4.69617">
        <ele>252.04524</ele>
        <time>2022-08-23T12:32:03.000Z</time>
      </trkpt>
      <trkpt lat="45.90659" lon="4.69614">
        <ele>252.28671</ele>
        <time>2022-08-23T12:32:04.000Z</time>
      </trkpt>
      <trkpt lat="45.90658" lon="4.6961">
        <ele>252.56641</ele>
        <time>2022-08-23T12:32:05.000Z</time>
      </trkpt>
      <trkpt lat="45.90657" lon="4.69607">
        <ele>252.81583</ele>
        <time>2022-08-23T12:32:06.000Z</time>
      </trkpt>
      <trkpt lat="45.90656" lon="4.69603">
        <ele>253.0751</ele>
        <time>2022-08-23T12:32:07.000Z</time>
      </trkpt>
      <trkpt lat="45.90654" lon="4.696">
        <ele>253.3241</ele>
        <time>2022-08-23T12:32:08.000Z</time>
      </trkpt>
      <trkpt lat="45.90653" lon="4.69597">
        <ele>253.60117</ele>
        <time>2022-08-23T12:32:09.000Z</time>
      </trkpt>
      <trkpt lat="45.90652" lon="4.69593">
        <ele>253.82877</ele>
        <time>2022-08-23T12:32:10.000Z</time>
      </trkpt>
      <trkpt lat="45.90651" lon="4.6959">
        <ele>254.07556</ele>
        <time>2022-08-23T12:32:11.000Z</time>
      </trkpt>
      <trkpt lat="45.9065" lon="4.69587">
        <ele>254.35139</ele>
        <time>2022-08-23T12:32:12.000Z</time>
      </trkpt>
      <trkpt lat="45.90649" lon="4.69584">
        <ele>254.49763</ele>
        <time>2022-08-23T12:32:13.000Z</time>
      </trkpt>
      <trkpt lat="45.90648" lon="4.69581">
        <ele>254.67728</ele>
        <time>2022-08-23T12:32:14.000Z</time>
      </trkpt>
      <trkpt lat="45.90646" lon="4.69578">
        <ele>254.85344</ele>
        <time>2022-08-23T12:32:15.000Z</time>
      </trkpt>
      <trkpt lat="45.90645" lon="4.69575">
        <ele>255.06332</ele>
        <time>2022-08-23T12:32:16.000Z</time>
      </trkpt>
      <trkpt lat="45.90644" lon="4.69572">
        <ele>255.32271</ele>
        <time>2022-08-23T12:32:17.000Z</time>
      </trkpt>
      <trkpt lat="45.90644" lon="4.69569">
        <ele>255.52173</ele>
        <time>2022-08-23T12:32:18.000Z</time>
      </trkpt>
      <trkpt lat="45.90643" lon="4.69566">
        <ele>255.64473</ele>
        <time>2022-08-23T12:32:19.000Z</time>
      </trkpt>
      <trkpt lat="45.90643" lon="4.69562">
        <ele>255.75156</ele>
        <time>2022-08-23T12:32:20.000Z</time>
      </trkpt>
      <trkpt lat="45.90642" lon="4.69559">
        <ele>255.8555</ele>
        <time>2022-08-23T12:32:21.000Z</time>
      </trkpt>
      <trkpt lat="45.90641" lon="4.69556">
        <ele>256.01776</ele>
        <time>2022-08-23T12:32:22.000Z</time>
      </trkpt>
      <trkpt lat="45.9064" lon="4.69552">
        <ele>256.04953</ele>
        <time>2022-08-23T12:32:23.000Z</time>
      </trkpt>
      <trkpt lat="45.9064" lon="4.69549">
        <ele>256.04111</ele>
        <time>2022-08-23T12:32:24.000Z</time>
      </trkpt>
      <trkpt lat="45.90639" lon="4.69546">
        <ele>255.98486</ele>
        <time>2022-08-23T12:32:25.000Z</time>
      </trkpt>
      <trkpt lat="45.90638" lon="4.69543">
        <ele>255.95645</ele>
        <time>2022-08-23T12:32:26.000Z</time>
      </trkpt>
      <trkpt lat="45.90637" lon="4.69541">
        <ele>255.9124</ele>
        <time>2022-08-23T12:32:27.000Z</time>
      </trkpt>
      <trkpt lat="45.90637" lon="4.69537">
        <ele>255.90019</ele>
        <time>2022-08-23T12:32:28.000Z</time>
      </trkpt>
      <trkpt lat="45.90636" lon="4.69533">
        <ele>255.92294</ele>
        <time>2022-08-23T12:32:29.000Z</time>
      </trkpt>
      <trkpt lat="45.90636" lon="4.69529">
        <ele>255.95032</ele>
        <time>2022-08-23T12:32:30.000Z</time>
      </trkpt>
      <trkpt lat="45.90636" lon="4.69525">
        <ele>255.99472</ele>
        <time>2022-08-23T12:32:31.000Z</time>
      </trkpt>
      <trkpt lat="45.90636" lon="4.6952">
        <ele>255.98038</ele>
        <time>2022-08-23T12:32:32.000Z</time>
      </trkpt>
      <trkpt lat="45.90636" lon="4.69515">
        <ele>256.03717</ele>
        <time>2022-08-23T12:32:33.000Z</time>
      </trkpt>
      <trkpt lat="45.90636" lon="4.69511">
        <ele>256.0936</ele>
        <time>2022-08-23T12:32:34.000Z</time>
      </trkpt>
      <trkpt lat="45.90635" lon="4.69506">
        <ele>256.17157</ele>
        <time>2022-08-23T12:32:35.000Z</time>
      </trkpt>
      <trkpt lat="45.90635" lon="4.69502">
        <ele>256.24274</ele>
        <time>2022-08-23T12:32:36.000Z</time>
      </trkpt>
      <trkpt lat="45.90634" lon="4.69498">
        <ele>256.24533</ele>
        <time>2022-08-23T12:32:37.000Z</time>
      </trkpt>
      <trkpt lat="45.90633" lon="4.69495">
        <ele>256.2287</ele>
        <time>2022-08-23T12:32:38.000Z</time>
      </trkpt>
      <trkpt lat="45.90632" lon="4.69492">
        <ele>256.27036</ele>
        <time>2022-08-23T12:32:39.000Z</time>
      </trkpt>
      <trkpt lat="45.90631" lon="4.69488">
        <ele>256.26147</ele>
        <time>2022-08-23T12:32:40.000Z</time>
      </trkpt>
      <trkpt lat="45.90631" lon="4.69484">
        <ele>256.25992</ele>
        <time>2022-08-23T12:32:41.000Z</time>
      </trkpt>
      <trkpt lat="45.9063" lon="4.69479">
        <ele>256.18231</ele>
        <time>2022-08-23T12:32:42.000Z</time>
      </trkpt>
      <trkpt lat="45.90629" lon="4.69475">
        <ele>256.19473</ele>
        <time>2022-08-23T12:32:43.000Z</time>
      </trkpt>
      <trkpt lat="45.90628" lon="4.69471">
        <ele>256.23727</ele>
        <time>2022-08-23T12:32:44.000Z</time>
      </trkpt>
      <trkpt lat="45.90627" lon="4.69467">
        <ele>256.26437</ele>
        <time>2022-08-23T12:32:45.000Z</time>
      </trkpt>
      <trkpt lat="45.90626" lon="4.69463">
        <ele>256.32819</ele>
        <time>2022-08-23T12:32:46.000Z</time>
      </trkpt>
      <trkpt lat="45.90625" lon="4.69458">
        <ele>256.34735</ele>
        <time>2022-08-23T12:32:47.000Z</time>
      </trkpt>
      <trkpt lat="45.90624" lon="4.69454">
        <ele>256.31622</ele>
        <time>2022-08-23T12:32:48.000Z</time>
      </trkpt>
      <trkpt lat="45.90623" lon="4.69451">
        <ele>256.25989</ele>
        <time>2022-08-23T12:32:49.000Z</time>
      </trkpt>
      <trkpt lat="45.90622" lon="4.69446">
        <ele>256.19482</ele>
        <time>2022-08-23T12:32:50.000Z</time>
      </trkpt>
      <trkpt lat="45.90621" lon="4.69442">
        <ele>256.07904</ele>
        <time>2022-08-23T12:32:51.000Z</time>
      </trkpt>
      <trkpt lat="45.9062" lon="4.69438">
        <ele>256.04816</ele>
        <time>2022-08-23T12:32:52.000Z</time>
      </trkpt>
      <trkpt lat="45.90619" lon="4.69434">
        <ele>255.98441</ele>
        <time>2022-08-23T12:32:53.000Z</time>
      </trkpt>
      <trkpt lat="45.90618" lon="4.6943">
        <ele>255.93994</ele>
        <time>2022-08-23T12:32:54.000Z</time>
      </trkpt>
      <trkpt lat="45.90618" lon="4.69426">
        <ele>255.88354</ele>
        <time>2022-08-23T12:32:55.000Z</time>
      </trkpt>
      <trkpt lat="45.90617" lon="4.69422">
        <ele>255.83199</ele>
        <time>2022-08-23T12:32:56.000Z</time>
      </trkpt>
      <trkpt lat="45.90617" lon="4.69418">
        <ele>255.93515</ele>
        <time>2022-08-23T12:32:57.000Z</time>
      </trkpt>
      <trkpt lat="45.90616" lon="4.69414">
        <ele>256.08087</ele>
        <time>2022-08-23T12:32:58.000Z</time>
      </trkpt>
      <trkpt lat="45.90616" lon="4.6941">
        <ele>256.19348</ele>
        <time>2022-08-23T12:32:59.000Z</time>
      </trkpt>
      <trkpt lat="45.90615" lon="4.69406">
        <ele>256.38068</ele>
        <time>2022-08-23T12:33:00.000Z</time>
      </trkpt>
      <trkpt lat="45.90614" lon="4.69402">
        <ele>256.56772</ele>
        <time>2022-08-23T12:33:01.000Z</time>
      </trkpt>
      <trkpt lat="45.90614" lon="4.69398">
        <ele>256.78998</ele>
        <time>2022-08-23T12:33:02.000Z</time>
      </trkpt>
      <trkpt lat="45.90613" lon="4.69394">
        <ele>256.96918</ele>
        <time>2022-08-23T12:33:03.000Z</time>
      </trkpt>
      <trkpt lat="45.90612" lon="4.69391">
        <ele>257.10284</ele>
        <time>2022-08-23T12:33:04.000Z</time>
      </trkpt>
      <trkpt lat="45.90612" lon="4.69387">
        <ele>257.31372</ele>
        <time>2022-08-23T12:33:05.000Z</time>
      </trkpt>
      <trkpt lat="45.90611" lon="4.69383">
        <ele>257.4501</ele>
        <time>2022-08-23T12:33:06.000Z</time>
      </trkpt>
      <trkpt lat="45.9061" lon="4.69379">
        <ele>257.57501</ele>
        <time>2022-08-23T12:33:07.000Z</time>
      </trkpt>
      <trkpt lat="45.9061" lon="4.69376">
        <ele>257.67267</ele>
        <time>2022-08-23T12:33:08.000Z</time>
      </trkpt>
      <trkpt lat="45.9061" lon="4.69372">
        <ele>257.73849</ele>
        <time>2022-08-23T12:33:09.000Z</time>
      </trkpt>
      <trkpt lat="45.90609" lon="4.69368">
        <ele>257.80765</ele>
        <time>2022-08-23T12:33:10.000Z</time>
      </trkpt>
      <trkpt lat="45.90609" lon="4.69363">
        <ele>257.84015</ele>
        <time>2022-08-23T12:33:11.000Z</time>
      </trkpt>
      <trkpt lat="45.90608" lon="4.69358">
        <ele>257.90817</ele>
        <time>2022-08-23T12:33:12.000Z</time>
      </trkpt>
      <trkpt lat="45.90608" lon="4.69353">
        <ele>258.06479</ele>
        <time>2022-08-23T12:33:13.000Z</time>
      </trkpt>
      <trkpt lat="45.90608" lon="4.69349">
        <ele>258.19171</ele>
        <time>2022-08-23T12:33:14.000Z</time>
      </trkpt>
      <trkpt lat="45.90608" lon="4.69345">
        <ele>258.37454</ele>
        <time>2022-08-23T12:33:15.000Z</time>
      </trkpt>
      <trkpt lat="45.90608" lon="4.69341">
        <ele>258.60052</ele>
        <time>2022-08-23T12:33:16.000Z</time>
      </trkpt>
      <trkpt lat="45.90607" lon="4.69337">
        <ele>258.71082</ele>
        <time>2022-08-23T12:33:17.000Z</time>
      </trkpt>
      <trkpt lat="45.90607" lon="4.69333">
        <ele>258.79553</ele>
        <time>2022-08-23T12:33:18.000Z</time>
      </trkpt>
      <trkpt lat="45.90607" lon="4.6933">
        <ele>258.86258</ele>
        <time>2022-08-23T12:33:19.000Z</time>
      </trkpt>
      <trkpt lat="45.90607" lon="4.69326">
        <ele>258.92059</ele>
        <time>2022-08-23T12:33:20.000Z</time>
      </trkpt>
      <trkpt lat="45.90607" lon="4.69323">
        <ele>258.96887</ele>
        <time>2022-08-23T12:33:21.000Z</time>
      </trkpt>
      <trkpt lat="45.90606" lon="4.69319">
        <ele>258.95801</ele>
        <time>2022-08-23T12:33:22.000Z</time>
      </trkpt>
      <trkpt lat="45.90606" lon="4.69315">
        <ele>258.95157</ele>
        <time>2022-08-23T12:33:23.000Z</time>
      </trkpt>
      <trkpt lat="45.90605" lon="4.69312">
        <ele>259.02094</ele>
        <time>2022-08-23T12:33:24.000Z</time>
      </trkpt>
      <trkpt lat="45.90603" lon="4.69309">
        <ele>259.11124</ele>
        <time>2022-08-23T12:33:25.000Z</time>
      </trkpt>
      <trkpt lat="45.90603" lon="4.69305">
        <ele>259.24191</ele>
        <time>2022-08-23T12:33:26.000Z</time>
      </trkpt>
      <trkpt lat="45.90603" lon="4.69302">
        <ele>259.41315</ele>
        <time>2022-08-23T12:33:27.000Z</time>
      </trkpt>
      <trkpt lat="45.90603" lon="4.69298">
        <ele>259.69226</ele>
        <time>2022-08-23T12:33:28.000Z</time>
      </trkpt>
      <trkpt lat="45.90603" lon="4.69295">
        <ele>260.07642</ele>
        <time>2022-08-23T12:33:29.000Z</time>
      </trkpt>
      <trkpt lat="45.90602" lon="4.69293">
        <ele>260.50763</ele>
        <time>2022-08-23T12:33:30.000Z</time>
      </trkpt>
      <trkpt lat="45.90602" lon="4.69289">
        <ele>261.02789</ele>
        <time>2022-08-23T12:33:32.000Z</time>
      </trkpt>
      <trkpt lat="45.90602" lon="4.69286">
        <ele>261.47372</ele>
        <time>2022-08-23T12:33:42.000Z</time>
      </trkpt>
      <trkpt lat="45.90602" lon="4.69282">
        <ele>261.75436</ele>
        <time>2022-08-23T12:33:44.000Z</time>
      </trkpt>
      <trkpt lat="45.90601" lon="4.69279">
        <ele>262.1008</ele>
        <time>2022-08-23T12:33:46.000Z</time>
      </trkpt>
      <trkpt lat="45.90601" lon="4.69276">
        <ele>262.4119</ele>
        <time>2022-08-23T12:33:48.000Z</time>
      </trkpt>
      <trkpt lat="45.90601" lon="4.69271">
        <ele>262.62091</ele>
        <time>2022-08-23T12:33:50.000Z</time>
      </trkpt>
      <trkpt lat="45.90601" lon="4.69267">
        <ele>262.93701</ele>
        <time>2022-08-23T12:33:52.000Z</time>
      </trkpt>
      <trkpt lat="45.906" lon="4.69263">
        <ele>263.31174</ele>
        <time>2022-08-23T12:33:54.000Z</time>
      </trkpt>
      <trkpt lat="45.90599" lon="4.69259">
        <ele>263.68674</ele>
        <time>2022-08-23T12:33:56.000Z</time>
      </trkpt>
      <trkpt lat="45.90599" lon="4.69254">
        <ele>264.19632</ele>
        <time>2022-08-23T12:33:58.000Z</time>
      </trkpt>
      <trkpt lat="45.90599" lon="4.69251">
        <ele>264.83585</ele>
        <time>2022-08-23T12:34:00.000Z</time>
      </trkpt>
      <trkpt lat="45.90599" lon="4.69247">
        <ele>265.53625</ele>
        <time>2022-08-23T12:34:02.000Z</time>
      </trkpt>
      <trkpt lat="45.90598" lon="4.69243">
        <ele>266.22543</ele>
        <time>2022-08-23T12:34:04.000Z</time>
      </trkpt>
      <trkpt lat="45.90598" lon="4.69238">
        <ele>266.86008</ele>
        <time>2022-08-23T12:34:06.000Z</time>
      </trkpt>
      <trkpt lat="45.90598" lon="4.69235">
        <ele>267.50418</ele>
        <time>2022-08-23T12:34:08.000Z</time>
      </trkpt>
      <trkpt lat="45.90598" lon="4.69231">
        <ele>268.17819</ele>
        <time>2022-08-23T12:34:10.000Z</time>
      </trkpt>
      <trkpt lat="45.90598" lon="4.69228">
        <ele>268.8653</ele>
        <time>2022-08-23T12:34:12.000Z</time>
      </trkpt>
      <trkpt lat="45.90598" lon="4.69224">
        <ele>269.43079</ele>
        <time>2022-08-23T12:34:14.000Z</time>
      </trkpt>
      <trkpt lat="45.90599" lon="4.6922">
        <ele>269.94824</ele>
        <time>2022-08-23T12:34:16.000Z</time>
      </trkpt>
      <trkpt lat="45.906" lon="4.69216">
        <ele>270.42813</ele>
        <time>2022-08-23T12:34:18.000Z</time>
      </trkpt>
      <trkpt lat="45.906" lon="4.69212">
        <ele>270.93262</ele>
        <time>2022-08-23T12:34:20.000Z</time>
      </trkpt>
      <trkpt lat="45.906" lon="4.69209">
        <ele>271.38611</ele>
        <time>2022-08-23T12:34:22.000Z</time>
      </trkpt>
      <trkpt lat="45.90601" lon="4.69204">
        <ele>272.03745</ele>
        <time>2022-08-23T12:34:24.000Z</time>
      </trkpt>
      <trkpt lat="45.90602" lon="4.692">
        <ele>272.58038</ele>
        <time>2022-08-23T12:34:26.000Z</time>
      </trkpt>
      <trkpt lat="45.90604" lon="4.69196">
        <ele>273.15543</ele>
        <time>2022-08-23T12:34:28.000Z</time>
      </trkpt>
      <trkpt lat="45.90604" lon="4.69193">
        <ele>273.75833</ele>
        <time>2022-08-23T12:34:30.000Z</time>
      </trkpt>
      <trkpt lat="45.90604" lon="4.6919">
        <ele>274.19534</ele>
        <time>2022-08-23T12:34:32.000Z</time>
      </trkpt>
      <trkpt lat="45.90601" lon="4.69189">
        <ele>274.58002</ele>
        <time>2022-08-23T12:34:34.000Z</time>
      </trkpt>
      <trkpt lat="45.906" lon="4.69191">
        <ele>274.99496</ele>
        <time>2022-08-23T12:34:38.000Z</time>
      </trkpt>
      <trkpt lat="45.90597" lon="4.69193">
        <ele>275.29642</ele>
        <time>2022-08-23T12:35:05.000Z</time>
      </trkpt>
      <trkpt lat="45.90593" lon="4.69194">
        <ele>275.56064</ele>
        <time>2022-08-23T12:35:06.000Z</time>
      </trkpt>
      <trkpt lat="45.90589" lon="4.69196">
        <ele>275.72012</ele>
        <time>2022-08-23T12:35:07.000Z</time>
      </trkpt>
      <trkpt lat="45.90585" lon="4.69197">
        <ele>275.92905</ele>
        <time>2022-08-23T12:35:08.000Z</time>
      </trkpt>
      <trkpt lat="45.90582" lon="4.69198">
        <ele>276.09955</ele>
        <time>2022-08-23T12:35:09.000Z</time>
      </trkpt>
      <trkpt lat="45.90578" lon="4.69199">
        <ele>276.26154</ele>
        <time>2022-08-23T12:35:10.000Z</time>
      </trkpt>
      <trkpt lat="45.90574" lon="4.692">
        <ele>276.35992</ele>
        <time>2022-08-23T12:35:11.000Z</time>
      </trkpt>
      <trkpt lat="45.9057" lon="4.69201">
        <ele>276.46844</ele>
        <time>2022-08-23T12:35:12.000Z</time>
      </trkpt>
      <trkpt lat="45.90565" lon="4.69202">
        <ele>276.58514</ele>
        <time>2022-08-23T12:35:13.000Z</time>
      </trkpt>
      <trkpt lat="45.90561" lon="4.69203">
        <ele>276.6402</ele>
        <time>2022-08-23T12:35:14.000Z</time>
      </trkpt>
      <trkpt lat="45.90557" lon="4.69205">
        <ele>276.71457</ele>
        <time>2022-08-23T12:35:15.000Z</time>
      </trkpt>
      <trkpt lat="45.90553" lon="4.69206">
        <ele>276.70657</ele>
        <time>2022-08-23T12:35:16.000Z</time>
      </trkpt>
      <trkpt lat="45.90549" lon="4.69207">
        <ele>276.76898</ele>
        <time>2022-08-23T12:35:17.000Z</time>
      </trkpt>
      <trkpt lat="45.90545" lon="4.69208">
        <ele>276.77069</ele>
        <time>2022-08-23T12:35:18.000Z</time>
      </trkpt>
      <trkpt lat="45.90542" lon="4.6921">
        <ele>276.80682</ele>
        <time>2022-08-23T12:35:19.000Z</time>
      </trkpt>
      <trkpt lat="45.90538" lon="4.69211">
        <ele>276.74014</ele>
        <time>2022-08-23T12:35:20.000Z</time>
      </trkpt>
      <trkpt lat="45.90534" lon="4.69212">
        <ele>276.78848</ele>
        <time>2022-08-23T12:35:21.000Z</time>
      </trkpt>
      <trkpt lat="45.90529" lon="4.69213">
        <ele>276.83331</ele>
        <time>2022-08-23T12:35:22.000Z</time>
      </trkpt>
      <trkpt lat="45.90525" lon="4.69214">
        <ele>276.8432</ele>
        <time>2022-08-23T12:35:23.000Z</time>
      </trkpt>
      <trkpt lat="45.90521" lon="4.69216">
        <ele>276.90793</ele>
        <time>2022-08-23T12:35:24.000Z</time>
      </trkpt>
      <trkpt lat="45.90517" lon="4.69215">
        <ele>276.94525</ele>
        <time>2022-08-23T12:35:25.000Z</time>
      </trkpt>
      <trkpt lat="45.90509" lon="4.69218">
        <ele>276.84879</ele>
        <time>2022-08-23T12:35:27.000Z</time>
      </trkpt>
      <trkpt lat="45.90505" lon="4.69217">
        <ele>276.8212</ele>
        <time>2022-08-23T12:35:28.000Z</time>
      </trkpt>
      <trkpt lat="45.90501" lon="4.69218">
        <ele>276.75006</ele>
        <time>2022-08-23T12:35:29.000Z</time>
      </trkpt>
      <trkpt lat="45.90496" lon="4.69218">
        <ele>276.73563</ele>
        <time>2022-08-23T12:35:30.000Z</time>
      </trkpt>
      <trkpt lat="45.90491" lon="4.69218">
        <ele>276.65668</ele>
        <time>2022-08-23T12:35:31.000Z</time>
      </trkpt>
      <trkpt lat="45.90487" lon="4.69218">
        <ele>276.58472</ele>
        <time>2022-08-23T12:35:32.000Z</time>
      </trkpt>
      <trkpt lat="45.90483" lon="4.69218">
        <ele>276.44604</ele>
        <time>2022-08-23T12:35:33.000Z</time>
      </trkpt>
      <trkpt lat="45.90479" lon="4.69217">
        <ele>276.37573</ele>
        <time>2022-08-23T12:35:34.000Z</time>
      </trkpt>
      <trkpt lat="45.90474" lon="4.69217">
        <ele>276.27472</ele>
        <time>2022-08-23T12:35:35.000Z</time>
      </trkpt>
      <trkpt lat="45.90471" lon="4.69216">
        <ele>276.12881</ele>
        <time>2022-08-23T12:35:36.000Z</time>
      </trkpt>
      <trkpt lat="45.90467" lon="4.69213">
        <ele>275.92899</ele>
        <time>2022-08-23T12:35:37.000Z</time>
      </trkpt>
      <trkpt lat="45.90464" lon="4.69213">
        <ele>275.7532</ele>
        <time>2022-08-23T12:35:38.000Z</time>
      </trkpt>
      <trkpt lat="45.90461" lon="4.69212">
        <ele>275.56131</ele>
        <time>2022-08-23T12:35:39.000Z</time>
      </trkpt>
      <trkpt lat="45.90457" lon="4.69209">
        <ele>275.31088</ele>
        <time>2022-08-23T12:35:40.000Z</time>
      </trkpt>
      <trkpt lat="45.90454" lon="4.69208">
        <ele>275.14792</ele>
        <time>2022-08-23T12:35:41.000Z</time>
      </trkpt>
      <trkpt lat="45.90451" lon="4.69208">
        <ele>274.71951</ele>
        <time>2022-08-23T12:35:42.000Z</time>
      </trkpt>
      <trkpt lat="45.90447" lon="4.69206">
        <ele>274.33713</ele>
        <time>2022-08-23T12:35:43.000Z</time>
      </trkpt>
      <trkpt lat="45.90444" lon="4.69205">
        <ele>273.99216</ele>
        <time>2022-08-23T12:35:44.000Z</time>
      </trkpt>
      <trkpt lat="45.9044" lon="4.69203">
        <ele>273.60428</ele>
        <time>2022-08-23T12:35:45.000Z</time>
      </trkpt>
      <trkpt lat="45.90436" lon="4.69201">
        <ele>273.23605</ele>
        <time>2022-08-23T12:35:46.000Z</time>
      </trkpt>
      <trkpt lat="45.90432" lon="4.69198">
        <ele>272.85114</ele>
        <time>2022-08-23T12:35:47.000Z</time>
      </trkpt>
      <trkpt lat="45.90428" lon="4.69195">
        <ele>272.46213</ele>
        <time>2022-08-23T12:35:48.000Z</time>
      </trkpt>
      <trkpt lat="45.90425" lon="4.69193">
        <ele>272.10623</ele>
        <time>2022-08-23T12:35:49.000Z</time>
      </trkpt>
      <trkpt lat="45.90422" lon="4.6919">
        <ele>271.75101</ele>
        <time>2022-08-23T12:35:50.000Z</time>
      </trkpt>
      <trkpt lat="45.90419" lon="4.69188">
        <ele>271.41284</ele>
        <time>2022-08-23T12:35:51.000Z</time>
      </trkpt>
      <trkpt lat="45.90416" lon="4.69185">
        <ele>271.09848</ele>
        <time>2022-08-23T12:35:52.000Z</time>
      </trkpt>
      <trkpt lat="45.90413" lon="4.69183">
        <ele>270.76633</ele>
        <time>2022-08-23T12:35:53.000Z</time>
      </trkpt>
      <trkpt lat="45.9041" lon="4.6918">
        <ele>270.47931</ele>
        <time>2022-08-23T12:35:54.000Z</time>
      </trkpt>
      <trkpt lat="45.90393" lon="4.69168">
        <ele>270.39532</ele>
        <time>2022-08-23T12:36:00.000Z</time>
      </trkpt>
      <trkpt lat="45.90391" lon="4.69166">
        <ele>270.38013</ele>
        <time>2022-08-23T12:36:01.000Z</time>
      </trkpt>
      <trkpt lat="45.90388" lon="4.69165">
        <ele>270.42395</ele>
        <time>2022-08-23T12:36:02.000Z</time>
      </trkpt>
      <trkpt lat="45.90384" lon="4.69164">
        <ele>270.38367</ele>
        <time>2022-08-23T12:36:03.000Z</time>
      </trkpt>
      <trkpt lat="45.90381" lon="4.69164">
        <ele>270.26727</ele>
        <time>2022-08-23T12:36:04.000Z</time>
      </trkpt>
      <trkpt lat="45.90377" lon="4.69165">
        <ele>270.20016</ele>
        <time>2022-08-23T12:36:05.000Z</time>
      </trkpt>
      <trkpt lat="45.90373" lon="4.69165">
        <ele>270.07184</ele>
        <time>2022-08-23T12:36:06.000Z</time>
      </trkpt>
      <trkpt lat="45.90369" lon="4.69165">
        <ele>270.10214</ele>
        <time>2022-08-23T12:36:07.000Z</time>
      </trkpt>
      <trkpt lat="45.90365" lon="4.69165">
        <ele>270.09271</ele>
        <time>2022-08-23T12:36:08.000Z</time>
      </trkpt>
      <trkpt lat="45.90361" lon="4.69165">
        <ele>270.12369</ele>
        <time>2022-08-23T12:36:09.000Z</time>
      </trkpt>
      <trkpt lat="45.90358" lon="4.69164">
        <ele>270.12115</ele>
        <time>2022-08-23T12:36:10.000Z</time>
      </trkpt>
      <trkpt lat="45.90354" lon="4.69163">
        <ele>270.15643</ele>
        <time>2022-08-23T12:36:11.000Z</time>
      </trkpt>
      <trkpt lat="45.90351" lon="4.69162">
        <ele>270.28754</ele>
        <time>2022-08-23T12:36:12.000Z</time>
      </trkpt>
      <trkpt lat="45.90347" lon="4.69162">
        <ele>270.43356</ele>
        <time>2022-08-23T12:36:13.000Z</time>
      </trkpt>
      <trkpt lat="45.90343" lon="4.69161">
        <ele>270.5119</ele>
        <time>2022-08-23T12:36:14.000Z</time>
      </trkpt>
      <trkpt lat="45.9034" lon="4.6916">
        <ele>270.61627</ele>
        <time>2022-08-23T12:36:15.000Z</time>
      </trkpt>
      <trkpt lat="45.90336" lon="4.69159">
        <ele>270.71976</ele>
        <time>2022-08-23T12:36:16.000Z</time>
      </trkpt>
      <trkpt lat="45.90332" lon="4.69157">
        <ele>270.79938</ele>
        <time>2022-08-23T12:36:17.000Z</time>
      </trkpt>
      <trkpt lat="45.90329" lon="4.69155">
        <ele>270.9422</ele>
        <time>2022-08-23T12:36:18.000Z</time>
      </trkpt>
      <trkpt lat="45.90325" lon="4.69154">
        <ele>270.99661</ele>
        <time>2022-08-23T12:36:19.000Z</time>
      </trkpt>
      <trkpt lat="45.90322" lon="4.69152">
        <ele>270.92731</ele>
        <time>2022-08-23T12:36:20.000Z</time>
      </trkpt>
      <trkpt lat="45.90319" lon="4.6915">
        <ele>270.77325</ele>
        <time>2022-08-23T12:36:21.000Z</time>
      </trkpt>
      <trkpt lat="45.90316" lon="4.69148">
        <ele>270.64459</ele>
        <time>2022-08-23T12:36:22.000Z</time>
      </trkpt>
      <trkpt lat="45.90313" lon="4.69146">
        <ele>270.54416</ele>
        <time>2022-08-23T12:36:23.000Z</time>
      </trkpt>
      <trkpt lat="45.9031" lon="4.69144">
        <ele>270.51208</ele>
        <time>2022-08-23T12:36:24.000Z</time>
      </trkpt>
      <trkpt lat="45.90306" lon="4.69142">
        <ele>270.47913</ele>
        <time>2022-08-23T12:36:25.000Z</time>
      </trkpt>
      <trkpt lat="45.90303" lon="4.6914">
        <ele>270.41519</ele>
        <time>2022-08-23T12:36:26.000Z</time>
      </trkpt>
      <trkpt lat="45.903" lon="4.69137">
        <ele>270.37082</ele>
        <time>2022-08-23T12:36:27.000Z</time>
      </trkpt>
      <trkpt lat="45.90296" lon="4.69135">
        <ele>270.35593</ele>
        <time>2022-08-23T12:36:28.000Z</time>
      </trkpt>
      <trkpt lat="45.90293" lon="4.69133">
        <ele>270.34833</ele>
        <time>2022-08-23T12:36:29.000Z</time>
      </trkpt>
      <trkpt lat="45.90289" lon="4.69131">
        <ele>270.38788</ele>
        <time>2022-08-23T12:36:30.000Z</time>
      </trkpt>
      <trkpt lat="45.90286" lon="4.69129">
        <ele>270.34973</ele>
        <time>2022-08-23T12:36:31.000Z</time>
      </trkpt>
      <trkpt lat="45.90282" lon="4.69126">
        <ele>270.30719</ele>
        <time>2022-08-23T12:36:32.000Z</time>
      </trkpt>
      <trkpt lat="45.90279" lon="4.69124">
        <ele>270.28122</ele>
        <time>2022-08-23T12:36:33.000Z</time>
      </trkpt>
      <trkpt lat="45.90275" lon="4.69122">
        <ele>270.31412</ele>
        <time>2022-08-23T12:36:34.000Z</time>
      </trkpt>
      <trkpt lat="45.90272" lon="4.6912">
        <ele>270.39178</ele>
        <time>2022-08-23T12:36:35.000Z</time>
      </trkpt>
      <trkpt lat="45.90268" lon="4.69118">
        <ele>270.52307</ele>
        <time>2022-08-23T12:36:36.000Z</time>
      </trkpt>
      <trkpt lat="45.90264" lon="4.69117">
        <ele>270.71606</ele>
        <time>2022-08-23T12:36:37.000Z</time>
      </trkpt>
      <trkpt lat="45.9026" lon="4.69116">
        <ele>270.86993</ele>
        <time>2022-08-23T12:36:38.000Z</time>
      </trkpt>
      <trkpt lat="45.90256" lon="4.69114">
        <ele>270.99591</ele>
        <time>2022-08-23T12:36:39.000Z</time>
      </trkpt>
      <trkpt lat="45.90251" lon="4.69112">
        <ele>271.15457</ele>
        <time>2022-08-23T12:36:40.000Z</time>
      </trkpt>
      <trkpt lat="45.90247" lon="4.69108">
        <ele>271.36163</ele>
        <time>2022-08-23T12:36:41.000Z</time>
      </trkpt>
      <trkpt lat="45.90241" lon="4.69104">
        <ele>271.52344</ele>
        <time>2022-08-23T12:36:42.000Z</time>
      </trkpt>
      <trkpt lat="45.90236" lon="4.69099">
        <ele>271.69193</ele>
        <time>2022-08-23T12:36:43.000Z</time>
      </trkpt>
      <trkpt lat="45.90232" lon="4.69094">
        <ele>271.836</ele>
        <time>2022-08-23T12:36:44.000Z</time>
      </trkpt>
      <trkpt lat="45.90227" lon="4.69089">
        <ele>271.95148</ele>
        <time>2022-08-23T12:36:45.000Z</time>
      </trkpt>
      <trkpt lat="45.90223" lon="4.69087">
        <ele>272.15524</ele>
        <time>2022-08-23T12:36:46.000Z</time>
      </trkpt>
      <trkpt lat="45.9022" lon="4.69084">
        <ele>272.36563</ele>
        <time>2022-08-23T12:36:47.000Z</time>
      </trkpt>
      <trkpt lat="45.90216" lon="4.6908">
        <ele>272.48407</ele>
        <time>2022-08-23T12:36:48.000Z</time>
      </trkpt>
      <trkpt lat="45.90212" lon="4.69077">
        <ele>272.59827</ele>
        <time>2022-08-23T12:36:49.000Z</time>
      </trkpt>
      <trkpt lat="45.90211" lon="4.69073">
        <ele>272.70001</ele>
        <time>2022-08-23T12:36:50.000Z</time>
      </trkpt>
      <trkpt lat="45.90207" lon="4.69072">
        <ele>272.82846</ele>
        <time>2022-08-23T12:36:51.000Z</time>
      </trkpt>
      <trkpt lat="45.90204" lon="4.6907">
        <ele>272.91681</ele>
        <time>2022-08-23T12:36:52.000Z</time>
      </trkpt>
      <trkpt lat="45.90204" lon="4.69067">
        <ele>273.00049</ele>
        <time>2022-08-23T12:36:53.000Z</time>
      </trkpt>
      <trkpt lat="45.90201" lon="4.69065">
        <ele>273.05191</ele>
        <time>2022-08-23T12:36:54.000Z</time>
      </trkpt>
      <trkpt lat="45.90199" lon="4.69062">
        <ele>273.02899</ele>
        <time>2022-08-23T12:36:55.000Z</time>
      </trkpt>
      <trkpt lat="45.90196" lon="4.69059">
        <ele>272.91266</ele>
        <time>2022-08-23T12:36:56.000Z</time>
      </trkpt>
      <trkpt lat="45.90194" lon="4.69056">
        <ele>272.75409</ele>
        <time>2022-08-23T12:36:57.000Z</time>
      </trkpt>
      <trkpt lat="45.90192" lon="4.69052">
        <ele>272.56509</ele>
        <time>2022-08-23T12:36:58.000Z</time>
      </trkpt>
      <trkpt lat="45.90192" lon="4.69049">
        <ele>272.40085</ele>
        <time>2022-08-23T12:36:59.000Z</time>
      </trkpt>
      <trkpt lat="45.90193" lon="4.69047">
        <ele>272.15018</ele>
        <time>2022-08-23T12:37:00.000Z</time>
      </trkpt>
      <trkpt lat="45.90196" lon="4.69044">
        <ele>271.91754</ele>
        <time>2022-08-23T12:37:02.000Z</time>
      </trkpt>
      <trkpt lat="45.90199" lon="4.69041">
        <ele>271.69144</ele>
        <time>2022-08-23T12:37:03.000Z</time>
      </trkpt>
      <trkpt lat="45.90203" lon="4.6904">
        <ele>271.42596</ele>
        <time>2022-08-23T12:37:04.000Z</time>
      </trkpt>
      <trkpt lat="45.90206" lon="4.69037">
        <ele>271.19241</ele>
        <time>2022-08-23T12:37:05.000Z</time>
      </trkpt>
      <trkpt lat="45.90208" lon="4.69035">
        <ele>271.03128</ele>
        <time>2022-08-23T12:37:06.000Z</time>
      </trkpt>
      <trkpt lat="45.90211" lon="4.69033">
        <ele>270.89417</ele>
        <time>2022-08-23T12:37:07.000Z</time>
      </trkpt>
      <trkpt lat="45.90214" lon="4.69031">
        <ele>270.73547</ele>
        <time>2022-08-23T12:37:08.000Z</time>
      </trkpt>
      <trkpt lat="45.90217" lon="4.69029">
        <ele>270.66644</ele>
        <time>2022-08-23T12:37:09.000Z</time>
      </trkpt>
      <trkpt lat="45.90219" lon="4.69026">
        <ele>270.56519</ele>
        <time>2022-08-23T12:37:10.000Z</time>
      </trkpt>
      <trkpt lat="45.90221" lon="4.69023">
        <ele>270.59897</ele>
        <time>2022-08-23T12:37:11.000Z</time>
      </trkpt>
      <trkpt lat="45.90223" lon="4.6902">
        <ele>270.57196</ele>
        <time>2022-08-23T12:37:12.000Z</time>
      </trkpt>
      <trkpt lat="45.90225" lon="4.69017">
        <ele>270.6008</ele>
        <time>2022-08-23T12:37:13.000Z</time>
      </trkpt>
      <trkpt lat="45.90226" lon="4.69015">
        <ele>270.64728</ele>
        <time>2022-08-23T12:37:14.000Z</time>
      </trkpt>
      <trkpt lat="45.90228" lon="4.69012">
        <ele>270.76294</ele>
        <time>2022-08-23T12:37:15.000Z</time>
      </trkpt>
      <trkpt lat="45.9023" lon="4.6901">
        <ele>270.90823</ele>
        <time>2022-08-23T12:37:16.000Z</time>
      </trkpt>
      <trkpt lat="45.90232" lon="4.69008">
        <ele>270.99414</ele>
        <time>2022-08-23T12:37:17.000Z</time>
      </trkpt>
      <trkpt lat="45.90233" lon="4.69006">
        <ele>271.01935</ele>
        <time>2022-08-23T12:37:18.000Z</time>
      </trkpt>
      <trkpt lat="45.90235" lon="4.69003">
        <ele>271.06647</ele>
        <time>2022-08-23T12:37:19.000Z</time>
      </trkpt>
      <trkpt lat="45.90238" lon="4.69001">
        <ele>271.16254</ele>
        <time>2022-08-23T12:37:20.000Z</time>
      </trkpt>
      <trkpt lat="45.90239" lon="4.68999">
        <ele>271.26971</ele>
        <time>2022-08-23T12:37:21.000Z</time>
      </trkpt>
      <trkpt lat="45.90241" lon="4.68997">
        <ele>271.35516</ele>
        <time>2022-08-23T12:37:22.000Z</time>
      </trkpt>
      <trkpt lat="45.90244" lon="4.68995">
        <ele>271.50214</ele>
        <time>2022-08-23T12:37:23.000Z</time>
      </trkpt>
      <trkpt lat="45.90246" lon="4.68993">
        <ele>271.72665</ele>
        <time>2022-08-23T12:37:24.000Z</time>
      </trkpt>
      <trkpt lat="45.90248" lon="4.6899">
        <ele>271.93271</ele>
        <time>2022-08-23T12:37:25.000Z</time>
      </trkpt>
      <trkpt lat="45.90251" lon="4.68988">
        <ele>272.15826</ele>
        <time>2022-08-23T12:37:26.000Z</time>
      </trkpt>
      <trkpt lat="45.90254" lon="4.68986">
        <ele>272.30084</ele>
        <time>2022-08-23T12:37:27.000Z</time>
      </trkpt>
      <trkpt lat="45.90257" lon="4.68983">
        <ele>272.44852</ele>
        <time>2022-08-23T12:37:28.000Z</time>
      </trkpt>
      <trkpt lat="45.9026" lon="4.68981">
        <ele>272.5683</ele>
        <time>2022-08-23T12:37:29.000Z</time>
      </trkpt>
      <trkpt lat="45.90262" lon="4.6898">
        <ele>272.74411</ele>
        <time>2022-08-23T12:37:30.000Z</time>
      </trkpt>
      <trkpt lat="45.90264" lon="4.68978">
        <ele>272.87286</ele>
        <time>2022-08-23T12:37:31.000Z</time>
      </trkpt>
      <trkpt lat="45.90267" lon="4.68976">
        <ele>273.15192</ele>
        <time>2022-08-23T12:37:32.000Z</time>
      </trkpt>
      <trkpt lat="45.9027" lon="4.68974">
        <ele>273.41214</ele>
        <time>2022-08-23T12:37:33.000Z</time>
      </trkpt>
      <trkpt lat="45.90272" lon="4.68971">
        <ele>273.67151</ele>
        <time>2022-08-23T12:37:34.000Z</time>
      </trkpt>
      <trkpt lat="45.90275" lon="4.68969">
        <ele>273.84143</ele>
        <time>2022-08-23T12:37:35.000Z</time>
      </trkpt>
      <trkpt lat="45.90277" lon="4.68966">
        <ele>274.00708</ele>
        <time>2022-08-23T12:37:36.000Z</time>
      </trkpt>
      <trkpt lat="45.90279" lon="4.68963">
        <ele>274.27399</ele>
        <time>2022-08-23T12:37:37.000Z</time>
      </trkpt>
      <trkpt lat="45.9028" lon="4.6896">
        <ele>274.62799</ele>
        <time>2022-08-23T12:37:38.000Z</time>
      </trkpt>
      <trkpt lat="45.90282" lon="4.68957">
        <ele>275.05051</ele>
        <time>2022-08-23T12:37:39.000Z</time>
      </trkpt>
      <trkpt lat="45.90284" lon="4.68955">
        <ele>275.46533</ele>
        <time>2022-08-23T12:37:40.000Z</time>
      </trkpt>
      <trkpt lat="45.90285" lon="4.68953">
        <ele>275.9086</ele>
        <time>2022-08-23T12:37:41.000Z</time>
      </trkpt>
      <trkpt lat="45.90287" lon="4.68951">
        <ele>276.40524</ele>
        <time>2022-08-23T12:37:42.000Z</time>
      </trkpt>
      <trkpt lat="45.90288" lon="4.68949">
        <ele>276.92691</ele>
        <time>2022-08-23T12:37:43.000Z</time>
      </trkpt>
      <trkpt lat="45.9029" lon="4.68947">
        <ele>277.38312</ele>
        <time>2022-08-23T12:37:44.000Z</time>
      </trkpt>
      <trkpt lat="45.90292" lon="4.68945">
        <ele>277.84491</ele>
        <time>2022-08-23T12:37:45.000Z</time>
      </trkpt>
      <trkpt lat="45.90294" lon="4.68943">
        <ele>278.15439</ele>
        <time>2022-08-23T12:37:46.000Z</time>
      </trkpt>
      <trkpt lat="45.90295" lon="4.68941">
        <ele>278.49652</ele>
        <time>2022-08-23T12:37:47.000Z</time>
      </trkpt>
      <trkpt lat="45.90297" lon="4.68939">
        <ele>278.896</ele>
        <time>2022-08-23T12:37:48.000Z</time>
      </trkpt>
      <trkpt lat="45.90299" lon="4.68937">
        <ele>279.36697</ele>
        <time>2022-08-23T12:37:50.000Z</time>
      </trkpt>
      <trkpt lat="45.90302" lon="4.68935">
        <ele>279.7514</ele>
        <time>2022-08-23T12:37:52.000Z</time>
      </trkpt>
      <trkpt lat="45.90304" lon="4.68933">
        <ele>280.06854</ele>
        <time>2022-08-23T12:37:53.000Z</time>
      </trkpt>
      <trkpt lat="45.90307" lon="4.6893">
        <ele>280.32507</ele>
        <time>2022-08-23T12:37:55.000Z</time>
      </trkpt>
      <trkpt lat="45.90309" lon="4.68928">
        <ele>280.54303</ele>
        <time>2022-08-23T12:37:56.000Z</time>
      </trkpt>
      <trkpt lat="45.9031" lon="4.68926">
        <ele>280.74408</ele>
        <time>2022-08-23T12:37:57.000Z</time>
      </trkpt>
      <trkpt lat="45.90312" lon="4.68924">
        <ele>281.00211</ele>
        <time>2022-08-23T12:37:58.000Z</time>
      </trkpt>
      <trkpt lat="45.90314" lon="4.68923">
        <ele>281.19891</ele>
        <time>2022-08-23T12:37:59.000Z</time>
      </trkpt>
      <trkpt lat="45.90317" lon="4.68921">
        <ele>281.42447</ele>
        <time>2022-08-23T12:38:00.000Z</time>
      </trkpt>
      <trkpt lat="45.9032" lon="4.68919">
        <ele>281.48895</ele>
        <time>2022-08-23T12:38:01.000Z</time>
      </trkpt>
      <trkpt lat="45.90322" lon="4.68918">
        <ele>281.45471</ele>
        <time>2022-08-23T12:38:02.000Z</time>
      </trkpt>
      <trkpt lat="45.90324" lon="4.68915">
        <ele>281.4704</ele>
        <time>2022-08-23T12:38:03.000Z</time>
      </trkpt>
      <trkpt lat="45.90326" lon="4.68913">
        <ele>281.46866</ele>
        <time>2022-08-23T12:38:04.000Z</time>
      </trkpt>
      <trkpt lat="45.90328" lon="4.68912">
        <ele>281.51715</ele>
        <time>2022-08-23T12:38:05.000Z</time>
      </trkpt>
      <trkpt lat="45.9033" lon="4.6891">
        <ele>281.57492</ele>
        <time>2022-08-23T12:38:06.000Z</time>
      </trkpt>
      <trkpt lat="45.90332" lon="4.68909">
        <ele>281.68301</ele>
        <time>2022-08-23T12:38:07.000Z</time>
      </trkpt>
      <trkpt lat="45.90334" lon="4.68907">
        <ele>281.72339</ele>
        <time>2022-08-23T12:38:08.000Z</time>
      </trkpt>
      <trkpt lat="45.90337" lon="4.68905">
        <ele>281.86725</ele>
        <time>2022-08-23T12:38:09.000Z</time>
      </trkpt>
      <trkpt lat="45.90339" lon="4.68904">
        <ele>281.97626</ele>
        <time>2022-08-23T12:38:10.000Z</time>
      </trkpt>
      <trkpt lat="45.90341" lon="4.68902">
        <ele>282.08572</ele>
        <time>2022-08-23T12:38:11.000Z</time>
      </trkpt>
      <trkpt lat="45.90343" lon="4.68901">
        <ele>282.22418</ele>
        <time>2022-08-23T12:38:12.000Z</time>
      </trkpt>
      <trkpt lat="45.90346" lon="4.68899">
        <ele>282.42734</ele>
        <time>2022-08-23T12:38:13.000Z</time>
      </trkpt>
      <trkpt lat="45.90349" lon="4.68898">
        <ele>282.66608</ele>
        <time>2022-08-23T12:38:14.000Z</time>
      </trkpt>
      <trkpt lat="45.90352" lon="4.68896">
        <ele>282.87958</ele>
        <time>2022-08-23T12:38:15.000Z</time>
      </trkpt>
      <trkpt lat="45.90354" lon="4.68895">
        <ele>283.09784</ele>
        <time>2022-08-23T12:38:16.000Z</time>
      </trkpt>
      <trkpt lat="45.90356" lon="4.68893">
        <ele>283.32584</ele>
        <time>2022-08-23T12:38:17.000Z</time>
      </trkpt>
      <trkpt lat="45.90358" lon="4.68892">
        <ele>283.56882</ele>
        <time>2022-08-23T12:38:18.000Z</time>
      </trkpt>
      <trkpt lat="45.9036" lon="4.6889">
        <ele>283.93329</ele>
        <time>2022-08-23T12:38:19.000Z</time>
      </trkpt>
      <trkpt lat="45.90361" lon="4.68887">
        <ele>284.29816</ele>
        <time>2022-08-23T12:38:20.000Z</time>
      </trkpt>
      <trkpt lat="45.90362" lon="4.68885">
        <ele>284.7666</ele>
        <time>2022-08-23T12:38:21.000Z</time>
      </trkpt>
      <trkpt lat="45.90364" lon="4.68882">
        <ele>285.27313</ele>
        <time>2022-08-23T12:38:23.000Z</time>
      </trkpt>
      <trkpt lat="45.90365" lon="4.68879">
        <ele>285.7016</ele>
        <time>2022-08-23T12:38:26.000Z</time>
      </trkpt>
      <trkpt lat="45.90366" lon="4.68877">
        <ele>286.08942</ele>
        <time>2022-08-23T12:38:27.000Z</time>
      </trkpt>
      <trkpt lat="45.90368" lon="4.68875">
        <ele>286.31256</ele>
        <time>2022-08-23T12:38:28.000Z</time>
      </trkpt>
      <trkpt lat="45.9037" lon="4.68872">
        <ele>286.54385</ele>
        <time>2022-08-23T12:38:30.000Z</time>
      </trkpt>
      <trkpt lat="45.90372" lon="4.68869">
        <ele>286.80695</ele>
        <time>2022-08-23T12:38:32.000Z</time>
      </trkpt>
      <trkpt lat="45.90374" lon="4.68867">
        <ele>287.15457</ele>
        <time>2022-08-23T12:38:34.000Z</time>
      </trkpt>
      <trkpt lat="45.90376" lon="4.68864">
        <ele>287.48492</ele>
        <time>2022-08-23T12:38:36.000Z</time>
      </trkpt>
      <trkpt lat="45.90377" lon="4.68861">
        <ele>287.83234</ele>
        <time>2022-08-23T12:38:39.000Z</time>
      </trkpt>
      <trkpt lat="45.90379" lon="4.68858">
        <ele>288.17621</ele>
        <time>2022-08-23T12:38:41.000Z</time>
      </trkpt>
      <trkpt lat="45.90381" lon="4.68855">
        <ele>288.40479</ele>
        <time>2022-08-23T12:38:43.000Z</time>
      </trkpt>
      <trkpt lat="45.90383" lon="4.68852">
        <ele>288.76251</ele>
        <time>2022-08-23T12:38:45.000Z</time>
      </trkpt>
      <trkpt lat="45.90384" lon="4.68849">
        <ele>289.06866</ele>
        <time>2022-08-23T12:38:47.000Z</time>
      </trkpt>
      <trkpt lat="45.90386" lon="4.68845">
        <ele>289.33023</ele>
        <time>2022-08-23T12:38:49.000Z</time>
      </trkpt>
      <trkpt lat="45.90388" lon="4.68841">
        <ele>289.53778</ele>
        <time>2022-08-23T12:38:51.000Z</time>
      </trkpt>
      <trkpt lat="45.9039" lon="4.68838">
        <ele>289.83804</ele>
        <time>2022-08-23T12:38:53.000Z</time>
      </trkpt>
      <trkpt lat="45.90392" lon="4.68835">
        <ele>290.31168</ele>
        <time>2022-08-23T12:38:55.000Z</time>
      </trkpt>
      <trkpt lat="45.90394" lon="4.68832">
        <ele>290.69568</ele>
        <time>2022-08-23T12:38:57.000Z</time>
      </trkpt>
      <trkpt lat="45.90396" lon="4.68828">
        <ele>291.01266</ele>
        <time>2022-08-23T12:38:59.000Z</time>
      </trkpt>
      <trkpt lat="45.90398" lon="4.68826">
        <ele>291.39569</ele>
        <time>2022-08-23T12:39:01.000Z</time>
      </trkpt>
      <trkpt lat="45.904" lon="4.68823">
        <ele>291.76135</ele>
        <time>2022-08-23T12:39:03.000Z</time>
      </trkpt>
      <trkpt lat="45.90402" lon="4.6882">
        <ele>292.0769</ele>
        <time>2022-08-23T12:39:05.000Z</time>
      </trkpt>
      <trkpt lat="45.90403" lon="4.68816">
        <ele>292.51117</ele>
        <time>2022-08-23T12:39:07.000Z</time>
      </trkpt>
      <trkpt lat="45.90404" lon="4.68813">
        <ele>292.97687</ele>
        <time>2022-08-23T12:39:09.000Z</time>
      </trkpt>
      <trkpt lat="45.90405" lon="4.6881">
        <ele>293.38885</ele>
        <time>2022-08-23T12:39:11.000Z</time>
      </trkpt>
      <trkpt lat="45.90406" lon="4.68807">
        <ele>293.74988</ele>
        <time>2022-08-23T12:39:13.000Z</time>
      </trkpt>
      <trkpt lat="45.90407" lon="4.68804">
        <ele>294.15521</ele>
        <time>2022-08-23T12:39:15.000Z</time>
      </trkpt>
      <trkpt lat="45.90408" lon="4.68801">
        <ele>294.56256</ele>
        <time>2022-08-23T12:39:17.000Z</time>
      </trkpt>
      <trkpt lat="45.90409" lon="4.68798">
        <ele>295.00385</ele>
        <time>2022-08-23T12:39:19.000Z</time>
      </trkpt>
      <trkpt lat="45.9041" lon="4.68794">
        <ele>295.45087</ele>
        <time>2022-08-23T12:39:21.000Z</time>
      </trkpt>
      <trkpt lat="45.90411" lon="4.68791">
        <ele>296.01044</ele>
        <time>2022-08-23T12:39:23.000Z</time>
      </trkpt>
      <trkpt lat="45.90412" lon="4.68788">
        <ele>296.3194</ele>
        <time>2022-08-23T12:39:25.000Z</time>
      </trkpt>
      <trkpt lat="45.90413" lon="4.68785">
        <ele>296.59369</ele>
        <time>2022-08-23T12:39:27.000Z</time>
      </trkpt>
      <trkpt lat="45.90415" lon="4.68781">
        <ele>296.91931</ele>
        <time>2022-08-23T12:39:29.000Z</time>
      </trkpt>
      <trkpt lat="45.90416" lon="4.68777">
        <ele>297.2175</ele>
        <time>2022-08-23T12:39:31.000Z</time>
      </trkpt>
      <trkpt lat="45.90417" lon="4.68774">
        <ele>297.508</ele>
        <time>2022-08-23T12:39:33.000Z</time>
      </trkpt>
      <trkpt lat="45.90419" lon="4.68771">
        <ele>297.51346</ele>
        <time>2022-08-23T12:39:35.000Z</time>
      </trkpt>
      <trkpt lat="45.9042" lon="4.68767">
        <ele>297.54156</ele>
        <time>2022-08-23T12:39:37.000Z</time>
      </trkpt>
      <trkpt lat="45.90422" lon="4.68763">
        <ele>297.59894</ele>
        <time>2022-08-23T12:39:39.000Z</time>
      </trkpt>
      <trkpt lat="45.90423" lon="4.68759">
        <ele>297.6579</ele>
        <time>2022-08-23T12:39:41.000Z</time>
      </trkpt>
      <trkpt lat="45.90425" lon="4.68756">
        <ele>297.81</ele>
        <time>2022-08-23T12:39:43.000Z</time>
      </trkpt>
      <trkpt lat="45.90427" lon="4.68753">
        <ele>298.02078</ele>
        <time>2022-08-23T12:39:45.000Z</time>
      </trkpt>
      <trkpt lat="45.90428" lon="4.6875">
        <ele>298.25861</ele>
        <time>2022-08-23T12:39:47.000Z</time>
      </trkpt>
      <trkpt lat="45.9043" lon="4.68747">
        <ele>298.54538</ele>
        <time>2022-08-23T12:39:49.000Z</time>
      </trkpt>
      <trkpt lat="45.90431" lon="4.68745">
        <ele>298.87009</ele>
        <time>2022-08-23T12:39:51.000Z</time>
      </trkpt>
      <trkpt lat="45.90434" lon="4.68742">
        <ele>299.25983</ele>
        <time>2022-08-23T12:39:53.000Z</time>
      </trkpt>
      <trkpt lat="45.90436" lon="4.6874">
        <ele>299.7059</ele>
        <time>2022-08-23T12:39:55.000Z</time>
      </trkpt>
      <trkpt lat="45.90438" lon="4.68738">
        <ele>300.13834</ele>
        <time>2022-08-23T12:39:57.000Z</time>
      </trkpt>
      <trkpt lat="45.9044" lon="4.68735">
        <ele>300.60934</ele>
        <time>2022-08-23T12:39:59.000Z</time>
      </trkpt>
      <trkpt lat="45.90441" lon="4.68732">
        <ele>301.05499</ele>
        <time>2022-08-23T12:40:01.000Z</time>
      </trkpt>
      <trkpt lat="45.90442" lon="4.6873">
        <ele>301.57697</ele>
        <time>2022-08-23T12:40:03.000Z</time>
      </trkpt>
      <trkpt lat="45.90442" lon="4.68727">
        <ele>302.10065</ele>
        <time>2022-08-23T12:40:05.000Z</time>
      </trkpt>
      <trkpt lat="45.90439" lon="4.68723">
        <ele>302.68359</ele>
        <time>2022-08-23T12:40:07.000Z</time>
      </trkpt>
      <trkpt lat="45.90436" lon="4.68722">
        <ele>303.19113</ele>
        <time>2022-08-23T12:40:09.000Z</time>
      </trkpt>
      <trkpt lat="45.90434" lon="4.6872">
        <ele>303.698</ele>
        <time>2022-08-23T12:40:11.000Z</time>
      </trkpt>
      <trkpt lat="45.90432" lon="4.68718">
        <ele>304.06335</ele>
        <time>2022-08-23T12:40:13.000Z</time>
      </trkpt>
      <trkpt lat="45.90432" lon="4.68721">
        <ele>304.61084</ele>
        <time>2022-08-23T12:40:17.000Z</time>
      </trkpt>
      <trkpt lat="45.90433" lon="4.68724">
        <ele>305.22263</ele>
        <time>2022-08-23T12:40:24.000Z</time>
      </trkpt>
      <trkpt lat="45.90429" lon="4.68722">
        <ele>305.8078</ele>
        <time>2022-08-23T12:41:22.000Z</time>
      </trkpt>
      <trkpt lat="45.90427" lon="4.6872">
        <ele>306.37961</ele>
        <time>2022-08-23T12:41:23.000Z</time>
      </trkpt>
      <trkpt lat="45.90425" lon="4.68718">
        <ele>306.879</ele>
        <time>2022-08-23T12:41:24.000Z</time>
      </trkpt>
      <trkpt lat="45.90423" lon="4.68715">
        <ele>307.33539</ele>
        <time>2022-08-23T12:41:25.000Z</time>
      </trkpt>
      <trkpt lat="45.90421" lon="4.68712">
        <ele>307.58856</ele>
        <time>2022-08-23T12:41:26.000Z</time>
      </trkpt>
      <trkpt lat="45.90419" lon="4.6871">
        <ele>307.7775</ele>
        <time>2022-08-23T12:41:27.000Z</time>
      </trkpt>
      <trkpt lat="45.90417" lon="4.68707">
        <ele>307.93646</ele>
        <time>2022-08-23T12:41:28.000Z</time>
      </trkpt>
      <trkpt lat="45.90414" lon="4.68705">
        <ele>308.02548</ele>
        <time>2022-08-23T12:41:29.000Z</time>
      </trkpt>
      <trkpt lat="45.90412" lon="4.68703">
        <ele>308.00403</ele>
        <time>2022-08-23T12:41:30.000Z</time>
      </trkpt>
      <trkpt lat="45.90409" lon="4.68701">
        <ele>307.90445</ele>
        <time>2022-08-23T12:41:31.000Z</time>
      </trkpt>
      <trkpt lat="45.90407" lon="4.68699">
        <ele>307.72772</ele>
        <time>2022-08-23T12:41:32.000Z</time>
      </trkpt>
      <trkpt lat="45.90392" lon="4.68694">
        <ele>307.41794</ele>
        <time>2022-08-23T12:41:38.000Z</time>
      </trkpt>
      <trkpt lat="45.90389" lon="4.68693">
        <ele>307.00452</ele>
        <time>2022-08-23T12:41:39.000Z</time>
      </trkpt>
      <trkpt lat="45.90387" lon="4.68693">
        <ele>306.72476</ele>
        <time>2022-08-23T12:41:40.000Z</time>
      </trkpt>
      <trkpt lat="45.90384" lon="4.68693">
        <ele>306.37604</ele>
        <time>2022-08-23T12:41:41.000Z</time>
      </trkpt>
      <trkpt lat="45.90381" lon="4.68692">
        <ele>306.04507</ele>
        <time>2022-08-23T12:41:42.000Z</time>
      </trkpt>
      <trkpt lat="45.90378" lon="4.68692">
        <ele>305.79404</ele>
        <time>2022-08-23T12:41:43.000Z</time>
      </trkpt>
      <trkpt lat="45.90374" lon="4.68691">
        <ele>305.55951</ele>
        <time>2022-08-23T12:41:44.000Z</time>
      </trkpt>
      <trkpt lat="45.9037" lon="4.68691">
        <ele>305.30167</ele>
        <time>2022-08-23T12:41:45.000Z</time>
      </trkpt>
      <trkpt lat="45.90366" lon="4.68692">
        <ele>304.96072</ele>
        <time>2022-08-23T12:41:46.000Z</time>
      </trkpt>
      <trkpt lat="45.90362" lon="4.68692">
        <ele>304.6373</ele>
        <time>2022-08-23T12:41:47.000Z</time>
      </trkpt>
      <trkpt lat="45.90358" lon="4.68692">
        <ele>304.23355</ele>
        <time>2022-08-23T12:41:48.000Z</time>
      </trkpt>
      <trkpt lat="45.90354" lon="4.68692">
        <ele>303.83282</ele>
        <time>2022-08-23T12:41:49.000Z</time>
      </trkpt>
      <trkpt lat="45.9035" lon="4.68692">
        <ele>303.46628</ele>
        <time>2022-08-23T12:41:50.000Z</time>
      </trkpt>
      <trkpt lat="45.90346" lon="4.68692">
        <ele>303.24228</ele>
        <time>2022-08-23T12:41:51.000Z</time>
      </trkpt>
      <trkpt lat="45.90342" lon="4.68692">
        <ele>303.18109</ele>
        <time>2022-08-23T12:41:52.000Z</time>
      </trkpt>
      <trkpt lat="45.90337" lon="4.68692">
        <ele>303.15115</ele>
        <time>2022-08-23T12:41:53.000Z</time>
      </trkpt>
      <trkpt lat="45.90333" lon="4.68692">
        <ele>303.13388</ele>
        <time>2022-08-23T12:41:54.000Z</time>
      </trkpt>
      <trkpt lat="45.90329" lon="4.68693">
        <ele>303.10236</ele>
        <time>2022-08-23T12:41:55.000Z</time>
      </trkpt>
      <trkpt lat="45.90324" lon="4.68694">
        <ele>303.1597</ele>
        <time>2022-08-23T12:41:56.000Z</time>
      </trkpt>
      <trkpt lat="45.9032" lon="4.68694">
        <ele>303.27277</ele>
        <time>2022-08-23T12:41:57.000Z</time>
      </trkpt>
      <trkpt lat="45.90312" lon="4.68696">
        <ele>303.45944</ele>
        <time>2022-08-23T12:41:58.000Z</time>
      </trkpt>
      <trkpt lat="45.90307" lon="4.68696">
        <ele>303.51535</ele>
        <time>2022-08-23T12:41:59.000Z</time>
      </trkpt>
      <trkpt lat="45.90302" lon="4.68698">
        <ele>303.5007</ele>
        <time>2022-08-23T12:42:00.000Z</time>
      </trkpt>
      <trkpt lat="45.90297" lon="4.68696">
        <ele>303.4476</ele>
        <time>2022-08-23T12:42:01.000Z</time>
      </trkpt>
      <trkpt lat="45.90293" lon="4.68695">
        <ele>303.40399</ele>
        <time>2022-08-23T12:42:02.000Z</time>
      </trkpt>
      <trkpt lat="45.90288" lon="4.68694">
        <ele>303.31543</ele>
        <time>2022-08-23T12:42:03.000Z</time>
      </trkpt>
      <trkpt lat="45.90282" lon="4.68692">
        <ele>303.21075</ele>
        <time>2022-08-23T12:42:04.000Z</time>
      </trkpt>
      <trkpt lat="45.90277" lon="4.68691">
        <ele>303.00638</ele>
        <time>2022-08-23T12:42:05.000Z</time>
      </trkpt>
      <trkpt lat="45.90272" lon="4.68691">
        <ele>302.80475</ele>
        <time>2022-08-23T12:42:06.000Z</time>
      </trkpt>
      <trkpt lat="45.90266" lon="4.6869">
        <ele>302.59253</ele>
        <time>2022-08-23T12:42:07.000Z</time>
      </trkpt>
      <trkpt lat="45.90261" lon="4.68688">
        <ele>302.50668</ele>
        <time>2022-08-23T12:42:08.000Z</time>
      </trkpt>
      <trkpt lat="45.90255" lon="4.68686">
        <ele>302.40482</ele>
        <time>2022-08-23T12:42:09.000Z</time>
      </trkpt>
      <trkpt lat="45.9025" lon="4.68683">
        <ele>302.27826</ele>
        <time>2022-08-23T12:42:10.000Z</time>
      </trkpt>
      <trkpt lat="45.90244" lon="4.68679">
        <ele>302.05292</ele>
        <time>2022-08-23T12:42:11.000Z</time>
      </trkpt>
      <trkpt lat="45.90237" lon="4.68676">
        <ele>301.70331</ele>
        <time>2022-08-23T12:42:12.000Z</time>
      </trkpt>
      <trkpt lat="45.9023" lon="4.68671">
        <ele>301.34689</ele>
        <time>2022-08-23T12:42:13.000Z</time>
      </trkpt>
      <trkpt lat="45.90224" lon="4.68668">
        <ele>300.98199</ele>
        <time>2022-08-23T12:42:14.000Z</time>
      </trkpt>
      <trkpt lat="45.90219" lon="4.68667">
        <ele>300.58618</ele>
        <time>2022-08-23T12:42:15.000Z</time>
      </trkpt>
      <trkpt lat="45.90215" lon="4.68666">
        <ele>300.23517</ele>
        <time>2022-08-23T12:42:16.000Z</time>
      </trkpt>
      <trkpt lat="45.9021" lon="4.68666">
        <ele>299.86774</ele>
        <time>2022-08-23T12:42:17.000Z</time>
      </trkpt>
      <trkpt lat="45.90205" lon="4.68663">
        <ele>299.53281</ele>
        <time>2022-08-23T12:42:18.000Z</time>
      </trkpt>
      <trkpt lat="45.902" lon="4.68662">
        <ele>299.29257</ele>
        <time>2022-08-23T12:42:19.000Z</time>
      </trkpt>
      <trkpt lat="45.90198" lon="4.68662">
        <ele>299.12604</ele>
        <time>2022-08-23T12:42:20.000Z</time>
      </trkpt>
      <trkpt lat="45.90192" lon="4.68658">
        <ele>299.01239</ele>
        <time>2022-08-23T12:42:21.000Z</time>
      </trkpt>
      <trkpt lat="45.9019" lon="4.68657">
        <ele>298.92975</ele>
        <time>2022-08-23T12:42:22.000Z</time>
      </trkpt>
      <trkpt lat="45.90186" lon="4.68657">
        <ele>298.90497</ele>
        <time>2022-08-23T12:42:23.000Z</time>
      </trkpt>
      <trkpt lat="45.90184" lon="4.68655">
        <ele>298.86774</ele>
        <time>2022-08-23T12:42:24.000Z</time>
      </trkpt>
      <trkpt lat="45.90182" lon="4.68653">
        <ele>298.86023</ele>
        <time>2022-08-23T12:42:25.000Z</time>
      </trkpt>
      <trkpt lat="45.90179" lon="4.68651">
        <ele>298.74545</ele>
        <time>2022-08-23T12:42:26.000Z</time>
      </trkpt>
      <trkpt lat="45.90177" lon="4.68649">
        <ele>298.61835</ele>
        <time>2022-08-23T12:42:27.000Z</time>
      </trkpt>
      <trkpt lat="45.90173" lon="4.68647">
        <ele>298.39282</ele>
        <time>2022-08-23T12:42:28.000Z</time>
      </trkpt>
      <trkpt lat="45.9017" lon="4.68645">
        <ele>298.21521</ele>
        <time>2022-08-23T12:42:29.000Z</time>
      </trkpt>
      <trkpt lat="45.90167" lon="4.68643">
        <ele>298.08032</ele>
        <time>2022-08-23T12:42:30.000Z</time>
      </trkpt>
      <trkpt lat="45.90164" lon="4.68641">
        <ele>298.02441</ele>
        <time>2022-08-23T12:42:31.000Z</time>
      </trkpt>
      <trkpt lat="45.90161" lon="4.68638">
        <ele>298.08673</ele>
        <time>2022-08-23T12:42:32.000Z</time>
      </trkpt>
      <trkpt lat="45.90158" lon="4.68636">
        <ele>298.14706</ele>
        <time>2022-08-23T12:42:33.000Z</time>
      </trkpt>
      <trkpt lat="45.90156" lon="4.68635">
        <ele>298.21518</ele>
        <time>2022-08-23T12:42:34.000Z</time>
      </trkpt>
      <trkpt lat="45.90153" lon="4.68634">
        <ele>298.26364</ele>
        <time>2022-08-23T12:42:35.000Z</time>
      </trkpt>
      <trkpt lat="45.90151" lon="4.68632">
        <ele>298.30652</ele>
        <time>2022-08-23T12:42:36.000Z</time>
      </trkpt>
      <trkpt lat="45.90148" lon="4.6863">
        <ele>298.32959</ele>
        <time>2022-08-23T12:42:37.000Z</time>
      </trkpt>
      <trkpt lat="45.90146" lon="4.68628">
        <ele>298.37042</ele>
        <time>2022-08-23T12:42:38.000Z</time>
      </trkpt>
      <trkpt lat="45.90144" lon="4.68627">
        <ele>298.39908</ele>
        <time>2022-08-23T12:42:39.000Z</time>
      </trkpt>
      <trkpt lat="45.90141" lon="4.68626">
        <ele>298.44382</ele>
        <time>2022-08-23T12:42:40.000Z</time>
      </trkpt>
      <trkpt lat="45.90138" lon="4.68626">
        <ele>298.49149</ele>
        <time>2022-08-23T12:42:41.000Z</time>
      </trkpt>
      <trkpt lat="45.90135" lon="4.68625">
        <ele>298.44449</ele>
        <time>2022-08-23T12:42:42.000Z</time>
      </trkpt>
      <trkpt lat="45.90132" lon="4.68624">
        <ele>298.42361</ele>
        <time>2022-08-23T12:42:43.000Z</time>
      </trkpt>
      <trkpt lat="45.90129" lon="4.68623">
        <ele>298.4859</ele>
        <time>2022-08-23T12:42:44.000Z</time>
      </trkpt>
      <trkpt lat="45.90125" lon="4.68623">
        <ele>298.60532</ele>
        <time>2022-08-23T12:42:45.000Z</time>
      </trkpt>
      <trkpt lat="45.90122" lon="4.68623">
        <ele>298.87222</ele>
        <time>2022-08-23T12:42:46.000Z</time>
      </trkpt>
      <trkpt lat="45.90118" lon="4.68623">
        <ele>299.2153</ele>
        <time>2022-08-23T12:42:47.000Z</time>
      </trkpt>
      <trkpt lat="45.90114" lon="4.68623">
        <ele>299.61188</ele>
        <time>2022-08-23T12:42:48.000Z</time>
      </trkpt>
      <trkpt lat="45.9011" lon="4.68623">
        <ele>299.92358</ele>
        <time>2022-08-23T12:42:49.000Z</time>
      </trkpt>
      <trkpt lat="45.90106" lon="4.68623">
        <ele>300.33557</ele>
        <time>2022-08-23T12:42:50.000Z</time>
      </trkpt>
      <trkpt lat="45.90102" lon="4.68622">
        <ele>300.68729</ele>
        <time>2022-08-23T12:42:51.000Z</time>
      </trkpt>
      <trkpt lat="45.90098" lon="4.68621">
        <ele>300.84778</ele>
        <time>2022-08-23T12:42:52.000Z</time>
      </trkpt>
      <trkpt lat="45.90095" lon="4.68619">
        <ele>300.95102</ele>
        <time>2022-08-23T12:42:53.000Z</time>
      </trkpt>
      <trkpt lat="45.90092" lon="4.68617">
        <ele>301.10257</ele>
        <time>2022-08-23T12:42:54.000Z</time>
      </trkpt>
      <trkpt lat="45.90088" lon="4.68614">
        <ele>301.28766</ele>
        <time>2022-08-23T12:42:55.000Z</time>
      </trkpt>
      <trkpt lat="45.90085" lon="4.6861">
        <ele>301.48889</ele>
        <time>2022-08-23T12:42:56.000Z</time>
      </trkpt>
      <trkpt lat="45.90082" lon="4.68607">
        <ele>301.68039</ele>
        <time>2022-08-23T12:42:57.000Z</time>
      </trkpt>
      <trkpt lat="45.9008" lon="4.68603">
        <ele>301.85629</ele>
        <time>2022-08-23T12:42:58.000Z</time>
      </trkpt>
      <trkpt lat="45.90077" lon="4.68599">
        <ele>302.02832</ele>
        <time>2022-08-23T12:42:59.000Z</time>
      </trkpt>
      <trkpt lat="45.90074" lon="4.68596">
        <ele>302.11127</ele>
        <time>2022-08-23T12:43:00.000Z</time>
      </trkpt>
      <trkpt lat="45.90071" lon="4.68592">
        <ele>302.20584</ele>
        <time>2022-08-23T12:43:01.000Z</time>
      </trkpt>
      <trkpt lat="45.90068" lon="4.68589">
        <ele>302.45325</ele>
        <time>2022-08-23T12:43:02.000Z</time>
      </trkpt>
      <trkpt lat="45.90065" lon="4.68586">
        <ele>302.64606</ele>
        <time>2022-08-23T12:43:03.000Z</time>
      </trkpt>
      <trkpt lat="45.90062" lon="4.68582">
        <ele>302.79926</ele>
        <time>2022-08-23T12:43:04.000Z</time>
      </trkpt>
      <trkpt lat="45.90059" lon="4.68578">
        <ele>302.84793</ele>
        <time>2022-08-23T12:43:05.000Z</time>
      </trkpt>
      <trkpt lat="45.90056" lon="4.68575">
        <ele>302.80231</ele>
        <time>2022-08-23T12:43:06.000Z</time>
      </trkpt>
      <trkpt lat="45.90053" lon="4.68572">
        <ele>302.75113</ele>
        <time>2022-08-23T12:43:07.000Z</time>
      </trkpt>
      <trkpt lat="45.9005" lon="4.68569">
        <ele>302.57089</ele>
        <time>2022-08-23T12:43:08.000Z</time>
      </trkpt>
      <trkpt lat="45.90047" lon="4.68566">
        <ele>302.45801</ele>
        <time>2022-08-23T12:43:09.000Z</time>
      </trkpt>
      <trkpt lat="45.90043" lon="4.68562">
        <ele>302.25153</ele>
        <time>2022-08-23T12:43:10.000Z</time>
      </trkpt>
      <trkpt lat="45.9004" lon="4.68558">
        <ele>302.09415</ele>
        <time>2022-08-23T12:43:11.000Z</time>
      </trkpt>
      <trkpt lat="45.90038" lon="4.68555">
        <ele>301.9491</ele>
        <time>2022-08-23T12:43:12.000Z</time>
      </trkpt>
      <trkpt lat="45.90035" lon="4.68551">
        <ele>301.84146</ele>
        <time>2022-08-23T12:43:13.000Z</time>
      </trkpt>
      <trkpt lat="45.90032" lon="4.68547">
        <ele>301.61658</ele>
        <time>2022-08-23T12:43:14.000Z</time>
      </trkpt>
      <trkpt lat="45.9003" lon="4.68544">
        <ele>301.43939</ele>
        <time>2022-08-23T12:43:15.000Z</time>
      </trkpt>
      <trkpt lat="45.90027" lon="4.68541">
        <ele>301.28094</ele>
        <time>2022-08-23T12:43:16.000Z</time>
      </trkpt>
      <trkpt lat="45.90024" lon="4.68537">
        <ele>301.24472</ele>
        <time>2022-08-23T12:43:17.000Z</time>
      </trkpt>
      <trkpt lat="45.90021" lon="4.68533">
        <ele>301.22495</ele>
        <time>2022-08-23T12:43:18.000Z</time>
      </trkpt>
      <trkpt lat="45.90017" lon="4.68529">
        <ele>301.27597</ele>
        <time>2022-08-23T12:43:19.000Z</time>
      </trkpt>
      <trkpt lat="45.90014" lon="4.68525">
        <ele>301.40567</ele>
        <time>2022-08-23T12:43:20.000Z</time>
      </trkpt>
      <trkpt lat="45.90011" lon="4.68521">
        <ele>301.5112</ele>
        <time>2022-08-23T12:43:21.000Z</time>
      </trkpt>
      <trkpt lat="45.90008" lon="4.68517">
        <ele>301.58795</ele>
        <time>2022-08-23T12:43:22.000Z</time>
      </trkpt>
      <trkpt lat="45.90006" lon="4.68514">
        <ele>301.6098</ele>
        <time>2022-08-23T12:43:23.000Z</time>
      </trkpt>
      <trkpt lat="45.90003" lon="4.68511">
        <ele>301.65994</ele>
        <time>2022-08-23T12:43:24.000Z</time>
      </trkpt>
      <trkpt lat="45.9" lon="4.68508">
        <ele>301.70172</ele>
        <time>2022-08-23T12:43:25.000Z</time>
      </trkpt>
      <trkpt lat="45.89997" lon="4.68505">
        <ele>301.83673</ele>
        <time>2022-08-23T12:43:26.000Z</time>
      </trkpt>
      <trkpt lat="45.89993" lon="4.68502">
        <ele>301.98474</ele>
        <time>2022-08-23T12:43:27.000Z</time>
      </trkpt>
      <trkpt lat="45.8999" lon="4.68499">
        <ele>302.23877</ele>
        <time>2022-08-23T12:43:28.000Z</time>
      </trkpt>
      <trkpt lat="45.89987" lon="4.68495">
        <ele>302.50604</ele>
        <time>2022-08-23T12:43:29.000Z</time>
      </trkpt>
      <trkpt lat="45.89985" lon="4.68491">
        <ele>302.76053</ele>
        <time>2022-08-23T12:43:30.000Z</time>
      </trkpt>
      <trkpt lat="45.89982" lon="4.68488">
        <ele>303.02496</ele>
        <time>2022-08-23T12:43:31.000Z</time>
      </trkpt>
      <trkpt lat="45.89979" lon="4.68484">
        <ele>303.43564</ele>
        <time>2022-08-23T12:43:32.000Z</time>
      </trkpt>
      <trkpt lat="45.89977" lon="4.6848">
        <ele>303.90863</ele>
        <time>2022-08-23T12:43:33.000Z</time>
      </trkpt>
      <trkpt lat="45.89975" lon="4.68476">
        <ele>304.43027</ele>
        <time>2022-08-23T12:43:34.000Z</time>
      </trkpt>
      <trkpt lat="45.89973" lon="4.68473">
        <ele>304.87665</ele>
        <time>2022-08-23T12:43:35.000Z</time>
      </trkpt>
      <trkpt lat="45.89971" lon="4.6847">
        <ele>305.20306</ele>
        <time>2022-08-23T12:43:36.000Z</time>
      </trkpt>
      <trkpt lat="45.89969" lon="4.68467">
        <ele>305.37061</ele>
        <time>2022-08-23T12:43:37.000Z</time>
      </trkpt>
      <trkpt lat="45.89966" lon="4.68464">
        <ele>305.49124</ele>
        <time>2022-08-23T12:43:38.000Z</time>
      </trkpt>
      <trkpt lat="45.89963" lon="4.68462">
        <ele>305.55966</ele>
        <time>2022-08-23T12:43:39.000Z</time>
      </trkpt>
      <trkpt lat="45.8996" lon="4.68459">
        <ele>305.61514</ele>
        <time>2022-08-23T12:43:40.000Z</time>
      </trkpt>
      <trkpt lat="45.89957" lon="4.68455">
        <ele>305.67267</ele>
        <time>2022-08-23T12:43:41.000Z</time>
      </trkpt>
      <trkpt lat="45.89955" lon="4.68451">
        <ele>305.68921</ele>
        <time>2022-08-23T12:43:42.000Z</time>
      </trkpt>
      <trkpt lat="45.89953" lon="4.68448">
        <ele>305.79492</ele>
        <time>2022-08-23T12:43:43.000Z</time>
      </trkpt>
      <trkpt lat="45.89951" lon="4.68445">
        <ele>305.83252</ele>
        <time>2022-08-23T12:43:44.000Z</time>
      </trkpt>
      <trkpt lat="45.8995" lon="4.68442">
        <ele>305.85455</ele>
        <time>2022-08-23T12:43:45.000Z</time>
      </trkpt>
      <trkpt lat="45.89948" lon="4.68438">
        <ele>305.8309</ele>
        <time>2022-08-23T12:43:46.000Z</time>
      </trkpt>
      <trkpt lat="45.89946" lon="4.68433">
        <ele>305.7803</ele>
        <time>2022-08-23T12:43:47.000Z</time>
      </trkpt>
      <trkpt lat="45.89944" lon="4.6843">
        <ele>305.78885</ele>
        <time>2022-08-23T12:43:48.000Z</time>
      </trkpt>
      <trkpt lat="45.89942" lon="4.68427">
        <ele>305.77716</ele>
        <time>2022-08-23T12:43:49.000Z</time>
      </trkpt>
      <trkpt lat="45.8994" lon="4.68424">
        <ele>305.71365</ele>
        <time>2022-08-23T12:43:50.000Z</time>
      </trkpt>
      <trkpt lat="45.89938" lon="4.68421">
        <ele>305.55951</ele>
        <time>2022-08-23T12:43:51.000Z</time>
      </trkpt>
      <trkpt lat="45.89935" lon="4.68419">
        <ele>305.34625</ele>
        <time>2022-08-23T12:43:52.000Z</time>
      </trkpt>
      <trkpt lat="45.89932" lon="4.68417">
        <ele>305.0654</ele>
        <time>2022-08-23T12:43:53.000Z</time>
      </trkpt>
      <trkpt lat="45.89929" lon="4.68415">
        <ele>304.78848</ele>
        <time>2022-08-23T12:43:54.000Z</time>
      </trkpt>
      <trkpt lat="45.89926" lon="4.68412">
        <ele>304.58319</ele>
        <time>2022-08-23T12:43:55.000Z</time>
      </trkpt>
      <trkpt lat="45.89924" lon="4.68408">
        <ele>304.43176</ele>
        <time>2022-08-23T12:43:56.000Z</time>
      </trkpt>
      <trkpt lat="45.89922" lon="4.68405">
        <ele>304.3465</ele>
        <time>2022-08-23T12:43:57.000Z</time>
      </trkpt>
      <trkpt lat="45.8992" lon="4.68402">
        <ele>304.34799</ele>
        <time>2022-08-23T12:43:58.000Z</time>
      </trkpt>
      <trkpt lat="45.89917" lon="4.684">
        <ele>304.37457</ele>
        <time>2022-08-23T12:43:59.000Z</time>
      </trkpt>
      <trkpt lat="45.89914" lon="4.68397">
        <ele>304.32742</ele>
        <time>2022-08-23T12:44:00.000Z</time>
      </trkpt>
      <trkpt lat="45.89912" lon="4.68395">
        <ele>304.2774</ele>
        <time>2022-08-23T12:44:01.000Z</time>
      </trkpt>
      <trkpt lat="45.89909" lon="4.68392">
        <ele>304.28531</ele>
        <time>2022-08-23T12:44:02.000Z</time>
      </trkpt>
      <trkpt lat="45.89906" lon="4.68389">
        <ele>304.28448</ele>
        <time>2022-08-23T12:44:03.000Z</time>
      </trkpt>
      <trkpt lat="45.89904" lon="4.68387">
        <ele>304.29803</ele>
        <time>2022-08-23T12:44:04.000Z</time>
      </trkpt>
      <trkpt lat="45.89901" lon="4.68385">
        <ele>304.40976</ele>
        <time>2022-08-23T12:44:05.000Z</time>
      </trkpt>
      <trkpt lat="45.89899" lon="4.68383">
        <ele>304.51059</ele>
        <time>2022-08-23T12:44:06.000Z</time>
      </trkpt>
      <trkpt lat="45.89896" lon="4.68382">
        <ele>304.67041</ele>
        <time>2022-08-23T12:44:07.000Z</time>
      </trkpt>
      <trkpt lat="45.89893" lon="4.68381">
        <ele>304.80347</ele>
        <time>2022-08-23T12:44:08.000Z</time>
      </trkpt>
      <trkpt lat="45.8989" lon="4.68379">
        <ele>304.9173</ele>
        <time>2022-08-23T12:44:09.000Z</time>
      </trkpt>
      <trkpt lat="45.89888" lon="4.68377">
        <ele>305.09262</ele>
        <time>2022-08-23T12:44:10.000Z</time>
      </trkpt>
      <trkpt lat="45.89885" lon="4.68373">
        <ele>305.3382</ele>
        <time>2022-08-23T12:44:11.000Z</time>
      </trkpt>
      <trkpt lat="45.89882" lon="4.6837">
        <ele>305.61737</ele>
        <time>2022-08-23T12:44:12.000Z</time>
      </trkpt>
      <trkpt lat="45.8988" lon="4.68367">
        <ele>305.93335</ele>
        <time>2022-08-23T12:44:13.000Z</time>
      </trkpt>
      <trkpt lat="45.89877" lon="4.68363">
        <ele>306.29285</ele>
        <time>2022-08-23T12:44:14.000Z</time>
      </trkpt>
      <trkpt lat="45.89875" lon="4.6836">
        <ele>306.61835</ele>
        <time>2022-08-23T12:44:15.000Z</time>
      </trkpt>
      <trkpt lat="45.89873" lon="4.68358">
        <ele>307.03125</ele>
        <time>2022-08-23T12:44:16.000Z</time>
      </trkpt>
      <trkpt lat="45.89871" lon="4.68355">
        <ele>307.4769</ele>
        <time>2022-08-23T12:44:17.000Z</time>
      </trkpt>
      <trkpt lat="45.89869" lon="4.68353">
        <ele>307.85239</ele>
        <time>2022-08-23T12:44:18.000Z</time>
      </trkpt>
      <trkpt lat="45.89867" lon="4.68351">
        <ele>308.23199</ele>
        <time>2022-08-23T12:44:19.000Z</time>
      </trkpt>
      <trkpt lat="45.89865" lon="4.6835">
        <ele>308.67865</ele>
        <time>2022-08-23T12:44:20.000Z</time>
      </trkpt>
      <trkpt lat="45.89863" lon="4.68347">
        <ele>309.12805</ele>
        <time>2022-08-23T12:44:21.000Z</time>
      </trkpt>
      <trkpt lat="45.89861" lon="4.68345">
        <ele>309.49902</ele>
        <time>2022-08-23T12:44:22.000Z</time>
      </trkpt>
      <trkpt lat="45.89858" lon="4.68343">
        <ele>309.83768</ele>
        <time>2022-08-23T12:44:23.000Z</time>
      </trkpt>
      <trkpt lat="45.89856" lon="4.68341">
        <ele>310.22491</ele>
        <time>2022-08-23T12:44:24.000Z</time>
      </trkpt>
      <trkpt lat="45.89854" lon="4.68339">
        <ele>310.56464</ele>
        <time>2022-08-23T12:44:25.000Z</time>
      </trkpt>
      <trkpt lat="45.89852" lon="4.68336">
        <ele>310.89645</ele>
        <time>2022-08-23T12:44:26.000Z</time>
      </trkpt>
      <trkpt lat="45.8985" lon="4.68335">
        <ele>311.19589</ele>
        <time>2022-08-23T12:44:27.000Z</time>
      </trkpt>
      <trkpt lat="45.89848" lon="4.68333">
        <ele>311.51288</ele>
        <time>2022-08-23T12:44:28.000Z</time>
      </trkpt>
      <trkpt lat="45.89845" lon="4.68331">
        <ele>311.83136</ele>
        <time>2022-08-23T12:44:29.000Z</time>
      </trkpt>
      <trkpt lat="45.89843" lon="4.68329">
        <ele>312.13721</ele>
        <time>2022-08-23T12:44:30.000Z</time>
      </trkpt>
      <trkpt lat="45.8984" lon="4.68327">
        <ele>312.41159</ele>
        <time>2022-08-23T12:44:31.000Z</time>
      </trkpt>
      <trkpt lat="45.89837" lon="4.68326">
        <ele>312.68842</ele>
        <time>2022-08-23T12:44:32.000Z</time>
      </trkpt>
      <trkpt lat="45.89834" lon="4.68324">
        <ele>312.88174</ele>
        <time>2022-08-23T12:44:33.000Z</time>
      </trkpt>
      <trkpt lat="45.89832" lon="4.68322">
        <ele>313.04218</ele>
        <time>2022-08-23T12:44:34.000Z</time>
      </trkpt>
      <trkpt lat="45.89829" lon="4.6832">
        <ele>313.23419</ele>
        <time>2022-08-23T12:44:35.000Z</time>
      </trkpt>
      <trkpt lat="45.89826" lon="4.68318">
        <ele>313.28076</ele>
        <time>2022-08-23T12:44:36.000Z</time>
      </trkpt>
      <trkpt lat="45.89823" lon="4.68316">
        <ele>313.33777</ele>
        <time>2022-08-23T12:44:37.000Z</time>
      </trkpt>
      <trkpt lat="45.8982" lon="4.68314">
        <ele>313.44879</ele>
        <time>2022-08-23T12:44:38.000Z</time>
      </trkpt>
      <trkpt lat="45.89817" lon="4.68312">
        <ele>313.50958</ele>
        <time>2022-08-23T12:44:39.000Z</time>
      </trkpt>
      <trkpt lat="45.89814" lon="4.6831">
        <ele>313.50452</ele>
        <time>2022-08-23T12:44:40.000Z</time>
      </trkpt>
      <trkpt lat="45.89812" lon="4.68308">
        <ele>313.52911</ele>
        <time>2022-08-23T12:44:41.000Z</time>
      </trkpt>
      <trkpt lat="45.89809" lon="4.68305">
        <ele>313.60391</ele>
        <time>2022-08-23T12:44:42.000Z</time>
      </trkpt>
      <trkpt lat="45.89806" lon="4.68302">
        <ele>313.70807</ele>
        <time>2022-08-23T12:44:43.000Z</time>
      </trkpt>
      <trkpt lat="45.89803" lon="4.68299">
        <ele>313.80038</ele>
        <time>2022-08-23T12:44:44.000Z</time>
      </trkpt>
      <trkpt lat="45.89799" lon="4.68295">
        <ele>313.9165</ele>
        <time>2022-08-23T12:44:45.000Z</time>
      </trkpt>
      <trkpt lat="45.89796" lon="4.68287">
        <ele>313.93002</ele>
        <time>2022-08-23T12:44:46.000Z</time>
      </trkpt>
      <trkpt lat="45.89792" lon="4.68281">
        <ele>313.86398</ele>
        <time>2022-08-23T12:44:47.000Z</time>
      </trkpt>
      <trkpt lat="45.89789" lon="4.68277">
        <ele>313.69302</ele>
        <time>2022-08-23T12:44:48.000Z</time>
      </trkpt>
      <trkpt lat="45.89786" lon="4.68272">
        <ele>313.57007</ele>
        <time>2022-08-23T12:44:49.000Z</time>
      </trkpt>
      <trkpt lat="45.89782" lon="4.68268">
        <ele>313.41205</ele>
        <time>2022-08-23T12:44:50.000Z</time>
      </trkpt>
      <trkpt lat="45.89781" lon="4.68259">
        <ele>313.27307</ele>
        <time>2022-08-23T12:44:51.000Z</time>
      </trkpt>
      <trkpt lat="45.89781" lon="4.68249">
        <ele>313.0618</ele>
        <time>2022-08-23T12:44:52.000Z</time>
      </trkpt>
      <trkpt lat="45.8978" lon="4.6824">
        <ele>312.81281</ele>
        <time>2022-08-23T12:44:53.000Z</time>
      </trkpt>
      <trkpt lat="45.89779" lon="4.68232">
        <ele>312.56534</ele>
        <time>2022-08-23T12:44:54.000Z</time>
      </trkpt>
      <trkpt lat="45.89777" lon="4.68223">
        <ele>312.26431</ele>
        <time>2022-08-23T12:44:55.000Z</time>
      </trkpt>
      <trkpt lat="45.89774" lon="4.68216">
        <ele>312.03314</ele>
        <time>2022-08-23T12:44:56.000Z</time>
      </trkpt>
      <trkpt lat="45.89771" lon="4.68209">
        <ele>311.71475</ele>
        <time>2022-08-23T12:44:57.000Z</time>
      </trkpt>
      <trkpt lat="45.89771" lon="4.682">
        <ele>311.36029</ele>
        <time>2022-08-23T12:44:58.000Z</time>
      </trkpt>
      <trkpt lat="45.89771" lon="4.68193">
        <ele>310.94168</ele>
        <time>2022-08-23T12:44:59.000Z</time>
      </trkpt>
      <trkpt lat="45.8977" lon="4.68188">
        <ele>310.54239</ele>
        <time>2022-08-23T12:45:00.000Z</time>
      </trkpt>
      <trkpt lat="45.89767" lon="4.68182">
        <ele>310.17273</ele>
        <time>2022-08-23T12:45:01.000Z</time>
      </trkpt>
      <trkpt lat="45.89762" lon="4.68177">
        <ele>309.76926</ele>
        <time>2022-08-23T12:45:02.000Z</time>
      </trkpt>
      <trkpt lat="45.89758" lon="4.68173">
        <ele>309.46643</ele>
        <time>2022-08-23T12:45:03.000Z</time>
      </trkpt>
      <trkpt lat="45.89754" lon="4.68172">
        <ele>309.20642</ele>
        <time>2022-08-23T12:45:04.000Z</time>
      </trkpt>
      <trkpt lat="45.89751" lon="4.68171">
        <ele>308.96762</ele>
        <time>2022-08-23T12:45:05.000Z</time>
      </trkpt>
      <trkpt lat="45.89749" lon="4.68169">
        <ele>308.88806</ele>
        <time>2022-08-23T12:45:06.000Z</time>
      </trkpt>
      <trkpt lat="45.89747" lon="4.68168">
        <ele>308.8559</ele>
        <time>2022-08-23T12:45:07.000Z</time>
      </trkpt>
      <trkpt lat="45.89745" lon="4.68166">
        <ele>308.73718</ele>
        <time>2022-08-23T12:45:09.000Z</time>
      </trkpt>
      <trkpt lat="45.89744" lon="4.68165">
        <ele>308.591</ele>
        <time>2022-08-23T12:45:10.000Z</time>
      </trkpt>
      <trkpt lat="45.89741" lon="4.68164">
        <ele>308.47696</ele>
        <time>2022-08-23T12:45:11.000Z</time>
      </trkpt>
      <trkpt lat="45.89739" lon="4.68163">
        <ele>308.42102</ele>
        <time>2022-08-23T12:45:12.000Z</time>
      </trkpt>
      <trkpt lat="45.89736" lon="4.68162">
        <ele>308.40021</ele>
        <time>2022-08-23T12:45:13.000Z</time>
      </trkpt>
      <trkpt lat="45.89735" lon="4.68161">
        <ele>308.492</ele>
        <time>2022-08-23T12:45:14.000Z</time>
      </trkpt>
      <trkpt lat="45.89733" lon="4.6816">
        <ele>308.57321</ele>
        <time>2022-08-23T12:45:15.000Z</time>
      </trkpt>
      <trkpt lat="45.89729" lon="4.68157">
        <ele>308.6586</ele>
        <time>2022-08-23T12:45:17.000Z</time>
      </trkpt>
      <trkpt lat="45.89728" lon="4.68156">
        <ele>308.7962</ele>
        <time>2022-08-23T12:45:18.000Z</time>
      </trkpt>
      <trkpt lat="45.89727" lon="4.68159">
        <ele>308.99344</ele>
        <time>2022-08-23T12:45:21.000Z</time>
      </trkpt>
      <trkpt lat="45.89729" lon="4.68162">
        <ele>309.12796</ele>
        <time>2022-08-23T12:45:23.000Z</time>
      </trkpt>
      <trkpt lat="45.89732" lon="4.68164">
        <ele>309.3681</ele>
        <time>2022-08-23T12:45:25.000Z</time>
      </trkpt>
      <trkpt lat="45.89735" lon="4.68165">
        <ele>309.63959</ele>
        <time>2022-08-23T12:45:26.000Z</time>
      </trkpt>
      <trkpt lat="45.89738" lon="4.68166">
        <ele>309.90875</ele>
        <time>2022-08-23T12:45:27.000Z</time>
      </trkpt>
      <trkpt lat="45.89741" lon="4.68168">
        <ele>310.18402</ele>
        <time>2022-08-23T12:45:28.000Z</time>
      </trkpt>
      <trkpt lat="45.89743" lon="4.68171">
        <ele>310.31198</ele>
        <time>2022-08-23T12:45:29.000Z</time>
      </trkpt>
      <trkpt lat="45.89745" lon="4.68174">
        <ele>310.36621</ele>
        <time>2022-08-23T12:45:30.000Z</time>
      </trkpt>
      <trkpt lat="45.89745" lon="4.68178">
        <ele>310.40948</ele>
        <time>2022-08-23T12:45:31.000Z</time>
      </trkpt>
      <trkpt lat="45.89743" lon="4.68183">
        <ele>310.40686</ele>
        <time>2022-08-23T12:45:32.000Z</time>
      </trkpt>
      <trkpt lat="45.89733" lon="4.68186">
        <ele>310.30316</ele>
        <time>2022-08-23T12:45:33.000Z</time>
      </trkpt>
      <trkpt lat="45.89729" lon="4.68188">
        <ele>310.33514</ele>
        <time>2022-08-23T12:45:34.000Z</time>
      </trkpt>
      <trkpt lat="45.89725" lon="4.68191">
        <ele>310.24701</ele>
        <time>2022-08-23T12:45:35.000Z</time>
      </trkpt>
      <trkpt lat="45.8972" lon="4.68194">
        <ele>310.23553</ele>
        <time>2022-08-23T12:45:36.000Z</time>
      </trkpt>
      <trkpt lat="45.89715" lon="4.68196">
        <ele>310.15222</ele>
        <time>2022-08-23T12:45:37.000Z</time>
      </trkpt>
      <trkpt lat="45.8971" lon="4.68196">
        <ele>310.10239</ele>
        <time>2022-08-23T12:45:38.000Z</time>
      </trkpt>
      <trkpt lat="45.89706" lon="4.68199">
        <ele>310.04941</ele>
        <time>2022-08-23T12:45:39.000Z</time>
      </trkpt>
      <trkpt lat="45.89702" lon="4.68202">
        <ele>310.02603</ele>
        <time>2022-08-23T12:45:40.000Z</time>
      </trkpt>
      <trkpt lat="45.89698" lon="4.68204">
        <ele>309.97241</ele>
        <time>2022-08-23T12:45:41.000Z</time>
      </trkpt>
      <trkpt lat="45.89693" lon="4.68206">
        <ele>309.86923</ele>
        <time>2022-08-23T12:45:42.000Z</time>
      </trkpt>
      <trkpt lat="45.89689" lon="4.6821">
        <ele>309.76053</ele>
        <time>2022-08-23T12:45:43.000Z</time>
      </trkpt>
      <trkpt lat="45.89684" lon="4.68214">
        <ele>309.74716</ele>
        <time>2022-08-23T12:45:44.000Z</time>
      </trkpt>
      <trkpt lat="45.89679" lon="4.68214">
        <ele>309.65741</ele>
        <time>2022-08-23T12:45:45.000Z</time>
      </trkpt>
      <trkpt lat="45.89676" lon="4.68215">
        <ele>309.57416</ele>
        <time>2022-08-23T12:45:46.000Z</time>
      </trkpt>
      <trkpt lat="45.89669" lon="4.68219">
        <ele>309.48923</ele>
        <time>2022-08-23T12:45:47.000Z</time>
      </trkpt>
      <trkpt lat="45.89664" lon="4.68219">
        <ele>309.42255</ele>
        <time>2022-08-23T12:45:48.000Z</time>
      </trkpt>
      <trkpt lat="45.89658" lon="4.6822">
        <ele>309.45068</ele>
        <time>2022-08-23T12:45:49.000Z</time>
      </trkpt>
      <trkpt lat="45.89654" lon="4.68223">
        <ele>309.52386</ele>
        <time>2022-08-23T12:45:50.000Z</time>
      </trkpt>
      <trkpt lat="45.89649" lon="4.68228">
        <ele>309.60846</ele>
        <time>2022-08-23T12:45:51.000Z</time>
      </trkpt>
      <trkpt lat="45.89644" lon="4.68231">
        <ele>309.69724</ele>
        <time>2022-08-23T12:45:52.000Z</time>
      </trkpt>
      <trkpt lat="45.89638" lon="4.68236">
        <ele>309.84796</ele>
        <time>2022-08-23T12:45:53.000Z</time>
      </trkpt>
      <trkpt lat="45.89634" lon="4.6824">
        <ele>309.9931</ele>
        <time>2022-08-23T12:45:54.000Z</time>
      </trkpt>
      <trkpt lat="45.89631" lon="4.68248">
        <ele>310.17084</ele>
        <time>2022-08-23T12:45:55.000Z</time>
      </trkpt>
      <trkpt lat="45.89628" lon="4.68256">
        <ele>310.23846</ele>
        <time>2022-08-23T12:45:56.000Z</time>
      </trkpt>
      <trkpt lat="45.89623" lon="4.68262">
        <ele>310.31744</ele>
        <time>2022-08-23T12:45:57.000Z</time>
      </trkpt>
      <trkpt lat="45.89619" lon="4.68269">
        <ele>310.40472</ele>
        <time>2022-08-23T12:45:58.000Z</time>
      </trkpt>
      <trkpt lat="45.89616" lon="4.68276">
        <ele>310.40363</ele>
        <time>2022-08-23T12:45:59.000Z</time>
      </trkpt>
      <trkpt lat="45.89613" lon="4.6828">
        <ele>310.35645</ele>
        <time>2022-08-23T12:46:00.000Z</time>
      </trkpt>
      <trkpt lat="45.89609" lon="4.68285">
        <ele>310.32465</ele>
        <time>2022-08-23T12:46:01.000Z</time>
      </trkpt>
      <trkpt lat="45.89606" lon="4.68291">
        <ele>310.21295</ele>
        <time>2022-08-23T12:46:02.000Z</time>
      </trkpt>
      <trkpt lat="45.89603" lon="4.68297">
        <ele>310.08194</ele>
        <time>2022-08-23T12:46:03.000Z</time>
      </trkpt>
      <trkpt lat="45.89596" lon="4.68305">
        <ele>309.95007</ele>
        <time>2022-08-23T12:46:04.000Z</time>
      </trkpt>
      <trkpt lat="45.8959" lon="4.68299">
        <ele>309.86221</ele>
        <time>2022-08-23T12:46:05.000Z</time>
      </trkpt>
      <trkpt lat="45.89585" lon="4.68301">
        <ele>309.78009</ele>
        <time>2022-08-23T12:46:06.000Z</time>
      </trkpt>
      <trkpt lat="45.89581" lon="4.68305">
        <ele>309.71597</ele>
        <time>2022-08-23T12:46:07.000Z</time>
      </trkpt>
      <trkpt lat="45.89578" lon="4.68306">
        <ele>309.63632</ele>
        <time>2022-08-23T12:46:08.000Z</time>
      </trkpt>
      <trkpt lat="45.89575" lon="4.68307">
        <ele>309.49811</ele>
        <time>2022-08-23T12:46:09.000Z</time>
      </trkpt>
      <trkpt lat="45.89572" lon="4.68311">
        <ele>309.32025</ele>
        <time>2022-08-23T12:46:10.000Z</time>
      </trkpt>
      <trkpt lat="45.89568" lon="4.68314">
        <ele>309.09381</ele>
        <time>2022-08-23T12:46:11.000Z</time>
      </trkpt>
      <trkpt lat="45.89564" lon="4.68314">
        <ele>308.85919</ele>
        <time>2022-08-23T12:46:12.000Z</time>
      </trkpt>
      <trkpt lat="45.8956" lon="4.68315">
        <ele>308.64685</ele>
        <time>2022-08-23T12:46:13.000Z</time>
      </trkpt>
      <trkpt lat="45.89557" lon="4.68318">
        <ele>308.4173</ele>
        <time>2022-08-23T12:46:14.000Z</time>
      </trkpt>
      <trkpt lat="45.89553" lon="4.6832">
        <ele>308.25827</ele>
        <time>2022-08-23T12:46:15.000Z</time>
      </trkpt>
      <trkpt lat="45.89548" lon="4.68321">
        <ele>308.19067</ele>
        <time>2022-08-23T12:46:16.000Z</time>
      </trkpt>
      <trkpt lat="45.89544" lon="4.68321">
        <ele>308.13712</ele>
        <time>2022-08-23T12:46:17.000Z</time>
      </trkpt>
      <trkpt lat="45.8954" lon="4.68322">
        <ele>307.98056</ele>
        <time>2022-08-23T12:46:18.000Z</time>
      </trkpt>
      <trkpt lat="45.89535" lon="4.68323">
        <ele>307.80261</ele>
        <time>2022-08-23T12:46:19.000Z</time>
      </trkpt>
      <trkpt lat="45.8953" lon="4.68324">
        <ele>307.67374</ele>
        <time>2022-08-23T12:46:20.000Z</time>
      </trkpt>
      <trkpt lat="45.89525" lon="4.68326">
        <ele>307.52457</ele>
        <time>2022-08-23T12:46:21.000Z</time>
      </trkpt>
      <trkpt lat="45.89519" lon="4.68329">
        <ele>307.40912</ele>
        <time>2022-08-23T12:46:22.000Z</time>
      </trkpt>
      <trkpt lat="45.89514" lon="4.68332">
        <ele>307.24609</ele>
        <time>2022-08-23T12:46:23.000Z</time>
      </trkpt>
      <trkpt lat="45.89507" lon="4.6833">
        <ele>307.01627</ele>
        <time>2022-08-23T12:46:24.000Z</time>
      </trkpt>
      <trkpt lat="45.89503" lon="4.68327">
        <ele>306.71182</ele>
        <time>2022-08-23T12:46:25.000Z</time>
      </trkpt>
      <trkpt lat="45.89498" lon="4.6833">
        <ele>306.3768</ele>
        <time>2022-08-23T12:46:26.000Z</time>
      </trkpt>
      <trkpt lat="45.89493" lon="4.68328">
        <ele>305.93604</ele>
        <time>2022-08-23T12:46:27.000Z</time>
      </trkpt>
      <trkpt lat="45.89487" lon="4.68331">
        <ele>305.54645</ele>
        <time>2022-08-23T12:46:28.000Z</time>
      </trkpt>
      <trkpt lat="45.89482" lon="4.68336">
        <ele>305.15106</ele>
        <time>2022-08-23T12:46:29.000Z</time>
      </trkpt>
      <trkpt lat="45.89478" lon="4.68343">
        <ele>304.78363</ele>
        <time>2022-08-23T12:46:30.000Z</time>
      </trkpt>
      <trkpt lat="45.89474" lon="4.68345">
        <ele>304.49158</ele>
        <time>2022-08-23T12:46:31.000Z</time>
      </trkpt>
      <trkpt lat="45.8947" lon="4.68346">
        <ele>304.21265</ele>
        <time>2022-08-23T12:46:32.000Z</time>
      </trkpt>
      <trkpt lat="45.89465" lon="4.68353">
        <ele>303.83624</ele>
        <time>2022-08-23T12:46:33.000Z</time>
      </trkpt>
      <trkpt lat="45.89461" lon="4.68358">
        <ele>303.44232</ele>
        <time>2022-08-23T12:46:34.000Z</time>
      </trkpt>
      <trkpt lat="45.89457" lon="4.68363">
        <ele>303.05707</ele>
        <time>2022-08-23T12:46:35.000Z</time>
      </trkpt>
      <trkpt lat="45.89455" lon="4.68369">
        <ele>302.57541</ele>
        <time>2022-08-23T12:46:36.000Z</time>
      </trkpt>
      <trkpt lat="45.89456" lon="4.68375">
        <ele>302.18314</ele>
        <time>2022-08-23T12:46:37.000Z</time>
      </trkpt>
      <trkpt lat="45.89454" lon="4.68381">
        <ele>301.7562</ele>
        <time>2022-08-23T12:46:38.000Z</time>
      </trkpt>
      <trkpt lat="45.89453" lon="4.68387">
        <ele>301.38153</ele>
        <time>2022-08-23T12:46:39.000Z</time>
      </trkpt>
      <trkpt lat="45.89451" lon="4.68393">
        <ele>300.98895</ele>
        <time>2022-08-23T12:46:40.000Z</time>
      </trkpt>
      <trkpt lat="45.8945" lon="4.68399">
        <ele>300.72296</ele>
        <time>2022-08-23T12:46:41.000Z</time>
      </trkpt>
      <trkpt lat="45.89448" lon="4.68406">
        <ele>300.4339</ele>
        <time>2022-08-23T12:46:42.000Z</time>
      </trkpt>
      <trkpt lat="45.89448" lon="4.68412">
        <ele>300.12799</ele>
        <time>2022-08-23T12:46:43.000Z</time>
      </trkpt>
      <trkpt lat="45.89447" lon="4.68417">
        <ele>299.78659</ele>
        <time>2022-08-23T12:46:44.000Z</time>
      </trkpt>
      <trkpt lat="45.89445" lon="4.68424">
        <ele>299.45822</ele>
        <time>2022-08-23T12:46:45.000Z</time>
      </trkpt>
      <trkpt lat="45.89444" lon="4.6843">
        <ele>299.1687</ele>
        <time>2022-08-23T12:46:46.000Z</time>
      </trkpt>
      <trkpt lat="45.89443" lon="4.68435">
        <ele>298.91562</ele>
        <time>2022-08-23T12:46:47.000Z</time>
      </trkpt>
      <trkpt lat="45.8944" lon="4.68438">
        <ele>298.61667</ele>
        <time>2022-08-23T12:46:48.000Z</time>
      </trkpt>
      <trkpt lat="45.89438" lon="4.68441">
        <ele>298.33493</ele>
        <time>2022-08-23T12:46:49.000Z</time>
      </trkpt>
      <trkpt lat="45.89435" lon="4.68443">
        <ele>298.0625</ele>
        <time>2022-08-23T12:46:50.000Z</time>
      </trkpt>
      <trkpt lat="45.89432" lon="4.68445">
        <ele>297.7861</ele>
        <time>2022-08-23T12:46:51.000Z</time>
      </trkpt>
      <trkpt lat="45.89429" lon="4.68446">
        <ele>297.57901</ele>
        <time>2022-08-23T12:46:52.000Z</time>
      </trkpt>
      <trkpt lat="45.89427" lon="4.68447">
        <ele>297.45676</ele>
        <time>2022-08-23T12:46:53.000Z</time>
      </trkpt>
      <trkpt lat="45.89424" lon="4.68447">
        <ele>297.4057</ele>
        <time>2022-08-23T12:46:54.000Z</time>
      </trkpt>
      <trkpt lat="45.89422" lon="4.68448">
        <ele>297.37958</ele>
        <time>2022-08-23T12:46:55.000Z</time>
      </trkpt>
      <trkpt lat="45.89419" lon="4.68449">
        <ele>297.34393</ele>
        <time>2022-08-23T12:46:56.000Z</time>
      </trkpt>
      <trkpt lat="45.89416" lon="4.6845">
        <ele>297.21417</ele>
        <time>2022-08-23T12:46:57.000Z</time>
      </trkpt>
      <trkpt lat="45.89413" lon="4.68451">
        <ele>297.15985</ele>
        <time>2022-08-23T12:46:58.000Z</time>
      </trkpt>
      <trkpt lat="45.89411" lon="4.68452">
        <ele>297.08679</ele>
        <time>2022-08-23T12:46:59.000Z</time>
      </trkpt>
      <trkpt lat="45.89407" lon="4.68454">
        <ele>297.02948</ele>
        <time>2022-08-23T12:47:00.000Z</time>
      </trkpt>
      <trkpt lat="45.89404" lon="4.68455">
        <ele>296.95978</ele>
        <time>2022-08-23T12:47:01.000Z</time>
      </trkpt>
      <trkpt lat="45.894" lon="4.68456">
        <ele>296.97784</ele>
        <time>2022-08-23T12:47:02.000Z</time>
      </trkpt>
      <trkpt lat="45.89397" lon="4.68457">
        <ele>297.03436</ele>
        <time>2022-08-23T12:47:03.000Z</time>
      </trkpt>
      <trkpt lat="45.89394" lon="4.68458">
        <ele>297.09143</ele>
        <time>2022-08-23T12:47:04.000Z</time>
      </trkpt>
      <trkpt lat="45.8939" lon="4.68459">
        <ele>297.22177</ele>
        <time>2022-08-23T12:47:05.000Z</time>
      </trkpt>
      <trkpt lat="45.89387" lon="4.6846">
        <ele>297.349</ele>
        <time>2022-08-23T12:47:06.000Z</time>
      </trkpt>
      <trkpt lat="45.89384" lon="4.6846">
        <ele>297.46194</ele>
        <time>2022-08-23T12:47:07.000Z</time>
      </trkpt>
      <trkpt lat="45.89381" lon="4.6846">
        <ele>297.56577</ele>
        <time>2022-08-23T12:47:08.000Z</time>
      </trkpt>
      <trkpt lat="45.89378" lon="4.68461">
        <ele>297.65469</ele>
        <time>2022-08-23T12:47:09.000Z</time>
      </trkpt>
      <trkpt lat="45.89376" lon="4.68461">
        <ele>297.73486</ele>
        <time>2022-08-23T12:47:10.000Z</time>
      </trkpt>
      <trkpt lat="45.89373" lon="4.68462">
        <ele>297.84305</ele>
        <time>2022-08-23T12:47:11.000Z</time>
      </trkpt>
      <trkpt lat="45.8937" lon="4.68462">
        <ele>297.97</ele>
        <time>2022-08-23T12:47:12.000Z</time>
      </trkpt>
      <trkpt lat="45.89368" lon="4.68462">
        <ele>298.12592</ele>
        <time>2022-08-23T12:47:13.000Z</time>
      </trkpt>
      <trkpt lat="45.89366" lon="4.68463">
        <ele>298.31387</ele>
        <time>2022-08-23T12:47:14.000Z</time>
      </trkpt>
      <trkpt lat="45.89363" lon="4.68464">
        <ele>298.52386</ele>
        <time>2022-08-23T12:47:15.000Z</time>
      </trkpt>
      <trkpt lat="45.89361" lon="4.68465">
        <ele>298.81744</ele>
        <time>2022-08-23T12:47:16.000Z</time>
      </trkpt>
      <trkpt lat="45.89359" lon="4.68466">
        <ele>299.09601</ele>
        <time>2022-08-23T12:47:17.000Z</time>
      </trkpt>
      <trkpt lat="45.89357" lon="4.68466">
        <ele>299.44199</ele>
        <time>2022-08-23T12:47:18.000Z</time>
      </trkpt>
      <trkpt lat="45.89355" lon="4.68468">
        <ele>299.82996</ele>
        <time>2022-08-23T12:47:19.000Z</time>
      </trkpt>
      <trkpt lat="45.89353" lon="4.68469">
        <ele>300.2128</ele>
        <time>2022-08-23T12:47:20.000Z</time>
      </trkpt>
      <trkpt lat="45.89351" lon="4.68471">
        <ele>300.58124</ele>
        <time>2022-08-23T12:47:21.000Z</time>
      </trkpt>
      <trkpt lat="45.8935" lon="4.68473">
        <ele>300.94061</ele>
        <time>2022-08-23T12:47:22.000Z</time>
      </trkpt>
      <trkpt lat="45.89347" lon="4.68477">
        <ele>301.35721</ele>
        <time>2022-08-23T12:47:24.000Z</time>
      </trkpt>
      <trkpt lat="45.89346" lon="4.68479">
        <ele>301.92563</ele>
        <time>2022-08-23T12:47:25.000Z</time>
      </trkpt>
      <trkpt lat="45.89344" lon="4.68481">
        <ele>302.50739</ele>
        <time>2022-08-23T12:47:26.000Z</time>
      </trkpt>
      <trkpt lat="45.89342" lon="4.68483">
        <ele>303.01712</ele>
        <time>2022-08-23T12:47:27.000Z</time>
      </trkpt>
      <trkpt lat="45.8934" lon="4.68485">
        <ele>303.58231</ele>
        <time>2022-08-23T12:47:28.000Z</time>
      </trkpt>
      <trkpt lat="45.89338" lon="4.68488">
        <ele>304.13507</ele>
        <time>2022-08-23T12:47:29.000Z</time>
      </trkpt>
      <trkpt lat="45.89336" lon="4.6849">
        <ele>304.716</ele>
        <time>2022-08-23T12:47:30.000Z</time>
      </trkpt>
      <trkpt lat="45.89334" lon="4.68492">
        <ele>305.22507</ele>
        <time>2022-08-23T12:47:31.000Z</time>
      </trkpt>
      <trkpt lat="45.89333" lon="4.68494">
        <ele>305.65738</ele>
        <time>2022-08-23T12:47:32.000Z</time>
      </trkpt>
      <trkpt lat="45.89331" lon="4.68496">
        <ele>306.00836</ele>
        <time>2022-08-23T12:47:33.000Z</time>
      </trkpt>
      <trkpt lat="45.89329" lon="4.68498">
        <ele>306.31946</ele>
        <time>2022-08-23T12:47:34.000Z</time>
      </trkpt>
      <trkpt lat="45.89327" lon="4.685">
        <ele>306.5376</ele>
        <time>2022-08-23T12:47:35.000Z</time>
      </trkpt>
      <trkpt lat="45.89326" lon="4.68502">
        <ele>306.75861</ele>
        <time>2022-08-23T12:47:36.000Z</time>
      </trkpt>
      <trkpt lat="45.89323" lon="4.68505">
        <ele>306.96527</ele>
        <time>2022-08-23T12:47:37.000Z</time>
      </trkpt>
      <trkpt lat="45.89321" lon="4.68507">
        <ele>307.18878</ele>
        <time>2022-08-23T12:47:38.000Z</time>
      </trkpt>
      <trkpt lat="45.89319" lon="4.68509">
        <ele>307.26581</ele>
        <time>2022-08-23T12:47:39.000Z</time>
      </trkpt>
      <trkpt lat="45.89317" lon="4.68512">
        <ele>307.26425</ele>
        <time>2022-08-23T12:47:40.000Z</time>
      </trkpt>
      <trkpt lat="45.89315" lon="4.68514">
        <ele>307.34747</ele>
        <time>2022-08-23T12:47:41.000Z</time>
      </trkpt>
      <trkpt lat="45.89312" lon="4.68515">
        <ele>307.32135</ele>
        <time>2022-08-23T12:47:42.000Z</time>
      </trkpt>
      <trkpt lat="45.8931" lon="4.68517">
        <ele>307.30255</ele>
        <time>2022-08-23T12:47:43.000Z</time>
      </trkpt>
      <trkpt lat="45.89307" lon="4.68519">
        <ele>307.20053</ele>
        <time>2022-08-23T12:47:44.000Z</time>
      </trkpt>
      <trkpt lat="45.89305" lon="4.68521">
        <ele>306.92081</ele>
        <time>2022-08-23T12:47:45.000Z</time>
      </trkpt>
      <trkpt lat="45.89302" lon="4.68523">
        <ele>306.61746</ele>
        <time>2022-08-23T12:47:46.000Z</time>
      </trkpt>
      <trkpt lat="45.89299" lon="4.68525">
        <ele>306.27005</ele>
        <time>2022-08-23T12:47:47.000Z</time>
      </trkpt>
      <trkpt lat="45.89297" lon="4.68527">
        <ele>305.84286</ele>
        <time>2022-08-23T12:47:48.000Z</time>
      </trkpt>
      <trkpt lat="45.89294" lon="4.68529">
        <ele>305.44293</ele>
        <time>2022-08-23T12:47:49.000Z</time>
      </trkpt>
      <trkpt lat="45.89292" lon="4.6853">
        <ele>305.01782</ele>
        <time>2022-08-23T12:47:50.000Z</time>
      </trkpt>
      <trkpt lat="45.89289" lon="4.68531">
        <ele>304.60135</ele>
        <time>2022-08-23T12:47:51.000Z</time>
      </trkpt>
      <trkpt lat="45.89286" lon="4.68532">
        <ele>304.16138</ele>
        <time>2022-08-23T12:47:52.000Z</time>
      </trkpt>
      <trkpt lat="45.89284" lon="4.68533">
        <ele>303.77179</ele>
        <time>2022-08-23T12:47:53.000Z</time>
      </trkpt>
      <trkpt lat="45.89282" lon="4.68534">
        <ele>303.38593</ele>
        <time>2022-08-23T12:47:54.000Z</time>
      </trkpt>
      <trkpt lat="45.89279" lon="4.68535">
        <ele>302.98389</ele>
        <time>2022-08-23T12:47:55.000Z</time>
      </trkpt>
      <trkpt lat="45.89276" lon="4.68536">
        <ele>302.52448</ele>
        <time>2022-08-23T12:47:56.000Z</time>
      </trkpt>
      <trkpt lat="45.89273" lon="4.68536">
        <ele>302.00851</ele>
        <time>2022-08-23T12:47:57.000Z</time>
      </trkpt>
      <trkpt lat="45.8927" lon="4.68536">
        <ele>301.48895</ele>
        <time>2022-08-23T12:47:58.000Z</time>
      </trkpt>
      <trkpt lat="45.89267" lon="4.68536">
        <ele>301.06873</ele>
        <time>2022-08-23T12:47:59.000Z</time>
      </trkpt>
      <trkpt lat="45.89264" lon="4.68537">
        <ele>300.74017</ele>
        <time>2022-08-23T12:48:00.000Z</time>
      </trkpt>
      <trkpt lat="45.8926" lon="4.68536">
        <ele>300.15683</ele>
        <time>2022-08-23T12:48:01.000Z</time>
      </trkpt>
      <trkpt lat="45.89257" lon="4.68536">
        <ele>299.61572</ele>
        <time>2022-08-23T12:48:02.000Z</time>
      </trkpt>
      <trkpt lat="45.89254" lon="4.68537">
        <ele>299.04559</ele>
        <time>2022-08-23T12:48:03.000Z</time>
      </trkpt>
      <trkpt lat="45.89252" lon="4.68538">
        <ele>298.49371</ele>
        <time>2022-08-23T12:48:04.000Z</time>
      </trkpt>
      <trkpt lat="45.89249" lon="4.6854">
        <ele>297.9621</ele>
        <time>2022-08-23T12:48:05.000Z</time>
      </trkpt>
      <trkpt lat="45.89247" lon="4.68541">
        <ele>297.46704</ele>
        <time>2022-08-23T12:48:06.000Z</time>
      </trkpt>
      <trkpt lat="45.89244" lon="4.68543">
        <ele>297.05817</ele>
        <time>2022-08-23T12:48:07.000Z</time>
      </trkpt>
      <trkpt lat="45.89241" lon="4.68545">
        <ele>296.711</ele>
        <time>2022-08-23T12:48:08.000Z</time>
      </trkpt>
      <trkpt lat="45.89238" lon="4.68548">
        <ele>296.41226</ele>
        <time>2022-08-23T12:48:09.000Z</time>
      </trkpt>
      <trkpt lat="45.89235" lon="4.68549">
        <ele>296.10016</ele>
        <time>2022-08-23T12:48:10.000Z</time>
      </trkpt>
      <trkpt lat="45.89232" lon="4.68551">
        <ele>295.82611</ele>
        <time>2022-08-23T12:48:11.000Z</time>
      </trkpt>
      <trkpt lat="45.8923" lon="4.68552">
        <ele>295.66406</ele>
        <time>2022-08-23T12:48:12.000Z</time>
      </trkpt>
      <trkpt lat="45.89227" lon="4.68552">
        <ele>295.48972</ele>
        <time>2022-08-23T12:48:13.000Z</time>
      </trkpt>
      <trkpt lat="45.89224" lon="4.68553">
        <ele>295.31555</ele>
        <time>2022-08-23T12:48:14.000Z</time>
      </trkpt>
      <trkpt lat="45.89221" lon="4.68554">
        <ele>295.20035</ele>
        <time>2022-08-23T12:48:15.000Z</time>
      </trkpt>
      <trkpt lat="45.89219" lon="4.68555">
        <ele>295.16544</ele>
        <time>2022-08-23T12:48:16.000Z</time>
      </trkpt>
      <trkpt lat="45.89216" lon="4.68557">
        <ele>295.18378</ele>
        <time>2022-08-23T12:48:17.000Z</time>
      </trkpt>
      <trkpt lat="45.89214" lon="4.68557">
        <ele>295.15152</ele>
        <time>2022-08-23T12:48:18.000Z</time>
      </trkpt>
      <trkpt lat="45.89211" lon="4.68558">
        <ele>295.08185</ele>
        <time>2022-08-23T12:48:20.000Z</time>
      </trkpt>
      <trkpt lat="45.89209" lon="4.68558">
        <ele>294.96341</ele>
        <time>2022-08-23T12:48:21.000Z</time>
      </trkpt>
      <trkpt lat="45.89207" lon="4.68556">
        <ele>295.00375</ele>
        <time>2022-08-23T12:48:24.000Z</time>
      </trkpt>
      <trkpt lat="45.89205" lon="4.68554">
        <ele>295.12097</ele>
        <time>2022-08-23T12:48:26.000Z</time>
      </trkpt>
      <trkpt lat="45.89203" lon="4.68553">
        <ele>295.16815</ele>
        <time>2022-08-23T12:48:28.000Z</time>
      </trkpt>
      <trkpt lat="45.89206" lon="4.68555">
        <ele>295.15817</ele>
        <time>2022-08-23T12:48:32.000Z</time>
      </trkpt>
      <trkpt lat="45.89208" lon="4.68555">
        <ele>295.18335</ele>
        <time>2022-08-23T12:48:35.000Z</time>
      </trkpt>
      <trkpt lat="45.8921" lon="4.68556">
        <ele>295.14642</ele>
        <time>2022-08-23T12:48:39.000Z</time>
      </trkpt>
      <trkpt lat="45.89207" lon="4.68554">
        <ele>295.09335</ele>
        <time>2022-08-23T12:48:48.000Z</time>
      </trkpt>
      <trkpt lat="45.89205" lon="4.68551">
        <ele>294.89105</ele>
        <time>2022-08-23T12:48:49.000Z</time>
      </trkpt>
      <trkpt lat="45.89203" lon="4.68548">
        <ele>294.57462</ele>
        <time>2022-08-23T12:48:50.000Z</time>
      </trkpt>
      <trkpt lat="45.89201" lon="4.68545">
        <ele>294.28693</ele>
        <time>2022-08-23T12:48:51.000Z</time>
      </trkpt>
      <trkpt lat="45.89199" lon="4.68543">
        <ele>293.94647</ele>
        <time>2022-08-23T12:48:52.000Z</time>
      </trkpt>
      <trkpt lat="45.89196" lon="4.68541">
        <ele>293.53305</ele>
        <time>2022-08-23T12:48:53.000Z</time>
      </trkpt>
      <trkpt lat="45.89193" lon="4.6854">
        <ele>293.07846</ele>
        <time>2022-08-23T12:48:54.000Z</time>
      </trkpt>
      <trkpt lat="45.89189" lon="4.6854">
        <ele>292.69525</ele>
        <time>2022-08-23T12:48:55.000Z</time>
      </trkpt>
      <trkpt lat="45.89185" lon="4.6854">
        <ele>292.29694</ele>
        <time>2022-08-23T12:48:56.000Z</time>
      </trkpt>
      <trkpt lat="45.89181" lon="4.68539">
        <ele>291.76736</ele>
        <time>2022-08-23T12:48:57.000Z</time>
      </trkpt>
      <trkpt lat="45.89177" lon="4.6854">
        <ele>291.19598</ele>
        <time>2022-08-23T12:48:58.000Z</time>
      </trkpt>
      <trkpt lat="45.89175" lon="4.68541">
        <ele>290.70139</ele>
        <time>2022-08-23T12:48:59.000Z</time>
      </trkpt>
      <trkpt lat="45.89172" lon="4.68543">
        <ele>290.2067</ele>
        <time>2022-08-23T12:49:00.000Z</time>
      </trkpt>
      <trkpt lat="45.89169" lon="4.68547">
        <ele>289.71259</ele>
        <time>2022-08-23T12:49:01.000Z</time>
      </trkpt>
      <trkpt lat="45.89166" lon="4.6855">
        <ele>289.15414</ele>
        <time>2022-08-23T12:49:02.000Z</time>
      </trkpt>
      <trkpt lat="45.89163" lon="4.68555">
        <ele>288.52032</ele>
        <time>2022-08-23T12:49:03.000Z</time>
      </trkpt>
      <trkpt lat="45.8916" lon="4.68559">
        <ele>287.8576</ele>
        <time>2022-08-23T12:49:04.000Z</time>
      </trkpt>
      <trkpt lat="45.89159" lon="4.68565">
        <ele>287.11188</ele>
        <time>2022-08-23T12:49:05.000Z</time>
      </trkpt>
      <trkpt lat="45.89158" lon="4.68575">
        <ele>286.40262</ele>
        <time>2022-08-23T12:49:06.000Z</time>
      </trkpt>
      <trkpt lat="45.89156" lon="4.68582">
        <ele>285.73868</ele>
        <time>2022-08-23T12:49:07.000Z</time>
      </trkpt>
      <trkpt lat="45.89153" lon="4.68589">
        <ele>285.07425</ele>
        <time>2022-08-23T12:49:08.000Z</time>
      </trkpt>
      <trkpt lat="45.89151" lon="4.68598">
        <ele>284.39029</ele>
        <time>2022-08-23T12:49:09.000Z</time>
      </trkpt>
      <trkpt lat="45.89148" lon="4.68609">
        <ele>283.54028</ele>
        <time>2022-08-23T12:49:10.000Z</time>
      </trkpt>
      <trkpt lat="45.89145" lon="4.68617">
        <ele>282.68555</ele>
        <time>2022-08-23T12:49:11.000Z</time>
      </trkpt>
      <trkpt lat="45.89143" lon="4.68625">
        <ele>281.87335</ele>
        <time>2022-08-23T12:49:12.000Z</time>
      </trkpt>
      <trkpt lat="45.89142" lon="4.68631">
        <ele>281.10748</ele>
        <time>2022-08-23T12:49:13.000Z</time>
      </trkpt>
      <trkpt lat="45.89141" lon="4.68637">
        <ele>280.33795</ele>
        <time>2022-08-23T12:49:14.000Z</time>
      </trkpt>
      <trkpt lat="45.8914" lon="4.68643">
        <ele>279.55157</ele>
        <time>2022-08-23T12:49:15.000Z</time>
      </trkpt>
      <trkpt lat="45.8914" lon="4.68651">
        <ele>278.90451</ele>
        <time>2022-08-23T12:49:16.000Z</time>
      </trkpt>
      <trkpt lat="45.89139" lon="4.68657">
        <ele>278.37466</ele>
        <time>2022-08-23T12:49:17.000Z</time>
      </trkpt>
      <trkpt lat="45.89139" lon="4.68662">
        <ele>277.9285</ele>
        <time>2022-08-23T12:49:18.000Z</time>
      </trkpt>
      <trkpt lat="45.89138" lon="4.6867">
        <ele>277.46744</ele>
        <time>2022-08-23T12:49:19.000Z</time>
      </trkpt>
      <trkpt lat="45.89139" lon="4.68675">
        <ele>277.01202</ele>
        <time>2022-08-23T12:49:20.000Z</time>
      </trkpt>
      <trkpt lat="45.89138" lon="4.6868">
        <ele>276.66415</ele>
        <time>2022-08-23T12:49:21.000Z</time>
      </trkpt>
      <trkpt lat="45.89138" lon="4.68685">
        <ele>276.46207</ele>
        <time>2022-08-23T12:49:22.000Z</time>
      </trkpt>
      <trkpt lat="45.89137" lon="4.68691">
        <ele>276.28073</ele>
        <time>2022-08-23T12:49:23.000Z</time>
      </trkpt>
      <trkpt lat="45.89138" lon="4.68696">
        <ele>276.18219</ele>
        <time>2022-08-23T12:49:24.000Z</time>
      </trkpt>
      <trkpt lat="45.89137" lon="4.687">
        <ele>276.21606</ele>
        <time>2022-08-23T12:49:25.000Z</time>
      </trkpt>
      <trkpt lat="45.89134" lon="4.68704">
        <ele>276.24664</ele>
        <time>2022-08-23T12:49:26.000Z</time>
      </trkpt>
      <trkpt lat="45.89133" lon="4.68709">
        <ele>276.29919</ele>
        <time>2022-08-23T12:49:27.000Z</time>
      </trkpt>
      <trkpt lat="45.89132" lon="4.68714">
        <ele>276.36926</ele>
        <time>2022-08-23T12:49:28.000Z</time>
      </trkpt>
      <trkpt lat="45.8913" lon="4.68719">
        <ele>276.57913</ele>
        <time>2022-08-23T12:49:29.000Z</time>
      </trkpt>
      <trkpt lat="45.89129" lon="4.68722">
        <ele>277.05743</ele>
        <time>2022-08-23T12:49:30.000Z</time>
      </trkpt>
      <trkpt lat="45.89127" lon="4.68725">
        <ele>277.5387</ele>
        <time>2022-08-23T12:49:31.000Z</time>
      </trkpt>
      <trkpt lat="45.89126" lon="4.68728">
        <ele>278.06659</ele>
        <time>2022-08-23T12:49:32.000Z</time>
      </trkpt>
      <trkpt lat="45.89124" lon="4.68731">
        <ele>278.54675</ele>
        <time>2022-08-23T12:49:33.000Z</time>
      </trkpt>
      <trkpt lat="45.89122" lon="4.68734">
        <ele>279.00623</ele>
        <time>2022-08-23T12:49:34.000Z</time>
      </trkpt>
      <trkpt lat="45.89119" lon="4.68736">
        <ele>279.44366</ele>
        <time>2022-08-23T12:49:35.000Z</time>
      </trkpt>
      <trkpt lat="45.89116" lon="4.68737">
        <ele>279.73172</ele>
        <time>2022-08-23T12:49:36.000Z</time>
      </trkpt>
      <trkpt lat="45.89112" lon="4.68737">
        <ele>280.02792</ele>
        <time>2022-08-23T12:49:37.000Z</time>
      </trkpt>
      <trkpt lat="45.89109" lon="4.68737">
        <ele>280.23755</ele>
        <time>2022-08-23T12:49:38.000Z</time>
      </trkpt>
      <trkpt lat="45.89105" lon="4.68736">
        <ele>280.45935</ele>
        <time>2022-08-23T12:49:39.000Z</time>
      </trkpt>
      <trkpt lat="45.89102" lon="4.68736">
        <ele>280.74509</ele>
        <time>2022-08-23T12:49:40.000Z</time>
      </trkpt>
      <trkpt lat="45.89098" lon="4.68735">
        <ele>280.9621</ele>
        <time>2022-08-23T12:49:41.000Z</time>
      </trkpt>
      <trkpt lat="45.89096" lon="4.68734">
        <ele>281.07013</ele>
        <time>2022-08-23T12:49:42.000Z</time>
      </trkpt>
      <trkpt lat="45.89093" lon="4.68732">
        <ele>281.14523</ele>
        <time>2022-08-23T12:49:43.000Z</time>
      </trkpt>
      <trkpt lat="45.89091" lon="4.6873">
        <ele>281.21811</ele>
        <time>2022-08-23T12:49:44.000Z</time>
      </trkpt>
      <trkpt lat="45.89088" lon="4.68729">
        <ele>281.37564</ele>
        <time>2022-08-23T12:49:45.000Z</time>
      </trkpt>
      <trkpt lat="45.89085" lon="4.68729">
        <ele>281.72357</ele>
        <time>2022-08-23T12:49:46.000Z</time>
      </trkpt>
      <trkpt lat="45.89081" lon="4.68728">
        <ele>281.97946</ele>
        <time>2022-08-23T12:49:47.000Z</time>
      </trkpt>
      <trkpt lat="45.89078" lon="4.68726">
        <ele>282.25891</ele>
        <time>2022-08-23T12:49:48.000Z</time>
      </trkpt>
      <trkpt lat="45.89074" lon="4.68724">
        <ele>282.54596</ele>
        <time>2022-08-23T12:49:49.000Z</time>
      </trkpt>
      <trkpt lat="45.89072" lon="4.68723">
        <ele>282.79926</ele>
        <time>2022-08-23T12:49:50.000Z</time>
      </trkpt>
      <trkpt lat="45.89068" lon="4.68723">
        <ele>283.07184</ele>
        <time>2022-08-23T12:49:51.000Z</time>
      </trkpt>
      <trkpt lat="45.89064" lon="4.68724">
        <ele>283.31598</ele>
        <time>2022-08-23T12:49:52.000Z</time>
      </trkpt>
      <trkpt lat="45.89061" lon="4.68725">
        <ele>283.54279</ele>
        <time>2022-08-23T12:49:53.000Z</time>
      </trkpt>
      <trkpt lat="45.89058" lon="4.68726">
        <ele>283.73813</ele>
        <time>2022-08-23T12:49:54.000Z</time>
      </trkpt>
      <trkpt lat="45.89055" lon="4.68728">
        <ele>283.9462</ele>
        <time>2022-08-23T12:49:55.000Z</time>
      </trkpt>
      <trkpt lat="45.89052" lon="4.68729">
        <ele>284.1319</ele>
        <time>2022-08-23T12:49:56.000Z</time>
      </trkpt>
      <trkpt lat="45.89049" lon="4.68731">
        <ele>284.24271</ele>
        <time>2022-08-23T12:49:57.000Z</time>
      </trkpt>
      <trkpt lat="45.89047" lon="4.68733">
        <ele>284.40195</ele>
        <time>2022-08-23T12:49:58.000Z</time>
      </trkpt>
      <trkpt lat="45.89044" lon="4.68735">
        <ele>284.55182</ele>
        <time>2022-08-23T12:49:59.000Z</time>
      </trkpt>
      <trkpt lat="45.89042" lon="4.68737">
        <ele>284.68341</ele>
        <time>2022-08-23T12:50:00.000Z</time>
      </trkpt>
      <trkpt lat="45.89039" lon="4.68739">
        <ele>284.79172</ele>
        <time>2022-08-23T12:50:01.000Z</time>
      </trkpt>
      <trkpt lat="45.89035" lon="4.68742">
        <ele>284.89819</ele>
        <time>2022-08-23T12:50:02.000Z</time>
      </trkpt>
      <trkpt lat="45.89032" lon="4.68746">
        <ele>285.01978</ele>
        <time>2022-08-23T12:50:03.000Z</time>
      </trkpt>
      <trkpt lat="45.89029" lon="4.6875">
        <ele>285.15338</ele>
        <time>2022-08-23T12:50:04.000Z</time>
      </trkpt>
      <trkpt lat="45.89026" lon="4.68753">
        <ele>285.28546</ele>
        <time>2022-08-23T12:50:05.000Z</time>
      </trkpt>
      <trkpt lat="45.89022" lon="4.68756">
        <ele>285.13019</ele>
        <time>2022-08-23T12:50:06.000Z</time>
      </trkpt>
      <trkpt lat="45.89019" lon="4.6876">
        <ele>284.98785</ele>
        <time>2022-08-23T12:50:07.000Z</time>
      </trkpt>
      <trkpt lat="45.89015" lon="4.68764">
        <ele>284.80414</ele>
        <time>2022-08-23T12:50:08.000Z</time>
      </trkpt>
      <trkpt lat="45.89011" lon="4.68769">
        <ele>284.68445</ele>
        <time>2022-08-23T12:50:09.000Z</time>
      </trkpt>
      <trkpt lat="45.89008" lon="4.6877">
        <ele>284.56439</ele>
        <time>2022-08-23T12:50:10.000Z</time>
      </trkpt>
      <trkpt lat="45.89003" lon="4.68774">
        <ele>284.47363</ele>
        <time>2022-08-23T12:50:11.000Z</time>
      </trkpt>
      <trkpt lat="45.88999" lon="4.68776">
        <ele>284.42761</ele>
        <time>2022-08-23T12:50:12.000Z</time>
      </trkpt>
      <trkpt lat="45.88997" lon="4.68782">
        <ele>284.3569</ele>
        <time>2022-08-23T12:50:13.000Z</time>
      </trkpt>
      <trkpt lat="45.88994" lon="4.68785">
        <ele>284.3909</ele>
        <time>2022-08-23T12:50:14.000Z</time>
      </trkpt>
      <trkpt lat="45.88991" lon="4.68787">
        <ele>284.44815</ele>
        <time>2022-08-23T12:50:15.000Z</time>
      </trkpt>
      <trkpt lat="45.88987" lon="4.6879">
        <ele>284.44754</ele>
        <time>2022-08-23T12:50:16.000Z</time>
      </trkpt>
      <trkpt lat="45.88983" lon="4.68794">
        <ele>284.49881</ele>
        <time>2022-08-23T12:50:17.000Z</time>
      </trkpt>
      <trkpt lat="45.8898" lon="4.68798">
        <ele>284.49884</ele>
        <time>2022-08-23T12:50:18.000Z</time>
      </trkpt>
      <trkpt lat="45.88978" lon="4.688">
        <ele>284.55414</ele>
        <time>2022-08-23T12:50:19.000Z</time>
      </trkpt>
      <trkpt lat="45.88976" lon="4.68802">
        <ele>284.66071</ele>
        <time>2022-08-23T12:50:20.000Z</time>
      </trkpt>
      <trkpt lat="45.88973" lon="4.68803">
        <ele>284.85461</ele>
        <time>2022-08-23T12:50:21.000Z</time>
      </trkpt>
      <trkpt lat="45.88971" lon="4.68801">
        <ele>285.10242</ele>
        <time>2022-08-23T12:50:22.000Z</time>
      </trkpt>
      <trkpt lat="45.88968" lon="4.68798">
        <ele>285.30334</ele>
        <time>2022-08-23T12:50:24.000Z</time>
      </trkpt>
      <trkpt lat="45.88967" lon="4.68796">
        <ele>285.45062</ele>
        <time>2022-08-23T12:50:25.000Z</time>
      </trkpt>
      <trkpt lat="45.88965" lon="4.68795">
        <ele>285.54016</ele>
        <time>2022-08-23T12:50:26.000Z</time>
      </trkpt>
      <trkpt lat="45.88963" lon="4.68792">
        <ele>285.71408</ele>
        <time>2022-08-23T12:50:27.000Z</time>
      </trkpt>
      <trkpt lat="45.88961" lon="4.68789">
        <ele>285.90518</ele>
        <time>2022-08-23T12:50:28.000Z</time>
      </trkpt>
      <trkpt lat="45.88959" lon="4.68786">
        <ele>286.11487</ele>
        <time>2022-08-23T12:50:29.000Z</time>
      </trkpt>
      <trkpt lat="45.88956" lon="4.68783">
        <ele>286.25201</ele>
        <time>2022-08-23T12:50:30.000Z</time>
      </trkpt>
      <trkpt lat="45.88955" lon="4.68779">
        <ele>286.41962</ele>
        <time>2022-08-23T12:50:31.000Z</time>
      </trkpt>
      <trkpt lat="45.88953" lon="4.68776">
        <ele>286.54901</ele>
        <time>2022-08-23T12:50:32.000Z</time>
      </trkpt>
      <trkpt lat="45.88952" lon="4.68772">
        <ele>286.63663</ele>
        <time>2022-08-23T12:50:33.000Z</time>
      </trkpt>
      <trkpt lat="45.88951" lon="4.68767">
        <ele>286.7645</ele>
        <time>2022-08-23T12:50:34.000Z</time>
      </trkpt>
      <trkpt lat="45.8895" lon="4.68763">
        <ele>286.82999</ele>
        <time>2022-08-23T12:50:35.000Z</time>
      </trkpt>
      <trkpt lat="45.88949" lon="4.68759">
        <ele>286.80713</ele>
        <time>2022-08-23T12:50:36.000Z</time>
      </trkpt>
      <trkpt lat="45.88948" lon="4.68755">
        <ele>286.87036</ele>
        <time>2022-08-23T12:50:37.000Z</time>
      </trkpt>
      <trkpt lat="45.88947" lon="4.6875">
        <ele>286.92474</ele>
        <time>2022-08-23T12:50:38.000Z</time>
      </trkpt>
      <trkpt lat="45.88945" lon="4.68745">
        <ele>287.0076</ele>
        <time>2022-08-23T12:50:39.000Z</time>
      </trkpt>
      <trkpt lat="45.88943" lon="4.6874">
        <ele>287.01385</ele>
        <time>2022-08-23T12:50:40.000Z</time>
      </trkpt>
      <trkpt lat="45.88941" lon="4.68735">
        <ele>286.96436</ele>
        <time>2022-08-23T12:50:41.000Z</time>
      </trkpt>
      <trkpt lat="45.88939" lon="4.68731">
        <ele>286.80844</ele>
        <time>2022-08-23T12:50:42.000Z</time>
      </trkpt>
      <trkpt lat="45.88938" lon="4.68726">
        <ele>286.60287</ele>
        <time>2022-08-23T12:50:43.000Z</time>
      </trkpt>
      <trkpt lat="45.88936" lon="4.68722">
        <ele>286.52545</ele>
        <time>2022-08-23T12:50:44.000Z</time>
      </trkpt>
      <trkpt lat="45.88935" lon="4.68718">
        <ele>286.53485</ele>
        <time>2022-08-23T12:50:45.000Z</time>
      </trkpt>
      <trkpt lat="45.88933" lon="4.68715">
        <ele>286.5397</ele>
        <time>2022-08-23T12:50:46.000Z</time>
      </trkpt>
      <trkpt lat="45.88931" lon="4.68711">
        <ele>286.56461</ele>
        <time>2022-08-23T12:50:47.000Z</time>
      </trkpt>
      <trkpt lat="45.8893" lon="4.68707">
        <ele>286.59662</ele>
        <time>2022-08-23T12:50:48.000Z</time>
      </trkpt>
      <trkpt lat="45.88928" lon="4.68703">
        <ele>286.60748</ele>
        <time>2022-08-23T12:50:49.000Z</time>
      </trkpt>
      <trkpt lat="45.88926" lon="4.687">
        <ele>286.65414</ele>
        <time>2022-08-23T12:50:50.000Z</time>
      </trkpt>
      <trkpt lat="45.88924" lon="4.68697">
        <ele>286.69415</ele>
        <time>2022-08-23T12:50:51.000Z</time>
      </trkpt>
      <trkpt lat="45.88922" lon="4.68694">
        <ele>286.71252</ele>
        <time>2022-08-23T12:50:52.000Z</time>
      </trkpt>
      <trkpt lat="45.8892" lon="4.68691">
        <ele>286.75336</ele>
        <time>2022-08-23T12:50:53.000Z</time>
      </trkpt>
      <trkpt lat="45.88919" lon="4.68688">
        <ele>286.77515</ele>
        <time>2022-08-23T12:50:54.000Z</time>
      </trkpt>
      <trkpt lat="45.88917" lon="4.68686">
        <ele>286.84622</ele>
        <time>2022-08-23T12:50:55.000Z</time>
      </trkpt>
      <trkpt lat="45.88916" lon="4.68683">
        <ele>286.95035</ele>
        <time>2022-08-23T12:50:56.000Z</time>
      </trkpt>
      <trkpt lat="45.88914" lon="4.6868">
        <ele>287.01288</ele>
        <time>2022-08-23T12:50:57.000Z</time>
      </trkpt>
      <trkpt lat="45.88912" lon="4.68678">
        <ele>287.03131</ele>
        <time>2022-08-23T12:50:58.000Z</time>
      </trkpt>
      <trkpt lat="45.88911" lon="4.68675">
        <ele>287.06131</ele>
        <time>2022-08-23T12:50:59.000Z</time>
      </trkpt>
      <trkpt lat="45.88909" lon="4.68671">
        <ele>287.12042</ele>
        <time>2022-08-23T12:51:00.000Z</time>
      </trkpt>
      <trkpt lat="45.88907" lon="4.68668">
        <ele>287.2283</ele>
        <time>2022-08-23T12:51:01.000Z</time>
      </trkpt>
      <trkpt lat="45.88906" lon="4.68665">
        <ele>287.44171</ele>
        <time>2022-08-23T12:51:02.000Z</time>
      </trkpt>
      <trkpt lat="45.88904" lon="4.68663">
        <ele>287.65118</ele>
        <time>2022-08-23T12:51:03.000Z</time>
      </trkpt>
      <trkpt lat="45.88903" lon="4.6866">
        <ele>287.82855</ele>
        <time>2022-08-23T12:51:04.000Z</time>
      </trkpt>
      <trkpt lat="45.88901" lon="4.68657">
        <ele>287.95547</ele>
        <time>2022-08-23T12:51:05.000Z</time>
      </trkpt>
      <trkpt lat="45.88899" lon="4.68654">
        <ele>288.04568</ele>
        <time>2022-08-23T12:51:06.000Z</time>
      </trkpt>
      <trkpt lat="45.88897" lon="4.68651">
        <ele>288.12247</ele>
        <time>2022-08-23T12:51:07.000Z</time>
      </trkpt>
      <trkpt lat="45.88895" lon="4.68648">
        <ele>288.20331</ele>
        <time>2022-08-23T12:51:08.000Z</time>
      </trkpt>
      <trkpt lat="45.88894" lon="4.68645">
        <ele>288.31345</ele>
        <time>2022-08-23T12:51:09.000Z</time>
      </trkpt>
      <trkpt lat="45.88892" lon="4.68642">
        <ele>288.43375</ele>
        <time>2022-08-23T12:51:10.000Z</time>
      </trkpt>
      <trkpt lat="45.8889" lon="4.68639">
        <ele>288.60526</ele>
        <time>2022-08-23T12:51:11.000Z</time>
      </trkpt>
      <trkpt lat="45.88889" lon="4.68637">
        <ele>288.79144</ele>
        <time>2022-08-23T12:51:12.000Z</time>
      </trkpt>
      <trkpt lat="45.88887" lon="4.68635">
        <ele>288.96494</ele>
        <time>2022-08-23T12:51:13.000Z</time>
      </trkpt>
      <trkpt lat="45.88885" lon="4.68632">
        <ele>289.12445</ele>
        <time>2022-08-23T12:51:14.000Z</time>
      </trkpt>
      <trkpt lat="45.88883" lon="4.6863">
        <ele>289.24445</ele>
        <time>2022-08-23T12:51:15.000Z</time>
      </trkpt>
      <trkpt lat="45.88881" lon="4.68629">
        <ele>289.3775</ele>
        <time>2022-08-23T12:51:16.000Z</time>
      </trkpt>
      <trkpt lat="45.88878" lon="4.68629">
        <ele>289.57648</ele>
        <time>2022-08-23T12:51:17.000Z</time>
      </trkpt>
      <trkpt lat="45.88876" lon="4.68631">
        <ele>289.8465</ele>
        <time>2022-08-23T12:51:18.000Z</time>
      </trkpt>
      <trkpt lat="45.88874" lon="4.68634">
        <ele>290.09146</ele>
        <time>2022-08-23T12:51:19.000Z</time>
      </trkpt>
      <trkpt lat="45.88871" lon="4.68636">
        <ele>290.3338</ele>
        <time>2022-08-23T12:51:20.000Z</time>
      </trkpt>
      <trkpt lat="45.88868" lon="4.68639">
        <ele>290.5119</ele>
        <time>2022-08-23T12:51:21.000Z</time>
      </trkpt>
      <trkpt lat="45.88865" lon="4.68642">
        <ele>290.58417</ele>
        <time>2022-08-23T12:51:22.000Z</time>
      </trkpt>
      <trkpt lat="45.88862" lon="4.68645">
        <ele>290.6626</ele>
        <time>2022-08-23T12:51:23.000Z</time>
      </trkpt>
      <trkpt lat="45.88858" lon="4.68648">
        <ele>290.67618</ele>
        <time>2022-08-23T12:51:24.000Z</time>
      </trkpt>
      <trkpt lat="45.88855" lon="4.68651">
        <ele>290.7666</ele>
        <time>2022-08-23T12:51:25.000Z</time>
      </trkpt>
      <trkpt lat="45.88851" lon="4.68653">
        <ele>290.92767</ele>
        <time>2022-08-23T12:51:26.000Z</time>
      </trkpt>
      <trkpt lat="45.88848" lon="4.68656">
        <ele>291.12552</ele>
        <time>2022-08-23T12:51:27.000Z</time>
      </trkpt>
      <trkpt lat="45.88845" lon="4.68658">
        <ele>291.31799</ele>
        <time>2022-08-23T12:51:28.000Z</time>
      </trkpt>
      <trkpt lat="45.88841" lon="4.68659">
        <ele>291.47571</ele>
        <time>2022-08-23T12:51:29.000Z</time>
      </trkpt>
      <trkpt lat="45.88837" lon="4.6866">
        <ele>291.63159</ele>
        <time>2022-08-23T12:51:30.000Z</time>
      </trkpt>
      <trkpt lat="45.88833" lon="4.68661">
        <ele>291.70874</ele>
        <time>2022-08-23T12:51:31.000Z</time>
      </trkpt>
      <trkpt lat="45.88829" lon="4.68661">
        <ele>291.7756</ele>
        <time>2022-08-23T12:51:32.000Z</time>
      </trkpt>
      <trkpt lat="45.88825" lon="4.68661">
        <ele>291.85681</ele>
        <time>2022-08-23T12:51:33.000Z</time>
      </trkpt>
      <trkpt lat="45.88821" lon="4.68662">
        <ele>291.93729</ele>
        <time>2022-08-23T12:51:34.000Z</time>
      </trkpt>
      <trkpt lat="45.88817" lon="4.68662">
        <ele>292.02829</ele>
        <time>2022-08-23T12:51:35.000Z</time>
      </trkpt>
      <trkpt lat="45.88813" lon="4.68663">
        <ele>292.00153</ele>
        <time>2022-08-23T12:51:36.000Z</time>
      </trkpt>
      <trkpt lat="45.88809" lon="4.68664">
        <ele>291.96683</ele>
        <time>2022-08-23T12:51:37.000Z</time>
      </trkpt>
      <trkpt lat="45.88806" lon="4.68666">
        <ele>291.91183</ele>
        <time>2022-08-23T12:51:38.000Z</time>
      </trkpt>
      <trkpt lat="45.88802" lon="4.68667">
        <ele>291.82498</ele>
        <time>2022-08-23T12:51:39.000Z</time>
      </trkpt>
      <trkpt lat="45.88799" lon="4.68669">
        <ele>291.68622</ele>
        <time>2022-08-23T12:51:40.000Z</time>
      </trkpt>
      <trkpt lat="45.88795" lon="4.68671">
        <ele>291.58691</ele>
        <time>2022-08-23T12:51:41.000Z</time>
      </trkpt>
      <trkpt lat="45.88792" lon="4.68673">
        <ele>291.50531</ele>
        <time>2022-08-23T12:51:42.000Z</time>
      </trkpt>
      <trkpt lat="45.88788" lon="4.68675">
        <ele>291.38666</ele>
        <time>2022-08-23T12:51:43.000Z</time>
      </trkpt>
      <trkpt lat="45.88784" lon="4.68676">
        <ele>291.31622</ele>
        <time>2022-08-23T12:51:44.000Z</time>
      </trkpt>
      <trkpt lat="45.88781" lon="4.68678">
        <ele>291.10165</ele>
        <time>2022-08-23T12:51:45.000Z</time>
      </trkpt>
      <trkpt lat="45.88777" lon="4.6868">
        <ele>290.90079</ele>
        <time>2022-08-23T12:51:46.000Z</time>
      </trkpt>
      <trkpt lat="45.88774" lon="4.68683">
        <ele>290.68365</ele>
        <time>2022-08-23T12:51:47.000Z</time>
      </trkpt>
      <trkpt lat="45.8877" lon="4.68685">
        <ele>290.50922</ele>
        <time>2022-08-23T12:51:48.000Z</time>
      </trkpt>
      <trkpt lat="45.88767" lon="4.68687">
        <ele>290.34479</ele>
        <time>2022-08-23T12:51:49.000Z</time>
      </trkpt>
      <trkpt lat="45.88763" lon="4.68689">
        <ele>290.10751</ele>
        <time>2022-08-23T12:51:50.000Z</time>
      </trkpt>
      <trkpt lat="45.8876" lon="4.6869">
        <ele>289.88431</ele>
        <time>2022-08-23T12:51:51.000Z</time>
      </trkpt>
      <trkpt lat="45.88756" lon="4.68692">
        <ele>289.68304</ele>
        <time>2022-08-23T12:51:52.000Z</time>
      </trkpt>
      <trkpt lat="45.88753" lon="4.68695">
        <ele>289.38385</ele>
        <time>2022-08-23T12:51:53.000Z</time>
      </trkpt>
      <trkpt lat="45.88749" lon="4.68697">
        <ele>289.06085</ele>
        <time>2022-08-23T12:51:54.000Z</time>
      </trkpt>
      <trkpt lat="45.88746" lon="4.68699">
        <ele>288.73773</ele>
        <time>2022-08-23T12:51:55.000Z</time>
      </trkpt>
      <trkpt lat="45.88743" lon="4.687">
        <ele>288.54709</ele>
        <time>2022-08-23T12:51:56.000Z</time>
      </trkpt>
      <trkpt lat="45.88739" lon="4.68701">
        <ele>288.36127</ele>
        <time>2022-08-23T12:51:57.000Z</time>
      </trkpt>
      <trkpt lat="45.88735" lon="4.68702">
        <ele>288.14136</ele>
        <time>2022-08-23T12:51:58.000Z</time>
      </trkpt>
      <trkpt lat="45.88731" lon="4.68704">
        <ele>287.95703</ele>
        <time>2022-08-23T12:51:59.000Z</time>
      </trkpt>
      <trkpt lat="45.88728" lon="4.68706">
        <ele>287.86578</ele>
        <time>2022-08-23T12:52:00.000Z</time>
      </trkpt>
      <trkpt lat="45.88724" lon="4.68708">
        <ele>287.70459</ele>
        <time>2022-08-23T12:52:01.000Z</time>
      </trkpt>
      <trkpt lat="45.8872" lon="4.6871">
        <ele>287.55426</ele>
        <time>2022-08-23T12:52:02.000Z</time>
      </trkpt>
      <trkpt lat="45.88716" lon="4.68713">
        <ele>287.45026</ele>
        <time>2022-08-23T12:52:03.000Z</time>
      </trkpt>
      <trkpt lat="45.88713" lon="4.68715">
        <ele>287.36993</ele>
        <time>2022-08-23T12:52:04.000Z</time>
      </trkpt>
      <trkpt lat="45.88709" lon="4.68718">
        <ele>287.36703</ele>
        <time>2022-08-23T12:52:05.000Z</time>
      </trkpt>
      <trkpt lat="45.88706" lon="4.6872">
        <ele>287.31226</ele>
        <time>2022-08-23T12:52:06.000Z</time>
      </trkpt>
      <trkpt lat="45.88702" lon="4.68722">
        <ele>287.24387</ele>
        <time>2022-08-23T12:52:07.000Z</time>
      </trkpt>
      <trkpt lat="45.88698" lon="4.68724">
        <ele>287.14484</ele>
        <time>2022-08-23T12:52:08.000Z</time>
      </trkpt>
      <trkpt lat="45.88694" lon="4.68726">
        <ele>287.00436</ele>
        <time>2022-08-23T12:52:09.000Z</time>
      </trkpt>
      <trkpt lat="45.88691" lon="4.68728">
        <ele>286.90753</ele>
        <time>2022-08-23T12:52:10.000Z</time>
      </trkpt>
      <trkpt lat="45.88687" lon="4.68731">
        <ele>286.82248</ele>
        <time>2022-08-23T12:52:11.000Z</time>
      </trkpt>
      <trkpt lat="45.88683" lon="4.68733">
        <ele>286.66034</ele>
        <time>2022-08-23T12:52:12.000Z</time>
      </trkpt>
      <trkpt lat="45.8868" lon="4.68735">
        <ele>286.60397</ele>
        <time>2022-08-23T12:52:13.000Z</time>
      </trkpt>
      <trkpt lat="45.88676" lon="4.68737">
        <ele>286.56036</ele>
        <time>2022-08-23T12:52:14.000Z</time>
      </trkpt>
      <trkpt lat="45.88672" lon="4.68739">
        <ele>286.53384</ele>
        <time>2022-08-23T12:52:15.000Z</time>
      </trkpt>
      <trkpt lat="45.88669" lon="4.68741">
        <ele>286.52896</ele>
        <time>2022-08-23T12:52:16.000Z</time>
      </trkpt>
      <trkpt lat="45.88665" lon="4.68743">
        <ele>286.58511</ele>
        <time>2022-08-23T12:52:17.000Z</time>
      </trkpt>
      <trkpt lat="45.88661" lon="4.68746">
        <ele>286.64136</ele>
        <time>2022-08-23T12:52:18.000Z</time>
      </trkpt>
      <trkpt lat="45.88658" lon="4.68747">
        <ele>286.75928</ele>
        <time>2022-08-23T12:52:19.000Z</time>
      </trkpt>
      <trkpt lat="45.88655" lon="4.6875">
        <ele>286.70435</ele>
        <time>2022-08-23T12:52:20.000Z</time>
      </trkpt>
      <trkpt lat="45.88652" lon="4.68753">
        <ele>286.685</ele>
        <time>2022-08-23T12:52:21.000Z</time>
      </trkpt>
      <trkpt lat="45.88649" lon="4.68755">
        <ele>286.69891</ele>
        <time>2022-08-23T12:52:22.000Z</time>
      </trkpt>
      <trkpt lat="45.88646" lon="4.68758">
        <ele>286.75659</ele>
        <time>2022-08-23T12:52:23.000Z</time>
      </trkpt>
      <trkpt lat="45.88643" lon="4.6876">
        <ele>286.69919</ele>
        <time>2022-08-23T12:52:24.000Z</time>
      </trkpt>
      <trkpt lat="45.8864" lon="4.68763">
        <ele>286.60345</ele>
        <time>2022-08-23T12:52:25.000Z</time>
      </trkpt>
      <trkpt lat="45.88637" lon="4.68765">
        <ele>286.54858</ele>
        <time>2022-08-23T12:52:26.000Z</time>
      </trkpt>
      <trkpt lat="45.88633" lon="4.68767">
        <ele>286.47479</ele>
        <time>2022-08-23T12:52:27.000Z</time>
      </trkpt>
      <trkpt lat="45.88629" lon="4.68769">
        <ele>286.42133</ele>
        <time>2022-08-23T12:52:28.000Z</time>
      </trkpt>
      <trkpt lat="45.88626" lon="4.68771">
        <ele>286.49408</ele>
        <time>2022-08-23T12:52:29.000Z</time>
      </trkpt>
      <trkpt lat="45.88622" lon="4.68772">
        <ele>286.59863</ele>
        <time>2022-08-23T12:52:30.000Z</time>
      </trkpt>
      <trkpt lat="45.88618" lon="4.68773">
        <ele>286.69516</ele>
        <time>2022-08-23T12:52:31.000Z</time>
      </trkpt>
      <trkpt lat="45.88614" lon="4.68774">
        <ele>286.80063</ele>
        <time>2022-08-23T12:52:32.000Z</time>
      </trkpt>
      <trkpt lat="45.8861" lon="4.68775">
        <ele>286.88849</ele>
        <time>2022-08-23T12:52:33.000Z</time>
      </trkpt>
      <trkpt lat="45.88607" lon="4.68775">
        <ele>287.07281</ele>
        <time>2022-08-23T12:52:34.000Z</time>
      </trkpt>
      <trkpt lat="45.88604" lon="4.68776">
        <ele>287.30911</ele>
        <time>2022-08-23T12:52:35.000Z</time>
      </trkpt>
      <trkpt lat="45.886" lon="4.68776">
        <ele>287.58136</ele>
        <time>2022-08-23T12:52:36.000Z</time>
      </trkpt>
      <trkpt lat="45.88597" lon="4.68777">
        <ele>287.76862</ele>
        <time>2022-08-23T12:52:37.000Z</time>
      </trkpt>
      <trkpt lat="45.88594" lon="4.68778">
        <ele>287.97775</ele>
        <time>2022-08-23T12:52:38.000Z</time>
      </trkpt>
      <trkpt lat="45.88591" lon="4.68779">
        <ele>288.1759</ele>
        <time>2022-08-23T12:52:39.000Z</time>
      </trkpt>
      <trkpt lat="45.88588" lon="4.6878">
        <ele>288.51428</ele>
        <time>2022-08-23T12:52:40.000Z</time>
      </trkpt>
      <trkpt lat="45.88585" lon="4.68781">
        <ele>288.81625</ele>
        <time>2022-08-23T12:52:41.000Z</time>
      </trkpt>
      <trkpt lat="45.88582" lon="4.68781">
        <ele>289.10403</ele>
        <time>2022-08-23T12:52:42.000Z</time>
      </trkpt>
      <trkpt lat="45.88579" lon="4.68781">
        <ele>289.38409</ele>
        <time>2022-08-23T12:52:43.000Z</time>
      </trkpt>
      <trkpt lat="45.88576" lon="4.68782">
        <ele>289.77191</ele>
        <time>2022-08-23T12:52:44.000Z</time>
      </trkpt>
      <trkpt lat="45.88573" lon="4.68782">
        <ele>290.19293</ele>
        <time>2022-08-23T12:52:45.000Z</time>
      </trkpt>
      <trkpt lat="45.88569" lon="4.68783">
        <ele>290.5437</ele>
        <time>2022-08-23T12:52:46.000Z</time>
      </trkpt>
      <trkpt lat="45.88566" lon="4.68784">
        <ele>290.86859</ele>
        <time>2022-08-23T12:52:47.000Z</time>
      </trkpt>
      <trkpt lat="45.88563" lon="4.68785">
        <ele>291.1286</ele>
        <time>2022-08-23T12:52:48.000Z</time>
      </trkpt>
      <trkpt lat="45.8856" lon="4.68786">
        <ele>291.31052</ele>
        <time>2022-08-23T12:52:49.000Z</time>
      </trkpt>
      <trkpt lat="45.88557" lon="4.68787">
        <ele>291.58594</ele>
        <time>2022-08-23T12:52:50.000Z</time>
      </trkpt>
      <trkpt lat="45.88554" lon="4.68788">
        <ele>291.8699</ele>
        <time>2022-08-23T12:52:51.000Z</time>
      </trkpt>
      <trkpt lat="45.88551" lon="4.68789">
        <ele>292.16074</ele>
        <time>2022-08-23T12:52:52.000Z</time>
      </trkpt>
      <trkpt lat="45.88547" lon="4.6879">
        <ele>292.46841</ele>
        <time>2022-08-23T12:52:53.000Z</time>
      </trkpt>
      <trkpt lat="45.88543" lon="4.68791">
        <ele>292.67023</ele>
        <time>2022-08-23T12:52:54.000Z</time>
      </trkpt>
      <trkpt lat="45.8854" lon="4.68792">
        <ele>292.78864</ele>
        <time>2022-08-23T12:52:55.000Z</time>
      </trkpt>
      <trkpt lat="45.88537" lon="4.68792">
        <ele>292.89096</ele>
        <time>2022-08-23T12:52:56.000Z</time>
      </trkpt>
      <trkpt lat="45.88533" lon="4.68793">
        <ele>293.12701</ele>
        <time>2022-08-23T12:52:57.000Z</time>
      </trkpt>
      <trkpt lat="45.8853" lon="4.68793">
        <ele>293.36932</ele>
        <time>2022-08-23T12:52:58.000Z</time>
      </trkpt>
      <trkpt lat="45.88526" lon="4.68793">
        <ele>293.56339</ele>
        <time>2022-08-23T12:52:59.000Z</time>
      </trkpt>
      <trkpt lat="45.88523" lon="4.68794">
        <ele>293.70538</ele>
        <time>2022-08-23T12:53:00.000Z</time>
      </trkpt>
      <trkpt lat="45.8852" lon="4.68795">
        <ele>293.91156</ele>
        <time>2022-08-23T12:53:01.000Z</time>
      </trkpt>
      <trkpt lat="45.88516" lon="4.68796">
        <ele>294.12738</ele>
        <time>2022-08-23T12:53:02.000Z</time>
      </trkpt>
      <trkpt lat="45.88513" lon="4.68797">
        <ele>294.29242</ele>
        <time>2022-08-23T12:53:03.000Z</time>
      </trkpt>
      <trkpt lat="45.8851" lon="4.68798">
        <ele>294.42084</ele>
        <time>2022-08-23T12:53:04.000Z</time>
      </trkpt>
      <trkpt lat="45.88506" lon="4.68799">
        <ele>294.53107</ele>
        <time>2022-08-23T12:53:05.000Z</time>
      </trkpt>
      <trkpt lat="45.88503" lon="4.688">
        <ele>294.71936</ele>
        <time>2022-08-23T12:53:06.000Z</time>
      </trkpt>
      <trkpt lat="45.88499" lon="4.68801">
        <ele>294.97064</ele>
        <time>2022-08-23T12:53:07.000Z</time>
      </trkpt>
      <trkpt lat="45.88495" lon="4.68802">
        <ele>295.28241</ele>
        <time>2022-08-23T12:53:08.000Z</time>
      </trkpt>
      <trkpt lat="45.88492" lon="4.68803">
        <ele>295.64203</ele>
        <time>2022-08-23T12:53:09.000Z</time>
      </trkpt>
      <trkpt lat="45.88488" lon="4.68804">
        <ele>295.86075</ele>
        <time>2022-08-23T12:53:10.000Z</time>
      </trkpt>
      <trkpt lat="45.88484" lon="4.68805">
        <ele>296.01819</ele>
        <time>2022-08-23T12:53:11.000Z</time>
      </trkpt>
      <trkpt lat="45.8848" lon="4.68805">
        <ele>296.19098</ele>
        <time>2022-08-23T12:53:12.000Z</time>
      </trkpt>
      <trkpt lat="45.88477" lon="4.68806">
        <ele>296.27841</ele>
        <time>2022-08-23T12:53:13.000Z</time>
      </trkpt>
      <trkpt lat="45.88474" lon="4.68808">
        <ele>296.41071</ele>
        <time>2022-08-23T12:53:14.000Z</time>
      </trkpt>
      <trkpt lat="45.88472" lon="4.68809">
        <ele>296.46381</ele>
        <time>2022-08-23T12:53:15.000Z</time>
      </trkpt>
      <trkpt lat="45.8847" lon="4.6881">
        <ele>296.47479</ele>
        <time>2022-08-23T12:53:16.000Z</time>
      </trkpt>
      <trkpt lat="45.88468" lon="4.68811">
        <ele>296.29889</ele>
        <time>2022-08-23T12:53:17.000Z</time>
      </trkpt>
      <trkpt lat="45.88466" lon="4.68813">
        <ele>296.01114</ele>
        <time>2022-08-23T12:53:18.000Z</time>
      </trkpt>
      <trkpt lat="45.88463" lon="4.68813">
        <ele>295.76053</ele>
        <time>2022-08-23T12:53:19.000Z</time>
      </trkpt>
      <trkpt lat="45.88461" lon="4.68812">
        <ele>295.6235</ele>
        <time>2022-08-23T12:53:20.000Z</time>
      </trkpt>
      <trkpt lat="45.88459" lon="4.6881">
        <ele>295.47833</ele>
        <time>2022-08-23T12:53:21.000Z</time>
      </trkpt>
      <trkpt lat="45.88458" lon="4.68806">
        <ele>295.2746</ele>
        <time>2022-08-23T12:53:22.000Z</time>
      </trkpt>
      <trkpt lat="45.88457" lon="4.68803">
        <ele>295.08478</ele>
        <time>2022-08-23T12:53:23.000Z</time>
      </trkpt>
      <trkpt lat="45.88457" lon="4.68799">
        <ele>294.96875</ele>
        <time>2022-08-23T12:53:24.000Z</time>
      </trkpt>
      <trkpt lat="45.88457" lon="4.68795">
        <ele>294.92654</ele>
        <time>2022-08-23T12:53:25.000Z</time>
      </trkpt>
      <trkpt lat="45.88457" lon="4.68791">
        <ele>294.85211</ele>
        <time>2022-08-23T12:53:26.000Z</time>
      </trkpt>
      <trkpt lat="45.88456" lon="4.68788">
        <ele>294.74005</ele>
        <time>2022-08-23T12:53:27.000Z</time>
      </trkpt>
      <trkpt lat="45.88456" lon="4.68784">
        <ele>294.64926</ele>
        <time>2022-08-23T12:53:28.000Z</time>
      </trkpt>
      <trkpt lat="45.88455" lon="4.6878">
        <ele>294.53625</ele>
        <time>2022-08-23T12:53:29.000Z</time>
      </trkpt>
      <trkpt lat="45.88454" lon="4.68776">
        <ele>294.45358</ele>
        <time>2022-08-23T12:53:30.000Z</time>
      </trkpt>
      <trkpt lat="45.88453" lon="4.68772">
        <ele>294.42841</ele>
        <time>2022-08-23T12:53:31.000Z</time>
      </trkpt>
      <trkpt lat="45.88452" lon="4.68768">
        <ele>294.5589</ele>
        <time>2022-08-23T12:53:32.000Z</time>
      </trkpt>
      <trkpt lat="45.88451" lon="4.68764">
        <ele>294.84802</ele>
        <time>2022-08-23T12:53:33.000Z</time>
      </trkpt>
      <trkpt lat="45.8845" lon="4.6876">
        <ele>295.10822</ele>
        <time>2022-08-23T12:53:34.000Z</time>
      </trkpt>
      <trkpt lat="45.88448" lon="4.68758">
        <ele>295.49594</ele>
        <time>2022-08-23T12:53:35.000Z</time>
      </trkpt>
      <trkpt lat="45.88445" lon="4.68757">
        <ele>295.91687</ele>
        <time>2022-08-23T12:53:36.000Z</time>
      </trkpt>
      <trkpt lat="45.88442" lon="4.68758">
        <ele>296.38254</ele>
        <time>2022-08-23T12:53:37.000Z</time>
      </trkpt>
      <trkpt lat="45.8844" lon="4.68758">
        <ele>296.9671</ele>
        <time>2022-08-23T12:53:38.000Z</time>
      </trkpt>
      <trkpt lat="45.88437" lon="4.6876">
        <ele>297.53076</ele>
        <time>2022-08-23T12:53:39.000Z</time>
      </trkpt>
      <trkpt lat="45.88435" lon="4.68761">
        <ele>298.03418</ele>
        <time>2022-08-23T12:53:40.000Z</time>
      </trkpt>
      <trkpt lat="45.88432" lon="4.68763">
        <ele>298.50775</ele>
        <time>2022-08-23T12:53:41.000Z</time>
      </trkpt>
      <trkpt lat="45.8843" lon="4.68764">
        <ele>299.02557</ele>
        <time>2022-08-23T12:53:42.000Z</time>
      </trkpt>
      <trkpt lat="45.88427" lon="4.68766">
        <ele>299.49866</ele>
        <time>2022-08-23T12:53:43.000Z</time>
      </trkpt>
      <trkpt lat="45.88424" lon="4.68767">
        <ele>299.95551</ele>
        <time>2022-08-23T12:53:44.000Z</time>
      </trkpt>
      <trkpt lat="45.88422" lon="4.68769">
        <ele>300.32318</ele>
        <time>2022-08-23T12:53:45.000Z</time>
      </trkpt>
      <trkpt lat="45.88419" lon="4.68771">
        <ele>300.67914</ele>
        <time>2022-08-23T12:53:46.000Z</time>
      </trkpt>
      <trkpt lat="45.88416" lon="4.68772">
        <ele>301.08478</ele>
        <time>2022-08-23T12:53:47.000Z</time>
      </trkpt>
      <trkpt lat="45.88412" lon="4.68774">
        <ele>301.46994</ele>
        <time>2022-08-23T12:53:48.000Z</time>
      </trkpt>
      <trkpt lat="45.88409" lon="4.68777">
        <ele>301.83475</ele>
        <time>2022-08-23T12:53:49.000Z</time>
      </trkpt>
      <trkpt lat="45.88407" lon="4.68779">
        <ele>302.18433</ele>
        <time>2022-08-23T12:53:50.000Z</time>
      </trkpt>
      <trkpt lat="45.88405" lon="4.68782">
        <ele>302.48792</ele>
        <time>2022-08-23T12:53:51.000Z</time>
      </trkpt>
      <trkpt lat="45.88402" lon="4.68785">
        <ele>302.6218</ele>
        <time>2022-08-23T12:53:52.000Z</time>
      </trkpt>
      <trkpt lat="45.884" lon="4.68787">
        <ele>302.67401</ele>
        <time>2022-08-23T12:53:53.000Z</time>
      </trkpt>
      <trkpt lat="45.88397" lon="4.68788">
        <ele>302.75397</ele>
        <time>2022-08-23T12:53:54.000Z</time>
      </trkpt>
      <trkpt lat="45.88395" lon="4.68788">
        <ele>302.80463</ele>
        <time>2022-08-23T12:53:55.000Z</time>
      </trkpt>
      <trkpt lat="45.88393" lon="4.68786">
        <ele>302.767</ele>
        <time>2022-08-23T12:53:56.000Z</time>
      </trkpt>
      <trkpt lat="45.88392" lon="4.68781">
        <ele>302.78009</ele>
        <time>2022-08-23T12:53:58.000Z</time>
      </trkpt>
      <trkpt lat="45.88392" lon="4.68776">
        <ele>302.77704</ele>
        <time>2022-08-23T12:53:59.000Z</time>
      </trkpt>
      <trkpt lat="45.88393" lon="4.68772">
        <ele>302.81134</ele>
        <time>2022-08-23T12:54:00.000Z</time>
      </trkpt>
      <trkpt lat="45.88394" lon="4.68767">
        <ele>302.79559</ele>
        <time>2022-08-23T12:54:01.000Z</time>
      </trkpt>
      <trkpt lat="45.88395" lon="4.68763">
        <ele>302.82159</ele>
        <time>2022-08-23T12:54:02.000Z</time>
      </trkpt>
      <trkpt lat="45.88395" lon="4.68759">
        <ele>302.83176</ele>
        <time>2022-08-23T12:54:03.000Z</time>
      </trkpt>
      <trkpt lat="45.88395" lon="4.68755">
        <ele>302.87537</ele>
        <time>2022-08-23T12:54:04.000Z</time>
      </trkpt>
      <trkpt lat="45.88395" lon="4.68751">
        <ele>302.84259</ele>
        <time>2022-08-23T12:54:05.000Z</time>
      </trkpt>
      <trkpt lat="45.88395" lon="4.68748">
        <ele>302.9202</ele>
        <time>2022-08-23T12:54:06.000Z</time>
      </trkpt>
      <trkpt lat="45.88394" lon="4.68744">
        <ele>303.01218</ele>
        <time>2022-08-23T12:54:07.000Z</time>
      </trkpt>
      <trkpt lat="45.88394" lon="4.68741">
        <ele>303.04044</ele>
        <time>2022-08-23T12:54:08.000Z</time>
      </trkpt>
      <trkpt lat="45.88393" lon="4.68738">
        <ele>302.99561</ele>
        <time>2022-08-23T12:54:09.000Z</time>
      </trkpt>
      <trkpt lat="45.88392" lon="4.68736">
        <ele>302.98575</ele>
        <time>2022-08-23T12:54:10.000Z</time>
      </trkpt>
      <trkpt lat="45.8839" lon="4.68733">
        <ele>302.96738</ele>
        <time>2022-08-23T12:54:11.000Z</time>
      </trkpt>
      <trkpt lat="45.88388" lon="4.68732">
        <ele>303.00397</ele>
        <time>2022-08-23T12:54:12.000Z</time>
      </trkpt>
      <trkpt lat="45.88387" lon="4.6873">
        <ele>303.02859</ele>
        <time>2022-08-23T12:54:13.000Z</time>
      </trkpt>
      <trkpt lat="45.88384" lon="4.68729">
        <ele>303.06451</ele>
        <time>2022-08-23T12:54:14.000Z</time>
      </trkpt>
      <trkpt lat="45.88382" lon="4.68727">
        <ele>303.13535</ele>
        <time>2022-08-23T12:54:15.000Z</time>
      </trkpt>
      <trkpt lat="45.8838" lon="4.68725">
        <ele>303.15576</ele>
        <time>2022-08-23T12:54:16.000Z</time>
      </trkpt>
      <trkpt lat="45.88378" lon="4.68723">
        <ele>303.25677</ele>
        <time>2022-08-23T12:54:17.000Z</time>
      </trkpt>
      <trkpt lat="45.88376" lon="4.68721">
        <ele>303.31894</ele>
        <time>2022-08-23T12:54:18.000Z</time>
      </trkpt>
      <trkpt lat="45.88375" lon="4.6872">
        <ele>303.34491</ele>
        <time>2022-08-23T12:54:19.000Z</time>
      </trkpt>
      <trkpt lat="45.88372" lon="4.68716">
        <ele>303.3432</ele>
        <time>2022-08-23T12:54:21.000Z</time>
      </trkpt>
      <trkpt lat="45.8837" lon="4.68714">
        <ele>303.36597</ele>
        <time>2022-08-23T12:54:22.000Z</time>
      </trkpt>
      <trkpt lat="45.88368" lon="4.68711">
        <ele>303.31918</ele>
        <time>2022-08-23T12:54:23.000Z</time>
      </trkpt>
      <trkpt lat="45.88367" lon="4.68709">
        <ele>303.28693</ele>
        <time>2022-08-23T12:54:24.000Z</time>
      </trkpt>
      <trkpt lat="45.88365" lon="4.68707">
        <ele>303.29196</ele>
        <time>2022-08-23T12:54:25.000Z</time>
      </trkpt>
      <trkpt lat="45.88363" lon="4.68705">
        <ele>303.33731</ele>
        <time>2022-08-23T12:54:26.000Z</time>
      </trkpt>
      <trkpt lat="45.88361" lon="4.68703">
        <ele>303.30319</ele>
        <time>2022-08-23T12:54:27.000Z</time>
      </trkpt>
      <trkpt lat="45.88359" lon="4.68701">
        <ele>303.263</ele>
        <time>2022-08-23T12:54:28.000Z</time>
      </trkpt>
      <trkpt lat="45.88357" lon="4.68699">
        <ele>303.29037</ele>
        <time>2022-08-23T12:54:29.000Z</time>
      </trkpt>
      <trkpt lat="45.88355" lon="4.68698">
        <ele>303.3779</ele>
        <time>2022-08-23T12:54:30.000Z</time>
      </trkpt>
      <trkpt lat="45.88353" lon="4.68695">
        <ele>303.38773</ele>
        <time>2022-08-23T12:54:31.000Z</time>
      </trkpt>
      <trkpt lat="45.88351" lon="4.68693">
        <ele>303.41718</ele>
        <time>2022-08-23T12:54:32.000Z</time>
      </trkpt>
      <trkpt lat="45.88349" lon="4.68691">
        <ele>303.37408</ele>
        <time>2022-08-23T12:54:33.000Z</time>
      </trkpt>
      <trkpt lat="45.88348" lon="4.68689">
        <ele>303.38721</ele>
        <time>2022-08-23T12:54:34.000Z</time>
      </trkpt>
      <trkpt lat="45.88346" lon="4.68687">
        <ele>303.37225</ele>
        <time>2022-08-23T12:54:35.000Z</time>
      </trkpt>
      <trkpt lat="45.88344" lon="4.68685">
        <ele>303.32996</ele>
        <time>2022-08-23T12:54:36.000Z</time>
      </trkpt>
      <trkpt lat="45.88342" lon="4.68683">
        <ele>303.40103</ele>
        <time>2022-08-23T12:54:37.000Z</time>
      </trkpt>
      <trkpt lat="45.8834" lon="4.68682">
        <ele>303.48383</ele>
        <time>2022-08-23T12:54:38.000Z</time>
      </trkpt>
      <trkpt lat="45.88338" lon="4.6868">
        <ele>303.58459</ele>
        <time>2022-08-23T12:54:39.000Z</time>
      </trkpt>
      <trkpt lat="45.88336" lon="4.68678">
        <ele>303.67307</ele>
        <time>2022-08-23T12:54:40.000Z</time>
      </trkpt>
      <trkpt lat="45.88333" lon="4.68676">
        <ele>303.79343</ele>
        <time>2022-08-23T12:54:41.000Z</time>
      </trkpt>
      <trkpt lat="45.88331" lon="4.68674">
        <ele>303.94647</ele>
        <time>2022-08-23T12:54:42.000Z</time>
      </trkpt>
      <trkpt lat="45.8833" lon="4.68672">
        <ele>304.14462</ele>
        <time>2022-08-23T12:54:43.000Z</time>
      </trkpt>
      <trkpt lat="45.88328" lon="4.6867">
        <ele>304.31805</ele>
        <time>2022-08-23T12:54:44.000Z</time>
      </trkpt>
      <trkpt lat="45.88326" lon="4.68668">
        <ele>304.45175</ele>
        <time>2022-08-23T12:54:45.000Z</time>
      </trkpt>
      <trkpt lat="45.88324" lon="4.68666">
        <ele>304.57837</ele>
        <time>2022-08-23T12:54:46.000Z</time>
      </trkpt>
      <trkpt lat="45.88322" lon="4.68664">
        <ele>304.76315</ele>
        <time>2022-08-23T12:54:47.000Z</time>
      </trkpt>
      <trkpt lat="45.88321" lon="4.68662">
        <ele>304.89163</ele>
        <time>2022-08-23T12:54:48.000Z</time>
      </trkpt>
      <trkpt lat="45.88319" lon="4.6866">
        <ele>304.99637</ele>
        <time>2022-08-23T12:54:49.000Z</time>
      </trkpt>
      <trkpt lat="45.88318" lon="4.68658">
        <ele>305.19919</ele>
        <time>2022-08-23T12:54:59.000Z</time>
      </trkpt>
      <trkpt lat="45.88316" lon="4.68656">
        <ele>305.44815</ele>
        <time>2022-08-23T12:55:01.000Z</time>
      </trkpt>
      <trkpt lat="45.88313" lon="4.68654">
        <ele>305.72305</ele>
        <time>2022-08-23T12:55:03.000Z</time>
      </trkpt>
      <trkpt lat="45.88311" lon="4.68652">
        <ele>306.00604</ele>
        <time>2022-08-23T12:55:05.000Z</time>
      </trkpt>
      <trkpt lat="45.88309" lon="4.68649">
        <ele>306.28436</ele>
        <time>2022-08-23T12:55:07.000Z</time>
      </trkpt>
      <trkpt lat="45.88306" lon="4.68646">
        <ele>306.5842</ele>
        <time>2022-08-23T12:55:09.000Z</time>
      </trkpt>
      <trkpt lat="45.88304" lon="4.68643">
        <ele>306.83707</ele>
        <time>2022-08-23T12:55:11.000Z</time>
      </trkpt>
      <trkpt lat="45.88302" lon="4.68641">
        <ele>307.05338</ele>
        <time>2022-08-23T12:55:13.000Z</time>
      </trkpt>
      <trkpt lat="45.88299" lon="4.68639">
        <ele>307.22458</ele>
        <time>2022-08-23T12:55:15.000Z</time>
      </trkpt>
      <trkpt lat="45.88297" lon="4.68637">
        <ele>307.51657</ele>
        <time>2022-08-23T12:55:17.000Z</time>
      </trkpt>
      <trkpt lat="45.88295" lon="4.68636">
        <ele>307.94962</ele>
        <time>2022-08-23T12:55:19.000Z</time>
      </trkpt>
      <trkpt lat="45.88293" lon="4.68634">
        <ele>308.44449</ele>
        <time>2022-08-23T12:55:21.000Z</time>
      </trkpt>
      <trkpt lat="45.88292" lon="4.68632">
        <ele>308.97284</ele>
        <time>2022-08-23T12:55:29.000Z</time>
      </trkpt>
      <trkpt lat="45.88289" lon="4.68631">
        <ele>309.53964</ele>
        <time>2022-08-23T12:55:34.000Z</time>
      </trkpt>
      <trkpt lat="45.88287" lon="4.6863">
        <ele>310.1922</ele>
        <time>2022-08-23T12:55:35.000Z</time>
      </trkpt>
      <trkpt lat="45.88284" lon="4.68628">
        <ele>310.80292</ele>
        <time>2022-08-23T12:55:37.000Z</time>
      </trkpt>
      <trkpt lat="45.88282" lon="4.68626">
        <ele>311.39676</ele>
        <time>2022-08-23T12:55:38.000Z</time>
      </trkpt>
      <trkpt lat="45.8828" lon="4.68625">
        <ele>311.9169</ele>
        <time>2022-08-23T12:55:39.000Z</time>
      </trkpt>
      <trkpt lat="45.88279" lon="4.68623">
        <ele>312.4646</ele>
        <time>2022-08-23T12:55:40.000Z</time>
      </trkpt>
      <trkpt lat="45.88277" lon="4.68621">
        <ele>313.03799</ele>
        <time>2022-08-23T12:55:41.000Z</time>
      </trkpt>
      <trkpt lat="45.88275" lon="4.6862">
        <ele>313.54916</ele>
        <time>2022-08-23T12:55:42.000Z</time>
      </trkpt>
      <trkpt lat="45.88272" lon="4.68618">
        <ele>313.90848</ele>
        <time>2022-08-23T12:55:44.000Z</time>
      </trkpt>
      <trkpt lat="45.8827" lon="4.68616">
        <ele>314.20837</ele>
        <time>2022-08-23T12:55:45.000Z</time>
      </trkpt>
      <trkpt lat="45.88268" lon="4.68615">
        <ele>314.56305</ele>
        <time>2022-08-23T12:55:46.000Z</time>
      </trkpt>
      <trkpt lat="45.88266" lon="4.68614">
        <ele>314.95987</ele>
        <time>2022-08-23T12:55:48.000Z</time>
      </trkpt>
      <trkpt lat="45.88263" lon="4.68612">
        <ele>315.34808</ele>
        <time>2022-08-23T12:55:50.000Z</time>
      </trkpt>
      <trkpt lat="45.88261" lon="4.68609">
        <ele>315.8981</ele>
        <time>2022-08-23T12:55:52.000Z</time>
      </trkpt>
      <trkpt lat="45.88259" lon="4.68607">
        <ele>316.41592</ele>
        <time>2022-08-23T12:55:54.000Z</time>
      </trkpt>
      <trkpt lat="45.88256" lon="4.68606">
        <ele>316.97998</ele>
        <time>2022-08-23T12:55:56.000Z</time>
      </trkpt>
      <trkpt lat="45.88254" lon="4.68606">
        <ele>317.36432</ele>
        <time>2022-08-23T12:55:57.000Z</time>
      </trkpt>
      <trkpt lat="45.88251" lon="4.68606">
        <ele>317.6394</ele>
        <time>2022-08-23T12:55:59.000Z</time>
      </trkpt>
      <trkpt lat="45.88249" lon="4.68608">
        <ele>317.77509</ele>
        <time>2022-08-23T12:56:01.000Z</time>
      </trkpt>
      <trkpt lat="45.88249" lon="4.6861">
        <ele>317.80865</ele>
        <time>2022-08-23T12:56:05.000Z</time>
      </trkpt>
      <trkpt lat="45.88246" lon="4.6861">
        <ele>317.87787</ele>
        <time>2022-08-23T12:56:11.000Z</time>
      </trkpt>
      <trkpt lat="45.88243" lon="4.68609">
        <ele>317.89648</ele>
        <time>2022-08-23T12:56:13.000Z</time>
      </trkpt>
      <trkpt lat="45.88241" lon="4.68607">
        <ele>317.96091</ele>
        <time>2022-08-23T12:56:15.000Z</time>
      </trkpt>
      <trkpt lat="45.88238" lon="4.68607">
        <ele>317.99481</ele>
        <time>2022-08-23T12:56:17.000Z</time>
      </trkpt>
      <trkpt lat="45.88236" lon="4.68606">
        <ele>318.01917</ele>
        <time>2022-08-23T12:56:19.000Z</time>
      </trkpt>
      <trkpt lat="45.88234" lon="4.68602">
        <ele>318.07217</ele>
        <time>2022-08-23T12:56:21.000Z</time>
      </trkpt>
      <trkpt lat="45.88233" lon="4.68599">
        <ele>318.05722</ele>
        <time>2022-08-23T12:56:29.000Z</time>
      </trkpt>
      <trkpt lat="45.8823" lon="4.68598">
        <ele>318.01807</ele>
        <time>2022-08-23T12:56:31.000Z</time>
      </trkpt>
      <trkpt lat="45.88228" lon="4.68597">
        <ele>318.2027</ele>
        <time>2022-08-23T12:56:32.000Z</time>
      </trkpt>
      <trkpt lat="45.88226" lon="4.68597">
        <ele>318.4306</ele>
        <time>2022-08-23T12:56:33.000Z</time>
      </trkpt>
      <trkpt lat="45.88223" lon="4.68596">
        <ele>318.67212</ele>
        <time>2022-08-23T12:56:35.000Z</time>
      </trkpt>
      <trkpt lat="45.88221" lon="4.68596">
        <ele>318.88568</ele>
        <time>2022-08-23T12:56:36.000Z</time>
      </trkpt>
      <trkpt lat="45.88217" lon="4.68595">
        <ele>319.06348</ele>
        <time>2022-08-23T12:56:38.000Z</time>
      </trkpt>
      <trkpt lat="45.88214" lon="4.68593">
        <ele>319.12985</ele>
        <time>2022-08-23T12:56:40.000Z</time>
      </trkpt>
      <trkpt lat="45.88212" lon="4.68593">
        <ele>319.14954</ele>
        <time>2022-08-23T12:56:41.000Z</time>
      </trkpt>
      <trkpt lat="45.88211" lon="4.68592">
        <ele>319.14316</ele>
        <time>2022-08-23T12:56:42.000Z</time>
      </trkpt>
      <trkpt lat="45.88207" lon="4.68591">
        <ele>319.10953</ele>
        <time>2022-08-23T12:56:44.000Z</time>
      </trkpt>
      <trkpt lat="45.88204" lon="4.68589">
        <ele>319.10297</ele>
        <time>2022-08-23T12:56:46.000Z</time>
      </trkpt>
      <trkpt lat="45.88203" lon="4.68588">
        <ele>319.05035</ele>
        <time>2022-08-23T12:56:47.000Z</time>
      </trkpt>
      <trkpt lat="45.88201" lon="4.68587">
        <ele>318.99139</ele>
        <time>2022-08-23T12:56:48.000Z</time>
      </trkpt>
      <trkpt lat="45.88198" lon="4.68585">
        <ele>318.89209</ele>
        <time>2022-08-23T12:56:50.000Z</time>
      </trkpt>
      <trkpt lat="45.88195" lon="4.68583">
        <ele>318.64606</ele>
        <time>2022-08-23T12:56:52.000Z</time>
      </trkpt>
      <trkpt lat="45.88191" lon="4.68582">
        <ele>318.51898</ele>
        <time>2022-08-23T12:56:54.000Z</time>
      </trkpt>
      <trkpt lat="45.88188" lon="4.68582">
        <ele>318.50406</ele>
        <time>2022-08-23T12:56:56.000Z</time>
      </trkpt>
      <trkpt lat="45.88185" lon="4.68582">
        <ele>318.56561</ele>
        <time>2022-08-23T12:56:58.000Z</time>
      </trkpt>
      <trkpt lat="45.88182" lon="4.68582">
        <ele>318.63498</ele>
        <time>2022-08-23T12:57:00.000Z</time>
      </trkpt>
      <trkpt lat="45.88179" lon="4.68582">
        <ele>318.74194</ele>
        <time>2022-08-23T12:57:02.000Z</time>
      </trkpt>
      <trkpt lat="45.88177" lon="4.68582">
        <ele>318.91467</ele>
        <time>2022-08-23T12:57:04.000Z</time>
      </trkpt>
      <trkpt lat="45.88174" lon="4.68581">
        <ele>319.11349</ele>
        <time>2022-08-23T12:57:06.000Z</time>
      </trkpt>
      <trkpt lat="45.88172" lon="4.68579">
        <ele>319.28125</ele>
        <time>2022-08-23T12:57:08.000Z</time>
      </trkpt>
      <trkpt lat="45.88169" lon="4.68578">
        <ele>319.4931</ele>
        <time>2022-08-23T12:57:10.000Z</time>
      </trkpt>
      <trkpt lat="45.88166" lon="4.68578">
        <ele>319.76437</ele>
        <time>2022-08-23T12:57:12.000Z</time>
      </trkpt>
      <trkpt lat="45.88163" lon="4.68576">
        <ele>320.0538</ele>
        <time>2022-08-23T12:57:14.000Z</time>
      </trkpt>
      <trkpt lat="45.88161" lon="4.68575">
        <ele>320.3822</ele>
        <time>2022-08-23T12:57:16.000Z</time>
      </trkpt>
      <trkpt lat="45.88158" lon="4.68574">
        <ele>320.48761</ele>
        <time>2022-08-23T12:57:19.000Z</time>
      </trkpt>
      <trkpt lat="45.88155" lon="4.68573">
        <ele>320.66913</ele>
        <time>2022-08-23T12:57:21.000Z</time>
      </trkpt>
      <trkpt lat="45.88153" lon="4.68572">
        <ele>321.06354</ele>
        <time>2022-08-23T12:57:23.000Z</time>
      </trkpt>
      <trkpt lat="45.88149" lon="4.68572">
        <ele>321.48077</ele>
        <time>2022-08-23T12:57:25.000Z</time>
      </trkpt>
      <trkpt lat="45.88147" lon="4.68572">
        <ele>322.01108</ele>
        <time>2022-08-23T12:57:26.000Z</time>
      </trkpt>
      <trkpt lat="45.88146" lon="4.68571">
        <ele>322.60541</ele>
        <time>2022-08-23T12:57:27.000Z</time>
      </trkpt>
      <trkpt lat="45.88144" lon="4.6857">
        <ele>323.18204</ele>
        <time>2022-08-23T12:57:28.000Z</time>
      </trkpt>
      <trkpt lat="45.88142" lon="4.6857">
        <ele>323.91876</ele>
        <time>2022-08-23T12:57:29.000Z</time>
      </trkpt>
      <trkpt lat="45.88133" lon="4.68569">
        <ele>324.51956</ele>
        <time>2022-08-23T12:57:35.000Z</time>
      </trkpt>
      <trkpt lat="45.8813" lon="4.68568">
        <ele>325.09244</ele>
        <time>2022-08-23T12:57:37.000Z</time>
      </trkpt>
      <trkpt lat="45.88127" lon="4.68566">
        <ele>325.56274</ele>
        <time>2022-08-23T12:57:39.000Z</time>
      </trkpt>
      <trkpt lat="45.88124" lon="4.68564">
        <ele>325.91995</ele>
        <time>2022-08-23T12:57:41.000Z</time>
      </trkpt>
      <trkpt lat="45.88121" lon="4.68562">
        <ele>326.31</ele>
        <time>2022-08-23T12:57:43.000Z</time>
      </trkpt>
      <trkpt lat="45.88118" lon="4.68561">
        <ele>326.66141</ele>
        <time>2022-08-23T12:57:45.000Z</time>
      </trkpt>
      <trkpt lat="45.88115" lon="4.68561">
        <ele>326.91547</ele>
        <time>2022-08-23T12:57:47.000Z</time>
      </trkpt>
      <trkpt lat="45.88113" lon="4.6856">
        <ele>327.18976</ele>
        <time>2022-08-23T12:57:49.000Z</time>
      </trkpt>
      <trkpt lat="45.88111" lon="4.68559">
        <ele>327.37244</ele>
        <time>2022-08-23T12:57:50.000Z</time>
      </trkpt>
      <trkpt lat="45.88109" lon="4.68558">
        <ele>327.43616</ele>
        <time>2022-08-23T12:57:51.000Z</time>
      </trkpt>
      <trkpt lat="45.88107" lon="4.68557">
        <ele>327.53839</ele>
        <time>2022-08-23T12:57:52.000Z</time>
      </trkpt>
      <trkpt lat="45.88104" lon="4.68557">
        <ele>327.64291</ele>
        <time>2022-08-23T12:57:54.000Z</time>
      </trkpt>
      <trkpt lat="45.88101" lon="4.68556">
        <ele>327.99133</ele>
        <time>2022-08-23T12:57:56.000Z</time>
      </trkpt>
      <trkpt lat="45.88099" lon="4.68555">
        <ele>328.24048</ele>
        <time>2022-08-23T12:57:58.000Z</time>
      </trkpt>
      <trkpt lat="45.88096" lon="4.68553">
        <ele>328.35199</ele>
        <time>2022-08-23T12:58:00.000Z</time>
      </trkpt>
      <trkpt lat="45.88093" lon="4.68552">
        <ele>328.46628</ele>
        <time>2022-08-23T12:58:02.000Z</time>
      </trkpt>
      <trkpt lat="45.88091" lon="4.68552">
        <ele>328.54901</ele>
        <time>2022-08-23T12:58:04.000Z</time>
      </trkpt>
      <trkpt lat="45.88088" lon="4.68551">
        <ele>328.58002</ele>
        <time>2022-08-23T12:58:06.000Z</time>
      </trkpt>
      <trkpt lat="45.88086" lon="4.6855">
        <ele>328.63269</ele>
        <time>2022-08-23T12:58:08.000Z</time>
      </trkpt>
      <trkpt lat="45.88082" lon="4.68551">
        <ele>328.59531</ele>
        <time>2022-08-23T12:58:10.000Z</time>
      </trkpt>
      <trkpt lat="45.88081" lon="4.68551">
        <ele>328.58469</ele>
        <time>2022-08-23T12:58:11.000Z</time>
      </trkpt>
      <trkpt lat="45.88077" lon="4.68551">
        <ele>328.66119</ele>
        <time>2022-08-23T12:58:13.000Z</time>
      </trkpt>
      <trkpt lat="45.88074" lon="4.6855">
        <ele>328.84381</ele>
        <time>2022-08-23T12:58:15.000Z</time>
      </trkpt>
      <trkpt lat="45.88071" lon="4.6855">
        <ele>329.11102</ele>
        <time>2022-08-23T12:58:17.000Z</time>
      </trkpt>
      <trkpt lat="45.88068" lon="4.68549">
        <ele>329.33258</ele>
        <time>2022-08-23T12:58:19.000Z</time>
      </trkpt>
      <trkpt lat="45.88066" lon="4.68547">
        <ele>329.50543</ele>
        <time>2022-08-23T12:58:21.000Z</time>
      </trkpt>
      <trkpt lat="45.88063" lon="4.68545">
        <ele>329.67987</ele>
        <time>2022-08-23T12:58:23.000Z</time>
      </trkpt>
      <trkpt lat="45.88061" lon="4.68545">
        <ele>329.81726</ele>
        <time>2022-08-23T12:58:25.000Z</time>
      </trkpt>
      <trkpt lat="45.88058" lon="4.68544">
        <ele>329.92731</ele>
        <time>2022-08-23T12:58:27.000Z</time>
      </trkpt>
      <trkpt lat="45.88055" lon="4.68544">
        <ele>330.14511</ele>
        <time>2022-08-23T12:58:30.000Z</time>
      </trkpt>
      <trkpt lat="45.88053" lon="4.68544">
        <ele>330.40936</ele>
        <time>2022-08-23T12:58:32.000Z</time>
      </trkpt>
      <trkpt lat="45.8805" lon="4.68543">
        <ele>330.71686</ele>
        <time>2022-08-23T12:58:34.000Z</time>
      </trkpt>
      <trkpt lat="45.88049" lon="4.68542">
        <ele>331.02499</ele>
        <time>2022-08-23T12:58:35.000Z</time>
      </trkpt>
      <trkpt lat="45.88046" lon="4.68542">
        <ele>331.32782</ele>
        <time>2022-08-23T12:58:36.000Z</time>
      </trkpt>
      <trkpt lat="45.88044" lon="4.68539">
        <ele>331.48471</ele>
        <time>2022-08-23T12:58:38.000Z</time>
      </trkpt>
      <trkpt lat="45.88043" lon="4.68537">
        <ele>331.64337</ele>
        <time>2022-08-23T12:58:40.000Z</time>
      </trkpt>
      <trkpt lat="45.88041" lon="4.68534">
        <ele>331.88074</ele>
        <time>2022-08-23T12:58:42.000Z</time>
      </trkpt>
      <trkpt lat="45.88039" lon="4.68534">
        <ele>332.07574</ele>
        <time>2022-08-23T12:58:43.000Z</time>
      </trkpt>
      <trkpt lat="45.88036" lon="4.68533">
        <ele>332.31439</ele>
        <time>2022-08-23T12:58:44.000Z</time>
      </trkpt>
      <trkpt lat="45.88034" lon="4.68533">
        <ele>332.74664</ele>
        <time>2022-08-23T12:58:45.000Z</time>
      </trkpt>
      <trkpt lat="45.88031" lon="4.68533">
        <ele>333.23859</ele>
        <time>2022-08-23T12:58:47.000Z</time>
      </trkpt>
      <trkpt lat="45.88028" lon="4.68532">
        <ele>333.55585</ele>
        <time>2022-08-23T12:58:49.000Z</time>
      </trkpt>
      <trkpt lat="45.88025" lon="4.68532">
        <ele>333.77045</ele>
        <time>2022-08-23T12:58:51.000Z</time>
      </trkpt>
      <trkpt lat="45.88022" lon="4.68532">
        <ele>333.99652</ele>
        <time>2022-08-23T12:58:53.000Z</time>
      </trkpt>
      <trkpt lat="45.88019" lon="4.68532">
        <ele>334.21002</ele>
        <time>2022-08-23T12:58:55.000Z</time>
      </trkpt>
      <trkpt lat="45.88016" lon="4.68532">
        <ele>334.45309</ele>
        <time>2022-08-23T12:58:57.000Z</time>
      </trkpt>
      <trkpt lat="45.88014" lon="4.68532">
        <ele>334.66022</ele>
        <time>2022-08-23T12:58:59.000Z</time>
      </trkpt>
      <trkpt lat="45.88011" lon="4.68531">
        <ele>335.02118</ele>
        <time>2022-08-23T12:59:01.000Z</time>
      </trkpt>
      <trkpt lat="45.88009" lon="4.68531">
        <ele>335.54578</ele>
        <time>2022-08-23T12:59:03.000Z</time>
      </trkpt>
      <trkpt lat="45.88007" lon="4.68531">
        <ele>336.01334</ele>
        <time>2022-08-23T12:59:06.000Z</time>
      </trkpt>
      <trkpt lat="45.88008" lon="4.68534">
        <ele>336.39575</ele>
        <time>2022-08-23T12:59:11.000Z</time>
      </trkpt>
      <trkpt lat="45.88007" lon="4.68537">
        <ele>336.78802</ele>
        <time>2022-08-23T13:00:23.000Z</time>
      </trkpt>
      <trkpt lat="45.88004" lon="4.68538">
        <ele>337.16669</ele>
        <time>2022-08-23T13:00:25.000Z</time>
      </trkpt>
      <trkpt lat="45.88001" lon="4.68537">
        <ele>337.52679</ele>
        <time>2022-08-23T13:00:27.000Z</time>
      </trkpt>
      <trkpt lat="45.87999" lon="4.68536">
        <ele>338.01105</ele>
        <time>2022-08-23T13:00:28.000Z</time>
      </trkpt>
      <trkpt lat="45.87997" lon="4.68535">
        <ele>338.435</ele>
        <time>2022-08-23T13:00:29.000Z</time>
      </trkpt>
      <trkpt lat="45.87995" lon="4.68534">
        <ele>338.81427</ele>
        <time>2022-08-23T13:00:30.000Z</time>
      </trkpt>
      <trkpt lat="45.87993" lon="4.68534">
        <ele>339.26849</ele>
        <time>2022-08-23T13:00:31.000Z</time>
      </trkpt>
      <trkpt lat="45.87991" lon="4.68533">
        <ele>339.6474</ele>
        <time>2022-08-23T13:00:32.000Z</time>
      </trkpt>
      <trkpt lat="45.87989" lon="4.68533">
        <ele>339.89215</ele>
        <time>2022-08-23T13:00:33.000Z</time>
      </trkpt>
      <trkpt lat="45.87987" lon="4.68532">
        <ele>340.13522</ele>
        <time>2022-08-23T13:00:34.000Z</time>
      </trkpt>
      <trkpt lat="45.87985" lon="4.68532">
        <ele>340.40244</ele>
        <time>2022-08-23T13:00:35.000Z</time>
      </trkpt>
      <trkpt lat="45.87983" lon="4.68532">
        <ele>340.72235</ele>
        <time>2022-08-23T13:00:36.000Z</time>
      </trkpt>
      <trkpt lat="45.8798" lon="4.68532">
        <ele>341.06915</ele>
        <time>2022-08-23T13:00:37.000Z</time>
      </trkpt>
      <trkpt lat="45.87978" lon="4.68531">
        <ele>341.39935</ele>
        <time>2022-08-23T13:00:38.000Z</time>
      </trkpt>
      <trkpt lat="45.87976" lon="4.68531">
        <ele>341.6286</ele>
        <time>2022-08-23T13:00:39.000Z</time>
      </trkpt>
      <trkpt lat="45.87974" lon="4.6853">
        <ele>341.86774</ele>
        <time>2022-08-23T13:00:40.000Z</time>
      </trkpt>
      <trkpt lat="45.87972" lon="4.6853">
        <ele>342.00912</ele>
        <time>2022-08-23T13:00:41.000Z</time>
      </trkpt>
      <trkpt lat="45.87969" lon="4.68529">
        <ele>342.01559</ele>
        <time>2022-08-23T13:00:42.000Z</time>
      </trkpt>
      <trkpt lat="45.87967" lon="4.68529">
        <ele>341.99652</ele>
        <time>2022-08-23T13:00:43.000Z</time>
      </trkpt>
      <trkpt lat="45.87965" lon="4.68528">
        <ele>341.99994</ele>
        <time>2022-08-23T13:00:44.000Z</time>
      </trkpt>
      <trkpt lat="45.87962" lon="4.68528">
        <ele>341.84998</ele>
        <time>2022-08-23T13:00:45.000Z</time>
      </trkpt>
      <trkpt lat="45.8796" lon="4.68528">
        <ele>341.7421</ele>
        <time>2022-08-23T13:00:46.000Z</time>
      </trkpt>
      <trkpt lat="45.87958" lon="4.68528">
        <ele>341.58899</ele>
        <time>2022-08-23T13:00:47.000Z</time>
      </trkpt>
      <trkpt lat="45.87955" lon="4.68528">
        <ele>341.38037</ele>
        <time>2022-08-23T13:00:48.000Z</time>
      </trkpt>
      <trkpt lat="45.87953" lon="4.68528">
        <ele>341.18777</ele>
        <time>2022-08-23T13:00:49.000Z</time>
      </trkpt>
      <trkpt lat="45.8795" lon="4.68529">
        <ele>340.897</ele>
        <time>2022-08-23T13:00:50.000Z</time>
      </trkpt>
      <trkpt lat="45.87947" lon="4.6853">
        <ele>340.67133</ele>
        <time>2022-08-23T13:00:51.000Z</time>
      </trkpt>
      <trkpt lat="45.87945" lon="4.6853">
        <ele>340.45099</ele>
        <time>2022-08-23T13:00:52.000Z</time>
      </trkpt>
      <trkpt lat="45.87943" lon="4.6853">
        <ele>340.33368</ele>
        <time>2022-08-23T13:00:53.000Z</time>
      </trkpt>
      <trkpt lat="45.87941" lon="4.6853">
        <ele>340.08334</ele>
        <time>2022-08-23T13:00:54.000Z</time>
      </trkpt>
      <trkpt lat="45.87939" lon="4.68531">
        <ele>339.69623</ele>
        <time>2022-08-23T13:00:55.000Z</time>
      </trkpt>
      <trkpt lat="45.87936" lon="4.68532">
        <ele>339.30902</ele>
        <time>2022-08-23T13:00:56.000Z</time>
      </trkpt>
      <trkpt lat="45.87934" lon="4.68533">
        <ele>338.89441</ele>
        <time>2022-08-23T13:00:57.000Z</time>
      </trkpt>
      <trkpt lat="45.87931" lon="4.68534">
        <ele>338.52701</ele>
        <time>2022-08-23T13:00:58.000Z</time>
      </trkpt>
      <trkpt lat="45.87928" lon="4.68535">
        <ele>338.18436</ele>
        <time>2022-08-23T13:00:59.000Z</time>
      </trkpt>
      <trkpt lat="45.87925" lon="4.68535">
        <ele>337.90082</ele>
        <time>2022-08-23T13:01:00.000Z</time>
      </trkpt>
      <trkpt lat="45.87923" lon="4.68536">
        <ele>337.55402</ele>
        <time>2022-08-23T13:01:01.000Z</time>
      </trkpt>
      <trkpt lat="45.8792" lon="4.68536">
        <ele>337.2182</ele>
        <time>2022-08-23T13:01:02.000Z</time>
      </trkpt>
      <trkpt lat="45.87918" lon="4.68537">
        <ele>336.85956</ele>
        <time>2022-08-23T13:01:03.000Z</time>
      </trkpt>
      <trkpt lat="45.87916" lon="4.68537">
        <ele>336.51288</ele>
        <time>2022-08-23T13:01:04.000Z</time>
      </trkpt>
      <trkpt lat="45.87914" lon="4.68537">
        <ele>336.18317</ele>
        <time>2022-08-23T13:01:05.000Z</time>
      </trkpt>
      <trkpt lat="45.87911" lon="4.68537">
        <ele>335.84647</ele>
        <time>2022-08-23T13:01:06.000Z</time>
      </trkpt>
      <trkpt lat="45.87909" lon="4.68537">
        <ele>335.5488</ele>
        <time>2022-08-23T13:01:07.000Z</time>
      </trkpt>
      <trkpt lat="45.87907" lon="4.68537">
        <ele>335.39868</ele>
        <time>2022-08-23T13:01:08.000Z</time>
      </trkpt>
      <trkpt lat="45.87903" lon="4.68536">
        <ele>335.31305</ele>
        <time>2022-08-23T13:01:10.000Z</time>
      </trkpt>
      <trkpt lat="45.87901" lon="4.68536">
        <ele>335.3082</ele>
        <time>2022-08-23T13:01:11.000Z</time>
      </trkpt>
      <trkpt lat="45.87899" lon="4.68535">
        <ele>335.29083</ele>
        <time>2022-08-23T13:01:12.000Z</time>
      </trkpt>
      <trkpt lat="45.87896" lon="4.68534">
        <ele>335.2442</ele>
        <time>2022-08-23T13:01:13.000Z</time>
      </trkpt>
      <trkpt lat="45.87894" lon="4.68533">
        <ele>335.08099</ele>
        <time>2022-08-23T13:01:14.000Z</time>
      </trkpt>
      <trkpt lat="45.87891" lon="4.68531">
        <ele>334.99701</ele>
        <time>2022-08-23T13:01:15.000Z</time>
      </trkpt>
      <trkpt lat="45.87888" lon="4.6853">
        <ele>335.12643</ele>
        <time>2022-08-23T13:01:16.000Z</time>
      </trkpt>
      <trkpt lat="45.87886" lon="4.68528">
        <ele>335.34442</ele>
        <time>2022-08-23T13:01:17.000Z</time>
      </trkpt>
      <trkpt lat="45.87883" lon="4.68527">
        <ele>335.55423</ele>
        <time>2022-08-23T13:01:18.000Z</time>
      </trkpt>
      <trkpt lat="45.87881" lon="4.68526">
        <ele>335.68768</ele>
        <time>2022-08-23T13:01:19.000Z</time>
      </trkpt>
      <trkpt lat="45.87878" lon="4.68525">
        <ele>335.89935</ele>
        <time>2022-08-23T13:01:20.000Z</time>
      </trkpt>
      <trkpt lat="45.87876" lon="4.68524">
        <ele>336.10672</ele>
        <time>2022-08-23T13:01:21.000Z</time>
      </trkpt>
      <trkpt lat="45.87873" lon="4.68523">
        <ele>336.41599</ele>
        <time>2022-08-23T13:01:22.000Z</time>
      </trkpt>
      <trkpt lat="45.87871" lon="4.68522">
        <ele>336.67932</ele>
        <time>2022-08-23T13:01:23.000Z</time>
      </trkpt>
      <trkpt lat="45.87869" lon="4.68521">
        <ele>336.99847</ele>
        <time>2022-08-23T13:01:24.000Z</time>
      </trkpt>
      <trkpt lat="45.87866" lon="4.6852">
        <ele>337.30627</ele>
        <time>2022-08-23T13:01:25.000Z</time>
      </trkpt>
      <trkpt lat="45.87864" lon="4.68519">
        <ele>337.64279</ele>
        <time>2022-08-23T13:01:26.000Z</time>
      </trkpt>
      <trkpt lat="45.87862" lon="4.68518">
        <ele>337.97427</ele>
        <time>2022-08-23T13:01:27.000Z</time>
      </trkpt>
      <trkpt lat="45.8786" lon="4.68516">
        <ele>338.32751</ele>
        <time>2022-08-23T13:01:28.000Z</time>
      </trkpt>
      <trkpt lat="45.87858" lon="4.68515">
        <ele>338.61371</ele>
        <time>2022-08-23T13:01:29.000Z</time>
      </trkpt>
      <trkpt lat="45.87857" lon="4.68514">
        <ele>338.86444</ele>
        <time>2022-08-23T13:01:30.000Z</time>
      </trkpt>
      <trkpt lat="45.87855" lon="4.68513">
        <ele>339.09372</ele>
        <time>2022-08-23T13:01:31.000Z</time>
      </trkpt>
      <trkpt lat="45.87853" lon="4.68512">
        <ele>339.28915</ele>
        <time>2022-08-23T13:01:32.000Z</time>
      </trkpt>
      <trkpt lat="45.87851" lon="4.68512">
        <ele>339.48364</ele>
        <time>2022-08-23T13:01:33.000Z</time>
      </trkpt>
      <trkpt lat="45.87849" lon="4.68511">
        <ele>339.70361</ele>
        <time>2022-08-23T13:01:34.000Z</time>
      </trkpt>
      <trkpt lat="45.87846" lon="4.68511">
        <ele>339.97217</ele>
        <time>2022-08-23T13:01:35.000Z</time>
      </trkpt>
      <trkpt lat="45.87844" lon="4.6851">
        <ele>340.20917</ele>
        <time>2022-08-23T13:01:36.000Z</time>
      </trkpt>
      <trkpt lat="45.87842" lon="4.6851">
        <ele>340.39902</ele>
        <time>2022-08-23T13:01:37.000Z</time>
      </trkpt>
      <trkpt lat="45.8784" lon="4.68509">
        <ele>340.6153</ele>
        <time>2022-08-23T13:01:38.000Z</time>
      </trkpt>
      <trkpt lat="45.87838" lon="4.68508">
        <ele>340.90509</ele>
        <time>2022-08-23T13:01:39.000Z</time>
      </trkpt>
      <trkpt lat="45.87835" lon="4.68506">
        <ele>341.22357</ele>
        <time>2022-08-23T13:01:41.000Z</time>
      </trkpt>
      <trkpt lat="45.87833" lon="4.68505">
        <ele>341.52557</ele>
        <time>2022-08-23T13:01:42.000Z</time>
      </trkpt>
      <trkpt lat="45.87831" lon="4.68505">
        <ele>341.79324</ele>
        <time>2022-08-23T13:01:43.000Z</time>
      </trkpt>
      <trkpt lat="45.87827" lon="4.68504">
        <ele>342.11246</ele>
        <time>2022-08-23T13:01:45.000Z</time>
      </trkpt>
      <trkpt lat="45.87826" lon="4.68503">
        <ele>342.36627</ele>
        <time>2022-08-23T13:01:46.000Z</time>
      </trkpt>
      <trkpt lat="45.87824" lon="4.68502">
        <ele>342.61496</ele>
        <time>2022-08-23T13:01:47.000Z</time>
      </trkpt>
      <trkpt lat="45.87822" lon="4.68502">
        <ele>342.89093</ele>
        <time>2022-08-23T13:01:48.000Z</time>
      </trkpt>
      <trkpt lat="45.8782" lon="4.68501">
        <ele>343.22809</ele>
        <time>2022-08-23T13:01:49.000Z</time>
      </trkpt>
      <trkpt lat="45.87818" lon="4.685">
        <ele>343.59698</ele>
        <time>2022-08-23T13:01:50.000Z</time>
      </trkpt>
      <trkpt lat="45.87816" lon="4.68499">
        <ele>343.95111</ele>
        <time>2022-08-23T13:01:51.000Z</time>
      </trkpt>
      <trkpt lat="45.87814" lon="4.68498">
        <ele>344.26199</ele>
        <time>2022-08-23T13:01:52.000Z</time>
      </trkpt>
      <trkpt lat="45.87812" lon="4.68497">
        <ele>344.58698</ele>
        <time>2022-08-23T13:01:53.000Z</time>
      </trkpt>
      <trkpt lat="45.8781" lon="4.68496">
        <ele>344.90802</ele>
        <time>2022-08-23T13:01:54.000Z</time>
      </trkpt>
      <trkpt lat="45.87808" lon="4.68494">
        <ele>345.23834</ele>
        <time>2022-08-23T13:01:55.000Z</time>
      </trkpt>
      <trkpt lat="45.87805" lon="4.68493">
        <ele>345.51215</ele>
        <time>2022-08-23T13:01:56.000Z</time>
      </trkpt>
      <trkpt lat="45.87803" lon="4.68493">
        <ele>345.74185</ele>
        <time>2022-08-23T13:01:57.000Z</time>
      </trkpt>
      <trkpt lat="45.87801" lon="4.68492">
        <ele>346.03006</ele>
        <time>2022-08-23T13:01:58.000Z</time>
      </trkpt>
      <trkpt lat="45.87799" lon="4.68491">
        <ele>346.2565</ele>
        <time>2022-08-23T13:01:59.000Z</time>
      </trkpt>
      <trkpt lat="45.87797" lon="4.6849">
        <ele>346.46423</ele>
        <time>2022-08-23T13:02:00.000Z</time>
      </trkpt>
      <trkpt lat="45.87795" lon="4.68489">
        <ele>346.66754</ele>
        <time>2022-08-23T13:02:01.000Z</time>
      </trkpt>
      <trkpt lat="45.87794" lon="4.68488">
        <ele>346.82379</ele>
        <time>2022-08-23T13:02:02.000Z</time>
      </trkpt>
      <trkpt lat="45.87792" lon="4.68486">
        <ele>346.9483</ele>
        <time>2022-08-23T13:02:03.000Z</time>
      </trkpt>
      <trkpt lat="45.8779" lon="4.68485">
        <ele>347.07489</ele>
        <time>2022-08-23T13:02:04.000Z</time>
      </trkpt>
      <trkpt lat="45.87788" lon="4.68483">
        <ele>347.216</ele>
        <time>2022-08-23T13:02:05.000Z</time>
      </trkpt>
      <trkpt lat="45.87786" lon="4.68482">
        <ele>347.42282</ele>
        <time>2022-08-23T13:02:06.000Z</time>
      </trkpt>
      <trkpt lat="45.87784" lon="4.68481">
        <ele>347.59259</ele>
        <time>2022-08-23T13:02:07.000Z</time>
      </trkpt>
      <trkpt lat="45.87781" lon="4.68479">
        <ele>347.72763</ele>
        <time>2022-08-23T13:02:08.000Z</time>
      </trkpt>
      <trkpt lat="45.87779" lon="4.68478">
        <ele>347.82178</ele>
        <time>2022-08-23T13:02:09.000Z</time>
      </trkpt>
      <trkpt lat="45.87777" lon="4.68477">
        <ele>347.94977</ele>
        <time>2022-08-23T13:02:10.000Z</time>
      </trkpt>
      <trkpt lat="45.87775" lon="4.68476">
        <ele>348.12909</ele>
        <time>2022-08-23T13:02:11.000Z</time>
      </trkpt>
      <trkpt lat="45.87773" lon="4.68474">
        <ele>348.33563</ele>
        <time>2022-08-23T13:02:12.000Z</time>
      </trkpt>
      <trkpt lat="45.87771" lon="4.68472">
        <ele>348.5596</ele>
        <time>2022-08-23T13:02:13.000Z</time>
      </trkpt>
      <trkpt lat="45.87769" lon="4.68471">
        <ele>348.76126</ele>
        <time>2022-08-23T13:02:14.000Z</time>
      </trkpt>
      <trkpt lat="45.87767" lon="4.68469">
        <ele>348.98007</ele>
        <time>2022-08-23T13:02:15.000Z</time>
      </trkpt>
      <trkpt lat="45.87765" lon="4.68468">
        <ele>349.21075</ele>
        <time>2022-08-23T13:02:16.000Z</time>
      </trkpt>
      <trkpt lat="45.87762" lon="4.68468">
        <ele>349.45724</ele>
        <time>2022-08-23T13:02:17.000Z</time>
      </trkpt>
      <trkpt lat="45.8776" lon="4.68467">
        <ele>349.63739</ele>
        <time>2022-08-23T13:02:18.000Z</time>
      </trkpt>
      <trkpt lat="45.87758" lon="4.68466">
        <ele>349.86197</ele>
        <time>2022-08-23T13:02:19.000Z</time>
      </trkpt>
      <trkpt lat="45.87756" lon="4.68465">
        <ele>350.06262</ele>
        <time>2022-08-23T13:02:20.000Z</time>
      </trkpt>
      <trkpt lat="45.87754" lon="4.68464">
        <ele>350.22797</ele>
        <time>2022-08-23T13:02:21.000Z</time>
      </trkpt>
      <trkpt lat="45.87753" lon="4.68462">
        <ele>350.35651</ele>
        <time>2022-08-23T13:02:22.000Z</time>
      </trkpt>
      <trkpt lat="45.87751" lon="4.6846">
        <ele>350.51962</ele>
        <time>2022-08-23T13:02:23.000Z</time>
      </trkpt>
      <trkpt lat="45.8775" lon="4.68459">
        <ele>350.66498</ele>
        <time>2022-08-23T13:02:24.000Z</time>
      </trkpt>
      <trkpt lat="45.87748" lon="4.68457">
        <ele>350.82745</ele>
        <time>2022-08-23T13:02:25.000Z</time>
      </trkpt>
      <trkpt lat="45.87745" lon="4.68456">
        <ele>350.99139</ele>
        <time>2022-08-23T13:02:26.000Z</time>
      </trkpt>
      <trkpt lat="45.87743" lon="4.68455">
        <ele>351.16937</ele>
        <time>2022-08-23T13:02:27.000Z</time>
      </trkpt>
      <trkpt lat="45.87741" lon="4.68454">
        <ele>351.34723</ele>
        <time>2022-08-23T13:02:28.000Z</time>
      </trkpt>
      <trkpt lat="45.87739" lon="4.68453">
        <ele>351.54657</ele>
        <time>2022-08-23T13:02:29.000Z</time>
      </trkpt>
      <trkpt lat="45.87737" lon="4.68452">
        <ele>351.69904</ele>
        <time>2022-08-23T13:02:30.000Z</time>
      </trkpt>
      <trkpt lat="45.87735" lon="4.6845">
        <ele>351.82037</ele>
        <time>2022-08-23T13:02:31.000Z</time>
      </trkpt>
      <trkpt lat="45.87733" lon="4.68449">
        <ele>351.94473</ele>
        <time>2022-08-23T13:02:32.000Z</time>
      </trkpt>
      <trkpt lat="45.87731" lon="4.68448">
        <ele>352.0918</ele>
        <time>2022-08-23T13:02:33.000Z</time>
      </trkpt>
      <trkpt lat="45.87728" lon="4.68448">
        <ele>352.29034</ele>
        <time>2022-08-23T13:02:34.000Z</time>
      </trkpt>
      <trkpt lat="45.87726" lon="4.68447">
        <ele>352.49933</ele>
        <time>2022-08-23T13:02:35.000Z</time>
      </trkpt>
      <trkpt lat="45.87724" lon="4.68446">
        <ele>352.7377</ele>
        <time>2022-08-23T13:02:36.000Z</time>
      </trkpt>
      <trkpt lat="45.87722" lon="4.68445">
        <ele>352.96454</ele>
        <time>2022-08-23T13:02:37.000Z</time>
      </trkpt>
      <trkpt lat="45.8772" lon="4.68443">
        <ele>353.14447</ele>
        <time>2022-08-23T13:02:38.000Z</time>
      </trkpt>
      <trkpt lat="45.87718" lon="4.68442">
        <ele>353.31598</ele>
        <time>2022-08-23T13:02:39.000Z</time>
      </trkpt>
      <trkpt lat="45.87716" lon="4.68441">
        <ele>353.52911</ele>
        <time>2022-08-23T13:02:40.000Z</time>
      </trkpt>
      <trkpt lat="45.87714" lon="4.68439">
        <ele>353.74197</ele>
        <time>2022-08-23T13:02:41.000Z</time>
      </trkpt>
      <trkpt lat="45.87712" lon="4.68438">
        <ele>354.01605</ele>
        <time>2022-08-23T13:02:42.000Z</time>
      </trkpt>
      <trkpt lat="45.8771" lon="4.68437">
        <ele>354.27817</ele>
        <time>2022-08-23T13:02:43.000Z</time>
      </trkpt>
      <trkpt lat="45.87707" lon="4.68435">
        <ele>354.52057</ele>
        <time>2022-08-23T13:02:44.000Z</time>
      </trkpt>
      <trkpt lat="45.87705" lon="4.68434">
        <ele>354.75076</ele>
        <time>2022-08-23T13:02:45.000Z</time>
      </trkpt>
      <trkpt lat="45.87703" lon="4.68434">
        <ele>354.99063</ele>
        <time>2022-08-23T13:02:46.000Z</time>
      </trkpt>
      <trkpt lat="45.87701" lon="4.68433">
        <ele>355.19247</ele>
        <time>2022-08-23T13:02:47.000Z</time>
      </trkpt>
      <trkpt lat="45.87699" lon="4.68433">
        <ele>355.4101</ele>
        <time>2022-08-23T13:02:48.000Z</time>
      </trkpt>
      <trkpt lat="45.87697" lon="4.68432">
        <ele>355.63049</ele>
        <time>2022-08-23T13:02:49.000Z</time>
      </trkpt>
      <trkpt lat="45.87695" lon="4.68431">
        <ele>355.8645</ele>
        <time>2022-08-23T13:02:50.000Z</time>
      </trkpt>
      <trkpt lat="45.87694" lon="4.6843">
        <ele>356.07132</ele>
        <time>2022-08-23T13:02:51.000Z</time>
      </trkpt>
      <trkpt lat="45.8769" lon="4.68428">
        <ele>356.32172</ele>
        <time>2022-08-23T13:02:53.000Z</time>
      </trkpt>
      <trkpt lat="45.87688" lon="4.68427">
        <ele>356.51953</ele>
        <time>2022-08-23T13:02:54.000Z</time>
      </trkpt>
      <trkpt lat="45.87686" lon="4.68427">
        <ele>356.69162</ele>
        <time>2022-08-23T13:02:55.000Z</time>
      </trkpt>
      <trkpt lat="45.87684" lon="4.68426">
        <ele>356.8096</ele>
        <time>2022-08-23T13:02:56.000Z</time>
      </trkpt>
      <trkpt lat="45.87682" lon="4.68425">
        <ele>356.95206</ele>
        <time>2022-08-23T13:02:57.000Z</time>
      </trkpt>
      <trkpt lat="45.87678" lon="4.68424">
        <ele>357.13214</ele>
        <time>2022-08-23T13:02:59.000Z</time>
      </trkpt>
      <trkpt lat="45.87676" lon="4.68424">
        <ele>357.32806</ele>
        <time>2022-08-23T13:03:00.000Z</time>
      </trkpt>
      <trkpt lat="45.87674" lon="4.68424">
        <ele>357.51898</ele>
        <time>2022-08-23T13:03:01.000Z</time>
      </trkpt>
      <trkpt lat="45.87672" lon="4.68424">
        <ele>357.62128</ele>
        <time>2022-08-23T13:03:02.000Z</time>
      </trkpt>
      <trkpt lat="45.87669" lon="4.68423">
        <ele>357.79123</ele>
        <time>2022-08-23T13:03:03.000Z</time>
      </trkpt>
      <trkpt lat="45.87667" lon="4.68422">
        <ele>357.92456</ele>
        <time>2022-08-23T13:03:04.000Z</time>
      </trkpt>
      <trkpt lat="45.87664" lon="4.68421">
        <ele>358.04343</ele>
        <time>2022-08-23T13:03:05.000Z</time>
      </trkpt>
      <trkpt lat="45.87662" lon="4.6842">
        <ele>358.13934</ele>
        <time>2022-08-23T13:03:06.000Z</time>
      </trkpt>
      <trkpt lat="45.8766" lon="4.68419">
        <ele>358.1759</ele>
        <time>2022-08-23T13:03:07.000Z</time>
      </trkpt>
      <trkpt lat="45.87658" lon="4.68417">
        <ele>358.21301</ele>
        <time>2022-08-23T13:03:08.000Z</time>
      </trkpt>
      <trkpt lat="45.87656" lon="4.68415">
        <ele>358.28107</ele>
        <time>2022-08-23T13:03:09.000Z</time>
      </trkpt>
      <trkpt lat="45.87653" lon="4.68413">
        <ele>358.33228</ele>
        <time>2022-08-23T13:03:10.000Z</time>
      </trkpt>
      <trkpt lat="45.87651" lon="4.68412">
        <ele>358.34979</ele>
        <time>2022-08-23T13:03:11.000Z</time>
      </trkpt>
      <trkpt lat="45.87649" lon="4.68411">
        <ele>358.36346</ele>
        <time>2022-08-23T13:03:12.000Z</time>
      </trkpt>
      <trkpt lat="45.87647" lon="4.6841">
        <ele>358.43698</ele>
        <time>2022-08-23T13:03:13.000Z</time>
      </trkpt>
      <trkpt lat="45.87645" lon="4.68409">
        <ele>358.53229</ele>
        <time>2022-08-23T13:03:14.000Z</time>
      </trkpt>
      <trkpt lat="45.87642" lon="4.68408">
        <ele>358.66321</ele>
        <time>2022-08-23T13:03:15.000Z</time>
      </trkpt>
      <trkpt lat="45.87641" lon="4.68407">
        <ele>358.75732</ele>
        <time>2022-08-23T13:03:16.000Z</time>
      </trkpt>
      <trkpt lat="45.87639" lon="4.68405">
        <ele>358.90054</ele>
        <time>2022-08-23T13:03:17.000Z</time>
      </trkpt>
      <trkpt lat="45.87637" lon="4.68404">
        <ele>359.0618</ele>
        <time>2022-08-23T13:03:18.000Z</time>
      </trkpt>
      <trkpt lat="45.87635" lon="4.68403">
        <ele>359.2348</ele>
        <time>2022-08-23T13:03:19.000Z</time>
      </trkpt>
      <trkpt lat="45.87633" lon="4.68402">
        <ele>359.4158</ele>
        <time>2022-08-23T13:03:20.000Z</time>
      </trkpt>
      <trkpt lat="45.8763" lon="4.68401">
        <ele>359.58325</ele>
        <time>2022-08-23T13:03:21.000Z</time>
      </trkpt>
      <trkpt lat="45.87628" lon="4.68399">
        <ele>359.82297</ele>
        <time>2022-08-23T13:03:22.000Z</time>
      </trkpt>
      <trkpt lat="45.87626" lon="4.68398">
        <ele>360.01401</ele>
        <time>2022-08-23T13:03:23.000Z</time>
      </trkpt>
      <trkpt lat="45.87625" lon="4.68396">
        <ele>360.27408</ele>
        <time>2022-08-23T13:03:24.000Z</time>
      </trkpt>
      <trkpt lat="45.87623" lon="4.68394">
        <ele>360.58551</ele>
        <time>2022-08-23T13:03:26.000Z</time>
      </trkpt>
      <trkpt lat="45.87621" lon="4.68392">
        <ele>360.90125</ele>
        <time>2022-08-23T13:03:28.000Z</time>
      </trkpt>
      <trkpt lat="45.8762" lon="4.68389">
        <ele>361.22565</ele>
        <time>2022-08-23T13:03:30.000Z</time>
      </trkpt>
      <trkpt lat="45.87617" lon="4.68387">
        <ele>361.54596</ele>
        <time>2022-08-23T13:03:32.000Z</time>
      </trkpt>
      <trkpt lat="45.87614" lon="4.68388">
        <ele>361.87372</ele>
        <time>2022-08-23T13:03:34.000Z</time>
      </trkpt>
      <trkpt lat="45.87611" lon="4.68387">
        <ele>362.17508</ele>
        <time>2022-08-23T13:03:36.000Z</time>
      </trkpt>
      <trkpt lat="45.8761" lon="4.68385">
        <ele>362.46851</ele>
        <time>2022-08-23T13:03:39.000Z</time>
      </trkpt>
      <trkpt lat="45.87608" lon="4.68385">
        <ele>362.73566</ele>
        <time>2022-08-23T13:03:41.000Z</time>
      </trkpt>
      <trkpt lat="45.87606" lon="4.68386">
        <ele>362.95844</ele>
        <time>2022-08-23T13:03:42.000Z</time>
      </trkpt>
      <trkpt lat="45.87605" lon="4.68388">
        <ele>363.08685</ele>
        <time>2022-08-23T13:03:55.000Z</time>
      </trkpt>
      <trkpt lat="45.87606" lon="4.68391">
        <ele>363.1105</ele>
        <time>2022-08-23T13:06:11.000Z</time>
      </trkpt>
      <trkpt lat="45.87607" lon="4.6839">
        <ele>363.1582</ele>
        <time>2022-08-23T13:06:14.000Z</time>
      </trkpt>
      <trkpt lat="45.87605" lon="4.68391">
        <ele>363.14444</ele>
        <time>2022-08-23T13:06:18.000Z</time>
      </trkpt>
      <trkpt lat="45.87601" lon="4.68392">
        <ele>363.07169</ele>
        <time>2022-08-23T13:06:19.000Z</time>
      </trkpt>
      <trkpt lat="45.87597" lon="4.68393">
        <ele>363.00406</ele>
        <time>2022-08-23T13:06:20.000Z</time>
      </trkpt>
      <trkpt lat="45.87593" lon="4.68393">
        <ele>363.07733</ele>
        <time>2022-08-23T13:06:21.000Z</time>
      </trkpt>
      <trkpt lat="45.87589" lon="4.68393">
        <ele>363.1051</ele>
        <time>2022-08-23T13:06:22.000Z</time>
      </trkpt>
      <trkpt lat="45.87585" lon="4.68394">
        <ele>363.07822</ele>
        <time>2022-08-23T13:06:23.000Z</time>
      </trkpt>
      <trkpt lat="45.87581" lon="4.68393">
        <ele>363.03564</ele>
        <time>2022-08-23T13:06:24.000Z</time>
      </trkpt>
      <trkpt lat="45.87577" lon="4.68393">
        <ele>362.92084</ele>
        <time>2022-08-23T13:06:25.000Z</time>
      </trkpt>
      <trkpt lat="45.87574" lon="4.68393">
        <ele>362.79611</ele>
        <time>2022-08-23T13:06:26.000Z</time>
      </trkpt>
      <trkpt lat="45.87571" lon="4.68393">
        <ele>362.70334</ele>
        <time>2022-08-23T13:06:27.000Z</time>
      </trkpt>
      <trkpt lat="45.87569" lon="4.68394">
        <ele>362.62753</ele>
        <time>2022-08-23T13:06:28.000Z</time>
      </trkpt>
      <trkpt lat="45.87567" lon="4.68395">
        <ele>362.4679</ele>
        <time>2022-08-23T13:06:29.000Z</time>
      </trkpt>
      <trkpt lat="45.87563" lon="4.68395">
        <ele>362.30402</ele>
        <time>2022-08-23T13:06:31.000Z</time>
      </trkpt>
      <trkpt lat="45.8756" lon="4.68395">
        <ele>362.1358</ele>
        <time>2022-08-23T13:06:33.000Z</time>
      </trkpt>
      <trkpt lat="45.87557" lon="4.68396">
        <ele>361.96872</ele>
        <time>2022-08-23T13:06:34.000Z</time>
      </trkpt>
      <trkpt lat="45.87555" lon="4.68397">
        <ele>361.8356</ele>
        <time>2022-08-23T13:06:35.000Z</time>
      </trkpt>
      <trkpt lat="45.87552" lon="4.68398">
        <ele>361.71909</ele>
        <time>2022-08-23T13:06:36.000Z</time>
      </trkpt>
      <trkpt lat="45.87548" lon="4.68399">
        <ele>361.6618</ele>
        <time>2022-08-23T13:06:37.000Z</time>
      </trkpt>
      <trkpt lat="45.87544" lon="4.68399">
        <ele>361.69232</ele>
        <time>2022-08-23T13:06:38.000Z</time>
      </trkpt>
      <trkpt lat="45.8754" lon="4.68399">
        <ele>361.74152</ele>
        <time>2022-08-23T13:06:39.000Z</time>
      </trkpt>
      <trkpt lat="45.87535" lon="4.68399">
        <ele>361.81027</ele>
        <time>2022-08-23T13:06:40.000Z</time>
      </trkpt>
      <trkpt lat="45.87528" lon="4.68402">
        <ele>361.935</ele>
        <time>2022-08-23T13:06:41.000Z</time>
      </trkpt>
      <trkpt lat="45.87523" lon="4.68403">
        <ele>362.00729</ele>
        <time>2022-08-23T13:06:42.000Z</time>
      </trkpt>
      <trkpt lat="45.87519" lon="4.68403">
        <ele>361.92163</ele>
        <time>2022-08-23T13:06:43.000Z</time>
      </trkpt>
      <trkpt lat="45.87516" lon="4.68405">
        <ele>361.89905</ele>
        <time>2022-08-23T13:06:44.000Z</time>
      </trkpt>
      <trkpt lat="45.87521" lon="4.68392">
        <ele>361.90137</ele>
        <time>2022-08-23T13:06:45.000Z</time>
      </trkpt>
      <trkpt lat="45.87523" lon="4.68389">
        <ele>361.93527</ele>
        <time>2022-08-23T13:06:46.000Z</time>
      </trkpt>
      <trkpt lat="45.87526" lon="4.68385">
        <ele>362.03076</ele>
        <time>2022-08-23T13:06:47.000Z</time>
      </trkpt>
      <trkpt lat="45.87531" lon="4.68381">
        <ele>362.0979</ele>
        <time>2022-08-23T13:06:48.000Z</time>
      </trkpt>
      <trkpt lat="45.87536" lon="4.68375">
        <ele>362.17621</ele>
        <time>2022-08-23T13:06:49.000Z</time>
      </trkpt>
      <trkpt lat="45.87541" lon="4.68369">
        <ele>362.22293</ele>
        <time>2022-08-23T13:06:50.000Z</time>
      </trkpt>
      <trkpt lat="45.87545" lon="4.68361">
        <ele>362.32269</ele>
        <time>2022-08-23T13:06:51.000Z</time>
      </trkpt>
      <trkpt lat="45.87551" lon="4.68353">
        <ele>362.4718</ele>
        <time>2022-08-23T13:06:52.000Z</time>
      </trkpt>
      <trkpt lat="45.87555" lon="4.68343">
        <ele>362.68445</ele>
        <time>2022-08-23T13:06:53.000Z</time>
      </trkpt>
      <trkpt lat="45.8756" lon="4.68334">
        <ele>362.87213</ele>
        <time>2022-08-23T13:06:54.000Z</time>
      </trkpt>
      <trkpt lat="45.87565" lon="4.68323">
        <ele>362.98224</ele>
        <time>2022-08-23T13:06:55.000Z</time>
      </trkpt>
      <trkpt lat="45.87566" lon="4.68313">
        <ele>363.02771</ele>
        <time>2022-08-23T13:06:56.000Z</time>
      </trkpt>
      <trkpt lat="45.87568" lon="4.68301">
        <ele>363.05765</ele>
        <time>2022-08-23T13:06:57.000Z</time>
      </trkpt>
      <trkpt lat="45.87571" lon="4.68288">
        <ele>363.02289</ele>
        <time>2022-08-23T13:06:58.000Z</time>
      </trkpt>
      <trkpt lat="45.87571" lon="4.68274">
        <ele>362.97314</ele>
        <time>2022-08-23T13:06:59.000Z</time>
      </trkpt>
      <trkpt lat="45.87572" lon="4.68261">
        <ele>362.91302</ele>
        <time>2022-08-23T13:07:00.000Z</time>
      </trkpt>
      <trkpt lat="45.87575" lon="4.68249">
        <ele>362.71198</ele>
        <time>2022-08-23T13:07:01.000Z</time>
      </trkpt>
      <trkpt lat="45.87576" lon="4.68235">
        <ele>362.40234</ele>
        <time>2022-08-23T13:07:02.000Z</time>
      </trkpt>
      <trkpt lat="45.87579" lon="4.68219">
        <ele>362.09344</ele>
        <time>2022-08-23T13:07:03.000Z</time>
      </trkpt>
      <trkpt lat="45.87581" lon="4.68205">
        <ele>361.71085</ele>
        <time>2022-08-23T13:07:04.000Z</time>
      </trkpt>
      <trkpt lat="45.87583" lon="4.6819">
        <ele>361.26071</ele>
        <time>2022-08-23T13:07:05.000Z</time>
      </trkpt>
      <trkpt lat="45.87586" lon="4.68175">
        <ele>360.76822</ele>
        <time>2022-08-23T13:07:06.000Z</time>
      </trkpt>
      <trkpt lat="45.87589" lon="4.68159">
        <ele>360.19824</ele>
        <time>2022-08-23T13:07:07.000Z</time>
      </trkpt>
      <trkpt lat="45.87591" lon="4.68144">
        <ele>359.60248</ele>
        <time>2022-08-23T13:07:08.000Z</time>
      </trkpt>
      <trkpt lat="45.87592" lon="4.6813">
        <ele>358.89899</ele>
        <time>2022-08-23T13:07:09.000Z</time>
      </trkpt>
      <trkpt lat="45.87595" lon="4.68117">
        <ele>358.19839</ele>
        <time>2022-08-23T13:07:10.000Z</time>
      </trkpt>
      <trkpt lat="45.87597" lon="4.68105">
        <ele>357.49115</ele>
        <time>2022-08-23T13:07:11.000Z</time>
      </trkpt>
      <trkpt lat="45.87599" lon="4.68094">
        <ele>356.70483</ele>
        <time>2022-08-23T13:07:12.000Z</time>
      </trkpt>
      <trkpt lat="45.87601" lon="4.68083">
        <ele>355.82666</ele>
        <time>2022-08-23T13:07:13.000Z</time>
      </trkpt>
      <trkpt lat="45.87603" lon="4.68073">
        <ele>354.94308</ele>
        <time>2022-08-23T13:07:14.000Z</time>
      </trkpt>
      <trkpt lat="45.87604" lon="4.68063">
        <ele>354.0921</ele>
        <time>2022-08-23T13:07:15.000Z</time>
      </trkpt>
      <trkpt lat="45.87605" lon="4.68054">
        <ele>353.25827</ele>
        <time>2022-08-23T13:07:16.000Z</time>
      </trkpt>
      <trkpt lat="45.87606" lon="4.68046">
        <ele>352.41974</ele>
        <time>2022-08-23T13:07:17.000Z</time>
      </trkpt>
      <trkpt lat="45.87607" lon="4.68037">
        <ele>351.62509</ele>
        <time>2022-08-23T13:07:18.000Z</time>
      </trkpt>
      <trkpt lat="45.87608" lon="4.68031">
        <ele>350.82941</ele>
        <time>2022-08-23T13:07:19.000Z</time>
      </trkpt>
      <trkpt lat="45.87609" lon="4.68025">
        <ele>349.9903</ele>
        <time>2022-08-23T13:07:20.000Z</time>
      </trkpt>
      <trkpt lat="45.87611" lon="4.6802">
        <ele>349.25165</ele>
        <time>2022-08-23T13:07:21.000Z</time>
      </trkpt>
      <trkpt lat="45.8761" lon="4.68016">
        <ele>348.633</ele>
        <time>2022-08-23T13:07:22.000Z</time>
      </trkpt>
      <trkpt lat="45.8761" lon="4.68012">
        <ele>348.04831</ele>
        <time>2022-08-23T13:07:23.000Z</time>
      </trkpt>
      <trkpt lat="45.87609" lon="4.6801">
        <ele>347.54062</ele>
        <time>2022-08-23T13:07:24.000Z</time>
      </trkpt>
      <trkpt lat="45.87608" lon="4.68006">
        <ele>347.09644</ele>
        <time>2022-08-23T13:07:25.000Z</time>
      </trkpt>
      <trkpt lat="45.87608" lon="4.68003">
        <ele>346.69672</ele>
        <time>2022-08-23T13:07:26.000Z</time>
      </trkpt>
      <trkpt lat="45.87608" lon="4.68">
        <ele>346.31598</ele>
        <time>2022-08-23T13:07:27.000Z</time>
      </trkpt>
      <trkpt lat="45.87603" lon="4.67999">
        <ele>345.93475</ele>
        <time>2022-08-23T13:07:30.000Z</time>
      </trkpt>
      <trkpt lat="45.87602" lon="4.68003">
        <ele>345.67691</ele>
        <time>2022-08-23T13:07:32.000Z</time>
      </trkpt>
      <trkpt lat="45.87602" lon="4.68005">
        <ele>345.44708</ele>
        <time>2022-08-23T13:07:33.000Z</time>
      </trkpt>
      <trkpt lat="45.87603" lon="4.68009">
        <ele>345.26202</ele>
        <time>2022-08-23T13:07:34.000Z</time>
      </trkpt>
      <trkpt lat="45.87604" lon="4.68011">
        <ele>345.10632</ele>
        <time>2022-08-23T13:07:35.000Z</time>
      </trkpt>
      <trkpt lat="45.87605" lon="4.68014">
        <ele>345.03296</ele>
        <time>2022-08-23T13:07:36.000Z</time>
      </trkpt>
      <trkpt lat="45.87606" lon="4.68017">
        <ele>345.03769</ele>
        <time>2022-08-23T13:07:37.000Z</time>
      </trkpt>
      <trkpt lat="45.87606" lon="4.6802">
        <ele>345.09393</ele>
        <time>2022-08-23T13:07:38.000Z</time>
      </trkpt>
      <trkpt lat="45.87605" lon="4.68024">
        <ele>345.20355</ele>
        <time>2022-08-23T13:07:39.000Z</time>
      </trkpt>
      <trkpt lat="45.87605" lon="4.68027">
        <ele>345.26117</ele>
        <time>2022-08-23T13:07:40.000Z</time>
      </trkpt>
      <trkpt lat="45.87605" lon="4.6803">
        <ele>345.29877</ele>
        <time>2022-08-23T13:07:41.000Z</time>
      </trkpt>
      <trkpt lat="45.87605" lon="4.68033">
        <ele>345.3862</ele>
        <time>2022-08-23T13:07:42.000Z</time>
      </trkpt>
      <trkpt lat="45.87605" lon="4.68037">
        <ele>345.44394</ele>
        <time>2022-08-23T13:07:43.000Z</time>
      </trkpt>
      <trkpt lat="45.87605" lon="4.6804">
        <ele>345.52252</ele>
        <time>2022-08-23T13:07:44.000Z</time>
      </trkpt>
      <trkpt lat="45.87605" lon="4.68044">
        <ele>345.64072</ele>
        <time>2022-08-23T13:07:45.000Z</time>
      </trkpt>
      <trkpt lat="45.87606" lon="4.68047">
        <ele>345.74225</ele>
        <time>2022-08-23T13:07:46.000Z</time>
      </trkpt>
      <trkpt lat="45.87606" lon="4.6805">
        <ele>345.82086</ele>
        <time>2022-08-23T13:07:47.000Z</time>
      </trkpt>
      <trkpt lat="45.87608" lon="4.68051">
        <ele>345.91644</ele>
        <time>2022-08-23T13:07:48.000Z</time>
      </trkpt>
      <trkpt lat="45.8761" lon="4.6805">
        <ele>345.96893</ele>
        <time>2022-08-23T13:07:49.000Z</time>
      </trkpt>
      <trkpt lat="45.87612" lon="4.68046">
        <ele>345.92535</ele>
        <time>2022-08-23T13:07:50.000Z</time>
      </trkpt>
      <trkpt lat="45.87613" lon="4.68042">
        <ele>345.93243</ele>
        <time>2022-08-23T13:07:51.000Z</time>
      </trkpt>
      <trkpt lat="45.87614" lon="4.68038">
        <ele>345.93613</ele>
        <time>2022-08-23T13:07:52.000Z</time>
      </trkpt>
      <trkpt lat="45.87614" lon="4.68034">
        <ele>345.9216</ele>
        <time>2022-08-23T13:07:53.000Z</time>
      </trkpt>
      <trkpt lat="45.87615" lon="4.6803">
        <ele>345.91913</ele>
        <time>2022-08-23T13:07:54.000Z</time>
      </trkpt>
      <trkpt lat="45.87615" lon="4.68027">
        <ele>346.00531</ele>
        <time>2022-08-23T13:07:55.000Z</time>
      </trkpt>
      <trkpt lat="45.87615" lon="4.68023">
        <ele>346.06049</ele>
        <time>2022-08-23T13:07:56.000Z</time>
      </trkpt>
      <trkpt lat="45.87616" lon="4.6802">
        <ele>346.06232</ele>
        <time>2022-08-23T13:07:57.000Z</time>
      </trkpt>
      <trkpt lat="45.87616" lon="4.68016">
        <ele>345.98529</ele>
        <time>2022-08-23T13:07:58.000Z</time>
      </trkpt>
      <trkpt lat="45.87617" lon="4.68012">
        <ele>345.89526</ele>
        <time>2022-08-23T13:07:59.000Z</time>
      </trkpt>
      <trkpt lat="45.87617" lon="4.68009">
        <ele>345.85541</ele>
        <time>2022-08-23T13:08:00.000Z</time>
      </trkpt>
      <trkpt lat="45.87618" lon="4.68006">
        <ele>345.77527</ele>
        <time>2022-08-23T13:08:01.000Z</time>
      </trkpt>
      <trkpt lat="45.87619" lon="4.68003">
        <ele>345.58563</ele>
        <time>2022-08-23T13:08:02.000Z</time>
      </trkpt>
      <trkpt lat="45.87621" lon="4.68">
        <ele>345.51605</ele>
        <time>2022-08-23T13:08:03.000Z</time>
      </trkpt>
      <trkpt lat="45.87623" lon="4.67997">
        <ele>345.44501</ele>
        <time>2022-08-23T13:08:04.000Z</time>
      </trkpt>
      <trkpt lat="45.87624" lon="4.67995">
        <ele>345.32294</ele>
        <time>2022-08-23T13:08:05.000Z</time>
      </trkpt>
      <trkpt lat="45.87625" lon="4.67992">
        <ele>345.19794</ele>
        <time>2022-08-23T13:08:06.000Z</time>
      </trkpt>
      <trkpt lat="45.87627" lon="4.67989">
        <ele>345.06628</ele>
        <time>2022-08-23T13:08:07.000Z</time>
      </trkpt>
      <trkpt lat="45.87629" lon="4.67987">
        <ele>344.9798</ele>
        <time>2022-08-23T13:08:08.000Z</time>
      </trkpt>
      <trkpt lat="45.8763" lon="4.67984">
        <ele>344.9736</ele>
        <time>2022-08-23T13:08:09.000Z</time>
      </trkpt>
      <trkpt lat="45.87631" lon="4.67982">
        <ele>345.03461</ele>
        <time>2022-08-23T13:08:10.000Z</time>
      </trkpt>
      <trkpt lat="45.87632" lon="4.67978">
        <ele>345.05646</ele>
        <time>2022-08-23T13:08:11.000Z</time>
      </trkpt>
      <trkpt lat="45.87633" lon="4.67975">
        <ele>345.0704</ele>
        <time>2022-08-23T13:08:12.000Z</time>
      </trkpt>
      <trkpt lat="45.87634" lon="4.67972">
        <ele>345.12375</ele>
        <time>2022-08-23T13:08:13.000Z</time>
      </trkpt>
      <trkpt lat="45.87635" lon="4.67969">
        <ele>345.18665</ele>
        <time>2022-08-23T13:08:14.000Z</time>
      </trkpt>
      <trkpt lat="45.87636" lon="4.67966">
        <ele>345.14511</ele>
        <time>2022-08-23T13:08:15.000Z</time>
      </trkpt>
      <trkpt lat="45.87637" lon="4.67963">
        <ele>345.13434</ele>
        <time>2022-08-23T13:08:16.000Z</time>
      </trkpt>
      <trkpt lat="45.87638" lon="4.6796">
        <ele>345.13617</ele>
        <time>2022-08-23T13:08:17.000Z</time>
      </trkpt>
      <trkpt lat="45.87638" lon="4.67957">
        <ele>345.13464</ele>
        <time>2022-08-23T13:08:18.000Z</time>
      </trkpt>
      <trkpt lat="45.87639" lon="4.67955">
        <ele>345.06946</ele>
        <time>2022-08-23T13:08:19.000Z</time>
      </trkpt>
      <trkpt lat="45.87641" lon="4.67952">
        <ele>344.95737</ele>
        <time>2022-08-23T13:08:20.000Z</time>
      </trkpt>
      <trkpt lat="45.87642" lon="4.67949">
        <ele>344.91821</ele>
        <time>2022-08-23T13:08:21.000Z</time>
      </trkpt>
      <trkpt lat="45.87642" lon="4.67946">
        <ele>344.98651</ele>
        <time>2022-08-23T13:08:22.000Z</time>
      </trkpt>
      <trkpt lat="45.87643" lon="4.67943">
        <ele>345.20453</ele>
        <time>2022-08-23T13:08:23.000Z</time>
      </trkpt>
      <trkpt lat="45.87645" lon="4.6794">
        <ele>345.40228</ele>
        <time>2022-08-23T13:08:24.000Z</time>
      </trkpt>
      <trkpt lat="45.87646" lon="4.67938">
        <ele>345.61505</ele>
        <time>2022-08-23T13:08:25.000Z</time>
      </trkpt>
      <trkpt lat="45.87648" lon="4.67935">
        <ele>345.83084</ele>
        <time>2022-08-23T13:08:26.000Z</time>
      </trkpt>
      <trkpt lat="45.87649" lon="4.67933">
        <ele>346.06244</ele>
        <time>2022-08-23T13:08:27.000Z</time>
      </trkpt>
      <trkpt lat="45.8765" lon="4.6793">
        <ele>346.25934</ele>
        <time>2022-08-23T13:08:28.000Z</time>
      </trkpt>
      <trkpt lat="45.87651" lon="4.67928">
        <ele>346.37564</ele>
        <time>2022-08-23T13:08:29.000Z</time>
      </trkpt>
      <trkpt lat="45.87652" lon="4.67925">
        <ele>346.54364</ele>
        <time>2022-08-23T13:08:30.000Z</time>
      </trkpt>
      <trkpt lat="45.87653" lon="4.67922">
        <ele>346.70096</ele>
        <time>2022-08-23T13:08:31.000Z</time>
      </trkpt>
      <trkpt lat="45.87654" lon="4.67919">
        <ele>346.84143</ele>
        <time>2022-08-23T13:08:32.000Z</time>
      </trkpt>
      <trkpt lat="45.87655" lon="4.67916">
        <ele>346.95355</ele>
        <time>2022-08-23T13:08:33.000Z</time>
      </trkpt>
      <trkpt lat="45.87655" lon="4.67913">
        <ele>346.96289</ele>
        <time>2022-08-23T13:08:34.000Z</time>
      </trkpt>
      <trkpt lat="45.87657" lon="4.67911">
        <ele>347.08109</ele>
        <time>2022-08-23T13:08:35.000Z</time>
      </trkpt>
      <trkpt lat="45.87658" lon="4.67908">
        <ele>347.19897</ele>
        <time>2022-08-23T13:08:36.000Z</time>
      </trkpt>
      <trkpt lat="45.87659" lon="4.67906">
        <ele>347.33231</ele>
        <time>2022-08-23T13:08:37.000Z</time>
      </trkpt>
      <trkpt lat="45.87661" lon="4.67903">
        <ele>347.52469</ele>
        <time>2022-08-23T13:08:38.000Z</time>
      </trkpt>
      <trkpt lat="45.87662" lon="4.679">
        <ele>347.74789</ele>
        <time>2022-08-23T13:08:39.000Z</time>
      </trkpt>
      <trkpt lat="45.87663" lon="4.67898">
        <ele>347.98434</ele>
        <time>2022-08-23T13:08:40.000Z</time>
      </trkpt>
      <trkpt lat="45.87664" lon="4.67895">
        <ele>348.21951</ele>
        <time>2022-08-23T13:08:41.000Z</time>
      </trkpt>
      <trkpt lat="45.87664" lon="4.67892">
        <ele>348.40179</ele>
        <time>2022-08-23T13:08:42.000Z</time>
      </trkpt>
      <trkpt lat="45.87665" lon="4.67889">
        <ele>348.44061</ele>
        <time>2022-08-23T13:08:43.000Z</time>
      </trkpt>
      <trkpt lat="45.87666" lon="4.67885">
        <ele>348.49005</ele>
        <time>2022-08-23T13:08:44.000Z</time>
      </trkpt>
      <trkpt lat="45.87667" lon="4.67882">
        <ele>348.56235</ele>
        <time>2022-08-23T13:08:45.000Z</time>
      </trkpt>
      <trkpt lat="45.87668" lon="4.67879">
        <ele>348.62076</ele>
        <time>2022-08-23T13:08:46.000Z</time>
      </trkpt>
      <trkpt lat="45.8767" lon="4.67876">
        <ele>348.677</ele>
        <time>2022-08-23T13:08:47.000Z</time>
      </trkpt>
      <trkpt lat="45.87671" lon="4.67873">
        <ele>348.7225</ele>
        <time>2022-08-23T13:08:48.000Z</time>
      </trkpt>
      <trkpt lat="45.87672" lon="4.67871">
        <ele>348.78784</ele>
        <time>2022-08-23T13:08:49.000Z</time>
      </trkpt>
      <trkpt lat="45.87674" lon="4.67869">
        <ele>348.87772</ele>
        <time>2022-08-23T13:08:50.000Z</time>
      </trkpt>
      <trkpt lat="45.87676" lon="4.67867">
        <ele>348.93457</ele>
        <time>2022-08-23T13:08:51.000Z</time>
      </trkpt>
      <trkpt lat="45.87678" lon="4.67865">
        <ele>348.99548</ele>
        <time>2022-08-23T13:08:52.000Z</time>
      </trkpt>
      <trkpt lat="45.8768" lon="4.67864">
        <ele>349.09549</ele>
        <time>2022-08-23T13:08:53.000Z</time>
      </trkpt>
      <trkpt lat="45.87681" lon="4.67863">
        <ele>349.25189</ele>
        <time>2022-08-23T13:08:54.000Z</time>
      </trkpt>
      <trkpt lat="45.87683" lon="4.67863">
        <ele>349.28687</ele>
        <time>2022-08-23T13:08:55.000Z</time>
      </trkpt>
      <trkpt lat="45.87686" lon="4.67863">
        <ele>349.38559</ele>
        <time>2022-08-23T13:08:56.000Z</time>
      </trkpt>
      <trkpt lat="45.87688" lon="4.67863">
        <ele>349.45255</ele>
        <time>2022-08-23T13:08:57.000Z</time>
      </trkpt>
      <trkpt lat="45.8769" lon="4.67863">
        <ele>349.54709</ele>
        <time>2022-08-23T13:08:58.000Z</time>
      </trkpt>
      <trkpt lat="45.87692" lon="4.67862">
        <ele>349.64227</ele>
        <time>2022-08-23T13:08:59.000Z</time>
      </trkpt>
      <trkpt lat="45.87694" lon="4.67861">
        <ele>349.72693</ele>
        <time>2022-08-23T13:09:00.000Z</time>
      </trkpt>
      <trkpt lat="45.87695" lon="4.67861">
        <ele>349.81512</ele>
        <time>2022-08-23T13:09:01.000Z</time>
      </trkpt>
      <trkpt lat="45.87697" lon="4.6786">
        <ele>349.8801</ele>
        <time>2022-08-23T13:09:02.000Z</time>
      </trkpt>
      <trkpt lat="45.877" lon="4.67859">
        <ele>349.98447</ele>
        <time>2022-08-23T13:09:03.000Z</time>
      </trkpt>
      <trkpt lat="45.87702" lon="4.67859">
        <ele>350.20065</ele>
        <time>2022-08-23T13:09:04.000Z</time>
      </trkpt>
      <trkpt lat="45.87704" lon="4.67858">
        <ele>350.33975</ele>
        <time>2022-08-23T13:09:05.000Z</time>
      </trkpt>
      <trkpt lat="45.87706" lon="4.67857">
        <ele>350.46725</ele>
        <time>2022-08-23T13:09:06.000Z</time>
      </trkpt>
      <trkpt lat="45.87708" lon="4.67857">
        <ele>350.59406</ele>
        <time>2022-08-23T13:09:07.000Z</time>
      </trkpt>
      <trkpt lat="45.8771" lon="4.67856">
        <ele>350.78116</ele>
        <time>2022-08-23T13:09:08.000Z</time>
      </trkpt>
      <trkpt lat="45.87712" lon="4.67856">
        <ele>350.94089</ele>
        <time>2022-08-23T13:09:09.000Z</time>
      </trkpt>
      <trkpt lat="45.87714" lon="4.67855">
        <ele>351.07114</ele>
        <time>2022-08-23T13:09:10.000Z</time>
      </trkpt>
      <trkpt lat="45.87716" lon="4.67854">
        <ele>351.30084</ele>
        <time>2022-08-23T13:09:11.000Z</time>
      </trkpt>
      <trkpt lat="45.87718" lon="4.67853">
        <ele>351.52823</ele>
        <time>2022-08-23T13:09:12.000Z</time>
      </trkpt>
      <trkpt lat="45.8772" lon="4.67852">
        <ele>351.77567</ele>
        <time>2022-08-23T13:09:13.000Z</time>
      </trkpt>
      <trkpt lat="45.87722" lon="4.67852">
        <ele>352.10263</ele>
        <time>2022-08-23T13:09:14.000Z</time>
      </trkpt>
      <trkpt lat="45.87724" lon="4.67852">
        <ele>352.41901</ele>
        <time>2022-08-23T13:09:15.000Z</time>
      </trkpt>
      <trkpt lat="45.87727" lon="4.67851">
        <ele>352.66797</ele>
        <time>2022-08-23T13:09:17.000Z</time>
      </trkpt>
      <trkpt lat="45.87731" lon="4.67849">
        <ele>352.97852</ele>
        <time>2022-08-23T13:09:19.000Z</time>
      </trkpt>
      <trkpt lat="45.87733" lon="4.67848">
        <ele>353.2511</ele>
        <time>2022-08-23T13:09:20.000Z</time>
      </trkpt>
      <trkpt lat="45.87736" lon="4.67848">
        <ele>353.55408</ele>
        <time>2022-08-23T13:09:21.000Z</time>
      </trkpt>
      <trkpt lat="45.87738" lon="4.67847">
        <ele>353.86911</ele>
        <time>2022-08-23T13:09:22.000Z</time>
      </trkpt>
      <trkpt lat="45.8774" lon="4.67846">
        <ele>354.53448</ele>
        <time>2022-08-23T13:09:23.000Z</time>
      </trkpt>
      <trkpt lat="45.87742" lon="4.67845">
        <ele>355.17438</ele>
        <time>2022-08-23T13:09:24.000Z</time>
      </trkpt>
      <trkpt lat="45.87744" lon="4.67844">
        <ele>355.7327</ele>
        <time>2022-08-23T13:09:25.000Z</time>
      </trkpt>
      <trkpt lat="45.87747" lon="4.67844">
        <ele>356.15497</ele>
        <time>2022-08-23T13:09:26.000Z</time>
      </trkpt>
      <trkpt lat="45.87749" lon="4.67843">
        <ele>356.59869</ele>
        <time>2022-08-23T13:09:27.000Z</time>
      </trkpt>
      <trkpt lat="45.87752" lon="4.67842">
        <ele>357.05997</ele>
        <time>2022-08-23T13:09:28.000Z</time>
      </trkpt>
      <trkpt lat="45.87754" lon="4.67841">
        <ele>357.5231</ele>
        <time>2022-08-23T13:09:29.000Z</time>
      </trkpt>
      <trkpt lat="45.87756" lon="4.6784">
        <ele>357.98779</ele>
        <time>2022-08-23T13:09:30.000Z</time>
      </trkpt>
      <trkpt lat="45.87759" lon="4.67839">
        <ele>358.49991</ele>
        <time>2022-08-23T13:09:31.000Z</time>
      </trkpt>
      <trkpt lat="45.87761" lon="4.67838">
        <ele>358.99225</ele>
        <time>2022-08-23T13:09:32.000Z</time>
      </trkpt>
      <trkpt lat="45.87763" lon="4.67837">
        <ele>359.42249</ele>
        <time>2022-08-23T13:09:33.000Z</time>
      </trkpt>
      <trkpt lat="45.87766" lon="4.67837">
        <ele>359.87848</ele>
        <time>2022-08-23T13:09:34.000Z</time>
      </trkpt>
      <trkpt lat="45.87768" lon="4.67836">
        <ele>360.2746</ele>
        <time>2022-08-23T13:09:35.000Z</time>
      </trkpt>
      <trkpt lat="45.8777" lon="4.67836">
        <ele>360.52676</ele>
        <time>2022-08-23T13:09:36.000Z</time>
      </trkpt>
      <trkpt lat="45.87772" lon="4.67835">
        <ele>360.86542</ele>
        <time>2022-08-23T13:09:37.000Z</time>
      </trkpt>
      <trkpt lat="45.87775" lon="4.67834">
        <ele>361.207</ele>
        <time>2022-08-23T13:09:38.000Z</time>
      </trkpt>
      <trkpt lat="45.87777" lon="4.67833">
        <ele>361.53656</ele>
        <time>2022-08-23T13:09:39.000Z</time>
      </trkpt>
      <trkpt lat="45.8778" lon="4.67832">
        <ele>361.8793</ele>
        <time>2022-08-23T13:09:40.000Z</time>
      </trkpt>
      <trkpt lat="45.87782" lon="4.67831">
        <ele>362.22922</ele>
        <time>2022-08-23T13:09:41.000Z</time>
      </trkpt>
      <trkpt lat="45.87784" lon="4.6783">
        <ele>362.59125</ele>
        <time>2022-08-23T13:09:42.000Z</time>
      </trkpt>
      <trkpt lat="45.87787" lon="4.6783">
        <ele>362.54697</ele>
        <time>2022-08-23T13:09:43.000Z</time>
      </trkpt>
      <trkpt lat="45.87789" lon="4.67829">
        <ele>362.63284</ele>
        <time>2022-08-23T13:09:44.000Z</time>
      </trkpt>
      <trkpt lat="45.87791" lon="4.67829">
        <ele>362.70309</ele>
        <time>2022-08-23T13:09:45.000Z</time>
      </trkpt>
      <trkpt lat="45.87793" lon="4.67828">
        <ele>362.81543</ele>
        <time>2022-08-23T13:09:46.000Z</time>
      </trkpt>
      <trkpt lat="45.87795" lon="4.67827">
        <ele>363.02225</ele>
        <time>2022-08-23T13:09:47.000Z</time>
      </trkpt>
      <trkpt lat="45.87797" lon="4.67827">
        <ele>363.25967</ele>
        <time>2022-08-23T13:09:48.000Z</time>
      </trkpt>
      <trkpt lat="45.87799" lon="4.67827">
        <ele>363.47302</ele>
        <time>2022-08-23T13:09:49.000Z</time>
      </trkpt>
      <trkpt lat="45.87801" lon="4.67826">
        <ele>363.66043</ele>
        <time>2022-08-23T13:09:50.000Z</time>
      </trkpt>
      <trkpt lat="45.87803" lon="4.67826">
        <ele>363.8797</ele>
        <time>2022-08-23T13:09:51.000Z</time>
      </trkpt>
      <trkpt lat="45.87805" lon="4.67826">
        <ele>364.08499</ele>
        <time>2022-08-23T13:09:52.000Z</time>
      </trkpt>
      <trkpt lat="45.87807" lon="4.67825">
        <ele>364.31998</ele>
        <time>2022-08-23T13:09:53.000Z</time>
      </trkpt>
      <trkpt lat="45.87809" lon="4.67825">
        <ele>364.58136</ele>
        <time>2022-08-23T13:09:54.000Z</time>
      </trkpt>
      <trkpt lat="45.87811" lon="4.67825">
        <ele>364.85837</ele>
        <time>2022-08-23T13:09:55.000Z</time>
      </trkpt>
      <trkpt lat="45.87813" lon="4.67825">
        <ele>365.16486</ele>
        <time>2022-08-23T13:09:56.000Z</time>
      </trkpt>
      <trkpt lat="45.87815" lon="4.67825">
        <ele>365.50494</ele>
        <time>2022-08-23T13:09:57.000Z</time>
      </trkpt>
      <trkpt lat="45.87817" lon="4.67824">
        <ele>365.86221</ele>
        <time>2022-08-23T13:09:58.000Z</time>
      </trkpt>
      <trkpt lat="45.8782" lon="4.67824">
        <ele>366.1843</ele>
        <time>2022-08-23T13:09:59.000Z</time>
      </trkpt>
      <trkpt lat="45.87822" lon="4.67824">
        <ele>366.45834</ele>
        <time>2022-08-23T13:10:00.000Z</time>
      </trkpt>
      <trkpt lat="45.87824" lon="4.67823">
        <ele>366.78934</ele>
        <time>2022-08-23T13:10:01.000Z</time>
      </trkpt>
      <trkpt lat="45.87826" lon="4.67823">
        <ele>367.08377</ele>
        <time>2022-08-23T13:10:02.000Z</time>
      </trkpt>
      <trkpt lat="45.87828" lon="4.67822">
        <ele>367.43231</ele>
        <time>2022-08-23T13:10:03.000Z</time>
      </trkpt>
      <trkpt lat="45.8783" lon="4.67822">
        <ele>367.79254</ele>
        <time>2022-08-23T13:10:04.000Z</time>
      </trkpt>
      <trkpt lat="45.87832" lon="4.67822">
        <ele>368.15472</ele>
        <time>2022-08-23T13:10:05.000Z</time>
      </trkpt>
      <trkpt lat="45.87834" lon="4.67821">
        <ele>368.49182</ele>
        <time>2022-08-23T13:10:06.000Z</time>
      </trkpt>
      <trkpt lat="45.87837" lon="4.6782">
        <ele>368.72025</ele>
        <time>2022-08-23T13:10:08.000Z</time>
      </trkpt>
      <trkpt lat="45.87839" lon="4.67819">
        <ele>368.86108</ele>
        <time>2022-08-23T13:10:10.000Z</time>
      </trkpt>
      <trkpt lat="45.8784" lon="4.67816">
        <ele>368.92157</ele>
        <time>2022-08-23T13:10:39.000Z</time>
      </trkpt>
      <trkpt lat="45.87842" lon="4.67814">
        <ele>368.94354</ele>
        <time>2022-08-23T13:10:41.000Z</time>
      </trkpt>
      <trkpt lat="45.87844" lon="4.67811">
        <ele>368.91064</ele>
        <time>2022-08-23T13:10:43.000Z</time>
      </trkpt>
      <trkpt lat="45.87846" lon="4.67808">
        <ele>368.85638</ele>
        <time>2022-08-23T13:10:45.000Z</time>
      </trkpt>
      <trkpt lat="45.87848" lon="4.67806">
        <ele>368.83206</ele>
        <time>2022-08-23T13:10:47.000Z</time>
      </trkpt>
      <trkpt lat="45.8785" lon="4.67803">
        <ele>368.71094</ele>
        <time>2022-08-23T13:10:49.000Z</time>
      </trkpt>
      <trkpt lat="45.87852" lon="4.67801">
        <ele>368.64175</ele>
        <time>2022-08-23T13:10:51.000Z</time>
      </trkpt>
      <trkpt lat="45.87855" lon="4.67798">
        <ele>368.55984</ele>
        <time>2022-08-23T13:10:53.000Z</time>
      </trkpt>
      <trkpt lat="45.87857" lon="4.67795">
        <ele>368.37003</ele>
        <time>2022-08-23T13:10:55.000Z</time>
      </trkpt>
      <trkpt lat="45.87858" lon="4.6779">
        <ele>368.12259</ele>
        <time>2022-08-23T13:10:57.000Z</time>
      </trkpt>
      <trkpt lat="45.87858" lon="4.67787">
        <ele>367.82065</ele>
        <time>2022-08-23T13:10:59.000Z</time>
      </trkpt>
      <trkpt lat="45.87857" lon="4.67785">
        <ele>367.52161</ele>
        <time>2022-08-23T13:11:01.000Z</time>
      </trkpt>
      <trkpt lat="45.87856" lon="4.67782">
        <ele>367.15448</ele>
        <time>2022-08-23T13:11:04.000Z</time>
      </trkpt>
      <trkpt lat="45.87854" lon="4.67781">
        <ele>366.88095</ele>
        <time>2022-08-23T13:11:09.000Z</time>
      </trkpt>
      <trkpt lat="45.87852" lon="4.6778">
        <ele>366.75153</ele>
        <time>2022-08-23T13:11:31.000Z</time>
      </trkpt>
      <trkpt lat="45.8785" lon="4.67779">
        <ele>366.46732</ele>
        <time>2022-08-23T13:11:32.000Z</time>
      </trkpt>
      <trkpt lat="45.87848" lon="4.67777">
        <ele>366.24646</ele>
        <time>2022-08-23T13:11:33.000Z</time>
      </trkpt>
      <trkpt lat="45.87846" lon="4.67776">
        <ele>366.02588</ele>
        <time>2022-08-23T13:11:34.000Z</time>
      </trkpt>
      <trkpt lat="45.87844" lon="4.67774">
        <ele>365.91241</ele>
        <time>2022-08-23T13:11:35.000Z</time>
      </trkpt>
      <trkpt lat="45.87842" lon="4.67773">
        <ele>365.87708</ele>
        <time>2022-08-23T13:11:36.000Z</time>
      </trkpt>
      <trkpt lat="45.8784" lon="4.67771">
        <ele>366.06592</ele>
        <time>2022-08-23T13:11:37.000Z</time>
      </trkpt>
      <trkpt lat="45.87837" lon="4.6777">
        <ele>366.23978</ele>
        <time>2022-08-23T13:11:38.000Z</time>
      </trkpt>
      <trkpt lat="45.87835" lon="4.67768">
        <ele>366.44824</ele>
        <time>2022-08-23T13:11:39.000Z</time>
      </trkpt>
      <trkpt lat="45.87833" lon="4.67766">
        <ele>366.67621</ele>
        <time>2022-08-23T13:11:40.000Z</time>
      </trkpt>
      <trkpt lat="45.87831" lon="4.67765">
        <ele>366.89868</ele>
        <time>2022-08-23T13:11:41.000Z</time>
      </trkpt>
      <trkpt lat="45.8783" lon="4.67762">
        <ele>367.31537</ele>
        <time>2022-08-23T13:11:43.000Z</time>
      </trkpt>
      <trkpt lat="45.87832" lon="4.67761">
        <ele>367.70004</ele>
        <time>2022-08-23T13:11:45.000Z</time>
      </trkpt>
      <trkpt lat="45.87835" lon="4.67761">
        <ele>368.12094</ele>
        <time>2022-08-23T13:11:47.000Z</time>
      </trkpt>
      <trkpt lat="45.87838" lon="4.67762">
        <ele>368.57999</ele>
        <time>2022-08-23T13:11:49.000Z</time>
      </trkpt>
      <trkpt lat="45.87841" lon="4.67762">
        <ele>369.05057</ele>
        <time>2022-08-23T13:11:51.000Z</time>
      </trkpt>
      <trkpt lat="45.87843" lon="4.67761">
        <ele>369.58667</ele>
        <time>2022-08-23T13:11:53.000Z</time>
      </trkpt>
      <trkpt lat="45.87847" lon="4.67761">
        <ele>370.11127</ele>
        <time>2022-08-23T13:11:55.000Z</time>
      </trkpt>
      <trkpt lat="45.8785" lon="4.6776">
        <ele>370.67374</ele>
        <time>2022-08-23T13:11:57.000Z</time>
      </trkpt>
      <trkpt lat="45.87852" lon="4.6776">
        <ele>371.16513</ele>
        <time>2022-08-23T13:11:58.000Z</time>
      </trkpt>
      <trkpt lat="45.87856" lon="4.6776">
        <ele>371.51575</ele>
        <time>2022-08-23T13:12:00.000Z</time>
      </trkpt>
      <trkpt lat="45.87859" lon="4.6776">
        <ele>371.98636</ele>
        <time>2022-08-23T13:12:02.000Z</time>
      </trkpt>
      <trkpt lat="45.87861" lon="4.6776">
        <ele>372.43707</ele>
        <time>2022-08-23T13:12:03.000Z</time>
      </trkpt>
      <trkpt lat="45.87863" lon="4.67761">
        <ele>372.9281</ele>
        <time>2022-08-23T13:12:04.000Z</time>
      </trkpt>
      <trkpt lat="45.87866" lon="4.67761">
        <ele>373.33087</ele>
        <time>2022-08-23T13:12:05.000Z</time>
      </trkpt>
      <trkpt lat="45.87868" lon="4.67761">
        <ele>373.73654</ele>
        <time>2022-08-23T13:12:06.000Z</time>
      </trkpt>
      <trkpt lat="45.87871" lon="4.67759">
        <ele>373.98395</ele>
        <time>2022-08-23T13:12:08.000Z</time>
      </trkpt>
      <trkpt lat="45.87872" lon="4.67757">
        <ele>374.25497</ele>
        <time>2022-08-23T13:12:09.000Z</time>
      </trkpt>
      <trkpt lat="45.87875" lon="4.67754">
        <ele>374.46115</ele>
        <time>2022-08-23T13:12:11.000Z</time>
      </trkpt>
      <trkpt lat="45.87877" lon="4.6775">
        <ele>374.66479</ele>
        <time>2022-08-23T13:12:13.000Z</time>
      </trkpt>
      <trkpt lat="45.87879" lon="4.67745">
        <ele>374.84222</ele>
        <time>2022-08-23T13:12:15.000Z</time>
      </trkpt>
      <trkpt lat="45.8788" lon="4.67741">
        <ele>374.9032</ele>
        <time>2022-08-23T13:12:17.000Z</time>
      </trkpt>
      <trkpt lat="45.87881" lon="4.67736">
        <ele>374.92722</ele>
        <time>2022-08-23T13:12:19.000Z</time>
      </trkpt>
      <trkpt lat="45.87881" lon="4.67733">
        <ele>374.92755</ele>
        <time>2022-08-23T13:12:20.000Z</time>
      </trkpt>
      <trkpt lat="45.8788" lon="4.6773">
        <ele>374.90634</ele>
        <time>2022-08-23T13:12:21.000Z</time>
      </trkpt>
      <trkpt lat="45.8788" lon="4.67728">
        <ele>374.87323</ele>
        <time>2022-08-23T13:12:22.000Z</time>
      </trkpt>
      <trkpt lat="45.87878" lon="4.67725">
        <ele>374.84753</ele>
        <time>2022-08-23T13:12:23.000Z</time>
      </trkpt>
      <trkpt lat="45.87876" lon="4.67723">
        <ele>374.79669</ele>
        <time>2022-08-23T13:12:24.000Z</time>
      </trkpt>
      <trkpt lat="45.87874" lon="4.67722">
        <ele>374.6821</ele>
        <time>2022-08-23T13:12:25.000Z</time>
      </trkpt>
      <trkpt lat="45.87872" lon="4.67721">
        <ele>374.59497</ele>
        <time>2022-08-23T13:12:26.000Z</time>
      </trkpt>
      <trkpt lat="45.8787" lon="4.6772">
        <ele>374.52399</ele>
        <time>2022-08-23T13:12:27.000Z</time>
      </trkpt>
      <trkpt lat="45.87868" lon="4.67719">
        <ele>374.37958</ele>
        <time>2022-08-23T13:12:28.000Z</time>
      </trkpt>
      <trkpt lat="45.87866" lon="4.67719">
        <ele>374.21283</ele>
        <time>2022-08-23T13:12:29.000Z</time>
      </trkpt>
      <trkpt lat="45.87864" lon="4.67718">
        <ele>373.99442</ele>
        <time>2022-08-23T13:12:30.000Z</time>
      </trkpt>
      <trkpt lat="45.87862" lon="4.67718">
        <ele>373.81573</ele>
        <time>2022-08-23T13:12:31.000Z</time>
      </trkpt>
      <trkpt lat="45.8786" lon="4.67717">
        <ele>373.63739</ele>
        <time>2022-08-23T13:12:32.000Z</time>
      </trkpt>
      <trkpt lat="45.87858" lon="4.67717">
        <ele>373.49921</ele>
        <time>2022-08-23T13:12:33.000Z</time>
      </trkpt>
      <trkpt lat="45.87856" lon="4.67716">
        <ele>373.37146</ele>
        <time>2022-08-23T13:12:34.000Z</time>
      </trkpt>
      <trkpt lat="45.87854" lon="4.67716">
        <ele>373.24228</ele>
        <time>2022-08-23T13:12:35.000Z</time>
      </trkpt>
      <trkpt lat="45.8785" lon="4.67716">
        <ele>373.3017</ele>
        <time>2022-08-23T13:12:37.000Z</time>
      </trkpt>
      <trkpt lat="45.87847" lon="4.67715">
        <ele>373.32465</ele>
        <time>2022-08-23T13:12:38.000Z</time>
      </trkpt>
      <trkpt lat="45.87844" lon="4.67715">
        <ele>373.28729</ele>
        <time>2022-08-23T13:12:39.000Z</time>
      </trkpt>
      <trkpt lat="45.87841" lon="4.67714">
        <ele>373.27899</ele>
        <time>2022-08-23T13:12:40.000Z</time>
      </trkpt>
      <trkpt lat="45.87838" lon="4.67713">
        <ele>373.25018</ele>
        <time>2022-08-23T13:12:41.000Z</time>
      </trkpt>
      <trkpt lat="45.87834" lon="4.67712">
        <ele>373.36121</ele>
        <time>2022-08-23T13:12:42.000Z</time>
      </trkpt>
      <trkpt lat="45.87831" lon="4.67711">
        <ele>373.41922</ele>
        <time>2022-08-23T13:12:43.000Z</time>
      </trkpt>
      <trkpt lat="45.87827" lon="4.67709">
        <ele>373.4306</ele>
        <time>2022-08-23T13:12:44.000Z</time>
      </trkpt>
      <trkpt lat="45.87824" lon="4.67708">
        <ele>373.48489</ele>
        <time>2022-08-23T13:12:45.000Z</time>
      </trkpt>
      <trkpt lat="45.87821" lon="4.67707">
        <ele>373.55228</ele>
        <time>2022-08-23T13:12:46.000Z</time>
      </trkpt>
      <trkpt lat="45.87818" lon="4.67707">
        <ele>373.58722</ele>
        <time>2022-08-23T13:12:47.000Z</time>
      </trkpt>
      <trkpt lat="45.87815" lon="4.67706">
        <ele>373.60187</ele>
        <time>2022-08-23T13:12:48.000Z</time>
      </trkpt>
      <trkpt lat="45.87812" lon="4.67705">
        <ele>373.66568</ele>
        <time>2022-08-23T13:12:49.000Z</time>
      </trkpt>
      <trkpt lat="45.8781" lon="4.67705">
        <ele>373.76938</ele>
        <time>2022-08-23T13:12:50.000Z</time>
      </trkpt>
      <trkpt lat="45.87808" lon="4.67705">
        <ele>373.89267</ele>
        <time>2022-08-23T13:12:51.000Z</time>
      </trkpt>
      <trkpt lat="45.87806" lon="4.67706">
        <ele>373.96652</ele>
        <time>2022-08-23T13:12:52.000Z</time>
      </trkpt>
      <trkpt lat="45.87804" lon="4.67707">
        <ele>373.983</ele>
        <time>2022-08-23T13:12:53.000Z</time>
      </trkpt>
      <trkpt lat="45.87802" lon="4.67709">
        <ele>373.98315</ele>
        <time>2022-08-23T13:12:54.000Z</time>
      </trkpt>
      <trkpt lat="45.878" lon="4.67711">
        <ele>373.9906</ele>
        <time>2022-08-23T13:12:55.000Z</time>
      </trkpt>
      <trkpt lat="45.87797" lon="4.67713">
        <ele>373.93723</ele>
        <time>2022-08-23T13:12:56.000Z</time>
      </trkpt>
      <trkpt lat="45.87794" lon="4.67716">
        <ele>373.86389</ele>
        <time>2022-08-23T13:12:57.000Z</time>
      </trkpt>
      <trkpt lat="45.87792" lon="4.67718">
        <ele>373.75229</ele>
        <time>2022-08-23T13:12:58.000Z</time>
      </trkpt>
      <trkpt lat="45.8779" lon="4.67719">
        <ele>373.62778</ele>
        <time>2022-08-23T13:12:59.000Z</time>
      </trkpt>
      <trkpt lat="45.87788" lon="4.67721">
        <ele>373.48709</ele>
        <time>2022-08-23T13:13:00.000Z</time>
      </trkpt>
      <trkpt lat="45.87786" lon="4.67722">
        <ele>373.42221</ele>
        <time>2022-08-23T13:13:01.000Z</time>
      </trkpt>
      <trkpt lat="45.87784" lon="4.67723">
        <ele>373.24286</ele>
        <time>2022-08-23T13:13:02.000Z</time>
      </trkpt>
      <trkpt lat="45.87782" lon="4.67725">
        <ele>373.15311</ele>
        <time>2022-08-23T13:13:03.000Z</time>
      </trkpt>
      <trkpt lat="45.8778" lon="4.67727">
        <ele>373.11459</ele>
        <time>2022-08-23T13:13:04.000Z</time>
      </trkpt>
      <trkpt lat="45.87778" lon="4.67729">
        <ele>373.10101</ele>
        <time>2022-08-23T13:13:05.000Z</time>
      </trkpt>
      <trkpt lat="45.87774" lon="4.67732">
        <ele>373.08725</ele>
        <time>2022-08-23T13:13:06.000Z</time>
      </trkpt>
      <trkpt lat="45.8777" lon="4.67733">
        <ele>373.08365</ele>
        <time>2022-08-23T13:13:07.000Z</time>
      </trkpt>
      <trkpt lat="45.87766" lon="4.67732">
        <ele>373.05569</ele>
        <time>2022-08-23T13:13:08.000Z</time>
      </trkpt>
      <trkpt lat="45.87762" lon="4.6773">
        <ele>372.99548</ele>
        <time>2022-08-23T13:13:09.000Z</time>
      </trkpt>
      <trkpt lat="45.87758" lon="4.67728">
        <ele>372.95392</ele>
        <time>2022-08-23T13:13:10.000Z</time>
      </trkpt>
      <trkpt lat="45.87755" lon="4.67726">
        <ele>372.88849</ele>
        <time>2022-08-23T13:13:11.000Z</time>
      </trkpt>
      <trkpt lat="45.87751" lon="4.67725">
        <ele>372.86081</ele>
        <time>2022-08-23T13:13:12.000Z</time>
      </trkpt>
      <trkpt lat="45.87748" lon="4.67724">
        <ele>372.89642</ele>
        <time>2022-08-23T13:13:13.000Z</time>
      </trkpt>
      <trkpt lat="45.87744" lon="4.67722">
        <ele>372.96313</ele>
        <time>2022-08-23T13:13:14.000Z</time>
      </trkpt>
      <trkpt lat="45.87741" lon="4.67721">
        <ele>372.9671</ele>
        <time>2022-08-23T13:13:15.000Z</time>
      </trkpt>
      <trkpt lat="45.87738" lon="4.67719">
        <ele>373.06818</ele>
        <time>2022-08-23T13:13:16.000Z</time>
      </trkpt>
      <trkpt lat="45.87736" lon="4.67718">
        <ele>372.97858</ele>
        <time>2022-08-23T13:13:17.000Z</time>
      </trkpt>
      <trkpt lat="45.87734" lon="4.67719">
        <ele>372.90604</ele>
        <time>2022-08-23T13:13:40.000Z</time>
      </trkpt>
      <trkpt lat="45.87734" lon="4.67722">
        <ele>372.91791</ele>
        <time>2022-08-23T13:13:42.000Z</time>
      </trkpt>
      <trkpt lat="45.87738" lon="4.67724">
        <ele>372.95737</ele>
        <time>2022-08-23T13:13:44.000Z</time>
      </trkpt>
      <trkpt lat="45.8774" lon="4.67724">
        <ele>372.94107</ele>
        <time>2022-08-23T13:13:45.000Z</time>
      </trkpt>
      <trkpt lat="45.87742" lon="4.67725">
        <ele>372.90732</ele>
        <time>2022-08-23T13:13:46.000Z</time>
      </trkpt>
      <trkpt lat="45.87744" lon="4.67725">
        <ele>372.87979</ele>
        <time>2022-08-23T13:13:47.000Z</time>
      </trkpt>
      <trkpt lat="45.87746" lon="4.67725">
        <ele>372.82782</ele>
        <time>2022-08-23T13:13:48.000Z</time>
      </trkpt>
      <trkpt lat="45.87748" lon="4.67725">
        <ele>372.78976</ele>
        <time>2022-08-23T13:13:49.000Z</time>
      </trkpt>
      <trkpt lat="45.8775" lon="4.67726">
        <ele>372.79388</ele>
        <time>2022-08-23T13:13:50.000Z</time>
      </trkpt>
      <trkpt lat="45.87752" lon="4.67726">
        <ele>372.80084</ele>
        <time>2022-08-23T13:13:51.000Z</time>
      </trkpt>
      <trkpt lat="45.87754" lon="4.67727">
        <ele>372.79755</ele>
        <time>2022-08-23T13:13:52.000Z</time>
      </trkpt>
      <trkpt lat="45.87756" lon="4.67728">
        <ele>372.78586</ele>
        <time>2022-08-23T13:13:53.000Z</time>
      </trkpt>
      <trkpt lat="45.87758" lon="4.67729">
        <ele>372.73819</ele>
        <time>2022-08-23T13:13:54.000Z</time>
      </trkpt>
      <trkpt lat="45.8776" lon="4.67729">
        <ele>372.67975</ele>
        <time>2022-08-23T13:13:55.000Z</time>
      </trkpt>
      <trkpt lat="45.87762" lon="4.6773">
        <ele>372.59409</ele>
        <time>2022-08-23T13:13:56.000Z</time>
      </trkpt>
      <trkpt lat="45.87765" lon="4.67731">
        <ele>372.5444</ele>
        <time>2022-08-23T13:13:57.000Z</time>
      </trkpt>
      <trkpt lat="45.87767" lon="4.67731">
        <ele>372.46146</ele>
        <time>2022-08-23T13:13:58.000Z</time>
      </trkpt>
      <trkpt lat="45.8777" lon="4.67732">
        <ele>372.37613</ele>
        <time>2022-08-23T13:13:59.000Z</time>
      </trkpt>
      <trkpt lat="45.87772" lon="4.67733">
        <ele>372.31497</ele>
        <time>2022-08-23T13:14:00.000Z</time>
      </trkpt>
      <trkpt lat="45.87774" lon="4.67734">
        <ele>372.27081</ele>
        <time>2022-08-23T13:14:01.000Z</time>
      </trkpt>
      <trkpt lat="45.87776" lon="4.67735">
        <ele>372.25812</ele>
        <time>2022-08-23T13:14:02.000Z</time>
      </trkpt>
      <trkpt lat="45.87778" lon="4.67736">
        <ele>372.22137</ele>
        <time>2022-08-23T13:14:03.000Z</time>
      </trkpt>
      <trkpt lat="45.8778" lon="4.67736">
        <ele>372.18073</ele>
        <time>2022-08-23T13:14:04.000Z</time>
      </trkpt>
      <trkpt lat="45.87783" lon="4.67737">
        <ele>372.16266</ele>
        <time>2022-08-23T13:14:05.000Z</time>
      </trkpt>
      <trkpt lat="45.87785" lon="4.67738">
        <ele>372.15845</ele>
        <time>2022-08-23T13:14:06.000Z</time>
      </trkpt>
      <trkpt lat="45.87787" lon="4.67739">
        <ele>372.13608</ele>
        <time>2022-08-23T13:14:07.000Z</time>
      </trkpt>
      <trkpt lat="45.87789" lon="4.6774">
        <ele>372.12894</ele>
        <time>2022-08-23T13:14:08.000Z</time>
      </trkpt>
      <trkpt lat="45.87792" lon="4.67741">
        <ele>372.0947</ele>
        <time>2022-08-23T13:14:09.000Z</time>
      </trkpt>
      <trkpt lat="45.87794" lon="4.67742">
        <ele>372.05261</ele>
        <time>2022-08-23T13:14:10.000Z</time>
      </trkpt>
      <trkpt lat="45.87797" lon="4.67744">
        <ele>372.00815</ele>
        <time>2022-08-23T13:14:11.000Z</time>
      </trkpt>
      <trkpt lat="45.87799" lon="4.67745">
        <ele>371.93842</ele>
        <time>2022-08-23T13:14:12.000Z</time>
      </trkpt>
      <trkpt lat="45.87802" lon="4.67747">
        <ele>371.87488</ele>
        <time>2022-08-23T13:14:13.000Z</time>
      </trkpt>
      <trkpt lat="45.87804" lon="4.67748">
        <ele>371.80441</ele>
        <time>2022-08-23T13:14:14.000Z</time>
      </trkpt>
      <trkpt lat="45.87807" lon="4.67749">
        <ele>371.77472</ele>
        <time>2022-08-23T13:14:15.000Z</time>
      </trkpt>
      <trkpt lat="45.8781" lon="4.6775">
        <ele>371.70825</ele>
        <time>2022-08-23T13:14:16.000Z</time>
      </trkpt>
      <trkpt lat="45.87814" lon="4.67752">
        <ele>371.62811</ele>
        <time>2022-08-23T13:14:17.000Z</time>
      </trkpt>
      <trkpt lat="45.87817" lon="4.67753">
        <ele>371.58075</ele>
        <time>2022-08-23T13:14:18.000Z</time>
      </trkpt>
      <trkpt lat="45.8782" lon="4.67755">
        <ele>371.56168</ele>
        <time>2022-08-23T13:14:19.000Z</time>
      </trkpt>
      <trkpt lat="45.87823" lon="4.67757">
        <ele>371.51794</ele>
        <time>2022-08-23T13:14:20.000Z</time>
      </trkpt>
      <trkpt lat="45.87826" lon="4.67758">
        <ele>371.53107</ele>
        <time>2022-08-23T13:14:21.000Z</time>
      </trkpt>
      <trkpt lat="45.87829" lon="4.6776">
        <ele>371.62271</ele>
        <time>2022-08-23T13:14:22.000Z</time>
      </trkpt>
      <trkpt lat="45.87832" lon="4.67762">
        <ele>371.69647</ele>
        <time>2022-08-23T13:14:23.000Z</time>
      </trkpt>
      <trkpt lat="45.87836" lon="4.67765">
        <ele>371.70703</ele>
        <time>2022-08-23T13:14:24.000Z</time>
      </trkpt>
      <trkpt lat="45.87839" lon="4.67767">
        <ele>371.7243</ele>
        <time>2022-08-23T13:14:25.000Z</time>
      </trkpt>
      <trkpt lat="45.87843" lon="4.6777">
        <ele>371.73337</ele>
        <time>2022-08-23T13:14:26.000Z</time>
      </trkpt>
      <trkpt lat="45.87847" lon="4.67772">
        <ele>371.74533</ele>
        <time>2022-08-23T13:14:27.000Z</time>
      </trkpt>
      <trkpt lat="45.87851" lon="4.67775">
        <ele>371.80713</ele>
        <time>2022-08-23T13:14:28.000Z</time>
      </trkpt>
      <trkpt lat="45.87855" lon="4.67778">
        <ele>371.91272</ele>
        <time>2022-08-23T13:14:29.000Z</time>
      </trkpt>
      <trkpt lat="45.87859" lon="4.67781">
        <ele>372.02039</ele>
        <time>2022-08-23T13:14:30.000Z</time>
      </trkpt>
      <trkpt lat="45.87863" lon="4.67784">
        <ele>372.20761</ele>
        <time>2022-08-23T13:14:31.000Z</time>
      </trkpt>
      <trkpt lat="45.87866" lon="4.67787">
        <ele>372.48624</ele>
        <time>2022-08-23T13:14:32.000Z</time>
      </trkpt>
      <trkpt lat="45.8787" lon="4.6779">
        <ele>372.75153</ele>
        <time>2022-08-23T13:14:33.000Z</time>
      </trkpt>
      <trkpt lat="45.87873" lon="4.67792">
        <ele>373.02768</ele>
        <time>2022-08-23T13:14:34.000Z</time>
      </trkpt>
      <trkpt lat="45.87876" lon="4.67794">
        <ele>373.30914</ele>
        <time>2022-08-23T13:14:35.000Z</time>
      </trkpt>
      <trkpt lat="45.87878" lon="4.67794">
        <ele>373.60611</ele>
        <time>2022-08-23T13:14:37.000Z</time>
      </trkpt>
      <trkpt lat="45.87878" lon="4.67791">
        <ele>373.69705</ele>
        <time>2022-08-23T13:14:40.000Z</time>
      </trkpt>
      <trkpt lat="45.87878" lon="4.67788">
        <ele>373.63275</ele>
        <time>2022-08-23T13:15:05.000Z</time>
      </trkpt>
      <trkpt lat="45.87875" lon="4.67786">
        <ele>373.58304</ele>
        <time>2022-08-23T13:15:08.000Z</time>
      </trkpt>
      <trkpt lat="45.87874" lon="4.67788">
        <ele>373.54175</ele>
        <time>2022-08-23T13:15:12.000Z</time>
      </trkpt>
      <trkpt lat="45.87873" lon="4.6779">
        <ele>373.4306</ele>
        <time>2022-08-23T13:15:29.000Z</time>
      </trkpt>
      <trkpt lat="45.87871" lon="4.67789">
        <ele>373.23206</ele>
        <time>2022-08-23T13:15:31.000Z</time>
      </trkpt>
      <trkpt lat="45.87867" lon="4.67787">
        <ele>373.04407</ele>
        <time>2022-08-23T13:15:33.000Z</time>
      </trkpt>
      <trkpt lat="45.87864" lon="4.67786">
        <ele>372.98593</ele>
        <time>2022-08-23T13:15:34.000Z</time>
      </trkpt>
      <trkpt lat="45.87862" lon="4.67785">
        <ele>372.90906</ele>
        <time>2022-08-23T13:15:35.000Z</time>
      </trkpt>
      <trkpt lat="45.8786" lon="4.67784">
        <ele>372.8501</ele>
        <time>2022-08-23T13:15:36.000Z</time>
      </trkpt>
      <trkpt lat="45.87858" lon="4.67783">
        <ele>372.77545</ele>
        <time>2022-08-23T13:15:37.000Z</time>
      </trkpt>
      <trkpt lat="45.87856" lon="4.6778">
        <ele>372.60245</ele>
        <time>2022-08-23T13:15:39.000Z</time>
      </trkpt>
      <trkpt lat="45.87854" lon="4.67778">
        <ele>372.38876</ele>
        <time>2022-08-23T13:15:40.000Z</time>
      </trkpt>
      <trkpt lat="45.87852" lon="4.67777">
        <ele>372.18558</ele>
        <time>2022-08-23T13:15:41.000Z</time>
      </trkpt>
      <trkpt lat="45.87849" lon="4.67776">
        <ele>371.90512</ele>
        <time>2022-08-23T13:15:42.000Z</time>
      </trkpt>
      <trkpt lat="45.87847" lon="4.67775">
        <ele>371.56451</ele>
        <time>2022-08-23T13:15:43.000Z</time>
      </trkpt>
      <trkpt lat="45.87844" lon="4.67773">
        <ele>371.23645</ele>
        <time>2022-08-23T13:15:44.000Z</time>
      </trkpt>
      <trkpt lat="45.87842" lon="4.67771">
        <ele>370.86743</ele>
        <time>2022-08-23T13:15:45.000Z</time>
      </trkpt>
      <trkpt lat="45.8784" lon="4.6777">
        <ele>370.47113</ele>
        <time>2022-08-23T13:15:46.000Z</time>
      </trkpt>
      <trkpt lat="45.87837" lon="4.67768">
        <ele>370.13489</ele>
        <time>2022-08-23T13:15:47.000Z</time>
      </trkpt>
      <trkpt lat="45.87835" lon="4.67767">
        <ele>369.97278</ele>
        <time>2022-08-23T13:15:48.000Z</time>
      </trkpt>
      <trkpt lat="45.87833" lon="4.67765">
        <ele>369.97229</ele>
        <time>2022-08-23T13:15:49.000Z</time>
      </trkpt>
      <trkpt lat="45.87832" lon="4.67763">
        <ele>369.93231</ele>
        <time>2022-08-23T13:15:50.000Z</time>
      </trkpt>
      <trkpt lat="45.87834" lon="4.67759">
        <ele>369.90097</ele>
        <time>2022-08-23T13:15:52.000Z</time>
      </trkpt>
      <trkpt lat="45.87836" lon="4.67758">
        <ele>369.93774</ele>
        <time>2022-08-23T13:15:53.000Z</time>
      </trkpt>
      <trkpt lat="45.87838" lon="4.67758">
        <ele>370.13092</ele>
        <time>2022-08-23T13:15:54.000Z</time>
      </trkpt>
      <trkpt lat="45.87841" lon="4.67758">
        <ele>370.27972</ele>
        <time>2022-08-23T13:15:55.000Z</time>
      </trkpt>
      <trkpt lat="45.87844" lon="4.67758">
        <ele>370.32074</ele>
        <time>2022-08-23T13:15:56.000Z</time>
      </trkpt>
      <trkpt lat="45.87847" lon="4.67758">
        <ele>370.32925</ele>
        <time>2022-08-23T13:15:57.000Z</time>
      </trkpt>
      <trkpt lat="45.87849" lon="4.67759">
        <ele>370.31326</ele>
        <time>2022-08-23T13:15:58.000Z</time>
      </trkpt>
      <trkpt lat="45.87851" lon="4.67759">
        <ele>370.3244</ele>
        <time>2022-08-23T13:15:59.000Z</time>
      </trkpt>
      <trkpt lat="45.87854" lon="4.6776">
        <ele>370.39404</ele>
        <time>2022-08-23T13:16:00.000Z</time>
      </trkpt>
      <trkpt lat="45.87856" lon="4.6776">
        <ele>370.43167</ele>
        <time>2022-08-23T13:16:01.000Z</time>
      </trkpt>
      <trkpt lat="45.87859" lon="4.67761">
        <ele>370.38885</ele>
        <time>2022-08-23T13:16:02.000Z</time>
      </trkpt>
      <trkpt lat="45.87861" lon="4.67761">
        <ele>370.32645</ele>
        <time>2022-08-23T13:16:03.000Z</time>
      </trkpt>
      <trkpt lat="45.87863" lon="4.67761">
        <ele>370.34442</ele>
        <time>2022-08-23T13:16:04.000Z</time>
      </trkpt>
      <trkpt lat="45.87865" lon="4.67761">
        <ele>370.37811</ele>
        <time>2022-08-23T13:16:05.000Z</time>
      </trkpt>
      <trkpt lat="45.87867" lon="4.6776">
        <ele>370.42093</ele>
        <time>2022-08-23T13:16:06.000Z</time>
      </trkpt>
      <trkpt lat="45.87869" lon="4.6776">
        <ele>370.48172</ele>
        <time>2022-08-23T13:16:07.000Z</time>
      </trkpt>
      <trkpt lat="45.87871" lon="4.67759">
        <ele>370.51822</ele>
        <time>2022-08-23T13:16:08.000Z</time>
      </trkpt>
      <trkpt lat="45.87873" lon="4.67758">
        <ele>370.54681</ele>
        <time>2022-08-23T13:16:09.000Z</time>
      </trkpt>
      <trkpt lat="45.87876" lon="4.67755">
        <ele>370.53241</ele>
        <time>2022-08-23T13:16:11.000Z</time>
      </trkpt>
      <trkpt lat="45.87877" lon="4.6775">
        <ele>370.53827</ele>
        <time>2022-08-23T13:16:13.000Z</time>
      </trkpt>
      <trkpt lat="45.87878" lon="4.67748">
        <ele>370.54843</ele>
        <time>2022-08-23T13:16:14.000Z</time>
      </trkpt>
      <trkpt lat="45.8788" lon="4.67745">
        <ele>370.50433</ele>
        <time>2022-08-23T13:16:16.000Z</time>
      </trkpt>
      <trkpt lat="45.87883" lon="4.67744">
        <ele>370.36081</ele>
        <time>2022-08-23T13:16:18.000Z</time>
      </trkpt>
      <trkpt lat="45.87886" lon="4.67745">
        <ele>370.24893</ele>
        <time>2022-08-23T13:16:19.000Z</time>
      </trkpt>
      <trkpt lat="45.87888" lon="4.67745">
        <ele>370.2514</ele>
        <time>2022-08-23T13:16:20.000Z</time>
      </trkpt>
      <trkpt lat="45.87891" lon="4.67745">
        <ele>370.34055</ele>
        <time>2022-08-23T13:16:21.000Z</time>
      </trkpt>
      <trkpt lat="45.87893" lon="4.67746">
        <ele>370.42242</ele>
        <time>2022-08-23T13:16:22.000Z</time>
      </trkpt>
      <trkpt lat="45.87895" lon="4.67748">
        <ele>370.49207</ele>
        <time>2022-08-23T13:16:23.000Z</time>
      </trkpt>
      <trkpt lat="45.87898" lon="4.67749">
        <ele>370.50519</ele>
        <time>2022-08-23T13:16:24.000Z</time>
      </trkpt>
      <trkpt lat="45.879" lon="4.67751">
        <ele>370.58261</ele>
        <time>2022-08-23T13:16:25.000Z</time>
      </trkpt>
      <trkpt lat="45.87903" lon="4.67753">
        <ele>370.72681</ele>
        <time>2022-08-23T13:16:26.000Z</time>
      </trkpt>
      <trkpt lat="45.87905" lon="4.67754">
        <ele>370.84381</ele>
        <time>2022-08-23T13:16:27.000Z</time>
      </trkpt>
      <trkpt lat="45.87907" lon="4.67755">
        <ele>370.94653</ele>
        <time>2022-08-23T13:16:28.000Z</time>
      </trkpt>
      <trkpt lat="45.87909" lon="4.67756">
        <ele>370.9776</ele>
        <time>2022-08-23T13:16:29.000Z</time>
      </trkpt>
      <trkpt lat="45.87911" lon="4.67758">
        <ele>371.01114</ele>
        <time>2022-08-23T13:16:30.000Z</time>
      </trkpt>
      <trkpt lat="45.87913" lon="4.67759">
        <ele>371.04568</ele>
        <time>2022-08-23T13:16:31.000Z</time>
      </trkpt>
      <trkpt lat="45.87915" lon="4.6776">
        <ele>371.07007</ele>
        <time>2022-08-23T13:16:32.000Z</time>
      </trkpt>
      <trkpt lat="45.87916" lon="4.67762">
        <ele>371.1225</ele>
        <time>2022-08-23T13:16:33.000Z</time>
      </trkpt>
      <trkpt lat="45.87918" lon="4.67764">
        <ele>371.25787</ele>
        <time>2022-08-23T13:16:35.000Z</time>
      </trkpt>
      <trkpt lat="45.87915" lon="4.67761">
        <ele>371.4364</ele>
        <time>2022-08-23T13:16:51.000Z</time>
      </trkpt>
      <trkpt lat="45.87913" lon="4.67759">
        <ele>371.62317</ele>
        <time>2022-08-23T13:16:52.000Z</time>
      </trkpt>
      <trkpt lat="45.8791" lon="4.67758">
        <ele>371.82651</ele>
        <time>2022-08-23T13:16:53.000Z</time>
      </trkpt>
      <trkpt lat="45.87907" lon="4.67756">
        <ele>372.04999</ele>
        <time>2022-08-23T13:16:54.000Z</time>
      </trkpt>
      <trkpt lat="45.87904" lon="4.67754">
        <ele>372.24738</ele>
        <time>2022-08-23T13:16:55.000Z</time>
      </trkpt>
      <trkpt lat="45.879" lon="4.67753">
        <ele>372.31894</ele>
        <time>2022-08-23T13:16:56.000Z</time>
      </trkpt>
      <trkpt lat="45.87897" lon="4.67752">
        <ele>372.25922</ele>
        <time>2022-08-23T13:16:57.000Z</time>
      </trkpt>
      <trkpt lat="45.87894" lon="4.6775">
        <ele>372.22089</ele>
        <time>2022-08-23T13:16:58.000Z</time>
      </trkpt>
      <trkpt lat="45.8789" lon="4.67749">
        <ele>372.14389</ele>
        <time>2022-08-23T13:16:59.000Z</time>
      </trkpt>
      <trkpt lat="45.87888" lon="4.67747">
        <ele>372.08359</ele>
        <time>2022-08-23T13:17:00.000Z</time>
      </trkpt>
      <trkpt lat="45.87886" lon="4.67745">
        <ele>372.07172</ele>
        <time>2022-08-23T13:17:01.000Z</time>
      </trkpt>
      <trkpt lat="45.87884" lon="4.67743">
        <ele>372.05579</ele>
        <time>2022-08-23T13:17:02.000Z</time>
      </trkpt>
      <trkpt lat="45.87883" lon="4.6774">
        <ele>372.00034</ele>
        <time>2022-08-23T13:17:04.000Z</time>
      </trkpt>
      <trkpt lat="45.87883" lon="4.67737">
        <ele>371.95654</ele>
        <time>2022-08-23T13:17:07.000Z</time>
      </trkpt>
      <trkpt lat="45.87883" lon="4.67734">
        <ele>372.02573</ele>
        <time>2022-08-23T13:17:16.000Z</time>
      </trkpt>
      <trkpt lat="45.87884" lon="4.67737">
        <ele>372.08289</ele>
        <time>2022-08-23T13:17:35.000Z</time>
      </trkpt>
      <trkpt lat="45.87888" lon="4.6774">
        <ele>372.12082</ele>
        <time>2022-08-23T13:17:37.000Z</time>
      </trkpt>
      <trkpt lat="45.8789" lon="4.67742">
        <ele>372.17532</ele>
        <time>2022-08-23T13:17:38.000Z</time>
      </trkpt>
      <trkpt lat="45.87892" lon="4.67744">
        <ele>372.21613</ele>
        <time>2022-08-23T13:17:39.000Z</time>
      </trkpt>
      <trkpt lat="45.87895" lon="4.67746">
        <ele>372.16953</ele>
        <time>2022-08-23T13:17:40.000Z</time>
      </trkpt>
      <trkpt lat="45.87898" lon="4.67748">
        <ele>372.12238</ele>
        <time>2022-08-23T13:17:41.000Z</time>
      </trkpt>
      <trkpt lat="45.87901" lon="4.6775">
        <ele>372.00293</ele>
        <time>2022-08-23T13:17:42.000Z</time>
      </trkpt>
      <trkpt lat="45.87904" lon="4.67752">
        <ele>371.89453</ele>
        <time>2022-08-23T13:17:43.000Z</time>
      </trkpt>
      <trkpt lat="45.87908" lon="4.67755">
        <ele>371.69647</ele>
        <time>2022-08-23T13:17:44.000Z</time>
      </trkpt>
      <trkpt lat="45.87911" lon="4.67758">
        <ele>371.41943</ele>
        <time>2022-08-23T13:17:45.000Z</time>
      </trkpt>
      <trkpt lat="45.87915" lon="4.6776">
        <ele>371.23087</ele>
        <time>2022-08-23T13:17:46.000Z</time>
      </trkpt>
      <trkpt lat="45.87919" lon="4.67764">
        <ele>371.18112</ele>
        <time>2022-08-23T13:17:47.000Z</time>
      </trkpt>
      <trkpt lat="45.87922" lon="4.67768">
        <ele>371.14178</ele>
        <time>2022-08-23T13:17:48.000Z</time>
      </trkpt>
      <trkpt lat="45.87925" lon="4.67773">
        <ele>371.15717</ele>
        <time>2022-08-23T13:17:49.000Z</time>
      </trkpt>
      <trkpt lat="45.87927" lon="4.67778">
        <ele>371.28009</ele>
        <time>2022-08-23T13:17:50.000Z</time>
      </trkpt>
      <trkpt lat="45.8793" lon="4.67781">
        <ele>371.354</ele>
        <time>2022-08-23T13:17:51.000Z</time>
      </trkpt>
      <trkpt lat="45.87933" lon="4.67783">
        <ele>371.40067</ele>
        <time>2022-08-23T13:17:52.000Z</time>
      </trkpt>
      <trkpt lat="45.87936" lon="4.67783">
        <ele>371.5484</ele>
        <time>2022-08-23T13:17:53.000Z</time>
      </trkpt>
      <trkpt lat="45.87939" lon="4.67782">
        <ele>371.62512</ele>
        <time>2022-08-23T13:17:54.000Z</time>
      </trkpt>
      <trkpt lat="45.87942" lon="4.6778">
        <ele>371.58112</ele>
        <time>2022-08-23T13:17:55.000Z</time>
      </trkpt>
      <trkpt lat="45.87945" lon="4.67777">
        <ele>371.61462</ele>
        <time>2022-08-23T13:17:56.000Z</time>
      </trkpt>
      <trkpt lat="45.87948" lon="4.67774">
        <ele>371.65509</ele>
        <time>2022-08-23T13:17:57.000Z</time>
      </trkpt>
      <trkpt lat="45.8795" lon="4.67771">
        <ele>371.68491</ele>
        <time>2022-08-23T13:17:58.000Z</time>
      </trkpt>
      <trkpt lat="45.87952" lon="4.67768">
        <ele>371.71277</ele>
        <time>2022-08-23T13:17:59.000Z</time>
      </trkpt>
      <trkpt lat="45.87955" lon="4.67765">
        <ele>371.7868</ele>
        <time>2022-08-23T13:18:00.000Z</time>
      </trkpt>
      <trkpt lat="45.87957" lon="4.67762">
        <ele>371.79877</ele>
        <time>2022-08-23T13:18:01.000Z</time>
      </trkpt>
      <trkpt lat="45.87959" lon="4.67758">
        <ele>371.85468</ele>
        <time>2022-08-23T13:18:02.000Z</time>
      </trkpt>
      <trkpt lat="45.8796" lon="4.67753">
        <ele>371.88223</ele>
        <time>2022-08-23T13:18:03.000Z</time>
      </trkpt>
      <trkpt lat="45.87961" lon="4.67749">
        <ele>371.97699</ele>
        <time>2022-08-23T13:18:04.000Z</time>
      </trkpt>
      <trkpt lat="45.87961" lon="4.67745">
        <ele>372.15912</ele>
        <time>2022-08-23T13:18:05.000Z</time>
      </trkpt>
      <trkpt lat="45.87961" lon="4.6774">
        <ele>372.26697</ele>
        <time>2022-08-23T13:18:06.000Z</time>
      </trkpt>
      <trkpt lat="45.87961" lon="4.67736">
        <ele>372.36652</ele>
        <time>2022-08-23T13:18:07.000Z</time>
      </trkpt>
      <trkpt lat="45.8796" lon="4.67732">
        <ele>372.50519</ele>
        <time>2022-08-23T13:18:08.000Z</time>
      </trkpt>
      <trkpt lat="45.8796" lon="4.67728">
        <ele>372.66583</ele>
        <time>2022-08-23T13:18:09.000Z</time>
      </trkpt>
      <trkpt lat="45.8796" lon="4.67723">
        <ele>372.73138</ele>
        <time>2022-08-23T13:18:10.000Z</time>
      </trkpt>
      <trkpt lat="45.8796" lon="4.67719">
        <ele>372.75092</ele>
        <time>2022-08-23T13:18:11.000Z</time>
      </trkpt>
      <trkpt lat="45.8796" lon="4.67715">
        <ele>372.78131</ele>
        <time>2022-08-23T13:18:12.000Z</time>
      </trkpt>
      <trkpt lat="45.8796" lon="4.67712">
        <ele>372.82248</ele>
        <time>2022-08-23T13:18:13.000Z</time>
      </trkpt>
      <trkpt lat="45.8796" lon="4.67708">
        <ele>372.87326</ele>
        <time>2022-08-23T13:18:14.000Z</time>
      </trkpt>
      <trkpt lat="45.87961" lon="4.67704">
        <ele>372.97644</ele>
        <time>2022-08-23T13:18:15.000Z</time>
      </trkpt>
      <trkpt lat="45.87961" lon="4.677">
        <ele>373.08426</ele>
        <time>2022-08-23T13:18:16.000Z</time>
      </trkpt>
      <trkpt lat="45.87962" lon="4.67697">
        <ele>373.20624</ele>
        <time>2022-08-23T13:18:17.000Z</time>
      </trkpt>
      <trkpt lat="45.87963" lon="4.67694">
        <ele>373.29803</ele>
        <time>2022-08-23T13:18:18.000Z</time>
      </trkpt>
      <trkpt lat="45.87964" lon="4.67691">
        <ele>373.37567</ele>
        <time>2022-08-23T13:18:19.000Z</time>
      </trkpt>
      <trkpt lat="45.87964" lon="4.67687">
        <ele>373.42297</ele>
        <time>2022-08-23T13:18:20.000Z</time>
      </trkpt>
      <trkpt lat="45.87965" lon="4.67684">
        <ele>373.46207</ele>
        <time>2022-08-23T13:18:21.000Z</time>
      </trkpt>
      <trkpt lat="45.87966" lon="4.6768">
        <ele>373.45691</ele>
        <time>2022-08-23T13:18:22.000Z</time>
      </trkpt>
      <trkpt lat="45.87967" lon="4.67675">
        <ele>373.41974</ele>
        <time>2022-08-23T13:18:23.000Z</time>
      </trkpt>
      <trkpt lat="45.87967" lon="4.67669">
        <ele>373.30527</ele>
        <time>2022-08-23T13:18:24.000Z</time>
      </trkpt>
      <trkpt lat="45.87967" lon="4.67663">
        <ele>373.21924</ele>
        <time>2022-08-23T13:18:25.000Z</time>
      </trkpt>
      <trkpt lat="45.87964" lon="4.67656">
        <ele>373.17041</ele>
        <time>2022-08-23T13:18:26.000Z</time>
      </trkpt>
      <trkpt lat="45.87963" lon="4.6765">
        <ele>373.10373</ele>
        <time>2022-08-23T13:18:27.000Z</time>
      </trkpt>
      <trkpt lat="45.87962" lon="4.67645">
        <ele>373.03616</ele>
        <time>2022-08-23T13:18:28.000Z</time>
      </trkpt>
      <trkpt lat="45.87961" lon="4.67638">
        <ele>372.90762</ele>
        <time>2022-08-23T13:18:29.000Z</time>
      </trkpt>
      <trkpt lat="45.87959" lon="4.67632">
        <ele>372.81293</ele>
        <time>2022-08-23T13:18:30.000Z</time>
      </trkpt>
      <trkpt lat="45.87958" lon="4.67628">
        <ele>372.76837</ele>
        <time>2022-08-23T13:18:31.000Z</time>
      </trkpt>
      <trkpt lat="45.87953" lon="4.67625">
        <ele>372.62903</ele>
        <time>2022-08-23T13:18:32.000Z</time>
      </trkpt>
      <trkpt lat="45.87952" lon="4.67621">
        <ele>372.3923</ele>
        <time>2022-08-23T13:18:33.000Z</time>
      </trkpt>
      <trkpt lat="45.8795" lon="4.67617">
        <ele>372.12845</ele>
        <time>2022-08-23T13:18:34.000Z</time>
      </trkpt>
      <trkpt lat="45.87948" lon="4.67613">
        <ele>371.9249</ele>
        <time>2022-08-23T13:18:35.000Z</time>
      </trkpt>
      <trkpt lat="45.87944" lon="4.6761">
        <ele>371.65765</ele>
        <time>2022-08-23T13:18:36.000Z</time>
      </trkpt>
      <trkpt lat="45.87944" lon="4.67604">
        <ele>371.30765</ele>
        <time>2022-08-23T13:18:37.000Z</time>
      </trkpt>
      <trkpt lat="45.8794" lon="4.67599">
        <ele>371.03119</ele>
        <time>2022-08-23T13:18:38.000Z</time>
      </trkpt>
      <trkpt lat="45.87937" lon="4.67595">
        <ele>370.76315</ele>
        <time>2022-08-23T13:18:39.000Z</time>
      </trkpt>
      <trkpt lat="45.87935" lon="4.67591">
        <ele>370.42783</ele>
        <time>2022-08-23T13:18:40.000Z</time>
      </trkpt>
      <trkpt lat="45.87933" lon="4.67588">
        <ele>370.10855</ele>
        <time>2022-08-23T13:18:41.000Z</time>
      </trkpt>
      <trkpt lat="45.87933" lon="4.67585">
        <ele>369.79022</ele>
        <time>2022-08-23T13:18:42.000Z</time>
      </trkpt>
      <trkpt lat="45.87934" lon="4.6758">
        <ele>369.60785</ele>
        <time>2022-08-23T13:18:44.000Z</time>
      </trkpt>
      <trkpt lat="45.87935" lon="4.67577">
        <ele>369.47113</ele>
        <time>2022-08-23T13:18:45.000Z</time>
      </trkpt>
      <trkpt lat="45.87936" lon="4.67575">
        <ele>369.31711</ele>
        <time>2022-08-23T13:18:46.000Z</time>
      </trkpt>
      <trkpt lat="45.87936" lon="4.67572">
        <ele>369.11386</ele>
        <time>2022-08-23T13:18:47.000Z</time>
      </trkpt>
      <trkpt lat="45.87937" lon="4.67568">
        <ele>368.90143</ele>
        <time>2022-08-23T13:18:48.000Z</time>
      </trkpt>
      <trkpt lat="45.87938" lon="4.67565">
        <ele>368.6557</ele>
        <time>2022-08-23T13:18:49.000Z</time>
      </trkpt>
      <trkpt lat="45.8794" lon="4.67561">
        <ele>368.43622</ele>
        <time>2022-08-23T13:18:50.000Z</time>
      </trkpt>
      <trkpt lat="45.87941" lon="4.67558">
        <ele>368.20013</ele>
        <time>2022-08-23T13:18:51.000Z</time>
      </trkpt>
      <trkpt lat="45.87942" lon="4.67554">
        <ele>367.92941</ele>
        <time>2022-08-23T13:18:52.000Z</time>
      </trkpt>
      <trkpt lat="45.87943" lon="4.67551">
        <ele>367.76108</ele>
        <time>2022-08-23T13:18:53.000Z</time>
      </trkpt>
      <trkpt lat="45.87945" lon="4.67548">
        <ele>367.66919</ele>
        <time>2022-08-23T13:18:54.000Z</time>
      </trkpt>
      <trkpt lat="45.87946" lon="4.67544">
        <ele>367.60318</ele>
        <time>2022-08-23T13:18:55.000Z</time>
      </trkpt>
      <trkpt lat="45.87947" lon="4.67542">
        <ele>367.50772</ele>
        <time>2022-08-23T13:18:56.000Z</time>
      </trkpt>
      <trkpt lat="45.87948" lon="4.6754">
        <ele>367.41232</ele>
        <time>2022-08-23T13:18:57.000Z</time>
      </trkpt>
      <trkpt lat="45.87949" lon="4.67537">
        <ele>367.39975</ele>
        <time>2022-08-23T13:18:58.000Z</time>
      </trkpt>
      <trkpt lat="45.8795" lon="4.67534">
        <ele>367.371</ele>
        <time>2022-08-23T13:18:59.000Z</time>
      </trkpt>
      <trkpt lat="45.8795" lon="4.67531">
        <ele>367.26779</ele>
        <time>2022-08-23T13:19:22.000Z</time>
      </trkpt>
      <trkpt lat="45.87952" lon="4.6753">
        <ele>367.14188</ele>
        <time>2022-08-23T13:19:24.000Z</time>
      </trkpt>
      <trkpt lat="45.87953" lon="4.67528">
        <ele>367.06387</ele>
        <time>2022-08-23T13:19:25.000Z</time>
      </trkpt>
      <trkpt lat="45.87955" lon="4.67526">
        <ele>366.96362</ele>
        <time>2022-08-23T13:19:26.000Z</time>
      </trkpt>
      <trkpt lat="45.87956" lon="4.67523">
        <ele>366.73145</ele>
        <time>2022-08-23T13:19:27.000Z</time>
      </trkpt>
      <trkpt lat="45.87958" lon="4.6752">
        <ele>366.49026</ele>
        <time>2022-08-23T13:19:28.000Z</time>
      </trkpt>
      <trkpt lat="45.8796" lon="4.67517">
        <ele>366.27081</ele>
        <time>2022-08-23T13:19:29.000Z</time>
      </trkpt>
      <trkpt lat="45.87962" lon="4.67513">
        <ele>366.11594</ele>
        <time>2022-08-23T13:19:30.000Z</time>
      </trkpt>
      <trkpt lat="45.87964" lon="4.6751">
        <ele>365.96005</ele>
        <time>2022-08-23T13:19:31.000Z</time>
      </trkpt>
      <trkpt lat="45.87966" lon="4.67507">
        <ele>365.78262</ele>
        <time>2022-08-23T13:19:32.000Z</time>
      </trkpt>
      <trkpt lat="45.87968" lon="4.67503">
        <ele>365.6066</ele>
        <time>2022-08-23T13:19:33.000Z</time>
      </trkpt>
      <trkpt lat="45.8797" lon="4.675">
        <ele>365.46637</ele>
        <time>2022-08-23T13:19:34.000Z</time>
      </trkpt>
      <trkpt lat="45.87971" lon="4.67496">
        <ele>365.3891</ele>
        <time>2022-08-23T13:19:35.000Z</time>
      </trkpt>
      <trkpt lat="45.87973" lon="4.67492">
        <ele>365.26538</ele>
        <time>2022-08-23T13:19:36.000Z</time>
      </trkpt>
      <trkpt lat="45.87975" lon="4.67488">
        <ele>365.1423</ele>
        <time>2022-08-23T13:19:37.000Z</time>
      </trkpt>
      <trkpt lat="45.87977" lon="4.67483">
        <ele>365.04398</ele>
        <time>2022-08-23T13:19:38.000Z</time>
      </trkpt>
      <trkpt lat="45.87979" lon="4.67478">
        <ele>364.92239</ele>
        <time>2022-08-23T13:19:39.000Z</time>
      </trkpt>
      <trkpt lat="45.87982" lon="4.67471">
        <ele>364.73883</ele>
        <time>2022-08-23T13:19:40.000Z</time>
      </trkpt>
      <trkpt lat="45.87987" lon="4.67464">
        <ele>364.55878</ele>
        <time>2022-08-23T13:19:41.000Z</time>
      </trkpt>
      <trkpt lat="45.8799" lon="4.67456">
        <ele>364.3602</ele>
        <time>2022-08-23T13:19:42.000Z</time>
      </trkpt>
      <trkpt lat="45.87993" lon="4.6745">
        <ele>364.18628</ele>
        <time>2022-08-23T13:19:43.000Z</time>
      </trkpt>
      <trkpt lat="45.87998" lon="4.67442">
        <ele>364.13446</ele>
        <time>2022-08-23T13:19:44.000Z</time>
      </trkpt>
      <trkpt lat="45.88002" lon="4.67434">
        <ele>364.02563</ele>
        <time>2022-08-23T13:19:45.000Z</time>
      </trkpt>
      <trkpt lat="45.88005" lon="4.67428">
        <ele>363.9353</ele>
        <time>2022-08-23T13:19:46.000Z</time>
      </trkpt>
      <trkpt lat="45.8801" lon="4.6742">
        <ele>363.80634</ele>
        <time>2022-08-23T13:19:47.000Z</time>
      </trkpt>
      <trkpt lat="45.88015" lon="4.67408">
        <ele>363.57635</ele>
        <time>2022-08-23T13:19:48.000Z</time>
      </trkpt>
      <trkpt lat="45.8802" lon="4.67396">
        <ele>363.23978</ele>
        <time>2022-08-23T13:19:49.000Z</time>
      </trkpt>
      <trkpt lat="45.88026" lon="4.67385">
        <ele>362.83578</ele>
        <time>2022-08-23T13:19:50.000Z</time>
      </trkpt>
      <trkpt lat="45.88031" lon="4.67375">
        <ele>362.36102</ele>
        <time>2022-08-23T13:19:51.000Z</time>
      </trkpt>
      <trkpt lat="45.88036" lon="4.67364">
        <ele>361.85016</ele>
        <time>2022-08-23T13:19:52.000Z</time>
      </trkpt>
      <trkpt lat="45.8804" lon="4.67354">
        <ele>361.31512</ele>
        <time>2022-08-23T13:19:53.000Z</time>
      </trkpt>
      <trkpt lat="45.88044" lon="4.67345">
        <ele>360.72797</ele>
        <time>2022-08-23T13:19:54.000Z</time>
      </trkpt>
      <trkpt lat="45.88048" lon="4.67336">
        <ele>360.06213</ele>
        <time>2022-08-23T13:19:55.000Z</time>
      </trkpt>
      <trkpt lat="45.88052" lon="4.67327">
        <ele>359.43814</ele>
        <time>2022-08-23T13:19:56.000Z</time>
      </trkpt>
      <trkpt lat="45.88054" lon="4.67319">
        <ele>358.79965</ele>
        <time>2022-08-23T13:19:57.000Z</time>
      </trkpt>
      <trkpt lat="45.88057" lon="4.67312">
        <ele>358.11755</ele>
        <time>2022-08-23T13:19:58.000Z</time>
      </trkpt>
      <trkpt lat="45.88058" lon="4.67307">
        <ele>357.375</ele>
        <time>2022-08-23T13:19:59.000Z</time>
      </trkpt>
      <trkpt lat="45.88059" lon="4.67305">
        <ele>356.73282</ele>
        <time>2022-08-23T13:20:00.000Z</time>
      </trkpt>
      <trkpt lat="45.88061" lon="4.67304">
        <ele>355.9455</ele>
        <time>2022-08-23T13:20:01.000Z</time>
      </trkpt>
      <trkpt lat="45.88063" lon="4.67303">
        <ele>355.16473</ele>
        <time>2022-08-23T13:20:02.000Z</time>
      </trkpt>
      <trkpt lat="45.88065" lon="4.67304">
        <ele>354.40552</ele>
        <time>2022-08-23T13:20:03.000Z</time>
      </trkpt>
      <trkpt lat="45.88068" lon="4.67304">
        <ele>353.65363</ele>
        <time>2022-08-23T13:20:04.000Z</time>
      </trkpt>
      <trkpt lat="45.8807" lon="4.67304">
        <ele>352.93372</ele>
        <time>2022-08-23T13:20:05.000Z</time>
      </trkpt>
      <trkpt lat="45.88072" lon="4.67303">
        <ele>352.27457</ele>
        <time>2022-08-23T13:20:06.000Z</time>
      </trkpt>
      <trkpt lat="45.88075" lon="4.67305">
        <ele>351.7746</ele>
        <time>2022-08-23T13:20:07.000Z</time>
      </trkpt>
      <trkpt lat="45.88077" lon="4.67308">
        <ele>351.3801</ele>
        <time>2022-08-23T13:20:08.000Z</time>
      </trkpt>
      <trkpt lat="45.88078" lon="4.67311">
        <ele>351.11508</ele>
        <time>2022-08-23T13:20:09.000Z</time>
      </trkpt>
      <trkpt lat="45.8808" lon="4.67313">
        <ele>350.88861</ele>
        <time>2022-08-23T13:20:10.000Z</time>
      </trkpt>
      <trkpt lat="45.88083" lon="4.67314">
        <ele>350.77939</ele>
        <time>2022-08-23T13:20:11.000Z</time>
      </trkpt>
      <trkpt lat="45.88086" lon="4.67315">
        <ele>350.72394</ele>
        <time>2022-08-23T13:20:12.000Z</time>
      </trkpt>
      <trkpt lat="45.88089" lon="4.67316">
        <ele>350.69412</ele>
        <time>2022-08-23T13:20:13.000Z</time>
      </trkpt>
      <trkpt lat="45.88092" lon="4.67317">
        <ele>350.65277</ele>
        <time>2022-08-23T13:20:14.000Z</time>
      </trkpt>
      <trkpt lat="45.88095" lon="4.67319">
        <ele>350.59735</ele>
        <time>2022-08-23T13:20:15.000Z</time>
      </trkpt>
      <trkpt lat="45.88097" lon="4.67321">
        <ele>350.51541</ele>
        <time>2022-08-23T13:20:16.000Z</time>
      </trkpt>
      <trkpt lat="45.881" lon="4.67323">
        <ele>350.50473</ele>
        <time>2022-08-23T13:20:17.000Z</time>
      </trkpt>
      <trkpt lat="45.88102" lon="4.67325">
        <ele>350.52643</ele>
        <time>2022-08-23T13:20:18.000Z</time>
      </trkpt>
      <trkpt lat="45.88104" lon="4.67327">
        <ele>350.57123</ele>
        <time>2022-08-23T13:20:19.000Z</time>
      </trkpt>
      <trkpt lat="45.88107" lon="4.67328">
        <ele>350.53598</ele>
        <time>2022-08-23T13:20:20.000Z</time>
      </trkpt>
      <trkpt lat="45.88109" lon="4.6733">
        <ele>350.65985</ele>
        <time>2022-08-23T13:20:21.000Z</time>
      </trkpt>
      <trkpt lat="45.88111" lon="4.67331">
        <ele>350.80389</ele>
        <time>2022-08-23T13:20:22.000Z</time>
      </trkpt>
      <trkpt lat="45.88113" lon="4.67333">
        <ele>350.98523</ele>
        <time>2022-08-23T13:20:23.000Z</time>
      </trkpt>
      <trkpt lat="45.88116" lon="4.67334">
        <ele>351.06403</ele>
        <time>2022-08-23T13:20:24.000Z</time>
      </trkpt>
      <trkpt lat="45.88118" lon="4.67336">
        <ele>351.15216</ele>
        <time>2022-08-23T13:20:25.000Z</time>
      </trkpt>
      <trkpt lat="45.88121" lon="4.67338">
        <ele>351.24747</ele>
        <time>2022-08-23T13:20:26.000Z</time>
      </trkpt>
      <trkpt lat="45.88124" lon="4.6734">
        <ele>351.21927</ele>
        <time>2022-08-23T13:20:27.000Z</time>
      </trkpt>
      <trkpt lat="45.88128" lon="4.67342">
        <ele>351.17072</ele>
        <time>2022-08-23T13:20:28.000Z</time>
      </trkpt>
      <trkpt lat="45.88132" lon="4.67345">
        <ele>351.07779</ele>
        <time>2022-08-23T13:20:29.000Z</time>
      </trkpt>
      <trkpt lat="45.88136" lon="4.67348">
        <ele>351.03183</ele>
        <time>2022-08-23T13:20:30.000Z</time>
      </trkpt>
      <trkpt lat="45.8814" lon="4.67351">
        <ele>350.89899</ele>
        <time>2022-08-23T13:20:31.000Z</time>
      </trkpt>
      <trkpt lat="45.88143" lon="4.67353">
        <ele>350.74261</ele>
        <time>2022-08-23T13:20:32.000Z</time>
      </trkpt>
      <trkpt lat="45.88147" lon="4.67356">
        <ele>350.59897</ele>
        <time>2022-08-23T13:20:33.000Z</time>
      </trkpt>
      <trkpt lat="45.88151" lon="4.6736">
        <ele>350.41925</ele>
        <time>2022-08-23T13:20:34.000Z</time>
      </trkpt>
      <trkpt lat="45.88154" lon="4.67363">
        <ele>350.30209</ele>
        <time>2022-08-23T13:20:35.000Z</time>
      </trkpt>
      <trkpt lat="45.88157" lon="4.67365">
        <ele>350.18036</ele>
        <time>2022-08-23T13:20:36.000Z</time>
      </trkpt>
      <trkpt lat="45.88161" lon="4.67367">
        <ele>350.04953</ele>
        <time>2022-08-23T13:20:37.000Z</time>
      </trkpt>
      <trkpt lat="45.88164" lon="4.67369">
        <ele>349.87543</ele>
        <time>2022-08-23T13:20:38.000Z</time>
      </trkpt>
      <trkpt lat="45.88168" lon="4.67371">
        <ele>349.75073</ele>
        <time>2022-08-23T13:20:39.000Z</time>
      </trkpt>
      <trkpt lat="45.88172" lon="4.67373">
        <ele>349.72491</ele>
        <time>2022-08-23T13:20:40.000Z</time>
      </trkpt>
      <trkpt lat="45.88176" lon="4.67374">
        <ele>349.66669</ele>
        <time>2022-08-23T13:20:41.000Z</time>
      </trkpt>
      <trkpt lat="45.88179" lon="4.67375">
        <ele>349.63312</ele>
        <time>2022-08-23T13:20:42.000Z</time>
      </trkpt>
      <trkpt lat="45.88182" lon="4.67375">
        <ele>349.57074</ele>
        <time>2022-08-23T13:20:43.000Z</time>
      </trkpt>
      <trkpt lat="45.88185" lon="4.67375">
        <ele>349.60608</ele>
        <time>2022-08-23T13:20:44.000Z</time>
      </trkpt>
      <trkpt lat="45.88188" lon="4.67375">
        <ele>349.64896</ele>
        <time>2022-08-23T13:20:45.000Z</time>
      </trkpt>
      <trkpt lat="45.8819" lon="4.67375">
        <ele>349.7287</ele>
        <time>2022-08-23T13:20:46.000Z</time>
      </trkpt>
      <trkpt lat="45.88192" lon="4.67374">
        <ele>349.85504</ele>
        <time>2022-08-23T13:20:47.000Z</time>
      </trkpt>
      <trkpt lat="45.88195" lon="4.67374">
        <ele>350.06424</ele>
        <time>2022-08-23T13:20:48.000Z</time>
      </trkpt>
      <trkpt lat="45.88197" lon="4.67374">
        <ele>350.26398</ele>
        <time>2022-08-23T13:20:49.000Z</time>
      </trkpt>
      <trkpt lat="45.882" lon="4.67373">
        <ele>350.37228</ele>
        <time>2022-08-23T13:20:50.000Z</time>
      </trkpt>
      <trkpt lat="45.88202" lon="4.67373">
        <ele>350.47928</ele>
        <time>2022-08-23T13:20:51.000Z</time>
      </trkpt>
      <trkpt lat="45.88205" lon="4.67373">
        <ele>350.53485</ele>
        <time>2022-08-23T13:20:52.000Z</time>
      </trkpt>
      <trkpt lat="45.88208" lon="4.67373">
        <ele>350.55676</ele>
        <time>2022-08-23T13:20:53.000Z</time>
      </trkpt>
      <trkpt lat="45.8821" lon="4.67372">
        <ele>350.56165</ele>
        <time>2022-08-23T13:20:54.000Z</time>
      </trkpt>
      <trkpt lat="45.88213" lon="4.67372">
        <ele>350.45721</ele>
        <time>2022-08-23T13:20:55.000Z</time>
      </trkpt>
      <trkpt lat="45.88217" lon="4.67372">
        <ele>350.37598</ele>
        <time>2022-08-23T13:20:56.000Z</time>
      </trkpt>
      <trkpt lat="45.8822" lon="4.67372">
        <ele>350.1994</ele>
        <time>2022-08-23T13:20:57.000Z</time>
      </trkpt>
      <trkpt lat="45.88224" lon="4.67372">
        <ele>350.05548</ele>
        <time>2022-08-23T13:20:58.000Z</time>
      </trkpt>
      <trkpt lat="45.88228" lon="4.67373">
        <ele>349.87253</ele>
        <time>2022-08-23T13:20:59.000Z</time>
      </trkpt>
      <trkpt lat="45.88232" lon="4.67374">
        <ele>349.63846</ele>
        <time>2022-08-23T13:21:00.000Z</time>
      </trkpt>
      <trkpt lat="45.88236" lon="4.67374">
        <ele>349.49036</ele>
        <time>2022-08-23T13:21:01.000Z</time>
      </trkpt>
      <trkpt lat="45.8824" lon="4.67375">
        <ele>349.32367</ele>
        <time>2022-08-23T13:21:02.000Z</time>
      </trkpt>
      <trkpt lat="45.88244" lon="4.67376">
        <ele>349.11752</ele>
        <time>2022-08-23T13:21:03.000Z</time>
      </trkpt>
      <trkpt lat="45.88248" lon="4.67377">
        <ele>348.89255</ele>
        <time>2022-08-23T13:21:04.000Z</time>
      </trkpt>
      <trkpt lat="45.88251" lon="4.67377">
        <ele>348.61642</ele>
        <time>2022-08-23T13:21:05.000Z</time>
      </trkpt>
      <trkpt lat="45.88255" lon="4.67378">
        <ele>348.26245</ele>
        <time>2022-08-23T13:21:06.000Z</time>
      </trkpt>
      <trkpt lat="45.88259" lon="4.67378">
        <ele>347.90918</ele>
        <time>2022-08-23T13:21:07.000Z</time>
      </trkpt>
      <trkpt lat="45.88262" lon="4.67378">
        <ele>347.45526</ele>
        <time>2022-08-23T13:21:08.000Z</time>
      </trkpt>
      <trkpt lat="45.88266" lon="4.67378">
        <ele>347.07397</ele>
        <time>2022-08-23T13:21:09.000Z</time>
      </trkpt>
      <trkpt lat="45.88269" lon="4.67379">
        <ele>346.73157</ele>
        <time>2022-08-23T13:21:10.000Z</time>
      </trkpt>
      <trkpt lat="45.88273" lon="4.6738">
        <ele>346.43304</ele>
        <time>2022-08-23T13:21:11.000Z</time>
      </trkpt>
      <trkpt lat="45.88277" lon="4.6738">
        <ele>346.13678</ele>
        <time>2022-08-23T13:21:12.000Z</time>
      </trkpt>
      <trkpt lat="45.8828" lon="4.67381">
        <ele>345.80402</ele>
        <time>2022-08-23T13:21:13.000Z</time>
      </trkpt>
      <trkpt lat="45.88284" lon="4.67382">
        <ele>345.57034</ele>
        <time>2022-08-23T13:21:14.000Z</time>
      </trkpt>
      <trkpt lat="45.88288" lon="4.67383">
        <ele>345.39658</ele>
        <time>2022-08-23T13:21:15.000Z</time>
      </trkpt>
      <trkpt lat="45.88291" lon="4.67384">
        <ele>345.18057</ele>
        <time>2022-08-23T13:21:16.000Z</time>
      </trkpt>
      <trkpt lat="45.88295" lon="4.67385">
        <ele>345.00589</ele>
        <time>2022-08-23T13:21:17.000Z</time>
      </trkpt>
      <trkpt lat="45.88299" lon="4.67387">
        <ele>344.82657</ele>
        <time>2022-08-23T13:21:18.000Z</time>
      </trkpt>
      <trkpt lat="45.88302" lon="4.67388">
        <ele>344.67755</ele>
        <time>2022-08-23T13:21:19.000Z</time>
      </trkpt>
      <trkpt lat="45.88306" lon="4.6739">
        <ele>344.47983</ele>
        <time>2022-08-23T13:21:20.000Z</time>
      </trkpt>
      <trkpt lat="45.88309" lon="4.67391">
        <ele>344.22012</ele>
        <time>2022-08-23T13:21:21.000Z</time>
      </trkpt>
      <trkpt lat="45.88313" lon="4.67393">
        <ele>343.89807</ele>
        <time>2022-08-23T13:21:22.000Z</time>
      </trkpt>
      <trkpt lat="45.88317" lon="4.67394">
        <ele>343.57596</ele>
        <time>2022-08-23T13:21:23.000Z</time>
      </trkpt>
      <trkpt lat="45.8832" lon="4.67395">
        <ele>343.26511</ele>
        <time>2022-08-23T13:21:24.000Z</time>
      </trkpt>
      <trkpt lat="45.88324" lon="4.67397">
        <ele>343.01376</ele>
        <time>2022-08-23T13:21:25.000Z</time>
      </trkpt>
      <trkpt lat="45.88327" lon="4.67399">
        <ele>342.84799</ele>
        <time>2022-08-23T13:21:26.000Z</time>
      </trkpt>
      <trkpt lat="45.88331" lon="4.67401">
        <ele>342.68994</ele>
        <time>2022-08-23T13:21:27.000Z</time>
      </trkpt>
      <trkpt lat="45.88334" lon="4.67403">
        <ele>342.57013</ele>
        <time>2022-08-23T13:21:28.000Z</time>
      </trkpt>
      <trkpt lat="45.88337" lon="4.67405">
        <ele>342.38275</ele>
        <time>2022-08-23T13:21:29.000Z</time>
      </trkpt>
      <trkpt lat="45.88341" lon="4.67407">
        <ele>342.11359</ele>
        <time>2022-08-23T13:21:30.000Z</time>
      </trkpt>
      <trkpt lat="45.88344" lon="4.67409">
        <ele>341.88428</ele>
        <time>2022-08-23T13:21:31.000Z</time>
      </trkpt>
      <trkpt lat="45.88348" lon="4.6741">
        <ele>341.69855</ele>
        <time>2022-08-23T13:21:32.000Z</time>
      </trkpt>
      <trkpt lat="45.88351" lon="4.67412">
        <ele>341.60846</ele>
        <time>2022-08-23T13:21:33.000Z</time>
      </trkpt>
      <trkpt lat="45.88355" lon="4.67413">
        <ele>341.49774</ele>
        <time>2022-08-23T13:21:34.000Z</time>
      </trkpt>
      <trkpt lat="45.88358" lon="4.67415">
        <ele>341.39725</ele>
        <time>2022-08-23T13:21:35.000Z</time>
      </trkpt>
      <trkpt lat="45.88362" lon="4.67416">
        <ele>341.29865</ele>
        <time>2022-08-23T13:21:36.000Z</time>
      </trkpt>
      <trkpt lat="45.88365" lon="4.67418">
        <ele>341.15106</ele>
        <time>2022-08-23T13:21:37.000Z</time>
      </trkpt>
      <trkpt lat="45.88369" lon="4.6742">
        <ele>341.00595</ele>
        <time>2022-08-23T13:21:38.000Z</time>
      </trkpt>
      <trkpt lat="45.88372" lon="4.67422">
        <ele>340.80792</ele>
        <time>2022-08-23T13:21:39.000Z</time>
      </trkpt>
      <trkpt lat="45.88376" lon="4.67424">
        <ele>340.6091</ele>
        <time>2022-08-23T13:21:40.000Z</time>
      </trkpt>
      <trkpt lat="45.8838" lon="4.67426">
        <ele>340.49408</ele>
        <time>2022-08-23T13:21:41.000Z</time>
      </trkpt>
      <trkpt lat="45.88384" lon="4.67428">
        <ele>340.45309</ele>
        <time>2022-08-23T13:21:42.000Z</time>
      </trkpt>
      <trkpt lat="45.88388" lon="4.67431">
        <ele>340.52832</ele>
        <time>2022-08-23T13:21:43.000Z</time>
      </trkpt>
      <trkpt lat="45.88391" lon="4.67433">
        <ele>340.58292</ele>
        <time>2022-08-23T13:21:44.000Z</time>
      </trkpt>
      <trkpt lat="45.88395" lon="4.67435">
        <ele>340.6571</ele>
        <time>2022-08-23T13:21:45.000Z</time>
      </trkpt>
      <trkpt lat="45.88399" lon="4.67437">
        <ele>340.6579</ele>
        <time>2022-08-23T13:21:46.000Z</time>
      </trkpt>
      <trkpt lat="45.88403" lon="4.67438">
        <ele>340.65717</ele>
        <time>2022-08-23T13:21:47.000Z</time>
      </trkpt>
      <trkpt lat="45.88407" lon="4.6744">
        <ele>340.62405</ele>
        <time>2022-08-23T13:21:48.000Z</time>
      </trkpt>
      <trkpt lat="45.88411" lon="4.67441">
        <ele>340.66159</ele>
        <time>2022-08-23T13:21:49.000Z</time>
      </trkpt>
      <trkpt lat="45.88415" lon="4.67442">
        <ele>340.76602</ele>
        <time>2022-08-23T13:21:50.000Z</time>
      </trkpt>
      <trkpt lat="45.88419" lon="4.67443">
        <ele>340.81897</ele>
        <time>2022-08-23T13:21:51.000Z</time>
      </trkpt>
      <trkpt lat="45.88423" lon="4.67444">
        <ele>340.92303</ele>
        <time>2022-08-23T13:21:52.000Z</time>
      </trkpt>
      <trkpt lat="45.88426" lon="4.67445">
        <ele>340.98825</ele>
        <time>2022-08-23T13:21:53.000Z</time>
      </trkpt>
      <trkpt lat="45.8843" lon="4.67446">
        <ele>341.03168</ele>
        <time>2022-08-23T13:21:54.000Z</time>
      </trkpt>
      <trkpt lat="45.88434" lon="4.67447">
        <ele>341.05292</ele>
        <time>2022-08-23T13:21:55.000Z</time>
      </trkpt>
      <trkpt lat="45.88437" lon="4.67448">
        <ele>341.16003</ele>
        <time>2022-08-23T13:21:56.000Z</time>
      </trkpt>
      <trkpt lat="45.88441" lon="4.67449">
        <ele>341.26935</ele>
        <time>2022-08-23T13:21:57.000Z</time>
      </trkpt>
      <trkpt lat="45.88445" lon="4.67449">
        <ele>341.33267</ele>
        <time>2022-08-23T13:21:58.000Z</time>
      </trkpt>
      <trkpt lat="45.88448" lon="4.6745">
        <ele>341.42242</ele>
        <time>2022-08-23T13:21:59.000Z</time>
      </trkpt>
      <trkpt lat="45.88452" lon="4.67451">
        <ele>341.55673</ele>
        <time>2022-08-23T13:22:00.000Z</time>
      </trkpt>
      <trkpt lat="45.88456" lon="4.67451">
        <ele>341.53253</ele>
        <time>2022-08-23T13:22:01.000Z</time>
      </trkpt>
      <trkpt lat="45.88459" lon="4.67451">
        <ele>341.48325</ele>
        <time>2022-08-23T13:22:02.000Z</time>
      </trkpt>
      <trkpt lat="45.88462" lon="4.67451">
        <ele>341.35031</ele>
        <time>2022-08-23T13:22:03.000Z</time>
      </trkpt>
      <trkpt lat="45.88465" lon="4.67451">
        <ele>341.1282</ele>
        <time>2022-08-23T13:22:04.000Z</time>
      </trkpt>
      <trkpt lat="45.88468" lon="4.67451">
        <ele>340.85049</ele>
        <time>2022-08-23T13:22:05.000Z</time>
      </trkpt>
      <trkpt lat="45.8847" lon="4.67451">
        <ele>340.59616</ele>
        <time>2022-08-23T13:22:06.000Z</time>
      </trkpt>
      <trkpt lat="45.88473" lon="4.67451">
        <ele>340.34253</ele>
        <time>2022-08-23T13:22:08.000Z</time>
      </trkpt>
      <trkpt lat="45.88477" lon="4.67451">
        <ele>340.10776</ele>
        <time>2022-08-23T13:22:10.000Z</time>
      </trkpt>
      <trkpt lat="45.88481" lon="4.67449">
        <ele>339.77988</ele>
        <time>2022-08-23T13:22:11.000Z</time>
      </trkpt>
      <trkpt lat="45.88483" lon="4.67445">
        <ele>339.51874</ele>
        <time>2022-08-23T13:22:12.000Z</time>
      </trkpt>
      <trkpt lat="45.88485" lon="4.6744">
        <ele>339.19391</ele>
        <time>2022-08-23T13:22:13.000Z</time>
      </trkpt>
      <trkpt lat="45.88486" lon="4.67435">
        <ele>338.69537</ele>
        <time>2022-08-23T13:22:14.000Z</time>
      </trkpt>
      <trkpt lat="45.88487" lon="4.67431">
        <ele>338.25607</ele>
        <time>2022-08-23T13:22:15.000Z</time>
      </trkpt>
      <trkpt lat="45.88488" lon="4.67427">
        <ele>337.8569</ele>
        <time>2022-08-23T13:22:16.000Z</time>
      </trkpt>
      <trkpt lat="45.88489" lon="4.67424">
        <ele>337.49094</ele>
        <time>2022-08-23T13:22:17.000Z</time>
      </trkpt>
      <trkpt lat="45.88489" lon="4.67421">
        <ele>337.13684</ele>
        <time>2022-08-23T13:22:18.000Z</time>
      </trkpt>
      <trkpt lat="45.88489" lon="4.67418">
        <ele>336.8569</ele>
        <time>2022-08-23T13:22:19.000Z</time>
      </trkpt>
      <trkpt lat="45.8849" lon="4.67415">
        <ele>336.63159</ele>
        <time>2022-08-23T13:22:20.000Z</time>
      </trkpt>
      <trkpt lat="45.8849" lon="4.67412">
        <ele>336.41559</ele>
        <time>2022-08-23T13:22:21.000Z</time>
      </trkpt>
      <trkpt lat="45.8849" lon="4.67409">
        <ele>336.20892</ele>
        <time>2022-08-23T13:22:22.000Z</time>
      </trkpt>
      <trkpt lat="45.8849" lon="4.67406">
        <ele>336.02948</ele>
        <time>2022-08-23T13:22:23.000Z</time>
      </trkpt>
      <trkpt lat="45.8849" lon="4.67402">
        <ele>335.85019</ele>
        <time>2022-08-23T13:22:24.000Z</time>
      </trkpt>
      <trkpt lat="45.88491" lon="4.67398">
        <ele>335.66916</ele>
        <time>2022-08-23T13:22:25.000Z</time>
      </trkpt>
      <trkpt lat="45.88491" lon="4.67395">
        <ele>335.5896</ele>
        <time>2022-08-23T13:22:26.000Z</time>
      </trkpt>
      <trkpt lat="45.88492" lon="4.67392">
        <ele>335.61423</ele>
        <time>2022-08-23T13:22:27.000Z</time>
      </trkpt>
      <trkpt lat="45.88492" lon="4.67389">
        <ele>335.61148</ele>
        <time>2022-08-23T13:22:28.000Z</time>
      </trkpt>
      <trkpt lat="45.88493" lon="4.67386">
        <ele>335.65253</ele>
        <time>2022-08-23T13:22:29.000Z</time>
      </trkpt>
      <trkpt lat="45.88493" lon="4.67383">
        <ele>335.72455</ele>
        <time>2022-08-23T13:22:30.000Z</time>
      </trkpt>
      <trkpt lat="45.88493" lon="4.6738">
        <ele>335.84091</ele>
        <time>2022-08-23T13:22:31.000Z</time>
      </trkpt>
      <trkpt lat="45.88493" lon="4.67378">
        <ele>335.91959</ele>
        <time>2022-08-23T13:22:32.000Z</time>
      </trkpt>
      <trkpt lat="45.88492" lon="4.67372">
        <ele>336.13434</ele>
        <time>2022-08-23T13:22:34.000Z</time>
      </trkpt>
      <trkpt lat="45.88492" lon="4.67368">
        <ele>336.51157</ele>
        <time>2022-08-23T13:22:35.000Z</time>
      </trkpt>
      <trkpt lat="45.88492" lon="4.67364">
        <ele>336.883</ele>
        <time>2022-08-23T13:22:36.000Z</time>
      </trkpt>
      <trkpt lat="45.88492" lon="4.67362">
        <ele>337.2807</ele>
        <time>2022-08-23T13:22:37.000Z</time>
      </trkpt>
      <trkpt lat="45.8849" lon="4.67365">
        <ele>337.57242</ele>
        <time>2022-08-23T13:22:40.000Z</time>
      </trkpt>
      <trkpt lat="45.88491" lon="4.67368">
        <ele>337.81223</ele>
        <time>2022-08-23T13:22:41.000Z</time>
      </trkpt>
      <trkpt lat="45.88491" lon="4.67371">
        <ele>338.01959</ele>
        <time>2022-08-23T13:22:42.000Z</time>
      </trkpt>
      <trkpt lat="45.88491" lon="4.67375">
        <ele>338.22229</ele>
        <time>2022-08-23T13:22:43.000Z</time>
      </trkpt>
      <trkpt lat="45.88492" lon="4.67378">
        <ele>338.50299</ele>
        <time>2022-08-23T13:22:44.000Z</time>
      </trkpt>
      <trkpt lat="45.88492" lon="4.67382">
        <ele>338.76544</ele>
        <time>2022-08-23T13:22:45.000Z</time>
      </trkpt>
      <trkpt lat="45.88492" lon="4.67387">
        <ele>338.97961</ele>
        <time>2022-08-23T13:22:46.000Z</time>
      </trkpt>
      <trkpt lat="45.88491" lon="4.67391">
        <ele>339.1709</ele>
        <time>2022-08-23T13:22:47.000Z</time>
      </trkpt>
      <trkpt lat="45.8849" lon="4.67396">
        <ele>339.38736</ele>
        <time>2022-08-23T13:22:48.000Z</time>
      </trkpt>
      <trkpt lat="45.88489" lon="4.674">
        <ele>339.6308</ele>
        <time>2022-08-23T13:22:49.000Z</time>
      </trkpt>
      <trkpt lat="45.88488" lon="4.67404">
        <ele>339.77991</ele>
        <time>2022-08-23T13:22:50.000Z</time>
      </trkpt>
      <trkpt lat="45.88488" lon="4.67408">
        <ele>339.87405</ele>
        <time>2022-08-23T13:22:51.000Z</time>
      </trkpt>
      <trkpt lat="45.88487" lon="4.67412">
        <ele>340.01654</ele>
        <time>2022-08-23T13:22:52.000Z</time>
      </trkpt>
      <trkpt lat="45.88487" lon="4.67415">
        <ele>340.12393</ele>
        <time>2022-08-23T13:22:53.000Z</time>
      </trkpt>
      <trkpt lat="45.88486" lon="4.67419">
        <ele>340.23431</ele>
        <time>2022-08-23T13:22:54.000Z</time>
      </trkpt>
      <trkpt lat="45.88486" lon="4.67422">
        <ele>340.32025</ele>
        <time>2022-08-23T13:22:55.000Z</time>
      </trkpt>
      <trkpt lat="45.88485" lon="4.67425">
        <ele>340.33633</ele>
        <time>2022-08-23T13:22:56.000Z</time>
      </trkpt>
      <trkpt lat="45.88485" lon="4.67429">
        <ele>340.3262</ele>
        <time>2022-08-23T13:22:57.000Z</time>
      </trkpt>
      <trkpt lat="45.88485" lon="4.67433">
        <ele>340.2981</ele>
        <time>2022-08-23T13:22:59.000Z</time>
      </trkpt>
      <trkpt lat="45.88487" lon="4.67435">
        <ele>340.17267</ele>
        <time>2022-08-23T13:23:00.000Z</time>
      </trkpt>
      <trkpt lat="45.8849" lon="4.67436">
        <ele>340.13437</ele>
        <time>2022-08-23T13:23:01.000Z</time>
      </trkpt>
      <trkpt lat="45.88493" lon="4.67436">
        <ele>340.0531</ele>
        <time>2022-08-23T13:23:02.000Z</time>
      </trkpt>
      <trkpt lat="45.88497" lon="4.67436">
        <ele>339.97183</ele>
        <time>2022-08-23T13:23:03.000Z</time>
      </trkpt>
      <trkpt lat="45.88502" lon="4.67437">
        <ele>339.91815</ele>
        <time>2022-08-23T13:23:04.000Z</time>
      </trkpt>
      <trkpt lat="45.88508" lon="4.67439">
        <ele>339.81192</ele>
        <time>2022-08-23T13:23:05.000Z</time>
      </trkpt>
      <trkpt lat="45.88513" lon="4.6744">
        <ele>339.69766</ele>
        <time>2022-08-23T13:23:06.000Z</time>
      </trkpt>
      <trkpt lat="45.88519" lon="4.67444">
        <ele>339.64178</ele>
        <time>2022-08-23T13:23:07.000Z</time>
      </trkpt>
      <trkpt lat="45.88523" lon="4.67446">
        <ele>339.57285</ele>
        <time>2022-08-23T13:23:08.000Z</time>
      </trkpt>
      <trkpt lat="45.8853" lon="4.67449">
        <ele>339.43048</ele>
        <time>2022-08-23T13:23:09.000Z</time>
      </trkpt>
      <trkpt lat="45.88534" lon="4.67451">
        <ele>339.2854</ele>
        <time>2022-08-23T13:23:10.000Z</time>
      </trkpt>
      <trkpt lat="45.88537" lon="4.67451">
        <ele>339.10114</ele>
        <time>2022-08-23T13:23:11.000Z</time>
      </trkpt>
      <trkpt lat="45.8854" lon="4.67452">
        <ele>338.97733</ele>
        <time>2022-08-23T13:23:12.000Z</time>
      </trkpt>
      <trkpt lat="45.88544" lon="4.67455">
        <ele>338.81799</ele>
        <time>2022-08-23T13:23:13.000Z</time>
      </trkpt>
      <trkpt lat="45.88548" lon="4.67456">
        <ele>338.6734</ele>
        <time>2022-08-23T13:23:14.000Z</time>
      </trkpt>
      <trkpt lat="45.88551" lon="4.67459">
        <ele>338.52762</ele>
        <time>2022-08-23T13:23:15.000Z</time>
      </trkpt>
      <trkpt lat="45.88555" lon="4.67459">
        <ele>338.39835</ele>
        <time>2022-08-23T13:23:16.000Z</time>
      </trkpt>
      <trkpt lat="45.88559" lon="4.67461">
        <ele>338.19</ele>
        <time>2022-08-23T13:23:17.000Z</time>
      </trkpt>
      <trkpt lat="45.88562" lon="4.67463">
        <ele>337.99884</ele>
        <time>2022-08-23T13:23:18.000Z</time>
      </trkpt>
      <trkpt lat="45.88564" lon="4.67465">
        <ele>337.75772</ele>
        <time>2022-08-23T13:23:19.000Z</time>
      </trkpt>
      <trkpt lat="45.88566" lon="4.67466">
        <ele>337.53256</ele>
        <time>2022-08-23T13:23:20.000Z</time>
      </trkpt>
      <trkpt lat="45.88569" lon="4.67467">
        <ele>337.30743</ele>
        <time>2022-08-23T13:23:21.000Z</time>
      </trkpt>
      <trkpt lat="45.88572" lon="4.67469">
        <ele>337.09375</ele>
        <time>2022-08-23T13:23:22.000Z</time>
      </trkpt>
      <trkpt lat="45.88574" lon="4.6747">
        <ele>336.88794</ele>
        <time>2022-08-23T13:23:23.000Z</time>
      </trkpt>
      <trkpt lat="45.88577" lon="4.67472">
        <ele>336.6676</ele>
        <time>2022-08-23T13:23:24.000Z</time>
      </trkpt>
      <trkpt lat="45.88579" lon="4.67473">
        <ele>336.43121</ele>
        <time>2022-08-23T13:23:25.000Z</time>
      </trkpt>
      <trkpt lat="45.88581" lon="4.67474">
        <ele>336.11304</ele>
        <time>2022-08-23T13:23:26.000Z</time>
      </trkpt>
      <trkpt lat="45.88583" lon="4.67476">
        <ele>335.7681</ele>
        <time>2022-08-23T13:23:27.000Z</time>
      </trkpt>
      <trkpt lat="45.88585" lon="4.67477">
        <ele>335.45746</ele>
        <time>2022-08-23T13:23:28.000Z</time>
      </trkpt>
      <trkpt lat="45.88587" lon="4.67478">
        <ele>335.19952</ele>
        <time>2022-08-23T13:23:29.000Z</time>
      </trkpt>
      <trkpt lat="45.88589" lon="4.67479">
        <ele>334.92633</ele>
        <time>2022-08-23T13:23:30.000Z</time>
      </trkpt>
      <trkpt lat="45.88592" lon="4.67479">
        <ele>334.75397</ele>
        <time>2022-08-23T13:23:31.000Z</time>
      </trkpt>
      <trkpt lat="45.88594" lon="4.6748">
        <ele>334.61505</ele>
        <time>2022-08-23T13:23:32.000Z</time>
      </trkpt>
      <trkpt lat="45.88596" lon="4.67481">
        <ele>334.46234</ele>
        <time>2022-08-23T13:23:33.000Z</time>
      </trkpt>
      <trkpt lat="45.88598" lon="4.67482">
        <ele>334.38428</ele>
        <time>2022-08-23T13:23:34.000Z</time>
      </trkpt>
      <trkpt lat="45.886" lon="4.67483">
        <ele>334.31519</ele>
        <time>2022-08-23T13:23:35.000Z</time>
      </trkpt>
      <trkpt lat="45.88602" lon="4.67485">
        <ele>334.27628</ele>
        <time>2022-08-23T13:23:36.000Z</time>
      </trkpt>
      <trkpt lat="45.88604" lon="4.67486">
        <ele>334.2825</ele>
        <time>2022-08-23T13:23:37.000Z</time>
      </trkpt>
      <trkpt lat="45.88607" lon="4.67488">
        <ele>334.29135</ele>
        <time>2022-08-23T13:23:38.000Z</time>
      </trkpt>
      <trkpt lat="45.88609" lon="4.6749">
        <ele>334.33005</ele>
        <time>2022-08-23T13:23:39.000Z</time>
      </trkpt>
      <trkpt lat="45.88611" lon="4.67493">
        <ele>334.42816</ele>
        <time>2022-08-23T13:23:40.000Z</time>
      </trkpt>
      <trkpt lat="45.88613" lon="4.67495">
        <ele>334.54083</ele>
        <time>2022-08-23T13:23:41.000Z</time>
      </trkpt>
      <trkpt lat="45.88615" lon="4.67497">
        <ele>334.69662</ele>
        <time>2022-08-23T13:23:42.000Z</time>
      </trkpt>
      <trkpt lat="45.88618" lon="4.67499">
        <ele>334.86841</ele>
        <time>2022-08-23T13:23:43.000Z</time>
      </trkpt>
      <trkpt lat="45.8862" lon="4.67501">
        <ele>335.06033</ele>
        <time>2022-08-23T13:23:44.000Z</time>
      </trkpt>
      <trkpt lat="45.88623" lon="4.67502">
        <ele>335.28275</ele>
        <time>2022-08-23T13:23:45.000Z</time>
      </trkpt>
      <trkpt lat="45.88624" lon="4.67499">
        <ele>335.66019</ele>
        <time>2022-08-23T13:23:50.000Z</time>
      </trkpt>
      <trkpt lat="45.88624" lon="4.67497">
        <ele>336.04987</ele>
        <time>2022-08-23T13:23:59.000Z</time>
      </trkpt>
      <trkpt lat="45.88626" lon="4.67492">
        <ele>336.35873</ele>
        <time>2022-08-23T13:24:02.000Z</time>
      </trkpt>
      <trkpt lat="45.88627" lon="4.67489">
        <ele>336.70108</ele>
        <time>2022-08-23T13:24:03.000Z</time>
      </trkpt>
      <trkpt lat="45.88629" lon="4.67487">
        <ele>337.00763</ele>
        <time>2022-08-23T13:24:04.000Z</time>
      </trkpt>
      <trkpt lat="45.88631" lon="4.67484">
        <ele>337.28522</ele>
        <time>2022-08-23T13:24:05.000Z</time>
      </trkpt>
      <trkpt lat="45.88633" lon="4.67482">
        <ele>337.56622</ele>
        <time>2022-08-23T13:24:06.000Z</time>
      </trkpt>
      <trkpt lat="45.88635" lon="4.6748">
        <ele>337.79208</ele>
        <time>2022-08-23T13:24:07.000Z</time>
      </trkpt>
      <trkpt lat="45.88636" lon="4.67478">
        <ele>337.88184</ele>
        <time>2022-08-23T13:24:08.000Z</time>
      </trkpt>
      <trkpt lat="45.88637" lon="4.67476">
        <ele>337.95956</ele>
        <time>2022-08-23T13:24:09.000Z</time>
      </trkpt>
      <trkpt lat="45.88638" lon="4.67473">
        <ele>338.1015</ele>
        <time>2022-08-23T13:24:10.000Z</time>
      </trkpt>
      <trkpt lat="45.88639" lon="4.6747">
        <ele>338.28519</ele>
        <time>2022-08-23T13:24:12.000Z</time>
      </trkpt>
      <trkpt lat="45.8864" lon="4.67466">
        <ele>338.50989</ele>
        <time>2022-08-23T13:24:15.000Z</time>
      </trkpt>
      <trkpt lat="45.88639" lon="4.67463">
        <ele>338.65262</ele>
        <time>2022-08-23T13:24:39.000Z</time>
      </trkpt>
      <trkpt lat="45.88638" lon="4.67461">
        <ele>338.72589</ele>
        <time>2022-08-23T13:24:41.000Z</time>
      </trkpt>
      <trkpt lat="45.88639" lon="4.67456">
        <ele>338.78448</ele>
        <time>2022-08-23T13:24:43.000Z</time>
      </trkpt>
      <trkpt lat="45.88639" lon="4.67453">
        <ele>338.86807</ele>
        <time>2022-08-23T13:24:44.000Z</time>
      </trkpt>
      <trkpt lat="45.8864" lon="4.6745">
        <ele>338.99149</ele>
        <time>2022-08-23T13:24:45.000Z</time>
      </trkpt>
      <trkpt lat="45.8864" lon="4.67447">
        <ele>339.08917</ele>
        <time>2022-08-23T13:24:46.000Z</time>
      </trkpt>
      <trkpt lat="45.8864" lon="4.67444">
        <ele>339.23358</ele>
        <time>2022-08-23T13:24:47.000Z</time>
      </trkpt>
      <trkpt lat="45.8864" lon="4.67442">
        <ele>339.4057</ele>
        <time>2022-08-23T13:24:48.000Z</time>
      </trkpt>
      <trkpt lat="45.8864" lon="4.67436">
        <ele>339.76187</ele>
        <time>2022-08-23T13:24:50.000Z</time>
      </trkpt>
      <trkpt lat="45.88641" lon="4.67433">
        <ele>340.23926</ele>
        <time>2022-08-23T13:24:51.000Z</time>
      </trkpt>
      <trkpt lat="45.88641" lon="4.67429">
        <ele>340.67758</ele>
        <time>2022-08-23T13:24:52.000Z</time>
      </trkpt>
      <trkpt lat="45.88642" lon="4.67426">
        <ele>341.13327</ele>
        <time>2022-08-23T13:24:53.000Z</time>
      </trkpt>
      <trkpt lat="45.88642" lon="4.67422">
        <ele>341.6326</ele>
        <time>2022-08-23T13:24:54.000Z</time>
      </trkpt>
      <trkpt lat="45.88642" lon="4.67419">
        <ele>342.164</ele>
        <time>2022-08-23T13:24:55.000Z</time>
      </trkpt>
      <trkpt lat="45.88642" lon="4.67416">
        <ele>342.73895</ele>
        <time>2022-08-23T13:24:56.000Z</time>
      </trkpt>
      <trkpt lat="45.88643" lon="4.67413">
        <ele>343.35468</ele>
        <time>2022-08-23T13:24:57.000Z</time>
      </trkpt>
      <trkpt lat="45.88643" lon="4.67411">
        <ele>344.03247</ele>
        <time>2022-08-23T13:24:58.000Z</time>
      </trkpt>
      <trkpt lat="45.88643" lon="4.67407">
        <ele>344.61987</ele>
        <time>2022-08-23T13:25:00.000Z</time>
      </trkpt>
      <trkpt lat="45.88642" lon="4.67404">
        <ele>345.10983</ele>
        <time>2022-08-23T13:25:09.000Z</time>
      </trkpt>
      <trkpt lat="45.88641" lon="4.67401">
        <ele>345.48376</ele>
        <time>2022-08-23T13:25:11.000Z</time>
      </trkpt>
      <trkpt lat="45.8864" lon="4.67397">
        <ele>345.92892</ele>
        <time>2022-08-23T13:25:13.000Z</time>
      </trkpt>
      <trkpt lat="45.8864" lon="4.67394">
        <ele>346.319</ele>
        <time>2022-08-23T13:25:15.000Z</time>
      </trkpt>
      <trkpt lat="45.8864" lon="4.6739">
        <ele>346.79074</ele>
        <time>2022-08-23T13:25:17.000Z</time>
      </trkpt>
      <trkpt lat="45.8864" lon="4.67388">
        <ele>347.22543</ele>
        <time>2022-08-23T13:25:19.000Z</time>
      </trkpt>
      <trkpt lat="45.8864" lon="4.67384">
        <ele>347.58499</ele>
        <time>2022-08-23T13:25:21.000Z</time>
      </trkpt>
      <trkpt lat="45.8864" lon="4.67381">
        <ele>347.95306</ele>
        <time>2022-08-23T13:25:23.000Z</time>
      </trkpt>
      <trkpt lat="45.8864" lon="4.67377">
        <ele>348.3161</ele>
        <time>2022-08-23T13:25:25.000Z</time>
      </trkpt>
      <trkpt lat="45.8864" lon="4.67374">
        <ele>348.63617</ele>
        <time>2022-08-23T13:25:28.000Z</time>
      </trkpt>
      <trkpt lat="45.8864" lon="4.67369">
        <ele>348.90118</ele>
        <time>2022-08-23T13:25:31.000Z</time>
      </trkpt>
      <trkpt lat="45.88641" lon="4.67365">
        <ele>349.06622</ele>
        <time>2022-08-23T13:25:33.000Z</time>
      </trkpt>
      <trkpt lat="45.8864" lon="4.67362">
        <ele>349.31976</ele>
        <time>2022-08-23T13:25:35.000Z</time>
      </trkpt>
      <trkpt lat="45.8864" lon="4.67359">
        <ele>349.6394</ele>
        <time>2022-08-23T13:25:37.000Z</time>
      </trkpt>
      <trkpt lat="45.88639" lon="4.67355">
        <ele>349.99643</ele>
        <time>2022-08-23T13:25:39.000Z</time>
      </trkpt>
      <trkpt lat="45.88638" lon="4.67351">
        <ele>350.26544</ele>
        <time>2022-08-23T13:25:41.000Z</time>
      </trkpt>
      <trkpt lat="45.88638" lon="4.67347">
        <ele>350.50653</ele>
        <time>2022-08-23T13:25:43.000Z</time>
      </trkpt>
      <trkpt lat="45.88638" lon="4.67344">
        <ele>350.77658</ele>
        <time>2022-08-23T13:25:45.000Z</time>
      </trkpt>
      <trkpt lat="45.88637" lon="4.67341">
        <ele>350.99756</ele>
        <time>2022-08-23T13:25:47.000Z</time>
      </trkpt>
      <trkpt lat="45.88637" lon="4.67337">
        <ele>351.27081</ele>
        <time>2022-08-23T13:25:49.000Z</time>
      </trkpt>
      <trkpt lat="45.88637" lon="4.67334">
        <ele>351.70547</ele>
        <time>2022-08-23T13:25:52.000Z</time>
      </trkpt>
      <trkpt lat="45.88638" lon="4.67332">
        <ele>352.24173</ele>
        <time>2022-08-23T13:25:55.000Z</time>
      </trkpt>
      <trkpt lat="45.88638" lon="4.67328">
        <ele>352.62558</ele>
        <time>2022-08-23T13:26:07.000Z</time>
      </trkpt>
      <trkpt lat="45.88637" lon="4.67324">
        <ele>353.05853</ele>
        <time>2022-08-23T13:26:09.000Z</time>
      </trkpt>
      <trkpt lat="45.88637" lon="4.67321">
        <ele>353.46542</ele>
        <time>2022-08-23T13:26:11.000Z</time>
      </trkpt>
      <trkpt lat="45.88637" lon="4.67318">
        <ele>353.88672</ele>
        <time>2022-08-23T13:26:13.000Z</time>
      </trkpt>
      <trkpt lat="45.88637" lon="4.67315">
        <ele>354.31387</ele>
        <time>2022-08-23T13:26:15.000Z</time>
      </trkpt>
      <trkpt lat="45.88636" lon="4.67312">
        <ele>354.75653</ele>
        <time>2022-08-23T13:26:17.000Z</time>
      </trkpt>
      <trkpt lat="45.88636" lon="4.67308">
        <ele>355.13577</ele>
        <time>2022-08-23T13:26:19.000Z</time>
      </trkpt>
      <trkpt lat="45.88636" lon="4.67305">
        <ele>355.40775</ele>
        <time>2022-08-23T13:26:22.000Z</time>
      </trkpt>
      <trkpt lat="45.88634" lon="4.67302">
        <ele>355.52133</ele>
        <time>2022-08-23T13:26:24.000Z</time>
      </trkpt>
      <trkpt lat="45.88633" lon="4.673">
        <ele>355.68488</ele>
        <time>2022-08-23T13:26:26.000Z</time>
      </trkpt>
      <trkpt lat="45.88632" lon="4.67298">
        <ele>355.79968</ele>
        <time>2022-08-23T13:26:28.000Z</time>
      </trkpt>
      <trkpt lat="45.88631" lon="4.67295">
        <ele>355.86847</ele>
        <time>2022-08-23T13:26:30.000Z</time>
      </trkpt>
      <trkpt lat="45.88633" lon="4.67295">
        <ele>355.88931</ele>
        <time>2022-08-23T13:26:40.000Z</time>
      </trkpt>
      <trkpt lat="45.88633" lon="4.67292">
        <ele>355.92706</ele>
        <time>2022-08-23T13:26:44.000Z</time>
      </trkpt>
      <trkpt lat="45.88633" lon="4.67288">
        <ele>356.02994</ele>
        <time>2022-08-23T13:26:46.000Z</time>
      </trkpt>
      <trkpt lat="45.88634" lon="4.67284">
        <ele>356.23831</ele>
        <time>2022-08-23T13:26:48.000Z</time>
      </trkpt>
      <trkpt lat="45.88635" lon="4.67281">
        <ele>356.45599</ele>
        <time>2022-08-23T13:26:50.000Z</time>
      </trkpt>
      <trkpt lat="45.88635" lon="4.67278">
        <ele>356.6301</ele>
        <time>2022-08-23T13:26:53.000Z</time>
      </trkpt>
      <trkpt lat="45.88636" lon="4.67275">
        <ele>356.78864</ele>
        <time>2022-08-23T13:26:55.000Z</time>
      </trkpt>
      <trkpt lat="45.88636" lon="4.67271">
        <ele>356.83905</ele>
        <time>2022-08-23T13:26:57.000Z</time>
      </trkpt>
      <trkpt lat="45.88636" lon="4.67268">
        <ele>357.01398</ele>
        <time>2022-08-23T13:26:59.000Z</time>
      </trkpt>
      <trkpt lat="45.88636" lon="4.67265">
        <ele>357.33081</ele>
        <time>2022-08-23T13:27:01.000Z</time>
      </trkpt>
      <trkpt lat="45.88636" lon="4.67261">
        <ele>357.64163</ele>
        <time>2022-08-23T13:27:03.000Z</time>
      </trkpt>
      <trkpt lat="45.88636" lon="4.67257">
        <ele>357.93689</ele>
        <time>2022-08-23T13:27:05.000Z</time>
      </trkpt>
      <trkpt lat="45.88635" lon="4.67255">
        <ele>358.16382</ele>
        <time>2022-08-23T13:27:07.000Z</time>
      </trkpt>
      <trkpt lat="45.88635" lon="4.67252">
        <ele>358.36713</ele>
        <time>2022-08-23T13:27:09.000Z</time>
      </trkpt>
      <trkpt lat="45.88634" lon="4.67248">
        <ele>358.79001</ele>
        <time>2022-08-23T13:27:30.000Z</time>
      </trkpt>
      <trkpt lat="45.88635" lon="4.67244">
        <ele>359.31699</ele>
        <time>2022-08-23T13:27:32.000Z</time>
      </trkpt>
      <trkpt lat="45.88635" lon="4.67239">
        <ele>359.98788</ele>
        <time>2022-08-23T13:27:34.000Z</time>
      </trkpt>
      <trkpt lat="45.88635" lon="4.67235">
        <ele>360.74356</ele>
        <time>2022-08-23T13:27:36.000Z</time>
      </trkpt>
      <trkpt lat="45.88638" lon="4.67232">
        <ele>361.38748</ele>
        <time>2022-08-23T13:27:38.000Z</time>
      </trkpt>
      <trkpt lat="45.88639" lon="4.67229">
        <ele>362.10223</ele>
        <time>2022-08-23T13:27:40.000Z</time>
      </trkpt>
      <trkpt lat="45.88639" lon="4.67225">
        <ele>362.6911</ele>
        <time>2022-08-23T13:27:42.000Z</time>
      </trkpt>
      <trkpt lat="45.88639" lon="4.67221">
        <ele>363.39636</ele>
        <time>2022-08-23T13:27:44.000Z</time>
      </trkpt>
      <trkpt lat="45.8864" lon="4.67217">
        <ele>364.04916</ele>
        <time>2022-08-23T13:27:46.000Z</time>
      </trkpt>
      <trkpt lat="45.88641" lon="4.67213">
        <ele>364.5932</ele>
        <time>2022-08-23T13:27:48.000Z</time>
      </trkpt>
      <trkpt lat="45.88642" lon="4.6721">
        <ele>365.15176</ele>
        <time>2022-08-23T13:27:51.000Z</time>
      </trkpt>
      <trkpt lat="45.88641" lon="4.67207">
        <ele>365.64682</ele>
        <time>2022-08-23T13:27:53.000Z</time>
      </trkpt>
      <trkpt lat="45.88642" lon="4.67203">
        <ele>366.15536</ele>
        <time>2022-08-23T13:27:56.000Z</time>
      </trkpt>
      <trkpt lat="45.88641" lon="4.67199">
        <ele>366.8241</ele>
        <time>2022-08-23T13:27:59.000Z</time>
      </trkpt>
      <trkpt lat="45.88641" lon="4.67196">
        <ele>367.52863</ele>
        <time>2022-08-23T13:28:01.000Z</time>
      </trkpt>
      <trkpt lat="45.88642" lon="4.67193">
        <ele>368.17511</ele>
        <time>2022-08-23T13:28:03.000Z</time>
      </trkpt>
      <trkpt lat="45.88642" lon="4.67189">
        <ele>368.7702</ele>
        <time>2022-08-23T13:28:05.000Z</time>
      </trkpt>
      <trkpt lat="45.88641" lon="4.67185">
        <ele>369.44675</ele>
        <time>2022-08-23T13:28:07.000Z</time>
      </trkpt>
      <trkpt lat="45.88643" lon="4.67182">
        <ele>370.32748</ele>
        <time>2022-08-23T13:28:10.000Z</time>
      </trkpt>
      <trkpt lat="45.88644" lon="4.67179">
        <ele>371.34735</ele>
        <time>2022-08-23T13:28:12.000Z</time>
      </trkpt>
      <trkpt lat="45.88645" lon="4.67176">
        <ele>372.03763</ele>
        <time>2022-08-23T13:28:14.000Z</time>
      </trkpt>
      <trkpt lat="45.88646" lon="4.67173">
        <ele>372.59454</ele>
        <time>2022-08-23T13:28:16.000Z</time>
      </trkpt>
      <trkpt lat="45.88646" lon="4.67171">
        <ele>373.02386</ele>
        <time>2022-08-23T13:28:18.000Z</time>
      </trkpt>
      <trkpt lat="45.88647" lon="4.67168">
        <ele>373.19177</ele>
        <time>2022-08-23T13:28:29.000Z</time>
      </trkpt>
      <trkpt lat="45.88649" lon="4.67166">
        <ele>373.52338</ele>
        <time>2022-08-23T13:28:47.000Z</time>
      </trkpt>
      <trkpt lat="45.88652" lon="4.67164">
        <ele>373.81216</ele>
        <time>2022-08-23T13:28:49.000Z</time>
      </trkpt>
      <trkpt lat="45.88654" lon="4.67163">
        <ele>374.25244</ele>
        <time>2022-08-23T13:28:50.000Z</time>
      </trkpt>
      <trkpt lat="45.88656" lon="4.6716">
        <ele>374.6756</ele>
        <time>2022-08-23T13:28:52.000Z</time>
      </trkpt>
      <trkpt lat="45.88658" lon="4.67157">
        <ele>375.12476</ele>
        <time>2022-08-23T13:28:54.000Z</time>
      </trkpt>
      <trkpt lat="45.8866" lon="4.67154">
        <ele>375.67532</ele>
        <time>2022-08-23T13:28:56.000Z</time>
      </trkpt>
      <trkpt lat="45.88662" lon="4.67152">
        <ele>376.09952</ele>
        <time>2022-08-23T13:28:58.000Z</time>
      </trkpt>
      <trkpt lat="45.88664" lon="4.6715">
        <ele>376.59882</ele>
        <time>2022-08-23T13:29:00.000Z</time>
      </trkpt>
      <trkpt lat="45.88665" lon="4.67149">
        <ele>377.12488</ele>
        <time>2022-08-23T13:29:02.000Z</time>
      </trkpt>
      <trkpt lat="45.88668" lon="4.67148">
        <ele>377.4866</ele>
        <time>2022-08-23T13:29:05.000Z</time>
      </trkpt>
      <trkpt lat="45.8867" lon="4.67147">
        <ele>377.72784</ele>
        <time>2022-08-23T13:29:07.000Z</time>
      </trkpt>
      <trkpt lat="45.88672" lon="4.67146">
        <ele>377.90436</ele>
        <time>2022-08-23T13:29:09.000Z</time>
      </trkpt>
      <trkpt lat="45.88674" lon="4.67145">
        <ele>378.12543</ele>
        <time>2022-08-23T13:29:12.000Z</time>
      </trkpt>
      <trkpt lat="45.88676" lon="4.67145">
        <ele>378.23553</ele>
        <time>2022-08-23T13:29:14.000Z</time>
      </trkpt>
      <trkpt lat="45.88679" lon="4.67144">
        <ele>378.17032</ele>
        <time>2022-08-23T13:29:16.000Z</time>
      </trkpt>
      <trkpt lat="45.88681" lon="4.67143">
        <ele>378.02393</ele>
        <time>2022-08-23T13:29:18.000Z</time>
      </trkpt>
      <trkpt lat="45.88684" lon="4.67141">
        <ele>378.01874</ele>
        <time>2022-08-23T13:29:20.000Z</time>
      </trkpt>
      <trkpt lat="45.88685" lon="4.6714">
        <ele>378.19965</ele>
        <time>2022-08-23T13:29:21.000Z</time>
      </trkpt>
      <trkpt lat="45.88688" lon="4.67138">
        <ele>378.58746</ele>
        <time>2022-08-23T13:29:23.000Z</time>
      </trkpt>
      <trkpt lat="45.8869" lon="4.67138">
        <ele>379.25128</ele>
        <time>2022-08-23T13:29:25.000Z</time>
      </trkpt>
      <trkpt lat="45.88692" lon="4.67138">
        <ele>379.86218</ele>
        <time>2022-08-23T13:29:27.000Z</time>
      </trkpt>
      <trkpt lat="45.88695" lon="4.67139">
        <ele>380.49268</ele>
        <time>2022-08-23T13:29:30.000Z</time>
      </trkpt>
      <trkpt lat="45.88696" lon="4.67138">
        <ele>380.94168</ele>
        <time>2022-08-23T13:29:32.000Z</time>
      </trkpt>
      <trkpt lat="45.88699" lon="4.67137">
        <ele>381.27194</ele>
        <time>2022-08-23T13:29:34.000Z</time>
      </trkpt>
      <trkpt lat="45.88701" lon="4.67136">
        <ele>381.65497</ele>
        <time>2022-08-23T13:29:37.000Z</time>
      </trkpt>
      <trkpt lat="45.88703" lon="4.67136">
        <ele>381.89572</ele>
        <time>2022-08-23T13:29:39.000Z</time>
      </trkpt>
      <trkpt lat="45.88705" lon="4.67136">
        <ele>382.22662</ele>
        <time>2022-08-23T13:29:41.000Z</time>
      </trkpt>
      <trkpt lat="45.88708" lon="4.67136">
        <ele>382.62363</ele>
        <time>2022-08-23T13:29:43.000Z</time>
      </trkpt>
      <trkpt lat="45.8871" lon="4.67136">
        <ele>382.99341</ele>
        <time>2022-08-23T13:29:45.000Z</time>
      </trkpt>
      <trkpt lat="45.88713" lon="4.67136">
        <ele>383.44952</ele>
        <time>2022-08-23T13:29:47.000Z</time>
      </trkpt>
      <trkpt lat="45.88716" lon="4.67137">
        <ele>384.05743</ele>
        <time>2022-08-23T13:29:49.000Z</time>
      </trkpt>
      <trkpt lat="45.88718" lon="4.67138">
        <ele>384.71973</ele>
        <time>2022-08-23T13:29:51.000Z</time>
      </trkpt>
      <trkpt lat="45.8872" lon="4.67138">
        <ele>385.3399</ele>
        <time>2022-08-23T13:29:54.000Z</time>
      </trkpt>
      <trkpt lat="45.88723" lon="4.67139">
        <ele>386.03912</ele>
        <time>2022-08-23T13:29:56.000Z</time>
      </trkpt>
      <trkpt lat="45.88727" lon="4.67144">
        <ele>386.84598</ele>
        <time>2022-08-23T13:30:02.000Z</time>
      </trkpt>
      <trkpt lat="45.8873" lon="4.67145">
        <ele>387.57346</ele>
        <time>2022-08-23T13:30:04.000Z</time>
      </trkpt>
      <trkpt lat="45.88732" lon="4.67146">
        <ele>388.22891</ele>
        <time>2022-08-23T13:30:06.000Z</time>
      </trkpt>
      <trkpt lat="45.88733" lon="4.67148">
        <ele>388.85736</ele>
        <time>2022-08-23T13:30:08.000Z</time>
      </trkpt>
      <trkpt lat="45.88735" lon="4.67151">
        <ele>389.27206</ele>
        <time>2022-08-23T13:30:11.000Z</time>
      </trkpt>
      <trkpt lat="45.88737" lon="4.67153">
        <ele>389.53632</ele>
        <time>2022-08-23T13:30:14.000Z</time>
      </trkpt>
      <trkpt lat="45.88739" lon="4.67155">
        <ele>389.72675</ele>
        <time>2022-08-23T13:30:16.000Z</time>
      </trkpt>
      <trkpt lat="45.88741" lon="4.67157">
        <ele>389.84064</ele>
        <time>2022-08-23T13:30:18.000Z</time>
      </trkpt>
      <trkpt lat="45.88744" lon="4.67159">
        <ele>390.04877</ele>
        <time>2022-08-23T13:30:20.000Z</time>
      </trkpt>
      <trkpt lat="45.88747" lon="4.67159">
        <ele>390.29938</ele>
        <time>2022-08-23T13:30:22.000Z</time>
      </trkpt>
      <trkpt lat="45.8875" lon="4.67159">
        <ele>390.34695</ele>
        <time>2022-08-23T13:30:24.000Z</time>
      </trkpt>
      <trkpt lat="45.88752" lon="4.6716">
        <ele>390.48746</ele>
        <time>2022-08-23T13:30:26.000Z</time>
      </trkpt>
      <trkpt lat="45.88755" lon="4.67161">
        <ele>390.64996</ele>
        <time>2022-08-23T13:30:28.000Z</time>
      </trkpt>
      <trkpt lat="45.88757" lon="4.67162">
        <ele>390.67221</ele>
        <time>2022-08-23T13:30:30.000Z</time>
      </trkpt>
      <trkpt lat="45.88758" lon="4.67164">
        <ele>390.58282</ele>
        <time>2022-08-23T13:30:32.000Z</time>
      </trkpt>
      <trkpt lat="45.8876" lon="4.67163">
        <ele>390.50528</ele>
        <time>2022-08-23T13:30:34.000Z</time>
      </trkpt>
      <trkpt lat="45.88762" lon="4.67159">
        <ele>390.34946</ele>
        <time>2022-08-23T13:30:36.000Z</time>
      </trkpt>
      <trkpt lat="45.88763" lon="4.67157">
        <ele>390.23883</ele>
        <time>2022-08-23T13:30:37.000Z</time>
      </trkpt>
      <trkpt lat="45.88764" lon="4.67153">
        <ele>390.21951</ele>
        <time>2022-08-23T13:30:39.000Z</time>
      </trkpt>
      <trkpt lat="45.88765" lon="4.6715">
        <ele>390.16147</ele>
        <time>2022-08-23T13:30:41.000Z</time>
      </trkpt>
      <trkpt lat="45.88764" lon="4.67152">
        <ele>390.16537</ele>
        <time>2022-08-23T13:30:51.000Z</time>
      </trkpt>
      <trkpt lat="45.88765" lon="4.67149">
        <ele>390.32367</ele>
        <time>2022-08-23T13:36:11.000Z</time>
      </trkpt>
      <trkpt lat="45.88765" lon="4.67146">
        <ele>390.59448</ele>
        <time>2022-08-23T13:36:12.000Z</time>
      </trkpt>
      <trkpt lat="45.88765" lon="4.67142">
        <ele>390.75998</ele>
        <time>2022-08-23T13:36:13.000Z</time>
      </trkpt>
      <trkpt lat="45.88766" lon="4.67139">
        <ele>391.00754</ele>
        <time>2022-08-23T13:36:14.000Z</time>
      </trkpt>
      <trkpt lat="45.88767" lon="4.67137">
        <ele>391.3562</ele>
        <time>2022-08-23T13:36:15.000Z</time>
      </trkpt>
      <trkpt lat="45.88768" lon="4.67134">
        <ele>391.80145</ele>
        <time>2022-08-23T13:36:16.000Z</time>
      </trkpt>
      <trkpt lat="45.88769" lon="4.67131">
        <ele>392.32266</ele>
        <time>2022-08-23T13:36:17.000Z</time>
      </trkpt>
      <trkpt lat="45.8877" lon="4.67129">
        <ele>392.83286</ele>
        <time>2022-08-23T13:36:18.000Z</time>
      </trkpt>
      <trkpt lat="45.88771" lon="4.67126">
        <ele>393.39096</ele>
        <time>2022-08-23T13:36:19.000Z</time>
      </trkpt>
      <trkpt lat="45.88771" lon="4.67123">
        <ele>394.00739</ele>
        <time>2022-08-23T13:36:20.000Z</time>
      </trkpt>
      <trkpt lat="45.88772" lon="4.6712">
        <ele>394.56036</ele>
        <time>2022-08-23T13:36:21.000Z</time>
      </trkpt>
      <trkpt lat="45.88772" lon="4.67116">
        <ele>395.09576</ele>
        <time>2022-08-23T13:36:22.000Z</time>
      </trkpt>
      <trkpt lat="45.88773" lon="4.67113">
        <ele>395.76736</ele>
        <time>2022-08-23T13:36:23.000Z</time>
      </trkpt>
      <trkpt lat="45.88773" lon="4.67109">
        <ele>396.50507</ele>
        <time>2022-08-23T13:36:24.000Z</time>
      </trkpt>
      <trkpt lat="45.88774" lon="4.67105">
        <ele>397.21567</ele>
        <time>2022-08-23T13:36:25.000Z</time>
      </trkpt>
      <trkpt lat="45.88775" lon="4.67102">
        <ele>397.97528</ele>
        <time>2022-08-23T13:36:26.000Z</time>
      </trkpt>
      <trkpt lat="45.88775" lon="4.67099">
        <ele>398.61044</ele>
        <time>2022-08-23T13:36:27.000Z</time>
      </trkpt>
      <trkpt lat="45.88776" lon="4.67096">
        <ele>399.14972</ele>
        <time>2022-08-23T13:36:28.000Z</time>
      </trkpt>
      <trkpt lat="45.88776" lon="4.67094">
        <ele>399.65356</ele>
        <time>2022-08-23T13:36:29.000Z</time>
      </trkpt>
      <trkpt lat="45.88777" lon="4.67091">
        <ele>400.01022</ele>
        <time>2022-08-23T13:36:31.000Z</time>
      </trkpt>
      <trkpt lat="45.88776" lon="4.67088">
        <ele>400.01901</ele>
        <time>2022-08-23T13:36:43.000Z</time>
      </trkpt>
      <trkpt lat="45.88778" lon="4.67086">
        <ele>399.92291</ele>
        <time>2022-08-23T13:37:08.000Z</time>
      </trkpt>
      <trkpt lat="45.88781" lon="4.67086">
        <ele>399.78076</ele>
        <time>2022-08-23T13:37:09.000Z</time>
      </trkpt>
      <trkpt lat="45.88784" lon="4.67086">
        <ele>399.71307</ele>
        <time>2022-08-23T13:37:10.000Z</time>
      </trkpt>
      <trkpt lat="45.88786" lon="4.67085">
        <ele>399.55688</ele>
        <time>2022-08-23T13:37:11.000Z</time>
      </trkpt>
      <trkpt lat="45.88789" lon="4.67085">
        <ele>399.39304</ele>
        <time>2022-08-23T13:37:12.000Z</time>
      </trkpt>
      <trkpt lat="45.88791" lon="4.67085">
        <ele>399.14276</ele>
        <time>2022-08-23T13:37:13.000Z</time>
      </trkpt>
      <trkpt lat="45.88794" lon="4.67084">
        <ele>398.90933</ele>
        <time>2022-08-23T13:37:14.000Z</time>
      </trkpt>
      <trkpt lat="45.88796" lon="4.67083">
        <ele>398.67542</ele>
        <time>2022-08-23T13:37:15.000Z</time>
      </trkpt>
      <trkpt lat="45.88799" lon="4.67082">
        <ele>398.50653</ele>
        <time>2022-08-23T13:37:16.000Z</time>
      </trkpt>
      <trkpt lat="45.88801" lon="4.67081">
        <ele>398.35712</ele>
        <time>2022-08-23T13:37:17.000Z</time>
      </trkpt>
      <trkpt lat="45.88803" lon="4.67081">
        <ele>398.14484</ele>
        <time>2022-08-23T13:37:18.000Z</time>
      </trkpt>
      <trkpt lat="45.88806" lon="4.6708">
        <ele>397.89569</ele>
        <time>2022-08-23T13:37:19.000Z</time>
      </trkpt>
      <trkpt lat="45.88808" lon="4.6708">
        <ele>397.61703</ele>
        <time>2022-08-23T13:37:20.000Z</time>
      </trkpt>
      <trkpt lat="45.88811" lon="4.67079">
        <ele>397.27118</ele>
        <time>2022-08-23T13:37:21.000Z</time>
      </trkpt>
      <trkpt lat="45.88813" lon="4.67078">
        <ele>396.90567</ele>
        <time>2022-08-23T13:37:22.000Z</time>
      </trkpt>
      <trkpt lat="45.88816" lon="4.67077">
        <ele>396.59232</ele>
        <time>2022-08-23T13:37:23.000Z</time>
      </trkpt>
      <trkpt lat="45.88818" lon="4.67076">
        <ele>396.32022</ele>
        <time>2022-08-23T13:37:24.000Z</time>
      </trkpt>
      <trkpt lat="45.8882" lon="4.67076">
        <ele>396.09024</ele>
        <time>2022-08-23T13:37:25.000Z</time>
      </trkpt>
      <trkpt lat="45.88823" lon="4.67075">
        <ele>395.88501</ele>
        <time>2022-08-23T13:37:26.000Z</time>
      </trkpt>
      <trkpt lat="45.88825" lon="4.67075">
        <ele>395.8902</ele>
        <time>2022-08-23T13:37:27.000Z</time>
      </trkpt>
      <trkpt lat="45.88828" lon="4.67075">
        <ele>395.92758</ele>
        <time>2022-08-23T13:37:28.000Z</time>
      </trkpt>
      <trkpt lat="45.8883" lon="4.67074">
        <ele>396.06128</ele>
        <time>2022-08-23T13:37:29.000Z</time>
      </trkpt>
      <trkpt lat="45.88832" lon="4.67074">
        <ele>396.11206</ele>
        <time>2022-08-23T13:37:30.000Z</time>
      </trkpt>
      <trkpt lat="45.88834" lon="4.67073">
        <ele>396.17294</ele>
        <time>2022-08-23T13:37:31.000Z</time>
      </trkpt>
      <trkpt lat="45.88837" lon="4.67073">
        <ele>396.1636</ele>
        <time>2022-08-23T13:37:32.000Z</time>
      </trkpt>
      <trkpt lat="45.88839" lon="4.67072">
        <ele>396.18842</ele>
        <time>2022-08-23T13:37:33.000Z</time>
      </trkpt>
      <trkpt lat="45.88841" lon="4.67072">
        <ele>396.24423</ele>
        <time>2022-08-23T13:37:34.000Z</time>
      </trkpt>
      <trkpt lat="45.88844" lon="4.67072">
        <ele>396.24652</ele>
        <time>2022-08-23T13:37:35.000Z</time>
      </trkpt>
      <trkpt lat="45.88846" lon="4.67072">
        <ele>396.15079</ele>
        <time>2022-08-23T13:37:36.000Z</time>
      </trkpt>
      <trkpt lat="45.88849" lon="4.67073">
        <ele>395.9715</ele>
        <time>2022-08-23T13:37:38.000Z</time>
      </trkpt>
      <trkpt lat="45.88851" lon="4.67075">
        <ele>395.8613</ele>
        <time>2022-08-23T13:37:39.000Z</time>
      </trkpt>
      <trkpt lat="45.88853" lon="4.67077">
        <ele>395.77109</ele>
        <time>2022-08-23T13:37:40.000Z</time>
      </trkpt>
      <trkpt lat="45.88854" lon="4.67081">
        <ele>395.66895</ele>
        <time>2022-08-23T13:37:41.000Z</time>
      </trkpt>
      <trkpt lat="45.88855" lon="4.67084">
        <ele>395.59314</ele>
        <time>2022-08-23T13:37:42.000Z</time>
      </trkpt>
      <trkpt lat="45.88856" lon="4.67089">
        <ele>395.48764</ele>
        <time>2022-08-23T13:37:43.000Z</time>
      </trkpt>
      <trkpt lat="45.88856" lon="4.67094">
        <ele>395.40387</ele>
        <time>2022-08-23T13:37:44.000Z</time>
      </trkpt>
      <trkpt lat="45.88858" lon="4.671">
        <ele>395.258</ele>
        <time>2022-08-23T13:37:45.000Z</time>
      </trkpt>
      <trkpt lat="45.88861" lon="4.67104">
        <ele>395.11557</ele>
        <time>2022-08-23T13:37:46.000Z</time>
      </trkpt>
      <trkpt lat="45.88864" lon="4.67106">
        <ele>394.97809</ele>
        <time>2022-08-23T13:37:47.000Z</time>
      </trkpt>
      <trkpt lat="45.88868" lon="4.67106">
        <ele>394.83002</ele>
        <time>2022-08-23T13:37:48.000Z</time>
      </trkpt>
      <trkpt lat="45.88872" lon="4.67104">
        <ele>394.689</ele>
        <time>2022-08-23T13:37:49.000Z</time>
      </trkpt>
      <trkpt lat="45.88876" lon="4.67102">
        <ele>394.46918</ele>
        <time>2022-08-23T13:37:50.000Z</time>
      </trkpt>
      <trkpt lat="45.8888" lon="4.67101">
        <ele>394.26617</ele>
        <time>2022-08-23T13:37:51.000Z</time>
      </trkpt>
      <trkpt lat="45.88883" lon="4.67099">
        <ele>394.10605</ele>
        <time>2022-08-23T13:37:52.000Z</time>
      </trkpt>
      <trkpt lat="45.88886" lon="4.67098">
        <ele>393.97739</ele>
        <time>2022-08-23T13:37:53.000Z</time>
      </trkpt>
      <trkpt lat="45.88889" lon="4.67096">
        <ele>393.83118</ele>
        <time>2022-08-23T13:37:54.000Z</time>
      </trkpt>
      <trkpt lat="45.88892" lon="4.67095">
        <ele>393.67877</ele>
        <time>2022-08-23T13:37:55.000Z</time>
      </trkpt>
      <trkpt lat="45.88894" lon="4.67093">
        <ele>393.52731</ele>
        <time>2022-08-23T13:37:56.000Z</time>
      </trkpt>
      <trkpt lat="45.88896" lon="4.67091">
        <ele>393.45792</ele>
        <time>2022-08-23T13:37:57.000Z</time>
      </trkpt>
      <trkpt lat="45.88898" lon="4.6709">
        <ele>393.4505</ele>
        <time>2022-08-23T13:37:58.000Z</time>
      </trkpt>
      <trkpt lat="45.88901" lon="4.67088">
        <ele>393.35934</ele>
        <time>2022-08-23T13:37:59.000Z</time>
      </trkpt>
      <trkpt lat="45.88904" lon="4.67087">
        <ele>393.18097</ele>
        <time>2022-08-23T13:38:00.000Z</time>
      </trkpt>
      <trkpt lat="45.88907" lon="4.67086">
        <ele>393.05887</ele>
        <time>2022-08-23T13:38:01.000Z</time>
      </trkpt>
      <trkpt lat="45.8891" lon="4.67085">
        <ele>392.93027</ele>
        <time>2022-08-23T13:38:02.000Z</time>
      </trkpt>
      <trkpt lat="45.88913" lon="4.67083">
        <ele>392.84048</ele>
        <time>2022-08-23T13:38:03.000Z</time>
      </trkpt>
      <trkpt lat="45.88915" lon="4.67082">
        <ele>392.72467</ele>
        <time>2022-08-23T13:38:04.000Z</time>
      </trkpt>
      <trkpt lat="45.88918" lon="4.6708">
        <ele>392.62933</ele>
        <time>2022-08-23T13:38:05.000Z</time>
      </trkpt>
      <trkpt lat="45.8892" lon="4.67078">
        <ele>392.51944</ele>
        <time>2022-08-23T13:38:06.000Z</time>
      </trkpt>
      <trkpt lat="45.88923" lon="4.67076">
        <ele>392.39365</ele>
        <time>2022-08-23T13:38:07.000Z</time>
      </trkpt>
      <trkpt lat="45.88926" lon="4.67075">
        <ele>392.23868</ele>
        <time>2022-08-23T13:38:08.000Z</time>
      </trkpt>
      <trkpt lat="45.88928" lon="4.67074">
        <ele>392.1048</ele>
        <time>2022-08-23T13:38:09.000Z</time>
      </trkpt>
      <trkpt lat="45.88931" lon="4.67073">
        <ele>392.04303</ele>
        <time>2022-08-23T13:38:10.000Z</time>
      </trkpt>
      <trkpt lat="45.88933" lon="4.67072">
        <ele>391.97256</ele>
        <time>2022-08-23T13:38:11.000Z</time>
      </trkpt>
      <trkpt lat="45.88936" lon="4.67071">
        <ele>391.9808</ele>
        <time>2022-08-23T13:38:12.000Z</time>
      </trkpt>
      <trkpt lat="45.88939" lon="4.67071">
        <ele>391.88043</ele>
        <time>2022-08-23T13:38:13.000Z</time>
      </trkpt>
      <trkpt lat="45.88941" lon="4.67072">
        <ele>391.71039</ele>
        <time>2022-08-23T13:38:14.000Z</time>
      </trkpt>
      <trkpt lat="45.88943" lon="4.67073">
        <ele>391.32666</ele>
        <time>2022-08-23T13:38:15.000Z</time>
      </trkpt>
      <trkpt lat="45.88945" lon="4.67076">
        <ele>390.85284</ele>
        <time>2022-08-23T13:38:17.000Z</time>
      </trkpt>
      <trkpt lat="45.88947" lon="4.67078">
        <ele>390.37067</ele>
        <time>2022-08-23T13:38:18.000Z</time>
      </trkpt>
      <trkpt lat="45.88949" lon="4.67081">
        <ele>389.92081</ele>
        <time>2022-08-23T13:38:19.000Z</time>
      </trkpt>
      <trkpt lat="45.88952" lon="4.67083">
        <ele>389.53448</ele>
        <time>2022-08-23T13:38:20.000Z</time>
      </trkpt>
      <trkpt lat="45.88956" lon="4.67085">
        <ele>389.17447</ele>
        <time>2022-08-23T13:38:21.000Z</time>
      </trkpt>
      <trkpt lat="45.88959" lon="4.67087">
        <ele>388.83798</ele>
        <time>2022-08-23T13:38:22.000Z</time>
      </trkpt>
      <trkpt lat="45.88962" lon="4.67087">
        <ele>388.54059</ele>
        <time>2022-08-23T13:38:23.000Z</time>
      </trkpt>
      <trkpt lat="45.88965" lon="4.67088">
        <ele>388.26978</ele>
        <time>2022-08-23T13:38:24.000Z</time>
      </trkpt>
      <trkpt lat="45.88967" lon="4.67088">
        <ele>388.00885</ele>
        <time>2022-08-23T13:38:25.000Z</time>
      </trkpt>
      <trkpt lat="45.8897" lon="4.67087">
        <ele>387.83234</ele>
        <time>2022-08-23T13:38:26.000Z</time>
      </trkpt>
      <trkpt lat="45.88972" lon="4.67087">
        <ele>387.6532</ele>
        <time>2022-08-23T13:38:27.000Z</time>
      </trkpt>
      <trkpt lat="45.88974" lon="4.67087">
        <ele>387.46332</ele>
        <time>2022-08-23T13:38:28.000Z</time>
      </trkpt>
      <trkpt lat="45.88977" lon="4.67086">
        <ele>387.3454</ele>
        <time>2022-08-23T13:38:29.000Z</time>
      </trkpt>
      <trkpt lat="45.8898" lon="4.67086">
        <ele>387.2269</ele>
        <time>2022-08-23T13:38:30.000Z</time>
      </trkpt>
      <trkpt lat="45.88982" lon="4.67085">
        <ele>387.09283</ele>
        <time>2022-08-23T13:38:31.000Z</time>
      </trkpt>
      <trkpt lat="45.88985" lon="4.67085">
        <ele>386.92355</ele>
        <time>2022-08-23T13:38:32.000Z</time>
      </trkpt>
      <trkpt lat="45.88988" lon="4.67085">
        <ele>386.6416</ele>
        <time>2022-08-23T13:38:33.000Z</time>
      </trkpt>
      <trkpt lat="45.88991" lon="4.67086">
        <ele>386.4758</ele>
        <time>2022-08-23T13:38:34.000Z</time>
      </trkpt>
      <trkpt lat="45.88993" lon="4.67087">
        <ele>386.38629</ele>
        <time>2022-08-23T13:38:35.000Z</time>
      </trkpt>
      <trkpt lat="45.88996" lon="4.67087">
        <ele>386.50235</ele>
        <time>2022-08-23T13:38:36.000Z</time>
      </trkpt>
      <trkpt lat="45.88999" lon="4.67087">
        <ele>386.65054</ele>
        <time>2022-08-23T13:38:37.000Z</time>
      </trkpt>
      <trkpt lat="45.89003" lon="4.67087">
        <ele>386.82452</ele>
        <time>2022-08-23T13:38:38.000Z</time>
      </trkpt>
      <trkpt lat="45.89006" lon="4.67088">
        <ele>387.02142</ele>
        <time>2022-08-23T13:38:39.000Z</time>
      </trkpt>
      <trkpt lat="45.89008" lon="4.67088">
        <ele>387.25299</ele>
        <time>2022-08-23T13:38:40.000Z</time>
      </trkpt>
      <trkpt lat="45.89012" lon="4.67089">
        <ele>387.4541</ele>
        <time>2022-08-23T13:38:41.000Z</time>
      </trkpt>
      <trkpt lat="45.89016" lon="4.6709">
        <ele>387.57037</ele>
        <time>2022-08-23T13:38:42.000Z</time>
      </trkpt>
      <trkpt lat="45.89019" lon="4.67091">
        <ele>387.65631</ele>
        <time>2022-08-23T13:38:43.000Z</time>
      </trkpt>
      <trkpt lat="45.89023" lon="4.67093">
        <ele>387.66318</ele>
        <time>2022-08-23T13:38:44.000Z</time>
      </trkpt>
      <trkpt lat="45.89027" lon="4.67094">
        <ele>387.70175</ele>
        <time>2022-08-23T13:38:45.000Z</time>
      </trkpt>
      <trkpt lat="45.89031" lon="4.67096">
        <ele>387.65634</ele>
        <time>2022-08-23T13:38:46.000Z</time>
      </trkpt>
      <trkpt lat="45.89034" lon="4.67097">
        <ele>387.57867</ele>
        <time>2022-08-23T13:38:47.000Z</time>
      </trkpt>
      <trkpt lat="45.89038" lon="4.67097">
        <ele>387.53171</ele>
        <time>2022-08-23T13:38:48.000Z</time>
      </trkpt>
      <trkpt lat="45.89041" lon="4.67098">
        <ele>387.47675</ele>
        <time>2022-08-23T13:38:49.000Z</time>
      </trkpt>
      <trkpt lat="45.89044" lon="4.67098">
        <ele>387.42535</ele>
        <time>2022-08-23T13:38:50.000Z</time>
      </trkpt>
      <trkpt lat="45.89047" lon="4.67099">
        <ele>387.32135</ele>
        <time>2022-08-23T13:38:51.000Z</time>
      </trkpt>
      <trkpt lat="45.89049" lon="4.67099">
        <ele>387.17682</ele>
        <time>2022-08-23T13:38:52.000Z</time>
      </trkpt>
      <trkpt lat="45.89051" lon="4.671">
        <ele>387.06967</ele>
        <time>2022-08-23T13:38:53.000Z</time>
      </trkpt>
      <trkpt lat="45.89053" lon="4.671">
        <ele>386.9588</ele>
        <time>2022-08-23T13:38:54.000Z</time>
      </trkpt>
      <trkpt lat="45.89055" lon="4.67101">
        <ele>386.80011</ele>
        <time>2022-08-23T13:38:55.000Z</time>
      </trkpt>
      <trkpt lat="45.89057" lon="4.67101">
        <ele>386.64386</ele>
        <time>2022-08-23T13:38:56.000Z</time>
      </trkpt>
      <trkpt lat="45.89059" lon="4.67102">
        <ele>386.54749</ele>
        <time>2022-08-23T13:38:57.000Z</time>
      </trkpt>
      <trkpt lat="45.89061" lon="4.67102">
        <ele>386.40588</ele>
        <time>2022-08-23T13:38:58.000Z</time>
      </trkpt>
      <trkpt lat="45.89063" lon="4.67103">
        <ele>386.20169</ele>
        <time>2022-08-23T13:38:59.000Z</time>
      </trkpt>
      <trkpt lat="45.89066" lon="4.67103">
        <ele>385.92862</ele>
        <time>2022-08-23T13:39:00.000Z</time>
      </trkpt>
      <trkpt lat="45.89068" lon="4.67104">
        <ele>385.72986</ele>
        <time>2022-08-23T13:39:01.000Z</time>
      </trkpt>
      <trkpt lat="45.8907" lon="4.67104">
        <ele>385.53662</ele>
        <time>2022-08-23T13:39:02.000Z</time>
      </trkpt>
      <trkpt lat="45.89072" lon="4.67105">
        <ele>385.39932</ele>
        <time>2022-08-23T13:39:03.000Z</time>
      </trkpt>
      <trkpt lat="45.89074" lon="4.67105">
        <ele>385.34366</ele>
        <time>2022-08-23T13:39:04.000Z</time>
      </trkpt>
      <trkpt lat="45.89076" lon="4.67105">
        <ele>385.34528</ele>
        <time>2022-08-23T13:39:05.000Z</time>
      </trkpt>
      <trkpt lat="45.89078" lon="4.67105">
        <ele>385.36603</ele>
        <time>2022-08-23T13:39:06.000Z</time>
      </trkpt>
      <trkpt lat="45.8908" lon="4.67103">
        <ele>385.43585</ele>
        <time>2022-08-23T13:39:07.000Z</time>
      </trkpt>
      <trkpt lat="45.89081" lon="4.67101">
        <ele>385.4808</ele>
        <time>2022-08-23T13:39:08.000Z</time>
      </trkpt>
      <trkpt lat="45.89082" lon="4.67098">
        <ele>385.50037</ele>
        <time>2022-08-23T13:39:09.000Z</time>
      </trkpt>
      <trkpt lat="45.89083" lon="4.67095">
        <ele>385.48499</ele>
        <time>2022-08-23T13:39:10.000Z</time>
      </trkpt>
      <trkpt lat="45.89085" lon="4.6709">
        <ele>385.5914</ele>
        <time>2022-08-23T13:39:12.000Z</time>
      </trkpt>
      <trkpt lat="45.89086" lon="4.67087">
        <ele>385.77222</ele>
        <time>2022-08-23T13:39:13.000Z</time>
      </trkpt>
      <trkpt lat="45.89087" lon="4.67083">
        <ele>385.88742</ele>
        <time>2022-08-23T13:39:14.000Z</time>
      </trkpt>
      <trkpt lat="45.89088" lon="4.6708">
        <ele>386.04346</ele>
        <time>2022-08-23T13:39:15.000Z</time>
      </trkpt>
      <trkpt lat="45.8909" lon="4.67077">
        <ele>386.36511</ele>
        <time>2022-08-23T13:39:16.000Z</time>
      </trkpt>
      <trkpt lat="45.89091" lon="4.67074">
        <ele>386.63858</ele>
        <time>2022-08-23T13:39:17.000Z</time>
      </trkpt>
      <trkpt lat="45.89092" lon="4.67071">
        <ele>386.98218</ele>
        <time>2022-08-23T13:39:18.000Z</time>
      </trkpt>
      <trkpt lat="45.89094" lon="4.67068">
        <ele>387.3479</ele>
        <time>2022-08-23T13:39:19.000Z</time>
      </trkpt>
      <trkpt lat="45.89095" lon="4.67066">
        <ele>387.69257</ele>
        <time>2022-08-23T13:39:20.000Z</time>
      </trkpt>
      <trkpt lat="45.89096" lon="4.67062">
        <ele>388.06512</ele>
        <time>2022-08-23T13:39:21.000Z</time>
      </trkpt>
      <trkpt lat="45.89097" lon="4.6706">
        <ele>388.36874</ele>
        <time>2022-08-23T13:39:22.000Z</time>
      </trkpt>
      <trkpt lat="45.89098" lon="4.67057">
        <ele>388.74332</ele>
        <time>2022-08-23T13:39:23.000Z</time>
      </trkpt>
      <trkpt lat="45.89098" lon="4.67053">
        <ele>389.11102</ele>
        <time>2022-08-23T13:39:24.000Z</time>
      </trkpt>
      <trkpt lat="45.89099" lon="4.6705">
        <ele>389.50739</ele>
        <time>2022-08-23T13:39:25.000Z</time>
      </trkpt>
      <trkpt lat="45.89099" lon="4.67047">
        <ele>389.8345</ele>
        <time>2022-08-23T13:39:26.000Z</time>
      </trkpt>
      <trkpt lat="45.891" lon="4.67044">
        <ele>390.21246</ele>
        <time>2022-08-23T13:39:27.000Z</time>
      </trkpt>
      <trkpt lat="45.891" lon="4.6704">
        <ele>390.53183</ele>
        <time>2022-08-23T13:39:28.000Z</time>
      </trkpt>
      <trkpt lat="45.89101" lon="4.67037">
        <ele>390.84985</ele>
        <time>2022-08-23T13:39:29.000Z</time>
      </trkpt>
      <trkpt lat="45.89102" lon="4.67034">
        <ele>391.1626</ele>
        <time>2022-08-23T13:39:30.000Z</time>
      </trkpt>
      <trkpt lat="45.89102" lon="4.67031">
        <ele>391.52963</ele>
        <time>2022-08-23T13:39:31.000Z</time>
      </trkpt>
      <trkpt lat="45.89103" lon="4.67028">
        <ele>391.89923</ele>
        <time>2022-08-23T13:39:32.000Z</time>
      </trkpt>
      <trkpt lat="45.89104" lon="4.67026">
        <ele>392.28531</ele>
        <time>2022-08-23T13:39:33.000Z</time>
      </trkpt>
      <trkpt lat="45.89105" lon="4.67023">
        <ele>392.75226</ele>
        <time>2022-08-23T13:39:34.000Z</time>
      </trkpt>
      <trkpt lat="45.89105" lon="4.67021">
        <ele>393.17459</ele>
        <time>2022-08-23T13:39:35.000Z</time>
      </trkpt>
      <trkpt lat="45.89106" lon="4.67018">
        <ele>393.50693</ele>
        <time>2022-08-23T13:39:36.000Z</time>
      </trkpt>
      <trkpt lat="45.89107" lon="4.67013">
        <ele>393.90176</ele>
        <time>2022-08-23T13:39:38.000Z</time>
      </trkpt>
      <trkpt lat="45.89108" lon="4.6701">
        <ele>394.21732</ele>
        <time>2022-08-23T13:39:39.000Z</time>
      </trkpt>
      <trkpt lat="45.89108" lon="4.67008">
        <ele>394.56131</ele>
        <time>2022-08-23T13:39:40.000Z</time>
      </trkpt>
      <trkpt lat="45.89109" lon="4.67003">
        <ele>394.93536</ele>
        <time>2022-08-23T13:39:42.000Z</time>
      </trkpt>
      <trkpt lat="45.89111" lon="4.67">
        <ele>395.40845</ele>
        <time>2022-08-23T13:39:44.000Z</time>
      </trkpt>
      <trkpt lat="45.89113" lon="4.66996">
        <ele>395.95367</ele>
        <time>2022-08-23T13:39:46.000Z</time>
      </trkpt>
      <trkpt lat="45.89114" lon="4.66991">
        <ele>396.3967</ele>
        <time>2022-08-23T13:39:48.000Z</time>
      </trkpt>
      <trkpt lat="45.89115" lon="4.66988">
        <ele>396.81064</ele>
        <time>2022-08-23T13:39:49.000Z</time>
      </trkpt>
      <trkpt lat="45.89118" lon="4.66985">
        <ele>397.155</ele>
        <time>2022-08-23T13:39:51.000Z</time>
      </trkpt>
      <trkpt lat="45.8912" lon="4.66982">
        <ele>397.51422</ele>
        <time>2022-08-23T13:39:53.000Z</time>
      </trkpt>
      <trkpt lat="45.89123" lon="4.6698">
        <ele>397.76248</ele>
        <time>2022-08-23T13:39:55.000Z</time>
      </trkpt>
      <trkpt lat="45.89125" lon="4.66978">
        <ele>398.10516</ele>
        <time>2022-08-23T13:39:57.000Z</time>
      </trkpt>
      <trkpt lat="45.89129" lon="4.66977">
        <ele>398.49564</ele>
        <time>2022-08-23T13:40:00.000Z</time>
      </trkpt>
      <trkpt lat="45.89132" lon="4.66977">
        <ele>398.91647</ele>
        <time>2022-08-23T13:40:02.000Z</time>
      </trkpt>
      <trkpt lat="45.89134" lon="4.66975">
        <ele>399.36694</ele>
        <time>2022-08-23T13:40:04.000Z</time>
      </trkpt>
      <trkpt lat="45.89136" lon="4.66972">
        <ele>399.79187</ele>
        <time>2022-08-23T13:40:06.000Z</time>
      </trkpt>
      <trkpt lat="45.89138" lon="4.6697">
        <ele>400.19922</ele>
        <time>2022-08-23T13:40:08.000Z</time>
      </trkpt>
      <trkpt lat="45.8914" lon="4.66967">
        <ele>400.67401</ele>
        <time>2022-08-23T13:40:10.000Z</time>
      </trkpt>
      <trkpt lat="45.89142" lon="4.66963">
        <ele>401.11209</ele>
        <time>2022-08-23T13:40:12.000Z</time>
      </trkpt>
      <trkpt lat="45.89143" lon="4.66961">
        <ele>401.50275</ele>
        <time>2022-08-23T13:40:13.000Z</time>
      </trkpt>
      <trkpt lat="45.89144" lon="4.66957">
        <ele>401.92584</ele>
        <time>2022-08-23T13:40:15.000Z</time>
      </trkpt>
      <trkpt lat="45.89144" lon="4.66954">
        <ele>402.33426</ele>
        <time>2022-08-23T13:40:20.000Z</time>
      </trkpt>
      <trkpt lat="45.89146" lon="4.66952">
        <ele>402.70456</ele>
        <time>2022-08-23T13:40:37.000Z</time>
      </trkpt>
      <trkpt lat="45.89147" lon="4.66949">
        <ele>403.23602</ele>
        <time>2022-08-23T13:40:39.000Z</time>
      </trkpt>
      <trkpt lat="45.89147" lon="4.66946">
        <ele>403.6738</ele>
        <time>2022-08-23T13:40:41.000Z</time>
      </trkpt>
      <trkpt lat="45.89148" lon="4.6694">
        <ele>404.21112</ele>
        <time>2022-08-23T13:40:43.000Z</time>
      </trkpt>
      <trkpt lat="45.89149" lon="4.66937">
        <ele>404.82697</ele>
        <time>2022-08-23T13:40:44.000Z</time>
      </trkpt>
      <trkpt lat="45.89149" lon="4.66935">
        <ele>405.43149</ele>
        <time>2022-08-23T13:40:45.000Z</time>
      </trkpt>
      <trkpt lat="45.8915" lon="4.66932">
        <ele>405.96423</ele>
        <time>2022-08-23T13:40:46.000Z</time>
      </trkpt>
      <trkpt lat="45.8915" lon="4.6693">
        <ele>406.35773</ele>
        <time>2022-08-23T13:40:47.000Z</time>
      </trkpt>
      <trkpt lat="45.89151" lon="4.66927">
        <ele>406.82217</ele>
        <time>2022-08-23T13:40:48.000Z</time>
      </trkpt>
      <trkpt lat="45.89152" lon="4.66925">
        <ele>407.22955</ele>
        <time>2022-08-23T13:40:49.000Z</time>
      </trkpt>
      <trkpt lat="45.89153" lon="4.66922">
        <ele>407.52905</ele>
        <time>2022-08-23T13:40:50.000Z</time>
      </trkpt>
      <trkpt lat="45.89155" lon="4.66919">
        <ele>407.77963</ele>
        <time>2022-08-23T13:40:52.000Z</time>
      </trkpt>
      <trkpt lat="45.89155" lon="4.66917">
        <ele>408.04712</ele>
        <time>2022-08-23T13:40:55.000Z</time>
      </trkpt>
      <trkpt lat="45.89155" lon="4.66913">
        <ele>408.37024</ele>
        <time>2022-08-23T13:41:14.000Z</time>
      </trkpt>
      <trkpt lat="45.89155" lon="4.6691">
        <ele>408.64081</ele>
        <time>2022-08-23T13:41:15.000Z</time>
      </trkpt>
      <trkpt lat="45.89154" lon="4.66907">
        <ele>408.79544</ele>
        <time>2022-08-23T13:41:16.000Z</time>
      </trkpt>
      <trkpt lat="45.89153" lon="4.66903">
        <ele>408.98624</ele>
        <time>2022-08-23T13:41:17.000Z</time>
      </trkpt>
      <trkpt lat="45.89153" lon="4.66901">
        <ele>409.37604</ele>
        <time>2022-08-23T13:41:18.000Z</time>
      </trkpt>
      <trkpt lat="45.89154" lon="4.66898">
        <ele>409.67206</ele>
        <time>2022-08-23T13:41:19.000Z</time>
      </trkpt>
      <trkpt lat="45.89154" lon="4.66895">
        <ele>410.00668</ele>
        <time>2022-08-23T13:41:20.000Z</time>
      </trkpt>
      <trkpt lat="45.89154" lon="4.66891">
        <ele>410.39926</ele>
        <time>2022-08-23T13:41:21.000Z</time>
      </trkpt>
      <trkpt lat="45.89154" lon="4.66888">
        <ele>410.66269</ele>
        <time>2022-08-23T13:41:22.000Z</time>
      </trkpt>
      <trkpt lat="45.89154" lon="4.66885">
        <ele>410.91919</ele>
        <time>2022-08-23T13:41:23.000Z</time>
      </trkpt>
      <trkpt lat="45.89154" lon="4.66882">
        <ele>411.02524</ele>
        <time>2022-08-23T13:41:24.000Z</time>
      </trkpt>
      <trkpt lat="45.89154" lon="4.66879">
        <ele>411.11768</ele>
        <time>2022-08-23T13:41:25.000Z</time>
      </trkpt>
      <trkpt lat="45.89154" lon="4.66876">
        <ele>411.21655</ele>
        <time>2022-08-23T13:41:26.000Z</time>
      </trkpt>
      <trkpt lat="45.89154" lon="4.66873">
        <ele>411.35504</ele>
        <time>2022-08-23T13:41:27.000Z</time>
      </trkpt>
      <trkpt lat="45.89154" lon="4.6687">
        <ele>411.6579</ele>
        <time>2022-08-23T13:41:28.000Z</time>
      </trkpt>
      <trkpt lat="45.89154" lon="4.66867">
        <ele>411.83862</ele>
        <time>2022-08-23T13:41:29.000Z</time>
      </trkpt>
      <trkpt lat="45.89155" lon="4.66864">
        <ele>411.93857</ele>
        <time>2022-08-23T13:41:30.000Z</time>
      </trkpt>
      <trkpt lat="45.89156" lon="4.66861">
        <ele>412.10352</ele>
        <time>2022-08-23T13:41:31.000Z</time>
      </trkpt>
      <trkpt lat="45.89156" lon="4.66857">
        <ele>412.31934</ele>
        <time>2022-08-23T13:41:33.000Z</time>
      </trkpt>
      <trkpt lat="45.89156" lon="4.66854">
        <ele>412.46231</ele>
        <time>2022-08-23T13:41:34.000Z</time>
      </trkpt>
      <trkpt lat="45.89156" lon="4.66849">
        <ele>412.53412</ele>
        <time>2022-08-23T13:41:36.000Z</time>
      </trkpt>
      <trkpt lat="45.89156" lon="4.66846">
        <ele>412.65137</ele>
        <time>2022-08-23T13:41:37.000Z</time>
      </trkpt>
      <trkpt lat="45.89157" lon="4.66843">
        <ele>412.8476</ele>
        <time>2022-08-23T13:41:38.000Z</time>
      </trkpt>
      <trkpt lat="45.89156" lon="4.6684">
        <ele>413.06396</ele>
        <time>2022-08-23T13:41:39.000Z</time>
      </trkpt>
      <trkpt lat="45.89157" lon="4.66835">
        <ele>413.15863</ele>
        <time>2022-08-23T13:41:41.000Z</time>
      </trkpt>
      <trkpt lat="45.89159" lon="4.66832">
        <ele>413.29633</ele>
        <time>2022-08-23T13:41:42.000Z</time>
      </trkpt>
      <trkpt lat="45.8916" lon="4.66828">
        <ele>413.37143</ele>
        <time>2022-08-23T13:41:43.000Z</time>
      </trkpt>
      <trkpt lat="45.89161" lon="4.66824">
        <ele>413.3483</ele>
        <time>2022-08-23T13:41:45.000Z</time>
      </trkpt>
      <trkpt lat="45.89161" lon="4.66821">
        <ele>413.31201</ele>
        <time>2022-08-23T13:41:47.000Z</time>
      </trkpt>
      <trkpt lat="45.89159" lon="4.66819">
        <ele>413.37939</ele>
        <time>2022-08-23T13:41:53.000Z</time>
      </trkpt>
      <trkpt lat="45.89157" lon="4.66819">
        <ele>413.41031</ele>
        <time>2022-08-23T13:41:56.000Z</time>
      </trkpt>
      <trkpt lat="45.89155" lon="4.66816">
        <ele>413.42877</ele>
        <time>2022-08-23T13:42:02.000Z</time>
      </trkpt>
      <trkpt lat="45.89155" lon="4.66813">
        <ele>413.49146</ele>
        <time>2022-08-23T13:42:09.000Z</time>
      </trkpt>
      <trkpt lat="45.89153" lon="4.66813">
        <ele>413.74957</ele>
        <time>2022-08-23T13:42:12.000Z</time>
      </trkpt>
      <trkpt lat="45.89151" lon="4.66813">
        <ele>413.87384</ele>
        <time>2022-08-23T13:42:14.000Z</time>
      </trkpt>
      <trkpt lat="45.89149" lon="4.66812">
        <ele>414.11157</ele>
        <time>2022-08-23T13:42:16.000Z</time>
      </trkpt>
      <trkpt lat="45.89145" lon="4.66811">
        <ele>414.3985</ele>
        <time>2022-08-23T13:42:18.000Z</time>
      </trkpt>
      <trkpt lat="45.89142" lon="4.66809">
        <ele>414.66879</ele>
        <time>2022-08-23T13:42:20.000Z</time>
      </trkpt>
      <trkpt lat="45.8914" lon="4.66808">
        <ele>414.92072</ele>
        <time>2022-08-23T13:42:21.000Z</time>
      </trkpt>
      <trkpt lat="45.89137" lon="4.66807">
        <ele>415.13501</ele>
        <time>2022-08-23T13:42:22.000Z</time>
      </trkpt>
      <trkpt lat="45.89136" lon="4.66806">
        <ele>415.33405</ele>
        <time>2022-08-23T13:42:23.000Z</time>
      </trkpt>
      <trkpt lat="45.89132" lon="4.66804">
        <ele>415.44839</ele>
        <time>2022-08-23T13:42:25.000Z</time>
      </trkpt>
      <trkpt lat="45.89129" lon="4.66803">
        <ele>415.51035</ele>
        <time>2022-08-23T13:42:27.000Z</time>
      </trkpt>
      <trkpt lat="45.89127" lon="4.66802">
        <ele>415.52261</ele>
        <time>2022-08-23T13:42:29.000Z</time>
      </trkpt>
      <trkpt lat="45.89126" lon="4.66804">
        <ele>415.51874</ele>
        <time>2022-08-23T13:42:31.000Z</time>
      </trkpt>
      <trkpt lat="45.89128" lon="4.66808">
        <ele>415.55713</ele>
        <time>2022-08-23T13:42:33.000Z</time>
      </trkpt>
      <trkpt lat="45.89131" lon="4.66809">
        <ele>415.63443</ele>
        <time>2022-08-23T13:42:34.000Z</time>
      </trkpt>
      <trkpt lat="45.89134" lon="4.66809">
        <ele>415.79437</ele>
        <time>2022-08-23T13:42:35.000Z</time>
      </trkpt>
      <trkpt lat="45.89137" lon="4.66809">
        <ele>415.92767</ele>
        <time>2022-08-23T13:42:36.000Z</time>
      </trkpt>
      <trkpt lat="45.8914" lon="4.66809">
        <ele>415.98892</ele>
        <time>2022-08-23T13:42:37.000Z</time>
      </trkpt>
      <trkpt lat="45.89143" lon="4.6681">
        <ele>416.11392</ele>
        <time>2022-08-23T13:42:38.000Z</time>
      </trkpt>
      <trkpt lat="45.89146" lon="4.66811">
        <ele>416.12518</ele>
        <time>2022-08-23T13:42:39.000Z</time>
      </trkpt>
      <trkpt lat="45.89149" lon="4.66813">
        <ele>416.13055</ele>
        <time>2022-08-23T13:42:40.000Z</time>
      </trkpt>
      <trkpt lat="45.89151" lon="4.66816">
        <ele>415.99078</ele>
        <time>2022-08-23T13:42:41.000Z</time>
      </trkpt>
      <trkpt lat="45.89153" lon="4.66817">
        <ele>415.94711</ele>
        <time>2022-08-23T13:42:42.000Z</time>
      </trkpt>
      <trkpt lat="45.89154" lon="4.66819">
        <ele>415.87567</ele>
        <time>2022-08-23T13:42:43.000Z</time>
      </trkpt>
      <trkpt lat="45.89156" lon="4.66818">
        <ele>415.92075</ele>
        <time>2022-08-23T13:42:44.000Z</time>
      </trkpt>
      <trkpt lat="45.89158" lon="4.66816">
        <ele>416.08954</ele>
        <time>2022-08-23T13:42:45.000Z</time>
      </trkpt>
      <trkpt lat="45.89159" lon="4.66813">
        <ele>416.26666</ele>
        <time>2022-08-23T13:42:46.000Z</time>
      </trkpt>
      <trkpt lat="45.8916" lon="4.66809">
        <ele>416.47861</ele>
        <time>2022-08-23T13:42:47.000Z</time>
      </trkpt>
      <trkpt lat="45.8916" lon="4.66805">
        <ele>416.69571</ele>
        <time>2022-08-23T13:42:48.000Z</time>
      </trkpt>
      <trkpt lat="45.89159" lon="4.66801">
        <ele>416.9584</ele>
        <time>2022-08-23T13:42:49.000Z</time>
      </trkpt>
      <trkpt lat="45.89159" lon="4.66798">
        <ele>417.19693</ele>
        <time>2022-08-23T13:42:50.000Z</time>
      </trkpt>
      <trkpt lat="45.89158" lon="4.66796">
        <ele>417.47284</ele>
        <time>2022-08-23T13:42:51.000Z</time>
      </trkpt>
      <trkpt lat="45.89156" lon="4.66794">
        <ele>417.56918</ele>
        <time>2022-08-23T13:42:52.000Z</time>
      </trkpt>
      <trkpt lat="45.89154" lon="4.66793">
        <ele>417.6203</ele>
        <time>2022-08-23T13:42:53.000Z</time>
      </trkpt>
      <trkpt lat="45.89152" lon="4.66792">
        <ele>417.71158</ele>
        <time>2022-08-23T13:42:54.000Z</time>
      </trkpt>
      <trkpt lat="45.89149" lon="4.66791">
        <ele>417.69125</ele>
        <time>2022-08-23T13:42:56.000Z</time>
      </trkpt>
      <trkpt lat="45.8915" lon="4.66797">
        <ele>417.68823</ele>
        <time>2022-08-23T13:42:59.000Z</time>
      </trkpt>
      <trkpt lat="45.89152" lon="4.66799">
        <ele>417.66537</ele>
        <time>2022-08-23T13:43:00.000Z</time>
      </trkpt>
      <trkpt lat="45.89154" lon="4.66803">
        <ele>417.60553</ele>
        <time>2022-08-23T13:43:01.000Z</time>
      </trkpt>
      <trkpt lat="45.89156" lon="4.66805">
        <ele>417.70786</ele>
        <time>2022-08-23T13:43:02.000Z</time>
      </trkpt>
      <trkpt lat="45.89158" lon="4.66808">
        <ele>417.75424</ele>
        <time>2022-08-23T13:43:03.000Z</time>
      </trkpt>
      <trkpt lat="45.89158" lon="4.66812">
        <ele>417.75293</ele>
        <time>2022-08-23T13:43:04.000Z</time>
      </trkpt>
      <trkpt lat="45.89159" lon="4.66815">
        <ele>417.67902</ele>
        <time>2022-08-23T13:43:05.000Z</time>
      </trkpt>
      <trkpt lat="45.8916" lon="4.66819">
        <ele>417.57828</ele>
        <time>2022-08-23T13:43:07.000Z</time>
      </trkpt>
      <trkpt lat="45.89162" lon="4.66822">
        <ele>417.34137</ele>
        <time>2022-08-23T13:43:09.000Z</time>
      </trkpt>
      <trkpt lat="45.89165" lon="4.66824">
        <ele>416.8913</ele>
        <time>2022-08-23T13:43:11.000Z</time>
      </trkpt>
      <trkpt lat="45.89167" lon="4.66824">
        <ele>416.49619</ele>
        <time>2022-08-23T13:43:12.000Z</time>
      </trkpt>
      <trkpt lat="45.8917" lon="4.66823">
        <ele>416.04501</ele>
        <time>2022-08-23T13:43:13.000Z</time>
      </trkpt>
      <trkpt lat="45.89172" lon="4.66821">
        <ele>415.58554</ele>
        <time>2022-08-23T13:43:14.000Z</time>
      </trkpt>
      <trkpt lat="45.89174" lon="4.6682">
        <ele>415.08969</ele>
        <time>2022-08-23T13:43:15.000Z</time>
      </trkpt>
      <trkpt lat="45.89176" lon="4.66819">
        <ele>414.51642</ele>
        <time>2022-08-23T13:43:16.000Z</time>
      </trkpt>
      <trkpt lat="45.89178" lon="4.66818">
        <ele>413.96844</ele>
        <time>2022-08-23T13:43:17.000Z</time>
      </trkpt>
      <trkpt lat="45.89179" lon="4.66817">
        <ele>413.52271</ele>
        <time>2022-08-23T13:43:18.000Z</time>
      </trkpt>
      <trkpt lat="45.89182" lon="4.66814">
        <ele>413.12622</ele>
        <time>2022-08-23T13:43:20.000Z</time>
      </trkpt>
      <trkpt lat="45.89184" lon="4.66814">
        <ele>412.73032</ele>
        <time>2022-08-23T13:43:22.000Z</time>
      </trkpt>
      <trkpt lat="45.89186" lon="4.66816">
        <ele>412.16742</ele>
        <time>2022-08-23T13:43:25.000Z</time>
      </trkpt>
      <trkpt lat="45.89185" lon="4.66819">
        <ele>411.56244</ele>
        <time>2022-08-23T13:43:27.000Z</time>
      </trkpt>
      <trkpt lat="45.89182" lon="4.6682">
        <ele>410.94424</ele>
        <time>2022-08-23T13:43:46.000Z</time>
      </trkpt>
      <trkpt lat="45.89178" lon="4.66821">
        <ele>410.39047</ele>
        <time>2022-08-23T13:43:47.000Z</time>
      </trkpt>
      <trkpt lat="45.89175" lon="4.66824">
        <ele>409.82291</ele>
        <time>2022-08-23T13:43:48.000Z</time>
      </trkpt>
      <trkpt lat="45.89173" lon="4.66827">
        <ele>409.32263</ele>
        <time>2022-08-23T13:43:49.000Z</time>
      </trkpt>
      <trkpt lat="45.89171" lon="4.66831">
        <ele>408.81168</ele>
        <time>2022-08-23T13:43:50.000Z</time>
      </trkpt>
      <trkpt lat="45.8917" lon="4.66835">
        <ele>408.37323</ele>
        <time>2022-08-23T13:43:51.000Z</time>
      </trkpt>
      <trkpt lat="45.89169" lon="4.66839">
        <ele>408.02319</ele>
        <time>2022-08-23T13:43:52.000Z</time>
      </trkpt>
      <trkpt lat="45.89168" lon="4.66843">
        <ele>407.71051</ele>
        <time>2022-08-23T13:43:53.000Z</time>
      </trkpt>
      <trkpt lat="45.89167" lon="4.66847">
        <ele>407.70764</ele>
        <time>2022-08-23T13:43:54.000Z</time>
      </trkpt>
      <trkpt lat="45.89166" lon="4.6685">
        <ele>407.62454</ele>
        <time>2022-08-23T13:43:55.000Z</time>
      </trkpt>
      <trkpt lat="45.89166" lon="4.66854">
        <ele>407.59412</ele>
        <time>2022-08-23T13:43:57.000Z</time>
      </trkpt>
      <trkpt lat="45.89167" lon="4.66858">
        <ele>407.55731</ele>
        <time>2022-08-23T13:43:58.000Z</time>
      </trkpt>
      <trkpt lat="45.89167" lon="4.6686">
        <ele>407.56995</ele>
        <time>2022-08-23T13:43:59.000Z</time>
      </trkpt>
      <trkpt lat="45.89169" lon="4.6686">
        <ele>407.56833</ele>
        <time>2022-08-23T13:44:01.000Z</time>
      </trkpt>
      <trkpt lat="45.89171" lon="4.66857">
        <ele>407.63608</ele>
        <time>2022-08-23T13:44:02.000Z</time>
      </trkpt>
      <trkpt lat="45.89172" lon="4.66854">
        <ele>407.81195</ele>
        <time>2022-08-23T13:44:03.000Z</time>
      </trkpt>
      <trkpt lat="45.89174" lon="4.66853">
        <ele>407.89523</ele>
        <time>2022-08-23T13:44:04.000Z</time>
      </trkpt>
      <trkpt lat="45.89176" lon="4.66855">
        <ele>407.72974</ele>
        <time>2022-08-23T13:44:06.000Z</time>
      </trkpt>
      <trkpt lat="45.89177" lon="4.66857">
        <ele>407.83411</ele>
        <time>2022-08-23T13:44:07.000Z</time>
      </trkpt>
      <trkpt lat="45.89179" lon="4.66859">
        <ele>407.97815</ele>
        <time>2022-08-23T13:44:08.000Z</time>
      </trkpt>
      <trkpt lat="45.89181" lon="4.66861">
        <ele>408.17316</ele>
        <time>2022-08-23T13:44:09.000Z</time>
      </trkpt>
      <trkpt lat="45.89182" lon="4.66862">
        <ele>408.32794</ele>
        <time>2022-08-23T13:44:10.000Z</time>
      </trkpt>
      <trkpt lat="45.89185" lon="4.66865">
        <ele>408.4061</ele>
        <time>2022-08-23T13:44:12.000Z</time>
      </trkpt>
      <trkpt lat="45.89188" lon="4.66866">
        <ele>408.5412</ele>
        <time>2022-08-23T13:44:14.000Z</time>
      </trkpt>
      <trkpt lat="45.8919" lon="4.66868">
        <ele>408.73199</ele>
        <time>2022-08-23T13:44:15.000Z</time>
      </trkpt>
      <trkpt lat="45.89193" lon="4.66869">
        <ele>408.89688</ele>
        <time>2022-08-23T13:44:16.000Z</time>
      </trkpt>
      <trkpt lat="45.89196" lon="4.6687">
        <ele>409.022</ele>
        <time>2022-08-23T13:44:17.000Z</time>
      </trkpt>
      <trkpt lat="45.89198" lon="4.66872">
        <ele>409.16974</ele>
        <time>2022-08-23T13:44:18.000Z</time>
      </trkpt>
      <trkpt lat="45.89201" lon="4.66873">
        <ele>409.15332</ele>
        <time>2022-08-23T13:44:20.000Z</time>
      </trkpt>
      <trkpt lat="45.89203" lon="4.66873">
        <ele>409.15305</ele>
        <time>2022-08-23T13:44:21.000Z</time>
      </trkpt>
      <trkpt lat="45.89205" lon="4.66874">
        <ele>409.11203</ele>
        <time>2022-08-23T13:44:22.000Z</time>
      </trkpt>
      <trkpt lat="45.89209" lon="4.66874">
        <ele>409.08548</ele>
        <time>2022-08-23T13:44:24.000Z</time>
      </trkpt>
      <trkpt lat="45.89212" lon="4.66875">
        <ele>409.15167</ele>
        <time>2022-08-23T13:44:26.000Z</time>
      </trkpt>
      <trkpt lat="45.89214" lon="4.66877">
        <ele>409.30771</ele>
        <time>2022-08-23T13:44:28.000Z</time>
      </trkpt>
      <trkpt lat="45.89216" lon="4.66878">
        <ele>409.39505</ele>
        <time>2022-08-23T13:44:29.000Z</time>
      </trkpt>
      <trkpt lat="45.89218" lon="4.66879">
        <ele>409.43591</ele>
        <time>2022-08-23T13:44:30.000Z</time>
      </trkpt>
      <trkpt lat="45.89221" lon="4.6688">
        <ele>409.37497</ele>
        <time>2022-08-23T13:44:31.000Z</time>
      </trkpt>
      <trkpt lat="45.89224" lon="4.66881">
        <ele>409.56107</ele>
        <time>2022-08-23T13:44:32.000Z</time>
      </trkpt>
      <trkpt lat="45.89226" lon="4.66882">
        <ele>409.71103</ele>
        <time>2022-08-23T13:44:33.000Z</time>
      </trkpt>
      <trkpt lat="45.89228" lon="4.66884">
        <ele>409.87726</ele>
        <time>2022-08-23T13:44:34.000Z</time>
      </trkpt>
      <trkpt lat="45.8923" lon="4.66886">
        <ele>410.03351</ele>
        <time>2022-08-23T13:44:35.000Z</time>
      </trkpt>
      <trkpt lat="45.89232" lon="4.66888">
        <ele>410.17285</ele>
        <time>2022-08-23T13:44:36.000Z</time>
      </trkpt>
      <trkpt lat="45.89235" lon="4.6689">
        <ele>410.35394</ele>
        <time>2022-08-23T13:44:37.000Z</time>
      </trkpt>
      <trkpt lat="45.89237" lon="4.66892">
        <ele>410.95099</ele>
        <time>2022-08-23T13:44:38.000Z</time>
      </trkpt>
      <trkpt lat="45.89238" lon="4.66894">
        <ele>411.48642</ele>
        <time>2022-08-23T13:44:39.000Z</time>
      </trkpt>
      <trkpt lat="45.8924" lon="4.66897">
        <ele>411.96793</ele>
        <time>2022-08-23T13:44:41.000Z</time>
      </trkpt>
      <trkpt lat="45.89244" lon="4.66898">
        <ele>412.42593</ele>
        <time>2022-08-23T13:44:43.000Z</time>
      </trkpt>
      <trkpt lat="45.89246" lon="4.66898">
        <ele>412.83585</ele>
        <time>2022-08-23T13:44:45.000Z</time>
      </trkpt>
      <trkpt lat="45.89248" lon="4.66899">
        <ele>413.25073</ele>
        <time>2022-08-23T13:44:47.000Z</time>
      </trkpt>
      <trkpt lat="45.89251" lon="4.669">
        <ele>413.60922</ele>
        <time>2022-08-23T13:44:49.000Z</time>
      </trkpt>
      <trkpt lat="45.89254" lon="4.66902">
        <ele>414.06268</ele>
        <time>2022-08-23T13:44:51.000Z</time>
      </trkpt>
      <trkpt lat="45.89256" lon="4.66903">
        <ele>414.53973</ele>
        <time>2022-08-23T13:44:53.000Z</time>
      </trkpt>
      <trkpt lat="45.89259" lon="4.66904">
        <ele>414.87534</ele>
        <time>2022-08-23T13:44:56.000Z</time>
      </trkpt>
      <trkpt lat="45.89261" lon="4.66905">
        <ele>415.22681</ele>
        <time>2022-08-23T13:44:57.000Z</time>
      </trkpt>
      <trkpt lat="45.89263" lon="4.66906">
        <ele>415.86115</ele>
        <time>2022-08-23T13:44:58.000Z</time>
      </trkpt>
      <trkpt lat="45.89265" lon="4.66908">
        <ele>416.44669</ele>
        <time>2022-08-23T13:44:59.000Z</time>
      </trkpt>
      <trkpt lat="45.89266" lon="4.66909">
        <ele>417.15704</ele>
        <time>2022-08-23T13:45:00.000Z</time>
      </trkpt>
      <trkpt lat="45.89269" lon="4.6691">
        <ele>417.71484</ele>
        <time>2022-08-23T13:45:02.000Z</time>
      </trkpt>
      <trkpt lat="45.89272" lon="4.66912">
        <ele>418.34991</ele>
        <time>2022-08-23T13:45:04.000Z</time>
      </trkpt>
      <trkpt lat="45.89274" lon="4.66916">
        <ele>418.841</ele>
        <time>2022-08-23T13:45:06.000Z</time>
      </trkpt>
      <trkpt lat="45.89276" lon="4.66918">
        <ele>419.29364</ele>
        <time>2022-08-23T13:45:08.000Z</time>
      </trkpt>
      <trkpt lat="45.89279" lon="4.66919">
        <ele>419.72394</ele>
        <time>2022-08-23T13:45:10.000Z</time>
      </trkpt>
      <trkpt lat="45.89281" lon="4.66919">
        <ele>420.2059</ele>
        <time>2022-08-23T13:45:12.000Z</time>
      </trkpt>
      <trkpt lat="45.89282" lon="4.6692">
        <ele>420.22235</ele>
        <time>2022-08-23T13:45:14.000Z</time>
      </trkpt>
      <trkpt lat="45.89285" lon="4.66921">
        <ele>420.31461</ele>
        <time>2022-08-23T13:45:16.000Z</time>
      </trkpt>
      <trkpt lat="45.89287" lon="4.66921">
        <ele>420.49481</ele>
        <time>2022-08-23T13:45:18.000Z</time>
      </trkpt>
      <trkpt lat="45.89289" lon="4.66922">
        <ele>420.68979</ele>
        <time>2022-08-23T13:45:20.000Z</time>
      </trkpt>
      <trkpt lat="45.89293" lon="4.66924">
        <ele>420.85455</ele>
        <time>2022-08-23T13:45:22.000Z</time>
      </trkpt>
      <trkpt lat="45.89296" lon="4.66925">
        <ele>420.94092</ele>
        <time>2022-08-23T13:45:24.000Z</time>
      </trkpt>
      <trkpt lat="45.89298" lon="4.66926">
        <ele>420.97989</ele>
        <time>2022-08-23T13:45:25.000Z</time>
      </trkpt>
      <trkpt lat="45.893" lon="4.66927">
        <ele>420.88965</ele>
        <time>2022-08-23T13:45:26.000Z</time>
      </trkpt>
      <trkpt lat="45.89301" lon="4.66929">
        <ele>420.78595</ele>
        <time>2022-08-23T13:45:27.000Z</time>
      </trkpt>
      <trkpt lat="45.89304" lon="4.66931">
        <ele>420.81445</ele>
        <time>2022-08-23T13:45:29.000Z</time>
      </trkpt>
      <trkpt lat="45.89307" lon="4.66932">
        <ele>420.84189</ele>
        <time>2022-08-23T13:45:31.000Z</time>
      </trkpt>
      <trkpt lat="45.89309" lon="4.66932">
        <ele>420.55396</ele>
        <time>2022-08-23T13:45:33.000Z</time>
      </trkpt>
      <trkpt lat="45.89312" lon="4.66931">
        <ele>420.3981</ele>
        <time>2022-08-23T13:45:35.000Z</time>
      </trkpt>
      <trkpt lat="45.89315" lon="4.6693">
        <ele>420.29623</ele>
        <time>2022-08-23T13:45:37.000Z</time>
      </trkpt>
      <trkpt lat="45.89317" lon="4.66931">
        <ele>420.39886</ele>
        <time>2022-08-23T13:45:39.000Z</time>
      </trkpt>
      <trkpt lat="45.89319" lon="4.66932">
        <ele>420.50333</ele>
        <time>2022-08-23T13:45:41.000Z</time>
      </trkpt>
      <trkpt lat="45.89322" lon="4.66932">
        <ele>420.75677</ele>
        <time>2022-08-23T13:45:43.000Z</time>
      </trkpt>
      <trkpt lat="45.89324" lon="4.66933">
        <ele>421.05811</ele>
        <time>2022-08-23T13:45:45.000Z</time>
      </trkpt>
      <trkpt lat="45.89326" lon="4.66935">
        <ele>421.37231</ele>
        <time>2022-08-23T13:45:48.000Z</time>
      </trkpt>
      <trkpt lat="45.89329" lon="4.66937">
        <ele>421.56476</ele>
        <time>2022-08-23T13:45:50.000Z</time>
      </trkpt>
      <trkpt lat="45.89331" lon="4.66939">
        <ele>421.7684</ele>
        <time>2022-08-23T13:45:52.000Z</time>
      </trkpt>
      <trkpt lat="45.89333" lon="4.66939">
        <ele>421.89883</ele>
        <time>2022-08-23T13:45:54.000Z</time>
      </trkpt>
      <trkpt lat="45.89335" lon="4.66941">
        <ele>422.0329</ele>
        <time>2022-08-23T13:45:56.000Z</time>
      </trkpt>
      <trkpt lat="45.89338" lon="4.66941">
        <ele>422.2251</ele>
        <time>2022-08-23T13:45:58.000Z</time>
      </trkpt>
      <trkpt lat="45.8934" lon="4.6694">
        <ele>422.56451</ele>
        <time>2022-08-23T13:45:59.000Z</time>
      </trkpt>
      <trkpt lat="45.89342" lon="4.66939">
        <ele>423.0152</ele>
        <time>2022-08-23T13:46:01.000Z</time>
      </trkpt>
      <trkpt lat="45.89345" lon="4.66941">
        <ele>423.59564</ele>
        <time>2022-08-23T13:46:04.000Z</time>
      </trkpt>
      <trkpt lat="45.89347" lon="4.66942">
        <ele>424.29486</ele>
        <time>2022-08-23T13:46:06.000Z</time>
      </trkpt>
      <trkpt lat="45.89348" lon="4.66944">
        <ele>424.90625</ele>
        <time>2022-08-23T13:46:08.000Z</time>
      </trkpt>
      <trkpt lat="45.8935" lon="4.66946">
        <ele>425.3291</ele>
        <time>2022-08-23T13:46:10.000Z</time>
      </trkpt>
      <trkpt lat="45.89351" lon="4.66949">
        <ele>425.88168</ele>
        <time>2022-08-23T13:46:12.000Z</time>
      </trkpt>
      <trkpt lat="45.89353" lon="4.6695">
        <ele>426.4295</ele>
        <time>2022-08-23T13:46:14.000Z</time>
      </trkpt>
      <trkpt lat="45.89355" lon="4.66951">
        <ele>426.84735</ele>
        <time>2022-08-23T13:46:15.000Z</time>
      </trkpt>
      <trkpt lat="45.89357" lon="4.66952">
        <ele>427.15131</ele>
        <time>2022-08-23T13:46:16.000Z</time>
      </trkpt>
      <trkpt lat="45.89359" lon="4.66955">
        <ele>427.367</ele>
        <time>2022-08-23T13:46:18.000Z</time>
      </trkpt>
      <trkpt lat="45.89362" lon="4.66959">
        <ele>427.51556</ele>
        <time>2022-08-23T13:46:20.000Z</time>
      </trkpt>
      <trkpt lat="45.89364" lon="4.66959">
        <ele>427.86694</ele>
        <time>2022-08-23T13:46:22.000Z</time>
      </trkpt>
      <trkpt lat="45.89366" lon="4.6696">
        <ele>428.19931</ele>
        <time>2022-08-23T13:46:24.000Z</time>
      </trkpt>
      <trkpt lat="45.89368" lon="4.6696">
        <ele>428.6796</ele>
        <time>2022-08-23T13:46:27.000Z</time>
      </trkpt>
      <trkpt lat="45.8937" lon="4.6696">
        <ele>429.14703</ele>
        <time>2022-08-23T13:46:30.000Z</time>
      </trkpt>
      <trkpt lat="45.89372" lon="4.66963">
        <ele>429.54068</ele>
        <time>2022-08-23T13:46:32.000Z</time>
      </trkpt>
      <trkpt lat="45.89374" lon="4.66965">
        <ele>430.02399</ele>
        <time>2022-08-23T13:46:33.000Z</time>
      </trkpt>
      <trkpt lat="45.89375" lon="4.66966">
        <ele>430.51416</ele>
        <time>2022-08-23T13:46:34.000Z</time>
      </trkpt>
      <trkpt lat="45.89376" lon="4.66969">
        <ele>430.91714</ele>
        <time>2022-08-23T13:46:35.000Z</time>
      </trkpt>
      <trkpt lat="45.89378" lon="4.66971">
        <ele>431.24643</ele>
        <time>2022-08-23T13:46:36.000Z</time>
      </trkpt>
      <trkpt lat="45.8938" lon="4.66974">
        <ele>431.55151</ele>
        <time>2022-08-23T13:46:37.000Z</time>
      </trkpt>
      <trkpt lat="45.89382" lon="4.66975">
        <ele>431.76422</ele>
        <time>2022-08-23T13:46:38.000Z</time>
      </trkpt>
      <trkpt lat="45.89383" lon="4.66976">
        <ele>431.87393</ele>
        <time>2022-08-23T13:46:39.000Z</time>
      </trkpt>
      <trkpt lat="45.89385" lon="4.66977">
        <ele>432.04184</ele>
        <time>2022-08-23T13:46:40.000Z</time>
      </trkpt>
      <trkpt lat="45.89388" lon="4.6698">
        <ele>432.3439</ele>
        <time>2022-08-23T13:46:42.000Z</time>
      </trkpt>
      <trkpt lat="45.8939" lon="4.66982">
        <ele>432.492</ele>
        <time>2022-08-23T13:46:44.000Z</time>
      </trkpt>
      <trkpt lat="45.89392" lon="4.66985">
        <ele>432.64063</ele>
        <time>2022-08-23T13:46:46.000Z</time>
      </trkpt>
      <trkpt lat="45.89394" lon="4.66987">
        <ele>432.83862</ele>
        <time>2022-08-23T13:46:48.000Z</time>
      </trkpt>
      <trkpt lat="45.89396" lon="4.66991">
        <ele>433.13812</ele>
        <time>2022-08-23T13:46:51.000Z</time>
      </trkpt>
      <trkpt lat="45.89398" lon="4.66993">
        <ele>433.41364</ele>
        <time>2022-08-23T13:46:52.000Z</time>
      </trkpt>
      <trkpt lat="45.89399" lon="4.66996">
        <ele>433.78525</ele>
        <time>2022-08-23T13:46:53.000Z</time>
      </trkpt>
      <trkpt lat="45.89401" lon="4.66998">
        <ele>433.92447</ele>
        <time>2022-08-23T13:46:54.000Z</time>
      </trkpt>
      <trkpt lat="45.89403" lon="4.67">
        <ele>434.02667</ele>
        <time>2022-08-23T13:46:55.000Z</time>
      </trkpt>
      <trkpt lat="45.89406" lon="4.67002">
        <ele>433.97397</ele>
        <time>2022-08-23T13:46:57.000Z</time>
      </trkpt>
      <trkpt lat="45.89408" lon="4.67003">
        <ele>433.90952</ele>
        <time>2022-08-23T13:46:58.000Z</time>
      </trkpt>
      <trkpt lat="45.8941" lon="4.67004">
        <ele>433.80362</ele>
        <time>2022-08-23T13:46:59.000Z</time>
      </trkpt>
      <trkpt lat="45.89412" lon="4.67005">
        <ele>433.61368</ele>
        <time>2022-08-23T13:47:00.000Z</time>
      </trkpt>
      <trkpt lat="45.89413" lon="4.67006">
        <ele>433.3605</ele>
        <time>2022-08-23T13:47:01.000Z</time>
      </trkpt>
      <trkpt lat="45.89415" lon="4.67008">
        <ele>433.18961</ele>
        <time>2022-08-23T13:47:03.000Z</time>
      </trkpt>
      <trkpt lat="45.89417" lon="4.67011">
        <ele>433.11737</ele>
        <time>2022-08-23T13:47:05.000Z</time>
      </trkpt>
      <trkpt lat="45.89419" lon="4.67013">
        <ele>433.0209</ele>
        <time>2022-08-23T13:47:07.000Z</time>
      </trkpt>
      <trkpt lat="45.89421" lon="4.67013">
        <ele>432.96588</ele>
        <time>2022-08-23T13:47:09.000Z</time>
      </trkpt>
      <trkpt lat="45.89422" lon="4.67015">
        <ele>432.91943</ele>
        <time>2022-08-23T13:47:13.000Z</time>
      </trkpt>
      <trkpt lat="45.8942" lon="4.67015">
        <ele>432.71558</ele>
        <time>2022-08-23T13:47:18.000Z</time>
      </trkpt>
      <trkpt lat="45.89418" lon="4.67012">
        <ele>432.51434</ele>
        <time>2022-08-23T13:47:20.000Z</time>
      </trkpt>
      <trkpt lat="45.89417" lon="4.67009">
        <ele>432.33701</ele>
        <time>2022-08-23T13:47:22.000Z</time>
      </trkpt>
      <trkpt lat="45.89416" lon="4.67007">
        <ele>432.22589</ele>
        <time>2022-08-23T13:47:24.000Z</time>
      </trkpt>
      <trkpt lat="45.89414" lon="4.67004">
        <ele>432.12085</ele>
        <time>2022-08-23T13:47:29.000Z</time>
      </trkpt>
      <trkpt lat="45.89415" lon="4.67006">
        <ele>432.0145</ele>
        <time>2022-08-23T13:47:35.000Z</time>
      </trkpt>
      <trkpt lat="45.89417" lon="4.67008">
        <ele>431.93539</ele>
        <time>2022-08-23T13:47:51.000Z</time>
      </trkpt>
      <trkpt lat="45.8942" lon="4.67012">
        <ele>431.75519</ele>
        <time>2022-08-23T13:48:30.000Z</time>
      </trkpt>
      <trkpt lat="45.89422" lon="4.67014">
        <ele>431.64761</ele>
        <time>2022-08-23T13:48:31.000Z</time>
      </trkpt>
      <trkpt lat="45.89424" lon="4.67016">
        <ele>431.46133</ele>
        <time>2022-08-23T13:48:32.000Z</time>
      </trkpt>
      <trkpt lat="45.89427" lon="4.67018">
        <ele>431.41425</ele>
        <time>2022-08-23T13:48:33.000Z</time>
      </trkpt>
      <trkpt lat="45.8943" lon="4.6702">
        <ele>431.40216</ele>
        <time>2022-08-23T13:48:34.000Z</time>
      </trkpt>
      <trkpt lat="45.89432" lon="4.67023">
        <ele>431.57074</ele>
        <time>2022-08-23T13:48:35.000Z</time>
      </trkpt>
      <trkpt lat="45.89434" lon="4.67025">
        <ele>431.81128</ele>
        <time>2022-08-23T13:48:36.000Z</time>
      </trkpt>
      <trkpt lat="45.89436" lon="4.67028">
        <ele>432.06729</ele>
        <time>2022-08-23T13:48:37.000Z</time>
      </trkpt>
      <trkpt lat="45.89438" lon="4.67031">
        <ele>432.28696</ele>
        <time>2022-08-23T13:48:38.000Z</time>
      </trkpt>
      <trkpt lat="45.89441" lon="4.67034">
        <ele>432.50348</ele>
        <time>2022-08-23T13:48:39.000Z</time>
      </trkpt>
      <trkpt lat="45.89444" lon="4.67036">
        <ele>432.5423</ele>
        <time>2022-08-23T13:48:40.000Z</time>
      </trkpt>
      <trkpt lat="45.89447" lon="4.67039">
        <ele>432.61884</ele>
        <time>2022-08-23T13:48:41.000Z</time>
      </trkpt>
      <trkpt lat="45.89451" lon="4.67042">
        <ele>432.70639</ele>
        <time>2022-08-23T13:48:42.000Z</time>
      </trkpt>
      <trkpt lat="45.89454" lon="4.67045">
        <ele>433.03677</ele>
        <time>2022-08-23T13:48:43.000Z</time>
      </trkpt>
      <trkpt lat="45.89457" lon="4.67049">
        <ele>433.54745</ele>
        <time>2022-08-23T13:48:44.000Z</time>
      </trkpt>
      <trkpt lat="45.8946" lon="4.67052">
        <ele>434.0578</ele>
        <time>2022-08-23T13:48:45.000Z</time>
      </trkpt>
      <trkpt lat="45.89463" lon="4.67056">
        <ele>434.41998</ele>
        <time>2022-08-23T13:48:46.000Z</time>
      </trkpt>
      <trkpt lat="45.89466" lon="4.67061">
        <ele>434.72852</ele>
        <time>2022-08-23T13:48:47.000Z</time>
      </trkpt>
      <trkpt lat="45.8947" lon="4.67065">
        <ele>435.01816</ele>
        <time>2022-08-23T13:48:48.000Z</time>
      </trkpt>
      <trkpt lat="45.89473" lon="4.67068">
        <ele>435.33179</ele>
        <time>2022-08-23T13:48:49.000Z</time>
      </trkpt>
      <trkpt lat="45.89475" lon="4.67073">
        <ele>435.65283</ele>
        <time>2022-08-23T13:48:50.000Z</time>
      </trkpt>
      <trkpt lat="45.89478" lon="4.67078">
        <ele>435.93408</ele>
        <time>2022-08-23T13:48:51.000Z</time>
      </trkpt>
      <trkpt lat="45.8948" lon="4.67082">
        <ele>436.29425</ele>
        <time>2022-08-23T13:48:52.000Z</time>
      </trkpt>
      <trkpt lat="45.89482" lon="4.67086">
        <ele>436.56845</ele>
        <time>2022-08-23T13:48:53.000Z</time>
      </trkpt>
      <trkpt lat="45.89484" lon="4.67089">
        <ele>436.86777</ele>
        <time>2022-08-23T13:48:54.000Z</time>
      </trkpt>
      <trkpt lat="45.89486" lon="4.67093">
        <ele>437.06964</ele>
        <time>2022-08-23T13:48:55.000Z</time>
      </trkpt>
      <trkpt lat="45.89488" lon="4.67097">
        <ele>437.27109</ele>
        <time>2022-08-23T13:48:56.000Z</time>
      </trkpt>
      <trkpt lat="45.8949" lon="4.67101">
        <ele>437.43442</ele>
        <time>2022-08-23T13:48:57.000Z</time>
      </trkpt>
      <trkpt lat="45.89492" lon="4.67103">
        <ele>437.54907</ele>
        <time>2022-08-23T13:48:58.000Z</time>
      </trkpt>
      <trkpt lat="45.89494" lon="4.67105">
        <ele>437.58823</ele>
        <time>2022-08-23T13:48:59.000Z</time>
      </trkpt>
      <trkpt lat="45.89496" lon="4.67105">
        <ele>437.80658</ele>
        <time>2022-08-23T13:49:01.000Z</time>
      </trkpt>
      <trkpt lat="45.89493" lon="4.67104">
        <ele>437.90814</ele>
        <time>2022-08-23T13:49:05.000Z</time>
      </trkpt>
      <trkpt lat="45.89491" lon="4.67102">
        <ele>438.06192</ele>
        <time>2022-08-23T13:49:06.000Z</time>
      </trkpt>
      <trkpt lat="45.8949" lon="4.671">
        <ele>438.1814</ele>
        <time>2022-08-23T13:49:07.000Z</time>
      </trkpt>
      <trkpt lat="45.89489" lon="4.67096">
        <ele>438.10101</ele>
        <time>2022-08-23T13:49:09.000Z</time>
      </trkpt>
      <trkpt lat="45.89487" lon="4.67093">
        <ele>437.98096</ele>
        <time>2022-08-23T13:49:10.000Z</time>
      </trkpt>
      <trkpt lat="45.89485" lon="4.67091">
        <ele>437.94272</ele>
        <time>2022-08-23T13:49:11.000Z</time>
      </trkpt>
      <trkpt lat="45.89483" lon="4.67089">
        <ele>437.90375</ele>
        <time>2022-08-23T13:49:13.000Z</time>
      </trkpt>
      <trkpt lat="45.89481" lon="4.67089">
        <ele>437.76016</ele>
        <time>2022-08-23T13:49:17.000Z</time>
      </trkpt>
      <trkpt lat="45.89484" lon="4.67088">
        <ele>437.71899</ele>
        <time>2022-08-23T13:49:57.000Z</time>
      </trkpt>
      <trkpt lat="45.89485" lon="4.67086">
        <ele>437.65546</ele>
        <time>2022-08-23T13:49:58.000Z</time>
      </trkpt>
      <trkpt lat="45.89487" lon="4.67085">
        <ele>437.52872</ele>
        <time>2022-08-23T13:49:59.000Z</time>
      </trkpt>
      <trkpt lat="45.89489" lon="4.67083">
        <ele>437.42682</ele>
        <time>2022-08-23T13:50:00.000Z</time>
      </trkpt>
      <trkpt lat="45.89491" lon="4.67082">
        <ele>437.37759</ele>
        <time>2022-08-23T13:50:01.000Z</time>
      </trkpt>
      <trkpt lat="45.89494" lon="4.67081">
        <ele>437.42465</ele>
        <time>2022-08-23T13:50:02.000Z</time>
      </trkpt>
      <trkpt lat="45.89497" lon="4.6708">
        <ele>437.5043</ele>
        <time>2022-08-23T13:50:04.000Z</time>
      </trkpt>
      <trkpt lat="45.89499" lon="4.67079">
        <ele>437.52826</ele>
        <time>2022-08-23T13:50:05.000Z</time>
      </trkpt>
      <trkpt lat="45.89501" lon="4.67078">
        <ele>437.6604</ele>
        <time>2022-08-23T13:50:06.000Z</time>
      </trkpt>
      <trkpt lat="45.89504" lon="4.67075">
        <ele>437.82266</ele>
        <time>2022-08-23T13:50:08.000Z</time>
      </trkpt>
      <trkpt lat="45.89505" lon="4.67074">
        <ele>437.96109</ele>
        <time>2022-08-23T13:50:09.000Z</time>
      </trkpt>
      <trkpt lat="45.89507" lon="4.67072">
        <ele>438.11523</ele>
        <time>2022-08-23T13:50:10.000Z</time>
      </trkpt>
      <trkpt lat="45.89508" lon="4.6707">
        <ele>438.35919</ele>
        <time>2022-08-23T13:50:11.000Z</time>
      </trkpt>
      <trkpt lat="45.89509" lon="4.67066">
        <ele>438.51495</ele>
        <time>2022-08-23T13:50:13.000Z</time>
      </trkpt>
      <trkpt lat="45.89511" lon="4.67064">
        <ele>438.58707</ele>
        <time>2022-08-23T13:50:15.000Z</time>
      </trkpt>
      <trkpt lat="45.89514" lon="4.67063">
        <ele>438.65424</ele>
        <time>2022-08-23T13:50:16.000Z</time>
      </trkpt>
      <trkpt lat="45.89516" lon="4.67061">
        <ele>438.80933</ele>
        <time>2022-08-23T13:50:17.000Z</time>
      </trkpt>
      <trkpt lat="45.89519" lon="4.6706">
        <ele>439.01089</ele>
        <time>2022-08-23T13:50:18.000Z</time>
      </trkpt>
      <trkpt lat="45.89521" lon="4.67058">
        <ele>439.30255</ele>
        <time>2022-08-23T13:50:19.000Z</time>
      </trkpt>
      <trkpt lat="45.89523" lon="4.67058">
        <ele>439.70987</ele>
        <time>2022-08-23T13:50:20.000Z</time>
      </trkpt>
      <trkpt lat="45.89526" lon="4.67057">
        <ele>440.03671</ele>
        <time>2022-08-23T13:50:22.000Z</time>
      </trkpt>
      <trkpt lat="45.89529" lon="4.67057">
        <ele>440.36206</ele>
        <time>2022-08-23T13:50:24.000Z</time>
      </trkpt>
      <trkpt lat="45.89532" lon="4.67054">
        <ele>440.66791</ele>
        <time>2022-08-23T13:50:26.000Z</time>
      </trkpt>
      <trkpt lat="45.89533" lon="4.67052">
        <ele>440.86801</ele>
        <time>2022-08-23T13:50:28.000Z</time>
      </trkpt>
      <trkpt lat="45.89536" lon="4.6705">
        <ele>440.96686</ele>
        <time>2022-08-23T13:50:30.000Z</time>
      </trkpt>
      <trkpt lat="45.89538" lon="4.67049">
        <ele>440.92569</ele>
        <time>2022-08-23T13:50:31.000Z</time>
      </trkpt>
      <trkpt lat="45.8954" lon="4.67048">
        <ele>440.84796</ele>
        <time>2022-08-23T13:50:32.000Z</time>
      </trkpt>
      <trkpt lat="45.89542" lon="4.67046">
        <ele>440.78418</ele>
        <time>2022-08-23T13:50:33.000Z</time>
      </trkpt>
      <trkpt lat="45.89544" lon="4.67046">
        <ele>440.69141</ele>
        <time>2022-08-23T13:50:34.000Z</time>
      </trkpt>
      <trkpt lat="45.89547" lon="4.67045">
        <ele>440.63632</ele>
        <time>2022-08-23T13:50:35.000Z</time>
      </trkpt>
      <trkpt lat="45.89549" lon="4.67045">
        <ele>440.43524</ele>
        <time>2022-08-23T13:50:36.000Z</time>
      </trkpt>
      <trkpt lat="45.89551" lon="4.67044">
        <ele>440.17856</ele>
        <time>2022-08-23T13:50:37.000Z</time>
      </trkpt>
      <trkpt lat="45.89553" lon="4.67042">
        <ele>439.9162</ele>
        <time>2022-08-23T13:50:38.000Z</time>
      </trkpt>
      <trkpt lat="45.89555" lon="4.67041">
        <ele>439.70523</ele>
        <time>2022-08-23T13:50:39.000Z</time>
      </trkpt>
      <trkpt lat="45.89557" lon="4.67041">
        <ele>439.60553</ele>
        <time>2022-08-23T13:50:40.000Z</time>
      </trkpt>
      <trkpt lat="45.89559" lon="4.67042">
        <ele>439.46249</ele>
        <time>2022-08-23T13:50:41.000Z</time>
      </trkpt>
      <trkpt lat="45.89562" lon="4.67043">
        <ele>439.29645</ele>
        <time>2022-08-23T13:50:42.000Z</time>
      </trkpt>
      <trkpt lat="45.89565" lon="4.67044">
        <ele>438.98541</ele>
        <time>2022-08-23T13:50:43.000Z</time>
      </trkpt>
      <trkpt lat="45.89567" lon="4.67045">
        <ele>438.51886</ele>
        <time>2022-08-23T13:50:44.000Z</time>
      </trkpt>
      <trkpt lat="45.89569" lon="4.67045">
        <ele>438.03558</ele>
        <time>2022-08-23T13:50:45.000Z</time>
      </trkpt>
      <trkpt lat="45.89571" lon="4.67045">
        <ele>437.47882</ele>
        <time>2022-08-23T13:50:46.000Z</time>
      </trkpt>
      <trkpt lat="45.89573" lon="4.67046">
        <ele>436.96503</ele>
        <time>2022-08-23T13:50:47.000Z</time>
      </trkpt>
      <trkpt lat="45.89577" lon="4.67048">
        <ele>436.48041</ele>
        <time>2022-08-23T13:50:49.000Z</time>
      </trkpt>
      <trkpt lat="45.89579" lon="4.67049">
        <ele>436.04532</ele>
        <time>2022-08-23T13:50:50.000Z</time>
      </trkpt>
      <trkpt lat="45.8958" lon="4.67051">
        <ele>435.61334</ele>
        <time>2022-08-23T13:50:51.000Z</time>
      </trkpt>
      <trkpt lat="45.89583" lon="4.67053">
        <ele>435.21387</ele>
        <time>2022-08-23T13:50:52.000Z</time>
      </trkpt>
      <trkpt lat="45.89584" lon="4.67055">
        <ele>434.80353</ele>
        <time>2022-08-23T13:50:53.000Z</time>
      </trkpt>
      <trkpt lat="45.89586" lon="4.67056">
        <ele>434.40656</ele>
        <time>2022-08-23T13:50:54.000Z</time>
      </trkpt>
      <trkpt lat="45.89588" lon="4.67058">
        <ele>433.92807</ele>
        <time>2022-08-23T13:50:55.000Z</time>
      </trkpt>
      <trkpt lat="45.89591" lon="4.6706">
        <ele>433.45038</ele>
        <time>2022-08-23T13:50:56.000Z</time>
      </trkpt>
      <trkpt lat="45.89594" lon="4.67061">
        <ele>433.12881</ele>
        <time>2022-08-23T13:50:57.000Z</time>
      </trkpt>
      <trkpt lat="45.89597" lon="4.67064">
        <ele>432.82562</ele>
        <time>2022-08-23T13:50:58.000Z</time>
      </trkpt>
      <trkpt lat="45.896" lon="4.67066">
        <ele>432.56796</ele>
        <time>2022-08-23T13:50:59.000Z</time>
      </trkpt>
      <trkpt lat="45.89604" lon="4.67068">
        <ele>432.33163</ele>
        <time>2022-08-23T13:51:00.000Z</time>
      </trkpt>
      <trkpt lat="45.89608" lon="4.6707">
        <ele>431.96442</ele>
        <time>2022-08-23T13:51:01.000Z</time>
      </trkpt>
      <trkpt lat="45.89612" lon="4.67073">
        <ele>431.61139</ele>
        <time>2022-08-23T13:51:02.000Z</time>
      </trkpt>
      <trkpt lat="45.89614" lon="4.67075">
        <ele>431.23184</ele>
        <time>2022-08-23T13:51:03.000Z</time>
      </trkpt>
      <trkpt lat="45.89616" lon="4.67076">
        <ele>430.9682</ele>
        <time>2022-08-23T13:51:04.000Z</time>
      </trkpt>
      <trkpt lat="45.89619" lon="4.67078">
        <ele>430.79047</ele>
        <time>2022-08-23T13:51:05.000Z</time>
      </trkpt>
      <trkpt lat="45.89621" lon="4.6708">
        <ele>430.58417</ele>
        <time>2022-08-23T13:51:06.000Z</time>
      </trkpt>
      <trkpt lat="45.89624" lon="4.67082">
        <ele>430.48257</ele>
        <time>2022-08-23T13:51:07.000Z</time>
      </trkpt>
      <trkpt lat="45.89627" lon="4.67083">
        <ele>430.38104</ele>
        <time>2022-08-23T13:51:08.000Z</time>
      </trkpt>
      <trkpt lat="45.89629" lon="4.67085">
        <ele>430.30679</ele>
        <time>2022-08-23T13:51:09.000Z</time>
      </trkpt>
      <trkpt lat="45.89631" lon="4.67087">
        <ele>430.1911</ele>
        <time>2022-08-23T13:51:10.000Z</time>
      </trkpt>
      <trkpt lat="45.89634" lon="4.67088">
        <ele>430.0921</ele>
        <time>2022-08-23T13:51:11.000Z</time>
      </trkpt>
      <trkpt lat="45.89636" lon="4.67088">
        <ele>430.08105</ele>
        <time>2022-08-23T13:51:12.000Z</time>
      </trkpt>
      <trkpt lat="45.89638" lon="4.6709">
        <ele>430.10107</ele>
        <time>2022-08-23T13:51:13.000Z</time>
      </trkpt>
      <trkpt lat="45.89641" lon="4.67092">
        <ele>430.22998</ele>
        <time>2022-08-23T13:51:15.000Z</time>
      </trkpt>
      <trkpt lat="45.89643" lon="4.67094">
        <ele>430.39508</ele>
        <time>2022-08-23T13:51:16.000Z</time>
      </trkpt>
      <trkpt lat="45.89646" lon="4.67097">
        <ele>430.5144</ele>
        <time>2022-08-23T13:51:17.000Z</time>
      </trkpt>
      <trkpt lat="45.89648" lon="4.67099">
        <ele>430.63843</ele>
        <time>2022-08-23T13:51:18.000Z</time>
      </trkpt>
      <trkpt lat="45.8965" lon="4.67101">
        <ele>430.74844</ele>
        <time>2022-08-23T13:51:19.000Z</time>
      </trkpt>
      <trkpt lat="45.89653" lon="4.67103">
        <ele>430.84845</ele>
        <time>2022-08-23T13:51:20.000Z</time>
      </trkpt>
      <trkpt lat="45.89655" lon="4.67105">
        <ele>430.90396</ele>
        <time>2022-08-23T13:51:21.000Z</time>
      </trkpt>
      <trkpt lat="45.89659" lon="4.67106">
        <ele>431.02606</ele>
        <time>2022-08-23T13:51:22.000Z</time>
      </trkpt>
      <trkpt lat="45.89662" lon="4.67106">
        <ele>431.14462</ele>
        <time>2022-08-23T13:51:23.000Z</time>
      </trkpt>
      <trkpt lat="45.89665" lon="4.67105">
        <ele>431.30255</ele>
        <time>2022-08-23T13:51:24.000Z</time>
      </trkpt>
      <trkpt lat="45.89669" lon="4.67105">
        <ele>431.44571</ele>
        <time>2022-08-23T13:51:25.000Z</time>
      </trkpt>
      <trkpt lat="45.89672" lon="4.67104">
        <ele>431.6015</ele>
        <time>2022-08-23T13:51:26.000Z</time>
      </trkpt>
      <trkpt lat="45.89675" lon="4.67104">
        <ele>431.74478</ele>
        <time>2022-08-23T13:51:27.000Z</time>
      </trkpt>
      <trkpt lat="45.89678" lon="4.67103">
        <ele>431.79266</ele>
        <time>2022-08-23T13:51:28.000Z</time>
      </trkpt>
      <trkpt lat="45.89681" lon="4.67104">
        <ele>431.90152</ele>
        <time>2022-08-23T13:51:29.000Z</time>
      </trkpt>
      <trkpt lat="45.89685" lon="4.67105">
        <ele>432.00616</ele>
        <time>2022-08-23T13:51:30.000Z</time>
      </trkpt>
      <trkpt lat="45.89688" lon="4.67106">
        <ele>432.21198</ele>
        <time>2022-08-23T13:51:31.000Z</time>
      </trkpt>
      <trkpt lat="45.8969" lon="4.67107">
        <ele>432.39902</ele>
        <time>2022-08-23T13:51:32.000Z</time>
      </trkpt>
      <trkpt lat="45.89693" lon="4.67108">
        <ele>432.59204</ele>
        <time>2022-08-23T13:51:33.000Z</time>
      </trkpt>
      <trkpt lat="45.89695" lon="4.67109">
        <ele>432.72052</ele>
        <time>2022-08-23T13:51:34.000Z</time>
      </trkpt>
      <trkpt lat="45.89697" lon="4.6711">
        <ele>432.74847</ele>
        <time>2022-08-23T13:51:35.000Z</time>
      </trkpt>
      <trkpt lat="45.897" lon="4.67111">
        <ele>432.81387</ele>
        <time>2022-08-23T13:51:36.000Z</time>
      </trkpt>
      <trkpt lat="45.89703" lon="4.67112">
        <ele>432.9541</ele>
        <time>2022-08-23T13:51:37.000Z</time>
      </trkpt>
      <trkpt lat="45.89706" lon="4.67111">
        <ele>433.06439</ele>
        <time>2022-08-23T13:51:38.000Z</time>
      </trkpt>
      <trkpt lat="45.89709" lon="4.6711">
        <ele>433.21051</ele>
        <time>2022-08-23T13:51:39.000Z</time>
      </trkpt>
      <trkpt lat="45.89712" lon="4.67109">
        <ele>433.33795</ele>
        <time>2022-08-23T13:51:40.000Z</time>
      </trkpt>
      <trkpt lat="45.89716" lon="4.67109">
        <ele>433.45355</ele>
        <time>2022-08-23T13:51:41.000Z</time>
      </trkpt>
      <trkpt lat="45.89719" lon="4.67108">
        <ele>433.51605</ele>
        <time>2022-08-23T13:51:42.000Z</time>
      </trkpt>
      <trkpt lat="45.89723" lon="4.67108">
        <ele>433.59366</ele>
        <time>2022-08-23T13:51:43.000Z</time>
      </trkpt>
      <trkpt lat="45.89726" lon="4.67108">
        <ele>433.72992</ele>
        <time>2022-08-23T13:51:44.000Z</time>
      </trkpt>
      <trkpt lat="45.8973" lon="4.67108">
        <ele>433.93512</ele>
        <time>2022-08-23T13:51:45.000Z</time>
      </trkpt>
      <trkpt lat="45.89733" lon="4.67108">
        <ele>434.10703</ele>
        <time>2022-08-23T13:51:46.000Z</time>
      </trkpt>
      <trkpt lat="45.89736" lon="4.67108">
        <ele>434.35181</ele>
        <time>2022-08-23T13:51:47.000Z</time>
      </trkpt>
      <trkpt lat="45.89739" lon="4.67108">
        <ele>434.61041</ele>
        <time>2022-08-23T13:51:48.000Z</time>
      </trkpt>
      <trkpt lat="45.89742" lon="4.67109">
        <ele>434.77802</ele>
        <time>2022-08-23T13:51:49.000Z</time>
      </trkpt>
      <trkpt lat="45.89745" lon="4.6711">
        <ele>435.04364</ele>
        <time>2022-08-23T13:51:50.000Z</time>
      </trkpt>
      <trkpt lat="45.89749" lon="4.67111">
        <ele>435.31738</ele>
        <time>2022-08-23T13:51:51.000Z</time>
      </trkpt>
      <trkpt lat="45.89753" lon="4.67112">
        <ele>435.67499</ele>
        <time>2022-08-23T13:51:52.000Z</time>
      </trkpt>
      <trkpt lat="45.89757" lon="4.67112">
        <ele>435.92661</ele>
        <time>2022-08-23T13:51:53.000Z</time>
      </trkpt>
      <trkpt lat="45.89761" lon="4.67112">
        <ele>436.19913</ele>
        <time>2022-08-23T13:51:54.000Z</time>
      </trkpt>
      <trkpt lat="45.89764" lon="4.67111">
        <ele>436.40729</ele>
        <time>2022-08-23T13:51:55.000Z</time>
      </trkpt>
      <trkpt lat="45.89766" lon="4.67111">
        <ele>436.61075</ele>
        <time>2022-08-23T13:51:56.000Z</time>
      </trkpt>
      <trkpt lat="45.89768" lon="4.67111">
        <ele>436.91241</ele>
        <time>2022-08-23T13:51:58.000Z</time>
      </trkpt>
      <trkpt lat="45.8977" lon="4.67112">
        <ele>437.22061</ele>
        <time>2022-08-23T13:52:00.000Z</time>
      </trkpt>
      <trkpt lat="45.89773" lon="4.67112">
        <ele>437.61133</ele>
        <time>2022-08-23T13:52:02.000Z</time>
      </trkpt>
      <trkpt lat="45.89775" lon="4.67112">
        <ele>438.00079</ele>
        <time>2022-08-23T13:52:03.000Z</time>
      </trkpt>
      <trkpt lat="45.89778" lon="4.67112">
        <ele>438.45078</ele>
        <time>2022-08-23T13:52:04.000Z</time>
      </trkpt>
      <trkpt lat="45.89781" lon="4.67111">
        <ele>438.82233</ele>
        <time>2022-08-23T13:52:06.000Z</time>
      </trkpt>
      <trkpt lat="45.89785" lon="4.67111">
        <ele>439.16162</ele>
        <time>2022-08-23T13:52:08.000Z</time>
      </trkpt>
      <trkpt lat="45.89787" lon="4.67111">
        <ele>439.38647</ele>
        <time>2022-08-23T13:52:09.000Z</time>
      </trkpt>
      <trkpt lat="45.8979" lon="4.67111">
        <ele>439.56827</ele>
        <time>2022-08-23T13:52:10.000Z</time>
      </trkpt>
      <trkpt lat="45.89793" lon="4.67111">
        <ele>439.73013</ele>
        <time>2022-08-23T13:52:11.000Z</time>
      </trkpt>
      <trkpt lat="45.89795" lon="4.67112">
        <ele>439.7934</ele>
        <time>2022-08-23T13:52:12.000Z</time>
      </trkpt>
      <trkpt lat="45.89797" lon="4.67113">
        <ele>439.84195</ele>
        <time>2022-08-23T13:52:14.000Z</time>
      </trkpt>
      <trkpt lat="45.898" lon="4.67115">
        <ele>439.69931</ele>
        <time>2022-08-23T13:52:17.000Z</time>
      </trkpt>
      <trkpt lat="45.89802" lon="4.67116">
        <ele>439.52338</ele>
        <time>2022-08-23T13:52:19.000Z</time>
      </trkpt>
      <trkpt lat="45.89804" lon="4.67117">
        <ele>439.33163</ele>
        <time>2022-08-23T13:52:23.000Z</time>
      </trkpt>
      <trkpt lat="45.89806" lon="4.67117">
        <ele>439.04132</ele>
        <time>2022-08-23T13:52:26.000Z</time>
      </trkpt>
      <trkpt lat="45.89808" lon="4.67117">
        <ele>438.88321</ele>
        <time>2022-08-23T13:52:29.000Z</time>
      </trkpt>
      <trkpt lat="45.89811" lon="4.67117">
        <ele>438.6871</ele>
        <time>2022-08-23T13:52:44.000Z</time>
      </trkpt>
      <trkpt lat="45.89814" lon="4.67117">
        <ele>438.58624</ele>
        <time>2022-08-23T13:52:45.000Z</time>
      </trkpt>
      <trkpt lat="45.89818" lon="4.67116">
        <ele>438.48334</ele>
        <time>2022-08-23T13:52:46.000Z</time>
      </trkpt>
      <trkpt lat="45.89822" lon="4.67116">
        <ele>438.09985</ele>
        <time>2022-08-23T13:52:47.000Z</time>
      </trkpt>
      <trkpt lat="45.89827" lon="4.67115">
        <ele>437.78629</ele>
        <time>2022-08-23T13:52:48.000Z</time>
      </trkpt>
      <trkpt lat="45.89831" lon="4.67115">
        <ele>437.37094</ele>
        <time>2022-08-23T13:52:49.000Z</time>
      </trkpt>
      <trkpt lat="45.89835" lon="4.67115">
        <ele>437.07056</ele>
        <time>2022-08-23T13:52:50.000Z</time>
      </trkpt>
      <trkpt lat="45.89838" lon="4.67115">
        <ele>436.72061</ele>
        <time>2022-08-23T13:52:51.000Z</time>
      </trkpt>
      <trkpt lat="45.89842" lon="4.67115">
        <ele>436.43335</ele>
        <time>2022-08-23T13:52:52.000Z</time>
      </trkpt>
      <trkpt lat="45.89846" lon="4.67115">
        <ele>436.22812</ele>
        <time>2022-08-23T13:52:53.000Z</time>
      </trkpt>
      <trkpt lat="45.89851" lon="4.67115">
        <ele>435.84308</ele>
        <time>2022-08-23T13:52:54.000Z</time>
      </trkpt>
      <trkpt lat="45.89855" lon="4.67116">
        <ele>435.3952</ele>
        <time>2022-08-23T13:52:55.000Z</time>
      </trkpt>
      <trkpt lat="45.8986" lon="4.67116">
        <ele>434.9545</ele>
        <time>2022-08-23T13:52:56.000Z</time>
      </trkpt>
      <trkpt lat="45.89865" lon="4.67116">
        <ele>434.61206</ele>
        <time>2022-08-23T13:52:57.000Z</time>
      </trkpt>
      <trkpt lat="45.8987" lon="4.67117">
        <ele>434.25961</ele>
        <time>2022-08-23T13:52:58.000Z</time>
      </trkpt>
      <trkpt lat="45.89874" lon="4.67117">
        <ele>433.95654</ele>
        <time>2022-08-23T13:52:59.000Z</time>
      </trkpt>
      <trkpt lat="45.89878" lon="4.67116">
        <ele>433.56525</ele>
        <time>2022-08-23T13:53:00.000Z</time>
      </trkpt>
      <trkpt lat="45.89882" lon="4.67116">
        <ele>433.18939</ele>
        <time>2022-08-23T13:53:01.000Z</time>
      </trkpt>
      <trkpt lat="45.89886" lon="4.67116">
        <ele>432.90753</ele>
        <time>2022-08-23T13:53:02.000Z</time>
      </trkpt>
      <trkpt lat="45.8989" lon="4.67116">
        <ele>432.51642</ele>
        <time>2022-08-23T13:53:03.000Z</time>
      </trkpt>
      <trkpt lat="45.89894" lon="4.67116">
        <ele>432.2338</ele>
        <time>2022-08-23T13:53:04.000Z</time>
      </trkpt>
      <trkpt lat="45.89898" lon="4.67116">
        <ele>431.8392</ele>
        <time>2022-08-23T13:53:05.000Z</time>
      </trkpt>
      <trkpt lat="45.89903" lon="4.67116">
        <ele>431.44073</ele>
        <time>2022-08-23T13:53:06.000Z</time>
      </trkpt>
      <trkpt lat="45.89906" lon="4.67117">
        <ele>431.19009</ele>
        <time>2022-08-23T13:53:07.000Z</time>
      </trkpt>
      <trkpt lat="45.8991" lon="4.67117">
        <ele>430.92642</ele>
        <time>2022-08-23T13:53:08.000Z</time>
      </trkpt>
      <trkpt lat="45.89914" lon="4.67117">
        <ele>430.62857</ele>
        <time>2022-08-23T13:53:09.000Z</time>
      </trkpt>
      <trkpt lat="45.89918" lon="4.67117">
        <ele>430.30493</ele>
        <time>2022-08-23T13:53:10.000Z</time>
      </trkpt>
      <trkpt lat="45.89922" lon="4.67118">
        <ele>430.01651</ele>
        <time>2022-08-23T13:53:11.000Z</time>
      </trkpt>
      <trkpt lat="45.89926" lon="4.67118">
        <ele>429.82422</ele>
        <time>2022-08-23T13:53:12.000Z</time>
      </trkpt>
      <trkpt lat="45.8993" lon="4.67119">
        <ele>429.57593</ele>
        <time>2022-08-23T13:53:13.000Z</time>
      </trkpt>
      <trkpt lat="45.89934" lon="4.67119">
        <ele>429.61157</ele>
        <time>2022-08-23T13:53:14.000Z</time>
      </trkpt>
      <trkpt lat="45.89939" lon="4.67119">
        <ele>429.36215</ele>
        <time>2022-08-23T13:53:15.000Z</time>
      </trkpt>
      <trkpt lat="45.89944" lon="4.67118">
        <ele>429.12354</ele>
        <time>2022-08-23T13:53:16.000Z</time>
      </trkpt>
      <trkpt lat="45.89948" lon="4.67117">
        <ele>428.84113</ele>
        <time>2022-08-23T13:53:17.000Z</time>
      </trkpt>
      <trkpt lat="45.89953" lon="4.67116">
        <ele>428.62445</ele>
        <time>2022-08-23T13:53:18.000Z</time>
      </trkpt>
      <trkpt lat="45.89957" lon="4.67114">
        <ele>428.60635</ele>
        <time>2022-08-23T13:53:19.000Z</time>
      </trkpt>
      <trkpt lat="45.89961" lon="4.67113">
        <ele>428.62933</ele>
        <time>2022-08-23T13:53:20.000Z</time>
      </trkpt>
      <trkpt lat="45.89966" lon="4.67111">
        <ele>428.62189</ele>
        <time>2022-08-23T13:53:21.000Z</time>
      </trkpt>
      <trkpt lat="45.89971" lon="4.67111">
        <ele>428.47519</ele>
        <time>2022-08-23T13:53:22.000Z</time>
      </trkpt>
      <trkpt lat="45.89975" lon="4.67112">
        <ele>428.41742</ele>
        <time>2022-08-23T13:53:23.000Z</time>
      </trkpt>
      <trkpt lat="45.89978" lon="4.67114">
        <ele>428.29434</ele>
        <time>2022-08-23T13:53:24.000Z</time>
      </trkpt>
      <trkpt lat="45.89981" lon="4.67116">
        <ele>428.29712</ele>
        <time>2022-08-23T13:53:25.000Z</time>
      </trkpt>
      <trkpt lat="45.89982" lon="4.67118">
        <ele>428.27936</ele>
        <time>2022-08-23T13:53:26.000Z</time>
      </trkpt>
      <trkpt lat="45.89986" lon="4.67119">
        <ele>428.02759</ele>
        <time>2022-08-23T13:53:28.000Z</time>
      </trkpt>
      <trkpt lat="45.89989" lon="4.67119">
        <ele>427.79166</ele>
        <time>2022-08-23T13:53:29.000Z</time>
      </trkpt>
      <trkpt lat="45.89991" lon="4.67119">
        <ele>427.56503</ele>
        <time>2022-08-23T13:53:30.000Z</time>
      </trkpt>
      <trkpt lat="45.89994" lon="4.67119">
        <ele>427.20712</ele>
        <time>2022-08-23T13:53:31.000Z</time>
      </trkpt>
      <trkpt lat="45.89998" lon="4.67119">
        <ele>426.65924</ele>
        <time>2022-08-23T13:53:33.000Z</time>
      </trkpt>
      <trkpt lat="45.9" lon="4.67119">
        <ele>426.13647</ele>
        <time>2022-08-23T13:53:34.000Z</time>
      </trkpt>
      <trkpt lat="45.90003" lon="4.67118">
        <ele>425.5834</ele>
        <time>2022-08-23T13:53:35.000Z</time>
      </trkpt>
      <trkpt lat="45.90005" lon="4.67117">
        <ele>424.8548</ele>
        <time>2022-08-23T13:53:36.000Z</time>
      </trkpt>
      <trkpt lat="45.90009" lon="4.67116">
        <ele>424.50546</ele>
        <time>2022-08-23T13:53:38.000Z</time>
      </trkpt>
      <trkpt lat="45.90011" lon="4.67116">
        <ele>424.14752</ele>
        <time>2022-08-23T13:53:39.000Z</time>
      </trkpt>
      <trkpt lat="45.90014" lon="4.67117">
        <ele>423.78473</ele>
        <time>2022-08-23T13:53:40.000Z</time>
      </trkpt>
      <trkpt lat="45.90017" lon="4.67117">
        <ele>423.37946</ele>
        <time>2022-08-23T13:53:41.000Z</time>
      </trkpt>
      <trkpt lat="45.9002" lon="4.67118">
        <ele>422.87531</ele>
        <time>2022-08-23T13:53:42.000Z</time>
      </trkpt>
      <trkpt lat="45.90024" lon="4.67119">
        <ele>422.40323</ele>
        <time>2022-08-23T13:53:43.000Z</time>
      </trkpt>
      <trkpt lat="45.90027" lon="4.6712">
        <ele>421.91837</ele>
        <time>2022-08-23T13:53:44.000Z</time>
      </trkpt>
      <trkpt lat="45.90029" lon="4.6712">
        <ele>421.51068</ele>
        <time>2022-08-23T13:53:45.000Z</time>
      </trkpt>
      <trkpt lat="45.90031" lon="4.6712">
        <ele>421.05341</ele>
        <time>2022-08-23T13:53:46.000Z</time>
      </trkpt>
      <trkpt lat="45.90033" lon="4.6712">
        <ele>420.65363</ele>
        <time>2022-08-23T13:53:47.000Z</time>
      </trkpt>
      <trkpt lat="45.90035" lon="4.6712">
        <ele>420.1521</ele>
        <time>2022-08-23T13:53:48.000Z</time>
      </trkpt>
      <trkpt lat="45.90037" lon="4.67118">
        <ele>419.57797</ele>
        <time>2022-08-23T13:53:49.000Z</time>
      </trkpt>
      <trkpt lat="45.90039" lon="4.67117">
        <ele>419.21436</ele>
        <time>2022-08-23T13:53:50.000Z</time>
      </trkpt>
      <trkpt lat="45.90042" lon="4.67114">
        <ele>418.86322</ele>
        <time>2022-08-23T13:53:52.000Z</time>
      </trkpt>
      <trkpt lat="45.90043" lon="4.67112">
        <ele>418.461</ele>
        <time>2022-08-23T13:53:54.000Z</time>
      </trkpt>
      <trkpt lat="45.90044" lon="4.67109">
        <ele>418.10791</ele>
        <time>2022-08-23T13:53:56.000Z</time>
      </trkpt>
      <trkpt lat="45.90046" lon="4.67106">
        <ele>417.9476</ele>
        <time>2022-08-23T13:53:58.000Z</time>
      </trkpt>
      <trkpt lat="45.90048" lon="4.67106">
        <ele>417.74139</ele>
        <time>2022-08-23T13:53:59.000Z</time>
      </trkpt>
      <trkpt lat="45.9005" lon="4.67107">
        <ele>417.61053</ele>
        <time>2022-08-23T13:54:01.000Z</time>
      </trkpt>
      <trkpt lat="45.90053" lon="4.67108">
        <ele>417.59634</ele>
        <time>2022-08-23T13:54:04.000Z</time>
      </trkpt>
      <trkpt lat="45.90055" lon="4.6711">
        <ele>417.58813</ele>
        <time>2022-08-23T13:54:07.000Z</time>
      </trkpt>
      <trkpt lat="45.90056" lon="4.67113">
        <ele>417.62598</ele>
        <time>2022-08-23T13:54:10.000Z</time>
      </trkpt>
      <trkpt lat="45.90058" lon="4.67115">
        <ele>417.69385</ele>
        <time>2022-08-23T13:54:24.000Z</time>
      </trkpt>
      <trkpt lat="45.90061" lon="4.67114">
        <ele>417.91339</ele>
        <time>2022-08-23T13:54:27.000Z</time>
      </trkpt>
      <trkpt lat="45.90063" lon="4.67113">
        <ele>418.21796</ele>
        <time>2022-08-23T13:54:28.000Z</time>
      </trkpt>
      <trkpt lat="45.90066" lon="4.67112">
        <ele>418.50986</ele>
        <time>2022-08-23T13:54:29.000Z</time>
      </trkpt>
      <trkpt lat="45.90069" lon="4.67111">
        <ele>418.92984</ele>
        <time>2022-08-23T13:54:30.000Z</time>
      </trkpt>
      <trkpt lat="45.90074" lon="4.6711">
        <ele>419.39691</ele>
        <time>2022-08-23T13:54:31.000Z</time>
      </trkpt>
      <trkpt lat="45.90078" lon="4.67108">
        <ele>419.82657</ele>
        <time>2022-08-23T13:54:32.000Z</time>
      </trkpt>
      <trkpt lat="45.90081" lon="4.67107">
        <ele>420.28769</ele>
        <time>2022-08-23T13:54:33.000Z</time>
      </trkpt>
      <trkpt lat="45.90085" lon="4.67106">
        <ele>420.5939</ele>
        <time>2022-08-23T13:54:34.000Z</time>
      </trkpt>
      <trkpt lat="45.90088" lon="4.67106">
        <ele>420.94012</ele>
        <time>2022-08-23T13:54:35.000Z</time>
      </trkpt>
      <trkpt lat="45.90091" lon="4.67106">
        <ele>421.30975</ele>
        <time>2022-08-23T13:54:37.000Z</time>
      </trkpt>
      <trkpt lat="45.90091" lon="4.67109">
        <ele>421.56625</ele>
        <time>2022-08-23T13:54:39.000Z</time>
      </trkpt>
      <trkpt lat="45.9009" lon="4.67111">
        <ele>421.82919</ele>
        <time>2022-08-23T13:54:43.000Z</time>
      </trkpt>
      <trkpt lat="45.90088" lon="4.67112">
        <ele>422.19757</ele>
        <time>2022-08-23T13:54:52.000Z</time>
      </trkpt>
      <trkpt lat="45.90087" lon="4.67113">
        <ele>422.66699</ele>
        <time>2022-08-23T13:55:02.000Z</time>
      </trkpt>
      <trkpt lat="45.90091" lon="4.67113">
        <ele>423.03156</ele>
        <time>2022-08-23T13:55:23.000Z</time>
      </trkpt>
      <trkpt lat="45.90094" lon="4.67113">
        <ele>423.31689</ele>
        <time>2022-08-23T13:55:24.000Z</time>
      </trkpt>
      <trkpt lat="45.90096" lon="4.67113">
        <ele>423.60162</ele>
        <time>2022-08-23T13:55:25.000Z</time>
      </trkpt>
      <trkpt lat="45.90099" lon="4.67112">
        <ele>423.86728</ele>
        <time>2022-08-23T13:55:26.000Z</time>
      </trkpt>
      <trkpt lat="45.90102" lon="4.67111">
        <ele>424.13165</ele>
        <time>2022-08-23T13:55:27.000Z</time>
      </trkpt>
      <trkpt lat="45.90104" lon="4.6711">
        <ele>424.38876</ele>
        <time>2022-08-23T13:55:28.000Z</time>
      </trkpt>
      <trkpt lat="45.90106" lon="4.67109">
        <ele>424.47491</ele>
        <time>2022-08-23T13:55:29.000Z</time>
      </trkpt>
      <trkpt lat="45.90108" lon="4.67108">
        <ele>424.50659</ele>
        <time>2022-08-23T13:55:30.000Z</time>
      </trkpt>
      <trkpt lat="45.9011" lon="4.67107">
        <ele>424.54877</ele>
        <time>2022-08-23T13:55:31.000Z</time>
      </trkpt>
      <trkpt lat="45.90113" lon="4.67107">
        <ele>424.42133</ele>
        <time>2022-08-23T13:55:32.000Z</time>
      </trkpt>
      <trkpt lat="45.90115" lon="4.67106">
        <ele>424.24097</ele>
        <time>2022-08-23T13:55:33.000Z</time>
      </trkpt>
      <trkpt lat="45.90118" lon="4.67106">
        <ele>424.11191</ele>
        <time>2022-08-23T13:55:34.000Z</time>
      </trkpt>
      <trkpt lat="45.9012" lon="4.67106">
        <ele>423.83893</ele>
        <time>2022-08-23T13:55:35.000Z</time>
      </trkpt>
      <trkpt lat="45.90122" lon="4.67106">
        <ele>423.74677</ele>
        <time>2022-08-23T13:55:36.000Z</time>
      </trkpt>
      <trkpt lat="45.90124" lon="4.67105">
        <ele>423.6618</ele>
        <time>2022-08-23T13:55:37.000Z</time>
      </trkpt>
      <trkpt lat="45.90127" lon="4.67105">
        <ele>423.52872</ele>
        <time>2022-08-23T13:55:38.000Z</time>
      </trkpt>
      <trkpt lat="45.9013" lon="4.67104">
        <ele>423.45834</ele>
        <time>2022-08-23T13:55:39.000Z</time>
      </trkpt>
      <trkpt lat="45.90133" lon="4.67103">
        <ele>423.43149</ele>
        <time>2022-08-23T13:55:40.000Z</time>
      </trkpt>
      <trkpt lat="45.90135" lon="4.67103">
        <ele>423.30341</ele>
        <time>2022-08-23T13:55:41.000Z</time>
      </trkpt>
      <trkpt lat="45.90137" lon="4.67102">
        <ele>423.16852</ele>
        <time>2022-08-23T13:55:42.000Z</time>
      </trkpt>
      <trkpt lat="45.9014" lon="4.671">
        <ele>422.95807</ele>
        <time>2022-08-23T13:55:44.000Z</time>
      </trkpt>
      <trkpt lat="45.90142" lon="4.67096">
        <ele>422.87949</ele>
        <time>2022-08-23T13:55:46.000Z</time>
      </trkpt>
      <trkpt lat="45.90145" lon="4.67096">
        <ele>422.62729</ele>
        <time>2022-08-23T13:55:47.000Z</time>
      </trkpt>
      <trkpt lat="45.90148" lon="4.67094">
        <ele>422.32755</ele>
        <time>2022-08-23T13:55:48.000Z</time>
      </trkpt>
      <trkpt lat="45.9015" lon="4.67094">
        <ele>422.05365</ele>
        <time>2022-08-23T13:55:49.000Z</time>
      </trkpt>
      <trkpt lat="45.90152" lon="4.67093">
        <ele>421.7099</ele>
        <time>2022-08-23T13:55:50.000Z</time>
      </trkpt>
      <trkpt lat="45.90155" lon="4.6709">
        <ele>421.33774</ele>
        <time>2022-08-23T13:55:52.000Z</time>
      </trkpt>
      <trkpt lat="45.90157" lon="4.67089">
        <ele>420.96771</ele>
        <time>2022-08-23T13:55:53.000Z</time>
      </trkpt>
      <trkpt lat="45.90159" lon="4.67087">
        <ele>420.4852</ele>
        <time>2022-08-23T13:55:55.000Z</time>
      </trkpt>
      <trkpt lat="45.90162" lon="4.67086">
        <ele>420.1026</ele>
        <time>2022-08-23T13:55:57.000Z</time>
      </trkpt>
      <trkpt lat="45.90164" lon="4.67086">
        <ele>419.72894</ele>
        <time>2022-08-23T13:55:58.000Z</time>
      </trkpt>
      <trkpt lat="45.90166" lon="4.67084">
        <ele>419.44336</ele>
        <time>2022-08-23T13:56:00.000Z</time>
      </trkpt>
      <trkpt lat="45.90167" lon="4.67081">
        <ele>419.21402</ele>
        <time>2022-08-23T13:56:01.000Z</time>
      </trkpt>
      <trkpt lat="45.90168" lon="4.67078">
        <ele>418.96533</ele>
        <time>2022-08-23T13:56:02.000Z</time>
      </trkpt>
      <trkpt lat="45.9017" lon="4.67075">
        <ele>418.71063</ele>
        <time>2022-08-23T13:56:03.000Z</time>
      </trkpt>
      <trkpt lat="45.90172" lon="4.67073">
        <ele>418.33795</ele>
        <time>2022-08-23T13:56:04.000Z</time>
      </trkpt>
      <trkpt lat="45.90173" lon="4.67072">
        <ele>417.92578</ele>
        <time>2022-08-23T13:56:05.000Z</time>
      </trkpt>
      <trkpt lat="45.90175" lon="4.67071">
        <ele>417.48618</ele>
        <time>2022-08-23T13:56:06.000Z</time>
      </trkpt>
      <trkpt lat="45.90177" lon="4.6707">
        <ele>416.93539</ele>
        <time>2022-08-23T13:56:07.000Z</time>
      </trkpt>
      <trkpt lat="45.90178" lon="4.67068">
        <ele>416.32593</ele>
        <time>2022-08-23T13:56:08.000Z</time>
      </trkpt>
      <trkpt lat="45.90179" lon="4.67065">
        <ele>415.87582</ele>
        <time>2022-08-23T13:56:09.000Z</time>
      </trkpt>
      <trkpt lat="45.9018" lon="4.67063">
        <ele>415.33359</ele>
        <time>2022-08-23T13:56:10.000Z</time>
      </trkpt>
      <trkpt lat="45.90181" lon="4.67061">
        <ele>414.98471</ele>
        <time>2022-08-23T13:56:11.000Z</time>
      </trkpt>
      <trkpt lat="45.90183" lon="4.67059">
        <ele>414.62262</ele>
        <time>2022-08-23T13:56:12.000Z</time>
      </trkpt>
      <trkpt lat="45.90186" lon="4.67059">
        <ele>414.21182</ele>
        <time>2022-08-23T13:56:13.000Z</time>
      </trkpt>
      <trkpt lat="45.90188" lon="4.6706">
        <ele>413.87079</ele>
        <time>2022-08-23T13:56:14.000Z</time>
      </trkpt>
      <trkpt lat="45.90191" lon="4.67062">
        <ele>413.5722</ele>
        <time>2022-08-23T13:56:15.000Z</time>
      </trkpt>
      <trkpt lat="45.90193" lon="4.67065">
        <ele>413.23163</ele>
        <time>2022-08-23T13:56:16.000Z</time>
      </trkpt>
      <trkpt lat="45.90196" lon="4.67066">
        <ele>412.88593</ele>
        <time>2022-08-23T13:56:17.000Z</time>
      </trkpt>
      <trkpt lat="45.90198" lon="4.67067">
        <ele>412.44775</ele>
        <time>2022-08-23T13:56:18.000Z</time>
      </trkpt>
      <trkpt lat="45.90201" lon="4.67069">
        <ele>411.95947</ele>
        <time>2022-08-23T13:56:19.000Z</time>
      </trkpt>
      <trkpt lat="45.90203" lon="4.67071">
        <ele>411.39117</ele>
        <time>2022-08-23T13:56:20.000Z</time>
      </trkpt>
      <trkpt lat="45.90206" lon="4.67073">
        <ele>410.80426</ele>
        <time>2022-08-23T13:56:21.000Z</time>
      </trkpt>
      <trkpt lat="45.90209" lon="4.67075">
        <ele>410.2348</ele>
        <time>2022-08-23T13:56:22.000Z</time>
      </trkpt>
      <trkpt lat="45.90212" lon="4.67078">
        <ele>409.73047</ele>
        <time>2022-08-23T13:56:23.000Z</time>
      </trkpt>
      <trkpt lat="45.90215" lon="4.67079">
        <ele>409.40201</ele>
        <time>2022-08-23T13:56:24.000Z</time>
      </trkpt>
      <trkpt lat="45.90218" lon="4.67079">
        <ele>409.08725</ele>
        <time>2022-08-23T13:56:25.000Z</time>
      </trkpt>
      <trkpt lat="45.90222" lon="4.67079">
        <ele>408.78836</ele>
        <time>2022-08-23T13:56:26.000Z</time>
      </trkpt>
      <trkpt lat="45.90225" lon="4.6708">
        <ele>408.58636</ele>
        <time>2022-08-23T13:56:27.000Z</time>
      </trkpt>
      <trkpt lat="45.90227" lon="4.67081">
        <ele>408.35196</ele>
        <time>2022-08-23T13:56:28.000Z</time>
      </trkpt>
      <trkpt lat="45.90229" lon="4.67084">
        <ele>408.19296</ele>
        <time>2022-08-23T13:56:29.000Z</time>
      </trkpt>
      <trkpt lat="45.90231" lon="4.67087">
        <ele>408.0849</ele>
        <time>2022-08-23T13:56:30.000Z</time>
      </trkpt>
      <trkpt lat="45.90234" lon="4.67091">
        <ele>407.95859</ele>
        <time>2022-08-23T13:56:31.000Z</time>
      </trkpt>
      <trkpt lat="45.90237" lon="4.67094">
        <ele>407.88141</ele>
        <time>2022-08-23T13:56:32.000Z</time>
      </trkpt>
      <trkpt lat="45.90241" lon="4.67096">
        <ele>407.87573</ele>
        <time>2022-08-23T13:56:33.000Z</time>
      </trkpt>
      <trkpt lat="45.90244" lon="4.671">
        <ele>407.884</ele>
        <time>2022-08-23T13:56:34.000Z</time>
      </trkpt>
      <trkpt lat="45.90247" lon="4.67103">
        <ele>407.92081</ele>
        <time>2022-08-23T13:56:35.000Z</time>
      </trkpt>
      <trkpt lat="45.9025" lon="4.67107">
        <ele>407.98331</ele>
        <time>2022-08-23T13:56:36.000Z</time>
      </trkpt>
      <trkpt lat="45.90254" lon="4.67111">
        <ele>408.17493</ele>
        <time>2022-08-23T13:56:37.000Z</time>
      </trkpt>
      <trkpt lat="45.90258" lon="4.67114">
        <ele>408.48782</ele>
        <time>2022-08-23T13:56:38.000Z</time>
      </trkpt>
      <trkpt lat="45.90262" lon="4.67116">
        <ele>408.86465</ele>
        <time>2022-08-23T13:56:39.000Z</time>
      </trkpt>
      <trkpt lat="45.90265" lon="4.67118">
        <ele>409.26807</ele>
        <time>2022-08-23T13:56:40.000Z</time>
      </trkpt>
      <trkpt lat="45.90269" lon="4.67121">
        <ele>409.70352</ele>
        <time>2022-08-23T13:56:41.000Z</time>
      </trkpt>
      <trkpt lat="45.90274" lon="4.67123">
        <ele>409.96811</ele>
        <time>2022-08-23T13:56:42.000Z</time>
      </trkpt>
      <trkpt lat="45.90279" lon="4.67126">
        <ele>410.05728</ele>
        <time>2022-08-23T13:56:43.000Z</time>
      </trkpt>
      <trkpt lat="45.90283" lon="4.67128">
        <ele>410.01895</ele>
        <time>2022-08-23T13:56:44.000Z</time>
      </trkpt>
      <trkpt lat="45.90285" lon="4.6713">
        <ele>410.01309</ele>
        <time>2022-08-23T13:56:45.000Z</time>
      </trkpt>
      <trkpt lat="45.90288" lon="4.67133">
        <ele>410.02246</ele>
        <time>2022-08-23T13:56:46.000Z</time>
      </trkpt>
      <trkpt lat="45.90291" lon="4.67136">
        <ele>410.17007</ele>
        <time>2022-08-23T13:56:47.000Z</time>
      </trkpt>
      <trkpt lat="45.90294" lon="4.6714">
        <ele>410.30914</ele>
        <time>2022-08-23T13:56:48.000Z</time>
      </trkpt>
      <trkpt lat="45.90296" lon="4.67142">
        <ele>410.30829</ele>
        <time>2022-08-23T13:56:49.000Z</time>
      </trkpt>
      <trkpt lat="45.90298" lon="4.67143">
        <ele>410.24683</ele>
        <time>2022-08-23T13:56:50.000Z</time>
      </trkpt>
      <trkpt lat="45.903" lon="4.67144">
        <ele>410.09067</ele>
        <time>2022-08-23T13:56:51.000Z</time>
      </trkpt>
      <trkpt lat="45.90302" lon="4.67145">
        <ele>409.92529</ele>
        <time>2022-08-23T13:56:53.000Z</time>
      </trkpt>
      <trkpt lat="45.90303" lon="4.67148">
        <ele>409.76019</ele>
        <time>2022-08-23T13:57:04.000Z</time>
      </trkpt>
      <trkpt lat="45.90304" lon="4.67149">
        <ele>409.66708</ele>
        <time>2022-08-23T13:57:15.000Z</time>
      </trkpt>
      <trkpt lat="45.90306" lon="4.67148">
        <ele>409.62753</ele>
        <time>2022-08-23T13:59:16.000Z</time>
      </trkpt>
      <trkpt lat="45.90307" lon="4.67144">
        <ele>409.64032</ele>
        <time>2022-08-23T13:59:42.000Z</time>
      </trkpt>
      <trkpt lat="45.90308" lon="4.67141">
        <ele>409.62823</ele>
        <time>2022-08-23T13:59:43.000Z</time>
      </trkpt>
      <trkpt lat="45.90308" lon="4.67137">
        <ele>409.53033</ele>
        <time>2022-08-23T13:59:44.000Z</time>
      </trkpt>
      <trkpt lat="45.90309" lon="4.67134">
        <ele>409.45258</ele>
        <time>2022-08-23T13:59:45.000Z</time>
      </trkpt>
      <trkpt lat="45.90309" lon="4.67131">
        <ele>409.30402</ele>
        <time>2022-08-23T13:59:46.000Z</time>
      </trkpt>
      <trkpt lat="45.90309" lon="4.67127">
        <ele>409.22647</ele>
        <time>2022-08-23T13:59:47.000Z</time>
      </trkpt>
      <trkpt lat="45.9031" lon="4.67124">
        <ele>409.30225</ele>
        <time>2022-08-23T13:59:48.000Z</time>
      </trkpt>
      <trkpt lat="45.90311" lon="4.67121">
        <ele>409.5531</ele>
        <time>2022-08-23T13:59:49.000Z</time>
      </trkpt>
      <trkpt lat="45.90311" lon="4.67117">
        <ele>409.93329</ele>
        <time>2022-08-23T13:59:50.000Z</time>
      </trkpt>
      <trkpt lat="45.90312" lon="4.67114">
        <ele>410.29877</ele>
        <time>2022-08-23T13:59:51.000Z</time>
      </trkpt>
      <trkpt lat="45.90312" lon="4.67111">
        <ele>410.64105</ele>
        <time>2022-08-23T13:59:52.000Z</time>
      </trkpt>
      <trkpt lat="45.90313" lon="4.67108">
        <ele>410.82968</ele>
        <time>2022-08-23T13:59:53.000Z</time>
      </trkpt>
      <trkpt lat="45.90314" lon="4.67104">
        <ele>411.07794</ele>
        <time>2022-08-23T13:59:54.000Z</time>
      </trkpt>
      <trkpt lat="45.90314" lon="4.67101">
        <ele>411.39105</ele>
        <time>2022-08-23T13:59:55.000Z</time>
      </trkpt>
      <trkpt lat="45.90315" lon="4.67097">
        <ele>411.76163</ele>
        <time>2022-08-23T13:59:56.000Z</time>
      </trkpt>
      <trkpt lat="45.90316" lon="4.67093">
        <ele>412.121</ele>
        <time>2022-08-23T13:59:57.000Z</time>
      </trkpt>
      <trkpt lat="45.90316" lon="4.67089">
        <ele>412.44809</ele>
        <time>2022-08-23T13:59:58.000Z</time>
      </trkpt>
      <trkpt lat="45.90317" lon="4.67087">
        <ele>412.74747</ele>
        <time>2022-08-23T13:59:59.000Z</time>
      </trkpt>
      <trkpt lat="45.90317" lon="4.67083">
        <ele>412.9939</ele>
        <time>2022-08-23T14:00:00.000Z</time>
      </trkpt>
      <trkpt lat="45.90318" lon="4.67079">
        <ele>413.19244</ele>
        <time>2022-08-23T14:00:01.000Z</time>
      </trkpt>
      <trkpt lat="45.90318" lon="4.67076">
        <ele>413.40079</ele>
        <time>2022-08-23T14:00:02.000Z</time>
      </trkpt>
      <trkpt lat="45.90319" lon="4.67072">
        <ele>413.59113</ele>
        <time>2022-08-23T14:00:03.000Z</time>
      </trkpt>
      <trkpt lat="45.90319" lon="4.67068">
        <ele>413.86969</ele>
        <time>2022-08-23T14:00:04.000Z</time>
      </trkpt>
      <trkpt lat="45.9032" lon="4.67065">
        <ele>414.11313</ele>
        <time>2022-08-23T14:00:05.000Z</time>
      </trkpt>
      <trkpt lat="45.90321" lon="4.67061">
        <ele>414.36295</ele>
        <time>2022-08-23T14:00:06.000Z</time>
      </trkpt>
      <trkpt lat="45.90321" lon="4.67058">
        <ele>414.47159</ele>
        <time>2022-08-23T14:00:07.000Z</time>
      </trkpt>
      <trkpt lat="45.90322" lon="4.67055">
        <ele>414.62744</ele>
        <time>2022-08-23T14:00:08.000Z</time>
      </trkpt>
      <trkpt lat="45.90323" lon="4.67052">
        <ele>414.73373</ele>
        <time>2022-08-23T14:00:09.000Z</time>
      </trkpt>
      <trkpt lat="45.90324" lon="4.67048">
        <ele>414.76715</ele>
        <time>2022-08-23T14:00:10.000Z</time>
      </trkpt>
      <trkpt lat="45.90325" lon="4.67045">
        <ele>414.74423</ele>
        <time>2022-08-23T14:00:11.000Z</time>
      </trkpt>
      <trkpt lat="45.90327" lon="4.67043">
        <ele>414.69458</ele>
        <time>2022-08-23T14:00:12.000Z</time>
      </trkpt>
      <trkpt lat="45.90328" lon="4.6704">
        <ele>414.65948</ele>
        <time>2022-08-23T14:00:13.000Z</time>
      </trkpt>
      <trkpt lat="45.90329" lon="4.67036">
        <ele>414.63287</ele>
        <time>2022-08-23T14:00:14.000Z</time>
      </trkpt>
      <trkpt lat="45.9033" lon="4.67032">
        <ele>414.67108</ele>
        <time>2022-08-23T14:00:15.000Z</time>
      </trkpt>
      <trkpt lat="45.90332" lon="4.67028">
        <ele>414.7348</ele>
        <time>2022-08-23T14:00:16.000Z</time>
      </trkpt>
      <trkpt lat="45.90333" lon="4.67024">
        <ele>414.90732</ele>
        <time>2022-08-23T14:00:17.000Z</time>
      </trkpt>
      <trkpt lat="45.90334" lon="4.6702">
        <ele>415.11655</ele>
        <time>2022-08-23T14:00:18.000Z</time>
      </trkpt>
      <trkpt lat="45.90335" lon="4.67016">
        <ele>415.25201</ele>
        <time>2022-08-23T14:00:19.000Z</time>
      </trkpt>
      <trkpt lat="45.90337" lon="4.67012">
        <ele>415.3894</ele>
        <time>2022-08-23T14:00:20.000Z</time>
      </trkpt>
      <trkpt lat="45.90338" lon="4.67008">
        <ele>415.43219</ele>
        <time>2022-08-23T14:00:21.000Z</time>
      </trkpt>
      <trkpt lat="45.90339" lon="4.67005">
        <ele>415.40698</ele>
        <time>2022-08-23T14:00:22.000Z</time>
      </trkpt>
      <trkpt lat="45.9034" lon="4.67002">
        <ele>415.32611</ele>
        <time>2022-08-23T14:00:23.000Z</time>
      </trkpt>
      <trkpt lat="45.90342" lon="4.67">
        <ele>415.25854</ele>
        <time>2022-08-23T14:00:24.000Z</time>
      </trkpt>
      <trkpt lat="45.90344" lon="4.66997">
        <ele>415.10944</ele>
        <time>2022-08-23T14:00:25.000Z</time>
      </trkpt>
      <trkpt lat="45.90346" lon="4.66995">
        <ele>414.86319</ele>
        <time>2022-08-23T14:00:26.000Z</time>
      </trkpt>
      <trkpt lat="45.90348" lon="4.66995">
        <ele>414.71631</ele>
        <time>2022-08-23T14:00:27.000Z</time>
      </trkpt>
      <trkpt lat="45.9035" lon="4.66995">
        <ele>414.54623</ele>
        <time>2022-08-23T14:00:28.000Z</time>
      </trkpt>
      <trkpt lat="45.90351" lon="4.66994">
        <ele>414.42252</ele>
        <time>2022-08-23T14:00:29.000Z</time>
      </trkpt>
      <trkpt lat="45.90353" lon="4.66992">
        <ele>414.34018</ele>
        <time>2022-08-23T14:00:30.000Z</time>
      </trkpt>
      <trkpt lat="45.90354" lon="4.66988">
        <ele>414.33682</ele>
        <time>2022-08-23T14:00:32.000Z</time>
      </trkpt>
      <trkpt lat="45.90356" lon="4.66985">
        <ele>414.50531</ele>
        <time>2022-08-23T14:00:34.000Z</time>
      </trkpt>
      <trkpt lat="45.9036" lon="4.66983">
        <ele>414.5751</ele>
        <time>2022-08-23T14:00:36.000Z</time>
      </trkpt>
      <trkpt lat="45.90363" lon="4.66984">
        <ele>414.54535</ele>
        <time>2022-08-23T14:00:37.000Z</time>
      </trkpt>
      <trkpt lat="45.90366" lon="4.66984">
        <ele>414.44702</ele>
        <time>2022-08-23T14:00:38.000Z</time>
      </trkpt>
      <trkpt lat="45.90369" lon="4.66985">
        <ele>414.3121</ele>
        <time>2022-08-23T14:00:39.000Z</time>
      </trkpt>
      <trkpt lat="45.90371" lon="4.66986">
        <ele>414.1879</ele>
        <time>2022-08-23T14:00:40.000Z</time>
      </trkpt>
      <trkpt lat="45.90374" lon="4.66986">
        <ele>414.0809</ele>
        <time>2022-08-23T14:00:41.000Z</time>
      </trkpt>
      <trkpt lat="45.90377" lon="4.66987">
        <ele>414.06989</ele>
        <time>2022-08-23T14:00:42.000Z</time>
      </trkpt>
      <trkpt lat="45.9038" lon="4.66987">
        <ele>414.04599</ele>
        <time>2022-08-23T14:00:43.000Z</time>
      </trkpt>
      <trkpt lat="45.90382" lon="4.66987">
        <ele>414.10913</ele>
        <time>2022-08-23T14:00:44.000Z</time>
      </trkpt>
      <trkpt lat="45.90385" lon="4.66988">
        <ele>414.16241</ele>
        <time>2022-08-23T14:00:45.000Z</time>
      </trkpt>
      <trkpt lat="45.90387" lon="4.66988">
        <ele>414.24854</ele>
        <time>2022-08-23T14:00:46.000Z</time>
      </trkpt>
      <trkpt lat="45.9039" lon="4.66988">
        <ele>414.25845</ele>
        <time>2022-08-23T14:00:47.000Z</time>
      </trkpt>
      <trkpt lat="45.90392" lon="4.66989">
        <ele>414.30792</ele>
        <time>2022-08-23T14:00:48.000Z</time>
      </trkpt>
      <trkpt lat="45.90395" lon="4.6699">
        <ele>414.43823</ele>
        <time>2022-08-23T14:00:49.000Z</time>
      </trkpt>
      <trkpt lat="45.90398" lon="4.66991">
        <ele>414.52792</ele>
        <time>2022-08-23T14:00:50.000Z</time>
      </trkpt>
      <trkpt lat="45.90401" lon="4.66991">
        <ele>414.66245</ele>
        <time>2022-08-23T14:00:51.000Z</time>
      </trkpt>
      <trkpt lat="45.90405" lon="4.66992">
        <ele>414.75116</ele>
        <time>2022-08-23T14:00:52.000Z</time>
      </trkpt>
      <trkpt lat="45.90408" lon="4.66993">
        <ele>414.86029</ele>
        <time>2022-08-23T14:00:53.000Z</time>
      </trkpt>
      <trkpt lat="45.90411" lon="4.66994">
        <ele>414.91763</ele>
        <time>2022-08-23T14:00:54.000Z</time>
      </trkpt>
      <trkpt lat="45.90414" lon="4.66996">
        <ele>414.87018</ele>
        <time>2022-08-23T14:00:55.000Z</time>
      </trkpt>
      <trkpt lat="45.90417" lon="4.66997">
        <ele>414.90811</ele>
        <time>2022-08-23T14:00:56.000Z</time>
      </trkpt>
      <trkpt lat="45.90419" lon="4.66998">
        <ele>414.97601</ele>
        <time>2022-08-23T14:00:57.000Z</time>
      </trkpt>
      <trkpt lat="45.90422" lon="4.67">
        <ele>415.06412</ele>
        <time>2022-08-23T14:00:58.000Z</time>
      </trkpt>
      <trkpt lat="45.90424" lon="4.67001">
        <ele>415.12836</ele>
        <time>2022-08-23T14:00:59.000Z</time>
      </trkpt>
      <trkpt lat="45.90427" lon="4.67003">
        <ele>415.10992</ele>
        <time>2022-08-23T14:01:00.000Z</time>
      </trkpt>
      <trkpt lat="45.90429" lon="4.67005">
        <ele>415.08124</ele>
        <time>2022-08-23T14:01:01.000Z</time>
      </trkpt>
      <trkpt lat="45.90432" lon="4.67006">
        <ele>415.01993</ele>
        <time>2022-08-23T14:01:02.000Z</time>
      </trkpt>
      <trkpt lat="45.90435" lon="4.67008">
        <ele>414.91537</ele>
        <time>2022-08-23T14:01:03.000Z</time>
      </trkpt>
      <trkpt lat="45.90437" lon="4.67011">
        <ele>414.83456</ele>
        <time>2022-08-23T14:01:04.000Z</time>
      </trkpt>
      <trkpt lat="45.9044" lon="4.67013">
        <ele>414.79697</ele>
        <time>2022-08-23T14:01:05.000Z</time>
      </trkpt>
      <trkpt lat="45.90443" lon="4.67015">
        <ele>414.71027</ele>
        <time>2022-08-23T14:01:06.000Z</time>
      </trkpt>
      <trkpt lat="45.90446" lon="4.67017">
        <ele>414.61212</ele>
        <time>2022-08-23T14:01:07.000Z</time>
      </trkpt>
      <trkpt lat="45.90452" lon="4.6702">
        <ele>414.57159</ele>
        <time>2022-08-23T14:01:09.000Z</time>
      </trkpt>
      <trkpt lat="45.9046" lon="4.67021">
        <ele>414.6059</ele>
        <time>2022-08-23T14:01:11.000Z</time>
      </trkpt>
      <trkpt lat="45.90463" lon="4.67022">
        <ele>414.52353</ele>
        <time>2022-08-23T14:01:12.000Z</time>
      </trkpt>
      <trkpt lat="45.90466" lon="4.67023">
        <ele>414.43243</ele>
        <time>2022-08-23T14:01:13.000Z</time>
      </trkpt>
      <trkpt lat="45.90475" lon="4.67023">
        <ele>414.25864</ele>
        <time>2022-08-23T14:01:15.000Z</time>
      </trkpt>
      <trkpt lat="45.90479" lon="4.67023">
        <ele>414.06754</ele>
        <time>2022-08-23T14:01:16.000Z</time>
      </trkpt>
      <trkpt lat="45.90484" lon="4.67023">
        <ele>413.80109</ele>
        <time>2022-08-23T14:01:17.000Z</time>
      </trkpt>
      <trkpt lat="45.90488" lon="4.67024">
        <ele>413.55411</ele>
        <time>2022-08-23T14:01:18.000Z</time>
      </trkpt>
      <trkpt lat="45.90494" lon="4.67024">
        <ele>413.33301</ele>
        <time>2022-08-23T14:01:19.000Z</time>
      </trkpt>
      <trkpt lat="45.90499" lon="4.67023">
        <ele>413.14502</ele>
        <time>2022-08-23T14:01:20.000Z</time>
      </trkpt>
      <trkpt lat="45.90504" lon="4.67023">
        <ele>412.931</ele>
        <time>2022-08-23T14:01:21.000Z</time>
      </trkpt>
      <trkpt lat="45.90508" lon="4.67023">
        <ele>412.67133</ele>
        <time>2022-08-23T14:01:22.000Z</time>
      </trkpt>
      <trkpt lat="45.90513" lon="4.67024">
        <ele>412.43695</ele>
        <time>2022-08-23T14:01:23.000Z</time>
      </trkpt>
      <trkpt lat="45.90518" lon="4.67024">
        <ele>412.23651</ele>
        <time>2022-08-23T14:01:24.000Z</time>
      </trkpt>
      <trkpt lat="45.90523" lon="4.67025">
        <ele>411.91226</ele>
        <time>2022-08-23T14:01:25.000Z</time>
      </trkpt>
      <trkpt lat="45.90527" lon="4.67026">
        <ele>411.54248</ele>
        <time>2022-08-23T14:01:26.000Z</time>
      </trkpt>
      <trkpt lat="45.90531" lon="4.67028">
        <ele>411.09503</ele>
        <time>2022-08-23T14:01:27.000Z</time>
      </trkpt>
      <trkpt lat="45.90534" lon="4.67029">
        <ele>410.62823</ele>
        <time>2022-08-23T14:01:28.000Z</time>
      </trkpt>
      <trkpt lat="45.90536" lon="4.6703">
        <ele>410.28281</ele>
        <time>2022-08-23T14:01:29.000Z</time>
      </trkpt>
      <trkpt lat="45.90539" lon="4.67029">
        <ele>409.94254</ele>
        <time>2022-08-23T14:01:30.000Z</time>
      </trkpt>
      <trkpt lat="45.90542" lon="4.67028">
        <ele>409.51782</ele>
        <time>2022-08-23T14:01:31.000Z</time>
      </trkpt>
      <trkpt lat="45.90545" lon="4.67027">
        <ele>409.05328</ele>
        <time>2022-08-23T14:01:32.000Z</time>
      </trkpt>
      <trkpt lat="45.90548" lon="4.67025">
        <ele>408.70804</ele>
        <time>2022-08-23T14:01:33.000Z</time>
      </trkpt>
      <trkpt lat="45.9055" lon="4.67022">
        <ele>408.36108</ele>
        <time>2022-08-23T14:01:34.000Z</time>
      </trkpt>
      <trkpt lat="45.90552" lon="4.6702">
        <ele>408.09579</ele>
        <time>2022-08-23T14:01:35.000Z</time>
      </trkpt>
      <trkpt lat="45.90553" lon="4.67016">
        <ele>407.80798</ele>
        <time>2022-08-23T14:01:37.000Z</time>
      </trkpt>
      <trkpt lat="45.90554" lon="4.67012">
        <ele>407.56973</ele>
        <time>2022-08-23T14:01:38.000Z</time>
      </trkpt>
      <trkpt lat="45.90555" lon="4.67008">
        <ele>407.32327</ele>
        <time>2022-08-23T14:01:39.000Z</time>
      </trkpt>
      <trkpt lat="45.90555" lon="4.67004">
        <ele>407.06744</ele>
        <time>2022-08-23T14:01:40.000Z</time>
      </trkpt>
      <trkpt lat="45.90555" lon="4.67001">
        <ele>406.8436</ele>
        <time>2022-08-23T14:01:41.000Z</time>
      </trkpt>
      <trkpt lat="45.90556" lon="4.66997">
        <ele>406.5513</ele>
        <time>2022-08-23T14:01:42.000Z</time>
      </trkpt>
      <trkpt lat="45.90557" lon="4.66992">
        <ele>406.25449</ele>
        <time>2022-08-23T14:01:43.000Z</time>
      </trkpt>
      <trkpt lat="45.90557" lon="4.66989">
        <ele>405.93134</ele>
        <time>2022-08-23T14:01:44.000Z</time>
      </trkpt>
      <trkpt lat="45.90556" lon="4.66984">
        <ele>405.46786</ele>
        <time>2022-08-23T14:01:45.000Z</time>
      </trkpt>
      <trkpt lat="45.90554" lon="4.6698">
        <ele>405.09491</ele>
        <time>2022-08-23T14:01:46.000Z</time>
      </trkpt>
      <trkpt lat="45.90553" lon="4.66976">
        <ele>404.77121</ele>
        <time>2022-08-23T14:01:47.000Z</time>
      </trkpt>
      <trkpt lat="45.90553" lon="4.66973">
        <ele>404.44534</ele>
        <time>2022-08-23T14:01:48.000Z</time>
      </trkpt>
      <trkpt lat="45.90553" lon="4.66969">
        <ele>404.17749</ele>
        <time>2022-08-23T14:01:49.000Z</time>
      </trkpt>
      <trkpt lat="45.90553" lon="4.66965">
        <ele>403.86523</ele>
        <time>2022-08-23T14:01:50.000Z</time>
      </trkpt>
      <trkpt lat="45.90554" lon="4.66961">
        <ele>403.57797</ele>
        <time>2022-08-23T14:01:51.000Z</time>
      </trkpt>
      <trkpt lat="45.90556" lon="4.66958">
        <ele>403.3233</ele>
        <time>2022-08-23T14:01:52.000Z</time>
      </trkpt>
      <trkpt lat="45.90558" lon="4.66955">
        <ele>403.03268</ele>
        <time>2022-08-23T14:01:53.000Z</time>
      </trkpt>
      <trkpt lat="45.9056" lon="4.66952">
        <ele>402.67316</ele>
        <time>2022-08-23T14:01:54.000Z</time>
      </trkpt>
      <trkpt lat="45.90561" lon="4.66949">
        <ele>402.28482</ele>
        <time>2022-08-23T14:01:55.000Z</time>
      </trkpt>
      <trkpt lat="45.90562" lon="4.66945">
        <ele>401.96252</ele>
        <time>2022-08-23T14:01:56.000Z</time>
      </trkpt>
      <trkpt lat="45.90563" lon="4.66941">
        <ele>401.58456</ele>
        <time>2022-08-23T14:01:57.000Z</time>
      </trkpt>
      <trkpt lat="45.90564" lon="4.66937">
        <ele>401.18497</ele>
        <time>2022-08-23T14:01:58.000Z</time>
      </trkpt>
      <trkpt lat="45.90566" lon="4.66935">
        <ele>400.84943</ele>
        <time>2022-08-23T14:01:59.000Z</time>
      </trkpt>
      <trkpt lat="45.90567" lon="4.66932">
        <ele>400.57797</ele>
        <time>2022-08-23T14:02:00.000Z</time>
      </trkpt>
      <trkpt lat="45.9057" lon="4.6693">
        <ele>400.19794</ele>
        <time>2022-08-23T14:02:01.000Z</time>
      </trkpt>
      <trkpt lat="45.90571" lon="4.66927">
        <ele>399.97958</ele>
        <time>2022-08-23T14:02:02.000Z</time>
      </trkpt>
      <trkpt lat="45.90574" lon="4.66923">
        <ele>399.85049</ele>
        <time>2022-08-23T14:02:03.000Z</time>
      </trkpt>
      <trkpt lat="45.90576" lon="4.6692">
        <ele>399.78452</ele>
        <time>2022-08-23T14:02:04.000Z</time>
      </trkpt>
      <trkpt lat="45.90579" lon="4.66917">
        <ele>399.73499</ele>
        <time>2022-08-23T14:02:06.000Z</time>
      </trkpt>
      <trkpt lat="45.90581" lon="4.66917">
        <ele>399.67484</ele>
        <time>2022-08-23T14:02:08.000Z</time>
      </trkpt>
      <trkpt lat="45.90582" lon="4.66912">
        <ele>399.72198</ele>
        <time>2022-08-23T14:02:11.000Z</time>
      </trkpt>
      <trkpt lat="45.90583" lon="4.66909">
        <ele>399.74402</ele>
        <time>2022-08-23T14:02:13.000Z</time>
      </trkpt>
      <trkpt lat="45.90585" lon="4.66906">
        <ele>399.6394</ele>
        <time>2022-08-23T14:02:15.000Z</time>
      </trkpt>
      <trkpt lat="45.90587" lon="4.66903">
        <ele>399.5784</ele>
        <time>2022-08-23T14:02:17.000Z</time>
      </trkpt>
      <trkpt lat="45.90588" lon="4.669">
        <ele>399.44022</ele>
        <time>2022-08-23T14:02:18.000Z</time>
      </trkpt>
      <trkpt lat="45.90589" lon="4.66898">
        <ele>399.31787</ele>
        <time>2022-08-23T14:02:19.000Z</time>
      </trkpt>
      <trkpt lat="45.9059" lon="4.66895">
        <ele>399.22672</ele>
        <time>2022-08-23T14:02:20.000Z</time>
      </trkpt>
      <trkpt lat="45.9059" lon="4.66892">
        <ele>399.23505</ele>
        <time>2022-08-23T14:02:21.000Z</time>
      </trkpt>
      <trkpt lat="45.90591" lon="4.66889">
        <ele>399.23621</ele>
        <time>2022-08-23T14:02:22.000Z</time>
      </trkpt>
      <trkpt lat="45.90591" lon="4.66885">
        <ele>399.1842</ele>
        <time>2022-08-23T14:02:23.000Z</time>
      </trkpt>
      <trkpt lat="45.90591" lon="4.66881">
        <ele>399.23151</ele>
        <time>2022-08-23T14:02:24.000Z</time>
      </trkpt>
      <trkpt lat="45.90591" lon="4.66878">
        <ele>399.23981</ele>
        <time>2022-08-23T14:02:25.000Z</time>
      </trkpt>
      <trkpt lat="45.90592" lon="4.66875">
        <ele>399.12274</ele>
        <time>2022-08-23T14:02:26.000Z</time>
      </trkpt>
      <trkpt lat="45.90592" lon="4.66872">
        <ele>398.93298</ele>
        <time>2022-08-23T14:02:27.000Z</time>
      </trkpt>
      <trkpt lat="45.90592" lon="4.66868">
        <ele>398.85251</ele>
        <time>2022-08-23T14:02:28.000Z</time>
      </trkpt>
      <trkpt lat="45.90593" lon="4.66864">
        <ele>398.71332</ele>
        <time>2022-08-23T14:02:29.000Z</time>
      </trkpt>
      <trkpt lat="45.90593" lon="4.66861">
        <ele>398.46613</ele>
        <time>2022-08-23T14:02:30.000Z</time>
      </trkpt>
      <trkpt lat="45.90593" lon="4.66856">
        <ele>398.10248</ele>
        <time>2022-08-23T14:02:31.000Z</time>
      </trkpt>
      <trkpt lat="45.90593" lon="4.66851">
        <ele>397.76855</ele>
        <time>2022-08-23T14:02:32.000Z</time>
      </trkpt>
      <trkpt lat="45.90593" lon="4.66846">
        <ele>397.40112</ele>
        <time>2022-08-23T14:02:33.000Z</time>
      </trkpt>
      <trkpt lat="45.90593" lon="4.66842">
        <ele>397.01459</ele>
        <time>2022-08-23T14:02:34.000Z</time>
      </trkpt>
      <trkpt lat="45.90594" lon="4.66839">
        <ele>396.68204</ele>
        <time>2022-08-23T14:02:35.000Z</time>
      </trkpt>
      <trkpt lat="45.90595" lon="4.66835">
        <ele>396.35706</ele>
        <time>2022-08-23T14:02:36.000Z</time>
      </trkpt>
      <trkpt lat="45.90595" lon="4.6683">
        <ele>395.98053</ele>
        <time>2022-08-23T14:02:37.000Z</time>
      </trkpt>
      <trkpt lat="45.90595" lon="4.66826">
        <ele>395.6073</ele>
        <time>2022-08-23T14:02:38.000Z</time>
      </trkpt>
      <trkpt lat="45.90596" lon="4.66823">
        <ele>395.31332</ele>
        <time>2022-08-23T14:02:40.000Z</time>
      </trkpt>
      <trkpt lat="45.90599" lon="4.66819">
        <ele>395.06348</ele>
        <time>2022-08-23T14:02:42.000Z</time>
      </trkpt>
      <trkpt lat="45.90601" lon="4.66818">
        <ele>394.82727</ele>
        <time>2022-08-23T14:02:43.000Z</time>
      </trkpt>
      <trkpt lat="45.90603" lon="4.66817">
        <ele>394.53778</ele>
        <time>2022-08-23T14:02:45.000Z</time>
      </trkpt>
      <trkpt lat="45.90602" lon="4.66816">
        <ele>394.40359</ele>
        <time>2022-08-23T14:03:02.000Z</time>
      </trkpt>
      <trkpt lat="45.90603" lon="4.66814">
        <ele>394.20282</ele>
        <time>2022-08-23T14:03:17.000Z</time>
      </trkpt>
      <trkpt lat="45.90603" lon="4.66811">
        <ele>394.12231</ele>
        <time>2022-08-23T14:03:18.000Z</time>
      </trkpt>
      <trkpt lat="45.90604" lon="4.66808">
        <ele>394.14862</ele>
        <time>2022-08-23T14:03:19.000Z</time>
      </trkpt>
      <trkpt lat="45.90605" lon="4.66803">
        <ele>394.18021</ele>
        <time>2022-08-23T14:03:21.000Z</time>
      </trkpt>
      <trkpt lat="45.90605" lon="4.66801">
        <ele>394.19904</ele>
        <time>2022-08-23T14:03:22.000Z</time>
      </trkpt>
      <trkpt lat="45.90606" lon="4.66798">
        <ele>394.23944</ele>
        <time>2022-08-23T14:03:23.000Z</time>
      </trkpt>
      <trkpt lat="45.90606" lon="4.66794">
        <ele>394.35129</ele>
        <time>2022-08-23T14:03:24.000Z</time>
      </trkpt>
      <trkpt lat="45.90607" lon="4.6679">
        <ele>394.44275</ele>
        <time>2022-08-23T14:03:25.000Z</time>
      </trkpt>
      <trkpt lat="45.90608" lon="4.66786">
        <ele>394.51395</ele>
        <time>2022-08-23T14:03:26.000Z</time>
      </trkpt>
      <trkpt lat="45.9061" lon="4.66782">
        <ele>394.64996</ele>
        <time>2022-08-23T14:03:27.000Z</time>
      </trkpt>
      <trkpt lat="45.90611" lon="4.66778">
        <ele>394.60638</ele>
        <time>2022-08-23T14:03:28.000Z</time>
      </trkpt>
      <trkpt lat="45.90612" lon="4.66773">
        <ele>394.43161</ele>
        <time>2022-08-23T14:03:29.000Z</time>
      </trkpt>
      <trkpt lat="45.90613" lon="4.66769">
        <ele>394.3233</ele>
        <time>2022-08-23T14:03:30.000Z</time>
      </trkpt>
      <trkpt lat="45.90615" lon="4.66767">
        <ele>394.23102</ele>
        <time>2022-08-23T14:03:31.000Z</time>
      </trkpt>
      <trkpt lat="45.90617" lon="4.66763">
        <ele>394.16794</ele>
        <time>2022-08-23T14:03:33.000Z</time>
      </trkpt>
      <trkpt lat="45.90619" lon="4.6676">
        <ele>394.00784</ele>
        <time>2022-08-23T14:03:34.000Z</time>
      </trkpt>
      <trkpt lat="45.9062" lon="4.66756">
        <ele>393.83856</ele>
        <time>2022-08-23T14:03:35.000Z</time>
      </trkpt>
      <trkpt lat="45.90621" lon="4.66753">
        <ele>393.57541</ele>
        <time>2022-08-23T14:03:36.000Z</time>
      </trkpt>
      <trkpt lat="45.90621" lon="4.6675">
        <ele>393.32324</ele>
        <time>2022-08-23T14:03:37.000Z</time>
      </trkpt>
      <trkpt lat="45.90621" lon="4.66746">
        <ele>392.98712</ele>
        <time>2022-08-23T14:03:38.000Z</time>
      </trkpt>
      <trkpt lat="45.90621" lon="4.66743">
        <ele>392.73846</ele>
        <time>2022-08-23T14:03:39.000Z</time>
      </trkpt>
      <trkpt lat="45.90622" lon="4.66739">
        <ele>392.45523</ele>
        <time>2022-08-23T14:03:40.000Z</time>
      </trkpt>
      <trkpt lat="45.90624" lon="4.66736">
        <ele>391.95648</ele>
        <time>2022-08-23T14:03:41.000Z</time>
      </trkpt>
      <trkpt lat="45.90625" lon="4.66735">
        <ele>391.38187</ele>
        <time>2022-08-23T14:03:42.000Z</time>
      </trkpt>
      <trkpt lat="45.90627" lon="4.66736">
        <ele>390.85327</ele>
        <time>2022-08-23T14:03:46.000Z</time>
      </trkpt>
      <trkpt lat="45.90628" lon="4.66739">
        <ele>390.3129</ele>
        <time>2022-08-23T14:03:48.000Z</time>
      </trkpt>
      <trkpt lat="45.90626" lon="4.66737">
        <ele>389.83444</ele>
        <time>2022-08-23T14:04:00.000Z</time>
      </trkpt>
      <trkpt lat="45.90626" lon="4.66732">
        <ele>389.48163</ele>
        <time>2022-08-23T14:04:03.000Z</time>
      </trkpt>
      <trkpt lat="45.90626" lon="4.66729">
        <ele>389.14044</ele>
        <time>2022-08-23T14:04:04.000Z</time>
      </trkpt>
      <trkpt lat="45.90625" lon="4.66725">
        <ele>388.82416</ele>
        <time>2022-08-23T14:04:06.000Z</time>
      </trkpt>
      <trkpt lat="45.90625" lon="4.66722">
        <ele>388.44839</ele>
        <time>2022-08-23T14:04:08.000Z</time>
      </trkpt>
      <trkpt lat="45.90625" lon="4.66718">
        <ele>388.18658</ele>
        <time>2022-08-23T14:04:10.000Z</time>
      </trkpt>
      <trkpt lat="45.90624" lon="4.66715">
        <ele>387.94843</ele>
        <time>2022-08-23T14:04:11.000Z</time>
      </trkpt>
      <trkpt lat="45.90625" lon="4.6671">
        <ele>387.65686</ele>
        <time>2022-08-23T14:04:13.000Z</time>
      </trkpt>
      <trkpt lat="45.90626" lon="4.66707">
        <ele>387.31058</ele>
        <time>2022-08-23T14:04:15.000Z</time>
      </trkpt>
      <trkpt lat="45.90625" lon="4.66704">
        <ele>386.80328</ele>
        <time>2022-08-23T14:04:16.000Z</time>
      </trkpt>
      <trkpt lat="45.90624" lon="4.66702">
        <ele>386.14703</ele>
        <time>2022-08-23T14:04:17.000Z</time>
      </trkpt>
      <trkpt lat="45.90622" lon="4.66698">
        <ele>385.4169</ele>
        <time>2022-08-23T14:04:19.000Z</time>
      </trkpt>
      <trkpt lat="45.9062" lon="4.66696">
        <ele>384.70624</ele>
        <time>2022-08-23T14:04:20.000Z</time>
      </trkpt>
      <trkpt lat="45.90619" lon="4.66695">
        <ele>383.85968</ele>
        <time>2022-08-23T14:04:21.000Z</time>
      </trkpt>
      <trkpt lat="45.90618" lon="4.66692">
        <ele>383.00433</ele>
        <time>2022-08-23T14:04:22.000Z</time>
      </trkpt>
      <trkpt lat="45.90616" lon="4.6669">
        <ele>382.14926</ele>
        <time>2022-08-23T14:04:23.000Z</time>
      </trkpt>
      <trkpt lat="45.90613" lon="4.66688">
        <ele>381.47711</ele>
        <time>2022-08-23T14:04:24.000Z</time>
      </trkpt>
      <trkpt lat="45.90611" lon="4.66685">
        <ele>380.83438</ele>
        <time>2022-08-23T14:04:25.000Z</time>
      </trkpt>
      <trkpt lat="45.9061" lon="4.66682">
        <ele>380.06516</ele>
        <time>2022-08-23T14:04:26.000Z</time>
      </trkpt>
      <trkpt lat="45.90609" lon="4.6668">
        <ele>379.19672</ele>
        <time>2022-08-23T14:04:27.000Z</time>
      </trkpt>
      <trkpt lat="45.90608" lon="4.66677">
        <ele>378.25949</ele>
        <time>2022-08-23T14:04:28.000Z</time>
      </trkpt>
      <trkpt lat="45.90607" lon="4.66674">
        <ele>377.36127</ele>
        <time>2022-08-23T14:04:29.000Z</time>
      </trkpt>
      <trkpt lat="45.90607" lon="4.6667">
        <ele>376.41818</ele>
        <time>2022-08-23T14:04:30.000Z</time>
      </trkpt>
      <trkpt lat="45.90606" lon="4.66667">
        <ele>375.43884</ele>
        <time>2022-08-23T14:04:31.000Z</time>
      </trkpt>
      <trkpt lat="45.90605" lon="4.66664">
        <ele>374.55719</ele>
        <time>2022-08-23T14:04:33.000Z</time>
      </trkpt>
      <trkpt lat="45.90604" lon="4.66661">
        <ele>373.82086</ele>
        <time>2022-08-23T14:04:41.000Z</time>
      </trkpt>
      <trkpt lat="45.90602" lon="4.66659">
        <ele>373.0314</ele>
        <time>2022-08-23T14:04:43.000Z</time>
      </trkpt>
      <trkpt lat="45.906" lon="4.66656">
        <ele>372.43237</ele>
        <time>2022-08-23T14:04:45.000Z</time>
      </trkpt>
      <trkpt lat="45.90598" lon="4.66654">
        <ele>371.92493</ele>
        <time>2022-08-23T14:04:46.000Z</time>
      </trkpt>
      <trkpt lat="45.90596" lon="4.66651">
        <ele>371.51974</ele>
        <time>2022-08-23T14:04:48.000Z</time>
      </trkpt>
      <trkpt lat="45.90593" lon="4.6665">
        <ele>371.1199</ele>
        <time>2022-08-23T14:04:50.000Z</time>
      </trkpt>
      <trkpt lat="45.90591" lon="4.66649">
        <ele>370.93253</ele>
        <time>2022-08-23T14:04:52.000Z</time>
      </trkpt>
      <trkpt lat="45.90591" lon="4.66643">
        <ele>370.79208</ele>
        <time>2022-08-23T14:04:54.000Z</time>
      </trkpt>
      <trkpt lat="45.90591" lon="4.66638">
        <ele>370.69501</ele>
        <time>2022-08-23T14:04:55.000Z</time>
      </trkpt>
      <trkpt lat="45.90591" lon="4.66632">
        <ele>370.64087</ele>
        <time>2022-08-23T14:04:56.000Z</time>
      </trkpt>
      <trkpt lat="45.90592" lon="4.66626">
        <ele>370.64404</ele>
        <time>2022-08-23T14:04:57.000Z</time>
      </trkpt>
      <trkpt lat="45.90592" lon="4.6662">
        <ele>370.46744</ele>
        <time>2022-08-23T14:04:58.000Z</time>
      </trkpt>
      <trkpt lat="45.90593" lon="4.66613">
        <ele>370.28018</ele>
        <time>2022-08-23T14:04:59.000Z</time>
      </trkpt>
      <trkpt lat="45.90593" lon="4.666">
        <ele>370.11987</ele>
        <time>2022-08-23T14:05:00.000Z</time>
      </trkpt>
      <trkpt lat="45.90593" lon="4.66592">
        <ele>370.03491</ele>
        <time>2022-08-23T14:05:01.000Z</time>
      </trkpt>
      <trkpt lat="45.90592" lon="4.66586">
        <ele>369.9205</ele>
        <time>2022-08-23T14:05:02.000Z</time>
      </trkpt>
      <trkpt lat="45.90589" lon="4.66579">
        <ele>369.74756</ele>
        <time>2022-08-23T14:05:03.000Z</time>
      </trkpt>
      <trkpt lat="45.90588" lon="4.66564">
        <ele>369.65692</ele>
        <time>2022-08-23T14:05:04.000Z</time>
      </trkpt>
      <trkpt lat="45.90589" lon="4.66555">
        <ele>369.63367</ele>
        <time>2022-08-23T14:05:05.000Z</time>
      </trkpt>
      <trkpt lat="45.90588" lon="4.66545">
        <ele>369.67279</ele>
        <time>2022-08-23T14:05:06.000Z</time>
      </trkpt>
      <trkpt lat="45.90589" lon="4.66538">
        <ele>369.70694</ele>
        <time>2022-08-23T14:05:07.000Z</time>
      </trkpt>
      <trkpt lat="45.90591" lon="4.66531">
        <ele>369.80035</ele>
        <time>2022-08-23T14:05:08.000Z</time>
      </trkpt>
      <trkpt lat="45.90589" lon="4.66525">
        <ele>369.70877</ele>
        <time>2022-08-23T14:05:09.000Z</time>
      </trkpt>
      <trkpt lat="45.9059" lon="4.66512">
        <ele>369.56903</ele>
        <time>2022-08-23T14:05:11.000Z</time>
      </trkpt>
      <trkpt lat="45.9059" lon="4.66506">
        <ele>369.49387</ele>
        <time>2022-08-23T14:05:12.000Z</time>
      </trkpt>
      <trkpt lat="45.90589" lon="4.665">
        <ele>369.52835</ele>
        <time>2022-08-23T14:05:13.000Z</time>
      </trkpt>
      <trkpt lat="45.90588" lon="4.66491">
        <ele>369.49963</ele>
        <time>2022-08-23T14:05:14.000Z</time>
      </trkpt>
      <trkpt lat="45.90588" lon="4.66478">
        <ele>369.45538</ele>
        <time>2022-08-23T14:05:15.000Z</time>
      </trkpt>
      <trkpt lat="45.90586" lon="4.66471">
        <ele>369.49243</ele>
        <time>2022-08-23T14:05:16.000Z</time>
      </trkpt>
      <trkpt lat="45.90585" lon="4.66466">
        <ele>369.41287</ele>
        <time>2022-08-23T14:05:17.000Z</time>
      </trkpt>
      <trkpt lat="45.90585" lon="4.66462">
        <ele>369.20871</ele>
        <time>2022-08-23T14:05:18.000Z</time>
      </trkpt>
      <trkpt lat="45.90583" lon="4.66453">
        <ele>369.2179</ele>
        <time>2022-08-23T14:05:19.000Z</time>
      </trkpt>
      <trkpt lat="45.90583" lon="4.66447">
        <ele>369.24042</ele>
        <time>2022-08-23T14:05:20.000Z</time>
      </trkpt>
      <trkpt lat="45.90583" lon="4.6644">
        <ele>369.25751</ele>
        <time>2022-08-23T14:05:21.000Z</time>
      </trkpt>
      <trkpt lat="45.90586" lon="4.66431">
        <ele>369.27792</ele>
        <time>2022-08-23T14:05:22.000Z</time>
      </trkpt>
      <trkpt lat="45.90583" lon="4.66422">
        <ele>369.37323</ele>
        <time>2022-08-23T14:05:23.000Z</time>
      </trkpt>
      <trkpt lat="45.90583" lon="4.66414">
        <ele>369.46683</ele>
        <time>2022-08-23T14:05:24.000Z</time>
      </trkpt>
      <trkpt lat="45.90583" lon="4.66411">
        <ele>369.55881</ele>
        <time>2022-08-23T14:05:25.000Z</time>
      </trkpt>
      <trkpt lat="45.90582" lon="4.664">
        <ele>369.60007</ele>
        <time>2022-08-23T14:05:26.000Z</time>
      </trkpt>
      <trkpt lat="45.90585" lon="4.66392">
        <ele>369.55612</ele>
        <time>2022-08-23T14:05:27.000Z</time>
      </trkpt>
      <trkpt lat="45.90585" lon="4.66389">
        <ele>369.30493</ele>
        <time>2022-08-23T14:05:28.000Z</time>
      </trkpt>
      <trkpt lat="45.90585" lon="4.66383">
        <ele>369.06052</ele>
        <time>2022-08-23T14:05:29.000Z</time>
      </trkpt>
      <trkpt lat="45.90582" lon="4.66378">
        <ele>368.77893</ele>
        <time>2022-08-23T14:05:30.000Z</time>
      </trkpt>
      <trkpt lat="45.90583" lon="4.66373">
        <ele>368.48798</ele>
        <time>2022-08-23T14:05:31.000Z</time>
      </trkpt>
      <trkpt lat="45.90582" lon="4.66365">
        <ele>368.1507</ele>
        <time>2022-08-23T14:05:32.000Z</time>
      </trkpt>
      <trkpt lat="45.90582" lon="4.66362">
        <ele>367.71436</ele>
        <time>2022-08-23T14:05:33.000Z</time>
      </trkpt>
      <trkpt lat="45.90581" lon="4.66358">
        <ele>367.27554</ele>
        <time>2022-08-23T14:05:34.000Z</time>
      </trkpt>
      <trkpt lat="45.90579" lon="4.6635">
        <ele>366.78397</ele>
        <time>2022-08-23T14:05:35.000Z</time>
      </trkpt>
      <trkpt lat="45.90578" lon="4.66346">
        <ele>366.1546</ele>
        <time>2022-08-23T14:05:37.000Z</time>
      </trkpt>
      <trkpt lat="45.90579" lon="4.66344">
        <ele>365.83963</ele>
        <time>2022-08-23T14:06:02.000Z</time>
      </trkpt>
      <trkpt lat="45.90579" lon="4.66339">
        <ele>365.58008</ele>
        <time>2022-08-23T14:06:28.000Z</time>
      </trkpt>
      <trkpt lat="45.90577" lon="4.66326">
        <ele>365.2261</ele>
        <time>2022-08-23T14:06:29.000Z</time>
      </trkpt>
      <trkpt lat="45.90576" lon="4.66321">
        <ele>364.82065</ele>
        <time>2022-08-23T14:06:30.000Z</time>
      </trkpt>
      <trkpt lat="45.90576" lon="4.66311">
        <ele>364.3945</ele>
        <time>2022-08-23T14:06:31.000Z</time>
      </trkpt>
      <trkpt lat="45.90576" lon="4.66301">
        <ele>363.82965</ele>
        <time>2022-08-23T14:06:32.000Z</time>
      </trkpt>
      <trkpt lat="45.90577" lon="4.6629">
        <ele>363.20175</ele>
        <time>2022-08-23T14:06:33.000Z</time>
      </trkpt>
      <trkpt lat="45.90574" lon="4.66281">
        <ele>362.61221</ele>
        <time>2022-08-23T14:06:34.000Z</time>
      </trkpt>
      <trkpt lat="45.90571" lon="4.66272">
        <ele>362.06714</ele>
        <time>2022-08-23T14:06:35.000Z</time>
      </trkpt>
      <trkpt lat="45.90572" lon="4.66262">
        <ele>361.44946</ele>
        <time>2022-08-23T14:06:36.000Z</time>
      </trkpt>
      <trkpt lat="45.90573" lon="4.66248">
        <ele>360.93951</ele>
        <time>2022-08-23T14:06:37.000Z</time>
      </trkpt>
      <trkpt lat="45.90577" lon="4.66236">
        <ele>360.62775</ele>
        <time>2022-08-23T14:06:38.000Z</time>
      </trkpt>
      <trkpt lat="45.9057" lon="4.66227">
        <ele>360.29199</ele>
        <time>2022-08-23T14:06:39.000Z</time>
      </trkpt>
      <trkpt lat="45.90569" lon="4.66214">
        <ele>360.00168</ele>
        <time>2022-08-23T14:06:40.000Z</time>
      </trkpt>
      <trkpt lat="45.90576" lon="4.66193">
        <ele>359.68268</ele>
        <time>2022-08-23T14:06:41.000Z</time>
      </trkpt>
      <trkpt lat="45.90577" lon="4.6618">
        <ele>359.31903</ele>
        <time>2022-08-23T14:06:42.000Z</time>
      </trkpt>
      <trkpt lat="45.90575" lon="4.66167">
        <ele>358.91058</ele>
        <time>2022-08-23T14:06:43.000Z</time>
      </trkpt>
      <trkpt lat="45.90576" lon="4.66153">
        <ele>358.38245</ele>
        <time>2022-08-23T14:06:44.000Z</time>
      </trkpt>
      <trkpt lat="45.90578" lon="4.66147">
        <ele>357.75134</ele>
        <time>2022-08-23T14:06:45.000Z</time>
      </trkpt>
      <trkpt lat="45.90577" lon="4.6614">
        <ele>357.20953</ele>
        <time>2022-08-23T14:06:46.000Z</time>
      </trkpt>
      <trkpt lat="45.90578" lon="4.66133">
        <ele>356.22482</ele>
        <time>2022-08-23T14:06:47.000Z</time>
      </trkpt>
      <trkpt lat="45.90578" lon="4.66127">
        <ele>355.25763</ele>
        <time>2022-08-23T14:06:48.000Z</time>
      </trkpt>
      <trkpt lat="45.9058" lon="4.66119">
        <ele>354.36615</ele>
        <time>2022-08-23T14:06:49.000Z</time>
      </trkpt>
      <trkpt lat="45.90579" lon="4.66113">
        <ele>353.50491</ele>
        <time>2022-08-23T14:06:50.000Z</time>
      </trkpt>
      <trkpt lat="45.90579" lon="4.66107">
        <ele>352.64459</ele>
        <time>2022-08-23T14:06:51.000Z</time>
      </trkpt>
      <trkpt lat="45.90579" lon="4.66098">
        <ele>351.87024</ele>
        <time>2022-08-23T14:06:52.000Z</time>
      </trkpt>
      <trkpt lat="45.90575" lon="4.66095">
        <ele>351.08807</ele>
        <time>2022-08-23T14:06:53.000Z</time>
      </trkpt>
      <trkpt lat="45.90573" lon="4.66091">
        <ele>350.18207</ele>
        <time>2022-08-23T14:06:54.000Z</time>
      </trkpt>
      <trkpt lat="45.90576" lon="4.66084">
        <ele>349.23853</ele>
        <time>2022-08-23T14:06:55.000Z</time>
      </trkpt>
      <trkpt lat="45.90579" lon="4.66078">
        <ele>348.34064</ele>
        <time>2022-08-23T14:06:56.000Z</time>
      </trkpt>
      <trkpt lat="45.90585" lon="4.66077">
        <ele>347.47269</ele>
        <time>2022-08-23T14:06:57.000Z</time>
      </trkpt>
      <trkpt lat="45.9059" lon="4.66074">
        <ele>346.50461</ele>
        <time>2022-08-23T14:06:58.000Z</time>
      </trkpt>
      <trkpt lat="45.90595" lon="4.66072">
        <ele>345.49957</ele>
        <time>2022-08-23T14:06:59.000Z</time>
      </trkpt>
      <trkpt lat="45.90599" lon="4.66069">
        <ele>344.48602</ele>
        <time>2022-08-23T14:07:00.000Z</time>
      </trkpt>
      <trkpt lat="45.90604" lon="4.66067">
        <ele>343.52307</ele>
        <time>2022-08-23T14:07:01.000Z</time>
      </trkpt>
      <trkpt lat="45.90611" lon="4.66062">
        <ele>342.57367</ele>
        <time>2022-08-23T14:07:02.000Z</time>
      </trkpt>
      <trkpt lat="45.90618" lon="4.66059">
        <ele>341.69714</ele>
        <time>2022-08-23T14:07:03.000Z</time>
      </trkpt>
      <trkpt lat="45.90625" lon="4.66054">
        <ele>340.93234</ele>
        <time>2022-08-23T14:07:04.000Z</time>
      </trkpt>
      <trkpt lat="45.90632" lon="4.66049">
        <ele>340.3103</ele>
        <time>2022-08-23T14:07:05.000Z</time>
      </trkpt>
      <trkpt lat="45.90638" lon="4.66044">
        <ele>339.61627</ele>
        <time>2022-08-23T14:07:06.000Z</time>
      </trkpt>
      <trkpt lat="45.90647" lon="4.6604">
        <ele>339.02353</ele>
        <time>2022-08-23T14:07:07.000Z</time>
      </trkpt>
      <trkpt lat="45.90654" lon="4.66035">
        <ele>338.38666</ele>
        <time>2022-08-23T14:07:08.000Z</time>
      </trkpt>
      <trkpt lat="45.90661" lon="4.66029">
        <ele>337.69958</ele>
        <time>2022-08-23T14:07:09.000Z</time>
      </trkpt>
      <trkpt lat="45.90669" lon="4.66023">
        <ele>337.06293</ele>
        <time>2022-08-23T14:07:10.000Z</time>
      </trkpt>
      <trkpt lat="45.90677" lon="4.66014">
        <ele>336.35223</ele>
        <time>2022-08-23T14:07:11.000Z</time>
      </trkpt>
      <trkpt lat="45.90683" lon="4.66006">
        <ele>335.63016</ele>
        <time>2022-08-23T14:07:12.000Z</time>
      </trkpt>
      <trkpt lat="45.90691" lon="4.66001">
        <ele>334.89966</ele>
        <time>2022-08-23T14:07:13.000Z</time>
      </trkpt>
      <trkpt lat="45.90699" lon="4.65996">
        <ele>334.27179</ele>
        <time>2022-08-23T14:07:14.000Z</time>
      </trkpt>
      <trkpt lat="45.90708" lon="4.65989">
        <ele>333.66766</ele>
        <time>2022-08-23T14:07:15.000Z</time>
      </trkpt>
      <trkpt lat="45.90718" lon="4.65985">
        <ele>333.08176</ele>
        <time>2022-08-23T14:07:16.000Z</time>
      </trkpt>
      <trkpt lat="45.90727" lon="4.65986">
        <ele>332.32889</ele>
        <time>2022-08-23T14:07:17.000Z</time>
      </trkpt>
      <trkpt lat="45.90736" lon="4.65983">
        <ele>331.53635</ele>
        <time>2022-08-23T14:07:18.000Z</time>
      </trkpt>
      <trkpt lat="45.90744" lon="4.65979">
        <ele>330.84109</ele>
        <time>2022-08-23T14:07:19.000Z</time>
      </trkpt>
      <trkpt lat="45.90752" lon="4.65978">
        <ele>330.15152</ele>
        <time>2022-08-23T14:07:20.000Z</time>
      </trkpt>
      <trkpt lat="45.90762" lon="4.65979">
        <ele>329.44763</ele>
        <time>2022-08-23T14:07:21.000Z</time>
      </trkpt>
      <trkpt lat="45.90769" lon="4.65978">
        <ele>328.76703</ele>
        <time>2022-08-23T14:07:22.000Z</time>
      </trkpt>
      <trkpt lat="45.90778" lon="4.65977">
        <ele>328.06879</ele>
        <time>2022-08-23T14:07:23.000Z</time>
      </trkpt>
      <trkpt lat="45.90786" lon="4.65974">
        <ele>327.32733</ele>
        <time>2022-08-23T14:07:24.000Z</time>
      </trkpt>
      <trkpt lat="45.90794" lon="4.6597">
        <ele>326.63348</ele>
        <time>2022-08-23T14:07:25.000Z</time>
      </trkpt>
      <trkpt lat="45.90801" lon="4.65966">
        <ele>326.0274</ele>
        <time>2022-08-23T14:07:26.000Z</time>
      </trkpt>
      <trkpt lat="45.90808" lon="4.65962">
        <ele>325.44733</ele>
        <time>2022-08-23T14:07:27.000Z</time>
      </trkpt>
      <trkpt lat="45.90813" lon="4.65955">
        <ele>324.88037</ele>
        <time>2022-08-23T14:07:28.000Z</time>
      </trkpt>
      <trkpt lat="45.90818" lon="4.65948">
        <ele>324.28479</ele>
        <time>2022-08-23T14:07:29.000Z</time>
      </trkpt>
      <trkpt lat="45.90824" lon="4.65942">
        <ele>323.69916</ele>
        <time>2022-08-23T14:07:30.000Z</time>
      </trkpt>
      <trkpt lat="45.90829" lon="4.65935">
        <ele>323.22137</ele>
        <time>2022-08-23T14:07:31.000Z</time>
      </trkpt>
      <trkpt lat="45.90835" lon="4.65931">
        <ele>322.811</ele>
        <time>2022-08-23T14:07:32.000Z</time>
      </trkpt>
      <trkpt lat="45.9084" lon="4.65925">
        <ele>322.39148</ele>
        <time>2022-08-23T14:07:33.000Z</time>
      </trkpt>
      <trkpt lat="45.90845" lon="4.65924">
        <ele>321.96637</ele>
        <time>2022-08-23T14:07:34.000Z</time>
      </trkpt>
      <trkpt lat="45.90849" lon="4.65921">
        <ele>321.48837</ele>
        <time>2022-08-23T14:07:35.000Z</time>
      </trkpt>
      <trkpt lat="45.90855" lon="4.65919">
        <ele>321.02347</ele>
        <time>2022-08-23T14:07:36.000Z</time>
      </trkpt>
      <trkpt lat="45.90859" lon="4.65918">
        <ele>320.64313</ele>
        <time>2022-08-23T14:07:37.000Z</time>
      </trkpt>
      <trkpt lat="45.90876" lon="4.65913">
        <ele>320.36935</ele>
        <time>2022-08-23T14:07:43.000Z</time>
      </trkpt>
      <trkpt lat="45.90879" lon="4.65912">
        <ele>320.08432</ele>
        <time>2022-08-23T14:07:44.000Z</time>
      </trkpt>
      <trkpt lat="45.90882" lon="4.6591">
        <ele>319.89191</ele>
        <time>2022-08-23T14:07:45.000Z</time>
      </trkpt>
      <trkpt lat="45.90884" lon="4.6591">
        <ele>319.73358</ele>
        <time>2022-08-23T14:07:46.000Z</time>
      </trkpt>
      <trkpt lat="45.90889" lon="4.6591">
        <ele>319.69794</ele>
        <time>2022-08-23T14:07:47.000Z</time>
      </trkpt>
      <trkpt lat="45.90891" lon="4.65908">
        <ele>319.69904</ele>
        <time>2022-08-23T14:07:48.000Z</time>
      </trkpt>
      <trkpt lat="45.90895" lon="4.65907">
        <ele>319.72171</ele>
        <time>2022-08-23T14:07:49.000Z</time>
      </trkpt>
      <trkpt lat="45.90897" lon="4.65906">
        <ele>319.67395</ele>
        <time>2022-08-23T14:07:50.000Z</time>
      </trkpt>
      <trkpt lat="45.909" lon="4.65905">
        <ele>319.59555</ele>
        <time>2022-08-23T14:07:51.000Z</time>
      </trkpt>
      <trkpt lat="45.90904" lon="4.65905">
        <ele>319.5444</ele>
        <time>2022-08-23T14:07:52.000Z</time>
      </trkpt>
      <trkpt lat="45.90907" lon="4.65904">
        <ele>319.5524</ele>
        <time>2022-08-23T14:07:53.000Z</time>
      </trkpt>
      <trkpt lat="45.9091" lon="4.65904">
        <ele>319.62918</ele>
        <time>2022-08-23T14:07:54.000Z</time>
      </trkpt>
      <trkpt lat="45.90914" lon="4.65904">
        <ele>319.63626</ele>
        <time>2022-08-23T14:07:55.000Z</time>
      </trkpt>
      <trkpt lat="45.90917" lon="4.65905">
        <ele>319.67987</ele>
        <time>2022-08-23T14:07:56.000Z</time>
      </trkpt>
      <trkpt lat="45.9092" lon="4.65904">
        <ele>319.71472</ele>
        <time>2022-08-23T14:07:57.000Z</time>
      </trkpt>
      <trkpt lat="45.90923" lon="4.65904">
        <ele>319.78223</ele>
        <time>2022-08-23T14:07:58.000Z</time>
      </trkpt>
      <trkpt lat="45.90926" lon="4.65904">
        <ele>319.86218</ele>
        <time>2022-08-23T14:07:59.000Z</time>
      </trkpt>
      <trkpt lat="45.9093" lon="4.65905">
        <ele>319.9884</ele>
        <time>2022-08-23T14:08:00.000Z</time>
      </trkpt>
      <trkpt lat="45.90933" lon="4.65907">
        <ele>320.05939</ele>
        <time>2022-08-23T14:08:01.000Z</time>
      </trkpt>
      <trkpt lat="45.90936" lon="4.65908">
        <ele>320.1619</ele>
        <time>2022-08-23T14:08:02.000Z</time>
      </trkpt>
      <trkpt lat="45.90938" lon="4.65909">
        <ele>320.19565</ele>
        <time>2022-08-23T14:08:03.000Z</time>
      </trkpt>
      <trkpt lat="45.90941" lon="4.65911">
        <ele>320.15753</ele>
        <time>2022-08-23T14:08:04.000Z</time>
      </trkpt>
      <trkpt lat="45.90944" lon="4.65911">
        <ele>320.06152</ele>
        <time>2022-08-23T14:08:05.000Z</time>
      </trkpt>
      <trkpt lat="45.90947" lon="4.65912">
        <ele>319.90649</ele>
        <time>2022-08-23T14:08:06.000Z</time>
      </trkpt>
      <trkpt lat="45.9095" lon="4.65912">
        <ele>319.73224</ele>
        <time>2022-08-23T14:08:07.000Z</time>
      </trkpt>
      <trkpt lat="45.90953" lon="4.65913">
        <ele>319.61948</ele>
        <time>2022-08-23T14:08:08.000Z</time>
      </trkpt>
      <trkpt lat="45.90956" lon="4.65914">
        <ele>319.53091</ele>
        <time>2022-08-23T14:08:09.000Z</time>
      </trkpt>
      <trkpt lat="45.90959" lon="4.65914">
        <ele>319.48123</ele>
        <time>2022-08-23T14:08:10.000Z</time>
      </trkpt>
      <trkpt lat="45.90962" lon="4.65914">
        <ele>319.44705</ele>
        <time>2022-08-23T14:08:11.000Z</time>
      </trkpt>
      <trkpt lat="45.90965" lon="4.65914">
        <ele>319.43533</ele>
        <time>2022-08-23T14:08:12.000Z</time>
      </trkpt>
      <trkpt lat="45.90967" lon="4.65914">
        <ele>319.40933</ele>
        <time>2022-08-23T14:08:13.000Z</time>
      </trkpt>
      <trkpt lat="45.9097" lon="4.65914">
        <ele>319.34686</ele>
        <time>2022-08-23T14:08:14.000Z</time>
      </trkpt>
      <trkpt lat="45.90974" lon="4.65914">
        <ele>319.38107</ele>
        <time>2022-08-23T14:08:15.000Z</time>
      </trkpt>
      <trkpt lat="45.90977" lon="4.65914">
        <ele>319.36139</ele>
        <time>2022-08-23T14:08:16.000Z</time>
      </trkpt>
      <trkpt lat="45.9098" lon="4.65915">
        <ele>319.3598</ele>
        <time>2022-08-23T14:08:17.000Z</time>
      </trkpt>
      <trkpt lat="45.90983" lon="4.65916">
        <ele>319.37384</ele>
        <time>2022-08-23T14:08:18.000Z</time>
      </trkpt>
      <trkpt lat="45.90986" lon="4.65917">
        <ele>319.33685</ele>
        <time>2022-08-23T14:08:19.000Z</time>
      </trkpt>
      <trkpt lat="45.90989" lon="4.65918">
        <ele>319.30292</ele>
        <time>2022-08-23T14:08:20.000Z</time>
      </trkpt>
      <trkpt lat="45.90992" lon="4.65918">
        <ele>319.35956</ele>
        <time>2022-08-23T14:08:21.000Z</time>
      </trkpt>
      <trkpt lat="45.90995" lon="4.65918">
        <ele>319.41888</ele>
        <time>2022-08-23T14:08:22.000Z</time>
      </trkpt>
      <trkpt lat="45.90998" lon="4.65918">
        <ele>319.47375</ele>
        <time>2022-08-23T14:08:23.000Z</time>
      </trkpt>
      <trkpt lat="45.91001" lon="4.65919">
        <ele>319.57208</ele>
        <time>2022-08-23T14:08:24.000Z</time>
      </trkpt>
      <trkpt lat="45.91004" lon="4.65918">
        <ele>319.72144</ele>
        <time>2022-08-23T14:08:25.000Z</time>
      </trkpt>
      <trkpt lat="45.91006" lon="4.65919">
        <ele>319.86392</ele>
        <time>2022-08-23T14:08:26.000Z</time>
      </trkpt>
      <trkpt lat="45.91009" lon="4.65918">
        <ele>319.97012</ele>
        <time>2022-08-23T14:08:27.000Z</time>
      </trkpt>
      <trkpt lat="45.91011" lon="4.65917">
        <ele>320.10455</ele>
        <time>2022-08-23T14:08:28.000Z</time>
      </trkpt>
      <trkpt lat="45.91014" lon="4.65914">
        <ele>320.26938</ele>
        <time>2022-08-23T14:08:29.000Z</time>
      </trkpt>
      <trkpt lat="45.91016" lon="4.6591">
        <ele>320.43271</ele>
        <time>2022-08-23T14:08:30.000Z</time>
      </trkpt>
      <trkpt lat="45.91018" lon="4.65906">
        <ele>320.64063</ele>
        <time>2022-08-23T14:08:31.000Z</time>
      </trkpt>
      <trkpt lat="45.9102" lon="4.65901">
        <ele>320.71982</ele>
        <time>2022-08-23T14:08:32.000Z</time>
      </trkpt>
      <trkpt lat="45.91022" lon="4.65896">
        <ele>320.76639</ele>
        <time>2022-08-23T14:08:33.000Z</time>
      </trkpt>
      <trkpt lat="45.91025" lon="4.65891">
        <ele>320.88004</ele>
        <time>2022-08-23T14:08:34.000Z</time>
      </trkpt>
      <trkpt lat="45.91027" lon="4.65885">
        <ele>320.95978</ele>
        <time>2022-08-23T14:08:35.000Z</time>
      </trkpt>
      <trkpt lat="45.91028" lon="4.65881">
        <ele>321.03003</ele>
        <time>2022-08-23T14:08:36.000Z</time>
      </trkpt>
      <trkpt lat="45.91029" lon="4.65877">
        <ele>321.08194</ele>
        <time>2022-08-23T14:08:37.000Z</time>
      </trkpt>
      <trkpt lat="45.91031" lon="4.65873">
        <ele>321.14728</ele>
        <time>2022-08-23T14:08:38.000Z</time>
      </trkpt>
      <trkpt lat="45.91032" lon="4.65869">
        <ele>321.23755</ele>
        <time>2022-08-23T14:08:39.000Z</time>
      </trkpt>
      <trkpt lat="45.91033" lon="4.65865">
        <ele>321.27441</ele>
        <time>2022-08-23T14:08:40.000Z</time>
      </trkpt>
      <trkpt lat="45.91035" lon="4.65862">
        <ele>321.28082</ele>
        <time>2022-08-23T14:08:41.000Z</time>
      </trkpt>
      <trkpt lat="45.91037" lon="4.65858">
        <ele>321.3075</ele>
        <time>2022-08-23T14:08:42.000Z</time>
      </trkpt>
      <trkpt lat="45.91038" lon="4.65854">
        <ele>321.30591</ele>
        <time>2022-08-23T14:08:43.000Z</time>
      </trkpt>
      <trkpt lat="45.9104" lon="4.6585">
        <ele>321.2861</ele>
        <time>2022-08-23T14:08:44.000Z</time>
      </trkpt>
      <trkpt lat="45.91042" lon="4.65845">
        <ele>321.17334</ele>
        <time>2022-08-23T14:08:45.000Z</time>
      </trkpt>
      <trkpt lat="45.91043" lon="4.6584">
        <ele>321.13358</ele>
        <time>2022-08-23T14:08:46.000Z</time>
      </trkpt>
      <trkpt lat="45.91045" lon="4.65836">
        <ele>321.09186</ele>
        <time>2022-08-23T14:08:47.000Z</time>
      </trkpt>
      <trkpt lat="45.91048" lon="4.65832">
        <ele>320.99634</ele>
        <time>2022-08-23T14:08:48.000Z</time>
      </trkpt>
      <trkpt lat="45.91052" lon="4.65828">
        <ele>320.87985</ele>
        <time>2022-08-23T14:08:49.000Z</time>
      </trkpt>
      <trkpt lat="45.91056" lon="4.65825">
        <ele>320.78943</ele>
        <time>2022-08-23T14:08:50.000Z</time>
      </trkpt>
      <trkpt lat="45.91059" lon="4.65822">
        <ele>320.6272</ele>
        <time>2022-08-23T14:08:51.000Z</time>
      </trkpt>
      <trkpt lat="45.91067" lon="4.65817">
        <ele>320.58502</ele>
        <time>2022-08-23T14:08:52.000Z</time>
      </trkpt>
      <trkpt lat="45.91073" lon="4.6582">
        <ele>320.63736</ele>
        <time>2022-08-23T14:08:54.000Z</time>
      </trkpt>
      <trkpt lat="45.91074" lon="4.65814">
        <ele>320.561</ele>
        <time>2022-08-23T14:08:55.000Z</time>
      </trkpt>
      <trkpt lat="45.91075" lon="4.6581">
        <ele>320.51721</ele>
        <time>2022-08-23T14:08:56.000Z</time>
      </trkpt>
      <trkpt lat="45.91081" lon="4.65809">
        <ele>320.5401</ele>
        <time>2022-08-23T14:08:57.000Z</time>
      </trkpt>
      <trkpt lat="45.91082" lon="4.65805">
        <ele>320.50424</ele>
        <time>2022-08-23T14:08:58.000Z</time>
      </trkpt>
      <trkpt lat="45.91081" lon="4.65801">
        <ele>320.30402</ele>
        <time>2022-08-23T14:08:59.000Z</time>
      </trkpt>
      <trkpt lat="45.91083" lon="4.65798">
        <ele>320.14398</ele>
        <time>2022-08-23T14:09:00.000Z</time>
      </trkpt>
      <trkpt lat="45.91087" lon="4.65794">
        <ele>320.02133</ele>
        <time>2022-08-23T14:09:01.000Z</time>
      </trkpt>
      <trkpt lat="45.91086" lon="4.6579">
        <ele>319.82254</ele>
        <time>2022-08-23T14:09:02.000Z</time>
      </trkpt>
      <trkpt lat="45.91089" lon="4.65785">
        <ele>319.5451</ele>
        <time>2022-08-23T14:09:03.000Z</time>
      </trkpt>
      <trkpt lat="45.91092" lon="4.65781">
        <ele>319.27014</ele>
        <time>2022-08-23T14:09:04.000Z</time>
      </trkpt>
      <trkpt lat="45.91095" lon="4.65776">
        <ele>318.9624</ele>
        <time>2022-08-23T14:09:05.000Z</time>
      </trkpt>
      <trkpt lat="45.91098" lon="4.65771">
        <ele>318.6835</ele>
        <time>2022-08-23T14:09:06.000Z</time>
      </trkpt>
      <trkpt lat="45.91101" lon="4.65766">
        <ele>318.38879</ele>
        <time>2022-08-23T14:09:07.000Z</time>
      </trkpt>
      <trkpt lat="45.91104" lon="4.65761">
        <ele>318.05817</ele>
        <time>2022-08-23T14:09:08.000Z</time>
      </trkpt>
      <trkpt lat="45.91106" lon="4.65756">
        <ele>317.68054</ele>
        <time>2022-08-23T14:09:09.000Z</time>
      </trkpt>
      <trkpt lat="45.91109" lon="4.65751">
        <ele>317.24176</ele>
        <time>2022-08-23T14:09:10.000Z</time>
      </trkpt>
      <trkpt lat="45.91112" lon="4.65746">
        <ele>316.70776</ele>
        <time>2022-08-23T14:09:11.000Z</time>
      </trkpt>
      <trkpt lat="45.91119" lon="4.65742">
        <ele>316.14999</ele>
        <time>2022-08-23T14:09:12.000Z</time>
      </trkpt>
      <trkpt lat="45.9112" lon="4.65737">
        <ele>315.58759</ele>
        <time>2022-08-23T14:09:13.000Z</time>
      </trkpt>
      <trkpt lat="45.91118" lon="4.6573">
        <ele>314.95563</ele>
        <time>2022-08-23T14:09:14.000Z</time>
      </trkpt>
      <trkpt lat="45.91117" lon="4.65723">
        <ele>314.36676</ele>
        <time>2022-08-23T14:09:15.000Z</time>
      </trkpt>
      <trkpt lat="45.91116" lon="4.65717">
        <ele>313.75031</ele>
        <time>2022-08-23T14:09:16.000Z</time>
      </trkpt>
      <trkpt lat="45.91112" lon="4.65713">
        <ele>313.10135</ele>
        <time>2022-08-23T14:09:17.000Z</time>
      </trkpt>
      <trkpt lat="45.91109" lon="4.65707">
        <ele>312.51242</ele>
        <time>2022-08-23T14:09:18.000Z</time>
      </trkpt>
      <trkpt lat="45.9111" lon="4.65698">
        <ele>312.10574</ele>
        <time>2022-08-23T14:09:19.000Z</time>
      </trkpt>
      <trkpt lat="45.91112" lon="4.65691">
        <ele>311.68149</ele>
        <time>2022-08-23T14:09:20.000Z</time>
      </trkpt>
      <trkpt lat="45.91112" lon="4.65688">
        <ele>311.15613</ele>
        <time>2022-08-23T14:09:21.000Z</time>
      </trkpt>
      <trkpt lat="45.91114" lon="4.6568">
        <ele>310.63367</ele>
        <time>2022-08-23T14:09:22.000Z</time>
      </trkpt>
      <trkpt lat="45.91116" lon="4.65673">
        <ele>310.48895</ele>
        <time>2022-08-23T14:09:23.000Z</time>
      </trkpt>
      <trkpt lat="45.91118" lon="4.65665">
        <ele>310.30325</ele>
        <time>2022-08-23T14:09:24.000Z</time>
      </trkpt>
      <trkpt lat="45.91122" lon="4.65658">
        <ele>310.15372</ele>
        <time>2022-08-23T14:09:25.000Z</time>
      </trkpt>
      <trkpt lat="45.91122" lon="4.65647">
        <ele>309.93729</ele>
        <time>2022-08-23T14:09:26.000Z</time>
      </trkpt>
      <trkpt lat="45.91125" lon="4.65638">
        <ele>309.74475</ele>
        <time>2022-08-23T14:09:27.000Z</time>
      </trkpt>
      <trkpt lat="45.91124" lon="4.65631">
        <ele>309.54309</ele>
        <time>2022-08-23T14:09:28.000Z</time>
      </trkpt>
      <trkpt lat="45.91127" lon="4.65623">
        <ele>309.40491</ele>
        <time>2022-08-23T14:09:29.000Z</time>
      </trkpt>
      <trkpt lat="45.91129" lon="4.65614">
        <ele>309.26752</ele>
        <time>2022-08-23T14:09:30.000Z</time>
      </trkpt>
      <trkpt lat="45.91132" lon="4.65609">
        <ele>309.19058</ele>
        <time>2022-08-23T14:09:31.000Z</time>
      </trkpt>
      <trkpt lat="45.91135" lon="4.65597">
        <ele>309.16714</ele>
        <time>2022-08-23T14:09:32.000Z</time>
      </trkpt>
      <trkpt lat="45.91136" lon="4.65592">
        <ele>309.16229</ele>
        <time>2022-08-23T14:09:33.000Z</time>
      </trkpt>
      <trkpt lat="45.91141" lon="4.65587">
        <ele>309.09988</ele>
        <time>2022-08-23T14:09:34.000Z</time>
      </trkpt>
      <trkpt lat="45.91146" lon="4.65583">
        <ele>308.98102</ele>
        <time>2022-08-23T14:09:35.000Z</time>
      </trkpt>
      <trkpt lat="45.91152" lon="4.65582">
        <ele>308.87057</ele>
        <time>2022-08-23T14:09:36.000Z</time>
      </trkpt>
      <trkpt lat="45.91152" lon="4.65575">
        <ele>308.70517</ele>
        <time>2022-08-23T14:09:37.000Z</time>
      </trkpt>
      <trkpt lat="45.91158" lon="4.65572">
        <ele>308.4079</ele>
        <time>2022-08-23T14:09:38.000Z</time>
      </trkpt>
      <trkpt lat="45.91161" lon="4.65568">
        <ele>308.06824</ele>
        <time>2022-08-23T14:09:39.000Z</time>
      </trkpt>
      <trkpt lat="45.91163" lon="4.65562">
        <ele>307.62085</ele>
        <time>2022-08-23T14:09:40.000Z</time>
      </trkpt>
      <trkpt lat="45.91165" lon="4.65558">
        <ele>307.21616</ele>
        <time>2022-08-23T14:09:41.000Z</time>
      </trkpt>
      <trkpt lat="45.91167" lon="4.65553">
        <ele>306.84149</ele>
        <time>2022-08-23T14:09:42.000Z</time>
      </trkpt>
      <trkpt lat="45.91168" lon="4.65549">
        <ele>306.15372</ele>
        <time>2022-08-23T14:09:43.000Z</time>
      </trkpt>
      <trkpt lat="45.9117" lon="4.65544">
        <ele>305.5246</ele>
        <time>2022-08-23T14:09:44.000Z</time>
      </trkpt>
      <trkpt lat="45.91172" lon="4.65539">
        <ele>304.91095</ele>
        <time>2022-08-23T14:09:45.000Z</time>
      </trkpt>
      <trkpt lat="45.91176" lon="4.65536">
        <ele>304.27359</ele>
        <time>2022-08-23T14:09:46.000Z</time>
      </trkpt>
      <trkpt lat="45.91177" lon="4.65531">
        <ele>303.57202</ele>
        <time>2022-08-23T14:09:47.000Z</time>
      </trkpt>
      <trkpt lat="45.91181" lon="4.65528">
        <ele>302.91946</ele>
        <time>2022-08-23T14:09:48.000Z</time>
      </trkpt>
      <trkpt lat="45.91185" lon="4.65525">
        <ele>302.2753</ele>
        <time>2022-08-23T14:09:49.000Z</time>
      </trkpt>
      <trkpt lat="45.91191" lon="4.65524">
        <ele>301.66592</ele>
        <time>2022-08-23T14:09:50.000Z</time>
      </trkpt>
      <trkpt lat="45.91197" lon="4.65523">
        <ele>301.01758</ele>
        <time>2022-08-23T14:09:51.000Z</time>
      </trkpt>
      <trkpt lat="45.91205" lon="4.65519">
        <ele>300.24634</ele>
        <time>2022-08-23T14:09:52.000Z</time>
      </trkpt>
      <trkpt lat="45.9121" lon="4.65518">
        <ele>299.40585</ele>
        <time>2022-08-23T14:09:53.000Z</time>
      </trkpt>
      <trkpt lat="45.91215" lon="4.6552">
        <ele>298.65826</ele>
        <time>2022-08-23T14:09:54.000Z</time>
      </trkpt>
      <trkpt lat="45.91221" lon="4.65522">
        <ele>297.9472</ele>
        <time>2022-08-23T14:09:55.000Z</time>
      </trkpt>
      <trkpt lat="45.91225" lon="4.65521">
        <ele>297.20532</ele>
        <time>2022-08-23T14:09:56.000Z</time>
      </trkpt>
      <trkpt lat="45.91231" lon="4.65524">
        <ele>296.4368</ele>
        <time>2022-08-23T14:09:57.000Z</time>
      </trkpt>
      <trkpt lat="45.91238" lon="4.6553">
        <ele>295.80157</ele>
        <time>2022-08-23T14:09:58.000Z</time>
      </trkpt>
      <trkpt lat="45.91241" lon="4.65525">
        <ele>295.20621</ele>
        <time>2022-08-23T14:09:59.000Z</time>
      </trkpt>
      <trkpt lat="45.91246" lon="4.65522">
        <ele>294.82578</ele>
        <time>2022-08-23T14:10:00.000Z</time>
      </trkpt>
      <trkpt lat="45.91251" lon="4.65519">
        <ele>294.57584</ele>
        <time>2022-08-23T14:10:01.000Z</time>
      </trkpt>
      <trkpt lat="45.91255" lon="4.6552">
        <ele>294.36615</ele>
        <time>2022-08-23T14:10:02.000Z</time>
      </trkpt>
      <trkpt lat="45.9126" lon="4.65523">
        <ele>294.2554</ele>
        <time>2022-08-23T14:10:03.000Z</time>
      </trkpt>
      <trkpt lat="45.91265" lon="4.65526">
        <ele>294.2128</ele>
        <time>2022-08-23T14:10:04.000Z</time>
      </trkpt>
      <trkpt lat="45.91269" lon="4.65529">
        <ele>294.08936</ele>
        <time>2022-08-23T14:10:05.000Z</time>
      </trkpt>
      <trkpt lat="45.91273" lon="4.65532">
        <ele>294.10117</ele>
        <time>2022-08-23T14:10:06.000Z</time>
      </trkpt>
      <trkpt lat="45.91276" lon="4.65535">
        <ele>294.15173</ele>
        <time>2022-08-23T14:10:07.000Z</time>
      </trkpt>
      <trkpt lat="45.91279" lon="4.65538">
        <ele>294.23615</ele>
        <time>2022-08-23T14:10:08.000Z</time>
      </trkpt>
      <trkpt lat="45.91283" lon="4.65542">
        <ele>294.30655</ele>
        <time>2022-08-23T14:10:09.000Z</time>
      </trkpt>
      <trkpt lat="45.91285" lon="4.65544">
        <ele>294.38181</ele>
        <time>2022-08-23T14:10:10.000Z</time>
      </trkpt>
      <trkpt lat="45.91288" lon="4.65545">
        <ele>294.51602</ele>
        <time>2022-08-23T14:10:11.000Z</time>
      </trkpt>
      <trkpt lat="45.91292" lon="4.65547">
        <ele>294.64774</ele>
        <time>2022-08-23T14:10:13.000Z</time>
      </trkpt>
      <trkpt lat="45.91295" lon="4.65548">
        <ele>294.86487</ele>
        <time>2022-08-23T14:10:14.000Z</time>
      </trkpt>
      <trkpt lat="45.91298" lon="4.65551">
        <ele>295.061</ele>
        <time>2022-08-23T14:10:15.000Z</time>
      </trkpt>
      <trkpt lat="45.913" lon="4.65552">
        <ele>295.27148</ele>
        <time>2022-08-23T14:10:16.000Z</time>
      </trkpt>
      <trkpt lat="45.91302" lon="4.65554">
        <ele>295.53601</ele>
        <time>2022-08-23T14:10:17.000Z</time>
      </trkpt>
      <trkpt lat="45.91305" lon="4.65555">
        <ele>295.85086</ele>
        <time>2022-08-23T14:10:18.000Z</time>
      </trkpt>
      <trkpt lat="45.91307" lon="4.65557">
        <ele>296.08289</ele>
        <time>2022-08-23T14:10:19.000Z</time>
      </trkpt>
      <trkpt lat="45.9131" lon="4.6556">
        <ele>296.29706</ele>
        <time>2022-08-23T14:10:20.000Z</time>
      </trkpt>
      <trkpt lat="45.91312" lon="4.65564">
        <ele>296.4231</ele>
        <time>2022-08-23T14:10:21.000Z</time>
      </trkpt>
      <trkpt lat="45.91314" lon="4.65568">
        <ele>296.41238</ele>
        <time>2022-08-23T14:10:22.000Z</time>
      </trkpt>
      <trkpt lat="45.91314" lon="4.65572">
        <ele>296.74298</ele>
        <time>2022-08-23T14:10:23.000Z</time>
      </trkpt>
      <trkpt lat="45.91315" lon="4.65577">
        <ele>296.89606</ele>
        <time>2022-08-23T14:10:24.000Z</time>
      </trkpt>
      <trkpt lat="45.91316" lon="4.65581">
        <ele>296.97882</ele>
        <time>2022-08-23T14:10:25.000Z</time>
      </trkpt>
      <trkpt lat="45.91316" lon="4.65585">
        <ele>297.13919</ele>
        <time>2022-08-23T14:10:26.000Z</time>
      </trkpt>
      <trkpt lat="45.91316" lon="4.65589">
        <ele>297.27374</ele>
        <time>2022-08-23T14:10:27.000Z</time>
      </trkpt>
      <trkpt lat="45.91316" lon="4.65592">
        <ele>297.362</ele>
        <time>2022-08-23T14:10:28.000Z</time>
      </trkpt>
      <trkpt lat="45.91316" lon="4.65596">
        <ele>297.42267</ele>
        <time>2022-08-23T14:10:29.000Z</time>
      </trkpt>
      <trkpt lat="45.91316" lon="4.656">
        <ele>297.40939</ele>
        <time>2022-08-23T14:10:30.000Z</time>
      </trkpt>
      <trkpt lat="45.91316" lon="4.65604">
        <ele>297.38535</ele>
        <time>2022-08-23T14:10:31.000Z</time>
      </trkpt>
      <trkpt lat="45.91316" lon="4.65607">
        <ele>297.35089</ele>
        <time>2022-08-23T14:10:32.000Z</time>
      </trkpt>
      <trkpt lat="45.91315" lon="4.6561">
        <ele>297.42462</ele>
        <time>2022-08-23T14:10:33.000Z</time>
      </trkpt>
      <trkpt lat="45.91315" lon="4.65613">
        <ele>297.5011</ele>
        <time>2022-08-23T14:10:34.000Z</time>
      </trkpt>
      <trkpt lat="45.91314" lon="4.65616">
        <ele>297.59711</ele>
        <time>2022-08-23T14:10:35.000Z</time>
      </trkpt>
      <trkpt lat="45.91313" lon="4.65618">
        <ele>297.74942</ele>
        <time>2022-08-23T14:10:36.000Z</time>
      </trkpt>
      <trkpt lat="45.91312" lon="4.65621">
        <ele>297.91373</ele>
        <time>2022-08-23T14:10:37.000Z</time>
      </trkpt>
      <trkpt lat="45.9131" lon="4.65623">
        <ele>298.07642</ele>
        <time>2022-08-23T14:10:38.000Z</time>
      </trkpt>
      <trkpt lat="45.91308" lon="4.65627">
        <ele>298.39282</ele>
        <time>2022-08-23T14:10:40.000Z</time>
      </trkpt>
      <trkpt lat="45.91306" lon="4.6563">
        <ele>298.73969</ele>
        <time>2022-08-23T14:10:42.000Z</time>
      </trkpt>
      <trkpt lat="45.91307" lon="4.65627">
        <ele>299.11517</ele>
        <time>2022-08-23T14:10:46.000Z</time>
      </trkpt>
      <trkpt lat="45.91307" lon="4.65624">
        <ele>299.53192</ele>
        <time>2022-08-23T14:10:53.000Z</time>
      </trkpt>
      <trkpt lat="45.91304" lon="4.65626">
        <ele>299.48495</ele>
        <time>2022-08-23T14:11:10.000Z</time>
      </trkpt>
      <trkpt lat="45.91302" lon="4.65627">
        <ele>299.49469</ele>
        <time>2022-08-23T14:11:11.000Z</time>
      </trkpt>
      <trkpt lat="45.91299" lon="4.65628">
        <ele>299.54706</ele>
        <time>2022-08-23T14:11:12.000Z</time>
      </trkpt>
      <trkpt lat="45.91297" lon="4.65629">
        <ele>299.54108</ele>
        <time>2022-08-23T14:11:13.000Z</time>
      </trkpt>
      <trkpt lat="45.91294" lon="4.6563">
        <ele>299.56522</ele>
        <time>2022-08-23T14:11:14.000Z</time>
      </trkpt>
      <trkpt lat="45.91291" lon="4.65631">
        <ele>299.71771</ele>
        <time>2022-08-23T14:11:15.000Z</time>
      </trkpt>
      <trkpt lat="45.91288" lon="4.65632">
        <ele>299.91519</ele>
        <time>2022-08-23T14:11:16.000Z</time>
      </trkpt>
      <trkpt lat="45.91286" lon="4.65634">
        <ele>300.14984</ele>
        <time>2022-08-23T14:11:17.000Z</time>
      </trkpt>
      <trkpt lat="45.91284" lon="4.65637">
        <ele>300.39832</ele>
        <time>2022-08-23T14:11:18.000Z</time>
      </trkpt>
      <trkpt lat="45.91284" lon="4.65641">
        <ele>300.63593</ele>
        <time>2022-08-23T14:11:19.000Z</time>
      </trkpt>
      <trkpt lat="45.91283" lon="4.65644">
        <ele>300.92474</ele>
        <time>2022-08-23T14:11:20.000Z</time>
      </trkpt>
      <trkpt lat="45.91283" lon="4.65648">
        <ele>301.2262</ele>
        <time>2022-08-23T14:11:21.000Z</time>
      </trkpt>
      <trkpt lat="45.91283" lon="4.65651">
        <ele>301.52679</ele>
        <time>2022-08-23T14:11:22.000Z</time>
      </trkpt>
      <trkpt lat="45.91282" lon="4.65654">
        <ele>301.87674</ele>
        <time>2022-08-23T14:11:23.000Z</time>
      </trkpt>
      <trkpt lat="45.91282" lon="4.65657">
        <ele>302.28412</ele>
        <time>2022-08-23T14:11:24.000Z</time>
      </trkpt>
      <trkpt lat="45.91282" lon="4.65662">
        <ele>302.81097</ele>
        <time>2022-08-23T14:11:55.000Z</time>
      </trkpt>
      <trkpt lat="45.91283" lon="4.65666">
        <ele>303.2464</ele>
        <time>2022-08-23T14:11:56.000Z</time>
      </trkpt>
      <trkpt lat="45.91283" lon="4.6567">
        <ele>303.74844</ele>
        <time>2022-08-23T14:11:57.000Z</time>
      </trkpt>
      <trkpt lat="45.91283" lon="4.65674">
        <ele>304.11945</ele>
        <time>2022-08-23T14:11:58.000Z</time>
      </trkpt>
      <trkpt lat="45.91283" lon="4.65679">
        <ele>304.47144</ele>
        <time>2022-08-23T14:11:59.000Z</time>
      </trkpt>
      <trkpt lat="45.91283" lon="4.65683">
        <ele>304.91614</ele>
        <time>2022-08-23T14:12:00.000Z</time>
      </trkpt>
      <trkpt lat="45.91284" lon="4.65687">
        <ele>305.31519</ele>
        <time>2022-08-23T14:12:01.000Z</time>
      </trkpt>
      <trkpt lat="45.91284" lon="4.65692">
        <ele>305.7796</ele>
        <time>2022-08-23T14:12:02.000Z</time>
      </trkpt>
      <trkpt lat="45.91283" lon="4.65697">
        <ele>306.36423</ele>
        <time>2022-08-23T14:12:03.000Z</time>
      </trkpt>
      <trkpt lat="45.91282" lon="4.65702">
        <ele>306.90802</ele>
        <time>2022-08-23T14:12:04.000Z</time>
      </trkpt>
      <trkpt lat="45.91282" lon="4.65706">
        <ele>307.34308</ele>
        <time>2022-08-23T14:12:05.000Z</time>
      </trkpt>
      <trkpt lat="45.91281" lon="4.65711">
        <ele>307.78577</ele>
        <time>2022-08-23T14:12:06.000Z</time>
      </trkpt>
      <trkpt lat="45.91281" lon="4.65715">
        <ele>308.24072</ele>
        <time>2022-08-23T14:12:07.000Z</time>
      </trkpt>
      <trkpt lat="45.9128" lon="4.65718">
        <ele>308.72656</ele>
        <time>2022-08-23T14:12:08.000Z</time>
      </trkpt>
      <trkpt lat="45.91281" lon="4.65722">
        <ele>309.26407</ele>
        <time>2022-08-23T14:12:09.000Z</time>
      </trkpt>
      <trkpt lat="45.91281" lon="4.65725">
        <ele>309.83786</ele>
        <time>2022-08-23T14:12:10.000Z</time>
      </trkpt>
      <trkpt lat="45.91281" lon="4.65728">
        <ele>310.35947</ele>
        <time>2022-08-23T14:12:11.000Z</time>
      </trkpt>
      <trkpt lat="45.91282" lon="4.65731">
        <ele>310.7677</ele>
        <time>2022-08-23T14:12:12.000Z</time>
      </trkpt>
      <trkpt lat="45.91283" lon="4.65735">
        <ele>311.06808</ele>
        <time>2022-08-23T14:12:13.000Z</time>
      </trkpt>
      <trkpt lat="45.91283" lon="4.6574">
        <ele>311.26584</ele>
        <time>2022-08-23T14:12:14.000Z</time>
      </trkpt>
      <trkpt lat="45.91284" lon="4.65745">
        <ele>311.33563</ele>
        <time>2022-08-23T14:12:15.000Z</time>
      </trkpt>
      <trkpt lat="45.91284" lon="4.6575">
        <ele>311.45169</ele>
        <time>2022-08-23T14:12:16.000Z</time>
      </trkpt>
      <trkpt lat="45.91283" lon="4.65754">
        <ele>311.51019</ele>
        <time>2022-08-23T14:12:17.000Z</time>
      </trkpt>
      <trkpt lat="45.91283" lon="4.65758">
        <ele>311.65927</ele>
        <time>2022-08-23T14:12:18.000Z</time>
      </trkpt>
      <trkpt lat="45.91283" lon="4.65762">
        <ele>311.7547</ele>
        <time>2022-08-23T14:12:19.000Z</time>
      </trkpt>
      <trkpt lat="45.91284" lon="4.65765">
        <ele>311.8801</ele>
        <time>2022-08-23T14:12:20.000Z</time>
      </trkpt>
      <trkpt lat="45.91285" lon="4.65768">
        <ele>312.18414</ele>
        <time>2022-08-23T14:12:21.000Z</time>
      </trkpt>
      <trkpt lat="45.91286" lon="4.65771">
        <ele>312.42914</ele>
        <time>2022-08-23T14:12:22.000Z</time>
      </trkpt>
      <trkpt lat="45.91286" lon="4.65774">
        <ele>312.64703</ele>
        <time>2022-08-23T14:12:23.000Z</time>
      </trkpt>
      <trkpt lat="45.91286" lon="4.65777">
        <ele>312.89352</ele>
        <time>2022-08-23T14:12:24.000Z</time>
      </trkpt>
      <trkpt lat="45.91286" lon="4.6578">
        <ele>313.13834</ele>
        <time>2022-08-23T14:12:25.000Z</time>
      </trkpt>
      <trkpt lat="45.91286" lon="4.65783">
        <ele>313.32043</ele>
        <time>2022-08-23T14:12:26.000Z</time>
      </trkpt>
      <trkpt lat="45.91286" lon="4.65786">
        <ele>313.53784</ele>
        <time>2022-08-23T14:12:27.000Z</time>
      </trkpt>
      <trkpt lat="45.91286" lon="4.6579">
        <ele>313.69406</ele>
        <time>2022-08-23T14:12:28.000Z</time>
      </trkpt>
      <trkpt lat="45.91286" lon="4.65794">
        <ele>313.84015</ele>
        <time>2022-08-23T14:12:29.000Z</time>
      </trkpt>
      <trkpt lat="45.91287" lon="4.65797">
        <ele>313.9921</ele>
        <time>2022-08-23T14:12:30.000Z</time>
      </trkpt>
      <trkpt lat="45.91287" lon="4.658">
        <ele>314.16309</ele>
        <time>2022-08-23T14:12:31.000Z</time>
      </trkpt>
      <trkpt lat="45.91287" lon="4.65804">
        <ele>314.32135</ele>
        <time>2022-08-23T14:12:33.000Z</time>
      </trkpt>
      <trkpt lat="45.91285" lon="4.65804">
        <ele>314.58743</ele>
        <time>2022-08-23T14:12:36.000Z</time>
      </trkpt>
      <trkpt lat="45.91283" lon="4.65803">
        <ele>314.86969</ele>
        <time>2022-08-23T14:12:40.000Z</time>
      </trkpt>
      <trkpt lat="45.91283" lon="4.65806">
        <ele>315.06628</ele>
        <time>2022-08-23T14:12:51.000Z</time>
      </trkpt>
      <trkpt lat="45.91283" lon="4.65809">
        <ele>315.15021</ele>
        <time>2022-08-23T14:12:52.000Z</time>
      </trkpt>
      <trkpt lat="45.91283" lon="4.65812">
        <ele>315.22296</ele>
        <time>2022-08-23T14:12:53.000Z</time>
      </trkpt>
      <trkpt lat="45.91283" lon="4.65815">
        <ele>315.18347</ele>
        <time>2022-08-23T14:12:54.000Z</time>
      </trkpt>
      <trkpt lat="45.91283" lon="4.65818">
        <ele>315.20297</ele>
        <time>2022-08-23T14:12:55.000Z</time>
      </trkpt>
      <trkpt lat="45.91284" lon="4.65821">
        <ele>315.20969</ele>
        <time>2022-08-23T14:12:56.000Z</time>
      </trkpt>
      <trkpt lat="45.91284" lon="4.65824">
        <ele>315.02979</ele>
        <time>2022-08-23T14:12:57.000Z</time>
      </trkpt>
      <trkpt lat="45.91284" lon="4.65827">
        <ele>314.77338</ele>
        <time>2022-08-23T14:12:58.000Z</time>
      </trkpt>
      <trkpt lat="45.91284" lon="4.65832">
        <ele>314.52472</ele>
        <time>2022-08-23T14:13:00.000Z</time>
      </trkpt>
      <trkpt lat="45.91284" lon="4.65835">
        <ele>314.21591</ele>
        <time>2022-08-23T14:13:01.000Z</time>
      </trkpt>
      <trkpt lat="45.91285" lon="4.65838">
        <ele>313.91495</ele>
        <time>2022-08-23T14:13:02.000Z</time>
      </trkpt>
      <trkpt lat="45.91285" lon="4.65841">
        <ele>313.71152</ele>
        <time>2022-08-23T14:13:04.000Z</time>
      </trkpt>
      <trkpt lat="45.91286" lon="4.65846">
        <ele>313.43567</ele>
        <time>2022-08-23T14:13:06.000Z</time>
      </trkpt>
      <trkpt lat="45.91286" lon="4.65849">
        <ele>313.19183</ele>
        <time>2022-08-23T14:13:07.000Z</time>
      </trkpt>
      <trkpt lat="45.91287" lon="4.65853">
        <ele>313.03366</ele>
        <time>2022-08-23T14:13:09.000Z</time>
      </trkpt>
      <trkpt lat="45.91287" lon="4.65857">
        <ele>312.86246</ele>
        <time>2022-08-23T14:13:11.000Z</time>
      </trkpt>
      <trkpt lat="45.91287" lon="4.65862">
        <ele>312.72638</ele>
        <time>2022-08-23T14:13:13.000Z</time>
      </trkpt>
      <trkpt lat="45.91286" lon="4.65867">
        <ele>312.78598</ele>
        <time>2022-08-23T14:13:15.000Z</time>
      </trkpt>
      <trkpt lat="45.91286" lon="4.65871">
        <ele>312.78619</ele>
        <time>2022-08-23T14:13:17.000Z</time>
      </trkpt>
      <trkpt lat="45.91286" lon="4.65875">
        <ele>312.83414</ele>
        <time>2022-08-23T14:13:19.000Z</time>
      </trkpt>
      <trkpt lat="45.91286" lon="4.6588">
        <ele>313.0246</ele>
        <time>2022-08-23T14:13:21.000Z</time>
      </trkpt>
      <trkpt lat="45.91286" lon="4.65882">
        <ele>313.27243</ele>
        <time>2022-08-23T14:13:22.000Z</time>
      </trkpt>
      <trkpt lat="45.91286" lon="4.65887">
        <ele>313.4599</ele>
        <time>2022-08-23T14:13:24.000Z</time>
      </trkpt>
      <trkpt lat="45.91286" lon="4.65891">
        <ele>313.76056</ele>
        <time>2022-08-23T14:13:26.000Z</time>
      </trkpt>
      <trkpt lat="45.91287" lon="4.65895">
        <ele>314.10257</ele>
        <time>2022-08-23T14:13:28.000Z</time>
      </trkpt>
      <trkpt lat="45.91287" lon="4.65899">
        <ele>314.38901</ele>
        <time>2022-08-23T14:13:30.000Z</time>
      </trkpt>
      <trkpt lat="45.91288" lon="4.65903">
        <ele>314.75302</ele>
        <time>2022-08-23T14:13:32.000Z</time>
      </trkpt>
      <trkpt lat="45.91288" lon="4.65907">
        <ele>315.16351</ele>
        <time>2022-08-23T14:13:34.000Z</time>
      </trkpt>
      <trkpt lat="45.91288" lon="4.65912">
        <ele>315.48438</ele>
        <time>2022-08-23T14:13:36.000Z</time>
      </trkpt>
      <trkpt lat="45.91289" lon="4.65916">
        <ele>315.87518</ele>
        <time>2022-08-23T14:13:38.000Z</time>
      </trkpt>
      <trkpt lat="45.9129" lon="4.6592">
        <ele>316.37451</ele>
        <time>2022-08-23T14:13:40.000Z</time>
      </trkpt>
      <trkpt lat="45.9129" lon="4.65923">
        <ele>316.82056</ele>
        <time>2022-08-23T14:13:42.000Z</time>
      </trkpt>
      <trkpt lat="45.9129" lon="4.65926">
        <ele>317.30203</ele>
        <time>2022-08-23T14:13:44.000Z</time>
      </trkpt>
      <trkpt lat="45.91291" lon="4.6593">
        <ele>317.68823</ele>
        <time>2022-08-23T14:13:47.000Z</time>
      </trkpt>
      <trkpt lat="45.91293" lon="4.65931">
        <ele>318.10568</ele>
        <time>2022-08-23T14:13:50.000Z</time>
      </trkpt>
      <trkpt lat="45.91295" lon="4.65929">
        <ele>318.50323</ele>
        <time>2022-08-23T14:13:54.000Z</time>
      </trkpt>
      <trkpt lat="45.91297" lon="4.65928">
        <ele>318.86722</ele>
        <time>2022-08-23T14:13:56.000Z</time>
      </trkpt>
      <trkpt lat="45.91301" lon="4.65929">
        <ele>319.08591</ele>
        <time>2022-08-23T14:13:58.000Z</time>
      </trkpt>
      <trkpt lat="45.91303" lon="4.65929">
        <ele>319.28751</ele>
        <time>2022-08-23T14:13:59.000Z</time>
      </trkpt>
      <trkpt lat="45.91305" lon="4.6593">
        <ele>319.414</ele>
        <time>2022-08-23T14:14:00.000Z</time>
      </trkpt>
      <trkpt lat="45.91307" lon="4.6593">
        <ele>319.52826</ele>
        <time>2022-08-23T14:14:01.000Z</time>
      </trkpt>
      <trkpt lat="45.91309" lon="4.6593">
        <ele>319.61618</ele>
        <time>2022-08-23T14:14:02.000Z</time>
      </trkpt>
      <trkpt lat="45.91311" lon="4.6593">
        <ele>319.70761</ele>
        <time>2022-08-23T14:14:03.000Z</time>
      </trkpt>
      <trkpt lat="45.91314" lon="4.6593">
        <ele>319.82318</ele>
        <time>2022-08-23T14:14:04.000Z</time>
      </trkpt>
      <trkpt lat="45.91316" lon="4.65929">
        <ele>319.94061</ele>
        <time>2022-08-23T14:14:05.000Z</time>
      </trkpt>
      <trkpt lat="45.91318" lon="4.65929">
        <ele>320.15195</ele>
        <time>2022-08-23T14:14:06.000Z</time>
      </trkpt>
      <trkpt lat="45.9132" lon="4.65928">
        <ele>320.3475</ele>
        <time>2022-08-23T14:14:07.000Z</time>
      </trkpt>
      <trkpt lat="45.91323" lon="4.65928">
        <ele>320.50031</ele>
        <time>2022-08-23T14:14:08.000Z</time>
      </trkpt>
      <trkpt lat="45.91325" lon="4.65928">
        <ele>320.68082</ele>
        <time>2022-08-23T14:14:09.000Z</time>
      </trkpt>
      <trkpt lat="45.91327" lon="4.65928">
        <ele>320.76089</ele>
        <time>2022-08-23T14:14:10.000Z</time>
      </trkpt>
      <trkpt lat="45.9133" lon="4.65929">
        <ele>320.76312</ele>
        <time>2022-08-23T14:14:11.000Z</time>
      </trkpt>
      <trkpt lat="45.91333" lon="4.65929">
        <ele>320.71848</ele>
        <time>2022-08-23T14:14:12.000Z</time>
      </trkpt>
      <trkpt lat="45.91335" lon="4.65929">
        <ele>320.74585</ele>
        <time>2022-08-23T14:14:13.000Z</time>
      </trkpt>
      <trkpt lat="45.91337" lon="4.65929">
        <ele>320.86002</ele>
        <time>2022-08-23T14:14:14.000Z</time>
      </trkpt>
      <trkpt lat="45.9134" lon="4.65929">
        <ele>320.79584</ele>
        <time>2022-08-23T14:14:15.000Z</time>
      </trkpt>
      <trkpt lat="45.91342" lon="4.65928">
        <ele>320.65543</ele>
        <time>2022-08-23T14:14:16.000Z</time>
      </trkpt>
      <trkpt lat="45.91344" lon="4.65928">
        <ele>320.51514</ele>
        <time>2022-08-23T14:14:17.000Z</time>
      </trkpt>
      <trkpt lat="45.91346" lon="4.65927">
        <ele>320.38779</ele>
        <time>2022-08-23T14:14:18.000Z</time>
      </trkpt>
      <trkpt lat="45.91348" lon="4.65927">
        <ele>320.26553</ele>
        <time>2022-08-23T14:14:19.000Z</time>
      </trkpt>
      <trkpt lat="45.9135" lon="4.65926">
        <ele>320.11798</ele>
        <time>2022-08-23T14:14:20.000Z</time>
      </trkpt>
      <trkpt lat="45.91353" lon="4.65926">
        <ele>319.99829</ele>
        <time>2022-08-23T14:14:21.000Z</time>
      </trkpt>
      <trkpt lat="45.91355" lon="4.65925">
        <ele>319.9874</ele>
        <time>2022-08-23T14:14:22.000Z</time>
      </trkpt>
      <trkpt lat="45.91358" lon="4.65925">
        <ele>319.9874</ele>
        <time>2022-08-23T14:14:23.000Z</time>
      </trkpt>
      <trkpt lat="45.91361" lon="4.65926">
        <ele>319.91119</ele>
        <time>2022-08-23T14:14:24.000Z</time>
      </trkpt>
      <trkpt lat="45.91363" lon="4.65927">
        <ele>319.81778</ele>
        <time>2022-08-23T14:14:25.000Z</time>
      </trkpt>
      <trkpt lat="45.91365" lon="4.65928">
        <ele>319.62881</ele>
        <time>2022-08-23T14:14:26.000Z</time>
      </trkpt>
      <trkpt lat="45.91368" lon="4.65931">
        <ele>319.37061</ele>
        <time>2022-08-23T14:14:27.000Z</time>
      </trkpt>
      <trkpt lat="45.9137" lon="4.65934">
        <ele>319.12119</ele>
        <time>2022-08-23T14:14:28.000Z</time>
      </trkpt>
      <trkpt lat="45.91371" lon="4.65937">
        <ele>318.88922</ele>
        <time>2022-08-23T14:14:29.000Z</time>
      </trkpt>
      <trkpt lat="45.91372" lon="4.6594">
        <ele>318.75314</ele>
        <time>2022-08-23T14:14:30.000Z</time>
      </trkpt>
      <trkpt lat="45.91373" lon="4.65943">
        <ele>318.6412</ele>
        <time>2022-08-23T14:14:31.000Z</time>
      </trkpt>
      <trkpt lat="45.91374" lon="4.65947">
        <ele>318.57648</ele>
        <time>2022-08-23T14:14:32.000Z</time>
      </trkpt>
      <trkpt lat="45.91375" lon="4.6595">
        <ele>318.46661</ele>
        <time>2022-08-23T14:14:33.000Z</time>
      </trkpt>
      <trkpt lat="45.91375" lon="4.65952">
        <ele>318.35617</ele>
        <time>2022-08-23T14:14:34.000Z</time>
      </trkpt>
      <trkpt lat="45.91376" lon="4.65957">
        <ele>318.31036</ele>
        <time>2022-08-23T14:14:36.000Z</time>
      </trkpt>
      <trkpt lat="45.91378" lon="4.65959">
        <ele>318.31717</ele>
        <time>2022-08-23T14:14:37.000Z</time>
      </trkpt>
      <trkpt lat="45.91379" lon="4.65961">
        <ele>318.28046</ele>
        <time>2022-08-23T14:14:38.000Z</time>
      </trkpt>
      <trkpt lat="45.91381" lon="4.65962">
        <ele>318.2576</ele>
        <time>2022-08-23T14:14:39.000Z</time>
      </trkpt>
      <trkpt lat="45.91384" lon="4.65963">
        <ele>318.20901</ele>
        <time>2022-08-23T14:14:41.000Z</time>
      </trkpt>
      <trkpt lat="45.91387" lon="4.65964">
        <ele>318.21655</ele>
        <time>2022-08-23T14:14:42.000Z</time>
      </trkpt>
      <trkpt lat="45.91389" lon="4.65965">
        <ele>318.17877</ele>
        <time>2022-08-23T14:14:43.000Z</time>
      </trkpt>
      <trkpt lat="45.91391" lon="4.65967">
        <ele>318.18915</ele>
        <time>2022-08-23T14:14:45.000Z</time>
      </trkpt>
      <trkpt lat="45.91393" lon="4.65972">
        <ele>318.14581</ele>
        <time>2022-08-23T14:14:47.000Z</time>
      </trkpt>
      <trkpt lat="45.91394" lon="4.65975">
        <ele>318.11725</ele>
        <time>2022-08-23T14:14:48.000Z</time>
      </trkpt>
      <trkpt lat="45.91394" lon="4.65978">
        <ele>318.21072</ele>
        <time>2022-08-23T14:14:49.000Z</time>
      </trkpt>
      <trkpt lat="45.91394" lon="4.65981">
        <ele>318.36133</ele>
        <time>2022-08-23T14:14:50.000Z</time>
      </trkpt>
      <trkpt lat="45.91393" lon="4.65984">
        <ele>318.65341</ele>
        <time>2022-08-23T14:14:51.000Z</time>
      </trkpt>
      <trkpt lat="45.91392" lon="4.65986">
        <ele>318.92804</ele>
        <time>2022-08-23T14:14:52.000Z</time>
      </trkpt>
      <trkpt lat="45.91392" lon="4.65989">
        <ele>319.16531</ele>
        <time>2022-08-23T14:14:53.000Z</time>
      </trkpt>
      <trkpt lat="45.91391" lon="4.65992">
        <ele>319.42474</ele>
        <time>2022-08-23T14:14:54.000Z</time>
      </trkpt>
      <trkpt lat="45.91391" lon="4.65995">
        <ele>319.63376</ele>
        <time>2022-08-23T14:14:55.000Z</time>
      </trkpt>
      <trkpt lat="45.91391" lon="4.65998">
        <ele>319.84631</ele>
        <time>2022-08-23T14:14:56.000Z</time>
      </trkpt>
      <trkpt lat="45.91391" lon="4.66001">
        <ele>320.09604</ele>
        <time>2022-08-23T14:14:57.000Z</time>
      </trkpt>
      <trkpt lat="45.91391" lon="4.66003">
        <ele>320.34485</ele>
        <time>2022-08-23T14:14:58.000Z</time>
      </trkpt>
      <trkpt lat="45.91391" lon="4.66006">
        <ele>320.60873</ele>
        <time>2022-08-23T14:15:00.000Z</time>
      </trkpt>
      <trkpt lat="45.91391" lon="4.66009">
        <ele>320.80853</ele>
        <time>2022-08-23T14:15:04.000Z</time>
      </trkpt>
      <trkpt lat="45.91391" lon="4.66012">
        <ele>321.10309</ele>
        <time>2022-08-23T14:15:06.000Z</time>
      </trkpt>
      <trkpt lat="45.91391" lon="4.66016">
        <ele>321.35388</ele>
        <time>2022-08-23T14:15:08.000Z</time>
      </trkpt>
      <trkpt lat="45.91391" lon="4.6602">
        <ele>321.63971</ele>
        <time>2022-08-23T14:15:10.000Z</time>
      </trkpt>
      <trkpt lat="45.9139" lon="4.66023">
        <ele>321.98413</ele>
        <time>2022-08-23T14:15:19.000Z</time>
      </trkpt>
      <trkpt lat="45.9139" lon="4.66027">
        <ele>322.29736</ele>
        <time>2022-08-23T14:15:31.000Z</time>
      </trkpt>
      <trkpt lat="45.9139" lon="4.66032">
        <ele>322.62292</ele>
        <time>2022-08-23T14:15:33.000Z</time>
      </trkpt>
      <trkpt lat="45.91389" lon="4.66036">
        <ele>323.0733</ele>
        <time>2022-08-23T14:15:35.000Z</time>
      </trkpt>
      <trkpt lat="45.9139" lon="4.66041">
        <ele>323.69336</ele>
        <time>2022-08-23T14:15:37.000Z</time>
      </trkpt>
      <trkpt lat="45.91389" lon="4.66045">
        <ele>324.23978</ele>
        <time>2022-08-23T14:15:39.000Z</time>
      </trkpt>
      <trkpt lat="45.91389" lon="4.66049">
        <ele>324.76309</ele>
        <time>2022-08-23T14:15:41.000Z</time>
      </trkpt>
      <trkpt lat="45.91389" lon="4.66053">
        <ele>325.20984</ele>
        <time>2022-08-23T14:15:43.000Z</time>
      </trkpt>
      <trkpt lat="45.9139" lon="4.66057">
        <ele>325.72119</ele>
        <time>2022-08-23T14:15:45.000Z</time>
      </trkpt>
      <trkpt lat="45.9139" lon="4.66061">
        <ele>326.34189</ele>
        <time>2022-08-23T14:15:47.000Z</time>
      </trkpt>
      <trkpt lat="45.9139" lon="4.66065">
        <ele>326.84109</ele>
        <time>2022-08-23T14:15:49.000Z</time>
      </trkpt>
      <trkpt lat="45.9139" lon="4.66069">
        <ele>327.46579</ele>
        <time>2022-08-23T14:15:51.000Z</time>
      </trkpt>
      <trkpt lat="45.9139" lon="4.66072">
        <ele>327.9921</ele>
        <time>2022-08-23T14:15:52.000Z</time>
      </trkpt>
      <trkpt lat="45.9139" lon="4.66075">
        <ele>328.50803</ele>
        <time>2022-08-23T14:15:53.000Z</time>
      </trkpt>
      <trkpt lat="45.9139" lon="4.66079">
        <ele>329.10867</ele>
        <time>2022-08-23T14:15:55.000Z</time>
      </trkpt>
      <trkpt lat="45.91391" lon="4.66083">
        <ele>329.71429</ele>
        <time>2022-08-23T14:15:57.000Z</time>
      </trkpt>
      <trkpt lat="45.91391" lon="4.66087">
        <ele>330.36676</ele>
        <time>2022-08-23T14:15:59.000Z</time>
      </trkpt>
      <trkpt lat="45.91391" lon="4.66091">
        <ele>330.96576</ele>
        <time>2022-08-23T14:16:01.000Z</time>
      </trkpt>
      <trkpt lat="45.91391" lon="4.66096">
        <ele>331.66525</ele>
        <time>2022-08-23T14:16:03.000Z</time>
      </trkpt>
      <trkpt lat="45.91391" lon="4.66101">
        <ele>332.30133</ele>
        <time>2022-08-23T14:16:05.000Z</time>
      </trkpt>
      <trkpt lat="45.9139" lon="4.66105">
        <ele>332.92453</ele>
        <time>2022-08-23T14:16:07.000Z</time>
      </trkpt>
      <trkpt lat="45.91389" lon="4.66109">
        <ele>333.62286</ele>
        <time>2022-08-23T14:16:09.000Z</time>
      </trkpt>
      <trkpt lat="45.91389" lon="4.66112">
        <ele>334.22601</ele>
        <time>2022-08-23T14:16:11.000Z</time>
      </trkpt>
      <trkpt lat="45.91388" lon="4.66117">
        <ele>334.80099</ele>
        <time>2022-08-23T14:16:13.000Z</time>
      </trkpt>
      <trkpt lat="45.91388" lon="4.66121">
        <ele>335.26492</ele>
        <time>2022-08-23T14:16:15.000Z</time>
      </trkpt>
      <trkpt lat="45.91388" lon="4.66126">
        <ele>335.62704</ele>
        <time>2022-08-23T14:16:17.000Z</time>
      </trkpt>
      <trkpt lat="45.91388" lon="4.66129">
        <ele>336.00162</ele>
        <time>2022-08-23T14:16:19.000Z</time>
      </trkpt>
      <trkpt lat="45.91387" lon="4.66132">
        <ele>336.5061</ele>
        <time>2022-08-23T14:16:21.000Z</time>
      </trkpt>
      <trkpt lat="45.91386" lon="4.66136">
        <ele>337.00369</ele>
        <time>2022-08-23T14:16:23.000Z</time>
      </trkpt>
      <trkpt lat="45.91386" lon="4.66139">
        <ele>337.39255</ele>
        <time>2022-08-23T14:16:25.000Z</time>
      </trkpt>
      <trkpt lat="45.91385" lon="4.66142">
        <ele>337.82428</ele>
        <time>2022-08-23T14:16:27.000Z</time>
      </trkpt>
      <trkpt lat="45.91384" lon="4.66146">
        <ele>338.23566</ele>
        <time>2022-08-23T14:16:29.000Z</time>
      </trkpt>
      <trkpt lat="45.91384" lon="4.6615">
        <ele>338.7767</ele>
        <time>2022-08-23T14:16:31.000Z</time>
      </trkpt>
      <trkpt lat="45.91384" lon="4.66154">
        <ele>339.32144</ele>
        <time>2022-08-23T14:16:33.000Z</time>
      </trkpt>
      <trkpt lat="45.91384" lon="4.66158">
        <ele>339.61798</ele>
        <time>2022-08-23T14:16:35.000Z</time>
      </trkpt>
      <trkpt lat="45.91385" lon="4.66161">
        <ele>339.88455</ele>
        <time>2022-08-23T14:16:37.000Z</time>
      </trkpt>
      <trkpt lat="45.91384" lon="4.66165">
        <ele>340.16925</ele>
        <time>2022-08-23T14:16:39.000Z</time>
      </trkpt>
      <trkpt lat="45.91384" lon="4.66169">
        <ele>340.42944</ele>
        <time>2022-08-23T14:16:41.000Z</time>
      </trkpt>
      <trkpt lat="45.91384" lon="4.66173">
        <ele>340.70648</ele>
        <time>2022-08-23T14:16:43.000Z</time>
      </trkpt>
      <trkpt lat="45.91383" lon="4.66176">
        <ele>340.98431</ele>
        <time>2022-08-23T14:16:45.000Z</time>
      </trkpt>
      <trkpt lat="45.91383" lon="4.66181">
        <ele>341.22516</ele>
        <time>2022-08-23T14:16:47.000Z</time>
      </trkpt>
      <trkpt lat="45.91381" lon="4.66184">
        <ele>341.41302</ele>
        <time>2022-08-23T14:16:49.000Z</time>
      </trkpt>
      <trkpt lat="45.9138" lon="4.66187">
        <ele>341.61523</ele>
        <time>2022-08-23T14:16:51.000Z</time>
      </trkpt>
      <trkpt lat="45.91379" lon="4.6619">
        <ele>341.80615</ele>
        <time>2022-08-23T14:16:53.000Z</time>
      </trkpt>
      <trkpt lat="45.91377" lon="4.66193">
        <ele>341.99451</ele>
        <time>2022-08-23T14:16:55.000Z</time>
      </trkpt>
      <trkpt lat="45.91375" lon="4.66196">
        <ele>342.25119</ele>
        <time>2022-08-23T14:16:57.000Z</time>
      </trkpt>
      <trkpt lat="45.91374" lon="4.66199">
        <ele>342.54794</ele>
        <time>2022-08-23T14:16:59.000Z</time>
      </trkpt>
      <trkpt lat="45.91374" lon="4.66203">
        <ele>342.76239</ele>
        <time>2022-08-23T14:17:01.000Z</time>
      </trkpt>
      <trkpt lat="45.91374" lon="4.66207">
        <ele>342.99591</ele>
        <time>2022-08-23T14:17:03.000Z</time>
      </trkpt>
      <trkpt lat="45.91374" lon="4.66211">
        <ele>343.32108</ele>
        <time>2022-08-23T14:17:05.000Z</time>
      </trkpt>
      <trkpt lat="45.91374" lon="4.66215">
        <ele>343.61554</ele>
        <time>2022-08-23T14:17:07.000Z</time>
      </trkpt>
      <trkpt lat="45.91373" lon="4.66219">
        <ele>343.88556</ele>
        <time>2022-08-23T14:17:09.000Z</time>
      </trkpt>
      <trkpt lat="45.91373" lon="4.66222">
        <ele>344.07376</ele>
        <time>2022-08-23T14:17:11.000Z</time>
      </trkpt>
      <trkpt lat="45.91373" lon="4.66225">
        <ele>344.2774</ele>
        <time>2022-08-23T14:17:13.000Z</time>
      </trkpt>
      <trkpt lat="45.91372" lon="4.66228">
        <ele>344.64594</ele>
        <time>2022-08-23T14:17:15.000Z</time>
      </trkpt>
      <trkpt lat="45.91372" lon="4.66232">
        <ele>345.09991</ele>
        <time>2022-08-23T14:17:17.000Z</time>
      </trkpt>
      <trkpt lat="45.91371" lon="4.66236">
        <ele>345.58047</ele>
        <time>2022-08-23T14:17:19.000Z</time>
      </trkpt>
      <trkpt lat="45.91371" lon="4.66239">
        <ele>346.02719</ele>
        <time>2022-08-23T14:17:21.000Z</time>
      </trkpt>
      <trkpt lat="45.91371" lon="4.66242">
        <ele>346.427</ele>
        <time>2022-08-23T14:17:23.000Z</time>
      </trkpt>
      <trkpt lat="45.91369" lon="4.66245">
        <ele>346.84589</ele>
        <time>2022-08-23T14:17:25.000Z</time>
      </trkpt>
      <trkpt lat="45.91368" lon="4.66247">
        <ele>347.27823</ele>
        <time>2022-08-23T14:17:27.000Z</time>
      </trkpt>
      <trkpt lat="45.9137" lon="4.6625">
        <ele>347.71918</ele>
        <time>2022-08-23T14:17:34.000Z</time>
      </trkpt>
      <trkpt lat="45.91371" lon="4.66254">
        <ele>348.13254</ele>
        <time>2022-08-23T14:17:36.000Z</time>
      </trkpt>
      <trkpt lat="45.91372" lon="4.66257">
        <ele>348.51419</ele>
        <time>2022-08-23T14:17:37.000Z</time>
      </trkpt>
      <trkpt lat="45.91372" lon="4.66259">
        <ele>348.82123</ele>
        <time>2022-08-23T14:17:38.000Z</time>
      </trkpt>
      <trkpt lat="45.91373" lon="4.66264">
        <ele>349.14517</ele>
        <time>2022-08-23T14:17:40.000Z</time>
      </trkpt>
      <trkpt lat="45.91373" lon="4.66269">
        <ele>349.49384</ele>
        <time>2022-08-23T14:17:42.000Z</time>
      </trkpt>
      <trkpt lat="45.91373" lon="4.66274">
        <ele>349.84235</ele>
        <time>2022-08-23T14:17:44.000Z</time>
      </trkpt>
      <trkpt lat="45.91372" lon="4.66279">
        <ele>350.18842</ele>
        <time>2022-08-23T14:17:46.000Z</time>
      </trkpt>
      <trkpt lat="45.91372" lon="4.66282">
        <ele>350.54321</ele>
        <time>2022-08-23T14:17:47.000Z</time>
      </trkpt>
      <trkpt lat="45.91371" lon="4.66287">
        <ele>350.93845</ele>
        <time>2022-08-23T14:17:49.000Z</time>
      </trkpt>
      <trkpt lat="45.91372" lon="4.66292">
        <ele>351.30463</ele>
        <time>2022-08-23T14:17:51.000Z</time>
      </trkpt>
      <trkpt lat="45.91372" lon="4.66296">
        <ele>351.73163</ele>
        <time>2022-08-23T14:17:53.000Z</time>
      </trkpt>
      <trkpt lat="45.91372" lon="4.66299">
        <ele>352.15421</ele>
        <time>2022-08-23T14:17:54.000Z</time>
      </trkpt>
      <trkpt lat="45.91371" lon="4.66302">
        <ele>352.51834</ele>
        <time>2022-08-23T14:17:55.000Z</time>
      </trkpt>
      <trkpt lat="45.9137" lon="4.66305">
        <ele>352.74045</ele>
        <time>2022-08-23T14:17:56.000Z</time>
      </trkpt>
      <trkpt lat="45.91369" lon="4.66308">
        <ele>352.92755</ele>
        <time>2022-08-23T14:17:57.000Z</time>
      </trkpt>
      <trkpt lat="45.91368" lon="4.66311">
        <ele>353.21466</ele>
        <time>2022-08-23T14:17:58.000Z</time>
      </trkpt>
      <trkpt lat="45.91367" lon="4.66313">
        <ele>353.51566</ele>
        <time>2022-08-23T14:17:59.000Z</time>
      </trkpt>
      <trkpt lat="45.91366" lon="4.66316">
        <ele>353.83963</ele>
        <time>2022-08-23T14:18:00.000Z</time>
      </trkpt>
      <trkpt lat="45.91366" lon="4.66318">
        <ele>354.11365</ele>
        <time>2022-08-23T14:18:01.000Z</time>
      </trkpt>
      <trkpt lat="45.91365" lon="4.66321">
        <ele>354.35345</ele>
        <time>2022-08-23T14:18:02.000Z</time>
      </trkpt>
      <trkpt lat="45.91364" lon="4.66325">
        <ele>354.49896</ele>
        <time>2022-08-23T14:18:04.000Z</time>
      </trkpt>
      <trkpt lat="45.91363" lon="4.66329">
        <ele>354.6644</ele>
        <time>2022-08-23T14:18:05.000Z</time>
      </trkpt>
      <trkpt lat="45.91362" lon="4.66332">
        <ele>354.8172</ele>
        <time>2022-08-23T14:18:06.000Z</time>
      </trkpt>
      <trkpt lat="45.91361" lon="4.66335">
        <ele>355.01251</ele>
        <time>2022-08-23T14:18:07.000Z</time>
      </trkpt>
      <trkpt lat="45.91362" lon="4.6634">
        <ele>355.28082</ele>
        <time>2022-08-23T14:18:09.000Z</time>
      </trkpt>
      <trkpt lat="45.91362" lon="4.66343">
        <ele>355.56003</ele>
        <time>2022-08-23T14:18:11.000Z</time>
      </trkpt>
      <trkpt lat="45.91361" lon="4.66346">
        <ele>355.9783</ele>
        <time>2022-08-23T14:18:16.000Z</time>
      </trkpt>
      <trkpt lat="45.9136" lon="4.6635">
        <ele>356.36212</ele>
        <time>2022-08-23T14:18:18.000Z</time>
      </trkpt>
      <trkpt lat="45.91358" lon="4.66352">
        <ele>356.57095</ele>
        <time>2022-08-23T14:18:19.000Z</time>
      </trkpt>
      <trkpt lat="45.91357" lon="4.66355">
        <ele>356.75665</ele>
        <time>2022-08-23T14:18:20.000Z</time>
      </trkpt>
      <trkpt lat="45.91356" lon="4.66357">
        <ele>356.90753</ele>
        <time>2022-08-23T14:18:21.000Z</time>
      </trkpt>
      <trkpt lat="45.91355" lon="4.6636">
        <ele>357.01404</ele>
        <time>2022-08-23T14:18:22.000Z</time>
      </trkpt>
      <trkpt lat="45.91354" lon="4.66362">
        <ele>357.14926</ele>
        <time>2022-08-23T14:18:23.000Z</time>
      </trkpt>
      <trkpt lat="45.91353" lon="4.66365">
        <ele>357.31586</ele>
        <time>2022-08-23T14:18:24.000Z</time>
      </trkpt>
      <trkpt lat="45.91352" lon="4.66369">
        <ele>357.42816</ele>
        <time>2022-08-23T14:18:26.000Z</time>
      </trkpt>
      <trkpt lat="45.91353" lon="4.66372">
        <ele>357.5462</ele>
        <time>2022-08-23T14:18:27.000Z</time>
      </trkpt>
      <trkpt lat="45.91353" lon="4.66375">
        <ele>357.68802</ele>
        <time>2022-08-23T14:18:28.000Z</time>
      </trkpt>
      <trkpt lat="45.91353" lon="4.66378">
        <ele>357.83636</ele>
        <time>2022-08-23T14:18:29.000Z</time>
      </trkpt>
      <trkpt lat="45.91354" lon="4.66381">
        <ele>357.99789</ele>
        <time>2022-08-23T14:18:30.000Z</time>
      </trkpt>
      <trkpt lat="45.91354" lon="4.66384">
        <ele>358.21329</ele>
        <time>2022-08-23T14:18:31.000Z</time>
      </trkpt>
      <trkpt lat="45.91353" lon="4.66389">
        <ele>358.48734</ele>
        <time>2022-08-23T14:18:33.000Z</time>
      </trkpt>
      <trkpt lat="45.91353" lon="4.66391">
        <ele>358.827</ele>
        <time>2022-08-23T14:18:34.000Z</time>
      </trkpt>
      <trkpt lat="45.91352" lon="4.66394">
        <ele>359.2193</ele>
        <time>2022-08-23T14:18:35.000Z</time>
      </trkpt>
      <trkpt lat="45.91352" lon="4.66397">
        <ele>359.56528</ele>
        <time>2022-08-23T14:18:36.000Z</time>
      </trkpt>
      <trkpt lat="45.91351" lon="4.664">
        <ele>359.797</ele>
        <time>2022-08-23T14:18:37.000Z</time>
      </trkpt>
      <trkpt lat="45.91351" lon="4.66402">
        <ele>359.87677</ele>
        <time>2022-08-23T14:18:38.000Z</time>
      </trkpt>
      <trkpt lat="45.9135" lon="4.66405">
        <ele>359.79034</ele>
        <time>2022-08-23T14:18:39.000Z</time>
      </trkpt>
      <trkpt lat="45.91349" lon="4.66409">
        <ele>359.62433</ele>
        <time>2022-08-23T14:18:41.000Z</time>
      </trkpt>
      <trkpt lat="45.91348" lon="4.66413">
        <ele>359.6644</ele>
        <time>2022-08-23T14:18:43.000Z</time>
      </trkpt>
      <trkpt lat="45.91347" lon="4.66416">
        <ele>359.71133</ele>
        <time>2022-08-23T14:18:44.000Z</time>
      </trkpt>
      <trkpt lat="45.91346" lon="4.66418">
        <ele>359.77249</ele>
        <time>2022-08-23T14:18:45.000Z</time>
      </trkpt>
      <trkpt lat="45.91344" lon="4.6642">
        <ele>359.81134</ele>
        <time>2022-08-23T14:18:46.000Z</time>
      </trkpt>
      <trkpt lat="45.91343" lon="4.66422">
        <ele>359.83673</ele>
        <time>2022-08-23T14:18:47.000Z</time>
      </trkpt>
      <trkpt lat="45.91341" lon="4.66426">
        <ele>359.88593</ele>
        <time>2022-08-23T14:18:49.000Z</time>
      </trkpt>
      <trkpt lat="45.91339" lon="4.6643">
        <ele>359.94363</ele>
        <time>2022-08-23T14:18:51.000Z</time>
      </trkpt>
      <trkpt lat="45.91339" lon="4.66434">
        <ele>360.02008</ele>
        <time>2022-08-23T14:18:53.000Z</time>
      </trkpt>
      <trkpt lat="45.91338" lon="4.66437">
        <ele>360.03729</ele>
        <time>2022-08-23T14:18:54.000Z</time>
      </trkpt>
      <trkpt lat="45.91337" lon="4.66442">
        <ele>360.0343</ele>
        <time>2022-08-23T14:18:56.000Z</time>
      </trkpt>
      <trkpt lat="45.91336" lon="4.66444">
        <ele>360.0556</ele>
        <time>2022-08-23T14:18:57.000Z</time>
      </trkpt>
      <trkpt lat="45.91335" lon="4.66446">
        <ele>360.01627</ele>
        <time>2022-08-23T14:18:58.000Z</time>
      </trkpt>
      <trkpt lat="45.91334" lon="4.66449">
        <ele>359.87189</ele>
        <time>2022-08-23T14:18:59.000Z</time>
      </trkpt>
      <trkpt lat="45.91333" lon="4.66452">
        <ele>359.65494</ele>
        <time>2022-08-23T14:19:00.000Z</time>
      </trkpt>
      <trkpt lat="45.91332" lon="4.66454">
        <ele>359.34875</ele>
        <time>2022-08-23T14:19:01.000Z</time>
      </trkpt>
      <trkpt lat="45.91329" lon="4.66456">
        <ele>358.92786</ele>
        <time>2022-08-23T14:19:02.000Z</time>
      </trkpt>
      <trkpt lat="45.91327" lon="4.66459">
        <ele>358.45795</ele>
        <time>2022-08-23T14:19:03.000Z</time>
      </trkpt>
      <trkpt lat="45.91324" lon="4.66461">
        <ele>358.06259</ele>
        <time>2022-08-23T14:19:04.000Z</time>
      </trkpt>
      <trkpt lat="45.91321" lon="4.66465">
        <ele>357.7287</ele>
        <time>2022-08-23T14:19:05.000Z</time>
      </trkpt>
      <trkpt lat="45.9132" lon="4.66469">
        <ele>357.4559</ele>
        <time>2022-08-23T14:19:06.000Z</time>
      </trkpt>
      <trkpt lat="45.91319" lon="4.66473">
        <ele>357.22681</ele>
        <time>2022-08-23T14:19:07.000Z</time>
      </trkpt>
      <trkpt lat="45.91319" lon="4.66477">
        <ele>356.93549</ele>
        <time>2022-08-23T14:19:08.000Z</time>
      </trkpt>
      <trkpt lat="45.9132" lon="4.66481">
        <ele>356.63596</ele>
        <time>2022-08-23T14:19:09.000Z</time>
      </trkpt>
      <trkpt lat="45.9132" lon="4.66485">
        <ele>356.28265</ele>
        <time>2022-08-23T14:19:10.000Z</time>
      </trkpt>
      <trkpt lat="45.91321" lon="4.66488">
        <ele>355.97412</ele>
        <time>2022-08-23T14:19:11.000Z</time>
      </trkpt>
      <trkpt lat="45.91321" lon="4.66492">
        <ele>355.62482</ele>
        <time>2022-08-23T14:19:12.000Z</time>
      </trkpt>
      <trkpt lat="45.91322" lon="4.66496">
        <ele>355.28787</ele>
        <time>2022-08-23T14:19:13.000Z</time>
      </trkpt>
      <trkpt lat="45.91322" lon="4.665">
        <ele>354.88531</ele>
        <time>2022-08-23T14:19:14.000Z</time>
      </trkpt>
      <trkpt lat="45.91322" lon="4.66506">
        <ele>354.47815</ele>
        <time>2022-08-23T14:19:15.000Z</time>
      </trkpt>
      <trkpt lat="45.91322" lon="4.66511">
        <ele>354.10925</ele>
        <time>2022-08-23T14:19:16.000Z</time>
      </trkpt>
      <trkpt lat="45.91322" lon="4.66516">
        <ele>353.68253</ele>
        <time>2022-08-23T14:19:17.000Z</time>
      </trkpt>
      <trkpt lat="45.91322" lon="4.6652">
        <ele>353.28802</ele>
        <time>2022-08-23T14:19:18.000Z</time>
      </trkpt>
      <trkpt lat="45.91323" lon="4.66524">
        <ele>353.08356</ele>
        <time>2022-08-23T14:19:19.000Z</time>
      </trkpt>
      <trkpt lat="45.91323" lon="4.66529">
        <ele>352.81662</ele>
        <time>2022-08-23T14:19:20.000Z</time>
      </trkpt>
      <trkpt lat="45.91323" lon="4.66533">
        <ele>352.63614</ele>
        <time>2022-08-23T14:19:21.000Z</time>
      </trkpt>
      <trkpt lat="45.91323" lon="4.66538">
        <ele>352.57437</ele>
        <time>2022-08-23T14:19:22.000Z</time>
      </trkpt>
      <trkpt lat="45.91323" lon="4.66542">
        <ele>352.60931</ele>
        <time>2022-08-23T14:19:23.000Z</time>
      </trkpt>
      <trkpt lat="45.91323" lon="4.66546">
        <ele>352.73715</ele>
        <time>2022-08-23T14:19:24.000Z</time>
      </trkpt>
      <trkpt lat="45.91324" lon="4.66551">
        <ele>352.75266</ele>
        <time>2022-08-23T14:19:25.000Z</time>
      </trkpt>
      <trkpt lat="45.91324" lon="4.66556">
        <ele>352.85294</ele>
        <time>2022-08-23T14:19:26.000Z</time>
      </trkpt>
      <trkpt lat="45.91324" lon="4.66561">
        <ele>352.96527</ele>
        <time>2022-08-23T14:19:27.000Z</time>
      </trkpt>
      <trkpt lat="45.91324" lon="4.66565">
        <ele>353.14401</ele>
        <time>2022-08-23T14:19:28.000Z</time>
      </trkpt>
      <trkpt lat="45.91325" lon="4.66569">
        <ele>353.25769</ele>
        <time>2022-08-23T14:19:29.000Z</time>
      </trkpt>
      <trkpt lat="45.91325" lon="4.66574">
        <ele>353.32706</ele>
        <time>2022-08-23T14:19:30.000Z</time>
      </trkpt>
      <trkpt lat="45.91325" lon="4.66578">
        <ele>353.44241</ele>
        <time>2022-08-23T14:19:31.000Z</time>
      </trkpt>
      <trkpt lat="45.91325" lon="4.66582">
        <ele>353.64249</ele>
        <time>2022-08-23T14:19:32.000Z</time>
      </trkpt>
      <trkpt lat="45.91326" lon="4.66586">
        <ele>353.81757</ele>
        <time>2022-08-23T14:19:33.000Z</time>
      </trkpt>
      <trkpt lat="45.91326" lon="4.6659">
        <ele>354.00735</ele>
        <time>2022-08-23T14:19:34.000Z</time>
      </trkpt>
      <trkpt lat="45.91326" lon="4.66594">
        <ele>354.21603</ele>
        <time>2022-08-23T14:19:35.000Z</time>
      </trkpt>
      <trkpt lat="45.91326" lon="4.66598">
        <ele>354.4693</ele>
        <time>2022-08-23T14:19:36.000Z</time>
      </trkpt>
      <trkpt lat="45.91326" lon="4.66602">
        <ele>354.83005</ele>
        <time>2022-08-23T14:19:37.000Z</time>
      </trkpt>
      <trkpt lat="45.91326" lon="4.66606">
        <ele>355.19708</ele>
        <time>2022-08-23T14:19:38.000Z</time>
      </trkpt>
      <trkpt lat="45.91325" lon="4.6661">
        <ele>355.54245</ele>
        <time>2022-08-23T14:19:39.000Z</time>
      </trkpt>
      <trkpt lat="45.91325" lon="4.66614">
        <ele>355.95306</ele>
        <time>2022-08-23T14:19:40.000Z</time>
      </trkpt>
      <trkpt lat="45.91325" lon="4.66618">
        <ele>356.33868</ele>
        <time>2022-08-23T14:19:41.000Z</time>
      </trkpt>
      <trkpt lat="45.91325" lon="4.66622">
        <ele>356.68597</ele>
        <time>2022-08-23T14:19:42.000Z</time>
      </trkpt>
      <trkpt lat="45.91325" lon="4.66627">
        <ele>356.90607</ele>
        <time>2022-08-23T14:19:43.000Z</time>
      </trkpt>
      <trkpt lat="45.91325" lon="4.66631">
        <ele>357.03622</ele>
        <time>2022-08-23T14:19:44.000Z</time>
      </trkpt>
      <trkpt lat="45.91325" lon="4.66635">
        <ele>357.18988</ele>
        <time>2022-08-23T14:19:45.000Z</time>
      </trkpt>
      <trkpt lat="45.91324" lon="4.6664">
        <ele>357.20865</ele>
        <time>2022-08-23T14:19:46.000Z</time>
      </trkpt>
      <trkpt lat="45.91324" lon="4.66644">
        <ele>357.16528</ele>
        <time>2022-08-23T14:19:47.000Z</time>
      </trkpt>
      <trkpt lat="45.91324" lon="4.66649">
        <ele>357.11349</ele>
        <time>2022-08-23T14:19:48.000Z</time>
      </trkpt>
      <trkpt lat="45.91323" lon="4.66654">
        <ele>357.15408</ele>
        <time>2022-08-23T14:19:49.000Z</time>
      </trkpt>
      <trkpt lat="45.91323" lon="4.66658">
        <ele>357.33463</ele>
        <time>2022-08-23T14:19:50.000Z</time>
      </trkpt>
      <trkpt lat="45.91323" lon="4.66661">
        <ele>357.50616</ele>
        <time>2022-08-23T14:19:51.000Z</time>
      </trkpt>
      <trkpt lat="45.91324" lon="4.66665">
        <ele>357.62454</ele>
        <time>2022-08-23T14:19:52.000Z</time>
      </trkpt>
      <trkpt lat="45.91323" lon="4.66669">
        <ele>357.78281</ele>
        <time>2022-08-23T14:19:53.000Z</time>
      </trkpt>
      <trkpt lat="45.91323" lon="4.66673">
        <ele>357.9212</ele>
        <time>2022-08-23T14:19:54.000Z</time>
      </trkpt>
      <trkpt lat="45.91323" lon="4.66677">
        <ele>358.11728</ele>
        <time>2022-08-23T14:19:55.000Z</time>
      </trkpt>
      <trkpt lat="45.91322" lon="4.6668">
        <ele>358.26447</ele>
        <time>2022-08-23T14:19:56.000Z</time>
      </trkpt>
      <trkpt lat="45.91322" lon="4.66684">
        <ele>358.36346</ele>
        <time>2022-08-23T14:19:57.000Z</time>
      </trkpt>
      <trkpt lat="45.91322" lon="4.66687">
        <ele>358.53705</ele>
        <time>2022-08-23T14:19:58.000Z</time>
      </trkpt>
      <trkpt lat="45.91323" lon="4.6669">
        <ele>358.68472</ele>
        <time>2022-08-23T14:19:59.000Z</time>
      </trkpt>
      <trkpt lat="45.91323" lon="4.66694">
        <ele>358.8175</ele>
        <time>2022-08-23T14:20:00.000Z</time>
      </trkpt>
      <trkpt lat="45.91322" lon="4.66698">
        <ele>358.91608</ele>
        <time>2022-08-23T14:20:01.000Z</time>
      </trkpt>
      <trkpt lat="45.91322" lon="4.66702">
        <ele>358.99756</ele>
        <time>2022-08-23T14:20:02.000Z</time>
      </trkpt>
      <trkpt lat="45.91322" lon="4.66706">
        <ele>359.09125</ele>
        <time>2022-08-23T14:20:03.000Z</time>
      </trkpt>
      <trkpt lat="45.91322" lon="4.66711">
        <ele>359.19812</ele>
        <time>2022-08-23T14:20:04.000Z</time>
      </trkpt>
      <trkpt lat="45.91322" lon="4.66715">
        <ele>359.34583</ele>
        <time>2022-08-23T14:20:05.000Z</time>
      </trkpt>
      <trkpt lat="45.91322" lon="4.66719">
        <ele>359.53745</ele>
        <time>2022-08-23T14:20:06.000Z</time>
      </trkpt>
      <trkpt lat="45.91322" lon="4.66723">
        <ele>359.71646</ele>
        <time>2022-08-23T14:20:07.000Z</time>
      </trkpt>
      <trkpt lat="45.91322" lon="4.66727">
        <ele>359.90271</ele>
        <time>2022-08-23T14:20:08.000Z</time>
      </trkpt>
      <trkpt lat="45.91322" lon="4.66732">
        <ele>360.00305</ele>
        <time>2022-08-23T14:20:09.000Z</time>
      </trkpt>
      <trkpt lat="45.91322" lon="4.66736">
        <ele>360.06863</ele>
        <time>2022-08-23T14:20:10.000Z</time>
      </trkpt>
      <trkpt lat="45.91322" lon="4.6674">
        <ele>360.15143</ele>
        <time>2022-08-23T14:20:11.000Z</time>
      </trkpt>
      <trkpt lat="45.91322" lon="4.66743">
        <ele>360.22888</ele>
        <time>2022-08-23T14:20:12.000Z</time>
      </trkpt>
      <trkpt lat="45.91322" lon="4.66747">
        <ele>360.32257</ele>
        <time>2022-08-23T14:20:13.000Z</time>
      </trkpt>
      <trkpt lat="45.91321" lon="4.6675">
        <ele>360.42914</ele>
        <time>2022-08-23T14:20:14.000Z</time>
      </trkpt>
      <trkpt lat="45.9132" lon="4.66753">
        <ele>360.54572</ele>
        <time>2022-08-23T14:20:15.000Z</time>
      </trkpt>
      <trkpt lat="45.9132" lon="4.66757">
        <ele>360.59793</ele>
        <time>2022-08-23T14:20:16.000Z</time>
      </trkpt>
      <trkpt lat="45.91319" lon="4.6676">
        <ele>360.67026</ele>
        <time>2022-08-23T14:20:17.000Z</time>
      </trkpt>
      <trkpt lat="45.91319" lon="4.66763">
        <ele>360.67606</ele>
        <time>2022-08-23T14:20:18.000Z</time>
      </trkpt>
      <trkpt lat="45.9132" lon="4.66766">
        <ele>360.70422</ele>
        <time>2022-08-23T14:20:19.000Z</time>
      </trkpt>
      <trkpt lat="45.91321" lon="4.66769">
        <ele>360.65405</ele>
        <time>2022-08-23T14:20:20.000Z</time>
      </trkpt>
      <trkpt lat="45.91323" lon="4.6677">
        <ele>360.60797</ele>
        <time>2022-08-23T14:20:21.000Z</time>
      </trkpt>
      <trkpt lat="45.91326" lon="4.66771">
        <ele>360.63165</ele>
        <time>2022-08-23T14:20:23.000Z</time>
      </trkpt>
      <trkpt lat="45.91328" lon="4.6677">
        <ele>360.66986</ele>
        <time>2022-08-23T14:20:24.000Z</time>
      </trkpt>
      <trkpt lat="45.91331" lon="4.66769">
        <ele>360.74176</ele>
        <time>2022-08-23T14:20:25.000Z</time>
      </trkpt>
      <trkpt lat="45.91333" lon="4.66767">
        <ele>360.75427</ele>
        <time>2022-08-23T14:20:26.000Z</time>
      </trkpt>
      <trkpt lat="45.91335" lon="4.66765">
        <ele>360.78799</ele>
        <time>2022-08-23T14:20:27.000Z</time>
      </trkpt>
      <trkpt lat="45.91338" lon="4.66763">
        <ele>360.85318</ele>
        <time>2022-08-23T14:20:28.000Z</time>
      </trkpt>
      <trkpt lat="45.9134" lon="4.66761">
        <ele>360.92255</ele>
        <time>2022-08-23T14:20:29.000Z</time>
      </trkpt>
      <trkpt lat="45.91342" lon="4.6676">
        <ele>361.0184</ele>
        <time>2022-08-23T14:20:30.000Z</time>
      </trkpt>
      <trkpt lat="45.91344" lon="4.66759">
        <ele>361.11533</ele>
        <time>2022-08-23T14:20:31.000Z</time>
      </trkpt>
      <trkpt lat="45.91346" lon="4.66758">
        <ele>361.12274</ele>
        <time>2022-08-23T14:20:32.000Z</time>
      </trkpt>
      <trkpt lat="45.91349" lon="4.66756">
        <ele>361.12048</ele>
        <time>2022-08-23T14:20:33.000Z</time>
      </trkpt>
      <trkpt lat="45.91351" lon="4.66754">
        <ele>361.12714</ele>
        <time>2022-08-23T14:20:34.000Z</time>
      </trkpt>
      <trkpt lat="45.91353" lon="4.66752">
        <ele>361.1611</ele>
        <time>2022-08-23T14:20:35.000Z</time>
      </trkpt>
      <trkpt lat="45.91355" lon="4.66749">
        <ele>361.12317</ele>
        <time>2022-08-23T14:20:36.000Z</time>
      </trkpt>
      <trkpt lat="45.91357" lon="4.66747">
        <ele>361.10349</ele>
        <time>2022-08-23T14:20:37.000Z</time>
      </trkpt>
      <trkpt lat="45.91359" lon="4.66745">
        <ele>361.02496</ele>
        <time>2022-08-23T14:20:38.000Z</time>
      </trkpt>
      <trkpt lat="45.91361" lon="4.66742">
        <ele>360.93735</ele>
        <time>2022-08-23T14:20:39.000Z</time>
      </trkpt>
      <trkpt lat="45.91363" lon="4.6674">
        <ele>360.84085</ele>
        <time>2022-08-23T14:20:40.000Z</time>
      </trkpt>
      <trkpt lat="45.91365" lon="4.66738">
        <ele>360.80048</ele>
        <time>2022-08-23T14:20:41.000Z</time>
      </trkpt>
      <trkpt lat="45.91367" lon="4.66736">
        <ele>360.76297</ele>
        <time>2022-08-23T14:20:42.000Z</time>
      </trkpt>
      <trkpt lat="45.9137" lon="4.66735">
        <ele>360.67337</ele>
        <time>2022-08-23T14:20:43.000Z</time>
      </trkpt>
      <trkpt lat="45.91372" lon="4.66733">
        <ele>360.62335</ele>
        <time>2022-08-23T14:20:44.000Z</time>
      </trkpt>
      <trkpt lat="45.91374" lon="4.66731">
        <ele>360.56357</ele>
        <time>2022-08-23T14:20:45.000Z</time>
      </trkpt>
      <trkpt lat="45.91377" lon="4.66728">
        <ele>360.53055</ele>
        <time>2022-08-23T14:20:46.000Z</time>
      </trkpt>
      <trkpt lat="45.91379" lon="4.66727">
        <ele>360.46515</ele>
        <time>2022-08-23T14:20:47.000Z</time>
      </trkpt>
      <trkpt lat="45.91381" lon="4.66725">
        <ele>360.28552</ele>
        <time>2022-08-23T14:20:48.000Z</time>
      </trkpt>
      <trkpt lat="45.91383" lon="4.66724">
        <ele>360.06403</ele>
        <time>2022-08-23T14:20:49.000Z</time>
      </trkpt>
      <trkpt lat="45.91386" lon="4.66723">
        <ele>359.84814</ele>
        <time>2022-08-23T14:20:50.000Z</time>
      </trkpt>
      <trkpt lat="45.91388" lon="4.66722">
        <ele>359.64899</ele>
        <time>2022-08-23T14:20:51.000Z</time>
      </trkpt>
      <trkpt lat="45.91391" lon="4.66721">
        <ele>359.51822</ele>
        <time>2022-08-23T14:20:52.000Z</time>
      </trkpt>
      <trkpt lat="45.91393" lon="4.66721">
        <ele>359.34003</ele>
        <time>2022-08-23T14:20:53.000Z</time>
      </trkpt>
      <trkpt lat="45.91396" lon="4.66721">
        <ele>359.0899</ele>
        <time>2022-08-23T14:20:54.000Z</time>
      </trkpt>
      <trkpt lat="45.91398" lon="4.66721">
        <ele>358.80142</ele>
        <time>2022-08-23T14:20:55.000Z</time>
      </trkpt>
      <trkpt lat="45.914" lon="4.6672">
        <ele>358.4938</ele>
        <time>2022-08-23T14:20:56.000Z</time>
      </trkpt>
      <trkpt lat="45.91403" lon="4.6672">
        <ele>358.22153</ele>
        <time>2022-08-23T14:20:57.000Z</time>
      </trkpt>
      <trkpt lat="45.91405" lon="4.66721">
        <ele>357.9498</ele>
        <time>2022-08-23T14:20:58.000Z</time>
      </trkpt>
      <trkpt lat="45.91407" lon="4.66721">
        <ele>357.67557</ele>
        <time>2022-08-23T14:20:59.000Z</time>
      </trkpt>
      <trkpt lat="45.91409" lon="4.66722">
        <ele>357.39352</ele>
        <time>2022-08-23T14:21:00.000Z</time>
      </trkpt>
      <trkpt lat="45.91411" lon="4.66722">
        <ele>357.15079</ele>
        <time>2022-08-23T14:21:01.000Z</time>
      </trkpt>
      <trkpt lat="45.91413" lon="4.66723">
        <ele>356.94037</ele>
        <time>2022-08-23T14:21:02.000Z</time>
      </trkpt>
      <trkpt lat="45.91416" lon="4.66723">
        <ele>356.72955</ele>
        <time>2022-08-23T14:21:03.000Z</time>
      </trkpt>
      <trkpt lat="45.91418" lon="4.66722">
        <ele>356.61945</ele>
        <time>2022-08-23T14:21:08.000Z</time>
      </trkpt>
      <trkpt lat="45.9142" lon="4.66723">
        <ele>356.4726</ele>
        <time>2022-08-23T14:21:12.000Z</time>
      </trkpt>
      <trkpt lat="45.9142" lon="4.66726">
        <ele>356.5405</ele>
        <time>2022-08-23T14:23:33.000Z</time>
      </trkpt>
      <trkpt lat="45.91421" lon="4.66728">
        <ele>356.64749</ele>
        <time>2022-08-23T14:23:37.000Z</time>
      </trkpt>
      <trkpt lat="45.9142" lon="4.66726">
        <ele>356.96979</ele>
        <time>2022-08-23T14:24:06.000Z</time>
      </trkpt>
      <trkpt lat="45.9142" lon="4.66724">
        <ele>357.26688</ele>
        <time>2022-08-23T14:24:59.000Z</time>
      </trkpt>
      <trkpt lat="45.91421" lon="4.66721">
        <ele>357.50177</ele>
        <time>2022-08-23T14:27:39.000Z</time>
      </trkpt>
      <trkpt lat="45.91424" lon="4.6672">
        <ele>357.74628</ele>
        <time>2022-08-23T14:27:40.000Z</time>
      </trkpt>
      <trkpt lat="45.91426" lon="4.6672">
        <ele>357.87787</ele>
        <time>2022-08-23T14:27:41.000Z</time>
      </trkpt>
      <trkpt lat="45.91429" lon="4.66719">
        <ele>358.07233</ele>
        <time>2022-08-23T14:27:42.000Z</time>
      </trkpt>
      <trkpt lat="45.91432" lon="4.66719">
        <ele>358.30682</ele>
        <time>2022-08-23T14:27:43.000Z</time>
      </trkpt>
      <trkpt lat="45.91434" lon="4.66719">
        <ele>358.52579</ele>
        <time>2022-08-23T14:27:44.000Z</time>
      </trkpt>
      <trkpt lat="45.91436" lon="4.66719">
        <ele>358.79123</ele>
        <time>2022-08-23T14:27:45.000Z</time>
      </trkpt>
      <trkpt lat="45.91439" lon="4.66718">
        <ele>359.01538</ele>
        <time>2022-08-23T14:27:46.000Z</time>
      </trkpt>
      <trkpt lat="45.91442" lon="4.66718">
        <ele>359.27319</ele>
        <time>2022-08-23T14:27:47.000Z</time>
      </trkpt>
      <trkpt lat="45.91445" lon="4.66717">
        <ele>359.43893</ele>
        <time>2022-08-23T14:27:48.000Z</time>
      </trkpt>
      <trkpt lat="45.91448" lon="4.66716">
        <ele>359.58496</ele>
        <time>2022-08-23T14:27:49.000Z</time>
      </trkpt>
      <trkpt lat="45.91451" lon="4.66716">
        <ele>359.7695</ele>
        <time>2022-08-23T14:27:50.000Z</time>
      </trkpt>
      <trkpt lat="45.91454" lon="4.66716">
        <ele>359.99838</ele>
        <time>2022-08-23T14:27:51.000Z</time>
      </trkpt>
      <trkpt lat="45.91458" lon="4.66717">
        <ele>360.24463</ele>
        <time>2022-08-23T14:27:52.000Z</time>
      </trkpt>
      <trkpt lat="45.91461" lon="4.66719">
        <ele>360.37778</ele>
        <time>2022-08-23T14:27:53.000Z</time>
      </trkpt>
      <trkpt lat="45.91465" lon="4.6672">
        <ele>360.50769</ele>
        <time>2022-08-23T14:27:54.000Z</time>
      </trkpt>
      <trkpt lat="45.91469" lon="4.66722">
        <ele>360.46448</ele>
        <time>2022-08-23T14:27:55.000Z</time>
      </trkpt>
      <trkpt lat="45.91472" lon="4.66724">
        <ele>360.33572</ele>
        <time>2022-08-23T14:27:56.000Z</time>
      </trkpt>
      <trkpt lat="45.91476" lon="4.66726">
        <ele>360.03613</ele>
        <time>2022-08-23T14:27:57.000Z</time>
      </trkpt>
      <trkpt lat="45.91479" lon="4.66729">
        <ele>359.80698</ele>
        <time>2022-08-23T14:27:58.000Z</time>
      </trkpt>
      <trkpt lat="45.91483" lon="4.66732">
        <ele>359.58792</ele>
        <time>2022-08-23T14:27:59.000Z</time>
      </trkpt>
      <trkpt lat="45.91487" lon="4.66734">
        <ele>359.3765</ele>
        <time>2022-08-23T14:28:00.000Z</time>
      </trkpt>
      <trkpt lat="45.91491" lon="4.66736">
        <ele>359.22058</ele>
        <time>2022-08-23T14:28:01.000Z</time>
      </trkpt>
      <trkpt lat="45.91496" lon="4.66738">
        <ele>358.99554</ele>
        <time>2022-08-23T14:28:02.000Z</time>
      </trkpt>
      <trkpt lat="45.915" lon="4.66739">
        <ele>358.78696</ele>
        <time>2022-08-23T14:28:03.000Z</time>
      </trkpt>
      <trkpt lat="45.91505" lon="4.66739">
        <ele>358.63406</ele>
        <time>2022-08-23T14:28:04.000Z</time>
      </trkpt>
      <trkpt lat="45.91512" lon="4.66737">
        <ele>358.45377</ele>
        <time>2022-08-23T14:28:05.000Z</time>
      </trkpt>
      <trkpt lat="45.91518" lon="4.66734">
        <ele>358.39542</ele>
        <time>2022-08-23T14:28:06.000Z</time>
      </trkpt>
      <trkpt lat="45.91522" lon="4.66736">
        <ele>358.23077</ele>
        <time>2022-08-23T14:28:07.000Z</time>
      </trkpt>
      <trkpt lat="45.91529" lon="4.66737">
        <ele>358.19696</ele>
        <time>2022-08-23T14:28:08.000Z</time>
      </trkpt>
      <trkpt lat="45.91531" lon="4.66735">
        <ele>358.10944</ele>
        <time>2022-08-23T14:28:09.000Z</time>
      </trkpt>
      <trkpt lat="45.91534" lon="4.66737">
        <ele>357.94205</ele>
        <time>2022-08-23T14:28:10.000Z</time>
      </trkpt>
      <trkpt lat="45.91535" lon="4.66734">
        <ele>357.78549</ele>
        <time>2022-08-23T14:28:11.000Z</time>
      </trkpt>
      <trkpt lat="45.91537" lon="4.66735">
        <ele>357.55417</ele>
        <time>2022-08-23T14:28:12.000Z</time>
      </trkpt>
      <trkpt lat="45.9154" lon="4.66731">
        <ele>357.4386</ele>
        <time>2022-08-23T14:28:14.000Z</time>
      </trkpt>
      <trkpt lat="45.91542" lon="4.6673">
        <ele>357.38373</ele>
        <time>2022-08-23T14:28:15.000Z</time>
      </trkpt>
      <trkpt lat="45.91545" lon="4.66728">
        <ele>357.39703</ele>
        <time>2022-08-23T14:28:17.000Z</time>
      </trkpt>
      <trkpt lat="45.91547" lon="4.66725">
        <ele>357.38925</ele>
        <time>2022-08-23T14:28:19.000Z</time>
      </trkpt>
      <trkpt lat="45.91549" lon="4.66722">
        <ele>357.4314</ele>
        <time>2022-08-23T14:28:21.000Z</time>
      </trkpt>
      <trkpt lat="45.91551" lon="4.6672">
        <ele>357.48349</ele>
        <time>2022-08-23T14:28:23.000Z</time>
      </trkpt>
      <trkpt lat="45.91552" lon="4.66717">
        <ele>357.55988</ele>
        <time>2022-08-23T14:28:29.000Z</time>
      </trkpt>
      <trkpt lat="45.91553" lon="4.66714">
        <ele>357.58932</ele>
        <time>2022-08-23T14:28:31.000Z</time>
      </trkpt>
      <trkpt lat="45.91554" lon="4.6671">
        <ele>357.6441</ele>
        <time>2022-08-23T14:28:33.000Z</time>
      </trkpt>
      <trkpt lat="45.91555" lon="4.66708">
        <ele>357.74677</ele>
        <time>2022-08-23T14:28:34.000Z</time>
      </trkpt>
      <trkpt lat="45.91556" lon="4.66705">
        <ele>357.85114</ele>
        <time>2022-08-23T14:28:35.000Z</time>
      </trkpt>
      <trkpt lat="45.91557" lon="4.66703">
        <ele>357.82422</ele>
        <time>2022-08-23T14:28:36.000Z</time>
      </trkpt>
      <trkpt lat="45.91559" lon="4.66699">
        <ele>357.70139</ele>
        <time>2022-08-23T14:28:38.000Z</time>
      </trkpt>
      <trkpt lat="45.9156" lon="4.66696">
        <ele>357.48898</ele>
        <time>2022-08-23T14:28:39.000Z</time>
      </trkpt>
      <trkpt lat="45.91563" lon="4.66693">
        <ele>357.26068</ele>
        <time>2022-08-23T14:28:40.000Z</time>
      </trkpt>
      <trkpt lat="45.91565" lon="4.6669">
        <ele>356.98358</ele>
        <time>2022-08-23T14:28:41.000Z</time>
      </trkpt>
      <trkpt lat="45.91568" lon="4.66686">
        <ele>356.74631</ele>
        <time>2022-08-23T14:28:42.000Z</time>
      </trkpt>
      <trkpt lat="45.91571" lon="4.66683">
        <ele>356.5462</ele>
        <time>2022-08-23T14:28:43.000Z</time>
      </trkpt>
      <trkpt lat="45.91574" lon="4.6668">
        <ele>356.24298</ele>
        <time>2022-08-23T14:28:44.000Z</time>
      </trkpt>
      <trkpt lat="45.91578" lon="4.66676">
        <ele>356.02628</ele>
        <time>2022-08-23T14:28:45.000Z</time>
      </trkpt>
      <trkpt lat="45.91581" lon="4.66673">
        <ele>355.71051</ele>
        <time>2022-08-23T14:28:46.000Z</time>
      </trkpt>
      <trkpt lat="45.91584" lon="4.6667">
        <ele>355.31644</ele>
        <time>2022-08-23T14:28:47.000Z</time>
      </trkpt>
      <trkpt lat="45.91586" lon="4.66667">
        <ele>354.95868</ele>
        <time>2022-08-23T14:28:48.000Z</time>
      </trkpt>
      <trkpt lat="45.91588" lon="4.66663">
        <ele>354.68961</ele>
        <time>2022-08-23T14:28:49.000Z</time>
      </trkpt>
      <trkpt lat="45.9159" lon="4.66658">
        <ele>354.37933</ele>
        <time>2022-08-23T14:28:50.000Z</time>
      </trkpt>
      <trkpt lat="45.91592" lon="4.66654">
        <ele>354.01321</ele>
        <time>2022-08-23T14:28:51.000Z</time>
      </trkpt>
      <trkpt lat="45.91592" lon="4.66649">
        <ele>353.74127</ele>
        <time>2022-08-23T14:28:52.000Z</time>
      </trkpt>
      <trkpt lat="45.91593" lon="4.66646">
        <ele>353.53586</ele>
        <time>2022-08-23T14:28:53.000Z</time>
      </trkpt>
      <trkpt lat="45.91593" lon="4.66641">
        <ele>353.30157</ele>
        <time>2022-08-23T14:28:54.000Z</time>
      </trkpt>
      <trkpt lat="45.91594" lon="4.66637">
        <ele>353.07611</ele>
        <time>2022-08-23T14:28:55.000Z</time>
      </trkpt>
      <trkpt lat="45.91594" lon="4.66634">
        <ele>352.81744</ele>
        <time>2022-08-23T14:28:56.000Z</time>
      </trkpt>
      <trkpt lat="45.91595" lon="4.6663">
        <ele>352.62445</ele>
        <time>2022-08-23T14:28:57.000Z</time>
      </trkpt>
      <trkpt lat="45.91596" lon="4.66626">
        <ele>352.52017</ele>
        <time>2022-08-23T14:28:58.000Z</time>
      </trkpt>
      <trkpt lat="45.91598" lon="4.66622">
        <ele>352.42004</ele>
        <time>2022-08-23T14:28:59.000Z</time>
      </trkpt>
      <trkpt lat="45.916" lon="4.66618">
        <ele>352.45157</ele>
        <time>2022-08-23T14:29:00.000Z</time>
      </trkpt>
      <trkpt lat="45.91602" lon="4.66614">
        <ele>352.40036</ele>
        <time>2022-08-23T14:29:01.000Z</time>
      </trkpt>
      <trkpt lat="45.91603" lon="4.6661">
        <ele>352.33746</ele>
        <time>2022-08-23T14:29:02.000Z</time>
      </trkpt>
      <trkpt lat="45.91605" lon="4.66606">
        <ele>352.25775</ele>
        <time>2022-08-23T14:29:03.000Z</time>
      </trkpt>
      <trkpt lat="45.91608" lon="4.66602">
        <ele>352.24066</ele>
        <time>2022-08-23T14:29:04.000Z</time>
      </trkpt>
      <trkpt lat="45.9161" lon="4.66598">
        <ele>352.17047</ele>
        <time>2022-08-23T14:29:05.000Z</time>
      </trkpt>
      <trkpt lat="45.91612" lon="4.66595">
        <ele>352.065</ele>
        <time>2022-08-23T14:29:06.000Z</time>
      </trkpt>
      <trkpt lat="45.91615" lon="4.66591">
        <ele>351.99167</ele>
        <time>2022-08-23T14:29:07.000Z</time>
      </trkpt>
      <trkpt lat="45.91618" lon="4.66588">
        <ele>351.77884</ele>
        <time>2022-08-23T14:29:08.000Z</time>
      </trkpt>
      <trkpt lat="45.91621" lon="4.66585">
        <ele>351.57501</ele>
        <time>2022-08-23T14:29:09.000Z</time>
      </trkpt>
      <trkpt lat="45.91625" lon="4.66582">
        <ele>351.37421</ele>
        <time>2022-08-23T14:29:10.000Z</time>
      </trkpt>
      <trkpt lat="45.91628" lon="4.6658">
        <ele>351.20587</ele>
        <time>2022-08-23T14:29:11.000Z</time>
      </trkpt>
      <trkpt lat="45.91632" lon="4.66577">
        <ele>350.97745</ele>
        <time>2022-08-23T14:29:12.000Z</time>
      </trkpt>
      <trkpt lat="45.91636" lon="4.66575">
        <ele>350.70178</ele>
        <time>2022-08-23T14:29:13.000Z</time>
      </trkpt>
      <trkpt lat="45.91639" lon="4.66573">
        <ele>350.46317</ele>
        <time>2022-08-23T14:29:14.000Z</time>
      </trkpt>
      <trkpt lat="45.91642" lon="4.66571">
        <ele>350.24039</ele>
        <time>2022-08-23T14:29:15.000Z</time>
      </trkpt>
      <trkpt lat="45.91645" lon="4.66568">
        <ele>350.0827</ele>
        <time>2022-08-23T14:29:16.000Z</time>
      </trkpt>
      <trkpt lat="45.91648" lon="4.66565">
        <ele>349.93655</ele>
        <time>2022-08-23T14:29:17.000Z</time>
      </trkpt>
      <trkpt lat="45.91651" lon="4.66562">
        <ele>349.7912</ele>
        <time>2022-08-23T14:29:18.000Z</time>
      </trkpt>
      <trkpt lat="45.91654" lon="4.6656">
        <ele>349.65015</ele>
        <time>2022-08-23T14:29:19.000Z</time>
      </trkpt>
      <trkpt lat="45.91657" lon="4.66557">
        <ele>349.49158</ele>
        <time>2022-08-23T14:29:20.000Z</time>
      </trkpt>
      <trkpt lat="45.9166" lon="4.66555">
        <ele>349.40338</ele>
        <time>2022-08-23T14:29:21.000Z</time>
      </trkpt>
      <trkpt lat="45.91663" lon="4.66554">
        <ele>349.32303</ele>
        <time>2022-08-23T14:29:22.000Z</time>
      </trkpt>
      <trkpt lat="45.91666" lon="4.66552">
        <ele>349.27188</ele>
        <time>2022-08-23T14:29:23.000Z</time>
      </trkpt>
      <trkpt lat="45.91669" lon="4.6655">
        <ele>349.24423</ele>
        <time>2022-08-23T14:29:24.000Z</time>
      </trkpt>
      <trkpt lat="45.91672" lon="4.6655">
        <ele>349.1427</ele>
        <time>2022-08-23T14:29:25.000Z</time>
      </trkpt>
      <trkpt lat="45.91674" lon="4.66549">
        <ele>349.04025</ele>
        <time>2022-08-23T14:29:26.000Z</time>
      </trkpt>
      <trkpt lat="45.91676" lon="4.66548">
        <ele>348.95123</ele>
        <time>2022-08-23T14:29:27.000Z</time>
      </trkpt>
      <trkpt lat="45.91678" lon="4.66547">
        <ele>348.89261</ele>
        <time>2022-08-23T14:29:28.000Z</time>
      </trkpt>
      <trkpt lat="45.9168" lon="4.66546">
        <ele>348.76181</ele>
        <time>2022-08-23T14:29:29.000Z</time>
      </trkpt>
      <trkpt lat="45.91683" lon="4.66545">
        <ele>348.73288</ele>
        <time>2022-08-23T14:29:30.000Z</time>
      </trkpt>
      <trkpt lat="45.91685" lon="4.66544">
        <ele>348.78357</ele>
        <time>2022-08-23T14:29:31.000Z</time>
      </trkpt>
      <trkpt lat="45.91688" lon="4.66543">
        <ele>348.89056</ele>
        <time>2022-08-23T14:29:32.000Z</time>
      </trkpt>
      <trkpt lat="45.91691" lon="4.66543">
        <ele>348.91187</ele>
        <time>2022-08-23T14:29:33.000Z</time>
      </trkpt>
      <trkpt lat="45.91693" lon="4.66542">
        <ele>348.91501</ele>
        <time>2022-08-23T14:29:34.000Z</time>
      </trkpt>
      <trkpt lat="45.91696" lon="4.66541">
        <ele>348.94189</ele>
        <time>2022-08-23T14:29:35.000Z</time>
      </trkpt>
      <trkpt lat="45.91698" lon="4.66541">
        <ele>348.89404</ele>
        <time>2022-08-23T14:29:36.000Z</time>
      </trkpt>
      <trkpt lat="45.917" lon="4.6654">
        <ele>348.85883</ele>
        <time>2022-08-23T14:29:37.000Z</time>
      </trkpt>
      <trkpt lat="45.91703" lon="4.66539">
        <ele>348.82199</ele>
        <time>2022-08-23T14:29:38.000Z</time>
      </trkpt>
      <trkpt lat="45.91706" lon="4.66538">
        <ele>348.7518</ele>
        <time>2022-08-23T14:29:39.000Z</time>
      </trkpt>
      <trkpt lat="45.91709" lon="4.66538">
        <ele>348.63446</ele>
        <time>2022-08-23T14:29:40.000Z</time>
      </trkpt>
      <trkpt lat="45.91713" lon="4.66538">
        <ele>348.52164</ele>
        <time>2022-08-23T14:29:41.000Z</time>
      </trkpt>
      <trkpt lat="45.91716" lon="4.66538">
        <ele>348.42062</ele>
        <time>2022-08-23T14:29:42.000Z</time>
      </trkpt>
      <trkpt lat="45.91719" lon="4.66538">
        <ele>348.33405</ele>
        <time>2022-08-23T14:29:43.000Z</time>
      </trkpt>
      <trkpt lat="45.91722" lon="4.66538">
        <ele>348.2272</ele>
        <time>2022-08-23T14:29:44.000Z</time>
      </trkpt>
      <trkpt lat="45.91725" lon="4.66538">
        <ele>348.21747</ele>
        <time>2022-08-23T14:29:45.000Z</time>
      </trkpt>
      <trkpt lat="45.91728" lon="4.66537">
        <ele>348.24677</ele>
        <time>2022-08-23T14:29:46.000Z</time>
      </trkpt>
      <trkpt lat="45.91731" lon="4.66537">
        <ele>348.26907</ele>
        <time>2022-08-23T14:29:47.000Z</time>
      </trkpt>
      <trkpt lat="45.91734" lon="4.66537">
        <ele>348.2641</ele>
        <time>2022-08-23T14:29:48.000Z</time>
      </trkpt>
      <trkpt lat="45.91736" lon="4.66537">
        <ele>348.27914</ele>
        <time>2022-08-23T14:29:49.000Z</time>
      </trkpt>
      <trkpt lat="45.91739" lon="4.66537">
        <ele>348.13766</ele>
        <time>2022-08-23T14:29:50.000Z</time>
      </trkpt>
      <trkpt lat="45.91742" lon="4.66537">
        <ele>347.89032</ele>
        <time>2022-08-23T14:29:51.000Z</time>
      </trkpt>
      <trkpt lat="45.91745" lon="4.66538">
        <ele>347.61319</ele>
        <time>2022-08-23T14:29:52.000Z</time>
      </trkpt>
      <trkpt lat="45.91749" lon="4.66538">
        <ele>347.45901</ele>
        <time>2022-08-23T14:29:53.000Z</time>
      </trkpt>
      <trkpt lat="45.91752" lon="4.66539">
        <ele>347.28976</ele>
        <time>2022-08-23T14:29:54.000Z</time>
      </trkpt>
      <trkpt lat="45.91755" lon="4.6654">
        <ele>347.10648</ele>
        <time>2022-08-23T14:29:55.000Z</time>
      </trkpt>
      <trkpt lat="45.91758" lon="4.66541">
        <ele>346.94089</ele>
        <time>2022-08-23T14:29:56.000Z</time>
      </trkpt>
      <trkpt lat="45.9176" lon="4.66541">
        <ele>346.78192</ele>
        <time>2022-08-23T14:29:57.000Z</time>
      </trkpt>
      <trkpt lat="45.91763" lon="4.66542">
        <ele>346.63248</ele>
        <time>2022-08-23T14:29:58.000Z</time>
      </trkpt>
      <trkpt lat="45.91766" lon="4.66544">
        <ele>346.47308</ele>
        <time>2022-08-23T14:29:59.000Z</time>
      </trkpt>
      <trkpt lat="45.91769" lon="4.66547">
        <ele>346.30545</ele>
        <time>2022-08-23T14:30:00.000Z</time>
      </trkpt>
      <trkpt lat="45.91772" lon="4.6655">
        <ele>346.0625</ele>
        <time>2022-08-23T14:30:01.000Z</time>
      </trkpt>
      <trkpt lat="45.91774" lon="4.66554">
        <ele>345.84576</ele>
        <time>2022-08-23T14:30:02.000Z</time>
      </trkpt>
      <trkpt lat="45.91777" lon="4.66557">
        <ele>345.53876</ele>
        <time>2022-08-23T14:30:03.000Z</time>
      </trkpt>
      <trkpt lat="45.9178" lon="4.66561">
        <ele>345.28046</ele>
        <time>2022-08-23T14:30:04.000Z</time>
      </trkpt>
      <trkpt lat="45.91782" lon="4.66565">
        <ele>344.9827</ele>
        <time>2022-08-23T14:30:05.000Z</time>
      </trkpt>
      <trkpt lat="45.91784" lon="4.66569">
        <ele>344.67291</ele>
        <time>2022-08-23T14:30:06.000Z</time>
      </trkpt>
      <trkpt lat="45.91787" lon="4.66572">
        <ele>344.4314</ele>
        <time>2022-08-23T14:30:07.000Z</time>
      </trkpt>
      <trkpt lat="45.91789" lon="4.66575">
        <ele>344.17331</ele>
        <time>2022-08-23T14:30:08.000Z</time>
      </trkpt>
      <trkpt lat="45.91792" lon="4.66579">
        <ele>343.90912</ele>
        <time>2022-08-23T14:30:09.000Z</time>
      </trkpt>
      <trkpt lat="45.91795" lon="4.66582">
        <ele>343.75323</ele>
        <time>2022-08-23T14:30:10.000Z</time>
      </trkpt>
      <trkpt lat="45.91797" lon="4.66585">
        <ele>343.66739</ele>
        <time>2022-08-23T14:30:11.000Z</time>
      </trkpt>
      <trkpt lat="45.918" lon="4.66588">
        <ele>343.52231</ele>
        <time>2022-08-23T14:30:12.000Z</time>
      </trkpt>
      <trkpt lat="45.91802" lon="4.66591">
        <ele>343.26553</ele>
        <time>2022-08-23T14:30:13.000Z</time>
      </trkpt>
      <trkpt lat="45.91804" lon="4.66595">
        <ele>342.98065</ele>
        <time>2022-08-23T14:30:14.000Z</time>
      </trkpt>
      <trkpt lat="45.91806" lon="4.66598">
        <ele>342.71997</ele>
        <time>2022-08-23T14:30:15.000Z</time>
      </trkpt>
      <trkpt lat="45.91808" lon="4.666">
        <ele>342.49908</ele>
        <time>2022-08-23T14:30:16.000Z</time>
      </trkpt>
      <trkpt lat="45.9181" lon="4.66602">
        <ele>342.30524</ele>
        <time>2022-08-23T14:30:17.000Z</time>
      </trkpt>
      <trkpt lat="45.91812" lon="4.66604">
        <ele>342.14008</ele>
        <time>2022-08-23T14:30:18.000Z</time>
      </trkpt>
      <trkpt lat="45.91814" lon="4.66607">
        <ele>341.95715</ele>
        <time>2022-08-23T14:30:19.000Z</time>
      </trkpt>
      <trkpt lat="45.91816" lon="4.66609">
        <ele>341.82501</ele>
        <time>2022-08-23T14:30:20.000Z</time>
      </trkpt>
      <trkpt lat="45.91819" lon="4.66611">
        <ele>341.74603</ele>
        <time>2022-08-23T14:30:21.000Z</time>
      </trkpt>
      <trkpt lat="45.91821" lon="4.66613">
        <ele>341.59613</ele>
        <time>2022-08-23T14:30:22.000Z</time>
      </trkpt>
      <trkpt lat="45.91823" lon="4.66616">
        <ele>341.55283</ele>
        <time>2022-08-23T14:30:23.000Z</time>
      </trkpt>
      <trkpt lat="45.91826" lon="4.66619">
        <ele>341.3757</ele>
        <time>2022-08-23T14:30:24.000Z</time>
      </trkpt>
      <trkpt lat="45.91829" lon="4.66621">
        <ele>341.30215</ele>
        <time>2022-08-23T14:30:25.000Z</time>
      </trkpt>
      <trkpt lat="45.91831" lon="4.66624">
        <ele>341.31931</ele>
        <time>2022-08-23T14:30:26.000Z</time>
      </trkpt>
      <trkpt lat="45.91833" lon="4.66628">
        <ele>341.24991</ele>
        <time>2022-08-23T14:30:27.000Z</time>
      </trkpt>
      <trkpt lat="45.91835" lon="4.66631">
        <ele>341.28604</ele>
        <time>2022-08-23T14:30:28.000Z</time>
      </trkpt>
      <trkpt lat="45.91838" lon="4.66635">
        <ele>341.34491</ele>
        <time>2022-08-23T14:30:29.000Z</time>
      </trkpt>
      <trkpt lat="45.9184" lon="4.66638">
        <ele>341.33817</ele>
        <time>2022-08-23T14:30:30.000Z</time>
      </trkpt>
      <trkpt lat="45.91842" lon="4.66641">
        <ele>341.36908</ele>
        <time>2022-08-23T14:30:31.000Z</time>
      </trkpt>
      <trkpt lat="45.91845" lon="4.66644">
        <ele>341.45074</ele>
        <time>2022-08-23T14:30:32.000Z</time>
      </trkpt>
      <trkpt lat="45.91847" lon="4.66647">
        <ele>341.67719</ele>
        <time>2022-08-23T14:30:33.000Z</time>
      </trkpt>
      <trkpt lat="45.9185" lon="4.66649">
        <ele>341.97778</ele>
        <time>2022-08-23T14:30:34.000Z</time>
      </trkpt>
      <trkpt lat="45.91853" lon="4.66651">
        <ele>342.31525</ele>
        <time>2022-08-23T14:30:35.000Z</time>
      </trkpt>
      <trkpt lat="45.91855" lon="4.66652">
        <ele>342.64719</ele>
        <time>2022-08-23T14:30:36.000Z</time>
      </trkpt>
      <trkpt lat="45.91858" lon="4.66652">
        <ele>342.94034</ele>
        <time>2022-08-23T14:30:37.000Z</time>
      </trkpt>
      <trkpt lat="45.91861" lon="4.66653">
        <ele>343.22995</ele>
        <time>2022-08-23T14:30:38.000Z</time>
      </trkpt>
      <trkpt lat="45.91865" lon="4.66652">
        <ele>343.55182</ele>
        <time>2022-08-23T14:30:39.000Z</time>
      </trkpt>
      <trkpt lat="45.91867" lon="4.66653">
        <ele>343.94006</ele>
        <time>2022-08-23T14:30:40.000Z</time>
      </trkpt>
      <trkpt lat="45.91871" lon="4.66654">
        <ele>344.40045</ele>
        <time>2022-08-23T14:30:42.000Z</time>
      </trkpt>
      <trkpt lat="45.91873" lon="4.66654">
        <ele>344.90976</ele>
        <time>2022-08-23T14:30:43.000Z</time>
      </trkpt>
      <trkpt lat="45.91876" lon="4.66654">
        <ele>345.23215</ele>
        <time>2022-08-23T14:30:44.000Z</time>
      </trkpt>
      <trkpt lat="45.9188" lon="4.66656">
        <ele>345.50763</ele>
        <time>2022-08-23T14:30:45.000Z</time>
      </trkpt>
      <trkpt lat="45.91885" lon="4.66657">
        <ele>345.63269</ele>
        <time>2022-08-23T14:30:46.000Z</time>
      </trkpt>
      <trkpt lat="45.91889" lon="4.66659">
        <ele>345.63141</ele>
        <time>2022-08-23T14:30:47.000Z</time>
      </trkpt>
      <trkpt lat="45.91893" lon="4.66662">
        <ele>345.72943</ele>
        <time>2022-08-23T14:30:48.000Z</time>
      </trkpt>
      <trkpt lat="45.91896" lon="4.66666">
        <ele>345.64459</ele>
        <time>2022-08-23T14:30:49.000Z</time>
      </trkpt>
      <trkpt lat="45.91899" lon="4.66669">
        <ele>345.50662</ele>
        <time>2022-08-23T14:30:50.000Z</time>
      </trkpt>
      <trkpt lat="45.91903" lon="4.66672">
        <ele>345.30829</ele>
        <time>2022-08-23T14:30:51.000Z</time>
      </trkpt>
      <trkpt lat="45.91906" lon="4.66674">
        <ele>345.00006</ele>
        <time>2022-08-23T14:30:52.000Z</time>
      </trkpt>
      <trkpt lat="45.91909" lon="4.66677">
        <ele>344.6142</ele>
        <time>2022-08-23T14:30:53.000Z</time>
      </trkpt>
      <trkpt lat="45.91912" lon="4.6668">
        <ele>344.13092</ele>
        <time>2022-08-23T14:30:54.000Z</time>
      </trkpt>
      <trkpt lat="45.91915" lon="4.66682">
        <ele>343.63101</ele>
        <time>2022-08-23T14:30:55.000Z</time>
      </trkpt>
      <trkpt lat="45.91918" lon="4.66684">
        <ele>343.01489</ele>
        <time>2022-08-23T14:30:56.000Z</time>
      </trkpt>
      <trkpt lat="45.91922" lon="4.66686">
        <ele>342.40045</ele>
        <time>2022-08-23T14:30:57.000Z</time>
      </trkpt>
      <trkpt lat="45.91925" lon="4.66688">
        <ele>341.80508</ele>
        <time>2022-08-23T14:30:58.000Z</time>
      </trkpt>
      <trkpt lat="45.91928" lon="4.66691">
        <ele>341.22345</ele>
        <time>2022-08-23T14:30:59.000Z</time>
      </trkpt>
      <trkpt lat="45.91932" lon="4.66693">
        <ele>340.80219</ele>
        <time>2022-08-23T14:31:00.000Z</time>
      </trkpt>
      <trkpt lat="45.91936" lon="4.66697">
        <ele>340.21878</ele>
        <time>2022-08-23T14:31:01.000Z</time>
      </trkpt>
      <trkpt lat="45.91939" lon="4.667">
        <ele>339.63104</ele>
        <time>2022-08-23T14:31:02.000Z</time>
      </trkpt>
      <trkpt lat="45.91942" lon="4.66702">
        <ele>339.07974</ele>
        <time>2022-08-23T14:31:03.000Z</time>
      </trkpt>
      <trkpt lat="45.91945" lon="4.66703">
        <ele>338.70914</ele>
        <time>2022-08-23T14:31:04.000Z</time>
      </trkpt>
      <trkpt lat="45.91949" lon="4.66702">
        <ele>338.45227</ele>
        <time>2022-08-23T14:31:06.000Z</time>
      </trkpt>
      <trkpt lat="45.91953" lon="4.66704">
        <ele>338.23578</ele>
        <time>2022-08-23T14:31:07.000Z</time>
      </trkpt>
      <trkpt lat="45.91956" lon="4.66707">
        <ele>338.06525</ele>
        <time>2022-08-23T14:31:08.000Z</time>
      </trkpt>
      <trkpt lat="45.9196" lon="4.6671">
        <ele>337.81161</ele>
        <time>2022-08-23T14:31:09.000Z</time>
      </trkpt>
      <trkpt lat="45.91963" lon="4.66713">
        <ele>337.60699</ele>
        <time>2022-08-23T14:31:10.000Z</time>
      </trkpt>
      <trkpt lat="45.91966" lon="4.66715">
        <ele>337.50128</ele>
        <time>2022-08-23T14:31:11.000Z</time>
      </trkpt>
      <trkpt lat="45.91969" lon="4.66717">
        <ele>337.46591</ele>
        <time>2022-08-23T14:31:12.000Z</time>
      </trkpt>
      <trkpt lat="45.91972" lon="4.6672">
        <ele>337.48703</ele>
        <time>2022-08-23T14:31:13.000Z</time>
      </trkpt>
      <trkpt lat="45.91975" lon="4.66723">
        <ele>337.6192</ele>
        <time>2022-08-23T14:31:14.000Z</time>
      </trkpt>
      <trkpt lat="45.91979" lon="4.66726">
        <ele>337.85019</ele>
        <time>2022-08-23T14:31:15.000Z</time>
      </trkpt>
      <trkpt lat="45.91983" lon="4.66728">
        <ele>338.20529</ele>
        <time>2022-08-23T14:31:16.000Z</time>
      </trkpt>
      <trkpt lat="45.91986" lon="4.66729">
        <ele>338.5943</ele>
        <time>2022-08-23T14:31:17.000Z</time>
      </trkpt>
      <trkpt lat="45.9199" lon="4.66731">
        <ele>338.87729</ele>
        <time>2022-08-23T14:31:18.000Z</time>
      </trkpt>
      <trkpt lat="45.91994" lon="4.66732">
        <ele>339.18515</ele>
        <time>2022-08-23T14:31:19.000Z</time>
      </trkpt>
      <trkpt lat="45.91998" lon="4.66734">
        <ele>339.5372</ele>
        <time>2022-08-23T14:31:20.000Z</time>
      </trkpt>
      <trkpt lat="45.92002" lon="4.66736">
        <ele>339.69373</ele>
        <time>2022-08-23T14:31:21.000Z</time>
      </trkpt>
      <trkpt lat="45.92007" lon="4.66738">
        <ele>340.00946</ele>
        <time>2022-08-23T14:31:22.000Z</time>
      </trkpt>
      <trkpt lat="45.92031" lon="4.66753">
        <ele>340.28555</ele>
        <time>2022-08-23T14:31:28.000Z</time>
      </trkpt>
      <trkpt lat="45.92035" lon="4.66755">
        <ele>340.51291</ele>
        <time>2022-08-23T14:31:29.000Z</time>
      </trkpt>
      <trkpt lat="45.92038" lon="4.66756">
        <ele>340.71024</ele>
        <time>2022-08-23T14:31:30.000Z</time>
      </trkpt>
      <trkpt lat="45.92041" lon="4.66757">
        <ele>340.8786</ele>
        <time>2022-08-23T14:31:31.000Z</time>
      </trkpt>
      <trkpt lat="45.92044" lon="4.6676">
        <ele>341.1384</ele>
        <time>2022-08-23T14:31:32.000Z</time>
      </trkpt>
      <trkpt lat="45.92047" lon="4.66763">
        <ele>341.45779</ele>
        <time>2022-08-23T14:31:33.000Z</time>
      </trkpt>
      <trkpt lat="45.9205" lon="4.66768">
        <ele>341.84531</ele>
        <time>2022-08-23T14:31:34.000Z</time>
      </trkpt>
      <trkpt lat="45.92052" lon="4.66772">
        <ele>342.27228</ele>
        <time>2022-08-23T14:31:35.000Z</time>
      </trkpt>
      <trkpt lat="45.92055" lon="4.66777">
        <ele>342.6358</ele>
        <time>2022-08-23T14:31:36.000Z</time>
      </trkpt>
      <trkpt lat="45.92058" lon="4.66781">
        <ele>342.98849</ele>
        <time>2022-08-23T14:31:37.000Z</time>
      </trkpt>
      <trkpt lat="45.9206" lon="4.66785">
        <ele>343.38702</ele>
        <time>2022-08-23T14:31:38.000Z</time>
      </trkpt>
      <trkpt lat="45.92063" lon="4.66789">
        <ele>343.64987</ele>
        <time>2022-08-23T14:31:39.000Z</time>
      </trkpt>
      <trkpt lat="45.92066" lon="4.66792">
        <ele>343.74911</ele>
        <time>2022-08-23T14:31:40.000Z</time>
      </trkpt>
      <trkpt lat="45.92069" lon="4.66794">
        <ele>343.62695</ele>
        <time>2022-08-23T14:31:41.000Z</time>
      </trkpt>
      <trkpt lat="45.9207" lon="4.66797">
        <ele>343.51001</ele>
        <time>2022-08-23T14:31:42.000Z</time>
      </trkpt>
      <trkpt lat="45.92071" lon="4.66801">
        <ele>343.48242</ele>
        <time>2022-08-23T14:31:43.000Z</time>
      </trkpt>
      <trkpt lat="45.92071" lon="4.66806">
        <ele>343.42221</ele>
        <time>2022-08-23T14:31:44.000Z</time>
      </trkpt>
      <trkpt lat="45.92069" lon="4.6681">
        <ele>343.28461</ele>
        <time>2022-08-23T14:31:45.000Z</time>
      </trkpt>
      <trkpt lat="45.92067" lon="4.66813">
        <ele>343.229</ele>
        <time>2022-08-23T14:31:46.000Z</time>
      </trkpt>
      <trkpt lat="45.92064" lon="4.66816">
        <ele>342.9809</ele>
        <time>2022-08-23T14:31:47.000Z</time>
      </trkpt>
      <trkpt lat="45.92062" lon="4.66819">
        <ele>342.78876</ele>
        <time>2022-08-23T14:31:48.000Z</time>
      </trkpt>
      <trkpt lat="45.9206" lon="4.66822">
        <ele>342.69232</ele>
        <time>2022-08-23T14:31:49.000Z</time>
      </trkpt>
      <trkpt lat="45.92057" lon="4.66825">
        <ele>342.57523</ele>
        <time>2022-08-23T14:31:50.000Z</time>
      </trkpt>
      <trkpt lat="45.92055" lon="4.66828">
        <ele>342.51398</ele>
        <time>2022-08-23T14:31:51.000Z</time>
      </trkpt>
      <trkpt lat="45.92052" lon="4.66831">
        <ele>342.38223</ele>
        <time>2022-08-23T14:31:52.000Z</time>
      </trkpt>
      <trkpt lat="45.92049" lon="4.66835">
        <ele>342.17157</ele>
        <time>2022-08-23T14:31:53.000Z</time>
      </trkpt>
      <trkpt lat="45.92046" lon="4.66839">
        <ele>341.87781</ele>
        <time>2022-08-23T14:31:54.000Z</time>
      </trkpt>
      <trkpt lat="45.92044" lon="4.66842">
        <ele>341.61139</ele>
        <time>2022-08-23T14:31:55.000Z</time>
      </trkpt>
      <trkpt lat="45.92041" lon="4.66846">
        <ele>341.38971</ele>
        <time>2022-08-23T14:31:56.000Z</time>
      </trkpt>
      <trkpt lat="45.92039" lon="4.66849">
        <ele>341.15985</ele>
        <time>2022-08-23T14:31:57.000Z</time>
      </trkpt>
      <trkpt lat="45.92037" lon="4.66853">
        <ele>340.78946</ele>
        <time>2022-08-23T14:31:58.000Z</time>
      </trkpt>
      <trkpt lat="45.92035" lon="4.66856">
        <ele>340.51663</ele>
        <time>2022-08-23T14:31:59.000Z</time>
      </trkpt>
      <trkpt lat="45.92032" lon="4.6686">
        <ele>340.35034</ele>
        <time>2022-08-23T14:32:00.000Z</time>
      </trkpt>
      <trkpt lat="45.9203" lon="4.66864">
        <ele>340.23947</ele>
        <time>2022-08-23T14:32:01.000Z</time>
      </trkpt>
      <trkpt lat="45.92028" lon="4.66868">
        <ele>340.11139</ele>
        <time>2022-08-23T14:32:02.000Z</time>
      </trkpt>
      <trkpt lat="45.92026" lon="4.66873">
        <ele>339.96429</ele>
        <time>2022-08-23T14:32:03.000Z</time>
      </trkpt>
      <trkpt lat="45.92024" lon="4.66877">
        <ele>339.79364</ele>
        <time>2022-08-23T14:32:04.000Z</time>
      </trkpt>
      <trkpt lat="45.92021" lon="4.66882">
        <ele>339.64578</ele>
        <time>2022-08-23T14:32:05.000Z</time>
      </trkpt>
      <trkpt lat="45.92019" lon="4.66887">
        <ele>339.4288</ele>
        <time>2022-08-23T14:32:06.000Z</time>
      </trkpt>
      <trkpt lat="45.92016" lon="4.66892">
        <ele>339.33954</ele>
        <time>2022-08-23T14:32:07.000Z</time>
      </trkpt>
      <trkpt lat="45.92013" lon="4.66897">
        <ele>339.22205</ele>
        <time>2022-08-23T14:32:08.000Z</time>
      </trkpt>
      <trkpt lat="45.92011" lon="4.66903">
        <ele>338.97455</ele>
        <time>2022-08-23T14:32:09.000Z</time>
      </trkpt>
      <trkpt lat="45.92007" lon="4.66909">
        <ele>338.74319</ele>
        <time>2022-08-23T14:32:10.000Z</time>
      </trkpt>
      <trkpt lat="45.92003" lon="4.66914">
        <ele>338.57135</ele>
        <time>2022-08-23T14:32:11.000Z</time>
      </trkpt>
      <trkpt lat="45.91999" lon="4.66921">
        <ele>338.39038</ele>
        <time>2022-08-23T14:32:12.000Z</time>
      </trkpt>
      <trkpt lat="45.91996" lon="4.66927">
        <ele>338.23663</ele>
        <time>2022-08-23T14:32:13.000Z</time>
      </trkpt>
      <trkpt lat="45.91993" lon="4.66933">
        <ele>338.12546</ele>
        <time>2022-08-23T14:32:14.000Z</time>
      </trkpt>
      <trkpt lat="45.9199" lon="4.66938">
        <ele>338.05801</ele>
        <time>2022-08-23T14:32:15.000Z</time>
      </trkpt>
      <trkpt lat="45.91987" lon="4.66946">
        <ele>337.86176</ele>
        <time>2022-08-23T14:32:16.000Z</time>
      </trkpt>
      <trkpt lat="45.91982" lon="4.66952">
        <ele>337.6785</ele>
        <time>2022-08-23T14:32:17.000Z</time>
      </trkpt>
      <trkpt lat="45.91979" lon="4.66959">
        <ele>337.54913</ele>
        <time>2022-08-23T14:32:18.000Z</time>
      </trkpt>
      <trkpt lat="45.91975" lon="4.66965">
        <ele>337.38181</ele>
        <time>2022-08-23T14:32:19.000Z</time>
      </trkpt>
      <trkpt lat="45.91971" lon="4.66971">
        <ele>337.22003</ele>
        <time>2022-08-23T14:32:20.000Z</time>
      </trkpt>
      <trkpt lat="45.91968" lon="4.66978">
        <ele>337.06659</ele>
        <time>2022-08-23T14:32:21.000Z</time>
      </trkpt>
      <trkpt lat="45.91963" lon="4.66982">
        <ele>336.93262</ele>
        <time>2022-08-23T14:32:22.000Z</time>
      </trkpt>
      <trkpt lat="45.91959" lon="4.66986">
        <ele>336.78583</ele>
        <time>2022-08-23T14:32:23.000Z</time>
      </trkpt>
      <trkpt lat="45.91954" lon="4.6699">
        <ele>336.72516</ele>
        <time>2022-08-23T14:32:24.000Z</time>
      </trkpt>
      <trkpt lat="45.91947" lon="4.66996">
        <ele>336.66937</ele>
        <time>2022-08-23T14:32:25.000Z</time>
      </trkpt>
      <trkpt lat="45.91942" lon="4.66999">
        <ele>336.6467</ele>
        <time>2022-08-23T14:32:26.000Z</time>
      </trkpt>
      <trkpt lat="45.91935" lon="4.67004">
        <ele>336.56</ele>
        <time>2022-08-23T14:32:27.000Z</time>
      </trkpt>
      <trkpt lat="45.9193" lon="4.67006">
        <ele>336.49149</ele>
        <time>2022-08-23T14:32:28.000Z</time>
      </trkpt>
      <trkpt lat="45.91922" lon="4.67008">
        <ele>336.51468</ele>
        <time>2022-08-23T14:32:29.000Z</time>
      </trkpt>
      <trkpt lat="45.91917" lon="4.67012">
        <ele>336.50641</ele>
        <time>2022-08-23T14:32:30.000Z</time>
      </trkpt>
      <trkpt lat="45.91912" lon="4.67012">
        <ele>336.50653</ele>
        <time>2022-08-23T14:32:31.000Z</time>
      </trkpt>
      <trkpt lat="45.91907" lon="4.67013">
        <ele>336.57733</ele>
        <time>2022-08-23T14:32:32.000Z</time>
      </trkpt>
      <trkpt lat="45.91902" lon="4.67016">
        <ele>336.64386</ele>
        <time>2022-08-23T14:32:33.000Z</time>
      </trkpt>
      <trkpt lat="45.91896" lon="4.67017">
        <ele>336.63998</ele>
        <time>2022-08-23T14:32:34.000Z</time>
      </trkpt>
      <trkpt lat="45.91891" lon="4.67015">
        <ele>336.66785</ele>
        <time>2022-08-23T14:32:35.000Z</time>
      </trkpt>
      <trkpt lat="45.91887" lon="4.67015">
        <ele>336.76971</ele>
        <time>2022-08-23T14:32:36.000Z</time>
      </trkpt>
      <trkpt lat="45.91882" lon="4.67014">
        <ele>336.98672</ele>
        <time>2022-08-23T14:32:37.000Z</time>
      </trkpt>
      <trkpt lat="45.91877" lon="4.67014">
        <ele>337.22223</ele>
        <time>2022-08-23T14:32:38.000Z</time>
      </trkpt>
      <trkpt lat="45.91873" lon="4.67015">
        <ele>337.47711</ele>
        <time>2022-08-23T14:32:39.000Z</time>
      </trkpt>
      <trkpt lat="45.91869" lon="4.67016">
        <ele>337.66104</ele>
        <time>2022-08-23T14:32:40.000Z</time>
      </trkpt>
      <trkpt lat="45.91865" lon="4.67019">
        <ele>337.84692</ele>
        <time>2022-08-23T14:32:41.000Z</time>
      </trkpt>
      <trkpt lat="45.91863" lon="4.67022">
        <ele>338.06271</ele>
        <time>2022-08-23T14:32:42.000Z</time>
      </trkpt>
      <trkpt lat="45.91859" lon="4.67026">
        <ele>338.36383</ele>
        <time>2022-08-23T14:32:43.000Z</time>
      </trkpt>
      <trkpt lat="45.91856" lon="4.67029">
        <ele>338.59259</ele>
        <time>2022-08-23T14:32:44.000Z</time>
      </trkpt>
      <trkpt lat="45.91853" lon="4.67034">
        <ele>338.76111</ele>
        <time>2022-08-23T14:32:45.000Z</time>
      </trkpt>
      <trkpt lat="45.9185" lon="4.67038">
        <ele>338.94373</ele>
        <time>2022-08-23T14:32:46.000Z</time>
      </trkpt>
      <trkpt lat="45.91846" lon="4.67046">
        <ele>339.13721</ele>
        <time>2022-08-23T14:32:47.000Z</time>
      </trkpt>
      <trkpt lat="45.91846" lon="4.67051">
        <ele>339.341</ele>
        <time>2022-08-23T14:32:48.000Z</time>
      </trkpt>
      <trkpt lat="45.91843" lon="4.67058">
        <ele>339.55185</ele>
        <time>2022-08-23T14:32:49.000Z</time>
      </trkpt>
      <trkpt lat="45.91842" lon="4.67064">
        <ele>339.80371</ele>
        <time>2022-08-23T14:32:50.000Z</time>
      </trkpt>
      <trkpt lat="45.9184" lon="4.67071">
        <ele>339.96149</ele>
        <time>2022-08-23T14:32:51.000Z</time>
      </trkpt>
      <trkpt lat="45.91839" lon="4.67077">
        <ele>340.09442</ele>
        <time>2022-08-23T14:32:52.000Z</time>
      </trkpt>
      <trkpt lat="45.91838" lon="4.67083">
        <ele>340.11856</ele>
        <time>2022-08-23T14:32:53.000Z</time>
      </trkpt>
      <trkpt lat="45.91838" lon="4.67089">
        <ele>340.20135</ele>
        <time>2022-08-23T14:32:54.000Z</time>
      </trkpt>
      <trkpt lat="45.91837" lon="4.67095">
        <ele>340.25241</ele>
        <time>2022-08-23T14:32:55.000Z</time>
      </trkpt>
      <trkpt lat="45.91836" lon="4.67102">
        <ele>340.34473</ele>
        <time>2022-08-23T14:32:56.000Z</time>
      </trkpt>
      <trkpt lat="45.91835" lon="4.67107">
        <ele>340.34482</ele>
        <time>2022-08-23T14:32:57.000Z</time>
      </trkpt>
      <trkpt lat="45.91835" lon="4.67115">
        <ele>340.31332</ele>
        <time>2022-08-23T14:32:58.000Z</time>
      </trkpt>
      <trkpt lat="45.91833" lon="4.67123">
        <ele>340.25089</ele>
        <time>2022-08-23T14:32:59.000Z</time>
      </trkpt>
      <trkpt lat="45.91831" lon="4.6713">
        <ele>340.26367</ele>
        <time>2022-08-23T14:33:00.000Z</time>
      </trkpt>
      <trkpt lat="45.91832" lon="4.67135">
        <ele>340.24118</ele>
        <time>2022-08-23T14:33:01.000Z</time>
      </trkpt>
      <trkpt lat="45.9183" lon="4.67142">
        <ele>340.17722</ele>
        <time>2022-08-23T14:33:02.000Z</time>
      </trkpt>
      <trkpt lat="45.91829" lon="4.6715">
        <ele>340.08591</ele>
        <time>2022-08-23T14:33:03.000Z</time>
      </trkpt>
      <trkpt lat="45.91826" lon="4.67156">
        <ele>340.02698</ele>
        <time>2022-08-23T14:33:04.000Z</time>
      </trkpt>
      <trkpt lat="45.91824" lon="4.6716">
        <ele>340.00491</ele>
        <time>2022-08-23T14:33:05.000Z</time>
      </trkpt>
      <trkpt lat="45.91822" lon="4.67165">
        <ele>340.00055</ele>
        <time>2022-08-23T14:33:06.000Z</time>
      </trkpt>
      <trkpt lat="45.91821" lon="4.6717">
        <ele>340.27057</ele>
        <time>2022-08-23T14:33:07.000Z</time>
      </trkpt>
      <trkpt lat="45.91819" lon="4.67175">
        <ele>340.49017</ele>
        <time>2022-08-23T14:33:08.000Z</time>
      </trkpt>
      <trkpt lat="45.91817" lon="4.67178">
        <ele>340.64642</ele>
        <time>2022-08-23T14:33:09.000Z</time>
      </trkpt>
      <trkpt lat="45.91816" lon="4.67181">
        <ele>340.77496</ele>
        <time>2022-08-23T14:33:10.000Z</time>
      </trkpt>
      <trkpt lat="45.91814" lon="4.67185">
        <ele>340.9205</ele>
        <time>2022-08-23T14:33:11.000Z</time>
      </trkpt>
      <trkpt lat="45.91813" lon="4.67188">
        <ele>341.06824</ele>
        <time>2022-08-23T14:33:12.000Z</time>
      </trkpt>
      <trkpt lat="45.9181" lon="4.67191">
        <ele>341.28476</ele>
        <time>2022-08-23T14:33:13.000Z</time>
      </trkpt>
      <trkpt lat="45.91808" lon="4.67195">
        <ele>341.5473</ele>
        <time>2022-08-23T14:33:14.000Z</time>
      </trkpt>
      <trkpt lat="45.91807" lon="4.67198">
        <ele>341.84723</ele>
        <time>2022-08-23T14:33:15.000Z</time>
      </trkpt>
      <trkpt lat="45.91806" lon="4.67202">
        <ele>342.10297</ele>
        <time>2022-08-23T14:33:16.000Z</time>
      </trkpt>
      <trkpt lat="45.91806" lon="4.67205">
        <ele>342.39032</ele>
        <time>2022-08-23T14:33:17.000Z</time>
      </trkpt>
      <trkpt lat="45.91807" lon="4.67209">
        <ele>342.67459</ele>
        <time>2022-08-23T14:33:18.000Z</time>
      </trkpt>
      <trkpt lat="45.9181" lon="4.67212">
        <ele>342.97226</ele>
        <time>2022-08-23T14:33:19.000Z</time>
      </trkpt>
      <trkpt lat="45.91812" lon="4.67214">
        <ele>343.26453</ele>
        <time>2022-08-23T14:33:20.000Z</time>
      </trkpt>
      <trkpt lat="45.91815" lon="4.67218">
        <ele>343.65665</ele>
        <time>2022-08-23T14:33:21.000Z</time>
      </trkpt>
      <trkpt lat="45.91817" lon="4.67222">
        <ele>343.9989</ele>
        <time>2022-08-23T14:33:22.000Z</time>
      </trkpt>
      <trkpt lat="45.91818" lon="4.67226">
        <ele>344.31271</ele>
        <time>2022-08-23T14:33:23.000Z</time>
      </trkpt>
      <trkpt lat="45.91819" lon="4.67231">
        <ele>344.6138</ele>
        <time>2022-08-23T14:33:24.000Z</time>
      </trkpt>
      <trkpt lat="45.91819" lon="4.67235">
        <ele>344.88528</ele>
        <time>2022-08-23T14:33:25.000Z</time>
      </trkpt>
      <trkpt lat="45.91818" lon="4.67239">
        <ele>345.12302</ele>
        <time>2022-08-23T14:33:26.000Z</time>
      </trkpt>
      <trkpt lat="45.91817" lon="4.67243">
        <ele>345.1803</ele>
        <time>2022-08-23T14:33:27.000Z</time>
      </trkpt>
      <trkpt lat="45.91817" lon="4.67247">
        <ele>345.25974</ele>
        <time>2022-08-23T14:33:28.000Z</time>
      </trkpt>
      <trkpt lat="45.91816" lon="4.67251">
        <ele>345.33746</ele>
        <time>2022-08-23T14:33:29.000Z</time>
      </trkpt>
      <trkpt lat="45.91815" lon="4.67255">
        <ele>345.39175</ele>
        <time>2022-08-23T14:33:30.000Z</time>
      </trkpt>
      <trkpt lat="45.91814" lon="4.67259">
        <ele>345.40546</ele>
        <time>2022-08-23T14:33:31.000Z</time>
      </trkpt>
      <trkpt lat="45.91814" lon="4.67264">
        <ele>345.40738</ele>
        <time>2022-08-23T14:33:32.000Z</time>
      </trkpt>
      <trkpt lat="45.91813" lon="4.67269">
        <ele>345.44159</ele>
        <time>2022-08-23T14:33:33.000Z</time>
      </trkpt>
      <trkpt lat="45.91812" lon="4.67274">
        <ele>345.41641</ele>
        <time>2022-08-23T14:33:34.000Z</time>
      </trkpt>
      <trkpt lat="45.91812" lon="4.67279">
        <ele>345.32114</ele>
        <time>2022-08-23T14:33:35.000Z</time>
      </trkpt>
      <trkpt lat="45.91811" lon="4.67284">
        <ele>345.25629</ele>
        <time>2022-08-23T14:33:36.000Z</time>
      </trkpt>
      <trkpt lat="45.9181" lon="4.67288">
        <ele>345.15518</ele>
        <time>2022-08-23T14:33:37.000Z</time>
      </trkpt>
      <trkpt lat="45.91809" lon="4.67292">
        <ele>345.05905</ele>
        <time>2022-08-23T14:33:38.000Z</time>
      </trkpt>
      <trkpt lat="45.91808" lon="4.67297">
        <ele>344.94928</ele>
        <time>2022-08-23T14:33:39.000Z</time>
      </trkpt>
      <trkpt lat="45.91807" lon="4.67302">
        <ele>344.8598</ele>
        <time>2022-08-23T14:33:40.000Z</time>
      </trkpt>
      <trkpt lat="45.91807" lon="4.67307">
        <ele>344.62341</ele>
        <time>2022-08-23T14:33:41.000Z</time>
      </trkpt>
      <trkpt lat="45.91808" lon="4.67311">
        <ele>344.42566</ele>
        <time>2022-08-23T14:33:42.000Z</time>
      </trkpt>
      <trkpt lat="45.91809" lon="4.67315">
        <ele>344.18814</ele>
        <time>2022-08-23T14:33:43.000Z</time>
      </trkpt>
      <trkpt lat="45.91809" lon="4.67317">
        <ele>343.92804</ele>
        <time>2022-08-23T14:33:44.000Z</time>
      </trkpt>
      <trkpt lat="45.9181" lon="4.67322">
        <ele>343.68149</ele>
        <time>2022-08-23T14:33:46.000Z</time>
      </trkpt>
      <trkpt lat="45.9181" lon="4.67325">
        <ele>343.46405</ele>
        <time>2022-08-23T14:33:47.000Z</time>
      </trkpt>
      <trkpt lat="45.9181" lon="4.67329">
        <ele>343.19586</ele>
        <time>2022-08-23T14:33:48.000Z</time>
      </trkpt>
      <trkpt lat="45.9181" lon="4.67332">
        <ele>342.89465</ele>
        <time>2022-08-23T14:33:49.000Z</time>
      </trkpt>
      <trkpt lat="45.9181" lon="4.67336">
        <ele>342.57547</ele>
        <time>2022-08-23T14:33:50.000Z</time>
      </trkpt>
      <trkpt lat="45.9181" lon="4.67339">
        <ele>342.24927</ele>
        <time>2022-08-23T14:33:51.000Z</time>
      </trkpt>
      <trkpt lat="45.9181" lon="4.67343">
        <ele>341.91473</ele>
        <time>2022-08-23T14:33:52.000Z</time>
      </trkpt>
      <trkpt lat="45.9181" lon="4.67347">
        <ele>341.56146</ele>
        <time>2022-08-23T14:33:53.000Z</time>
      </trkpt>
      <trkpt lat="45.9181" lon="4.67352">
        <ele>341.11884</ele>
        <time>2022-08-23T14:33:54.000Z</time>
      </trkpt>
      <trkpt lat="45.91811" lon="4.67357">
        <ele>340.65173</ele>
        <time>2022-08-23T14:33:55.000Z</time>
      </trkpt>
      <trkpt lat="45.9181" lon="4.67362">
        <ele>340.13177</ele>
        <time>2022-08-23T14:33:56.000Z</time>
      </trkpt>
      <trkpt lat="45.91809" lon="4.67366">
        <ele>339.59665</ele>
        <time>2022-08-23T14:33:57.000Z</time>
      </trkpt>
      <trkpt lat="45.91808" lon="4.6737">
        <ele>339.09918</ele>
        <time>2022-08-23T14:33:58.000Z</time>
      </trkpt>
      <trkpt lat="45.91807" lon="4.67374">
        <ele>338.54449</ele>
        <time>2022-08-23T14:33:59.000Z</time>
      </trkpt>
      <trkpt lat="45.91804" lon="4.67378">
        <ele>338.03766</ele>
        <time>2022-08-23T14:34:00.000Z</time>
      </trkpt>
      <trkpt lat="45.91802" lon="4.67382">
        <ele>337.4964</ele>
        <time>2022-08-23T14:34:01.000Z</time>
      </trkpt>
      <trkpt lat="45.91799" lon="4.67386">
        <ele>337.04691</ele>
        <time>2022-08-23T14:34:02.000Z</time>
      </trkpt>
      <trkpt lat="45.91796" lon="4.6739">
        <ele>336.54272</ele>
        <time>2022-08-23T14:34:03.000Z</time>
      </trkpt>
      <trkpt lat="45.91793" lon="4.67395">
        <ele>336.09491</ele>
        <time>2022-08-23T14:34:04.000Z</time>
      </trkpt>
      <trkpt lat="45.91789" lon="4.674">
        <ele>335.66605</ele>
        <time>2022-08-23T14:34:05.000Z</time>
      </trkpt>
      <trkpt lat="45.91787" lon="4.67405">
        <ele>335.2659</ele>
        <time>2022-08-23T14:34:06.000Z</time>
      </trkpt>
      <trkpt lat="45.91784" lon="4.6741">
        <ele>334.82809</ele>
        <time>2022-08-23T14:34:07.000Z</time>
      </trkpt>
      <trkpt lat="45.91782" lon="4.67414">
        <ele>334.36478</ele>
        <time>2022-08-23T14:34:08.000Z</time>
      </trkpt>
      <trkpt lat="45.91781" lon="4.67417">
        <ele>333.94907</ele>
        <time>2022-08-23T14:34:09.000Z</time>
      </trkpt>
      <trkpt lat="45.9178" lon="4.67421">
        <ele>333.55313</ele>
        <time>2022-08-23T14:34:11.000Z</time>
      </trkpt>
      <trkpt lat="45.91779" lon="4.67424">
        <ele>333.20245</ele>
        <time>2022-08-23T14:34:13.000Z</time>
      </trkpt>
      <trkpt lat="45.91777" lon="4.67425">
        <ele>332.87994</ele>
        <time>2022-08-23T14:34:15.000Z</time>
      </trkpt>
      <trkpt lat="45.91776" lon="4.67428">
        <ele>332.77353</ele>
        <time>2022-08-23T14:34:21.000Z</time>
      </trkpt>
      <trkpt lat="45.91777" lon="4.67431">
        <ele>332.8952</ele>
        <time>2022-08-23T14:34:25.000Z</time>
      </trkpt>
      <trkpt lat="45.91775" lon="4.67434">
        <ele>333.15262</ele>
        <time>2022-08-23T14:34:28.000Z</time>
      </trkpt>
      <trkpt lat="45.91774" lon="4.67437">
        <ele>333.51321</ele>
        <time>2022-08-23T14:34:30.000Z</time>
      </trkpt>
      <trkpt lat="45.91774" lon="4.67441">
        <ele>333.87738</ele>
        <time>2022-08-23T14:34:32.000Z</time>
      </trkpt>
      <trkpt lat="45.91773" lon="4.67443">
        <ele>334.18335</ele>
        <time>2022-08-23T14:34:34.000Z</time>
      </trkpt>
      <trkpt lat="45.91772" lon="4.67446">
        <ele>334.6127</ele>
        <time>2022-08-23T14:34:36.000Z</time>
      </trkpt>
      <trkpt lat="45.9177" lon="4.67448">
        <ele>334.99811</ele>
        <time>2022-08-23T14:34:38.000Z</time>
      </trkpt>
      <trkpt lat="45.91768" lon="4.67451">
        <ele>335.39505</ele>
        <time>2022-08-23T14:34:40.000Z</time>
      </trkpt>
      <trkpt lat="45.91767" lon="4.67453">
        <ele>335.82541</ele>
        <time>2022-08-23T14:34:43.000Z</time>
      </trkpt>
      <trkpt lat="45.91765" lon="4.67457">
        <ele>336.27673</ele>
        <time>2022-08-23T14:34:45.000Z</time>
      </trkpt>
      <trkpt lat="45.91763" lon="4.67459">
        <ele>336.71808</ele>
        <time>2022-08-23T14:34:47.000Z</time>
      </trkpt>
      <trkpt lat="45.91763" lon="4.67463">
        <ele>337.13373</ele>
        <time>2022-08-23T14:34:49.000Z</time>
      </trkpt>
      <trkpt lat="45.91761" lon="4.67466">
        <ele>337.48734</ele>
        <time>2022-08-23T14:34:51.000Z</time>
      </trkpt>
      <trkpt lat="45.91761" lon="4.67469">
        <ele>337.85306</ele>
        <time>2022-08-23T14:34:53.000Z</time>
      </trkpt>
      <trkpt lat="45.9176" lon="4.67471">
        <ele>338.24957</ele>
        <time>2022-08-23T14:34:55.000Z</time>
      </trkpt>
      <trkpt lat="45.9176" lon="4.67475">
        <ele>338.6308</ele>
        <time>2022-08-23T14:34:57.000Z</time>
      </trkpt>
      <trkpt lat="45.91761" lon="4.67478">
        <ele>339.02191</ele>
        <time>2022-08-23T14:35:02.000Z</time>
      </trkpt>
      <trkpt lat="45.91761" lon="4.67482">
        <ele>339.42322</ele>
        <time>2022-08-23T14:35:05.000Z</time>
      </trkpt>
      <trkpt lat="45.9176" lon="4.67485">
        <ele>339.8642</ele>
        <time>2022-08-23T14:35:07.000Z</time>
      </trkpt>
      <trkpt lat="45.91758" lon="4.67489">
        <ele>339.98398</ele>
        <time>2022-08-23T14:35:09.000Z</time>
      </trkpt>
      <trkpt lat="45.91756" lon="4.67491">
        <ele>339.79419</ele>
        <time>2022-08-23T14:35:11.000Z</time>
      </trkpt>
      <trkpt lat="45.91756" lon="4.67494">
        <ele>339.55051</ele>
        <time>2022-08-23T14:35:13.000Z</time>
      </trkpt>
      <trkpt lat="45.91755" lon="4.67498">
        <ele>339.29965</ele>
        <time>2022-08-23T14:35:16.000Z</time>
      </trkpt>
      <trkpt lat="45.91755" lon="4.675">
        <ele>339.08612</ele>
        <time>2022-08-23T14:35:18.000Z</time>
      </trkpt>
      <trkpt lat="45.91753" lon="4.67504">
        <ele>338.80878</ele>
        <time>2022-08-23T14:35:20.000Z</time>
      </trkpt>
      <trkpt lat="45.91753" lon="4.67507">
        <ele>338.53094</ele>
        <time>2022-08-23T14:35:22.000Z</time>
      </trkpt>
      <trkpt lat="45.91752" lon="4.67511">
        <ele>338.20386</ele>
        <time>2022-08-23T14:35:24.000Z</time>
      </trkpt>
      <trkpt lat="45.9175" lon="4.67514">
        <ele>337.87338</ele>
        <time>2022-08-23T14:35:26.000Z</time>
      </trkpt>
      <trkpt lat="45.91749" lon="4.67516">
        <ele>337.52655</ele>
        <time>2022-08-23T14:35:28.000Z</time>
      </trkpt>
      <trkpt lat="45.91748" lon="4.6752">
        <ele>337.2211</ele>
        <time>2022-08-23T14:35:30.000Z</time>
      </trkpt>
      <trkpt lat="45.91748" lon="4.67523">
        <ele>337.01553</ele>
        <time>2022-08-23T14:35:32.000Z</time>
      </trkpt>
      <trkpt lat="45.91747" lon="4.67527">
        <ele>336.81827</ele>
        <time>2022-08-23T14:35:34.000Z</time>
      </trkpt>
      <trkpt lat="45.91745" lon="4.6753">
        <ele>336.61407</ele>
        <time>2022-08-23T14:35:36.000Z</time>
      </trkpt>
      <trkpt lat="45.91744" lon="4.67531">
        <ele>336.45001</ele>
        <time>2022-08-23T14:35:37.000Z</time>
      </trkpt>
      <trkpt lat="45.91742" lon="4.67532">
        <ele>336.30463</ele>
        <time>2022-08-23T14:35:38.000Z</time>
      </trkpt>
      <trkpt lat="45.91739" lon="4.67535">
        <ele>336.18719</ele>
        <time>2022-08-23T14:35:40.000Z</time>
      </trkpt>
      <trkpt lat="45.91736" lon="4.67538">
        <ele>336.16974</ele>
        <time>2022-08-23T14:35:42.000Z</time>
      </trkpt>
      <trkpt lat="45.91733" lon="4.6754">
        <ele>336.23227</ele>
        <time>2022-08-23T14:35:44.000Z</time>
      </trkpt>
      <trkpt lat="45.91731" lon="4.67543">
        <ele>336.35059</ele>
        <time>2022-08-23T14:35:46.000Z</time>
      </trkpt>
      <trkpt lat="45.9173" lon="4.67546">
        <ele>336.58054</ele>
        <time>2022-08-23T14:35:48.000Z</time>
      </trkpt>
      <trkpt lat="45.9173" lon="4.6755">
        <ele>336.83435</ele>
        <time>2022-08-23T14:35:50.000Z</time>
      </trkpt>
      <trkpt lat="45.9173" lon="4.67554">
        <ele>337.12262</ele>
        <time>2022-08-23T14:35:52.000Z</time>
      </trkpt>
      <trkpt lat="45.9173" lon="4.67558">
        <ele>337.33206</ele>
        <time>2022-08-23T14:35:54.000Z</time>
      </trkpt>
      <trkpt lat="45.9173" lon="4.67561">
        <ele>337.655</ele>
        <time>2022-08-23T14:35:56.000Z</time>
      </trkpt>
      <trkpt lat="45.9173" lon="4.67564">
        <ele>338.09052</ele>
        <time>2022-08-23T14:35:58.000Z</time>
      </trkpt>
      <trkpt lat="45.91731" lon="4.67567">
        <ele>338.44232</ele>
        <time>2022-08-23T14:36:00.000Z</time>
      </trkpt>
      <trkpt lat="45.91731" lon="4.67571">
        <ele>338.94806</ele>
        <time>2022-08-23T14:36:02.000Z</time>
      </trkpt>
      <trkpt lat="45.91731" lon="4.67574">
        <ele>339.45193</ele>
        <time>2022-08-23T14:36:04.000Z</time>
      </trkpt>
      <trkpt lat="45.91731" lon="4.67578">
        <ele>340.03036</ele>
        <time>2022-08-23T14:36:06.000Z</time>
      </trkpt>
      <trkpt lat="45.91731" lon="4.67582">
        <ele>340.95911</ele>
        <time>2022-08-23T14:36:08.000Z</time>
      </trkpt>
      <trkpt lat="45.91731" lon="4.67586">
        <ele>341.62683</ele>
        <time>2022-08-23T14:36:11.000Z</time>
      </trkpt>
      <trkpt lat="45.9173" lon="4.67589">
        <ele>342.22473</ele>
        <time>2022-08-23T14:36:14.000Z</time>
      </trkpt>
      <trkpt lat="45.91729" lon="4.67593">
        <ele>342.7811</ele>
        <time>2022-08-23T14:36:16.000Z</time>
      </trkpt>
      <trkpt lat="45.91729" lon="4.67596">
        <ele>343.33502</ele>
        <time>2022-08-23T14:36:18.000Z</time>
      </trkpt>
      <trkpt lat="45.91728" lon="4.67599">
        <ele>343.8909</ele>
        <time>2022-08-23T14:36:20.000Z</time>
      </trkpt>
      <trkpt lat="45.91727" lon="4.67602">
        <ele>344.49799</ele>
        <time>2022-08-23T14:36:22.000Z</time>
      </trkpt>
      <trkpt lat="45.91726" lon="4.67605">
        <ele>345.04407</ele>
        <time>2022-08-23T14:36:24.000Z</time>
      </trkpt>
      <trkpt lat="45.91726" lon="4.67609">
        <ele>345.46918</ele>
        <time>2022-08-23T14:36:26.000Z</time>
      </trkpt>
      <trkpt lat="45.91726" lon="4.67612">
        <ele>345.81879</ele>
        <time>2022-08-23T14:36:28.000Z</time>
      </trkpt>
      <trkpt lat="45.91725" lon="4.67616">
        <ele>346.2204</ele>
        <time>2022-08-23T14:36:30.000Z</time>
      </trkpt>
      <trkpt lat="45.91724" lon="4.67619">
        <ele>346.73846</ele>
        <time>2022-08-23T14:36:32.000Z</time>
      </trkpt>
      <trkpt lat="45.91722" lon="4.67622">
        <ele>347.21127</ele>
        <time>2022-08-23T14:36:34.000Z</time>
      </trkpt>
      <trkpt lat="45.9172" lon="4.67625">
        <ele>347.71429</ele>
        <time>2022-08-23T14:36:36.000Z</time>
      </trkpt>
      <trkpt lat="45.91717" lon="4.67627">
        <ele>348.16324</ele>
        <time>2022-08-23T14:36:38.000Z</time>
      </trkpt>
      <trkpt lat="45.91714" lon="4.67629">
        <ele>348.70816</ele>
        <time>2022-08-23T14:36:40.000Z</time>
      </trkpt>
      <trkpt lat="45.91712" lon="4.6763">
        <ele>349.34113</ele>
        <time>2022-08-23T14:36:42.000Z</time>
      </trkpt>
      <trkpt lat="45.9171" lon="4.67631">
        <ele>349.90582</ele>
        <time>2022-08-23T14:36:44.000Z</time>
      </trkpt>
      <trkpt lat="45.91709" lon="4.67629">
        <ele>350.55658</ele>
        <time>2022-08-23T14:36:49.000Z</time>
      </trkpt>
      <trkpt lat="45.91707" lon="4.6763">
        <ele>351.10519</ele>
        <time>2022-08-23T14:36:51.000Z</time>
      </trkpt>
      <trkpt lat="45.91705" lon="4.67631">
        <ele>351.24091</ele>
        <time>2022-08-23T14:36:52.000Z</time>
      </trkpt>
      <trkpt lat="45.91703" lon="4.67631">
        <ele>351.53638</ele>
        <time>2022-08-23T14:36:53.000Z</time>
      </trkpt>
      <trkpt lat="45.91701" lon="4.67631">
        <ele>351.95105</ele>
        <time>2022-08-23T14:36:54.000Z</time>
      </trkpt>
      <trkpt lat="45.91699" lon="4.67632">
        <ele>352.5094</ele>
        <time>2022-08-23T14:36:55.000Z</time>
      </trkpt>
      <trkpt lat="45.91697" lon="4.67633">
        <ele>353.09363</ele>
        <time>2022-08-23T14:36:56.000Z</time>
      </trkpt>
      <trkpt lat="45.91695" lon="4.67634">
        <ele>353.62228</ele>
        <time>2022-08-23T14:36:57.000Z</time>
      </trkpt>
      <trkpt lat="45.91693" lon="4.67635">
        <ele>354.09958</ele>
        <time>2022-08-23T14:36:58.000Z</time>
      </trkpt>
      <trkpt lat="45.91691" lon="4.67636">
        <ele>354.54446</ele>
        <time>2022-08-23T14:36:59.000Z</time>
      </trkpt>
      <trkpt lat="45.91689" lon="4.67637">
        <ele>354.93921</ele>
        <time>2022-08-23T14:37:00.000Z</time>
      </trkpt>
      <trkpt lat="45.91688" lon="4.67637">
        <ele>355.38177</ele>
        <time>2022-08-23T14:37:01.000Z</time>
      </trkpt>
      <trkpt lat="45.91685" lon="4.67639">
        <ele>355.79794</ele>
        <time>2022-08-23T14:37:03.000Z</time>
      </trkpt>
      <trkpt lat="45.91682" lon="4.6764">
        <ele>356.27234</ele>
        <time>2022-08-23T14:37:05.000Z</time>
      </trkpt>
      <trkpt lat="45.91678" lon="4.67642">
        <ele>356.59363</ele>
        <time>2022-08-23T14:37:07.000Z</time>
      </trkpt>
      <trkpt lat="45.91676" lon="4.67642">
        <ele>356.8797</ele>
        <time>2022-08-23T14:37:08.000Z</time>
      </trkpt>
      <trkpt lat="45.91673" lon="4.67643">
        <ele>357.09122</ele>
        <time>2022-08-23T14:37:09.000Z</time>
      </trkpt>
      <trkpt lat="45.91671" lon="4.67643">
        <ele>357.20734</ele>
        <time>2022-08-23T14:37:10.000Z</time>
      </trkpt>
      <trkpt lat="45.91669" lon="4.67644">
        <ele>357.30487</ele>
        <time>2022-08-23T14:37:12.000Z</time>
      </trkpt>
      <trkpt lat="45.91666" lon="4.67644">
        <ele>357.29834</ele>
        <time>2022-08-23T14:37:14.000Z</time>
      </trkpt>
      <trkpt lat="45.91664" lon="4.67643">
        <ele>357.21521</ele>
        <time>2022-08-23T14:37:15.000Z</time>
      </trkpt>
      <trkpt lat="45.91662" lon="4.67643">
        <ele>357.12082</ele>
        <time>2022-08-23T14:37:16.000Z</time>
      </trkpt>
      <trkpt lat="45.9166" lon="4.67643">
        <ele>357.09039</ele>
        <time>2022-08-23T14:37:17.000Z</time>
      </trkpt>
      <trkpt lat="45.91657" lon="4.67644">
        <ele>357.02405</ele>
        <time>2022-08-23T14:37:18.000Z</time>
      </trkpt>
      <trkpt lat="45.91655" lon="4.67646">
        <ele>356.88812</ele>
        <time>2022-08-23T14:37:19.000Z</time>
      </trkpt>
      <trkpt lat="45.91653" lon="4.67649">
        <ele>356.67783</ele>
        <time>2022-08-23T14:37:21.000Z</time>
      </trkpt>
      <trkpt lat="45.91651" lon="4.6765">
        <ele>356.44009</ele>
        <time>2022-08-23T14:37:22.000Z</time>
      </trkpt>
      <trkpt lat="45.91649" lon="4.67651">
        <ele>356.25336</ele>
        <time>2022-08-23T14:37:23.000Z</time>
      </trkpt>
      <trkpt lat="45.91647" lon="4.67652">
        <ele>355.99512</ele>
        <time>2022-08-23T14:37:24.000Z</time>
      </trkpt>
      <trkpt lat="45.91645" lon="4.67652">
        <ele>355.74426</ele>
        <time>2022-08-23T14:37:25.000Z</time>
      </trkpt>
      <trkpt lat="45.91642" lon="4.67651">
        <ele>355.45911</ele>
        <time>2022-08-23T14:37:26.000Z</time>
      </trkpt>
      <trkpt lat="45.9164" lon="4.6765">
        <ele>355.17023</ele>
        <time>2022-08-23T14:37:27.000Z</time>
      </trkpt>
      <trkpt lat="45.91638" lon="4.6765">
        <ele>354.89017</ele>
        <time>2022-08-23T14:37:28.000Z</time>
      </trkpt>
      <trkpt lat="45.91636" lon="4.67649">
        <ele>354.65436</ele>
        <time>2022-08-23T14:37:29.000Z</time>
      </trkpt>
      <trkpt lat="45.91634" lon="4.67649">
        <ele>354.52432</ele>
        <time>2022-08-23T14:37:30.000Z</time>
      </trkpt>
      <trkpt lat="45.91632" lon="4.67649">
        <ele>354.39337</ele>
        <time>2022-08-23T14:37:31.000Z</time>
      </trkpt>
      <trkpt lat="45.9163" lon="4.6765">
        <ele>354.27301</ele>
        <time>2022-08-23T14:37:32.000Z</time>
      </trkpt>
      <trkpt lat="45.91628" lon="4.67651">
        <ele>354.31775</ele>
        <time>2022-08-23T14:37:34.000Z</time>
      </trkpt>
      <trkpt lat="45.91624" lon="4.67652">
        <ele>354.36945</ele>
        <time>2022-08-23T14:37:36.000Z</time>
      </trkpt>
      <trkpt lat="45.91622" lon="4.67654">
        <ele>354.52417</ele>
        <time>2022-08-23T14:37:37.000Z</time>
      </trkpt>
      <trkpt lat="45.91621" lon="4.67656">
        <ele>354.66299</ele>
        <time>2022-08-23T14:37:38.000Z</time>
      </trkpt>
      <trkpt lat="45.9162" lon="4.67659">
        <ele>354.83347</ele>
        <time>2022-08-23T14:37:39.000Z</time>
      </trkpt>
      <trkpt lat="45.9162" lon="4.67663">
        <ele>355.01282</ele>
        <time>2022-08-23T14:37:41.000Z</time>
      </trkpt>
      <trkpt lat="45.91619" lon="4.67667">
        <ele>355.20258</ele>
        <time>2022-08-23T14:37:43.000Z</time>
      </trkpt>
      <trkpt lat="45.91619" lon="4.67672">
        <ele>355.48615</ele>
        <time>2022-08-23T14:37:45.000Z</time>
      </trkpt>
      <trkpt lat="45.91619" lon="4.67675">
        <ele>355.78094</ele>
        <time>2022-08-23T14:37:46.000Z</time>
      </trkpt>
      <trkpt lat="45.91619" lon="4.6768">
        <ele>356.13593</ele>
        <time>2022-08-23T14:37:48.000Z</time>
      </trkpt>
      <trkpt lat="45.9162" lon="4.67683">
        <ele>356.44009</ele>
        <time>2022-08-23T14:37:49.000Z</time>
      </trkpt>
      <trkpt lat="45.9162" lon="4.67688">
        <ele>356.77374</ele>
        <time>2022-08-23T14:37:51.000Z</time>
      </trkpt>
      <trkpt lat="45.9162" lon="4.6769">
        <ele>357.0799</ele>
        <time>2022-08-23T14:37:52.000Z</time>
      </trkpt>
      <trkpt lat="45.91621" lon="4.67694">
        <ele>357.49451</ele>
        <time>2022-08-23T14:37:53.000Z</time>
      </trkpt>
      <trkpt lat="45.91622" lon="4.67697">
        <ele>357.84338</ele>
        <time>2022-08-23T14:37:54.000Z</time>
      </trkpt>
      <trkpt lat="45.91623" lon="4.677">
        <ele>358.18103</ele>
        <time>2022-08-23T14:37:55.000Z</time>
      </trkpt>
      <trkpt lat="45.91623" lon="4.67703">
        <ele>358.3894</ele>
        <time>2022-08-23T14:37:56.000Z</time>
      </trkpt>
      <trkpt lat="45.91624" lon="4.67706">
        <ele>358.5661</ele>
        <time>2022-08-23T14:37:57.000Z</time>
      </trkpt>
      <trkpt lat="45.91624" lon="4.67709">
        <ele>358.76508</ele>
        <time>2022-08-23T14:37:58.000Z</time>
      </trkpt>
      <trkpt lat="45.91623" lon="4.67713">
        <ele>358.98688</ele>
        <time>2022-08-23T14:38:00.000Z</time>
      </trkpt>
      <trkpt lat="45.91622" lon="4.67716">
        <ele>359.03308</ele>
        <time>2022-08-23T14:38:01.000Z</time>
      </trkpt>
      <trkpt lat="45.91622" lon="4.67719">
        <ele>359.06125</ele>
        <time>2022-08-23T14:38:02.000Z</time>
      </trkpt>
      <trkpt lat="45.91623" lon="4.67722">
        <ele>359.17142</ele>
        <time>2022-08-23T14:38:03.000Z</time>
      </trkpt>
      <trkpt lat="45.91622" lon="4.67726">
        <ele>359.32709</ele>
        <time>2022-08-23T14:38:05.000Z</time>
      </trkpt>
      <trkpt lat="45.91621" lon="4.67729">
        <ele>359.47882</ele>
        <time>2022-08-23T14:38:06.000Z</time>
      </trkpt>
      <trkpt lat="45.9162" lon="4.67733">
        <ele>359.66324</ele>
        <time>2022-08-23T14:38:08.000Z</time>
      </trkpt>
      <trkpt lat="45.91619" lon="4.67738">
        <ele>360.13083</ele>
        <time>2022-08-23T14:38:10.000Z</time>
      </trkpt>
      <trkpt lat="45.91619" lon="4.67742">
        <ele>360.45697</ele>
        <time>2022-08-23T14:38:12.000Z</time>
      </trkpt>
      <trkpt lat="45.9162" lon="4.67746">
        <ele>360.75327</ele>
        <time>2022-08-23T14:38:14.000Z</time>
      </trkpt>
      <trkpt lat="45.9162" lon="4.67749">
        <ele>361.03708</ele>
        <time>2022-08-23T14:38:15.000Z</time>
      </trkpt>
      <trkpt lat="45.91618" lon="4.67753">
        <ele>361.33841</ele>
        <time>2022-08-23T14:38:17.000Z</time>
      </trkpt>
      <trkpt lat="45.91617" lon="4.67755">
        <ele>361.7099</ele>
        <time>2022-08-23T14:38:18.000Z</time>
      </trkpt>
      <trkpt lat="45.91617" lon="4.67758">
        <ele>362.0791</ele>
        <time>2022-08-23T14:38:19.000Z</time>
      </trkpt>
      <trkpt lat="45.91617" lon="4.67761">
        <ele>362.51569</ele>
        <time>2022-08-23T14:38:20.000Z</time>
      </trkpt>
      <trkpt lat="45.91616" lon="4.67764">
        <ele>362.95831</ele>
        <time>2022-08-23T14:38:21.000Z</time>
      </trkpt>
      <trkpt lat="45.91616" lon="4.67768">
        <ele>363.37305</ele>
        <time>2022-08-23T14:38:22.000Z</time>
      </trkpt>
      <trkpt lat="45.91615" lon="4.67771">
        <ele>363.87778</ele>
        <time>2022-08-23T14:38:23.000Z</time>
      </trkpt>
      <trkpt lat="45.91614" lon="4.67775">
        <ele>364.52588</ele>
        <time>2022-08-23T14:38:24.000Z</time>
      </trkpt>
      <trkpt lat="45.91614" lon="4.67779">
        <ele>365.19193</ele>
        <time>2022-08-23T14:38:25.000Z</time>
      </trkpt>
      <trkpt lat="45.91614" lon="4.67783">
        <ele>365.87457</ele>
        <time>2022-08-23T14:38:26.000Z</time>
      </trkpt>
      <trkpt lat="45.91614" lon="4.67786">
        <ele>366.62994</ele>
        <time>2022-08-23T14:38:27.000Z</time>
      </trkpt>
      <trkpt lat="45.91614" lon="4.67791">
        <ele>367.41644</ele>
        <time>2022-08-23T14:38:28.000Z</time>
      </trkpt>
      <trkpt lat="45.91613" lon="4.67795">
        <ele>368.30945</ele>
        <time>2022-08-23T14:38:29.000Z</time>
      </trkpt>
      <trkpt lat="45.91612" lon="4.67799">
        <ele>369.09879</ele>
        <time>2022-08-23T14:38:30.000Z</time>
      </trkpt>
      <trkpt lat="45.91612" lon="4.67802">
        <ele>369.89575</ele>
        <time>2022-08-23T14:38:31.000Z</time>
      </trkpt>
      <trkpt lat="45.91611" lon="4.67805">
        <ele>370.65002</ele>
        <time>2022-08-23T14:38:32.000Z</time>
      </trkpt>
      <trkpt lat="45.91611" lon="4.67808">
        <ele>371.1506</ele>
        <time>2022-08-23T14:38:33.000Z</time>
      </trkpt>
      <trkpt lat="45.91611" lon="4.67811">
        <ele>371.74261</ele>
        <time>2022-08-23T14:38:34.000Z</time>
      </trkpt>
      <trkpt lat="45.9161" lon="4.67815">
        <ele>372.34988</ele>
        <time>2022-08-23T14:38:35.000Z</time>
      </trkpt>
      <trkpt lat="45.9161" lon="4.67817">
        <ele>372.91028</ele>
        <time>2022-08-23T14:38:36.000Z</time>
      </trkpt>
      <trkpt lat="45.9161" lon="4.6782">
        <ele>373.48422</ele>
        <time>2022-08-23T14:38:37.000Z</time>
      </trkpt>
      <trkpt lat="45.91608" lon="4.67823">
        <ele>374.01483</ele>
        <time>2022-08-23T14:38:39.000Z</time>
      </trkpt>
      <trkpt lat="45.91606" lon="4.67825">
        <ele>374.60913</ele>
        <time>2022-08-23T14:38:40.000Z</time>
      </trkpt>
      <trkpt lat="45.91604" lon="4.67826">
        <ele>375.09308</ele>
        <time>2022-08-23T14:38:41.000Z</time>
      </trkpt>
      <trkpt lat="45.916" lon="4.67828">
        <ele>375.59009</ele>
        <time>2022-08-23T14:38:42.000Z</time>
      </trkpt>
      <trkpt lat="45.91598" lon="4.67828">
        <ele>376.0976</ele>
        <time>2022-08-23T14:38:43.000Z</time>
      </trkpt>
      <trkpt lat="45.91595" lon="4.6783">
        <ele>376.47906</ele>
        <time>2022-08-23T14:38:44.000Z</time>
      </trkpt>
      <trkpt lat="45.91593" lon="4.67831">
        <ele>376.72684</ele>
        <time>2022-08-23T14:38:45.000Z</time>
      </trkpt>
      <trkpt lat="45.91591" lon="4.67832">
        <ele>376.97571</ele>
        <time>2022-08-23T14:38:46.000Z</time>
      </trkpt>
      <trkpt lat="45.91589" lon="4.67833">
        <ele>377.19299</ele>
        <time>2022-08-23T14:38:47.000Z</time>
      </trkpt>
      <trkpt lat="45.91586" lon="4.67833">
        <ele>377.33765</ele>
        <time>2022-08-23T14:38:48.000Z</time>
      </trkpt>
      <trkpt lat="45.91584" lon="4.67833">
        <ele>377.52325</ele>
        <time>2022-08-23T14:38:49.000Z</time>
      </trkpt>
      <trkpt lat="45.91581" lon="4.67833">
        <ele>377.50967</ele>
        <time>2022-08-23T14:38:51.000Z</time>
      </trkpt>
      <trkpt lat="45.91579" lon="4.67834">
        <ele>377.55011</ele>
        <time>2022-08-23T14:38:52.000Z</time>
      </trkpt>
      <trkpt lat="45.91577" lon="4.67836">
        <ele>377.6163</ele>
        <time>2022-08-23T14:38:53.000Z</time>
      </trkpt>
      <trkpt lat="45.91575" lon="4.67838">
        <ele>377.68494</ele>
        <time>2022-08-23T14:38:54.000Z</time>
      </trkpt>
      <trkpt lat="45.91572" lon="4.67841">
        <ele>377.74152</ele>
        <time>2022-08-23T14:38:55.000Z</time>
      </trkpt>
      <trkpt lat="45.9157" lon="4.67843">
        <ele>377.78705</ele>
        <time>2022-08-23T14:38:56.000Z</time>
      </trkpt>
      <trkpt lat="45.91568" lon="4.67845">
        <ele>377.84503</ele>
        <time>2022-08-23T14:38:57.000Z</time>
      </trkpt>
      <trkpt lat="45.91566" lon="4.67848">
        <ele>377.9584</ele>
        <time>2022-08-23T14:38:59.000Z</time>
      </trkpt>
      <trkpt lat="45.91565" lon="4.67852">
        <ele>378.10052</ele>
        <time>2022-08-23T14:39:01.000Z</time>
      </trkpt>
      <trkpt lat="45.91564" lon="4.67855">
        <ele>378.23639</ele>
        <time>2022-08-23T14:39:02.000Z</time>
      </trkpt>
      <trkpt lat="45.91563" lon="4.67857">
        <ele>378.33328</ele>
        <time>2022-08-23T14:39:03.000Z</time>
      </trkpt>
      <trkpt lat="45.91562" lon="4.67859">
        <ele>378.46182</ele>
        <time>2022-08-23T14:39:04.000Z</time>
      </trkpt>
      <trkpt lat="45.9156" lon="4.67862">
        <ele>378.64005</ele>
        <time>2022-08-23T14:39:05.000Z</time>
      </trkpt>
      <trkpt lat="45.91559" lon="4.67865">
        <ele>378.81555</ele>
        <time>2022-08-23T14:39:06.000Z</time>
      </trkpt>
      <trkpt lat="45.91558" lon="4.67868">
        <ele>379.0889</ele>
        <time>2022-08-23T14:39:07.000Z</time>
      </trkpt>
      <trkpt lat="45.91557" lon="4.6787">
        <ele>379.3804</ele>
        <time>2022-08-23T14:39:08.000Z</time>
      </trkpt>
      <trkpt lat="45.91555" lon="4.67875">
        <ele>379.80988</ele>
        <time>2022-08-23T14:39:10.000Z</time>
      </trkpt>
      <trkpt lat="45.91553" lon="4.67877">
        <ele>380.18814</ele>
        <time>2022-08-23T14:39:11.000Z</time>
      </trkpt>
      <trkpt lat="45.91551" lon="4.67878">
        <ele>380.51315</ele>
        <time>2022-08-23T14:39:12.000Z</time>
      </trkpt>
      <trkpt lat="45.91549" lon="4.67879">
        <ele>380.75775</ele>
        <time>2022-08-23T14:39:13.000Z</time>
      </trkpt>
      <trkpt lat="45.91546" lon="4.67879">
        <ele>380.99014</ele>
        <time>2022-08-23T14:39:14.000Z</time>
      </trkpt>
      <trkpt lat="45.91543" lon="4.67879">
        <ele>381.21786</ele>
        <time>2022-08-23T14:39:15.000Z</time>
      </trkpt>
      <trkpt lat="45.9154" lon="4.67877">
        <ele>381.40195</ele>
        <time>2022-08-23T14:39:16.000Z</time>
      </trkpt>
      <trkpt lat="45.91537" lon="4.67876">
        <ele>381.57819</ele>
        <time>2022-08-23T14:39:17.000Z</time>
      </trkpt>
      <trkpt lat="45.91534" lon="4.67874">
        <ele>381.70514</ele>
        <time>2022-08-23T14:39:18.000Z</time>
      </trkpt>
      <trkpt lat="45.91531" lon="4.67872">
        <ele>381.77432</ele>
        <time>2022-08-23T14:39:19.000Z</time>
      </trkpt>
      <trkpt lat="45.91528" lon="4.67871">
        <ele>381.96741</ele>
        <time>2022-08-23T14:39:21.000Z</time>
      </trkpt>
      <trkpt lat="45.91525" lon="4.67871">
        <ele>382.16653</ele>
        <time>2022-08-23T14:39:22.000Z</time>
      </trkpt>
      <trkpt lat="45.91522" lon="4.67872">
        <ele>382.28015</ele>
        <time>2022-08-23T14:39:23.000Z</time>
      </trkpt>
      <trkpt lat="45.9152" lon="4.67875">
        <ele>382.38446</ele>
        <time>2022-08-23T14:39:24.000Z</time>
      </trkpt>
      <trkpt lat="45.91518" lon="4.67878">
        <ele>382.52759</ele>
        <time>2022-08-23T14:39:25.000Z</time>
      </trkpt>
      <trkpt lat="45.91517" lon="4.67882">
        <ele>382.63232</ele>
        <time>2022-08-23T14:39:26.000Z</time>
      </trkpt>
      <trkpt lat="45.91516" lon="4.67886">
        <ele>382.604</ele>
        <time>2022-08-23T14:39:27.000Z</time>
      </trkpt>
      <trkpt lat="45.91515" lon="4.6789">
        <ele>382.55643</ele>
        <time>2022-08-23T14:39:28.000Z</time>
      </trkpt>
      <trkpt lat="45.91513" lon="4.67894">
        <ele>382.77789</ele>
        <time>2022-08-23T14:39:29.000Z</time>
      </trkpt>
      <trkpt lat="45.91512" lon="4.67898">
        <ele>382.9429</ele>
        <time>2022-08-23T14:39:30.000Z</time>
      </trkpt>
      <trkpt lat="45.9151" lon="4.67901">
        <ele>382.90277</ele>
        <time>2022-08-23T14:39:31.000Z</time>
      </trkpt>
      <trkpt lat="45.91508" lon="4.67904">
        <ele>382.84561</ele>
        <time>2022-08-23T14:39:32.000Z</time>
      </trkpt>
      <trkpt lat="45.91507" lon="4.67907">
        <ele>382.78497</ele>
        <time>2022-08-23T14:39:33.000Z</time>
      </trkpt>
      <trkpt lat="45.91505" lon="4.67909">
        <ele>382.68808</ele>
        <time>2022-08-23T14:39:34.000Z</time>
      </trkpt>
      <trkpt lat="45.91503" lon="4.6791">
        <ele>382.61957</ele>
        <time>2022-08-23T14:39:35.000Z</time>
      </trkpt>
      <trkpt lat="45.91502" lon="4.67911">
        <ele>382.5528</ele>
        <time>2022-08-23T14:39:36.000Z</time>
      </trkpt>
      <trkpt lat="45.91499" lon="4.67911">
        <ele>382.53006</ele>
        <time>2022-08-23T14:39:37.000Z</time>
      </trkpt>
      <trkpt lat="45.91497" lon="4.67912">
        <ele>382.51862</ele>
        <time>2022-08-23T14:39:38.000Z</time>
      </trkpt>
      <trkpt lat="45.91494" lon="4.67912">
        <ele>382.49738</ele>
        <time>2022-08-23T14:39:39.000Z</time>
      </trkpt>
      <trkpt lat="45.91492" lon="4.67912">
        <ele>382.58673</ele>
        <time>2022-08-23T14:39:40.000Z</time>
      </trkpt>
      <trkpt lat="45.91489" lon="4.67912">
        <ele>382.5318</ele>
        <time>2022-08-23T14:39:41.000Z</time>
      </trkpt>
      <trkpt lat="45.91487" lon="4.67912">
        <ele>382.39316</ele>
        <time>2022-08-23T14:39:42.000Z</time>
      </trkpt>
      <trkpt lat="45.91483" lon="4.67912">
        <ele>382.31396</ele>
        <time>2022-08-23T14:39:43.000Z</time>
      </trkpt>
      <trkpt lat="45.9148" lon="4.67912">
        <ele>382.26553</ele>
        <time>2022-08-23T14:39:44.000Z</time>
      </trkpt>
      <trkpt lat="45.91478" lon="4.67913">
        <ele>382.17892</ele>
        <time>2022-08-23T14:39:45.000Z</time>
      </trkpt>
      <trkpt lat="45.91475" lon="4.67914">
        <ele>382.13275</ele>
        <time>2022-08-23T14:39:46.000Z</time>
      </trkpt>
      <trkpt lat="45.91473" lon="4.67915">
        <ele>382.19006</ele>
        <time>2022-08-23T14:39:47.000Z</time>
      </trkpt>
      <trkpt lat="45.91471" lon="4.67916">
        <ele>382.28769</ele>
        <time>2022-08-23T14:39:48.000Z</time>
      </trkpt>
      <trkpt lat="45.91469" lon="4.67917">
        <ele>382.30505</ele>
        <time>2022-08-23T14:39:49.000Z</time>
      </trkpt>
      <trkpt lat="45.91467" lon="4.67917">
        <ele>382.3428</ele>
        <time>2022-08-23T14:39:51.000Z</time>
      </trkpt>
      <trkpt lat="45.91464" lon="4.67918">
        <ele>382.38602</ele>
        <time>2022-08-23T14:39:53.000Z</time>
      </trkpt>
      <trkpt lat="45.91461" lon="4.67917">
        <ele>382.46106</ele>
        <time>2022-08-23T14:39:55.000Z</time>
      </trkpt>
      <trkpt lat="45.91458" lon="4.67916">
        <ele>382.62372</ele>
        <time>2022-08-23T14:39:57.000Z</time>
      </trkpt>
      <trkpt lat="45.91454" lon="4.67916">
        <ele>382.7912</ele>
        <time>2022-08-23T14:39:59.000Z</time>
      </trkpt>
      <trkpt lat="45.91452" lon="4.67916">
        <ele>382.92511</ele>
        <time>2022-08-23T14:40:00.000Z</time>
      </trkpt>
      <trkpt lat="45.9145" lon="4.67915">
        <ele>383.04507</ele>
        <time>2022-08-23T14:40:01.000Z</time>
      </trkpt>
      <trkpt lat="45.91447" lon="4.67916">
        <ele>383.1553</ele>
        <time>2022-08-23T14:40:03.000Z</time>
      </trkpt>
      <trkpt lat="45.91445" lon="4.67918">
        <ele>383.23093</ele>
        <time>2022-08-23T14:40:04.000Z</time>
      </trkpt>
      <trkpt lat="45.91444" lon="4.6792">
        <ele>383.36951</ele>
        <time>2022-08-23T14:40:05.000Z</time>
      </trkpt>
      <trkpt lat="45.91441" lon="4.67923">
        <ele>383.35895</ele>
        <time>2022-08-23T14:40:06.000Z</time>
      </trkpt>
      <trkpt lat="45.91439" lon="4.67926">
        <ele>383.4184</ele>
        <time>2022-08-23T14:40:07.000Z</time>
      </trkpt>
      <trkpt lat="45.91438" lon="4.67928">
        <ele>383.49799</ele>
        <time>2022-08-23T14:40:08.000Z</time>
      </trkpt>
      <trkpt lat="45.91436" lon="4.67931">
        <ele>383.54208</ele>
        <time>2022-08-23T14:40:09.000Z</time>
      </trkpt>
      <trkpt lat="45.91434" lon="4.67934">
        <ele>383.49664</ele>
        <time>2022-08-23T14:40:10.000Z</time>
      </trkpt>
      <trkpt lat="45.91432" lon="4.67938">
        <ele>383.48245</ele>
        <time>2022-08-23T14:40:11.000Z</time>
      </trkpt>
      <trkpt lat="45.9143" lon="4.67941">
        <ele>383.52823</ele>
        <time>2022-08-23T14:40:12.000Z</time>
      </trkpt>
      <trkpt lat="45.91428" lon="4.67945">
        <ele>383.53778</ele>
        <time>2022-08-23T14:40:13.000Z</time>
      </trkpt>
      <trkpt lat="45.91426" lon="4.67948">
        <ele>383.57397</ele>
        <time>2022-08-23T14:40:14.000Z</time>
      </trkpt>
      <trkpt lat="45.91424" lon="4.67951">
        <ele>383.43329</ele>
        <time>2022-08-23T14:40:15.000Z</time>
      </trkpt>
      <trkpt lat="45.91422" lon="4.67954">
        <ele>383.31247</ele>
        <time>2022-08-23T14:40:16.000Z</time>
      </trkpt>
      <trkpt lat="45.91419" lon="4.67956">
        <ele>383.28659</ele>
        <time>2022-08-23T14:40:17.000Z</time>
      </trkpt>
      <trkpt lat="45.91417" lon="4.67959">
        <ele>383.28217</ele>
        <time>2022-08-23T14:40:18.000Z</time>
      </trkpt>
      <trkpt lat="45.91415" lon="4.67963">
        <ele>383.28738</ele>
        <time>2022-08-23T14:40:19.000Z</time>
      </trkpt>
      <trkpt lat="45.91413" lon="4.67966">
        <ele>383.23544</ele>
        <time>2022-08-23T14:40:20.000Z</time>
      </trkpt>
      <trkpt lat="45.91413" lon="4.6797">
        <ele>383.16742</ele>
        <time>2022-08-23T14:40:21.000Z</time>
      </trkpt>
      <trkpt lat="45.91413" lon="4.67973">
        <ele>383.09799</ele>
        <time>2022-08-23T14:40:22.000Z</time>
      </trkpt>
      <trkpt lat="45.91414" lon="4.67976">
        <ele>382.9866</ele>
        <time>2022-08-23T14:40:23.000Z</time>
      </trkpt>
      <trkpt lat="45.91416" lon="4.6798">
        <ele>382.90939</ele>
        <time>2022-08-23T14:40:24.000Z</time>
      </trkpt>
      <trkpt lat="45.91417" lon="4.67983">
        <ele>382.80609</ele>
        <time>2022-08-23T14:40:25.000Z</time>
      </trkpt>
      <trkpt lat="45.91419" lon="4.67987">
        <ele>382.79422</ele>
        <time>2022-08-23T14:40:26.000Z</time>
      </trkpt>
      <trkpt lat="45.9142" lon="4.67991">
        <ele>382.73566</ele>
        <time>2022-08-23T14:40:27.000Z</time>
      </trkpt>
      <trkpt lat="45.91421" lon="4.67995">
        <ele>382.61481</ele>
        <time>2022-08-23T14:40:28.000Z</time>
      </trkpt>
      <trkpt lat="45.91422" lon="4.67998">
        <ele>382.4964</ele>
        <time>2022-08-23T14:40:29.000Z</time>
      </trkpt>
      <trkpt lat="45.91423" lon="4.68002">
        <ele>382.43103</ele>
        <time>2022-08-23T14:40:30.000Z</time>
      </trkpt>
      <trkpt lat="45.91424" lon="4.68006">
        <ele>382.31842</ele>
        <time>2022-08-23T14:40:31.000Z</time>
      </trkpt>
      <trkpt lat="45.91426" lon="4.68009">
        <ele>382.16818</ele>
        <time>2022-08-23T14:40:32.000Z</time>
      </trkpt>
      <trkpt lat="45.91427" lon="4.68013">
        <ele>382.00781</ele>
        <time>2022-08-23T14:40:33.000Z</time>
      </trkpt>
      <trkpt lat="45.91428" lon="4.68016">
        <ele>381.80756</ele>
        <time>2022-08-23T14:40:34.000Z</time>
      </trkpt>
      <trkpt lat="45.91428" lon="4.6802">
        <ele>381.51215</ele>
        <time>2022-08-23T14:40:35.000Z</time>
      </trkpt>
      <trkpt lat="45.91427" lon="4.68024">
        <ele>381.20135</ele>
        <time>2022-08-23T14:40:36.000Z</time>
      </trkpt>
      <trkpt lat="45.91426" lon="4.68029">
        <ele>380.7511</ele>
        <time>2022-08-23T14:40:37.000Z</time>
      </trkpt>
      <trkpt lat="45.91426" lon="4.68032">
        <ele>380.34451</ele>
        <time>2022-08-23T14:40:38.000Z</time>
      </trkpt>
      <trkpt lat="45.91425" lon="4.68034">
        <ele>379.93716</ele>
        <time>2022-08-23T14:40:39.000Z</time>
      </trkpt>
      <trkpt lat="45.91425" lon="4.68037">
        <ele>379.55731</ele>
        <time>2022-08-23T14:40:40.000Z</time>
      </trkpt>
      <trkpt lat="45.91426" lon="4.6804">
        <ele>379.24261</ele>
        <time>2022-08-23T14:40:41.000Z</time>
      </trkpt>
      <trkpt lat="45.91426" lon="4.68043">
        <ele>378.96414</ele>
        <time>2022-08-23T14:40:42.000Z</time>
      </trkpt>
      <trkpt lat="45.91427" lon="4.68046">
        <ele>378.73557</ele>
        <time>2022-08-23T14:40:43.000Z</time>
      </trkpt>
      <trkpt lat="45.91429" lon="4.68049">
        <ele>378.41473</ele>
        <time>2022-08-23T14:40:44.000Z</time>
      </trkpt>
      <trkpt lat="45.91431" lon="4.68053">
        <ele>378.03787</ele>
        <time>2022-08-23T14:40:45.000Z</time>
      </trkpt>
      <trkpt lat="45.91432" lon="4.68056">
        <ele>377.71454</ele>
        <time>2022-08-23T14:40:46.000Z</time>
      </trkpt>
      <trkpt lat="45.91432" lon="4.68059">
        <ele>377.33801</ele>
        <time>2022-08-23T14:40:47.000Z</time>
      </trkpt>
      <trkpt lat="45.91433" lon="4.68063">
        <ele>376.96625</ele>
        <time>2022-08-23T14:40:48.000Z</time>
      </trkpt>
      <trkpt lat="45.91434" lon="4.68067">
        <ele>376.59604</ele>
        <time>2022-08-23T14:40:49.000Z</time>
      </trkpt>
      <trkpt lat="45.91434" lon="4.6807">
        <ele>376.26859</ele>
        <time>2022-08-23T14:40:50.000Z</time>
      </trkpt>
      <trkpt lat="45.91435" lon="4.68075">
        <ele>376.11597</ele>
        <time>2022-08-23T14:40:52.000Z</time>
      </trkpt>
      <trkpt lat="45.91436" lon="4.68079">
        <ele>376.02603</ele>
        <time>2022-08-23T14:40:54.000Z</time>
      </trkpt>
      <trkpt lat="45.91438" lon="4.68082">
        <ele>375.86002</ele>
        <time>2022-08-23T14:40:56.000Z</time>
      </trkpt>
      <trkpt lat="45.9144" lon="4.68083">
        <ele>375.63028</ele>
        <time>2022-08-23T14:40:57.000Z</time>
      </trkpt>
      <trkpt lat="45.91442" lon="4.68085">
        <ele>375.46976</ele>
        <time>2022-08-23T14:40:58.000Z</time>
      </trkpt>
      <trkpt lat="45.91444" lon="4.68086">
        <ele>375.91736</ele>
        <time>2022-08-23T14:40:59.000Z</time>
      </trkpt>
      <trkpt lat="45.91446" lon="4.68087">
        <ele>376.28659</ele>
        <time>2022-08-23T14:41:00.000Z</time>
      </trkpt>
      <trkpt lat="45.91447" lon="4.68089">
        <ele>376.51752</ele>
        <time>2022-08-23T14:41:01.000Z</time>
      </trkpt>
      <trkpt lat="45.91449" lon="4.68091">
        <ele>376.5766</ele>
        <time>2022-08-23T14:41:02.000Z</time>
      </trkpt>
      <trkpt lat="45.91451" lon="4.68093">
        <ele>376.65985</ele>
        <time>2022-08-23T14:41:03.000Z</time>
      </trkpt>
      <trkpt lat="45.91452" lon="4.68096">
        <ele>376.71756</ele>
        <time>2022-08-23T14:41:04.000Z</time>
      </trkpt>
      <trkpt lat="45.91452" lon="4.681">
        <ele>376.74139</ele>
        <time>2022-08-23T14:41:05.000Z</time>
      </trkpt>
      <trkpt lat="45.91452" lon="4.68104">
        <ele>376.76447</ele>
        <time>2022-08-23T14:41:06.000Z</time>
      </trkpt>
      <trkpt lat="45.91451" lon="4.68109">
        <ele>376.90424</ele>
        <time>2022-08-23T14:41:07.000Z</time>
      </trkpt>
      <trkpt lat="45.91449" lon="4.68113">
        <ele>377.13004</ele>
        <time>2022-08-23T14:41:08.000Z</time>
      </trkpt>
      <trkpt lat="45.91448" lon="4.68117">
        <ele>377.32874</ele>
        <time>2022-08-23T14:41:09.000Z</time>
      </trkpt>
      <trkpt lat="45.91447" lon="4.68121">
        <ele>377.56253</ele>
        <time>2022-08-23T14:41:10.000Z</time>
      </trkpt>
      <trkpt lat="45.91446" lon="4.68125">
        <ele>377.80997</ele>
        <time>2022-08-23T14:41:11.000Z</time>
      </trkpt>
      <trkpt lat="45.91445" lon="4.68129">
        <ele>378.01385</ele>
        <time>2022-08-23T14:41:12.000Z</time>
      </trkpt>
      <trkpt lat="45.91444" lon="4.68133">
        <ele>378.23343</ele>
        <time>2022-08-23T14:41:13.000Z</time>
      </trkpt>
      <trkpt lat="45.91443" lon="4.68137">
        <ele>378.29425</ele>
        <time>2022-08-23T14:41:14.000Z</time>
      </trkpt>
      <trkpt lat="45.91442" lon="4.68141">
        <ele>378.3154</ele>
        <time>2022-08-23T14:41:15.000Z</time>
      </trkpt>
      <trkpt lat="45.91441" lon="4.68144">
        <ele>378.48022</ele>
        <time>2022-08-23T14:41:16.000Z</time>
      </trkpt>
      <trkpt lat="45.91441" lon="4.68148">
        <ele>378.78558</ele>
        <time>2022-08-23T14:41:17.000Z</time>
      </trkpt>
      <trkpt lat="45.9144" lon="4.68152">
        <ele>379.1203</ele>
        <time>2022-08-23T14:41:18.000Z</time>
      </trkpt>
      <trkpt lat="45.9144" lon="4.68156">
        <ele>379.1626</ele>
        <time>2022-08-23T14:41:19.000Z</time>
      </trkpt>
      <trkpt lat="45.9144" lon="4.6816">
        <ele>379.31256</ele>
        <time>2022-08-23T14:41:20.000Z</time>
      </trkpt>
      <trkpt lat="45.9144" lon="4.68164">
        <ele>379.50635</ele>
        <time>2022-08-23T14:41:21.000Z</time>
      </trkpt>
      <trkpt lat="45.9144" lon="4.68169">
        <ele>379.77173</ele>
        <time>2022-08-23T14:41:22.000Z</time>
      </trkpt>
      <trkpt lat="45.9144" lon="4.68173">
        <ele>380.04828</ele>
        <time>2022-08-23T14:41:23.000Z</time>
      </trkpt>
      <trkpt lat="45.9144" lon="4.68178">
        <ele>380.34091</ele>
        <time>2022-08-23T14:41:24.000Z</time>
      </trkpt>
      <trkpt lat="45.9144" lon="4.68182">
        <ele>380.64285</ele>
        <time>2022-08-23T14:41:25.000Z</time>
      </trkpt>
      <trkpt lat="45.9144" lon="4.68187">
        <ele>380.89423</ele>
        <time>2022-08-23T14:41:26.000Z</time>
      </trkpt>
      <trkpt lat="45.91439" lon="4.68191">
        <ele>381.16019</ele>
        <time>2022-08-23T14:41:27.000Z</time>
      </trkpt>
      <trkpt lat="45.91439" lon="4.68196">
        <ele>381.39951</ele>
        <time>2022-08-23T14:41:28.000Z</time>
      </trkpt>
      <trkpt lat="45.91438" lon="4.68201">
        <ele>381.62592</ele>
        <time>2022-08-23T14:41:29.000Z</time>
      </trkpt>
      <trkpt lat="45.91438" lon="4.68205">
        <ele>381.89328</ele>
        <time>2022-08-23T14:41:30.000Z</time>
      </trkpt>
      <trkpt lat="45.91437" lon="4.68209">
        <ele>382.18909</ele>
        <time>2022-08-23T14:41:31.000Z</time>
      </trkpt>
      <trkpt lat="45.91437" lon="4.68213">
        <ele>382.58148</ele>
        <time>2022-08-23T14:41:32.000Z</time>
      </trkpt>
      <trkpt lat="45.91437" lon="4.68217">
        <ele>382.92029</ele>
        <time>2022-08-23T14:41:33.000Z</time>
      </trkpt>
      <trkpt lat="45.91435" lon="4.6824">
        <ele>383.47815</ele>
        <time>2022-08-23T14:41:39.000Z</time>
      </trkpt>
      <trkpt lat="45.91435" lon="4.68244">
        <ele>383.93173</ele>
        <time>2022-08-23T14:41:40.000Z</time>
      </trkpt>
      <trkpt lat="45.91435" lon="4.68249">
        <ele>384.30838</ele>
        <time>2022-08-23T14:41:41.000Z</time>
      </trkpt>
      <trkpt lat="45.91434" lon="4.68253">
        <ele>384.62134</ele>
        <time>2022-08-23T14:41:42.000Z</time>
      </trkpt>
      <trkpt lat="45.91434" lon="4.68258">
        <ele>384.90652</ele>
        <time>2022-08-23T14:41:43.000Z</time>
      </trkpt>
      <trkpt lat="45.91434" lon="4.68261">
        <ele>384.9296</ele>
        <time>2022-08-23T14:41:44.000Z</time>
      </trkpt>
      <trkpt lat="45.91434" lon="4.68265">
        <ele>385.00024</ele>
        <time>2022-08-23T14:41:45.000Z</time>
      </trkpt>
      <trkpt lat="45.91433" lon="4.68268">
        <ele>385.10321</ele>
        <time>2022-08-23T14:41:46.000Z</time>
      </trkpt>
      <trkpt lat="45.91433" lon="4.68271">
        <ele>385.25348</ele>
        <time>2022-08-23T14:41:47.000Z</time>
      </trkpt>
      <trkpt lat="45.91432" lon="4.68273">
        <ele>385.29483</ele>
        <time>2022-08-23T14:41:48.000Z</time>
      </trkpt>
      <trkpt lat="45.91431" lon="4.68276">
        <ele>385.28815</ele>
        <time>2022-08-23T14:41:49.000Z</time>
      </trkpt>
      <trkpt lat="45.91431" lon="4.68279">
        <ele>385.3078</ele>
        <time>2022-08-23T14:41:50.000Z</time>
      </trkpt>
      <trkpt lat="45.9143" lon="4.68282">
        <ele>385.40335</ele>
        <time>2022-08-23T14:41:52.000Z</time>
      </trkpt>
      <trkpt lat="45.91428" lon="4.6828">
        <ele>385.62027</ele>
        <time>2022-08-23T14:41:59.000Z</time>
      </trkpt>
      <trkpt lat="45.91426" lon="4.68283">
        <ele>385.93478</ele>
        <time>2022-08-23T14:43:13.000Z</time>
      </trkpt>
      <trkpt lat="45.91425" lon="4.68287">
        <ele>386.21967</ele>
        <time>2022-08-23T14:43:14.000Z</time>
      </trkpt>
      <trkpt lat="45.91424" lon="4.68291">
        <ele>386.54465</ele>
        <time>2022-08-23T14:43:15.000Z</time>
      </trkpt>
      <trkpt lat="45.91422" lon="4.68294">
        <ele>386.90781</ele>
        <time>2022-08-23T14:43:16.000Z</time>
      </trkpt>
      <trkpt lat="45.91421" lon="4.68297">
        <ele>387.14081</ele>
        <time>2022-08-23T14:43:17.000Z</time>
      </trkpt>
      <trkpt lat="45.91418" lon="4.683">
        <ele>387.37958</ele>
        <time>2022-08-23T14:43:18.000Z</time>
      </trkpt>
      <trkpt lat="45.91416" lon="4.68302">
        <ele>387.39658</ele>
        <time>2022-08-23T14:43:19.000Z</time>
      </trkpt>
      <trkpt lat="45.91413" lon="4.68304">
        <ele>387.52362</ele>
        <time>2022-08-23T14:43:20.000Z</time>
      </trkpt>
      <trkpt lat="45.9141" lon="4.68306">
        <ele>387.70407</ele>
        <time>2022-08-23T14:43:21.000Z</time>
      </trkpt>
      <trkpt lat="45.91408" lon="4.68307">
        <ele>387.9313</ele>
        <time>2022-08-23T14:43:22.000Z</time>
      </trkpt>
      <trkpt lat="45.91405" lon="4.68308">
        <ele>388.14575</ele>
        <time>2022-08-23T14:43:23.000Z</time>
      </trkpt>
      <trkpt lat="45.91403" lon="4.68309">
        <ele>388.38394</ele>
        <time>2022-08-23T14:43:24.000Z</time>
      </trkpt>
      <trkpt lat="45.91401" lon="4.6831">
        <ele>388.6355</ele>
        <time>2022-08-23T14:43:25.000Z</time>
      </trkpt>
      <trkpt lat="45.91398" lon="4.6831">
        <ele>388.99405</ele>
        <time>2022-08-23T14:43:26.000Z</time>
      </trkpt>
      <trkpt lat="45.91396" lon="4.68311">
        <ele>389.31354</ele>
        <time>2022-08-23T14:43:27.000Z</time>
      </trkpt>
      <trkpt lat="45.91394" lon="4.68312">
        <ele>389.7363</ele>
        <time>2022-08-23T14:43:28.000Z</time>
      </trkpt>
      <trkpt lat="45.91392" lon="4.68313">
        <ele>390.19403</ele>
        <time>2022-08-23T14:43:29.000Z</time>
      </trkpt>
      <trkpt lat="45.91389" lon="4.68314">
        <ele>390.64136</ele>
        <time>2022-08-23T14:43:30.000Z</time>
      </trkpt>
      <trkpt lat="45.91387" lon="4.68315">
        <ele>391.05914</ele>
        <time>2022-08-23T14:43:31.000Z</time>
      </trkpt>
      <trkpt lat="45.91384" lon="4.68315">
        <ele>391.31995</ele>
        <time>2022-08-23T14:43:32.000Z</time>
      </trkpt>
      <trkpt lat="45.91382" lon="4.68315">
        <ele>391.58063</ele>
        <time>2022-08-23T14:43:33.000Z</time>
      </trkpt>
      <trkpt lat="45.9138" lon="4.68316">
        <ele>391.82214</ele>
        <time>2022-08-23T14:43:34.000Z</time>
      </trkpt>
      <trkpt lat="45.91378" lon="4.68318">
        <ele>391.99591</ele>
        <time>2022-08-23T14:43:35.000Z</time>
      </trkpt>
      <trkpt lat="45.91377" lon="4.68321">
        <ele>392.09515</ele>
        <time>2022-08-23T14:43:36.000Z</time>
      </trkpt>
      <trkpt lat="45.91376" lon="4.68324">
        <ele>392.22174</ele>
        <time>2022-08-23T14:43:37.000Z</time>
      </trkpt>
      <trkpt lat="45.91374" lon="4.68327">
        <ele>392.28372</ele>
        <time>2022-08-23T14:43:38.000Z</time>
      </trkpt>
      <trkpt lat="45.91373" lon="4.68331">
        <ele>392.37033</ele>
        <time>2022-08-23T14:43:39.000Z</time>
      </trkpt>
      <trkpt lat="45.91372" lon="4.68335">
        <ele>392.41583</ele>
        <time>2022-08-23T14:43:40.000Z</time>
      </trkpt>
      <trkpt lat="45.91371" lon="4.68339">
        <ele>392.43127</ele>
        <time>2022-08-23T14:43:41.000Z</time>
      </trkpt>
      <trkpt lat="45.91371" lon="4.68343">
        <ele>392.39224</ele>
        <time>2022-08-23T14:43:42.000Z</time>
      </trkpt>
      <trkpt lat="45.9137" lon="4.68347">
        <ele>392.38849</ele>
        <time>2022-08-23T14:43:43.000Z</time>
      </trkpt>
      <trkpt lat="45.9137" lon="4.6835">
        <ele>392.35333</ele>
        <time>2022-08-23T14:43:44.000Z</time>
      </trkpt>
      <trkpt lat="45.91369" lon="4.68354">
        <ele>392.30478</ele>
        <time>2022-08-23T14:43:45.000Z</time>
      </trkpt>
      <trkpt lat="45.91368" lon="4.68358">
        <ele>392.22797</ele>
        <time>2022-08-23T14:43:46.000Z</time>
      </trkpt>
      <trkpt lat="45.91367" lon="4.6836">
        <ele>392.20026</ele>
        <time>2022-08-23T14:43:47.000Z</time>
      </trkpt>
      <trkpt lat="45.91367" lon="4.68363">
        <ele>392.21149</ele>
        <time>2022-08-23T14:43:48.000Z</time>
      </trkpt>
      <trkpt lat="45.91365" lon="4.68368">
        <ele>392.23822</ele>
        <time>2022-08-23T14:43:50.000Z</time>
      </trkpt>
      <trkpt lat="45.91364" lon="4.68371">
        <ele>392.21155</ele>
        <time>2022-08-23T14:43:51.000Z</time>
      </trkpt>
      <trkpt lat="45.91362" lon="4.68374">
        <ele>392.19449</ele>
        <time>2022-08-23T14:43:52.000Z</time>
      </trkpt>
      <trkpt lat="45.91361" lon="4.68377">
        <ele>392.1926</ele>
        <time>2022-08-23T14:43:53.000Z</time>
      </trkpt>
      <trkpt lat="45.91361" lon="4.6838">
        <ele>392.16605</ele>
        <time>2022-08-23T14:43:54.000Z</time>
      </trkpt>
      <trkpt lat="45.91361" lon="4.68385">
        <ele>392.30267</ele>
        <time>2022-08-23T14:43:56.000Z</time>
      </trkpt>
      <trkpt lat="45.9136" lon="4.68389">
        <ele>392.47876</ele>
        <time>2022-08-23T14:43:58.000Z</time>
      </trkpt>
      <trkpt lat="45.9136" lon="4.68392">
        <ele>392.66602</ele>
        <time>2022-08-23T14:43:59.000Z</time>
      </trkpt>
      <trkpt lat="45.91359" lon="4.68395">
        <ele>392.9472</ele>
        <time>2022-08-23T14:44:00.000Z</time>
      </trkpt>
      <trkpt lat="45.91358" lon="4.68397">
        <ele>393.28229</ele>
        <time>2022-08-23T14:44:01.000Z</time>
      </trkpt>
      <trkpt lat="45.91357" lon="4.684">
        <ele>393.49722</ele>
        <time>2022-08-23T14:44:02.000Z</time>
      </trkpt>
      <trkpt lat="45.91357" lon="4.68403">
        <ele>393.72299</ele>
        <time>2022-08-23T14:44:03.000Z</time>
      </trkpt>
      <trkpt lat="45.91356" lon="4.68405">
        <ele>394.01181</ele>
        <time>2022-08-23T14:44:04.000Z</time>
      </trkpt>
      <trkpt lat="45.91355" lon="4.6841">
        <ele>394.24847</ele>
        <time>2022-08-23T14:44:06.000Z</time>
      </trkpt>
      <trkpt lat="45.91353" lon="4.68413">
        <ele>394.47662</ele>
        <time>2022-08-23T14:44:07.000Z</time>
      </trkpt>
      <trkpt lat="45.91352" lon="4.68415">
        <ele>394.75238</ele>
        <time>2022-08-23T14:44:08.000Z</time>
      </trkpt>
      <trkpt lat="45.91351" lon="4.68417">
        <ele>394.99939</ele>
        <time>2022-08-23T14:44:09.000Z</time>
      </trkpt>
      <trkpt lat="45.91349" lon="4.68422">
        <ele>395.15564</ele>
        <time>2022-08-23T14:44:11.000Z</time>
      </trkpt>
      <trkpt lat="45.91348" lon="4.68424">
        <ele>395.30563</ele>
        <time>2022-08-23T14:44:12.000Z</time>
      </trkpt>
      <trkpt lat="45.91347" lon="4.68427">
        <ele>395.45062</ele>
        <time>2022-08-23T14:44:13.000Z</time>
      </trkpt>
      <trkpt lat="45.91346" lon="4.68429">
        <ele>395.64172</ele>
        <time>2022-08-23T14:44:14.000Z</time>
      </trkpt>
      <trkpt lat="45.91344" lon="4.68431">
        <ele>395.92328</ele>
        <time>2022-08-23T14:44:15.000Z</time>
      </trkpt>
      <trkpt lat="45.91342" lon="4.68433">
        <ele>396.177</ele>
        <time>2022-08-23T14:44:16.000Z</time>
      </trkpt>
      <trkpt lat="45.9134" lon="4.68435">
        <ele>396.41586</ele>
        <time>2022-08-23T14:44:17.000Z</time>
      </trkpt>
      <trkpt lat="45.91338" lon="4.68437">
        <ele>396.54877</ele>
        <time>2022-08-23T14:44:18.000Z</time>
      </trkpt>
      <trkpt lat="45.91337" lon="4.68439">
        <ele>396.56177</ele>
        <time>2022-08-23T14:44:19.000Z</time>
      </trkpt>
      <trkpt lat="45.91335" lon="4.68442">
        <ele>396.52509</ele>
        <time>2022-08-23T14:44:20.000Z</time>
      </trkpt>
      <trkpt lat="45.91333" lon="4.68444">
        <ele>396.5177</ele>
        <time>2022-08-23T14:44:21.000Z</time>
      </trkpt>
      <trkpt lat="45.91332" lon="4.68445">
        <ele>396.44885</ele>
        <time>2022-08-23T14:44:22.000Z</time>
      </trkpt>
      <trkpt lat="45.9133" lon="4.68447">
        <ele>396.31848</ele>
        <time>2022-08-23T14:44:23.000Z</time>
      </trkpt>
      <trkpt lat="45.91327" lon="4.68449">
        <ele>396.27057</ele>
        <time>2022-08-23T14:44:24.000Z</time>
      </trkpt>
      <trkpt lat="45.91325" lon="4.68451">
        <ele>396.1871</ele>
        <time>2022-08-23T14:44:25.000Z</time>
      </trkpt>
      <trkpt lat="45.91322" lon="4.68452">
        <ele>396.03152</ele>
        <time>2022-08-23T14:44:26.000Z</time>
      </trkpt>
      <trkpt lat="45.91319" lon="4.68453">
        <ele>395.85864</ele>
        <time>2022-08-23T14:44:27.000Z</time>
      </trkpt>
      <trkpt lat="45.91316" lon="4.68454">
        <ele>395.69797</ele>
        <time>2022-08-23T14:44:28.000Z</time>
      </trkpt>
      <trkpt lat="45.91313" lon="4.68454">
        <ele>395.54337</ele>
        <time>2022-08-23T14:44:29.000Z</time>
      </trkpt>
      <trkpt lat="45.9131" lon="4.68455">
        <ele>395.43915</ele>
        <time>2022-08-23T14:44:30.000Z</time>
      </trkpt>
      <trkpt lat="45.91307" lon="4.68455">
        <ele>395.34921</ele>
        <time>2022-08-23T14:44:31.000Z</time>
      </trkpt>
      <trkpt lat="45.91304" lon="4.68455">
        <ele>395.26849</ele>
        <time>2022-08-23T14:44:32.000Z</time>
      </trkpt>
      <trkpt lat="45.91301" lon="4.68456">
        <ele>395.12012</ele>
        <time>2022-08-23T14:44:33.000Z</time>
      </trkpt>
      <trkpt lat="45.91298" lon="4.68456">
        <ele>394.92496</ele>
        <time>2022-08-23T14:44:34.000Z</time>
      </trkpt>
      <trkpt lat="45.91296" lon="4.68457">
        <ele>394.67587</ele>
        <time>2022-08-23T14:44:35.000Z</time>
      </trkpt>
      <trkpt lat="45.91293" lon="4.68457">
        <ele>394.41867</ele>
        <time>2022-08-23T14:44:36.000Z</time>
      </trkpt>
      <trkpt lat="45.9129" lon="4.68457">
        <ele>394.1442</ele>
        <time>2022-08-23T14:44:37.000Z</time>
      </trkpt>
      <trkpt lat="45.91287" lon="4.68457">
        <ele>393.90521</ele>
        <time>2022-08-23T14:44:38.000Z</time>
      </trkpt>
      <trkpt lat="45.91283" lon="4.68456">
        <ele>393.63397</ele>
        <time>2022-08-23T14:44:39.000Z</time>
      </trkpt>
      <trkpt lat="45.9128" lon="4.68456">
        <ele>393.35883</ele>
        <time>2022-08-23T14:44:40.000Z</time>
      </trkpt>
      <trkpt lat="45.91277" lon="4.68455">
        <ele>393.07321</ele>
        <time>2022-08-23T14:44:41.000Z</time>
      </trkpt>
      <trkpt lat="45.91274" lon="4.68455">
        <ele>392.8887</ele>
        <time>2022-08-23T14:44:42.000Z</time>
      </trkpt>
      <trkpt lat="45.91271" lon="4.68455">
        <ele>392.82553</ele>
        <time>2022-08-23T14:44:43.000Z</time>
      </trkpt>
      <trkpt lat="45.91268" lon="4.68455">
        <ele>392.82477</ele>
        <time>2022-08-23T14:44:44.000Z</time>
      </trkpt>
      <trkpt lat="45.91266" lon="4.68455">
        <ele>392.86337</ele>
        <time>2022-08-23T14:44:45.000Z</time>
      </trkpt>
      <trkpt lat="45.91263" lon="4.68455">
        <ele>392.85272</ele>
        <time>2022-08-23T14:44:46.000Z</time>
      </trkpt>
      <trkpt lat="45.9126" lon="4.68455">
        <ele>392.93793</ele>
        <time>2022-08-23T14:44:47.000Z</time>
      </trkpt>
      <trkpt lat="45.91258" lon="4.68455">
        <ele>392.99338</ele>
        <time>2022-08-23T14:44:48.000Z</time>
      </trkpt>
      <trkpt lat="45.91256" lon="4.68456">
        <ele>392.95129</ele>
        <time>2022-08-23T14:44:49.000Z</time>
      </trkpt>
      <trkpt lat="45.91254" lon="4.68458">
        <ele>392.84137</ele>
        <time>2022-08-23T14:44:50.000Z</time>
      </trkpt>
      <trkpt lat="45.91253" lon="4.6846">
        <ele>392.74506</ele>
        <time>2022-08-23T14:44:51.000Z</time>
      </trkpt>
      <trkpt lat="45.91251" lon="4.68463">
        <ele>392.62384</ele>
        <time>2022-08-23T14:44:52.000Z</time>
      </trkpt>
      <trkpt lat="45.9125" lon="4.68465">
        <ele>392.55383</ele>
        <time>2022-08-23T14:44:53.000Z</time>
      </trkpt>
      <trkpt lat="45.91248" lon="4.68467">
        <ele>392.46512</ele>
        <time>2022-08-23T14:44:54.000Z</time>
      </trkpt>
      <trkpt lat="45.91247" lon="4.6847">
        <ele>392.39584</ele>
        <time>2022-08-23T14:44:55.000Z</time>
      </trkpt>
      <trkpt lat="45.91245" lon="4.68472">
        <ele>392.32693</ele>
        <time>2022-08-23T14:44:56.000Z</time>
      </trkpt>
      <trkpt lat="45.91244" lon="4.68475">
        <ele>392.27448</ele>
        <time>2022-08-23T14:44:57.000Z</time>
      </trkpt>
      <trkpt lat="45.91243" lon="4.68477">
        <ele>392.24173</ele>
        <time>2022-08-23T14:44:58.000Z</time>
      </trkpt>
      <trkpt lat="45.91241" lon="4.68479">
        <ele>392.2334</ele>
        <time>2022-08-23T14:45:00.000Z</time>
      </trkpt>
      <trkpt lat="45.91238" lon="4.68481">
        <ele>392.13293</ele>
        <time>2022-08-23T14:46:11.000Z</time>
      </trkpt>
      <trkpt lat="45.91235" lon="4.68482">
        <ele>392.14899</ele>
        <time>2022-08-23T14:46:12.000Z</time>
      </trkpt>
      <trkpt lat="45.91231" lon="4.68482">
        <ele>392.22101</ele>
        <time>2022-08-23T14:46:13.000Z</time>
      </trkpt>
      <trkpt lat="45.91226" lon="4.68482">
        <ele>392.17917</ele>
        <time>2022-08-23T14:46:14.000Z</time>
      </trkpt>
      <trkpt lat="45.91221" lon="4.68482">
        <ele>392.03033</ele>
        <time>2022-08-23T14:46:15.000Z</time>
      </trkpt>
      <trkpt lat="45.91216" lon="4.68483">
        <ele>391.71402</ele>
        <time>2022-08-23T14:46:16.000Z</time>
      </trkpt>
      <trkpt lat="45.91211" lon="4.68484">
        <ele>391.35272</ele>
        <time>2022-08-23T14:46:17.000Z</time>
      </trkpt>
      <trkpt lat="45.91203" lon="4.68486">
        <ele>390.91779</ele>
        <time>2022-08-23T14:46:18.000Z</time>
      </trkpt>
      <trkpt lat="45.91198" lon="4.68487">
        <ele>390.42926</ele>
        <time>2022-08-23T14:46:19.000Z</time>
      </trkpt>
      <trkpt lat="45.91192" lon="4.6849">
        <ele>389.87836</ele>
        <time>2022-08-23T14:46:20.000Z</time>
      </trkpt>
      <trkpt lat="45.91188" lon="4.68487">
        <ele>389.39026</ele>
        <time>2022-08-23T14:46:21.000Z</time>
      </trkpt>
      <trkpt lat="45.91183" lon="4.68487">
        <ele>388.88474</ele>
        <time>2022-08-23T14:46:22.000Z</time>
      </trkpt>
      <trkpt lat="45.91179" lon="4.68487">
        <ele>388.40863</ele>
        <time>2022-08-23T14:46:23.000Z</time>
      </trkpt>
      <trkpt lat="45.91177" lon="4.68489">
        <ele>387.80588</ele>
        <time>2022-08-23T14:46:25.000Z</time>
      </trkpt>
      <trkpt lat="45.91176" lon="4.68486">
        <ele>387.22223</ele>
        <time>2022-08-23T14:46:27.000Z</time>
      </trkpt>
      <trkpt lat="45.91175" lon="4.68484">
        <ele>386.60007</ele>
        <time>2022-08-23T14:46:37.000Z</time>
      </trkpt>
      <trkpt lat="45.91172" lon="4.68483">
        <ele>386.16412</ele>
        <time>2022-08-23T14:47:07.000Z</time>
      </trkpt>
      <trkpt lat="45.91169" lon="4.68482">
        <ele>385.63312</ele>
        <time>2022-08-23T14:47:08.000Z</time>
      </trkpt>
      <trkpt lat="45.91166" lon="4.68481">
        <ele>385.10892</ele>
        <time>2022-08-23T14:47:09.000Z</time>
      </trkpt>
      <trkpt lat="45.91163" lon="4.6848">
        <ele>384.50241</ele>
        <time>2022-08-23T14:47:10.000Z</time>
      </trkpt>
      <trkpt lat="45.91159" lon="4.68479">
        <ele>384.00613</ele>
        <time>2022-08-23T14:47:11.000Z</time>
      </trkpt>
      <trkpt lat="45.91156" lon="4.68478">
        <ele>383.51096</ele>
        <time>2022-08-23T14:47:12.000Z</time>
      </trkpt>
      <trkpt lat="45.91153" lon="4.68477">
        <ele>382.862</ele>
        <time>2022-08-23T14:47:13.000Z</time>
      </trkpt>
      <trkpt lat="45.9115" lon="4.68475">
        <ele>382.32117</ele>
        <time>2022-08-23T14:47:14.000Z</time>
      </trkpt>
      <trkpt lat="45.91146" lon="4.68473">
        <ele>381.89203</ele>
        <time>2022-08-23T14:47:15.000Z</time>
      </trkpt>
      <trkpt lat="45.91143" lon="4.68472">
        <ele>381.59641</ele>
        <time>2022-08-23T14:47:16.000Z</time>
      </trkpt>
      <trkpt lat="45.9114" lon="4.6847">
        <ele>381.31839</ele>
        <time>2022-08-23T14:47:17.000Z</time>
      </trkpt>
      <trkpt lat="45.91138" lon="4.68469">
        <ele>381.02106</ele>
        <time>2022-08-23T14:47:18.000Z</time>
      </trkpt>
      <trkpt lat="45.91135" lon="4.68466">
        <ele>380.81384</ele>
        <time>2022-08-23T14:47:19.000Z</time>
      </trkpt>
      <trkpt lat="45.91132" lon="4.68464">
        <ele>380.65854</ele>
        <time>2022-08-23T14:47:20.000Z</time>
      </trkpt>
      <trkpt lat="45.91128" lon="4.68462">
        <ele>380.51349</ele>
        <time>2022-08-23T14:47:21.000Z</time>
      </trkpt>
      <trkpt lat="45.91126" lon="4.6846">
        <ele>380.32004</ele>
        <time>2022-08-23T14:47:22.000Z</time>
      </trkpt>
      <trkpt lat="45.91124" lon="4.68458">
        <ele>380.11072</ele>
        <time>2022-08-23T14:47:23.000Z</time>
      </trkpt>
      <trkpt lat="45.91122" lon="4.68455">
        <ele>380.0145</ele>
        <time>2022-08-23T14:47:24.000Z</time>
      </trkpt>
      <trkpt lat="45.9112" lon="4.68453">
        <ele>379.9632</ele>
        <time>2022-08-23T14:47:25.000Z</time>
      </trkpt>
      <trkpt lat="45.91117" lon="4.6845">
        <ele>379.99774</ele>
        <time>2022-08-23T14:47:26.000Z</time>
      </trkpt>
      <trkpt lat="45.91115" lon="4.68447">
        <ele>379.84387</ele>
        <time>2022-08-23T14:47:27.000Z</time>
      </trkpt>
      <trkpt lat="45.91112" lon="4.68445">
        <ele>379.77078</ele>
        <time>2022-08-23T14:47:28.000Z</time>
      </trkpt>
      <trkpt lat="45.9111" lon="4.68442">
        <ele>379.66422</ele>
        <time>2022-08-23T14:47:29.000Z</time>
      </trkpt>
      <trkpt lat="45.91107" lon="4.68439">
        <ele>379.64169</ele>
        <time>2022-08-23T14:47:30.000Z</time>
      </trkpt>
      <trkpt lat="45.91105" lon="4.68437">
        <ele>379.67783</ele>
        <time>2022-08-23T14:47:31.000Z</time>
      </trkpt>
      <trkpt lat="45.91104" lon="4.68435">
        <ele>379.60632</ele>
        <time>2022-08-23T14:47:32.000Z</time>
      </trkpt>
      <trkpt lat="45.91102" lon="4.68434">
        <ele>379.55804</ele>
        <time>2022-08-23T14:47:33.000Z</time>
      </trkpt>
      <trkpt lat="45.911" lon="4.68432">
        <ele>379.5191</ele>
        <time>2022-08-23T14:47:35.000Z</time>
      </trkpt>
      <trkpt lat="45.91098" lon="4.68432">
        <ele>379.49268</ele>
        <time>2022-08-23T14:47:54.000Z</time>
      </trkpt>
      <trkpt lat="45.91095" lon="4.6843">
        <ele>379.49728</ele>
        <time>2022-08-23T14:48:20.000Z</time>
      </trkpt>
      <trkpt lat="45.91093" lon="4.68429">
        <ele>379.62143</ele>
        <time>2022-08-23T14:48:21.000Z</time>
      </trkpt>
      <trkpt lat="45.9109" lon="4.68429">
        <ele>379.81836</ele>
        <time>2022-08-23T14:48:22.000Z</time>
      </trkpt>
      <trkpt lat="45.91088" lon="4.68428">
        <ele>379.97452</ele>
        <time>2022-08-23T14:48:23.000Z</time>
      </trkpt>
      <trkpt lat="45.91085" lon="4.68427">
        <ele>380.17905</ele>
        <time>2022-08-23T14:48:24.000Z</time>
      </trkpt>
      <trkpt lat="45.91082" lon="4.68427">
        <ele>380.36145</ele>
        <time>2022-08-23T14:48:25.000Z</time>
      </trkpt>
      <trkpt lat="45.91079" lon="4.68425">
        <ele>380.58234</ele>
        <time>2022-08-23T14:48:26.000Z</time>
      </trkpt>
      <trkpt lat="45.91076" lon="4.68424">
        <ele>380.7438</ele>
        <time>2022-08-23T14:48:27.000Z</time>
      </trkpt>
      <trkpt lat="45.91072" lon="4.68423">
        <ele>380.92416</ele>
        <time>2022-08-23T14:48:28.000Z</time>
      </trkpt>
      <trkpt lat="45.91069" lon="4.68421">
        <ele>381.02658</ele>
        <time>2022-08-23T14:48:29.000Z</time>
      </trkpt>
      <trkpt lat="45.91065" lon="4.6842">
        <ele>381.09579</ele>
        <time>2022-08-23T14:48:30.000Z</time>
      </trkpt>
      <trkpt lat="45.91062" lon="4.68419">
        <ele>381.21368</ele>
        <time>2022-08-23T14:48:31.000Z</time>
      </trkpt>
      <trkpt lat="45.91058" lon="4.68417">
        <ele>381.30716</ele>
        <time>2022-08-23T14:48:32.000Z</time>
      </trkpt>
      <trkpt lat="45.91055" lon="4.68416">
        <ele>381.43774</ele>
        <time>2022-08-23T14:48:33.000Z</time>
      </trkpt>
      <trkpt lat="45.91051" lon="4.68414">
        <ele>381.54822</ele>
        <time>2022-08-23T14:48:34.000Z</time>
      </trkpt>
      <trkpt lat="45.91047" lon="4.68411">
        <ele>381.63971</ele>
        <time>2022-08-23T14:48:35.000Z</time>
      </trkpt>
      <trkpt lat="45.91043" lon="4.68409">
        <ele>381.82123</ele>
        <time>2022-08-23T14:48:36.000Z</time>
      </trkpt>
      <trkpt lat="45.9104" lon="4.68407">
        <ele>382.0289</ele>
        <time>2022-08-23T14:48:37.000Z</time>
      </trkpt>
      <trkpt lat="45.91037" lon="4.68406">
        <ele>382.15182</ele>
        <time>2022-08-23T14:48:38.000Z</time>
      </trkpt>
      <trkpt lat="45.91033" lon="4.68405">
        <ele>382.20551</ele>
        <time>2022-08-23T14:48:39.000Z</time>
      </trkpt>
      <trkpt lat="45.91029" lon="4.68404">
        <ele>382.26627</ele>
        <time>2022-08-23T14:48:40.000Z</time>
      </trkpt>
      <trkpt lat="45.91025" lon="4.68402">
        <ele>382.30048</ele>
        <time>2022-08-23T14:48:41.000Z</time>
      </trkpt>
      <trkpt lat="45.91021" lon="4.68401">
        <ele>382.3201</ele>
        <time>2022-08-23T14:48:42.000Z</time>
      </trkpt>
      <trkpt lat="45.91016" lon="4.68399">
        <ele>382.31207</ele>
        <time>2022-08-23T14:48:43.000Z</time>
      </trkpt>
      <trkpt lat="45.91012" lon="4.68398">
        <ele>382.26743</ele>
        <time>2022-08-23T14:48:44.000Z</time>
      </trkpt>
      <trkpt lat="45.91007" lon="4.68398">
        <ele>382.14465</ele>
        <time>2022-08-23T14:48:45.000Z</time>
      </trkpt>
      <trkpt lat="45.91003" lon="4.68397">
        <ele>382.00549</ele>
        <time>2022-08-23T14:48:46.000Z</time>
      </trkpt>
      <trkpt lat="45.90997" lon="4.68397">
        <ele>382.00018</ele>
        <time>2022-08-23T14:48:47.000Z</time>
      </trkpt>
      <trkpt lat="45.90992" lon="4.68395">
        <ele>381.99359</ele>
        <time>2022-08-23T14:48:48.000Z</time>
      </trkpt>
      <trkpt lat="45.90989" lon="4.68393">
        <ele>381.99811</ele>
        <time>2022-08-23T14:48:49.000Z</time>
      </trkpt>
      <trkpt lat="45.90984" lon="4.68391">
        <ele>381.93781</ele>
        <time>2022-08-23T14:48:51.000Z</time>
      </trkpt>
      <trkpt lat="45.90981" lon="4.68388">
        <ele>381.76263</ele>
        <time>2022-08-23T14:49:47.000Z</time>
      </trkpt>
      <trkpt lat="45.90979" lon="4.68388">
        <ele>381.69797</ele>
        <time>2022-08-23T14:49:48.000Z</time>
      </trkpt>
      <trkpt lat="45.90976" lon="4.68385">
        <ele>381.62396</ele>
        <time>2022-08-23T14:49:49.000Z</time>
      </trkpt>
      <trkpt lat="45.90972" lon="4.68384">
        <ele>381.57147</ele>
        <time>2022-08-23T14:49:51.000Z</time>
      </trkpt>
      <trkpt lat="45.9097" lon="4.68383">
        <ele>381.39981</ele>
        <time>2022-08-23T14:49:52.000Z</time>
      </trkpt>
      <trkpt lat="45.90968" lon="4.68382">
        <ele>381.15411</ele>
        <time>2022-08-23T14:49:53.000Z</time>
      </trkpt>
      <trkpt lat="45.90966" lon="4.6838">
        <ele>380.84653</ele>
        <time>2022-08-23T14:49:54.000Z</time>
      </trkpt>
      <trkpt lat="45.90965" lon="4.68379">
        <ele>380.55322</ele>
        <time>2022-08-23T14:49:55.000Z</time>
      </trkpt>
      <trkpt lat="45.90963" lon="4.68377">
        <ele>380.26501</ele>
        <time>2022-08-23T14:49:56.000Z</time>
      </trkpt>
      <trkpt lat="45.90961" lon="4.68376">
        <ele>379.96335</ele>
        <time>2022-08-23T14:49:57.000Z</time>
      </trkpt>
      <trkpt lat="45.90959" lon="4.68374">
        <ele>379.69397</ele>
        <time>2022-08-23T14:49:58.000Z</time>
      </trkpt>
      <trkpt lat="45.90956" lon="4.68372">
        <ele>379.4046</ele>
        <time>2022-08-23T14:49:59.000Z</time>
      </trkpt>
      <trkpt lat="45.90953" lon="4.68371">
        <ele>379.1221</ele>
        <time>2022-08-23T14:50:00.000Z</time>
      </trkpt>
      <trkpt lat="45.9095" lon="4.68369">
        <ele>378.89084</ele>
        <time>2022-08-23T14:50:01.000Z</time>
      </trkpt>
      <trkpt lat="45.90948" lon="4.68368">
        <ele>378.60919</ele>
        <time>2022-08-23T14:50:02.000Z</time>
      </trkpt>
      <trkpt lat="45.90945" lon="4.68365">
        <ele>378.36121</ele>
        <time>2022-08-23T14:50:03.000Z</time>
      </trkpt>
      <trkpt lat="45.90941" lon="4.68363">
        <ele>378.03647</ele>
        <time>2022-08-23T14:50:04.000Z</time>
      </trkpt>
      <trkpt lat="45.90938" lon="4.68361">
        <ele>377.64679</ele>
        <time>2022-08-23T14:50:05.000Z</time>
      </trkpt>
      <trkpt lat="45.90934" lon="4.68358">
        <ele>377.28644</ele>
        <time>2022-08-23T14:50:06.000Z</time>
      </trkpt>
      <trkpt lat="45.9093" lon="4.68355">
        <ele>376.99365</ele>
        <time>2022-08-23T14:50:07.000Z</time>
      </trkpt>
      <trkpt lat="45.90927" lon="4.68353">
        <ele>376.79791</ele>
        <time>2022-08-23T14:50:08.000Z</time>
      </trkpt>
      <trkpt lat="45.90924" lon="4.6835">
        <ele>376.5108</ele>
        <time>2022-08-23T14:50:09.000Z</time>
      </trkpt>
      <trkpt lat="45.90922" lon="4.68348">
        <ele>376.1954</ele>
        <time>2022-08-23T14:50:10.000Z</time>
      </trkpt>
      <trkpt lat="45.9092" lon="4.68345">
        <ele>375.88965</ele>
        <time>2022-08-23T14:50:11.000Z</time>
      </trkpt>
      <trkpt lat="45.90916" lon="4.68341">
        <ele>375.64301</ele>
        <time>2022-08-23T14:50:12.000Z</time>
      </trkpt>
      <trkpt lat="45.90908" lon="4.68337">
        <ele>375.42499</ele>
        <time>2022-08-23T14:50:13.000Z</time>
      </trkpt>
      <trkpt lat="45.90904" lon="4.68335">
        <ele>375.25644</ele>
        <time>2022-08-23T14:50:14.000Z</time>
      </trkpt>
      <trkpt lat="45.90899" lon="4.68334">
        <ele>375.20584</ele>
        <time>2022-08-23T14:50:16.000Z</time>
      </trkpt>
      <trkpt lat="45.90896" lon="4.68331">
        <ele>375.10904</ele>
        <time>2022-08-23T14:50:17.000Z</time>
      </trkpt>
      <trkpt lat="45.90893" lon="4.68327">
        <ele>375.01581</ele>
        <time>2022-08-23T14:50:18.000Z</time>
      </trkpt>
      <trkpt lat="45.90889" lon="4.68325">
        <ele>374.98477</ele>
        <time>2022-08-23T14:50:19.000Z</time>
      </trkpt>
      <trkpt lat="45.90883" lon="4.68319">
        <ele>374.91888</ele>
        <time>2022-08-23T14:50:20.000Z</time>
      </trkpt>
      <trkpt lat="45.9088" lon="4.68313">
        <ele>374.84525</ele>
        <time>2022-08-23T14:50:21.000Z</time>
      </trkpt>
      <trkpt lat="45.90877" lon="4.68311">
        <ele>374.64481</ele>
        <time>2022-08-23T14:50:22.000Z</time>
      </trkpt>
      <trkpt lat="45.90872" lon="4.68308">
        <ele>374.54279</ele>
        <time>2022-08-23T14:50:23.000Z</time>
      </trkpt>
      <trkpt lat="45.90868" lon="4.68308">
        <ele>374.35037</ele>
        <time>2022-08-23T14:50:24.000Z</time>
      </trkpt>
      <trkpt lat="45.90864" lon="4.68305">
        <ele>374.18597</ele>
        <time>2022-08-23T14:50:25.000Z</time>
      </trkpt>
      <trkpt lat="45.90859" lon="4.683">
        <ele>374.11945</ele>
        <time>2022-08-23T14:50:26.000Z</time>
      </trkpt>
      <trkpt lat="45.90856" lon="4.68296">
        <ele>374.04803</ele>
        <time>2022-08-23T14:50:27.000Z</time>
      </trkpt>
      <trkpt lat="45.9085" lon="4.68294">
        <ele>374.00586</ele>
        <time>2022-08-23T14:50:28.000Z</time>
      </trkpt>
      <trkpt lat="45.90845" lon="4.68287">
        <ele>373.89838</ele>
        <time>2022-08-23T14:50:29.000Z</time>
      </trkpt>
      <trkpt lat="45.90839" lon="4.6828">
        <ele>373.7442</ele>
        <time>2022-08-23T14:50:30.000Z</time>
      </trkpt>
      <trkpt lat="45.90836" lon="4.68274">
        <ele>373.53827</ele>
        <time>2022-08-23T14:50:31.000Z</time>
      </trkpt>
      <trkpt lat="45.90834" lon="4.68264">
        <ele>373.28317</ele>
        <time>2022-08-23T14:50:32.000Z</time>
      </trkpt>
      <trkpt lat="45.90829" lon="4.68257">
        <ele>373.04498</ele>
        <time>2022-08-23T14:50:33.000Z</time>
      </trkpt>
      <trkpt lat="45.9083" lon="4.6825">
        <ele>372.72849</ele>
        <time>2022-08-23T14:50:34.000Z</time>
      </trkpt>
      <trkpt lat="45.90825" lon="4.68249">
        <ele>372.40521</ele>
        <time>2022-08-23T14:50:35.000Z</time>
      </trkpt>
      <trkpt lat="45.90823" lon="4.68254">
        <ele>371.96051</ele>
        <time>2022-08-23T14:50:36.000Z</time>
      </trkpt>
      <trkpt lat="45.90821" lon="4.6826">
        <ele>371.61423</ele>
        <time>2022-08-23T14:50:38.000Z</time>
      </trkpt>
      <trkpt lat="45.90821" lon="4.68264">
        <ele>371.2644</ele>
        <time>2022-08-23T14:50:39.000Z</time>
      </trkpt>
      <trkpt lat="45.9082" lon="4.68267">
        <ele>370.99036</ele>
        <time>2022-08-23T14:50:40.000Z</time>
      </trkpt>
      <trkpt lat="45.90823" lon="4.68267">
        <ele>370.75348</ele>
        <time>2022-08-23T14:50:41.000Z</time>
      </trkpt>
      <trkpt lat="45.90824" lon="4.6827">
        <ele>370.51981</ele>
        <time>2022-08-23T14:50:43.000Z</time>
      </trkpt>
      <trkpt lat="45.90825" lon="4.68272">
        <ele>370.42828</ele>
        <time>2022-08-23T14:50:47.000Z</time>
      </trkpt>
      <trkpt lat="45.90824" lon="4.68276">
        <ele>370.29343</ele>
        <time>2022-08-23T14:50:50.000Z</time>
      </trkpt>
      <trkpt lat="45.90822" lon="4.68277">
        <ele>370.2027</ele>
        <time>2022-08-23T14:50:53.000Z</time>
      </trkpt>
      <trkpt lat="45.90822" lon="4.6828">
        <ele>370.10699</ele>
        <time>2022-08-23T14:50:57.000Z</time>
      </trkpt>
      <trkpt lat="45.90823" lon="4.68284">
        <ele>369.87091</ele>
        <time>2022-08-23T14:50:59.000Z</time>
      </trkpt>
      <trkpt lat="45.90824" lon="4.68288">
        <ele>369.61386</ele>
        <time>2022-08-23T14:51:00.000Z</time>
      </trkpt>
      <trkpt lat="45.90824" lon="4.68292">
        <ele>369.23578</ele>
        <time>2022-08-23T14:51:01.000Z</time>
      </trkpt>
      <trkpt lat="45.90823" lon="4.68297">
        <ele>368.96927</ele>
        <time>2022-08-23T14:51:02.000Z</time>
      </trkpt>
      <trkpt lat="45.90823" lon="4.68301">
        <ele>368.70139</ele>
        <time>2022-08-23T14:51:03.000Z</time>
      </trkpt>
      <trkpt lat="45.90822" lon="4.68306">
        <ele>368.43237</ele>
        <time>2022-08-23T14:51:04.000Z</time>
      </trkpt>
      <trkpt lat="45.90822" lon="4.6831">
        <ele>368.18689</ele>
        <time>2022-08-23T14:51:05.000Z</time>
      </trkpt>
      <trkpt lat="45.90821" lon="4.68315">
        <ele>367.94843</ele>
        <time>2022-08-23T14:51:06.000Z</time>
      </trkpt>
      <trkpt lat="45.90821" lon="4.68319">
        <ele>367.68472</ele>
        <time>2022-08-23T14:51:07.000Z</time>
      </trkpt>
      <trkpt lat="45.9082" lon="4.68323">
        <ele>367.41931</ele>
        <time>2022-08-23T14:51:08.000Z</time>
      </trkpt>
      <trkpt lat="45.9082" lon="4.68327">
        <ele>367.12848</ele>
        <time>2022-08-23T14:51:09.000Z</time>
      </trkpt>
      <trkpt lat="45.9082" lon="4.68331">
        <ele>366.79156</ele>
        <time>2022-08-23T14:51:10.000Z</time>
      </trkpt>
      <trkpt lat="45.9082" lon="4.68335">
        <ele>366.40753</ele>
        <time>2022-08-23T14:51:11.000Z</time>
      </trkpt>
      <trkpt lat="45.9082" lon="4.68339">
        <ele>365.85834</ele>
        <time>2022-08-23T14:51:12.000Z</time>
      </trkpt>
      <trkpt lat="45.9082" lon="4.68342">
        <ele>365.29462</ele>
        <time>2022-08-23T14:51:13.000Z</time>
      </trkpt>
      <trkpt lat="45.90819" lon="4.68347">
        <ele>364.72498</ele>
        <time>2022-08-23T14:51:14.000Z</time>
      </trkpt>
      <trkpt lat="45.90819" lon="4.68351">
        <ele>364.06134</ele>
        <time>2022-08-23T14:51:15.000Z</time>
      </trkpt>
      <trkpt lat="45.90818" lon="4.68355">
        <ele>363.49945</ele>
        <time>2022-08-23T14:51:16.000Z</time>
      </trkpt>
      <trkpt lat="45.90818" lon="4.68359">
        <ele>362.914</ele>
        <time>2022-08-23T14:51:17.000Z</time>
      </trkpt>
      <trkpt lat="45.90817" lon="4.68364">
        <ele>362.32715</ele>
        <time>2022-08-23T14:51:18.000Z</time>
      </trkpt>
      <trkpt lat="45.90817" lon="4.68368">
        <ele>361.83548</ele>
        <time>2022-08-23T14:51:19.000Z</time>
      </trkpt>
      <trkpt lat="45.90816" lon="4.68371">
        <ele>361.31989</ele>
        <time>2022-08-23T14:51:20.000Z</time>
      </trkpt>
      <trkpt lat="45.90816" lon="4.68375">
        <ele>360.89551</ele>
        <time>2022-08-23T14:51:21.000Z</time>
      </trkpt>
      <trkpt lat="45.90816" lon="4.68379">
        <ele>360.42725</ele>
        <time>2022-08-23T14:51:22.000Z</time>
      </trkpt>
      <trkpt lat="45.90817" lon="4.68382">
        <ele>360.03638</ele>
        <time>2022-08-23T14:51:23.000Z</time>
      </trkpt>
      <trkpt lat="45.90817" lon="4.68386">
        <ele>359.68964</ele>
        <time>2022-08-23T14:51:24.000Z</time>
      </trkpt>
      <trkpt lat="45.90817" lon="4.68391">
        <ele>359.37604</ele>
        <time>2022-08-23T14:51:25.000Z</time>
      </trkpt>
      <trkpt lat="45.90817" lon="4.68396">
        <ele>358.97058</ele>
        <time>2022-08-23T14:51:26.000Z</time>
      </trkpt>
      <trkpt lat="45.90817" lon="4.684">
        <ele>358.56989</ele>
        <time>2022-08-23T14:51:27.000Z</time>
      </trkpt>
      <trkpt lat="45.90817" lon="4.68404">
        <ele>358.14981</ele>
        <time>2022-08-23T14:51:28.000Z</time>
      </trkpt>
      <trkpt lat="45.90817" lon="4.68408">
        <ele>357.6666</ele>
        <time>2022-08-23T14:51:29.000Z</time>
      </trkpt>
      <trkpt lat="45.90817" lon="4.68412">
        <ele>357.12311</ele>
        <time>2022-08-23T14:51:30.000Z</time>
      </trkpt>
      <trkpt lat="45.90816" lon="4.68416">
        <ele>356.61441</ele>
        <time>2022-08-23T14:51:31.000Z</time>
      </trkpt>
      <trkpt lat="45.90816" lon="4.6842">
        <ele>356.05634</ele>
        <time>2022-08-23T14:51:32.000Z</time>
      </trkpt>
      <trkpt lat="45.90816" lon="4.68424">
        <ele>355.48453</ele>
        <time>2022-08-23T14:51:33.000Z</time>
      </trkpt>
      <trkpt lat="45.90815" lon="4.68428">
        <ele>354.86047</ele>
        <time>2022-08-23T14:51:34.000Z</time>
      </trkpt>
      <trkpt lat="45.90815" lon="4.68432">
        <ele>354.31244</ele>
        <time>2022-08-23T14:51:35.000Z</time>
      </trkpt>
      <trkpt lat="45.90815" lon="4.68438">
        <ele>353.73492</ele>
        <time>2022-08-23T14:51:36.000Z</time>
      </trkpt>
      <trkpt lat="45.90814" lon="4.68444">
        <ele>353.29718</ele>
        <time>2022-08-23T14:51:37.000Z</time>
      </trkpt>
      <trkpt lat="45.90813" lon="4.6845">
        <ele>352.87515</ele>
        <time>2022-08-23T14:51:38.000Z</time>
      </trkpt>
      <trkpt lat="45.90813" lon="4.68456">
        <ele>352.43643</ele>
        <time>2022-08-23T14:51:39.000Z</time>
      </trkpt>
      <trkpt lat="45.90812" lon="4.68462">
        <ele>352.02704</ele>
        <time>2022-08-23T14:51:40.000Z</time>
      </trkpt>
      <trkpt lat="45.90812" lon="4.68472">
        <ele>351.59039</ele>
        <time>2022-08-23T14:51:41.000Z</time>
      </trkpt>
      <trkpt lat="45.90812" lon="4.68478">
        <ele>351.15762</ele>
        <time>2022-08-23T14:51:42.000Z</time>
      </trkpt>
      <trkpt lat="45.90811" lon="4.68488">
        <ele>350.74792</ele>
        <time>2022-08-23T14:51:43.000Z</time>
      </trkpt>
      <trkpt lat="45.90813" lon="4.68492">
        <ele>350.29486</ele>
        <time>2022-08-23T14:51:44.000Z</time>
      </trkpt>
      <trkpt lat="45.90813" lon="4.68496">
        <ele>349.84558</ele>
        <time>2022-08-23T14:51:45.000Z</time>
      </trkpt>
      <trkpt lat="45.90814" lon="4.68502">
        <ele>349.42606</ele>
        <time>2022-08-23T14:51:46.000Z</time>
      </trkpt>
      <trkpt lat="45.90816" lon="4.68502">
        <ele>348.91028</ele>
        <time>2022-08-23T14:51:47.000Z</time>
      </trkpt>
      <trkpt lat="45.90818" lon="4.68505">
        <ele>348.44016</ele>
        <time>2022-08-23T14:51:48.000Z</time>
      </trkpt>
      <trkpt lat="45.90817" lon="4.6851">
        <ele>348.05804</ele>
        <time>2022-08-23T14:51:49.000Z</time>
      </trkpt>
      <trkpt lat="45.90818" lon="4.68513">
        <ele>347.71637</ele>
        <time>2022-08-23T14:51:50.000Z</time>
      </trkpt>
      <trkpt lat="45.90819" lon="4.68515">
        <ele>347.34967</ele>
        <time>2022-08-23T14:51:51.000Z</time>
      </trkpt>
      <trkpt lat="45.9082" lon="4.68518">
        <ele>347.04233</ele>
        <time>2022-08-23T14:51:52.000Z</time>
      </trkpt>
      <trkpt lat="45.90819" lon="4.68522">
        <ele>346.74948</ele>
        <time>2022-08-23T14:51:54.000Z</time>
      </trkpt>
      <trkpt lat="45.90817" lon="4.68522">
        <ele>346.51514</ele>
        <time>2022-08-23T14:51:55.000Z</time>
      </trkpt>
      <trkpt lat="45.90813" lon="4.68523">
        <ele>346.29422</ele>
        <time>2022-08-23T14:51:56.000Z</time>
      </trkpt>
      <trkpt lat="45.90809" lon="4.68523">
        <ele>346.06387</ele>
        <time>2022-08-23T14:51:57.000Z</time>
      </trkpt>
      <trkpt lat="45.90805" lon="4.68522">
        <ele>345.74518</ele>
        <time>2022-08-23T14:51:58.000Z</time>
      </trkpt>
      <trkpt lat="45.908" lon="4.68521">
        <ele>345.38922</ele>
        <time>2022-08-23T14:51:59.000Z</time>
      </trkpt>
      <trkpt lat="45.90796" lon="4.68521">
        <ele>345.00504</ele>
        <time>2022-08-23T14:52:00.000Z</time>
      </trkpt>
      <trkpt lat="45.90792" lon="4.68521">
        <ele>344.59308</ele>
        <time>2022-08-23T14:52:01.000Z</time>
      </trkpt>
      <trkpt lat="45.90785" lon="4.68522">
        <ele>344.12695</ele>
        <time>2022-08-23T14:52:02.000Z</time>
      </trkpt>
      <trkpt lat="45.90778" lon="4.6852">
        <ele>343.6734</ele>
        <time>2022-08-23T14:52:03.000Z</time>
      </trkpt>
      <trkpt lat="45.90772" lon="4.68521">
        <ele>343.12881</ele>
        <time>2022-08-23T14:52:04.000Z</time>
      </trkpt>
      <trkpt lat="45.90767" lon="4.68522">
        <ele>342.62515</ele>
        <time>2022-08-23T14:52:05.000Z</time>
      </trkpt>
      <trkpt lat="45.90761" lon="4.68521">
        <ele>342.10135</ele>
        <time>2022-08-23T14:52:06.000Z</time>
      </trkpt>
      <trkpt lat="45.90754" lon="4.68522">
        <ele>341.58948</ele>
        <time>2022-08-23T14:52:07.000Z</time>
      </trkpt>
      <trkpt lat="45.90747" lon="4.68521">
        <ele>341.21741</ele>
        <time>2022-08-23T14:52:08.000Z</time>
      </trkpt>
      <trkpt lat="45.90741" lon="4.68519">
        <ele>340.77164</ele>
        <time>2022-08-23T14:52:09.000Z</time>
      </trkpt>
      <trkpt lat="45.90735" lon="4.6852">
        <ele>340.25751</ele>
        <time>2022-08-23T14:52:10.000Z</time>
      </trkpt>
      <trkpt lat="45.90728" lon="4.68517">
        <ele>339.79248</ele>
        <time>2022-08-23T14:52:11.000Z</time>
      </trkpt>
      <trkpt lat="45.90721" lon="4.68518">
        <ele>339.29294</ele>
        <time>2022-08-23T14:52:12.000Z</time>
      </trkpt>
      <trkpt lat="45.90714" lon="4.68518">
        <ele>338.71332</ele>
        <time>2022-08-23T14:52:13.000Z</time>
      </trkpt>
      <trkpt lat="45.90706" lon="4.68515">
        <ele>338.20255</ele>
        <time>2022-08-23T14:52:14.000Z</time>
      </trkpt>
      <trkpt lat="45.90698" lon="4.68512">
        <ele>337.70169</ele>
        <time>2022-08-23T14:52:15.000Z</time>
      </trkpt>
      <trkpt lat="45.90691" lon="4.68512">
        <ele>337.18539</ele>
        <time>2022-08-23T14:52:16.000Z</time>
      </trkpt>
      <trkpt lat="45.90684" lon="4.68511">
        <ele>336.71222</ele>
        <time>2022-08-23T14:52:17.000Z</time>
      </trkpt>
      <trkpt lat="45.90677" lon="4.68509">
        <ele>336.2532</ele>
        <time>2022-08-23T14:52:18.000Z</time>
      </trkpt>
      <trkpt lat="45.90671" lon="4.68505">
        <ele>335.8161</ele>
        <time>2022-08-23T14:52:19.000Z</time>
      </trkpt>
      <trkpt lat="45.90665" lon="4.68506">
        <ele>335.44638</ele>
        <time>2022-08-23T14:52:20.000Z</time>
      </trkpt>
      <trkpt lat="45.90659" lon="4.68505">
        <ele>335.07913</ele>
        <time>2022-08-23T14:52:21.000Z</time>
      </trkpt>
      <trkpt lat="45.90655" lon="4.68505">
        <ele>334.76672</ele>
        <time>2022-08-23T14:52:22.000Z</time>
      </trkpt>
      <trkpt lat="45.90651" lon="4.68504">
        <ele>334.43268</ele>
        <time>2022-08-23T14:52:23.000Z</time>
      </trkpt>
      <trkpt lat="45.90645" lon="4.68506">
        <ele>334.17834</ele>
        <time>2022-08-23T14:52:24.000Z</time>
      </trkpt>
      <trkpt lat="45.90639" lon="4.68508">
        <ele>333.99258</ele>
        <time>2022-08-23T14:52:25.000Z</time>
      </trkpt>
      <trkpt lat="45.90636" lon="4.68508">
        <ele>333.80103</ele>
        <time>2022-08-23T14:52:26.000Z</time>
      </trkpt>
      <trkpt lat="45.90637" lon="4.68511">
        <ele>333.81302</ele>
        <time>2022-08-23T14:52:30.000Z</time>
      </trkpt>
      <trkpt lat="45.90635" lon="4.68509">
        <ele>333.80466</ele>
        <time>2022-08-23T14:52:33.000Z</time>
      </trkpt>
      <trkpt lat="45.9064" lon="4.68509">
        <ele>333.94095</ele>
        <time>2022-08-23T14:52:50.000Z</time>
      </trkpt>
      <trkpt lat="45.90642" lon="4.68507">
        <ele>334.1745</ele>
        <time>2022-08-23T14:52:51.000Z</time>
      </trkpt>
      <trkpt lat="45.90645" lon="4.68506">
        <ele>334.3266</ele>
        <time>2022-08-23T14:52:52.000Z</time>
      </trkpt>
      <trkpt lat="45.9065" lon="4.68506">
        <ele>334.53787</ele>
        <time>2022-08-23T14:52:53.000Z</time>
      </trkpt>
      <trkpt lat="45.90654" lon="4.68507">
        <ele>334.87558</ele>
        <time>2022-08-23T14:52:54.000Z</time>
      </trkpt>
      <trkpt lat="45.90658" lon="4.68507">
        <ele>335.18292</ele>
        <time>2022-08-23T14:52:55.000Z</time>
      </trkpt>
      <trkpt lat="45.90662" lon="4.68506">
        <ele>335.37134</ele>
        <time>2022-08-23T14:52:56.000Z</time>
      </trkpt>
      <trkpt lat="45.90664" lon="4.68506">
        <ele>335.45917</ele>
        <time>2022-08-23T14:52:57.000Z</time>
      </trkpt>
      <trkpt lat="45.90667" lon="4.68506">
        <ele>335.40771</ele>
        <time>2022-08-23T14:52:58.000Z</time>
      </trkpt>
      <trkpt lat="45.9067" lon="4.68506">
        <ele>335.24591</ele>
        <time>2022-08-23T14:52:59.000Z</time>
      </trkpt>
      <trkpt lat="45.90675" lon="4.68504">
        <ele>335.07474</ele>
        <time>2022-08-23T14:53:01.000Z</time>
      </trkpt>
      <trkpt lat="45.90677" lon="4.68504">
        <ele>334.9328</ele>
        <time>2022-08-23T14:53:02.000Z</time>
      </trkpt>
      <trkpt lat="45.9068" lon="4.68504">
        <ele>334.73615</ele>
        <time>2022-08-23T14:53:03.000Z</time>
      </trkpt>
      <trkpt lat="45.90683" lon="4.68504">
        <ele>334.58344</ele>
        <time>2022-08-23T14:53:04.000Z</time>
      </trkpt>
      <trkpt lat="45.90685" lon="4.68504">
        <ele>334.39435</ele>
        <time>2022-08-23T14:53:05.000Z</time>
      </trkpt>
      <trkpt lat="45.90688" lon="4.68504">
        <ele>334.22748</ele>
        <time>2022-08-23T14:53:06.000Z</time>
      </trkpt>
      <trkpt lat="45.90691" lon="4.68505">
        <ele>334.00555</ele>
        <time>2022-08-23T14:53:07.000Z</time>
      </trkpt>
      <trkpt lat="45.90694" lon="4.68506">
        <ele>333.73529</ele>
        <time>2022-08-23T14:53:08.000Z</time>
      </trkpt>
      <trkpt lat="45.90697" lon="4.68507">
        <ele>333.37399</ele>
        <time>2022-08-23T14:53:09.000Z</time>
      </trkpt>
      <trkpt lat="45.907" lon="4.68507">
        <ele>333.07404</ele>
        <time>2022-08-23T14:53:10.000Z</time>
      </trkpt>
      <trkpt lat="45.90703" lon="4.68508">
        <ele>332.67188</ele>
        <time>2022-08-23T14:53:11.000Z</time>
      </trkpt>
      <trkpt lat="45.90706" lon="4.68509">
        <ele>332.27014</ele>
        <time>2022-08-23T14:53:12.000Z</time>
      </trkpt>
      <trkpt lat="45.90708" lon="4.6851">
        <ele>331.86029</ele>
        <time>2022-08-23T14:53:13.000Z</time>
      </trkpt>
      <trkpt lat="45.90712" lon="4.68511">
        <ele>331.55197</ele>
        <time>2022-08-23T14:53:14.000Z</time>
      </trkpt>
      <trkpt lat="45.90715" lon="4.68512">
        <ele>331.18243</ele>
        <time>2022-08-23T14:53:15.000Z</time>
      </trkpt>
      <trkpt lat="45.90717" lon="4.68513">
        <ele>330.80576</ele>
        <time>2022-08-23T14:53:16.000Z</time>
      </trkpt>
      <trkpt lat="45.90719" lon="4.68513">
        <ele>330.57919</ele>
        <time>2022-08-23T14:53:17.000Z</time>
      </trkpt>
      <trkpt lat="45.90721" lon="4.68515">
        <ele>330.43701</ele>
        <time>2022-08-23T14:53:18.000Z</time>
      </trkpt>
      <trkpt lat="45.90722" lon="4.68517">
        <ele>330.41818</ele>
        <time>2022-08-23T14:53:19.000Z</time>
      </trkpt>
      <trkpt lat="45.90722" lon="4.68522">
        <ele>330.46918</ele>
        <time>2022-08-23T14:53:20.000Z</time>
      </trkpt>
      <trkpt lat="45.90721" lon="4.68529">
        <ele>330.51981</ele>
        <time>2022-08-23T14:53:21.000Z</time>
      </trkpt>
      <trkpt lat="45.90717" lon="4.6854">
        <ele>330.53217</ele>
        <time>2022-08-23T14:53:22.000Z</time>
      </trkpt>
      <trkpt lat="45.90717" lon="4.68547">
        <ele>330.56012</ele>
        <time>2022-08-23T14:53:23.000Z</time>
      </trkpt>
      <trkpt lat="45.90716" lon="4.68554">
        <ele>330.53897</ele>
        <time>2022-08-23T14:53:24.000Z</time>
      </trkpt>
      <trkpt lat="45.90717" lon="4.68563">
        <ele>330.54688</ele>
        <time>2022-08-23T14:53:25.000Z</time>
      </trkpt>
      <trkpt lat="45.90715" lon="4.6857">
        <ele>330.448</ele>
        <time>2022-08-23T14:53:26.000Z</time>
      </trkpt>
      <trkpt lat="45.90714" lon="4.68577">
        <ele>330.35687</ele>
        <time>2022-08-23T14:53:27.000Z</time>
      </trkpt>
      <trkpt lat="45.90714" lon="4.68586">
        <ele>330.30902</ele>
        <time>2022-08-23T14:53:28.000Z</time>
      </trkpt>
      <trkpt lat="45.90712" lon="4.68592">
        <ele>330.09705</ele>
        <time>2022-08-23T14:53:29.000Z</time>
      </trkpt>
      <trkpt lat="45.90711" lon="4.68599">
        <ele>329.87048</ele>
        <time>2022-08-23T14:53:30.000Z</time>
      </trkpt>
      <trkpt lat="45.90707" lon="4.68605">
        <ele>329.63483</ele>
        <time>2022-08-23T14:53:31.000Z</time>
      </trkpt>
      <trkpt lat="45.90708" lon="4.68611">
        <ele>329.40952</ele>
        <time>2022-08-23T14:53:32.000Z</time>
      </trkpt>
      <trkpt lat="45.90708" lon="4.68616">
        <ele>329.32709</ele>
        <time>2022-08-23T14:53:33.000Z</time>
      </trkpt>
      <trkpt lat="45.90707" lon="4.6862">
        <ele>329.13391</ele>
        <time>2022-08-23T14:53:34.000Z</time>
      </trkpt>
      <trkpt lat="45.90707" lon="4.68623">
        <ele>328.93658</ele>
        <time>2022-08-23T14:53:35.000Z</time>
      </trkpt>
      <trkpt lat="45.90706" lon="4.68627">
        <ele>328.70386</ele>
        <time>2022-08-23T14:53:36.000Z</time>
      </trkpt>
      <trkpt lat="45.90707" lon="4.68631">
        <ele>328.43005</ele>
        <time>2022-08-23T14:53:37.000Z</time>
      </trkpt>
      <trkpt lat="45.90706" lon="4.68635">
        <ele>328.14212</ele>
        <time>2022-08-23T14:53:38.000Z</time>
      </trkpt>
      <trkpt lat="45.90705" lon="4.68644">
        <ele>327.85016</ele>
        <time>2022-08-23T14:53:40.000Z</time>
      </trkpt>
      <trkpt lat="45.90704" lon="4.6865">
        <ele>327.57086</ele>
        <time>2022-08-23T14:53:41.000Z</time>
      </trkpt>
      <trkpt lat="45.90703" lon="4.68654">
        <ele>327.27881</ele>
        <time>2022-08-23T14:53:42.000Z</time>
      </trkpt>
      <trkpt lat="45.90703" lon="4.68658">
        <ele>326.96069</ele>
        <time>2022-08-23T14:53:43.000Z</time>
      </trkpt>
      <trkpt lat="45.90703" lon="4.68662">
        <ele>326.69498</ele>
        <time>2022-08-23T14:53:44.000Z</time>
      </trkpt>
      <trkpt lat="45.90703" lon="4.68667">
        <ele>326.49271</ele>
        <time>2022-08-23T14:53:45.000Z</time>
      </trkpt>
      <trkpt lat="45.90702" lon="4.68672">
        <ele>326.28281</ele>
        <time>2022-08-23T14:53:46.000Z</time>
      </trkpt>
      <trkpt lat="45.90701" lon="4.68676">
        <ele>326.08762</ele>
        <time>2022-08-23T14:53:47.000Z</time>
      </trkpt>
      <trkpt lat="45.90701" lon="4.68681">
        <ele>325.85889</ele>
        <time>2022-08-23T14:53:48.000Z</time>
      </trkpt>
      <trkpt lat="45.907" lon="4.68685">
        <ele>325.60437</ele>
        <time>2022-08-23T14:53:49.000Z</time>
      </trkpt>
      <trkpt lat="45.90699" lon="4.6869">
        <ele>325.42255</ele>
        <time>2022-08-23T14:53:50.000Z</time>
      </trkpt>
      <trkpt lat="45.90698" lon="4.68694">
        <ele>325.20102</ele>
        <time>2022-08-23T14:53:51.000Z</time>
      </trkpt>
      <trkpt lat="45.90698" lon="4.68699">
        <ele>324.93198</ele>
        <time>2022-08-23T14:53:52.000Z</time>
      </trkpt>
      <trkpt lat="45.90697" lon="4.68704">
        <ele>324.62183</ele>
        <time>2022-08-23T14:53:53.000Z</time>
      </trkpt>
      <trkpt lat="45.90696" lon="4.68709">
        <ele>324.2377</ele>
        <time>2022-08-23T14:53:54.000Z</time>
      </trkpt>
      <trkpt lat="45.90696" lon="4.68713">
        <ele>323.84793</ele>
        <time>2022-08-23T14:53:55.000Z</time>
      </trkpt>
      <trkpt lat="45.90695" lon="4.68718">
        <ele>323.44269</ele>
        <time>2022-08-23T14:53:56.000Z</time>
      </trkpt>
      <trkpt lat="45.90694" lon="4.68722">
        <ele>323.05814</ele>
        <time>2022-08-23T14:53:57.000Z</time>
      </trkpt>
      <trkpt lat="45.90693" lon="4.68726">
        <ele>322.67569</ele>
        <time>2022-08-23T14:53:58.000Z</time>
      </trkpt>
      <trkpt lat="45.90692" lon="4.68729">
        <ele>322.28586</ele>
        <time>2022-08-23T14:53:59.000Z</time>
      </trkpt>
      <trkpt lat="45.90691" lon="4.68733">
        <ele>321.87833</ele>
        <time>2022-08-23T14:54:00.000Z</time>
      </trkpt>
      <trkpt lat="45.90691" lon="4.68738">
        <ele>321.47852</ele>
        <time>2022-08-23T14:54:01.000Z</time>
      </trkpt>
      <trkpt lat="45.90693" lon="4.68742">
        <ele>321.05167</ele>
        <time>2022-08-23T14:54:02.000Z</time>
      </trkpt>
      <trkpt lat="45.90695" lon="4.68745">
        <ele>320.67197</ele>
        <time>2022-08-23T14:54:03.000Z</time>
      </trkpt>
      <trkpt lat="45.90698" lon="4.68747">
        <ele>320.26062</ele>
        <time>2022-08-23T14:54:04.000Z</time>
      </trkpt>
      <trkpt lat="45.90701" lon="4.68747">
        <ele>319.82257</ele>
        <time>2022-08-23T14:54:05.000Z</time>
      </trkpt>
      <trkpt lat="45.90704" lon="4.68748">
        <ele>319.39594</ele>
        <time>2022-08-23T14:54:06.000Z</time>
      </trkpt>
      <trkpt lat="45.90706" lon="4.68748">
        <ele>319.05823</ele>
        <time>2022-08-23T14:54:07.000Z</time>
      </trkpt>
      <trkpt lat="45.90709" lon="4.68747">
        <ele>318.79181</ele>
        <time>2022-08-23T14:54:08.000Z</time>
      </trkpt>
      <trkpt lat="45.90712" lon="4.68747">
        <ele>318.54471</ele>
        <time>2022-08-23T14:54:09.000Z</time>
      </trkpt>
      <trkpt lat="45.90715" lon="4.68747">
        <ele>318.2663</ele>
        <time>2022-08-23T14:54:10.000Z</time>
      </trkpt>
      <trkpt lat="45.90717" lon="4.68747">
        <ele>318.03256</ele>
        <time>2022-08-23T14:54:11.000Z</time>
      </trkpt>
      <trkpt lat="45.9072" lon="4.68748">
        <ele>317.8399</ele>
        <time>2022-08-23T14:54:12.000Z</time>
      </trkpt>
      <trkpt lat="45.90722" lon="4.68748">
        <ele>317.68057</ele>
        <time>2022-08-23T14:54:13.000Z</time>
      </trkpt>
      <trkpt lat="45.90725" lon="4.68749">
        <ele>317.51788</ele>
        <time>2022-08-23T14:54:14.000Z</time>
      </trkpt>
      <trkpt lat="45.90727" lon="4.68749">
        <ele>317.37296</ele>
        <time>2022-08-23T14:54:15.000Z</time>
      </trkpt>
      <trkpt lat="45.90729" lon="4.6875">
        <ele>317.19073</ele>
        <time>2022-08-23T14:54:17.000Z</time>
      </trkpt>
      <trkpt lat="45.90732" lon="4.68749">
        <ele>317.06265</ele>
        <time>2022-08-23T14:54:19.000Z</time>
      </trkpt>
      <trkpt lat="45.90733" lon="4.68747">
        <ele>317.00043</ele>
        <time>2022-08-23T14:54:21.000Z</time>
      </trkpt>
      <trkpt lat="45.90731" lon="4.68747">
        <ele>316.93866</ele>
        <time>2022-08-23T14:54:22.000Z</time>
      </trkpt>
      <trkpt lat="45.90728" lon="4.68748">
        <ele>316.86871</ele>
        <time>2022-08-23T14:54:23.000Z</time>
      </trkpt>
      <trkpt lat="45.90725" lon="4.6875">
        <ele>316.83051</ele>
        <time>2022-08-23T14:54:24.000Z</time>
      </trkpt>
      <trkpt lat="45.90723" lon="4.68751">
        <ele>316.84412</ele>
        <time>2022-08-23T14:54:25.000Z</time>
      </trkpt>
      <trkpt lat="45.90721" lon="4.68752">
        <ele>316.85309</ele>
        <time>2022-08-23T14:54:26.000Z</time>
      </trkpt>
      <trkpt lat="45.90719" lon="4.68754">
        <ele>316.90659</ele>
        <time>2022-08-23T14:54:27.000Z</time>
      </trkpt>
      <trkpt lat="45.90718" lon="4.68756">
        <ele>316.91119</ele>
        <time>2022-08-23T14:54:28.000Z</time>
      </trkpt>
      <trkpt lat="45.90718" lon="4.68759">
        <ele>316.86389</ele>
        <time>2022-08-23T14:54:29.000Z</time>
      </trkpt>
      <trkpt lat="45.90717" lon="4.68761">
        <ele>316.76563</ele>
        <time>2022-08-23T14:54:30.000Z</time>
      </trkpt>
      <trkpt lat="45.90717" lon="4.68764">
        <ele>316.5994</ele>
        <time>2022-08-23T14:54:31.000Z</time>
      </trkpt>
      <trkpt lat="45.90718" lon="4.68768">
        <ele>316.47745</ele>
        <time>2022-08-23T14:54:32.000Z</time>
      </trkpt>
      <trkpt lat="45.90718" lon="4.68772">
        <ele>316.37524</ele>
        <time>2022-08-23T14:54:33.000Z</time>
      </trkpt>
      <trkpt lat="45.90719" lon="4.68776">
        <ele>316.1723</ele>
        <time>2022-08-23T14:54:34.000Z</time>
      </trkpt>
      <trkpt lat="45.90719" lon="4.6878">
        <ele>315.97345</ele>
        <time>2022-08-23T14:54:35.000Z</time>
      </trkpt>
      <trkpt lat="45.90719" lon="4.68784">
        <ele>315.70099</ele>
        <time>2022-08-23T14:54:36.000Z</time>
      </trkpt>
      <trkpt lat="45.90719" lon="4.68788">
        <ele>315.45428</ele>
        <time>2022-08-23T14:54:37.000Z</time>
      </trkpt>
      <trkpt lat="45.90719" lon="4.68793">
        <ele>315.25885</ele>
        <time>2022-08-23T14:54:38.000Z</time>
      </trkpt>
      <trkpt lat="45.90719" lon="4.68798">
        <ele>315.09509</ele>
        <time>2022-08-23T14:54:39.000Z</time>
      </trkpt>
      <trkpt lat="45.90719" lon="4.68802">
        <ele>314.83719</ele>
        <time>2022-08-23T14:54:40.000Z</time>
      </trkpt>
      <trkpt lat="45.90719" lon="4.68807">
        <ele>314.55176</ele>
        <time>2022-08-23T14:54:41.000Z</time>
      </trkpt>
      <trkpt lat="45.90719" lon="4.68811">
        <ele>314.27545</ele>
        <time>2022-08-23T14:54:42.000Z</time>
      </trkpt>
      <trkpt lat="45.90719" lon="4.68816">
        <ele>313.98181</ele>
        <time>2022-08-23T14:54:43.000Z</time>
      </trkpt>
      <trkpt lat="45.90719" lon="4.6882">
        <ele>313.68369</ele>
        <time>2022-08-23T14:54:44.000Z</time>
      </trkpt>
      <trkpt lat="45.9072" lon="4.68825">
        <ele>313.40201</ele>
        <time>2022-08-23T14:54:45.000Z</time>
      </trkpt>
      <trkpt lat="45.9072" lon="4.6883">
        <ele>313.09528</ele>
        <time>2022-08-23T14:54:46.000Z</time>
      </trkpt>
      <trkpt lat="45.9072" lon="4.68835">
        <ele>312.7923</ele>
        <time>2022-08-23T14:54:47.000Z</time>
      </trkpt>
      <trkpt lat="45.90719" lon="4.68839">
        <ele>312.47983</ele>
        <time>2022-08-23T14:54:48.000Z</time>
      </trkpt>
      <trkpt lat="45.90719" lon="4.68844">
        <ele>312.17856</ele>
        <time>2022-08-23T14:54:49.000Z</time>
      </trkpt>
      <trkpt lat="45.90719" lon="4.68849">
        <ele>311.85788</ele>
        <time>2022-08-23T14:54:50.000Z</time>
      </trkpt>
      <trkpt lat="45.90719" lon="4.68853">
        <ele>311.51782</ele>
        <time>2022-08-23T14:54:51.000Z</time>
      </trkpt>
      <trkpt lat="45.90719" lon="4.68857">
        <ele>311.14496</ele>
        <time>2022-08-23T14:54:52.000Z</time>
      </trkpt>
      <trkpt lat="45.90719" lon="4.68862">
        <ele>310.83456</ele>
        <time>2022-08-23T14:54:53.000Z</time>
      </trkpt>
      <trkpt lat="45.90719" lon="4.68866">
        <ele>310.56006</ele>
        <time>2022-08-23T14:54:54.000Z</time>
      </trkpt>
      <trkpt lat="45.90719" lon="4.6887">
        <ele>310.19696</ele>
        <time>2022-08-23T14:54:55.000Z</time>
      </trkpt>
      <trkpt lat="45.90718" lon="4.68874">
        <ele>309.86008</ele>
        <time>2022-08-23T14:54:56.000Z</time>
      </trkpt>
      <trkpt lat="45.90718" lon="4.68877">
        <ele>309.48206</ele>
        <time>2022-08-23T14:54:57.000Z</time>
      </trkpt>
      <trkpt lat="45.90718" lon="4.68881">
        <ele>309.03574</ele>
        <time>2022-08-23T14:54:58.000Z</time>
      </trkpt>
      <trkpt lat="45.90718" lon="4.68885">
        <ele>308.60327</ele>
        <time>2022-08-23T14:54:59.000Z</time>
      </trkpt>
      <trkpt lat="45.90719" lon="4.68889">
        <ele>308.24066</ele>
        <time>2022-08-23T14:55:00.000Z</time>
      </trkpt>
      <trkpt lat="45.90719" lon="4.68893">
        <ele>307.86765</ele>
        <time>2022-08-23T14:55:01.000Z</time>
      </trkpt>
      <trkpt lat="45.90718" lon="4.68898">
        <ele>307.50421</ele>
        <time>2022-08-23T14:55:02.000Z</time>
      </trkpt>
      <trkpt lat="45.90718" lon="4.68903">
        <ele>307.15503</ele>
        <time>2022-08-23T14:55:03.000Z</time>
      </trkpt>
      <trkpt lat="45.90718" lon="4.68908">
        <ele>306.81195</ele>
        <time>2022-08-23T14:55:04.000Z</time>
      </trkpt>
      <trkpt lat="45.90719" lon="4.68912">
        <ele>306.40417</ele>
        <time>2022-08-23T14:55:05.000Z</time>
      </trkpt>
      <trkpt lat="45.90719" lon="4.68916">
        <ele>305.99741</ele>
        <time>2022-08-23T14:55:06.000Z</time>
      </trkpt>
      <trkpt lat="45.90719" lon="4.6892">
        <ele>305.56357</ele>
        <time>2022-08-23T14:55:07.000Z</time>
      </trkpt>
      <trkpt lat="45.90719" lon="4.68925">
        <ele>305.12543</ele>
        <time>2022-08-23T14:55:08.000Z</time>
      </trkpt>
      <trkpt lat="45.90719" lon="4.68931">
        <ele>304.65335</ele>
        <time>2022-08-23T14:55:09.000Z</time>
      </trkpt>
      <trkpt lat="45.90719" lon="4.68936">
        <ele>304.18546</ele>
        <time>2022-08-23T14:55:10.000Z</time>
      </trkpt>
      <trkpt lat="45.90719" lon="4.6894">
        <ele>303.74368</ele>
        <time>2022-08-23T14:55:11.000Z</time>
      </trkpt>
      <trkpt lat="45.90719" lon="4.68945">
        <ele>303.21399</ele>
        <time>2022-08-23T14:55:12.000Z</time>
      </trkpt>
      <trkpt lat="45.90719" lon="4.68949">
        <ele>302.67685</ele>
        <time>2022-08-23T14:55:13.000Z</time>
      </trkpt>
      <trkpt lat="45.90718" lon="4.68954">
        <ele>302.18442</ele>
        <time>2022-08-23T14:55:14.000Z</time>
      </trkpt>
      <trkpt lat="45.90718" lon="4.68958">
        <ele>301.82745</ele>
        <time>2022-08-23T14:55:15.000Z</time>
      </trkpt>
      <trkpt lat="45.90718" lon="4.68963">
        <ele>301.49515</ele>
        <time>2022-08-23T14:55:16.000Z</time>
      </trkpt>
      <trkpt lat="45.90721" lon="4.68967">
        <ele>301.15085</ele>
        <time>2022-08-23T14:55:17.000Z</time>
      </trkpt>
      <trkpt lat="45.90724" lon="4.68968">
        <ele>300.815</ele>
        <time>2022-08-23T14:55:18.000Z</time>
      </trkpt>
      <trkpt lat="45.90728" lon="4.68968">
        <ele>300.5</ele>
        <time>2022-08-23T14:55:19.000Z</time>
      </trkpt>
      <trkpt lat="45.90732" lon="4.68968">
        <ele>300.13062</ele>
        <time>2022-08-23T14:55:20.000Z</time>
      </trkpt>
      <trkpt lat="45.90736" lon="4.68967">
        <ele>299.72235</ele>
        <time>2022-08-23T14:55:21.000Z</time>
      </trkpt>
      <trkpt lat="45.9074" lon="4.68967">
        <ele>299.37738</ele>
        <time>2022-08-23T14:55:22.000Z</time>
      </trkpt>
      <trkpt lat="45.90743" lon="4.68966">
        <ele>299.03824</ele>
        <time>2022-08-23T14:55:23.000Z</time>
      </trkpt>
      <trkpt lat="45.90747" lon="4.68966">
        <ele>298.71497</ele>
        <time>2022-08-23T14:55:24.000Z</time>
      </trkpt>
      <trkpt lat="45.90751" lon="4.68965">
        <ele>298.42001</ele>
        <time>2022-08-23T14:55:25.000Z</time>
      </trkpt>
      <trkpt lat="45.90755" lon="4.68965">
        <ele>298.15393</ele>
        <time>2022-08-23T14:55:26.000Z</time>
      </trkpt>
      <trkpt lat="45.90759" lon="4.68964">
        <ele>297.87024</ele>
        <time>2022-08-23T14:55:27.000Z</time>
      </trkpt>
      <trkpt lat="45.90763" lon="4.68963">
        <ele>297.54669</ele>
        <time>2022-08-23T14:55:28.000Z</time>
      </trkpt>
      <trkpt lat="45.90766" lon="4.68962">
        <ele>297.37701</ele>
        <time>2022-08-23T14:55:29.000Z</time>
      </trkpt>
      <trkpt lat="45.90769" lon="4.68961">
        <ele>297.21719</ele>
        <time>2022-08-23T14:55:30.000Z</time>
      </trkpt>
      <trkpt lat="45.90772" lon="4.68959">
        <ele>297.04495</ele>
        <time>2022-08-23T14:55:31.000Z</time>
      </trkpt>
      <trkpt lat="45.90775" lon="4.68958">
        <ele>296.97821</ele>
        <time>2022-08-23T14:55:32.000Z</time>
      </trkpt>
      <trkpt lat="45.90778" lon="4.68957">
        <ele>296.9397</ele>
        <time>2022-08-23T14:55:33.000Z</time>
      </trkpt>
      <trkpt lat="45.90781" lon="4.68956">
        <ele>296.91797</ele>
        <time>2022-08-23T14:55:34.000Z</time>
      </trkpt>
      <trkpt lat="45.90783" lon="4.68955">
        <ele>296.96817</ele>
        <time>2022-08-23T14:55:35.000Z</time>
      </trkpt>
      <trkpt lat="45.90792" lon="4.68946">
        <ele>296.98566</ele>
        <time>2022-08-23T14:55:40.000Z</time>
      </trkpt>
      <trkpt lat="45.90795" lon="4.68945">
        <ele>297.0032</ele>
        <time>2022-08-23T14:55:42.000Z</time>
      </trkpt>
      <trkpt lat="45.90794" lon="4.68942">
        <ele>296.98813</ele>
        <time>2022-08-23T14:55:44.000Z</time>
      </trkpt>
      <trkpt lat="45.90792" lon="4.68941">
        <ele>297.00107</ele>
        <time>2022-08-23T14:55:45.000Z</time>
      </trkpt>
      <trkpt lat="45.9079" lon="4.68941">
        <ele>296.98541</ele>
        <time>2022-08-23T14:55:46.000Z</time>
      </trkpt>
      <trkpt lat="45.90787" lon="4.68943">
        <ele>297.0072</ele>
        <time>2022-08-23T14:55:47.000Z</time>
      </trkpt>
      <trkpt lat="45.90785" lon="4.68946">
        <ele>296.96173</ele>
        <time>2022-08-23T14:55:48.000Z</time>
      </trkpt>
      <trkpt lat="45.90782" lon="4.68949">
        <ele>296.92465</ele>
        <time>2022-08-23T14:55:49.000Z</time>
      </trkpt>
      <trkpt lat="45.90779" lon="4.68952">
        <ele>296.7652</ele>
        <time>2022-08-23T14:55:50.000Z</time>
      </trkpt>
      <trkpt lat="45.90777" lon="4.68954">
        <ele>296.61212</ele>
        <time>2022-08-23T14:55:51.000Z</time>
      </trkpt>
      <trkpt lat="45.90775" lon="4.68955">
        <ele>296.42075</ele>
        <time>2022-08-23T14:55:52.000Z</time>
      </trkpt>
      <trkpt lat="45.90772" lon="4.68956">
        <ele>296.32855</ele>
        <time>2022-08-23T14:55:53.000Z</time>
      </trkpt>
      <trkpt lat="45.9077" lon="4.68958">
        <ele>296.29825</ele>
        <time>2022-08-23T14:55:54.000Z</time>
      </trkpt>
      <trkpt lat="45.90767" lon="4.68958">
        <ele>296.21606</ele>
        <time>2022-08-23T14:55:55.000Z</time>
      </trkpt>
      <trkpt lat="45.90764" lon="4.68959">
        <ele>296.16534</ele>
        <time>2022-08-23T14:55:56.000Z</time>
      </trkpt>
      <trkpt lat="45.90762" lon="4.68958">
        <ele>296.16498</ele>
        <time>2022-08-23T14:55:57.000Z</time>
      </trkpt>
      <trkpt lat="45.9076" lon="4.68958">
        <ele>296.19717</ele>
        <time>2022-08-23T14:55:58.000Z</time>
      </trkpt>
      <trkpt lat="45.90757" lon="4.68959">
        <ele>296.18329</ele>
        <time>2022-08-23T14:56:00.000Z</time>
      </trkpt>
      <trkpt lat="45.90755" lon="4.6896">
        <ele>296.15213</ele>
        <time>2022-08-23T14:56:01.000Z</time>
      </trkpt>
      <trkpt lat="45.90753" lon="4.6896">
        <ele>296.06281</ele>
        <time>2022-08-23T14:56:02.000Z</time>
      </trkpt>
      <trkpt lat="45.90751" lon="4.68961">
        <ele>296.00641</ele>
        <time>2022-08-23T14:56:03.000Z</time>
      </trkpt>
      <trkpt lat="45.90749" lon="4.68965">
        <ele>295.96573</ele>
        <time>2022-08-23T14:56:05.000Z</time>
      </trkpt>
      <trkpt lat="45.9075" lon="4.6897">
        <ele>296.00757</ele>
        <time>2022-08-23T14:56:07.000Z</time>
      </trkpt>
      <trkpt lat="45.90753" lon="4.68974">
        <ele>295.95795</ele>
        <time>2022-08-23T14:56:09.000Z</time>
      </trkpt>
      <trkpt lat="45.90754" lon="4.68976">
        <ele>295.95535</ele>
        <time>2022-08-23T14:56:10.000Z</time>
      </trkpt>
      <trkpt lat="45.90757" lon="4.68978">
        <ele>295.89276</ele>
        <time>2022-08-23T14:56:11.000Z</time>
      </trkpt>
      <trkpt lat="45.90758" lon="4.68981">
        <ele>295.79596</ele>
        <time>2022-08-23T14:56:12.000Z</time>
      </trkpt>
      <trkpt lat="45.90758" lon="4.68986">
        <ele>295.6987</ele>
        <time>2022-08-23T14:56:20.000Z</time>
      </trkpt>
      <trkpt lat="45.90758" lon="4.68989">
        <ele>295.71603</ele>
        <time>2022-08-23T14:56:21.000Z</time>
      </trkpt>
      <trkpt lat="45.90758" lon="4.68993">
        <ele>295.74237</ele>
        <time>2022-08-23T14:56:22.000Z</time>
      </trkpt>
      <trkpt lat="45.90757" lon="4.68996">
        <ele>295.7648</ele>
        <time>2022-08-23T14:56:23.000Z</time>
      </trkpt>
      <trkpt lat="45.90757" lon="4.68999">
        <ele>295.7066</ele>
        <time>2022-08-23T14:56:24.000Z</time>
      </trkpt>
      <trkpt lat="45.90757" lon="4.69003">
        <ele>295.62994</ele>
        <time>2022-08-23T14:56:25.000Z</time>
      </trkpt>
      <trkpt lat="45.90757" lon="4.69007">
        <ele>295.5058</ele>
        <time>2022-08-23T14:56:26.000Z</time>
      </trkpt>
      <trkpt lat="45.90757" lon="4.69011">
        <ele>295.28561</ele>
        <time>2022-08-23T14:56:27.000Z</time>
      </trkpt>
      <trkpt lat="45.90757" lon="4.69015">
        <ele>295.03873</ele>
        <time>2022-08-23T14:56:28.000Z</time>
      </trkpt>
      <trkpt lat="45.90756" lon="4.6902">
        <ele>294.65875</ele>
        <time>2022-08-23T14:56:29.000Z</time>
      </trkpt>
      <trkpt lat="45.90756" lon="4.69024">
        <ele>294.22971</ele>
        <time>2022-08-23T14:56:30.000Z</time>
      </trkpt>
      <trkpt lat="45.90755" lon="4.69028">
        <ele>293.78973</ele>
        <time>2022-08-23T14:56:31.000Z</time>
      </trkpt>
      <trkpt lat="45.90754" lon="4.69032">
        <ele>293.32141</ele>
        <time>2022-08-23T14:56:32.000Z</time>
      </trkpt>
      <trkpt lat="45.90753" lon="4.69035">
        <ele>292.89435</ele>
        <time>2022-08-23T14:56:33.000Z</time>
      </trkpt>
      <trkpt lat="45.90752" lon="4.69038">
        <ele>292.43918</ele>
        <time>2022-08-23T14:56:34.000Z</time>
      </trkpt>
      <trkpt lat="45.90752" lon="4.69041">
        <ele>291.98273</ele>
        <time>2022-08-23T14:56:36.000Z</time>
      </trkpt>
      <trkpt lat="45.90754" lon="4.69045">
        <ele>291.51642</ele>
        <time>2022-08-23T14:56:38.000Z</time>
      </trkpt>
      <trkpt lat="45.90756" lon="4.69047">
        <ele>291.07562</ele>
        <time>2022-08-23T14:56:39.000Z</time>
      </trkpt>
      <trkpt lat="45.90759" lon="4.69049">
        <ele>290.66983</ele>
        <time>2022-08-23T14:56:40.000Z</time>
      </trkpt>
      <trkpt lat="45.90762" lon="4.69051">
        <ele>290.3063</ele>
        <time>2022-08-23T14:56:41.000Z</time>
      </trkpt>
      <trkpt lat="45.90765" lon="4.69053">
        <ele>289.96683</ele>
        <time>2022-08-23T14:56:42.000Z</time>
      </trkpt>
      <trkpt lat="45.90768" lon="4.69053">
        <ele>289.6185</ele>
        <time>2022-08-23T14:56:43.000Z</time>
      </trkpt>
      <trkpt lat="45.90771" lon="4.69053">
        <ele>289.18506</ele>
        <time>2022-08-23T14:56:44.000Z</time>
      </trkpt>
      <trkpt lat="45.90774" lon="4.69054">
        <ele>288.77463</ele>
        <time>2022-08-23T14:56:45.000Z</time>
      </trkpt>
      <trkpt lat="45.90776" lon="4.69055">
        <ele>288.37445</ele>
        <time>2022-08-23T14:56:46.000Z</time>
      </trkpt>
      <trkpt lat="45.90778" lon="4.69056">
        <ele>288.01151</ele>
        <time>2022-08-23T14:56:47.000Z</time>
      </trkpt>
      <trkpt lat="45.9078" lon="4.69058">
        <ele>287.60535</ele>
        <time>2022-08-23T14:56:49.000Z</time>
      </trkpt>
      <trkpt lat="45.90779" lon="4.69063">
        <ele>287.18451</ele>
        <time>2022-08-23T14:56:51.000Z</time>
      </trkpt>
      <trkpt lat="45.90778" lon="4.69066">
        <ele>286.75961</ele>
        <time>2022-08-23T14:56:52.000Z</time>
      </trkpt>
      <trkpt lat="45.90777" lon="4.6907">
        <ele>286.36618</ele>
        <time>2022-08-23T14:56:53.000Z</time>
      </trkpt>
      <trkpt lat="45.90775" lon="4.69075">
        <ele>286.01141</ele>
        <time>2022-08-23T14:56:54.000Z</time>
      </trkpt>
      <trkpt lat="45.90774" lon="4.6908">
        <ele>285.65997</ele>
        <time>2022-08-23T14:56:55.000Z</time>
      </trkpt>
      <trkpt lat="45.90773" lon="4.69085">
        <ele>285.2645</ele>
        <time>2022-08-23T14:56:56.000Z</time>
      </trkpt>
      <trkpt lat="45.90771" lon="4.6909">
        <ele>284.754</ele>
        <time>2022-08-23T14:56:57.000Z</time>
      </trkpt>
      <trkpt lat="45.9077" lon="4.69096">
        <ele>284.26093</ele>
        <time>2022-08-23T14:56:58.000Z</time>
      </trkpt>
      <trkpt lat="45.90769" lon="4.69101">
        <ele>283.6749</ele>
        <time>2022-08-23T14:56:59.000Z</time>
      </trkpt>
      <trkpt lat="45.90767" lon="4.69107">
        <ele>283.16858</ele>
        <time>2022-08-23T14:57:00.000Z</time>
      </trkpt>
      <trkpt lat="45.90764" lon="4.69114">
        <ele>282.65533</ele>
        <time>2022-08-23T14:57:01.000Z</time>
      </trkpt>
      <trkpt lat="45.90763" lon="4.6912">
        <ele>282.16458</ele>
        <time>2022-08-23T14:57:02.000Z</time>
      </trkpt>
      <trkpt lat="45.90762" lon="4.69127">
        <ele>281.68454</ele>
        <time>2022-08-23T14:57:03.000Z</time>
      </trkpt>
      <trkpt lat="45.90759" lon="4.69135">
        <ele>281.21021</ele>
        <time>2022-08-23T14:57:04.000Z</time>
      </trkpt>
      <trkpt lat="45.9076" lon="4.69142">
        <ele>280.77142</ele>
        <time>2022-08-23T14:57:05.000Z</time>
      </trkpt>
      <trkpt lat="45.90759" lon="4.69148">
        <ele>280.3927</ele>
        <time>2022-08-23T14:57:06.000Z</time>
      </trkpt>
      <trkpt lat="45.9076" lon="4.69155">
        <ele>279.983</ele>
        <time>2022-08-23T14:57:07.000Z</time>
      </trkpt>
      <trkpt lat="45.90764" lon="4.69162">
        <ele>279.64337</ele>
        <time>2022-08-23T14:57:08.000Z</time>
      </trkpt>
      <trkpt lat="45.90767" lon="4.69168">
        <ele>279.38425</ele>
        <time>2022-08-23T14:57:09.000Z</time>
      </trkpt>
      <trkpt lat="45.90767" lon="4.69172">
        <ele>279.1217</ele>
        <time>2022-08-23T14:57:10.000Z</time>
      </trkpt>
      <trkpt lat="45.90769" lon="4.69178">
        <ele>278.91336</ele>
        <time>2022-08-23T14:57:11.000Z</time>
      </trkpt>
      <trkpt lat="45.90771" lon="4.69183">
        <ele>278.66006</ele>
        <time>2022-08-23T14:57:12.000Z</time>
      </trkpt>
      <trkpt lat="45.90772" lon="4.69186">
        <ele>278.46375</ele>
        <time>2022-08-23T14:57:13.000Z</time>
      </trkpt>
      <trkpt lat="45.90773" lon="4.6919">
        <ele>278.23431</ele>
        <time>2022-08-23T14:57:14.000Z</time>
      </trkpt>
      <trkpt lat="45.90772" lon="4.69195">
        <ele>278.02701</ele>
        <time>2022-08-23T14:57:15.000Z</time>
      </trkpt>
      <trkpt lat="45.90772" lon="4.69201">
        <ele>277.87881</ele>
        <time>2022-08-23T14:57:16.000Z</time>
      </trkpt>
      <trkpt lat="45.90773" lon="4.69206">
        <ele>277.76544</ele>
        <time>2022-08-23T14:57:17.000Z</time>
      </trkpt>
      <trkpt lat="45.90772" lon="4.69212">
        <ele>277.62814</ele>
        <time>2022-08-23T14:57:18.000Z</time>
      </trkpt>
      <trkpt lat="45.90771" lon="4.69218">
        <ele>277.5116</ele>
        <time>2022-08-23T14:57:19.000Z</time>
      </trkpt>
      <trkpt lat="45.90771" lon="4.69224">
        <ele>277.36533</ele>
        <time>2022-08-23T14:57:20.000Z</time>
      </trkpt>
      <trkpt lat="45.90771" lon="4.6923">
        <ele>277.26385</ele>
        <time>2022-08-23T14:57:21.000Z</time>
      </trkpt>
      <trkpt lat="45.90771" lon="4.69235">
        <ele>277.18369</ele>
        <time>2022-08-23T14:57:22.000Z</time>
      </trkpt>
      <trkpt lat="45.90772" lon="4.6924">
        <ele>277.09976</ele>
        <time>2022-08-23T14:57:23.000Z</time>
      </trkpt>
      <trkpt lat="45.90774" lon="4.69244">
        <ele>276.99323</ele>
        <time>2022-08-23T14:57:24.000Z</time>
      </trkpt>
      <trkpt lat="45.90776" lon="4.69247">
        <ele>276.84027</ele>
        <time>2022-08-23T14:57:25.000Z</time>
      </trkpt>
      <trkpt lat="45.90779" lon="4.6925">
        <ele>276.6785</ele>
        <time>2022-08-23T14:57:26.000Z</time>
      </trkpt>
      <trkpt lat="45.90782" lon="4.69253">
        <ele>276.49808</ele>
        <time>2022-08-23T14:57:27.000Z</time>
      </trkpt>
      <trkpt lat="45.90785" lon="4.69256">
        <ele>276.23453</ele>
        <time>2022-08-23T14:57:28.000Z</time>
      </trkpt>
      <trkpt lat="45.90788" lon="4.69259">
        <ele>275.88928</ele>
        <time>2022-08-23T14:57:29.000Z</time>
      </trkpt>
      <trkpt lat="45.90791" lon="4.69261">
        <ele>275.60626</ele>
        <time>2022-08-23T14:57:30.000Z</time>
      </trkpt>
      <trkpt lat="45.90795" lon="4.69264">
        <ele>275.36081</ele>
        <time>2022-08-23T14:57:31.000Z</time>
      </trkpt>
      <trkpt lat="45.90798" lon="4.69266">
        <ele>275.19412</ele>
        <time>2022-08-23T14:57:32.000Z</time>
      </trkpt>
      <trkpt lat="45.90802" lon="4.69269">
        <ele>275.0275</ele>
        <time>2022-08-23T14:57:33.000Z</time>
      </trkpt>
      <trkpt lat="45.90805" lon="4.69271">
        <ele>274.91992</ele>
        <time>2022-08-23T14:57:34.000Z</time>
      </trkpt>
      <trkpt lat="45.90809" lon="4.69274">
        <ele>274.79288</ele>
        <time>2022-08-23T14:57:35.000Z</time>
      </trkpt>
      <trkpt lat="45.90813" lon="4.69276">
        <ele>274.63181</ele>
        <time>2022-08-23T14:57:36.000Z</time>
      </trkpt>
      <trkpt lat="45.90816" lon="4.69279">
        <ele>274.52066</ele>
        <time>2022-08-23T14:57:37.000Z</time>
      </trkpt>
      <trkpt lat="45.9082" lon="4.69282">
        <ele>274.46719</ele>
        <time>2022-08-23T14:57:38.000Z</time>
      </trkpt>
      <trkpt lat="45.90823" lon="4.69285">
        <ele>274.48654</ele>
        <time>2022-08-23T14:57:39.000Z</time>
      </trkpt>
      <trkpt lat="45.90827" lon="4.69288">
        <ele>274.5477</ele>
        <time>2022-08-23T14:57:40.000Z</time>
      </trkpt>
      <trkpt lat="45.9083" lon="4.69291">
        <ele>274.57489</ele>
        <time>2022-08-23T14:57:41.000Z</time>
      </trkpt>
      <trkpt lat="45.90833" lon="4.69294">
        <ele>274.59976</ele>
        <time>2022-08-23T14:57:42.000Z</time>
      </trkpt>
      <trkpt lat="45.90836" lon="4.69296">
        <ele>274.60516</ele>
        <time>2022-08-23T14:57:43.000Z</time>
      </trkpt>
      <trkpt lat="45.90839" lon="4.693">
        <ele>274.61969</ele>
        <time>2022-08-23T14:57:44.000Z</time>
      </trkpt>
      <trkpt lat="45.90843" lon="4.69303">
        <ele>274.57578</ele>
        <time>2022-08-23T14:57:45.000Z</time>
      </trkpt>
      <trkpt lat="45.90846" lon="4.69306">
        <ele>274.5899</ele>
        <time>2022-08-23T14:57:46.000Z</time>
      </trkpt>
      <trkpt lat="45.90849" lon="4.69309">
        <ele>274.61069</ele>
        <time>2022-08-23T14:57:47.000Z</time>
      </trkpt>
      <trkpt lat="45.90852" lon="4.69312">
        <ele>274.64767</ele>
        <time>2022-08-23T14:57:48.000Z</time>
      </trkpt>
      <trkpt lat="45.90856" lon="4.69314">
        <ele>274.67584</ele>
        <time>2022-08-23T14:57:49.000Z</time>
      </trkpt>
      <trkpt lat="45.90859" lon="4.69316">
        <ele>274.69</ele>
        <time>2022-08-23T14:57:50.000Z</time>
      </trkpt>
      <trkpt lat="45.90863" lon="4.69318">
        <ele>274.67758</ele>
        <time>2022-08-23T14:57:51.000Z</time>
      </trkpt>
      <trkpt lat="45.90866" lon="4.69319">
        <ele>274.63232</ele>
        <time>2022-08-23T14:57:52.000Z</time>
      </trkpt>
      <trkpt lat="45.9087" lon="4.69321">
        <ele>274.57288</ele>
        <time>2022-08-23T14:57:53.000Z</time>
      </trkpt>
      <trkpt lat="45.90874" lon="4.69323">
        <ele>274.45706</ele>
        <time>2022-08-23T14:57:54.000Z</time>
      </trkpt>
      <trkpt lat="45.90878" lon="4.69325">
        <ele>274.35193</ele>
        <time>2022-08-23T14:57:55.000Z</time>
      </trkpt>
      <trkpt lat="45.90882" lon="4.69326">
        <ele>274.25995</ele>
        <time>2022-08-23T14:57:56.000Z</time>
      </trkpt>
      <trkpt lat="45.90886" lon="4.69328">
        <ele>274.14499</ele>
        <time>2022-08-23T14:57:57.000Z</time>
      </trkpt>
      <trkpt lat="45.9089" lon="4.6933">
        <ele>273.98431</ele>
        <time>2022-08-23T14:57:58.000Z</time>
      </trkpt>
      <trkpt lat="45.90894" lon="4.69333">
        <ele>273.77295</ele>
        <time>2022-08-23T14:57:59.000Z</time>
      </trkpt>
      <trkpt lat="45.90897" lon="4.69336">
        <ele>273.53043</ele>
        <time>2022-08-23T14:58:00.000Z</time>
      </trkpt>
      <trkpt lat="45.90901" lon="4.69339">
        <ele>273.22757</ele>
        <time>2022-08-23T14:58:01.000Z</time>
      </trkpt>
      <trkpt lat="45.90904" lon="4.69342">
        <ele>272.85773</ele>
        <time>2022-08-23T14:58:02.000Z</time>
      </trkpt>
      <trkpt lat="45.90909" lon="4.69346">
        <ele>272.52286</ele>
        <time>2022-08-23T14:58:03.000Z</time>
      </trkpt>
      <trkpt lat="45.90914" lon="4.69349">
        <ele>272.17548</ele>
        <time>2022-08-23T14:58:04.000Z</time>
      </trkpt>
      <trkpt lat="45.90917" lon="4.69352">
        <ele>271.83292</ele>
        <time>2022-08-23T14:58:05.000Z</time>
      </trkpt>
      <trkpt lat="45.9092" lon="4.69353">
        <ele>271.38388</ele>
        <time>2022-08-23T14:58:07.000Z</time>
      </trkpt>
      <trkpt lat="45.90923" lon="4.69356">
        <ele>271.01202</ele>
        <time>2022-08-23T14:58:09.000Z</time>
      </trkpt>
      <trkpt lat="45.90925" lon="4.69357">
        <ele>270.6828</ele>
        <time>2022-08-23T14:58:10.000Z</time>
      </trkpt>
      <trkpt lat="45.90927" lon="4.69358">
        <ele>270.35794</ele>
        <time>2022-08-23T14:58:11.000Z</time>
      </trkpt>
      <trkpt lat="45.90929" lon="4.6936">
        <ele>270.048</ele>
        <time>2022-08-23T14:58:12.000Z</time>
      </trkpt>
      <trkpt lat="45.90931" lon="4.69359">
        <ele>269.76169</ele>
        <time>2022-08-23T14:58:13.000Z</time>
      </trkpt>
      <trkpt lat="45.90933" lon="4.69359">
        <ele>269.48285</ele>
        <time>2022-08-23T14:58:14.000Z</time>
      </trkpt>
      <trkpt lat="45.90936" lon="4.69359">
        <ele>269.20844</ele>
        <time>2022-08-23T14:58:15.000Z</time>
      </trkpt>
      <trkpt lat="45.90937" lon="4.69362">
        <ele>269.05267</ele>
        <time>2022-08-23T14:58:17.000Z</time>
      </trkpt>
      <trkpt lat="45.90933" lon="4.6936">
        <ele>268.88644</ele>
        <time>2022-08-23T14:58:20.000Z</time>
      </trkpt>
      <trkpt lat="45.90931" lon="4.69357">
        <ele>268.71069</ele>
        <time>2022-08-23T14:58:21.000Z</time>
      </trkpt>
      <trkpt lat="45.90929" lon="4.69354">
        <ele>268.56659</ele>
        <time>2022-08-23T14:58:22.000Z</time>
      </trkpt>
      <trkpt lat="45.90926" lon="4.69352">
        <ele>268.42569</ele>
        <time>2022-08-23T14:58:23.000Z</time>
      </trkpt>
      <trkpt lat="45.90924" lon="4.6935">
        <ele>268.35535</ele>
        <time>2022-08-23T14:58:24.000Z</time>
      </trkpt>
      <trkpt lat="45.90921" lon="4.69348">
        <ele>268.32382</ele>
        <time>2022-08-23T14:58:25.000Z</time>
      </trkpt>
      <trkpt lat="45.90919" lon="4.69345">
        <ele>268.35968</ele>
        <time>2022-08-23T14:58:26.000Z</time>
      </trkpt>
      <trkpt lat="45.90916" lon="4.69343">
        <ele>268.48727</ele>
        <time>2022-08-23T14:58:27.000Z</time>
      </trkpt>
      <trkpt lat="45.90913" lon="4.6934">
        <ele>268.6214</ele>
        <time>2022-08-23T14:58:28.000Z</time>
      </trkpt>
      <trkpt lat="45.90911" lon="4.69339">
        <ele>268.79837</ele>
        <time>2022-08-23T14:58:29.000Z</time>
      </trkpt>
      <trkpt lat="45.90908" lon="4.69338">
        <ele>269.07074</ele>
        <time>2022-08-23T14:58:30.000Z</time>
      </trkpt>
      <trkpt lat="45.90905" lon="4.69338">
        <ele>269.42401</ele>
        <time>2022-08-23T14:58:31.000Z</time>
      </trkpt>
      <trkpt lat="45.90903" lon="4.6934">
        <ele>269.69891</ele>
        <time>2022-08-23T14:58:32.000Z</time>
      </trkpt>
      <trkpt lat="45.909" lon="4.69343">
        <ele>269.92612</ele>
        <time>2022-08-23T14:58:33.000Z</time>
      </trkpt>
      <trkpt lat="45.90899" lon="4.69348">
        <ele>270.10272</ele>
        <time>2022-08-23T14:58:34.000Z</time>
      </trkpt>
      <trkpt lat="45.90898" lon="4.69354">
        <ele>270.2894</ele>
        <time>2022-08-23T14:58:35.000Z</time>
      </trkpt>
      <trkpt lat="45.90897" lon="4.69359">
        <ele>270.5152</ele>
        <time>2022-08-23T14:58:36.000Z</time>
      </trkpt>
      <trkpt lat="45.90897" lon="4.69365">
        <ele>270.74146</ele>
        <time>2022-08-23T14:58:37.000Z</time>
      </trkpt>
      <trkpt lat="45.90897" lon="4.6937">
        <ele>270.98093</ele>
        <time>2022-08-23T14:58:38.000Z</time>
      </trkpt>
      <trkpt lat="45.90897" lon="4.69376">
        <ele>271.13321</ele>
        <time>2022-08-23T14:58:39.000Z</time>
      </trkpt>
      <trkpt lat="45.90897" lon="4.69381">
        <ele>271.29034</ele>
        <time>2022-08-23T14:58:40.000Z</time>
      </trkpt>
      <trkpt lat="45.90897" lon="4.69387">
        <ele>271.45844</ele>
        <time>2022-08-23T14:58:41.000Z</time>
      </trkpt>
      <trkpt lat="45.90897" lon="4.69393">
        <ele>271.55713</ele>
        <time>2022-08-23T14:58:42.000Z</time>
      </trkpt>
      <trkpt lat="45.90896" lon="4.69398">
        <ele>271.61505</ele>
        <time>2022-08-23T14:58:43.000Z</time>
      </trkpt>
      <trkpt lat="45.90895" lon="4.69404">
        <ele>271.57721</ele>
        <time>2022-08-23T14:58:44.000Z</time>
      </trkpt>
      <trkpt lat="45.90895" lon="4.6941">
        <ele>271.46106</ele>
        <time>2022-08-23T14:58:45.000Z</time>
      </trkpt>
      <trkpt lat="45.90895" lon="4.69415">
        <ele>271.34299</ele>
        <time>2022-08-23T14:58:46.000Z</time>
      </trkpt>
      <trkpt lat="45.90895" lon="4.69421">
        <ele>271.13763</ele>
        <time>2022-08-23T14:58:47.000Z</time>
      </trkpt>
      <trkpt lat="45.90894" lon="4.69426">
        <ele>270.85934</ele>
        <time>2022-08-23T14:58:48.000Z</time>
      </trkpt>
      <trkpt lat="45.90894" lon="4.69432">
        <ele>270.50418</ele>
        <time>2022-08-23T14:58:49.000Z</time>
      </trkpt>
      <trkpt lat="45.90895" lon="4.69438">
        <ele>270.08868</ele>
        <time>2022-08-23T14:58:50.000Z</time>
      </trkpt>
      <trkpt lat="45.90894" lon="4.69444">
        <ele>269.58154</ele>
        <time>2022-08-23T14:58:51.000Z</time>
      </trkpt>
      <trkpt lat="45.90894" lon="4.6945">
        <ele>269.07437</ele>
        <time>2022-08-23T14:58:52.000Z</time>
      </trkpt>
      <trkpt lat="45.90893" lon="4.69455">
        <ele>268.60104</ele>
        <time>2022-08-23T14:58:53.000Z</time>
      </trkpt>
      <trkpt lat="45.90893" lon="4.6946">
        <ele>268.15848</ele>
        <time>2022-08-23T14:58:54.000Z</time>
      </trkpt>
      <trkpt lat="45.90892" lon="4.69466">
        <ele>267.68903</ele>
        <time>2022-08-23T14:58:55.000Z</time>
      </trkpt>
      <trkpt lat="45.90891" lon="4.69472">
        <ele>267.15833</ele>
        <time>2022-08-23T14:58:56.000Z</time>
      </trkpt>
      <trkpt lat="45.90891" lon="4.69478">
        <ele>266.59613</ele>
        <time>2022-08-23T14:58:57.000Z</time>
      </trkpt>
      <trkpt lat="45.90891" lon="4.69484">
        <ele>266.07159</ele>
        <time>2022-08-23T14:58:58.000Z</time>
      </trkpt>
      <trkpt lat="45.90891" lon="4.6949">
        <ele>265.56924</ele>
        <time>2022-08-23T14:58:59.000Z</time>
      </trkpt>
      <trkpt lat="45.90891" lon="4.69495">
        <ele>265.09586</ele>
        <time>2022-08-23T14:59:00.000Z</time>
      </trkpt>
      <trkpt lat="45.9089" lon="4.69501">
        <ele>264.58527</ele>
        <time>2022-08-23T14:59:01.000Z</time>
      </trkpt>
      <trkpt lat="45.9089" lon="4.69506">
        <ele>264.09863</ele>
        <time>2022-08-23T14:59:02.000Z</time>
      </trkpt>
      <trkpt lat="45.90889" lon="4.69511">
        <ele>263.62775</ele>
        <time>2022-08-23T14:59:03.000Z</time>
      </trkpt>
      <trkpt lat="45.90888" lon="4.69517">
        <ele>263.20529</ele>
        <time>2022-08-23T14:59:04.000Z</time>
      </trkpt>
      <trkpt lat="45.90888" lon="4.69522">
        <ele>262.8241</ele>
        <time>2022-08-23T14:59:05.000Z</time>
      </trkpt>
      <trkpt lat="45.90888" lon="4.69527">
        <ele>262.47079</ele>
        <time>2022-08-23T14:59:06.000Z</time>
      </trkpt>
      <trkpt lat="45.90888" lon="4.69533">
        <ele>262.11078</ele>
        <time>2022-08-23T14:59:07.000Z</time>
      </trkpt>
      <trkpt lat="45.90888" lon="4.69539">
        <ele>261.81866</ele>
        <time>2022-08-23T14:59:08.000Z</time>
      </trkpt>
      <trkpt lat="45.90887" lon="4.69545">
        <ele>261.56891</ele>
        <time>2022-08-23T14:59:09.000Z</time>
      </trkpt>
      <trkpt lat="45.90887" lon="4.69551">
        <ele>261.35568</ele>
        <time>2022-08-23T14:59:10.000Z</time>
      </trkpt>
      <trkpt lat="45.90887" lon="4.69557">
        <ele>261.20441</ele>
        <time>2022-08-23T14:59:11.000Z</time>
      </trkpt>
      <trkpt lat="45.90888" lon="4.69562">
        <ele>261.10605</ele>
        <time>2022-08-23T14:59:12.000Z</time>
      </trkpt>
      <trkpt lat="45.90888" lon="4.69568">
        <ele>260.99088</ele>
        <time>2022-08-23T14:59:13.000Z</time>
      </trkpt>
      <trkpt lat="45.90888" lon="4.69573">
        <ele>260.87363</ele>
        <time>2022-08-23T14:59:14.000Z</time>
      </trkpt>
      <trkpt lat="45.90887" lon="4.69579">
        <ele>260.71661</ele>
        <time>2022-08-23T14:59:15.000Z</time>
      </trkpt>
      <trkpt lat="45.90886" lon="4.69584">
        <ele>260.56171</ele>
        <time>2022-08-23T14:59:16.000Z</time>
      </trkpt>
      <trkpt lat="45.90884" lon="4.69589">
        <ele>260.43814</ele>
        <time>2022-08-23T14:59:17.000Z</time>
      </trkpt>
      <trkpt lat="45.90881" lon="4.69591">
        <ele>260.34991</ele>
        <time>2022-08-23T14:59:18.000Z</time>
      </trkpt>
      <trkpt lat="45.90877" lon="4.69592">
        <ele>260.22223</ele>
        <time>2022-08-23T14:59:19.000Z</time>
      </trkpt>
      <trkpt lat="45.90872" lon="4.69591">
        <ele>260.00641</ele>
        <time>2022-08-23T14:59:20.000Z</time>
      </trkpt>
      <trkpt lat="45.90868" lon="4.69589">
        <ele>259.80597</ele>
        <time>2022-08-23T14:59:21.000Z</time>
      </trkpt>
      <trkpt lat="45.90865" lon="4.69586">
        <ele>259.57193</ele>
        <time>2022-08-23T14:59:22.000Z</time>
      </trkpt>
      <trkpt lat="45.90861" lon="4.69584">
        <ele>259.36826</ele>
        <time>2022-08-23T14:59:23.000Z</time>
      </trkpt>
      <trkpt lat="45.90857" lon="4.69583">
        <ele>259.13092</ele>
        <time>2022-08-23T14:59:24.000Z</time>
      </trkpt>
      <trkpt lat="45.90854" lon="4.69582">
        <ele>258.84979</ele>
        <time>2022-08-23T14:59:25.000Z</time>
      </trkpt>
      <trkpt lat="45.9085" lon="4.69582">
        <ele>258.53717</ele>
        <time>2022-08-23T14:59:26.000Z</time>
      </trkpt>
      <trkpt lat="45.90846" lon="4.69583">
        <ele>258.31012</ele>
        <time>2022-08-23T14:59:27.000Z</time>
      </trkpt>
      <trkpt lat="45.90842" lon="4.69582">
        <ele>258.0733</ele>
        <time>2022-08-23T14:59:28.000Z</time>
      </trkpt>
      <trkpt lat="45.90838" lon="4.69582">
        <ele>257.87524</ele>
        <time>2022-08-23T14:59:29.000Z</time>
      </trkpt>
      <trkpt lat="45.90834" lon="4.69582">
        <ele>257.70599</ele>
        <time>2022-08-23T14:59:30.000Z</time>
      </trkpt>
      <trkpt lat="45.9083" lon="4.69581">
        <ele>257.58896</ele>
        <time>2022-08-23T14:59:31.000Z</time>
      </trkpt>
      <trkpt lat="45.90827" lon="4.69581">
        <ele>257.44421</ele>
        <time>2022-08-23T14:59:32.000Z</time>
      </trkpt>
      <trkpt lat="45.90823" lon="4.69581">
        <ele>257.28339</ele>
        <time>2022-08-23T14:59:33.000Z</time>
      </trkpt>
      <trkpt lat="45.90819" lon="4.69581">
        <ele>257.09186</ele>
        <time>2022-08-23T14:59:34.000Z</time>
      </trkpt>
      <trkpt lat="45.90815" lon="4.69581">
        <ele>257.17258</ele>
        <time>2022-08-23T14:59:35.000Z</time>
      </trkpt>
      <trkpt lat="45.90811" lon="4.6958">
        <ele>257.16785</ele>
        <time>2022-08-23T14:59:36.000Z</time>
      </trkpt>
      <trkpt lat="45.90807" lon="4.69579">
        <ele>257.15411</ele>
        <time>2022-08-23T14:59:37.000Z</time>
      </trkpt>
      <trkpt lat="45.90804" lon="4.69578">
        <ele>257.03101</ele>
        <time>2022-08-23T14:59:38.000Z</time>
      </trkpt>
      <trkpt lat="45.908" lon="4.69577">
        <ele>256.91202</ele>
        <time>2022-08-23T14:59:39.000Z</time>
      </trkpt>
      <trkpt lat="45.90796" lon="4.69576">
        <ele>256.82141</ele>
        <time>2022-08-23T14:59:40.000Z</time>
      </trkpt>
      <trkpt lat="45.90792" lon="4.69575">
        <ele>256.7431</ele>
        <time>2022-08-23T14:59:41.000Z</time>
      </trkpt>
      <trkpt lat="45.90788" lon="4.69574">
        <ele>256.6792</ele>
        <time>2022-08-23T14:59:42.000Z</time>
      </trkpt>
      <trkpt lat="45.90785" lon="4.69573">
        <ele>256.65149</ele>
        <time>2022-08-23T14:59:43.000Z</time>
      </trkpt>
      <trkpt lat="45.90781" lon="4.69572">
        <ele>256.6474</ele>
        <time>2022-08-23T14:59:44.000Z</time>
      </trkpt>
      <trkpt lat="45.90778" lon="4.6957">
        <ele>256.72665</ele>
        <time>2022-08-23T14:59:45.000Z</time>
      </trkpt>
      <trkpt lat="45.90775" lon="4.69569">
        <ele>256.76086</ele>
        <time>2022-08-23T14:59:46.000Z</time>
      </trkpt>
      <trkpt lat="45.90772" lon="4.69568">
        <ele>256.8244</ele>
        <time>2022-08-23T14:59:47.000Z</time>
      </trkpt>
      <trkpt lat="45.90769" lon="4.69567">
        <ele>256.90576</ele>
        <time>2022-08-23T14:59:48.000Z</time>
      </trkpt>
      <trkpt lat="45.90766" lon="4.69566">
        <ele>256.94492</ele>
        <time>2022-08-23T14:59:49.000Z</time>
      </trkpt>
      <trkpt lat="45.90762" lon="4.69564">
        <ele>256.96408</ele>
        <time>2022-08-23T14:59:50.000Z</time>
      </trkpt>
      <trkpt lat="45.90759" lon="4.69563">
        <ele>256.94205</ele>
        <time>2022-08-23T14:59:51.000Z</time>
      </trkpt>
      <trkpt lat="45.90756" lon="4.69563">
        <ele>256.91104</ele>
        <time>2022-08-23T14:59:52.000Z</time>
      </trkpt>
      <trkpt lat="45.90752" lon="4.69562">
        <ele>256.89899</ele>
        <time>2022-08-23T14:59:53.000Z</time>
      </trkpt>
      <trkpt lat="45.90749" lon="4.69561">
        <ele>256.89484</ele>
        <time>2022-08-23T14:59:54.000Z</time>
      </trkpt>
      <trkpt lat="45.90745" lon="4.69561">
        <ele>256.67496</ele>
        <time>2022-08-23T14:59:55.000Z</time>
      </trkpt>
      <trkpt lat="45.90741" lon="4.6956">
        <ele>256.5473</ele>
        <time>2022-08-23T14:59:56.000Z</time>
      </trkpt>
      <trkpt lat="45.90738" lon="4.69559">
        <ele>256.38226</ele>
        <time>2022-08-23T14:59:57.000Z</time>
      </trkpt>
      <trkpt lat="45.90736" lon="4.69559">
        <ele>256.233</ele>
        <time>2022-08-23T14:59:58.000Z</time>
      </trkpt>
      <trkpt lat="45.90733" lon="4.69558">
        <ele>256.09805</ele>
        <time>2022-08-23T14:59:59.000Z</time>
      </trkpt>
    </trkseg>
  </trk>
</gpx>